<?xml version="1.0" encoding="UTF-8" standalone="no" ?>
<gpx xmlns="http://www.topografix.com/GPX/1/1" xmlns:xsi="http://www.w3.org/2001/XMLSchema-instance" xsi:schemaLocation="http://www.topografix.com/GPX/1/1 http://www.topografix.com/GPX/1/1/gpx.xsd" version="1.1" creator="VisuGPX - https://www.visugpx.com">
  <metadata>
    <name>jusqu'au col de Pradel  </name>
    <desc><![CDATA[🟢]]></desc>
  </metadata>
  <trk>
    <name><![CDATA[jusqu'au col de Pradel  _1]]></name>
    <trkseg>
      <trkpt lat="43.21058" lon="2.30389">
        <ele>143.2</ele>
        <time>2021-10-09T01:45:57Z</time>
      </trkpt>
      <trkpt lat="43.21049" lon="2.30419">
        <ele>142.6</ele>
        <time>2021-10-09T01:46:00Z</time>
      </trkpt>
      <trkpt lat="43.2104" lon="2.3045">
        <ele>141.8</ele>
        <time>2021-10-09T01:46:04Z</time>
      </trkpt>
      <trkpt lat="43.21024" lon="2.305">
        <ele>140.6</ele>
        <time>2021-10-09T01:46:10Z</time>
      </trkpt>
      <trkpt lat="43.21002" lon="2.30571">
        <ele>139.8</ele>
        <time>2021-10-09T01:46:18Z</time>
      </trkpt>
      <trkpt lat="43.20997" lon="2.30589">
        <ele>139.6</ele>
        <time>2021-10-09T01:46:20Z</time>
      </trkpt>
      <trkpt lat="43.20975" lon="2.30661">
        <ele>139</ele>
        <time>2021-10-09T01:46:28Z</time>
      </trkpt>
      <trkpt lat="43.20955" lon="2.3072">
        <ele>137.8</ele>
        <time>2021-10-09T01:46:35Z</time>
      </trkpt>
      <trkpt lat="43.20929" lon="2.30786">
        <ele>137.8</ele>
        <time>2021-10-09T01:46:43Z</time>
      </trkpt>
      <trkpt lat="43.20907" lon="2.30844">
        <ele>137.2</ele>
        <time>2021-10-09T01:46:50Z</time>
      </trkpt>
      <trkpt lat="43.20887" lon="2.30901">
        <ele>137.2</ele>
        <time>2021-10-09T01:46:57Z</time>
      </trkpt>
      <trkpt lat="43.20866" lon="2.30966">
        <ele>136.2</ele>
        <time>2021-10-09T01:47:05Z</time>
      </trkpt>
      <trkpt lat="43.2086" lon="2.30981">
        <ele>135.8</ele>
        <time>2021-10-09T01:47:07Z</time>
      </trkpt>
      <trkpt lat="43.20849" lon="2.30999">
        <ele>135.4</ele>
        <time>2021-10-09T01:47:10Z</time>
      </trkpt>
      <trkpt lat="43.20842" lon="2.31022">
        <ele>135.2</ele>
        <time>2021-10-09T01:47:13Z</time>
      </trkpt>
      <trkpt lat="43.20837" lon="2.31038">
        <ele>134.8</ele>
        <time>2021-10-09T01:47:15Z</time>
      </trkpt>
      <trkpt lat="43.20815" lon="2.31085">
        <ele>133.6</ele>
        <time>2021-10-09T01:47:21Z</time>
      </trkpt>
      <trkpt lat="43.2079" lon="2.3112">
        <ele>132.6</ele>
        <time>2021-10-09T01:47:26Z</time>
      </trkpt>
      <trkpt lat="43.20785" lon="2.31125">
        <ele>132.4</ele>
        <time>2021-10-09T01:47:27Z</time>
      </trkpt>
      <trkpt lat="43.20773" lon="2.31134">
        <ele>132</ele>
        <time>2021-10-09T01:47:29Z</time>
      </trkpt>
      <trkpt lat="43.20763" lon="2.31144">
        <ele>131.8</ele>
        <time>2021-10-09T01:47:31Z</time>
      </trkpt>
      <trkpt lat="43.20721" lon="2.31167">
        <ele>130.6</ele>
        <time>2021-10-09T01:47:38Z</time>
      </trkpt>
      <trkpt lat="43.2067" lon="2.31185">
        <ele>129.4</ele>
        <time>2021-10-09T01:47:46Z</time>
      </trkpt>
      <trkpt lat="43.20626" lon="2.31199">
        <ele>128.6</ele>
        <time>2021-10-09T01:47:53Z</time>
      </trkpt>
      <trkpt lat="43.20568" lon="2.31213">
        <ele>127.2</ele>
        <time>2021-10-09T01:48:02Z</time>
      </trkpt>
      <trkpt lat="43.20562" lon="2.31215">
        <ele>127.2</ele>
        <time>2021-10-09T01:48:03Z</time>
      </trkpt>
      <trkpt lat="43.20504" lon="2.31235">
        <ele>126.2</ele>
        <time>2021-10-09T01:48:12Z</time>
      </trkpt>
      <trkpt lat="43.20453" lon="2.31254">
        <ele>125.4</ele>
        <time>2021-10-09T01:48:20Z</time>
      </trkpt>
      <trkpt lat="43.20406" lon="2.31281">
        <ele>124.6</ele>
        <time>2021-10-09T01:48:28Z</time>
      </trkpt>
      <trkpt lat="43.20363" lon="2.31315">
        <ele>123.8</ele>
        <time>2021-10-09T01:48:36Z</time>
      </trkpt>
      <trkpt lat="43.20333" lon="2.31345">
        <ele>123</ele>
        <time>2021-10-09T01:48:42Z</time>
      </trkpt>
      <trkpt lat="43.20313" lon="2.31362">
        <ele>122.8</ele>
        <time>2021-10-09T01:48:46Z</time>
      </trkpt>
      <trkpt lat="43.20302" lon="2.31368">
        <ele>122.6</ele>
        <time>2021-10-09T01:48:48Z</time>
      </trkpt>
      <trkpt lat="43.20296" lon="2.31369">
        <ele>122.6</ele>
        <time>2021-10-09T01:48:49Z</time>
      </trkpt>
      <trkpt lat="43.20284" lon="2.31372">
        <ele>122.4</ele>
        <time>2021-10-09T01:48:51Z</time>
      </trkpt>
      <trkpt lat="43.20277" lon="2.31372">
        <ele>122.4</ele>
        <time>2021-10-09T01:48:52Z</time>
      </trkpt>
      <trkpt lat="43.20241" lon="2.3137">
        <ele>122</ele>
        <time>2021-10-09T01:48:58Z</time>
      </trkpt>
      <trkpt lat="43.2023" lon="2.31376">
        <ele>121.8</ele>
        <time>2021-10-09T01:49:00Z</time>
      </trkpt>
      <trkpt lat="43.20221" lon="2.31388">
        <ele>121.6</ele>
        <time>2021-10-09T01:49:02Z</time>
      </trkpt>
      <trkpt lat="43.20213" lon="2.31402">
        <ele>121.4</ele>
        <time>2021-10-09T01:49:04Z</time>
      </trkpt>
      <trkpt lat="43.20208" lon="2.31419">
        <ele>121.2</ele>
        <time>2021-10-09T01:49:06Z</time>
      </trkpt>
      <trkpt lat="43.20207" lon="2.31438">
        <ele>121.2</ele>
        <time>2021-10-09T01:49:08Z</time>
      </trkpt>
      <trkpt lat="43.20208" lon="2.31448">
        <ele>121.2</ele>
        <time>2021-10-09T01:49:10Z</time>
      </trkpt>
      <trkpt lat="43.20223" lon="2.31513">
        <ele>120.8</ele>
        <time>2021-10-09T01:49:16Z</time>
      </trkpt>
      <trkpt lat="43.20224" lon="2.31523">
        <ele>120.8</ele>
        <time>2021-10-09T01:49:17Z</time>
      </trkpt>
      <trkpt lat="43.20223" lon="2.31543">
        <ele>120.8</ele>
        <time>2021-10-09T01:49:19Z</time>
      </trkpt>
      <trkpt lat="43.20222" lon="2.31552">
        <ele>120.6</ele>
        <time>2021-10-09T01:49:20Z</time>
      </trkpt>
      <trkpt lat="43.2021" lon="2.31605">
        <ele>120.6</ele>
        <time>2021-10-09T01:49:26Z</time>
      </trkpt>
      <trkpt lat="43.202" lon="2.31661">
        <ele>120.8</ele>
        <time>2021-10-09T01:49:33Z</time>
      </trkpt>
      <trkpt lat="43.20196" lon="2.31707">
        <ele>121.2</ele>
        <time>2021-10-09T01:49:39Z</time>
      </trkpt>
      <trkpt lat="43.20193" lon="2.31759">
        <ele>121.2</ele>
        <time>2021-10-09T01:49:46Z</time>
      </trkpt>
      <trkpt lat="43.20192" lon="2.31811">
        <ele>121.6</ele>
        <time>2021-10-09T01:49:53Z</time>
      </trkpt>
      <trkpt lat="43.20191" lon="2.31855">
        <ele>122.2</ele>
        <time>2021-10-09T01:49:59Z</time>
      </trkpt>
      <trkpt lat="43.20191" lon="2.31862">
        <ele>122.2</ele>
        <time>2021-10-09T01:50:00Z</time>
      </trkpt>
      <trkpt lat="43.2019" lon="2.31898">
        <ele>122.6</ele>
        <time>2021-10-09T01:50:05Z</time>
      </trkpt>
      <trkpt lat="43.20188" lon="2.31941">
        <ele>123.2</ele>
        <time>2021-10-09T01:50:11Z</time>
      </trkpt>
      <trkpt lat="43.20187" lon="2.31976">
        <ele>123.6</ele>
        <time>2021-10-09T01:50:16Z</time>
      </trkpt>
      <trkpt lat="43.20186" lon="2.31983">
        <ele>123.8</ele>
        <time>2021-10-09T01:50:17Z</time>
      </trkpt>
      <trkpt lat="43.20184" lon="2.32032">
        <ele>124.4</ele>
        <time>2021-10-09T01:50:24Z</time>
      </trkpt>
      <trkpt lat="43.20182" lon="2.32082">
        <ele>125.2</ele>
        <time>2021-10-09T01:50:31Z</time>
      </trkpt>
      <trkpt lat="43.20179" lon="2.32126">
        <ele>125.8</ele>
        <time>2021-10-09T01:50:37Z</time>
      </trkpt>
      <trkpt lat="43.20174" lon="2.32172">
        <ele>126.4</ele>
        <time>2021-10-09T01:50:43Z</time>
      </trkpt>
      <trkpt lat="43.20159" lon="2.32243">
        <ele>127.2</ele>
        <time>2021-10-09T01:50:52Z</time>
      </trkpt>
      <trkpt lat="43.20141" lon="2.32301">
        <ele>127.4</ele>
        <time>2021-10-09T01:50:59Z</time>
      </trkpt>
      <trkpt lat="43.20115" lon="2.32369">
        <ele>127.8</ele>
        <time>2021-10-09T01:51:07Z</time>
      </trkpt>
      <trkpt lat="43.20087" lon="2.32433">
        <ele>127.8</ele>
        <time>2021-10-09T01:51:14Z</time>
      </trkpt>
      <trkpt lat="43.20083" lon="2.32443">
        <ele>127.8</ele>
        <time>2021-10-09T01:51:15Z</time>
      </trkpt>
      <trkpt lat="43.2005" lon="2.32513">
        <ele>127.4</ele>
        <time>2021-10-09T01:51:22Z</time>
      </trkpt>
      <trkpt lat="43.20014" lon="2.32578">
        <ele>126.6</ele>
        <time>2021-10-09T01:51:28Z</time>
      </trkpt>
      <trkpt lat="43.20007" lon="2.32588">
        <ele>126.2</ele>
        <time>2021-10-09T01:51:29Z</time>
      </trkpt>
      <trkpt lat="43.1996" lon="2.32649">
        <ele>125</ele>
        <time>2021-10-09T01:51:35Z</time>
      </trkpt>
      <trkpt lat="43.19936" lon="2.32685">
        <ele>124.2</ele>
        <time>2021-10-09T01:51:39Z</time>
      </trkpt>
      <trkpt lat="43.19932" lon="2.32694">
        <ele>124.2</ele>
        <time>2021-10-09T01:51:40Z</time>
      </trkpt>
      <trkpt lat="43.19928" lon="2.32712">
        <ele>123.8</ele>
        <time>2021-10-09T01:51:42Z</time>
      </trkpt>
      <trkpt lat="43.19933" lon="2.3273">
        <ele>123.6</ele>
        <time>2021-10-09T01:51:44Z</time>
      </trkpt>
      <trkpt lat="43.19938" lon="2.32737">
        <ele>123.6</ele>
        <time>2021-10-09T01:51:45Z</time>
      </trkpt>
      <trkpt lat="43.19943" lon="2.32745">
        <ele>123.4</ele>
        <time>2021-10-09T01:51:46Z</time>
      </trkpt>
      <trkpt lat="43.19959" lon="2.32768">
        <ele>123</ele>
        <time>2021-10-09T01:51:49Z</time>
      </trkpt>
      <trkpt lat="43.19989" lon="2.32805">
        <ele>122.2</ele>
        <time>2021-10-09T01:51:54Z</time>
      </trkpt>
      <trkpt lat="43.2003" lon="2.3286">
        <ele>121.2</ele>
        <time>2021-10-09T01:52:01Z</time>
      </trkpt>
      <trkpt lat="43.20036" lon="2.32868">
        <ele>121</ele>
        <time>2021-10-09T01:52:02Z</time>
      </trkpt>
      <trkpt lat="43.20053" lon="2.32886">
        <ele>120.6</ele>
        <time>2021-10-09T01:52:05Z</time>
      </trkpt>
      <trkpt lat="43.20096" lon="2.32919">
        <ele>119.6</ele>
        <time>2021-10-09T01:52:11Z</time>
      </trkpt>
      <trkpt lat="43.20139" lon="2.32949">
        <ele>119.2</ele>
        <time>2021-10-09T01:52:17Z</time>
      </trkpt>
      <trkpt lat="43.20186" lon="2.32988">
        <ele>119</ele>
        <time>2021-10-09T01:52:24Z</time>
      </trkpt>
      <trkpt lat="43.20229" lon="2.33031">
        <ele>118.4</ele>
        <time>2021-10-09T01:52:31Z</time>
      </trkpt>
      <trkpt lat="43.20263" lon="2.33069">
        <ele>117.8</ele>
        <time>2021-10-09T01:52:37Z</time>
      </trkpt>
      <trkpt lat="43.20298" lon="2.33106">
        <ele>117.4</ele>
        <time>2021-10-09T01:52:43Z</time>
      </trkpt>
      <trkpt lat="43.20327" lon="2.33137">
        <ele>117.2</ele>
        <time>2021-10-09T01:52:48Z</time>
      </trkpt>
      <trkpt lat="43.2037" lon="2.33184">
        <ele>116.6</ele>
        <time>2021-10-09T01:52:55Z</time>
      </trkpt>
      <trkpt lat="43.20414" lon="2.33242">
        <ele>115.8</ele>
        <time>2021-10-09T01:53:03Z</time>
      </trkpt>
      <trkpt lat="43.20425" lon="2.33257">
        <ele>115.6</ele>
        <time>2021-10-09T01:53:05Z</time>
      </trkpt>
      <trkpt lat="43.20433" lon="2.33274">
        <ele>115.4</ele>
        <time>2021-10-09T01:53:07Z</time>
      </trkpt>
      <trkpt lat="43.20438" lon="2.33293">
        <ele>115.2</ele>
        <time>2021-10-09T01:53:09Z</time>
      </trkpt>
      <trkpt lat="43.20434" lon="2.33314">
        <ele>115.2</ele>
        <time>2021-10-09T01:53:11Z</time>
      </trkpt>
      <trkpt lat="43.2043" lon="2.33323">
        <ele>115</ele>
        <time>2021-10-09T01:53:12Z</time>
      </trkpt>
      <trkpt lat="43.20426" lon="2.33332">
        <ele>115</ele>
        <time>2021-10-09T01:53:13Z</time>
      </trkpt>
      <trkpt lat="43.20411" lon="2.33356">
        <ele>115</ele>
        <time>2021-10-09T01:53:16Z</time>
      </trkpt>
      <trkpt lat="43.20367" lon="2.33407">
        <ele>114.6</ele>
        <time>2021-10-09T01:53:24Z</time>
      </trkpt>
      <trkpt lat="43.20321" lon="2.3346">
        <ele>114.2</ele>
        <time>2021-10-09T01:53:32Z</time>
      </trkpt>
      <trkpt lat="43.20316" lon="2.33466">
        <ele>114.2</ele>
        <time>2021-10-09T01:53:33Z</time>
      </trkpt>
      <trkpt lat="43.20268" lon="2.3352">
        <ele>113.6</ele>
        <time>2021-10-09T01:53:41Z</time>
      </trkpt>
      <trkpt lat="43.20262" lon="2.33527">
        <ele>113.6</ele>
        <time>2021-10-09T01:53:42Z</time>
      </trkpt>
      <trkpt lat="43.20215" lon="2.33581">
        <ele>113</ele>
        <time>2021-10-09T01:53:50Z</time>
      </trkpt>
      <trkpt lat="43.20203" lon="2.33593">
        <ele>113</ele>
        <time>2021-10-09T01:53:52Z</time>
      </trkpt>
      <trkpt lat="43.20155" lon="2.33639">
        <ele>112.8</ele>
        <time>2021-10-09T01:54:00Z</time>
      </trkpt>
      <trkpt lat="43.20136" lon="2.33654">
        <ele>112.6</ele>
        <time>2021-10-09T01:54:03Z</time>
      </trkpt>
      <trkpt lat="43.20124" lon="2.33663">
        <ele>112.6</ele>
        <time>2021-10-09T01:54:05Z</time>
      </trkpt>
      <trkpt lat="43.20072" lon="2.33693">
        <ele>112.2</ele>
        <time>2021-10-09T01:54:13Z</time>
      </trkpt>
      <trkpt lat="43.20065" lon="2.33696">
        <ele>112</ele>
        <time>2021-10-09T01:54:14Z</time>
      </trkpt>
      <trkpt lat="43.2001" lon="2.33712">
        <ele>111.8</ele>
        <time>2021-10-09T01:54:22Z</time>
      </trkpt>
      <trkpt lat="43.19987" lon="2.33711">
        <ele>111.8</ele>
        <time>2021-10-09T01:54:25Z</time>
      </trkpt>
      <trkpt lat="43.19981" lon="2.33716">
        <ele>111.8</ele>
        <time>2021-10-09T01:54:26Z</time>
      </trkpt>
      <trkpt lat="43.19941" lon="2.33726">
        <ele>111.6</ele>
        <time>2021-10-09T01:54:32Z</time>
      </trkpt>
      <trkpt lat="43.19934" lon="2.33726">
        <ele>111.8</ele>
        <time>2021-10-09T01:54:33Z</time>
      </trkpt>
      <trkpt lat="43.19886" lon="2.33731">
        <ele>111.8</ele>
        <time>2021-10-09T01:54:40Z</time>
      </trkpt>
      <trkpt lat="43.19832" lon="2.33732">
        <ele>111.8</ele>
        <time>2021-10-09T01:54:48Z</time>
      </trkpt>
      <trkpt lat="43.19825" lon="2.33731">
        <ele>111.8</ele>
        <time>2021-10-09T01:54:49Z</time>
      </trkpt>
      <trkpt lat="43.19772" lon="2.33724">
        <ele>112</ele>
        <time>2021-10-09T01:54:57Z</time>
      </trkpt>
      <trkpt lat="43.19726" lon="2.33709">
        <ele>112.4</ele>
        <time>2021-10-09T01:55:04Z</time>
      </trkpt>
      <trkpt lat="43.19672" lon="2.33679">
        <ele>112.6</ele>
        <time>2021-10-09T01:55:13Z</time>
      </trkpt>
      <trkpt lat="43.19619" lon="2.33655">
        <ele>113.2</ele>
        <time>2021-10-09T01:55:22Z</time>
      </trkpt>
      <trkpt lat="43.19567" lon="2.33647">
        <ele>113.8</ele>
        <time>2021-10-09T01:55:30Z</time>
      </trkpt>
      <trkpt lat="43.19509" lon="2.33638">
        <ele>114.2</ele>
        <time>2021-10-09T01:55:39Z</time>
      </trkpt>
      <trkpt lat="43.19503" lon="2.33637">
        <ele>114.2</ele>
        <time>2021-10-09T01:55:40Z</time>
      </trkpt>
      <trkpt lat="43.19476" lon="2.33634">
        <ele>114.4</ele>
        <time>2021-10-09T01:55:44Z</time>
      </trkpt>
      <trkpt lat="43.1947" lon="2.33633">
        <ele>114.4</ele>
        <time>2021-10-09T01:55:45Z</time>
      </trkpt>
      <trkpt lat="43.19445" lon="2.3363">
        <ele>114.6</ele>
        <time>2021-10-09T01:55:49Z</time>
      </trkpt>
      <trkpt lat="43.19387" lon="2.33625">
        <ele>114.8</ele>
        <time>2021-10-09T01:55:57Z</time>
      </trkpt>
      <trkpt lat="43.19342" lon="2.33622">
        <ele>115</ele>
        <time>2021-10-09T01:56:03Z</time>
      </trkpt>
      <trkpt lat="43.19305" lon="2.33603">
        <ele>115</ele>
        <time>2021-10-09T01:56:08Z</time>
      </trkpt>
      <trkpt lat="43.19272" lon="2.33577">
        <ele>115.2</ele>
        <time>2021-10-09T01:56:13Z</time>
      </trkpt>
      <trkpt lat="43.19229" lon="2.33529">
        <ele>115.2</ele>
        <time>2021-10-09T01:56:20Z</time>
      </trkpt>
      <trkpt lat="43.19199" lon="2.33479">
        <ele>115.4</ele>
        <time>2021-10-09T01:56:26Z</time>
      </trkpt>
      <trkpt lat="43.19177" lon="2.33419">
        <ele>115.2</ele>
        <time>2021-10-09T01:56:32Z</time>
      </trkpt>
      <trkpt lat="43.19171" lon="2.33378">
        <ele>115.4</ele>
        <time>2021-10-09T01:56:36Z</time>
      </trkpt>
      <trkpt lat="43.19172" lon="2.33311">
        <ele>115.2</ele>
        <time>2021-10-09T01:56:43Z</time>
      </trkpt>
      <trkpt lat="43.19171" lon="2.33292">
        <ele>115.2</ele>
        <time>2021-10-09T01:56:45Z</time>
      </trkpt>
      <trkpt lat="43.19167" lon="2.33264">
        <ele>115</ele>
        <time>2021-10-09T01:56:48Z</time>
      </trkpt>
      <trkpt lat="43.19154" lon="2.33229">
        <ele>115</ele>
        <time>2021-10-09T01:56:52Z</time>
      </trkpt>
      <trkpt lat="43.19139" lon="2.33206">
        <ele>114.8</ele>
        <time>2021-10-09T01:56:55Z</time>
      </trkpt>
      <trkpt lat="43.19127" lon="2.33194">
        <ele>114.8</ele>
        <time>2021-10-09T01:56:57Z</time>
      </trkpt>
      <trkpt lat="43.19093" lon="2.33178">
        <ele>114.6</ele>
        <time>2021-10-09T01:57:02Z</time>
      </trkpt>
      <trkpt lat="43.19086" lon="2.33177">
        <ele>114.6</ele>
        <time>2021-10-09T01:57:03Z</time>
      </trkpt>
      <trkpt lat="43.19072" lon="2.33177">
        <ele>114.4</ele>
        <time>2021-10-09T01:57:05Z</time>
      </trkpt>
      <trkpt lat="43.19065" lon="2.33179">
        <ele>114.4</ele>
        <time>2021-10-09T01:57:06Z</time>
      </trkpt>
      <trkpt lat="43.1903" lon="2.33194">
        <ele>114.4</ele>
        <time>2021-10-09T01:57:11Z</time>
      </trkpt>
      <trkpt lat="43.18989" lon="2.33217">
        <ele>114</ele>
        <time>2021-10-09T01:57:17Z</time>
      </trkpt>
      <trkpt lat="43.18947" lon="2.33232">
        <ele>113.6</ele>
        <time>2021-10-09T01:57:23Z</time>
      </trkpt>
      <trkpt lat="43.18912" lon="2.33227">
        <ele>113.6</ele>
        <time>2021-10-09T01:57:28Z</time>
      </trkpt>
      <trkpt lat="43.1888" lon="2.33209">
        <ele>113.8</ele>
        <time>2021-10-09T01:57:33Z</time>
      </trkpt>
      <trkpt lat="43.18855" lon="2.33191">
        <ele>113.8</ele>
        <time>2021-10-09T01:57:37Z</time>
      </trkpt>
      <trkpt lat="43.18849" lon="2.33187">
        <ele>113.8</ele>
        <time>2021-10-09T01:57:38Z</time>
      </trkpt>
      <trkpt lat="43.18807" lon="2.33154">
        <ele>113.6</ele>
        <time>2021-10-09T01:57:45Z</time>
      </trkpt>
      <trkpt lat="43.18765" lon="2.33119">
        <ele>114</ele>
        <time>2021-10-09T01:57:52Z</time>
      </trkpt>
      <trkpt lat="43.18729" lon="2.33088">
        <ele>114</ele>
        <time>2021-10-09T01:57:58Z</time>
      </trkpt>
      <trkpt lat="43.18687" lon="2.33052">
        <ele>114</ele>
        <time>2021-10-09T01:58:05Z</time>
      </trkpt>
      <trkpt lat="43.1864" lon="2.33011">
        <ele>114</ele>
        <time>2021-10-09T01:58:13Z</time>
      </trkpt>
      <trkpt lat="43.18592" lon="2.32969">
        <ele>114.2</ele>
        <time>2021-10-09T01:58:21Z</time>
      </trkpt>
      <trkpt lat="43.18586" lon="2.32963">
        <ele>114.2</ele>
        <time>2021-10-09T01:58:22Z</time>
      </trkpt>
      <trkpt lat="43.18537" lon="2.32921">
        <ele>114</ele>
        <time>2021-10-09T01:58:30Z</time>
      </trkpt>
      <trkpt lat="43.18523" lon="2.32911">
        <ele>114</ele>
        <time>2021-10-09T01:58:32Z</time>
      </trkpt>
      <trkpt lat="43.18472" lon="2.32874">
        <ele>114.2</ele>
        <time>2021-10-09T01:58:40Z</time>
      </trkpt>
      <trkpt lat="43.18465" lon="2.3287">
        <ele>114.2</ele>
        <time>2021-10-09T01:58:41Z</time>
      </trkpt>
      <trkpt lat="43.18419" lon="2.32841">
        <ele>114.4</ele>
        <time>2021-10-09T01:58:48Z</time>
      </trkpt>
      <trkpt lat="43.18366" lon="2.32813">
        <ele>114.4</ele>
        <time>2021-10-09T01:58:56Z</time>
      </trkpt>
      <trkpt lat="43.1836" lon="2.32809">
        <ele>114.4</ele>
        <time>2021-10-09T01:58:57Z</time>
      </trkpt>
      <trkpt lat="43.18308" lon="2.32781">
        <ele>114.8</ele>
        <time>2021-10-09T01:59:05Z</time>
      </trkpt>
      <trkpt lat="43.18289" lon="2.32771">
        <ele>115</ele>
        <time>2021-10-09T01:59:08Z</time>
      </trkpt>
      <trkpt lat="43.18239" lon="2.32744">
        <ele>115.4</ele>
        <time>2021-10-09T01:59:16Z</time>
      </trkpt>
      <trkpt lat="43.18189" lon="2.32717">
        <ele>115.6</ele>
        <time>2021-10-09T01:59:24Z</time>
      </trkpt>
      <trkpt lat="43.1817" lon="2.32707">
        <ele>115.6</ele>
        <time>2021-10-09T01:59:27Z</time>
      </trkpt>
      <trkpt lat="43.18115" lon="2.32677">
        <ele>116</ele>
        <time>2021-10-09T01:59:36Z</time>
      </trkpt>
      <trkpt lat="43.18109" lon="2.32674">
        <ele>116.2</ele>
        <time>2021-10-09T01:59:37Z</time>
      </trkpt>
      <trkpt lat="43.1806" lon="2.32647">
        <ele>116.4</ele>
        <time>2021-10-09T01:59:45Z</time>
      </trkpt>
      <trkpt lat="43.18005" lon="2.32617">
        <ele>116.8</ele>
        <time>2021-10-09T01:59:54Z</time>
      </trkpt>
      <trkpt lat="43.17987" lon="2.32607">
        <ele>116.8</ele>
        <time>2021-10-09T01:59:57Z</time>
      </trkpt>
      <trkpt lat="43.17938" lon="2.32581">
        <ele>117</ele>
        <time>2021-10-09T02:00:05Z</time>
      </trkpt>
      <trkpt lat="43.17904" lon="2.32563">
        <ele>117.2</ele>
        <time>2021-10-09T02:00:11Z</time>
      </trkpt>
      <trkpt lat="43.1786" lon="2.32532">
        <ele>117.2</ele>
        <time>2021-10-09T02:00:19Z</time>
      </trkpt>
      <trkpt lat="43.17849" lon="2.32522">
        <ele>117.4</ele>
        <time>2021-10-09T02:00:21Z</time>
      </trkpt>
      <trkpt lat="43.17839" lon="2.3251">
        <ele>117.4</ele>
        <time>2021-10-09T02:00:23Z</time>
      </trkpt>
      <trkpt lat="43.17821" lon="2.32461">
        <ele>117.6</ele>
        <time>2021-10-09T02:00:29Z</time>
      </trkpt>
      <trkpt lat="43.17812" lon="2.32448">
        <ele>117.8</ele>
        <time>2021-10-09T02:00:31Z</time>
      </trkpt>
      <trkpt lat="43.178" lon="2.3244">
        <ele>117.8</ele>
        <time>2021-10-09T02:00:33Z</time>
      </trkpt>
      <trkpt lat="43.17789" lon="2.32436">
        <ele>118</ele>
        <time>2021-10-09T02:00:35Z</time>
      </trkpt>
      <trkpt lat="43.17772" lon="2.32432">
        <ele>118.2</ele>
        <time>2021-10-09T02:00:38Z</time>
      </trkpt>
      <trkpt lat="43.17727" lon="2.3242">
        <ele>119</ele>
        <time>2021-10-09T02:00:46Z</time>
      </trkpt>
      <trkpt lat="43.17683" lon="2.32408">
        <ele>119.8</ele>
        <time>2021-10-09T02:00:54Z</time>
      </trkpt>
      <trkpt lat="43.17641" lon="2.32397">
        <ele>120.8</ele>
        <time>2021-10-09T02:01:02Z</time>
      </trkpt>
      <trkpt lat="43.17592" lon="2.32384">
        <ele>122</ele>
        <time>2021-10-09T02:01:11Z</time>
      </trkpt>
      <trkpt lat="43.17546" lon="2.32369">
        <ele>123</ele>
        <time>2021-10-09T02:01:19Z</time>
      </trkpt>
      <trkpt lat="43.17494" lon="2.32352">
        <ele>124.2</ele>
        <time>2021-10-09T02:01:28Z</time>
      </trkpt>
      <trkpt lat="43.17482" lon="2.32348">
        <ele>124.4</ele>
        <time>2021-10-09T02:01:30Z</time>
      </trkpt>
      <trkpt lat="43.17438" lon="2.32334">
        <ele>125.2</ele>
        <time>2021-10-09T02:01:37Z</time>
      </trkpt>
      <trkpt lat="43.17432" lon="2.32332">
        <ele>125.2</ele>
        <time>2021-10-09T02:01:38Z</time>
      </trkpt>
      <trkpt lat="43.17387" lon="2.32317">
        <ele>126</ele>
        <time>2021-10-09T02:01:45Z</time>
      </trkpt>
      <trkpt lat="43.17334" lon="2.323">
        <ele>126.8</ele>
        <time>2021-10-09T02:01:53Z</time>
      </trkpt>
      <trkpt lat="43.17279" lon="2.32291">
        <ele>127.4</ele>
        <time>2021-10-09T02:02:01Z</time>
      </trkpt>
      <trkpt lat="43.1723" lon="2.3229">
        <ele>127.8</ele>
        <time>2021-10-09T02:02:08Z</time>
      </trkpt>
      <trkpt lat="43.17198" lon="2.32289">
        <ele>128.2</ele>
        <time>2021-10-09T02:02:13Z</time>
      </trkpt>
      <trkpt lat="43.17192" lon="2.32289">
        <ele>128.2</ele>
        <time>2021-10-09T02:02:14Z</time>
      </trkpt>
      <trkpt lat="43.17183" lon="2.32273">
        <ele>128.4</ele>
        <time>2021-10-09T02:02:16Z</time>
      </trkpt>
      <trkpt lat="43.17173" lon="2.32274">
        <ele>128.6</ele>
        <time>2021-10-09T02:02:18Z</time>
      </trkpt>
      <trkpt lat="43.17138" lon="2.32272">
        <ele>129.2</ele>
        <time>2021-10-09T02:02:24Z</time>
      </trkpt>
      <trkpt lat="43.17098" lon="2.32265">
        <ele>130</ele>
        <time>2021-10-09T02:02:32Z</time>
      </trkpt>
      <trkpt lat="43.17063" lon="2.3226">
        <ele>130.6</ele>
        <time>2021-10-09T02:02:39Z</time>
      </trkpt>
      <trkpt lat="43.17048" lon="2.32257">
        <ele>131</ele>
        <time>2021-10-09T02:02:42Z</time>
      </trkpt>
      <trkpt lat="43.17034" lon="2.32255">
        <ele>131.2</ele>
        <time>2021-10-09T02:02:45Z</time>
      </trkpt>
      <trkpt lat="43.17005" lon="2.32251">
        <ele>131.8</ele>
        <time>2021-10-09T02:02:51Z</time>
      </trkpt>
      <trkpt lat="43.16995" lon="2.3225">
        <ele>132.2</ele>
        <time>2021-10-09T02:02:53Z</time>
      </trkpt>
      <trkpt lat="43.16965" lon="2.32245">
        <ele>133</ele>
        <time>2021-10-09T02:03:00Z</time>
      </trkpt>
      <trkpt lat="43.16942" lon="2.32241">
        <ele>134</ele>
        <time>2021-10-09T02:03:06Z</time>
      </trkpt>
      <trkpt lat="43.16911" lon="2.32236">
        <ele>135.6</ele>
        <time>2021-10-09T02:03:14Z</time>
      </trkpt>
      <trkpt lat="43.16883" lon="2.32231">
        <ele>137</ele>
        <time>2021-10-09T02:03:21Z</time>
      </trkpt>
      <trkpt lat="43.1685" lon="2.32226">
        <ele>138.6</ele>
        <time>2021-10-09T02:03:29Z</time>
      </trkpt>
      <trkpt lat="43.16846" lon="2.32225">
        <ele>138.8</ele>
        <time>2021-10-09T02:03:30Z</time>
      </trkpt>
      <trkpt lat="43.16829" lon="2.32222">
        <ele>139.8</ele>
        <time>2021-10-09T02:03:34Z</time>
      </trkpt>
      <trkpt lat="43.16792" lon="2.32215">
        <ele>141.6</ele>
        <time>2021-10-09T02:03:43Z</time>
      </trkpt>
      <trkpt lat="43.1676" lon="2.3221">
        <ele>143.2</ele>
        <time>2021-10-09T02:03:51Z</time>
      </trkpt>
      <trkpt lat="43.16731" lon="2.32205">
        <ele>144.8</ele>
        <time>2021-10-09T02:03:58Z</time>
      </trkpt>
      <trkpt lat="43.16705" lon="2.32201">
        <ele>146.4</ele>
        <time>2021-10-09T02:04:05Z</time>
      </trkpt>
      <trkpt lat="43.16677" lon="2.32197">
        <ele>148.2</ele>
        <time>2021-10-09T02:04:13Z</time>
      </trkpt>
      <trkpt lat="43.16655" lon="2.32194">
        <ele>149.8</ele>
        <time>2021-10-09T02:04:19Z</time>
      </trkpt>
      <trkpt lat="43.16619" lon="2.32188">
        <ele>152.4</ele>
        <time>2021-10-09T02:04:29Z</time>
      </trkpt>
      <trkpt lat="43.16585" lon="2.32183">
        <ele>155</ele>
        <time>2021-10-09T02:04:38Z</time>
      </trkpt>
      <trkpt lat="43.16559" lon="2.32177">
        <ele>156.8</ele>
        <time>2021-10-09T02:04:45Z</time>
      </trkpt>
      <trkpt lat="43.16532" lon="2.32165">
        <ele>158.8</ele>
        <time>2021-10-09T02:04:52Z</time>
      </trkpt>
      <trkpt lat="43.1652" lon="2.32158">
        <ele>159.6</ele>
        <time>2021-10-09T02:04:55Z</time>
      </trkpt>
      <trkpt lat="43.16501" lon="2.32143">
        <ele>161</ele>
        <time>2021-10-09T02:05:00Z</time>
      </trkpt>
      <trkpt lat="43.16478" lon="2.32119">
        <ele>162.4</ele>
        <time>2021-10-09T02:05:06Z</time>
      </trkpt>
      <trkpt lat="43.16474" lon="2.32114">
        <ele>162.6</ele>
        <time>2021-10-09T02:05:07Z</time>
      </trkpt>
      <trkpt lat="43.16448" lon="2.32072">
        <ele>164.2</ele>
        <time>2021-10-09T02:05:14Z</time>
      </trkpt>
      <trkpt lat="43.16438" lon="2.32047">
        <ele>164.4</ele>
        <time>2021-10-09T02:05:17Z</time>
      </trkpt>
      <trkpt lat="43.16431" lon="2.32029">
        <ele>164.6</ele>
        <time>2021-10-09T02:05:19Z</time>
      </trkpt>
      <trkpt lat="43.16408" lon="2.31976">
        <ele>164.8</ele>
        <time>2021-10-09T02:05:24Z</time>
      </trkpt>
      <trkpt lat="43.16394" lon="2.31957">
        <ele>164.8</ele>
        <time>2021-10-09T02:05:26Z</time>
      </trkpt>
      <trkpt lat="43.16378" lon="2.31941">
        <ele>164.8</ele>
        <time>2021-10-09T02:05:28Z</time>
      </trkpt>
      <trkpt lat="43.16341" lon="2.3192">
        <ele>164.6</ele>
        <time>2021-10-09T02:05:32Z</time>
      </trkpt>
      <trkpt lat="43.16286" lon="2.31898">
        <ele>164.8</ele>
        <time>2021-10-09T02:05:38Z</time>
      </trkpt>
      <trkpt lat="43.16277" lon="2.31895">
        <ele>164.8</ele>
        <time>2021-10-09T02:05:39Z</time>
      </trkpt>
      <trkpt lat="43.1622" lon="2.31877">
        <ele>164.8</ele>
        <time>2021-10-09T02:05:46Z</time>
      </trkpt>
      <trkpt lat="43.16178" lon="2.3187">
        <ele>165.2</ele>
        <time>2021-10-09T02:05:52Z</time>
      </trkpt>
      <trkpt lat="43.16134" lon="2.31865">
        <ele>165.4</ele>
        <time>2021-10-09T02:05:59Z</time>
      </trkpt>
      <trkpt lat="43.16084" lon="2.31862">
        <ele>165.6</ele>
        <time>2021-10-09T02:06:06Z</time>
      </trkpt>
      <trkpt lat="43.16029" lon="2.31861">
        <ele>165.4</ele>
        <time>2021-10-09T02:06:13Z</time>
      </trkpt>
      <trkpt lat="43.16021" lon="2.31861">
        <ele>165.4</ele>
        <time>2021-10-09T02:06:14Z</time>
      </trkpt>
      <trkpt lat="43.15962" lon="2.31863">
        <ele>164.6</ele>
        <time>2021-10-09T02:06:21Z</time>
      </trkpt>
      <trkpt lat="43.15944" lon="2.31864">
        <ele>164.4</ele>
        <time>2021-10-09T02:06:23Z</time>
      </trkpt>
      <trkpt lat="43.15889" lon="2.31866">
        <ele>163.6</ele>
        <time>2021-10-09T02:06:29Z</time>
      </trkpt>
      <trkpt lat="43.15869" lon="2.31867">
        <ele>163.2</ele>
        <time>2021-10-09T02:06:31Z</time>
      </trkpt>
      <trkpt lat="43.15809" lon="2.31866">
        <ele>162</ele>
        <time>2021-10-09T02:06:37Z</time>
      </trkpt>
      <trkpt lat="43.15798" lon="2.31863">
        <ele>161.8</ele>
        <time>2021-10-09T02:06:38Z</time>
      </trkpt>
      <trkpt lat="43.15769" lon="2.31851">
        <ele>161</ele>
        <time>2021-10-09T02:06:41Z</time>
      </trkpt>
      <trkpt lat="43.15759" lon="2.31846">
        <ele>160.8</ele>
        <time>2021-10-09T02:06:42Z</time>
      </trkpt>
      <trkpt lat="43.1575" lon="2.31837">
        <ele>160.6</ele>
        <time>2021-10-09T02:06:43Z</time>
      </trkpt>
      <trkpt lat="43.15734" lon="2.31818">
        <ele>160</ele>
        <time>2021-10-09T02:06:45Z</time>
      </trkpt>
      <trkpt lat="43.15697" lon="2.31763">
        <ele>158.8</ele>
        <time>2021-10-09T02:06:50Z</time>
      </trkpt>
      <trkpt lat="43.15689" lon="2.31753">
        <ele>158.6</ele>
        <time>2021-10-09T02:06:51Z</time>
      </trkpt>
      <trkpt lat="43.15671" lon="2.31738">
        <ele>158.2</ele>
        <time>2021-10-09T02:06:53Z</time>
      </trkpt>
      <trkpt lat="43.1566" lon="2.31735">
        <ele>157.8</ele>
        <time>2021-10-09T02:06:54Z</time>
      </trkpt>
      <trkpt lat="43.1565" lon="2.31732">
        <ele>157.6</ele>
        <time>2021-10-09T02:06:55Z</time>
      </trkpt>
      <trkpt lat="43.15629" lon="2.31734">
        <ele>156.8</ele>
        <time>2021-10-09T02:06:57Z</time>
      </trkpt>
      <trkpt lat="43.15607" lon="2.31744">
        <ele>156</ele>
        <time>2021-10-09T02:06:59Z</time>
      </trkpt>
      <trkpt lat="43.15598" lon="2.31751">
        <ele>155.6</ele>
        <time>2021-10-09T02:07:00Z</time>
      </trkpt>
      <trkpt lat="43.1559" lon="2.31763">
        <ele>155.2</ele>
        <time>2021-10-09T02:07:01Z</time>
      </trkpt>
      <trkpt lat="43.15576" lon="2.31788">
        <ele>154.2</ele>
        <time>2021-10-09T02:07:03Z</time>
      </trkpt>
      <trkpt lat="43.15564" lon="2.31811">
        <ele>153.4</ele>
        <time>2021-10-09T02:07:05Z</time>
      </trkpt>
      <trkpt lat="43.1555" lon="2.3183">
        <ele>152.4</ele>
        <time>2021-10-09T02:07:07Z</time>
      </trkpt>
      <trkpt lat="43.15532" lon="2.31842">
        <ele>151.6</ele>
        <time>2021-10-09T02:07:09Z</time>
      </trkpt>
      <trkpt lat="43.15522" lon="2.31845">
        <ele>151.2</ele>
        <time>2021-10-09T02:07:10Z</time>
      </trkpt>
      <trkpt lat="43.15472" lon="2.31863">
        <ele>149.4</ele>
        <time>2021-10-09T02:07:15Z</time>
      </trkpt>
      <trkpt lat="43.15446" lon="2.31877">
        <ele>148.6</ele>
        <time>2021-10-09T02:07:18Z</time>
      </trkpt>
      <trkpt lat="43.15438" lon="2.31882">
        <ele>148.2</ele>
        <time>2021-10-09T02:07:19Z</time>
      </trkpt>
      <trkpt lat="43.15404" lon="2.31918">
        <ele>146.8</ele>
        <time>2021-10-09T02:07:24Z</time>
      </trkpt>
      <trkpt lat="43.15357" lon="2.31959">
        <ele>145</ele>
        <time>2021-10-09T02:07:31Z</time>
      </trkpt>
      <trkpt lat="43.15308" lon="2.31992">
        <ele>143.4</ele>
        <time>2021-10-09T02:07:38Z</time>
      </trkpt>
      <trkpt lat="43.15293" lon="2.31999">
        <ele>143</ele>
        <time>2021-10-09T02:07:40Z</time>
      </trkpt>
      <trkpt lat="43.15236" lon="2.32023">
        <ele>141.4</ele>
        <time>2021-10-09T02:07:48Z</time>
      </trkpt>
      <trkpt lat="43.15229" lon="2.32026">
        <ele>141.2</ele>
        <time>2021-10-09T02:07:49Z</time>
      </trkpt>
      <trkpt lat="43.1517" lon="2.32038">
        <ele>140</ele>
        <time>2021-10-09T02:07:57Z</time>
      </trkpt>
      <trkpt lat="43.15112" lon="2.32038">
        <ele>139</ele>
        <time>2021-10-09T02:08:05Z</time>
      </trkpt>
      <trkpt lat="43.15104" lon="2.32037">
        <ele>138.8</ele>
        <time>2021-10-09T02:08:06Z</time>
      </trkpt>
      <trkpt lat="43.15047" lon="2.32028">
        <ele>138</ele>
        <time>2021-10-09T02:08:14Z</time>
      </trkpt>
      <trkpt lat="43.1499" lon="2.32015">
        <ele>137.4</ele>
        <time>2021-10-09T02:08:22Z</time>
      </trkpt>
      <trkpt lat="43.14983" lon="2.32014">
        <ele>137.4</ele>
        <time>2021-10-09T02:08:23Z</time>
      </trkpt>
      <trkpt lat="43.14947" lon="2.32021">
        <ele>137</ele>
        <time>2021-10-09T02:08:28Z</time>
      </trkpt>
      <trkpt lat="43.14919" lon="2.32037">
        <ele>136.6</ele>
        <time>2021-10-09T02:08:32Z</time>
      </trkpt>
      <trkpt lat="43.14904" lon="2.32061">
        <ele>136.2</ele>
        <time>2021-10-09T02:08:35Z</time>
      </trkpt>
      <trkpt lat="43.14901" lon="2.32069">
        <ele>136.2</ele>
        <time>2021-10-09T02:08:36Z</time>
      </trkpt>
      <trkpt lat="43.14894" lon="2.32087">
        <ele>136</ele>
        <time>2021-10-09T02:08:38Z</time>
      </trkpt>
      <trkpt lat="43.14888" lon="2.32105">
        <ele>135.8</ele>
        <time>2021-10-09T02:08:40Z</time>
      </trkpt>
      <trkpt lat="43.14869" lon="2.32154">
        <ele>135.4</ele>
        <time>2021-10-09T02:08:46Z</time>
      </trkpt>
      <trkpt lat="43.14858" lon="2.32174">
        <ele>135.4</ele>
        <time>2021-10-09T02:08:49Z</time>
      </trkpt>
      <trkpt lat="43.14855" lon="2.3218">
        <ele>135.4</ele>
        <time>2021-10-09T02:08:50Z</time>
      </trkpt>
      <trkpt lat="43.14836" lon="2.32213">
        <ele>135.2</ele>
        <time>2021-10-09T02:08:55Z</time>
      </trkpt>
      <trkpt lat="43.14828" lon="2.32218">
        <ele>135.2</ele>
        <time>2021-10-09T02:08:56Z</time>
      </trkpt>
      <trkpt lat="43.14797" lon="2.32229">
        <ele>135</ele>
        <time>2021-10-09T02:09:01Z</time>
      </trkpt>
      <trkpt lat="43.14759" lon="2.32244">
        <ele>134.8</ele>
        <time>2021-10-09T02:09:07Z</time>
      </trkpt>
      <trkpt lat="43.14752" lon="2.32247">
        <ele>134.8</ele>
        <time>2021-10-09T02:09:08Z</time>
      </trkpt>
      <trkpt lat="43.14731" lon="2.32247">
        <ele>134.6</ele>
        <time>2021-10-09T02:09:11Z</time>
      </trkpt>
      <trkpt lat="43.1469" lon="2.32241">
        <ele>134.2</ele>
        <time>2021-10-09T02:09:17Z</time>
      </trkpt>
      <trkpt lat="43.14677" lon="2.32246">
        <ele>134.2</ele>
        <time>2021-10-09T02:09:19Z</time>
      </trkpt>
      <trkpt lat="43.14672" lon="2.32252">
        <ele>134.2</ele>
        <time>2021-10-09T02:09:20Z</time>
      </trkpt>
      <trkpt lat="43.14666" lon="2.32258">
        <ele>134</ele>
        <time>2021-10-09T02:09:21Z</time>
      </trkpt>
      <trkpt lat="43.14644" lon="2.3228">
        <ele>133.8</ele>
        <time>2021-10-09T02:09:25Z</time>
      </trkpt>
      <trkpt lat="43.14612" lon="2.32313">
        <ele>133.8</ele>
        <time>2021-10-09T02:09:31Z</time>
      </trkpt>
      <trkpt lat="43.14572" lon="2.32357">
        <ele>133.6</ele>
        <time>2021-10-09T02:09:39Z</time>
      </trkpt>
      <trkpt lat="43.14563" lon="2.32368">
        <ele>133.4</ele>
        <time>2021-10-09T02:09:41Z</time>
      </trkpt>
      <trkpt lat="43.14547" lon="2.32382">
        <ele>133.4</ele>
        <time>2021-10-09T02:09:44Z</time>
      </trkpt>
      <trkpt lat="43.14523" lon="2.32398">
        <ele>133.4</ele>
        <time>2021-10-09T02:09:48Z</time>
      </trkpt>
      <trkpt lat="43.14517" lon="2.32402">
        <ele>133.4</ele>
        <time>2021-10-09T02:09:49Z</time>
      </trkpt>
      <trkpt lat="43.14503" lon="2.32407">
        <ele>133.4</ele>
        <time>2021-10-09T02:09:51Z</time>
      </trkpt>
      <trkpt lat="43.14482" lon="2.32414">
        <ele>133.2</ele>
        <time>2021-10-09T02:09:54Z</time>
      </trkpt>
      <trkpt lat="43.14449" lon="2.32425">
        <ele>133.2</ele>
        <time>2021-10-09T02:09:59Z</time>
      </trkpt>
      <trkpt lat="43.14408" lon="2.32438">
        <ele>132.8</ele>
        <time>2021-10-09T02:10:05Z</time>
      </trkpt>
      <trkpt lat="43.14358" lon="2.32439">
        <ele>132.6</ele>
        <time>2021-10-09T02:10:12Z</time>
      </trkpt>
      <trkpt lat="43.1433" lon="2.3243">
        <ele>132.8</ele>
        <time>2021-10-09T02:10:16Z</time>
      </trkpt>
      <trkpt lat="43.14324" lon="2.32427">
        <ele>132.8</ele>
        <time>2021-10-09T02:10:17Z</time>
      </trkpt>
      <trkpt lat="43.1427" lon="2.32405">
        <ele>133.2</ele>
        <time>2021-10-09T02:10:25Z</time>
      </trkpt>
      <trkpt lat="43.14263" lon="2.32404">
        <ele>133.2</ele>
        <time>2021-10-09T02:10:26Z</time>
      </trkpt>
      <trkpt lat="43.14216" lon="2.32396">
        <ele>133.2</ele>
        <time>2021-10-09T02:10:33Z</time>
      </trkpt>
      <trkpt lat="43.14176" lon="2.32407">
        <ele>133.4</ele>
        <time>2021-10-09T02:10:39Z</time>
      </trkpt>
      <trkpt lat="43.14129" lon="2.32421">
        <ele>133.4</ele>
        <time>2021-10-09T02:10:46Z</time>
      </trkpt>
      <trkpt lat="43.14074" lon="2.32428">
        <ele>133.4</ele>
        <time>2021-10-09T02:10:54Z</time>
      </trkpt>
      <trkpt lat="43.14067" lon="2.32429">
        <ele>133.4</ele>
        <time>2021-10-09T02:10:55Z</time>
      </trkpt>
      <trkpt lat="43.14026" lon="2.32428">
        <ele>133.2</ele>
        <time>2021-10-09T02:11:01Z</time>
      </trkpt>
      <trkpt lat="43.13972" lon="2.32412">
        <ele>133.4</ele>
        <time>2021-10-09T02:11:09Z</time>
      </trkpt>
      <trkpt lat="43.13919" lon="2.32393">
        <ele>133.4</ele>
        <time>2021-10-09T02:11:17Z</time>
      </trkpt>
      <trkpt lat="43.13899" lon="2.32385">
        <ele>133.4</ele>
        <time>2021-10-09T02:11:20Z</time>
      </trkpt>
      <trkpt lat="43.13847" lon="2.32365">
        <ele>133.6</ele>
        <time>2021-10-09T02:11:28Z</time>
      </trkpt>
      <trkpt lat="43.13828" lon="2.32358">
        <ele>133.6</ele>
        <time>2021-10-09T02:11:31Z</time>
      </trkpt>
      <trkpt lat="43.1377" lon="2.32335">
        <ele>133.6</ele>
        <time>2021-10-09T02:11:40Z</time>
      </trkpt>
      <trkpt lat="43.13763" lon="2.32332">
        <ele>133.6</ele>
        <time>2021-10-09T02:11:41Z</time>
      </trkpt>
      <trkpt lat="43.13716" lon="2.323">
        <ele>133.8</ele>
        <time>2021-10-09T02:11:49Z</time>
      </trkpt>
      <trkpt lat="43.13667" lon="2.32268">
        <ele>134</ele>
        <time>2021-10-09T02:11:57Z</time>
      </trkpt>
      <trkpt lat="43.13661" lon="2.32264">
        <ele>134</ele>
        <time>2021-10-09T02:11:58Z</time>
      </trkpt>
      <trkpt lat="43.13604" lon="2.32243">
        <ele>134.2</ele>
        <time>2021-10-09T02:12:07Z</time>
      </trkpt>
      <trkpt lat="43.13545" lon="2.32238">
        <ele>134.6</ele>
        <time>2021-10-09T02:12:16Z</time>
      </trkpt>
      <trkpt lat="43.13499" lon="2.32244">
        <ele>134.8</ele>
        <time>2021-10-09T02:12:23Z</time>
      </trkpt>
      <trkpt lat="43.13445" lon="2.32254">
        <ele>135</ele>
        <time>2021-10-09T02:12:31Z</time>
      </trkpt>
      <trkpt lat="43.13419" lon="2.32258">
        <ele>135</ele>
        <time>2021-10-09T02:12:35Z</time>
      </trkpt>
      <trkpt lat="43.1336" lon="2.32273">
        <ele>135.2</ele>
        <time>2021-10-09T02:12:44Z</time>
      </trkpt>
      <trkpt lat="43.13318" lon="2.32299">
        <ele>135.6</ele>
        <time>2021-10-09T02:12:51Z</time>
      </trkpt>
      <trkpt lat="43.13269" lon="2.32343">
        <ele>135.8</ele>
        <time>2021-10-09T02:13:00Z</time>
      </trkpt>
      <trkpt lat="43.13222" lon="2.32387">
        <ele>136</ele>
        <time>2021-10-09T02:13:09Z</time>
      </trkpt>
      <trkpt lat="43.13181" lon="2.32415">
        <ele>136.2</ele>
        <time>2021-10-09T02:13:16Z</time>
      </trkpt>
      <trkpt lat="43.13124" lon="2.32443">
        <ele>136.6</ele>
        <time>2021-10-09T02:13:25Z</time>
      </trkpt>
      <trkpt lat="43.13071" lon="2.32462">
        <ele>136.8</ele>
        <time>2021-10-09T02:13:33Z</time>
      </trkpt>
      <trkpt lat="43.13051" lon="2.3247">
        <ele>136.8</ele>
        <time>2021-10-09T02:13:36Z</time>
      </trkpt>
      <trkpt lat="43.12998" lon="2.32489">
        <ele>137.2</ele>
        <time>2021-10-09T02:13:44Z</time>
      </trkpt>
      <trkpt lat="43.12971" lon="2.32498">
        <ele>137.2</ele>
        <time>2021-10-09T02:13:48Z</time>
      </trkpt>
      <trkpt lat="43.12923" lon="2.32513">
        <ele>137.4</ele>
        <time>2021-10-09T02:13:55Z</time>
      </trkpt>
      <trkpt lat="43.12887" lon="2.32514">
        <ele>137.6</ele>
        <time>2021-10-09T02:14:00Z</time>
      </trkpt>
      <trkpt lat="43.12846" lon="2.32501">
        <ele>137.4</ele>
        <time>2021-10-09T02:14:06Z</time>
      </trkpt>
      <trkpt lat="43.12826" lon="2.32493">
        <ele>137</ele>
        <time>2021-10-09T02:14:09Z</time>
      </trkpt>
      <trkpt lat="43.12813" lon="2.32486">
        <ele>137.2</ele>
        <time>2021-10-09T02:14:11Z</time>
      </trkpt>
      <trkpt lat="43.12775" lon="2.32459">
        <ele>137.2</ele>
        <time>2021-10-09T02:14:17Z</time>
      </trkpt>
      <trkpt lat="43.1273" lon="2.32416">
        <ele>137.6</ele>
        <time>2021-10-09T02:14:25Z</time>
      </trkpt>
      <trkpt lat="43.12725" lon="2.3241">
        <ele>137.8</ele>
        <time>2021-10-09T02:14:26Z</time>
      </trkpt>
      <trkpt lat="43.12684" lon="2.32367">
        <ele>138.2</ele>
        <time>2021-10-09T02:14:34Z</time>
      </trkpt>
      <trkpt lat="43.12679" lon="2.32362">
        <ele>138.2</ele>
        <time>2021-10-09T02:14:35Z</time>
      </trkpt>
      <trkpt lat="43.12644" lon="2.32325">
        <ele>138.4</ele>
        <time>2021-10-09T02:14:42Z</time>
      </trkpt>
      <trkpt lat="43.12634" lon="2.32316">
        <ele>138.6</ele>
        <time>2021-10-09T02:14:44Z</time>
      </trkpt>
      <trkpt lat="43.12589" lon="2.32284">
        <ele>138.8</ele>
        <time>2021-10-09T02:14:52Z</time>
      </trkpt>
      <trkpt lat="43.12538" lon="2.32251">
        <ele>139.2</ele>
        <time>2021-10-09T02:15:01Z</time>
      </trkpt>
      <trkpt lat="43.12532" lon="2.32246">
        <ele>139.2</ele>
        <time>2021-10-09T02:15:02Z</time>
      </trkpt>
      <trkpt lat="43.1248" lon="2.32205">
        <ele>139.4</ele>
        <time>2021-10-09T02:15:11Z</time>
      </trkpt>
      <trkpt lat="43.12433" lon="2.32167">
        <ele>139.6</ele>
        <time>2021-10-09T02:15:19Z</time>
      </trkpt>
      <trkpt lat="43.12421" lon="2.32157">
        <ele>139.6</ele>
        <time>2021-10-09T02:15:21Z</time>
      </trkpt>
      <trkpt lat="43.12373" lon="2.32118">
        <ele>139.8</ele>
        <time>2021-10-09T02:15:29Z</time>
      </trkpt>
      <trkpt lat="43.12362" lon="2.32109">
        <ele>139.8</ele>
        <time>2021-10-09T02:15:31Z</time>
      </trkpt>
      <trkpt lat="43.12327" lon="2.3208">
        <ele>139.8</ele>
        <time>2021-10-09T02:15:37Z</time>
      </trkpt>
      <trkpt lat="43.12284" lon="2.32041">
        <ele>140</ele>
        <time>2021-10-09T02:15:45Z</time>
      </trkpt>
      <trkpt lat="43.1225" lon="2.32">
        <ele>140.4</ele>
        <time>2021-10-09T02:15:52Z</time>
      </trkpt>
      <trkpt lat="43.12231" lon="2.31952">
        <ele>140.6</ele>
        <time>2021-10-09T02:15:58Z</time>
      </trkpt>
      <trkpt lat="43.12219" lon="2.31891">
        <ele>140.8</ele>
        <time>2021-10-09T02:16:05Z</time>
      </trkpt>
      <trkpt lat="43.12206" lon="2.31811">
        <ele>141.2</ele>
        <time>2021-10-09T02:16:14Z</time>
      </trkpt>
      <trkpt lat="43.12205" lon="2.31802">
        <ele>141.2</ele>
        <time>2021-10-09T02:16:15Z</time>
      </trkpt>
      <trkpt lat="43.12192" lon="2.3176">
        <ele>141.6</ele>
        <time>2021-10-09T02:16:20Z</time>
      </trkpt>
      <trkpt lat="43.12166" lon="2.31708">
        <ele>142</ele>
        <time>2021-10-09T02:16:27Z</time>
      </trkpt>
      <trkpt lat="43.12138" lon="2.31664">
        <ele>142.4</ele>
        <time>2021-10-09T02:16:34Z</time>
      </trkpt>
      <trkpt lat="43.12119" lon="2.31637">
        <ele>143</ele>
        <time>2021-10-09T02:16:39Z</time>
      </trkpt>
      <trkpt lat="43.12115" lon="2.31633">
        <ele>143</ele>
        <time>2021-10-09T02:16:40Z</time>
      </trkpt>
      <trkpt lat="43.12088" lon="2.3161">
        <ele>143.6</ele>
        <time>2021-10-09T02:16:46Z</time>
      </trkpt>
      <trkpt lat="43.12064" lon="2.31599">
        <ele>144.4</ele>
        <time>2021-10-09T02:16:51Z</time>
      </trkpt>
      <trkpt lat="43.12055" lon="2.31596">
        <ele>144.6</ele>
        <time>2021-10-09T02:16:53Z</time>
      </trkpt>
      <trkpt lat="43.12052" lon="2.3157">
        <ele>144.6</ele>
        <time>2021-10-09T02:16:55Z</time>
      </trkpt>
      <trkpt lat="43.12054" lon="2.31562">
        <ele>144.6</ele>
        <time>2021-10-09T02:16:56Z</time>
      </trkpt>
      <trkpt lat="43.12056" lon="2.31553">
        <ele>144.8</ele>
        <time>2021-10-09T02:16:57Z</time>
      </trkpt>
      <trkpt lat="43.12068" lon="2.3153">
        <ele>145</ele>
        <time>2021-10-09T02:17:00Z</time>
      </trkpt>
      <trkpt lat="43.12102" lon="2.31467">
        <ele>145.2</ele>
        <time>2021-10-09T02:17:08Z</time>
      </trkpt>
      <trkpt lat="43.12136" lon="2.31401">
        <ele>145.8</ele>
        <time>2021-10-09T02:17:17Z</time>
      </trkpt>
      <trkpt lat="43.12166" lon="2.31345">
        <ele>146.4</ele>
        <time>2021-10-09T02:17:25Z</time>
      </trkpt>
      <trkpt lat="43.12183" lon="2.31306">
        <ele>146.6</ele>
        <time>2021-10-09T02:17:30Z</time>
      </trkpt>
      <trkpt lat="43.12186" lon="2.31297">
        <ele>146.6</ele>
        <time>2021-10-09T02:17:31Z</time>
      </trkpt>
      <trkpt lat="43.12187" lon="2.31287">
        <ele>146.6</ele>
        <time>2021-10-09T02:17:32Z</time>
      </trkpt>
      <trkpt lat="43.12187" lon="2.31247">
        <ele>146.6</ele>
        <time>2021-10-09T02:17:36Z</time>
      </trkpt>
      <trkpt lat="43.12186" lon="2.31192">
        <ele>146.8</ele>
        <time>2021-10-09T02:17:42Z</time>
      </trkpt>
      <trkpt lat="43.12185" lon="2.31159">
        <ele>147.2</ele>
        <time>2021-10-09T02:17:47Z</time>
      </trkpt>
      <trkpt lat="43.12181" lon="2.31114">
        <ele>148</ele>
        <time>2021-10-09T02:17:54Z</time>
      </trkpt>
      <trkpt lat="43.1218" lon="2.31108">
        <ele>148.2</ele>
        <time>2021-10-09T02:17:55Z</time>
      </trkpt>
      <trkpt lat="43.12172" lon="2.31078">
        <ele>148.8</ele>
        <time>2021-10-09T02:18:00Z</time>
      </trkpt>
      <trkpt lat="43.1217" lon="2.31072">
        <ele>148.8</ele>
        <time>2021-10-09T02:18:01Z</time>
      </trkpt>
      <trkpt lat="43.12159" lon="2.31051">
        <ele>149.4</ele>
        <time>2021-10-09T02:18:05Z</time>
      </trkpt>
      <trkpt lat="43.1215" lon="2.31036">
        <ele>149.8</ele>
        <time>2021-10-09T02:18:08Z</time>
      </trkpt>
      <trkpt lat="43.12139" lon="2.31018">
        <ele>150.2</ele>
        <time>2021-10-09T02:18:12Z</time>
      </trkpt>
      <trkpt lat="43.1212" lon="2.3099">
        <ele>151</ele>
        <time>2021-10-09T02:18:18Z</time>
      </trkpt>
      <trkpt lat="43.12114" lon="2.3098">
        <ele>151.4</ele>
        <time>2021-10-09T02:18:20Z</time>
      </trkpt>
      <trkpt lat="43.12111" lon="2.30976">
        <ele>151.6</ele>
        <time>2021-10-09T02:18:21Z</time>
      </trkpt>
      <trkpt lat="43.12094" lon="2.3095">
        <ele>152.4</ele>
        <time>2021-10-09T02:18:26Z</time>
      </trkpt>
      <trkpt lat="43.12064" lon="2.30899">
        <ele>153.6</ele>
        <time>2021-10-09T02:18:35Z</time>
      </trkpt>
      <trkpt lat="43.12039" lon="2.30848">
        <ele>154.4</ele>
        <time>2021-10-09T02:18:42Z</time>
      </trkpt>
      <trkpt lat="43.12015" lon="2.30785">
        <ele>154.8</ele>
        <time>2021-10-09T02:18:49Z</time>
      </trkpt>
      <trkpt lat="43.11989" lon="2.30716">
        <ele>155</ele>
        <time>2021-10-09T02:18:56Z</time>
      </trkpt>
      <trkpt lat="43.11982" lon="2.30696">
        <ele>155</ele>
        <time>2021-10-09T02:18:58Z</time>
      </trkpt>
      <trkpt lat="43.11954" lon="2.30624">
        <ele>155.2</ele>
        <time>2021-10-09T02:19:05Z</time>
      </trkpt>
      <trkpt lat="43.1195" lon="2.30614">
        <ele>155.2</ele>
        <time>2021-10-09T02:19:06Z</time>
      </trkpt>
      <trkpt lat="43.11918" lon="2.30547">
        <ele>155</ele>
        <time>2021-10-09T02:19:13Z</time>
      </trkpt>
      <trkpt lat="43.11913" lon="2.30538">
        <ele>155</ele>
        <time>2021-10-09T02:19:14Z</time>
      </trkpt>
      <trkpt lat="43.11878" lon="2.30481">
        <ele>155</ele>
        <time>2021-10-09T02:19:21Z</time>
      </trkpt>
      <trkpt lat="43.11868" lon="2.30466">
        <ele>155.2</ele>
        <time>2021-10-09T02:19:23Z</time>
      </trkpt>
      <trkpt lat="43.11827" lon="2.30414">
        <ele>155.2</ele>
        <time>2021-10-09T02:19:31Z</time>
      </trkpt>
      <trkpt lat="43.11791" lon="2.30371">
        <ele>155.6</ele>
        <time>2021-10-09T02:19:39Z</time>
      </trkpt>
      <trkpt lat="43.11752" lon="2.30335">
        <ele>156</ele>
        <time>2021-10-09T02:19:47Z</time>
      </trkpt>
      <trkpt lat="43.1171" lon="2.30295">
        <ele>156.4</ele>
        <time>2021-10-09T02:19:56Z</time>
      </trkpt>
      <trkpt lat="43.11691" lon="2.30277">
        <ele>156.6</ele>
        <time>2021-10-09T02:20:00Z</time>
      </trkpt>
      <trkpt lat="43.11682" lon="2.30269">
        <ele>156.6</ele>
        <time>2021-10-09T02:20:02Z</time>
      </trkpt>
      <trkpt lat="43.11664" lon="2.30252">
        <ele>157</ele>
        <time>2021-10-09T02:20:06Z</time>
      </trkpt>
      <trkpt lat="43.11657" lon="2.30242">
        <ele>157.2</ele>
        <time>2021-10-09T02:20:08Z</time>
      </trkpt>
      <trkpt lat="43.11633" lon="2.30212">
        <ele>157.6</ele>
        <time>2021-10-09T02:20:14Z</time>
      </trkpt>
      <trkpt lat="43.1162" lon="2.30193">
        <ele>158.2</ele>
        <time>2021-10-09T02:20:18Z</time>
      </trkpt>
      <trkpt lat="43.11609" lon="2.30176">
        <ele>158.4</ele>
        <time>2021-10-09T02:20:21Z</time>
      </trkpt>
      <trkpt lat="43.11588" lon="2.30134">
        <ele>159.2</ele>
        <time>2021-10-09T02:20:28Z</time>
      </trkpt>
      <trkpt lat="43.11571" lon="2.30094">
        <ele>159.8</ele>
        <time>2021-10-09T02:20:34Z</time>
      </trkpt>
      <trkpt lat="43.11541" lon="2.30024">
        <ele>160.6</ele>
        <time>2021-10-09T02:20:44Z</time>
      </trkpt>
      <trkpt lat="43.11512" lon="2.29959">
        <ele>161.4</ele>
        <time>2021-10-09T02:20:53Z</time>
      </trkpt>
      <trkpt lat="43.11485" lon="2.29923">
        <ele>161.8</ele>
        <time>2021-10-09T02:20:59Z</time>
      </trkpt>
      <trkpt lat="43.11453" lon="2.29897">
        <ele>162.2</ele>
        <time>2021-10-09T02:21:05Z</time>
      </trkpt>
      <trkpt lat="43.1142" lon="2.29875">
        <ele>162.6</ele>
        <time>2021-10-09T02:21:11Z</time>
      </trkpt>
      <trkpt lat="43.1137" lon="2.29848">
        <ele>163.4</ele>
        <time>2021-10-09T02:21:20Z</time>
      </trkpt>
      <trkpt lat="43.11326" lon="2.2983">
        <ele>163.8</ele>
        <time>2021-10-09T02:21:27Z</time>
      </trkpt>
      <trkpt lat="43.11314" lon="2.29822">
        <ele>163.8</ele>
        <time>2021-10-09T02:21:29Z</time>
      </trkpt>
      <trkpt lat="43.11304" lon="2.2981">
        <ele>164</ele>
        <time>2021-10-09T02:21:31Z</time>
      </trkpt>
      <trkpt lat="43.1128" lon="2.29765">
        <ele>164.2</ele>
        <time>2021-10-09T02:21:38Z</time>
      </trkpt>
      <trkpt lat="43.11257" lon="2.29714">
        <ele>165</ele>
        <time>2021-10-09T02:21:46Z</time>
      </trkpt>
      <trkpt lat="43.11244" lon="2.29679">
        <ele>165.6</ele>
        <time>2021-10-09T02:21:52Z</time>
      </trkpt>
      <trkpt lat="43.1123" lon="2.2964">
        <ele>166</ele>
        <time>2021-10-09T02:21:58Z</time>
      </trkpt>
      <trkpt lat="43.11219" lon="2.29601">
        <ele>166.2</ele>
        <time>2021-10-09T02:22:03Z</time>
      </trkpt>
      <trkpt lat="43.11218" lon="2.29592">
        <ele>166.2</ele>
        <time>2021-10-09T02:22:04Z</time>
      </trkpt>
      <trkpt lat="43.11211" lon="2.29532">
        <ele>166.2</ele>
        <time>2021-10-09T02:22:10Z</time>
      </trkpt>
      <trkpt lat="43.11204" lon="2.29471">
        <ele>166.2</ele>
        <time>2021-10-09T02:22:16Z</time>
      </trkpt>
      <trkpt lat="43.11204" lon="2.2946">
        <ele>166.2</ele>
        <time>2021-10-09T02:22:17Z</time>
      </trkpt>
      <trkpt lat="43.11204" lon="2.29417">
        <ele>166.2</ele>
        <time>2021-10-09T02:22:21Z</time>
      </trkpt>
      <trkpt lat="43.11206" lon="2.29396">
        <ele>166</ele>
        <time>2021-10-09T02:22:23Z</time>
      </trkpt>
      <trkpt lat="43.11208" lon="2.29373">
        <ele>165.8</ele>
        <time>2021-10-09T02:22:25Z</time>
      </trkpt>
      <trkpt lat="43.11213" lon="2.29306">
        <ele>165</ele>
        <time>2021-10-09T02:22:31Z</time>
      </trkpt>
      <trkpt lat="43.11206" lon="2.29241">
        <ele>164</ele>
        <time>2021-10-09T02:22:37Z</time>
      </trkpt>
      <trkpt lat="43.11197" lon="2.29174">
        <ele>163.2</ele>
        <time>2021-10-09T02:22:43Z</time>
      </trkpt>
      <trkpt lat="43.11194" lon="2.29151">
        <ele>162.8</ele>
        <time>2021-10-09T02:22:45Z</time>
      </trkpt>
      <trkpt lat="43.11196" lon="2.29128">
        <ele>162.4</ele>
        <time>2021-10-09T02:22:47Z</time>
      </trkpt>
      <trkpt lat="43.11202" lon="2.29066">
        <ele>161.4</ele>
        <time>2021-10-09T02:22:52Z</time>
      </trkpt>
      <trkpt lat="43.11208" lon="2.2903">
        <ele>160.8</ele>
        <time>2021-10-09T02:22:55Z</time>
      </trkpt>
      <trkpt lat="43.11211" lon="2.29018">
        <ele>160.8</ele>
        <time>2021-10-09T02:22:56Z</time>
      </trkpt>
      <trkpt lat="43.11218" lon="2.29011">
        <ele>160.6</ele>
        <time>2021-10-09T02:22:57Z</time>
      </trkpt>
      <trkpt lat="43.11232" lon="2.29001">
        <ele>160.2</ele>
        <time>2021-10-09T02:22:59Z</time>
      </trkpt>
      <trkpt lat="43.11239" lon="2.28997">
        <ele>160.2</ele>
        <time>2021-10-09T02:23:00Z</time>
      </trkpt>
      <trkpt lat="43.11265" lon="2.2898">
        <ele>159.4</ele>
        <time>2021-10-09T02:23:04Z</time>
      </trkpt>
      <trkpt lat="43.11309" lon="2.28947">
        <ele>158.2</ele>
        <time>2021-10-09T02:23:10Z</time>
      </trkpt>
      <trkpt lat="43.11357" lon="2.28912">
        <ele>156.8</ele>
        <time>2021-10-09T02:23:16Z</time>
      </trkpt>
      <trkpt lat="43.11373" lon="2.289">
        <ele>156.4</ele>
        <time>2021-10-09T02:23:18Z</time>
      </trkpt>
      <trkpt lat="43.11427" lon="2.28861">
        <ele>155.2</ele>
        <time>2021-10-09T02:23:25Z</time>
      </trkpt>
      <trkpt lat="43.11442" lon="2.2885">
        <ele>154.6</ele>
        <time>2021-10-09T02:23:27Z</time>
      </trkpt>
      <trkpt lat="43.11495" lon="2.28811">
        <ele>153.4</ele>
        <time>2021-10-09T02:23:34Z</time>
      </trkpt>
      <trkpt lat="43.1151" lon="2.288">
        <ele>153</ele>
        <time>2021-10-09T02:23:36Z</time>
      </trkpt>
      <trkpt lat="43.11543" lon="2.28764">
        <ele>152</ele>
        <time>2021-10-09T02:23:41Z</time>
      </trkpt>
      <trkpt lat="43.11565" lon="2.28717">
        <ele>151</ele>
        <time>2021-10-09T02:23:46Z</time>
      </trkpt>
      <trkpt lat="43.11592" lon="2.28651">
        <ele>150.2</ele>
        <time>2021-10-09T02:23:53Z</time>
      </trkpt>
      <trkpt lat="43.11597" lon="2.28643">
        <ele>150</ele>
        <time>2021-10-09T02:23:54Z</time>
      </trkpt>
      <trkpt lat="43.11601" lon="2.28635">
        <ele>150</ele>
        <time>2021-10-09T02:23:55Z</time>
      </trkpt>
      <trkpt lat="43.11616" lon="2.28617">
        <ele>149.8</ele>
        <time>2021-10-09T02:23:58Z</time>
      </trkpt>
      <trkpt lat="43.11622" lon="2.28612">
        <ele>149.8</ele>
        <time>2021-10-09T02:23:59Z</time>
      </trkpt>
      <trkpt lat="43.11638" lon="2.286">
        <ele>149.6</ele>
        <time>2021-10-09T02:24:02Z</time>
      </trkpt>
      <trkpt lat="43.11671" lon="2.28587">
        <ele>149.6</ele>
        <time>2021-10-09T02:24:08Z</time>
      </trkpt>
      <trkpt lat="43.11689" lon="2.28582">
        <ele>149.6</ele>
        <time>2021-10-09T02:24:11Z</time>
      </trkpt>
      <trkpt lat="43.11707" lon="2.28576">
        <ele>149.4</ele>
        <time>2021-10-09T02:24:14Z</time>
      </trkpt>
      <trkpt lat="43.11759" lon="2.28559">
        <ele>149.4</ele>
        <time>2021-10-09T02:24:22Z</time>
      </trkpt>
      <trkpt lat="43.11787" lon="2.28553">
        <ele>149</ele>
        <time>2021-10-09T02:24:26Z</time>
      </trkpt>
      <trkpt lat="43.11794" lon="2.28553">
        <ele>149</ele>
        <time>2021-10-09T02:24:27Z</time>
      </trkpt>
      <trkpt lat="43.11802" lon="2.28555">
        <ele>149</ele>
        <time>2021-10-09T02:24:28Z</time>
      </trkpt>
      <trkpt lat="43.11813" lon="2.28566">
        <ele>149</ele>
        <time>2021-10-09T02:24:30Z</time>
      </trkpt>
      <trkpt lat="43.11827" lon="2.28565">
        <ele>148.8</ele>
        <time>2021-10-09T02:24:32Z</time>
      </trkpt>
      <trkpt lat="43.11833" lon="2.2856">
        <ele>148.8</ele>
        <time>2021-10-09T02:24:33Z</time>
      </trkpt>
      <trkpt lat="43.11838" lon="2.28553">
        <ele>148.6</ele>
        <time>2021-10-09T02:24:34Z</time>
      </trkpt>
      <trkpt lat="43.1184" lon="2.28535">
        <ele>148.6</ele>
        <time>2021-10-09T02:24:36Z</time>
      </trkpt>
      <trkpt lat="43.11833" lon="2.28517">
        <ele>148.6</ele>
        <time>2021-10-09T02:24:38Z</time>
      </trkpt>
      <trkpt lat="43.11828" lon="2.28513">
        <ele>148.6</ele>
        <time>2021-10-09T02:24:39Z</time>
      </trkpt>
      <trkpt lat="43.11821" lon="2.2851">
        <ele>148.6</ele>
        <time>2021-10-09T02:24:40Z</time>
      </trkpt>
      <trkpt lat="43.11808" lon="2.28504">
        <ele>148.4</ele>
        <time>2021-10-09T02:24:42Z</time>
      </trkpt>
      <trkpt lat="43.11797" lon="2.28491">
        <ele>148.2</ele>
        <time>2021-10-09T02:24:44Z</time>
      </trkpt>
      <trkpt lat="43.11792" lon="2.28483">
        <ele>148.2</ele>
        <time>2021-10-09T02:24:45Z</time>
      </trkpt>
      <trkpt lat="43.11764" lon="2.28424">
        <ele>148</ele>
        <time>2021-10-09T02:24:52Z</time>
      </trkpt>
      <trkpt lat="43.11741" lon="2.28359">
        <ele>147.8</ele>
        <time>2021-10-09T02:24:59Z</time>
      </trkpt>
      <trkpt lat="43.11722" lon="2.28282">
        <ele>148</ele>
        <time>2021-10-09T02:25:07Z</time>
      </trkpt>
      <trkpt lat="43.11719" lon="2.28272">
        <ele>148</ele>
        <time>2021-10-09T02:25:08Z</time>
      </trkpt>
      <trkpt lat="43.11702" lon="2.28206">
        <ele>147.8</ele>
        <time>2021-10-09T02:25:15Z</time>
      </trkpt>
      <trkpt lat="43.11683" lon="2.28144">
        <ele>148</ele>
        <time>2021-10-09T02:25:22Z</time>
      </trkpt>
      <trkpt lat="43.11655" lon="2.28074">
        <ele>148</ele>
        <time>2021-10-09T02:25:30Z</time>
      </trkpt>
      <trkpt lat="43.11648" lon="2.28057">
        <ele>148</ele>
        <time>2021-10-09T02:25:32Z</time>
      </trkpt>
      <trkpt lat="43.11634" lon="2.28023">
        <ele>148</ele>
        <time>2021-10-09T02:25:36Z</time>
      </trkpt>
      <trkpt lat="43.11608" lon="2.27954">
        <ele>148</ele>
        <time>2021-10-09T02:25:44Z</time>
      </trkpt>
      <trkpt lat="43.11604" lon="2.27945">
        <ele>148</ele>
        <time>2021-10-09T02:25:45Z</time>
      </trkpt>
      <trkpt lat="43.11577" lon="2.2788">
        <ele>148</ele>
        <time>2021-10-09T02:25:53Z</time>
      </trkpt>
      <trkpt lat="43.11547" lon="2.27827">
        <ele>148.2</ele>
        <time>2021-10-09T02:26:00Z</time>
      </trkpt>
      <trkpt lat="43.11508" lon="2.27769">
        <ele>148.2</ele>
        <time>2021-10-09T02:26:08Z</time>
      </trkpt>
      <trkpt lat="43.11504" lon="2.27762">
        <ele>148</ele>
        <time>2021-10-09T02:26:09Z</time>
      </trkpt>
      <trkpt lat="43.11477" lon="2.27717">
        <ele>148</ele>
        <time>2021-10-09T02:26:15Z</time>
      </trkpt>
      <trkpt lat="43.11452" lon="2.2767">
        <ele>147.8</ele>
        <time>2021-10-09T02:26:21Z</time>
      </trkpt>
      <trkpt lat="43.11422" lon="2.27607">
        <ele>148.2</ele>
        <time>2021-10-09T02:26:29Z</time>
      </trkpt>
      <trkpt lat="43.1139" lon="2.27542">
        <ele>148.2</ele>
        <time>2021-10-09T02:26:37Z</time>
      </trkpt>
      <trkpt lat="43.11359" lon="2.27479">
        <ele>148.2</ele>
        <time>2021-10-09T02:26:45Z</time>
      </trkpt>
      <trkpt lat="43.11356" lon="2.27471">
        <ele>148.2</ele>
        <time>2021-10-09T02:26:46Z</time>
      </trkpt>
      <trkpt lat="43.11337" lon="2.27433">
        <ele>148.4</ele>
        <time>2021-10-09T02:26:51Z</time>
      </trkpt>
      <trkpt lat="43.11308" lon="2.27383">
        <ele>148.6</ele>
        <time>2021-10-09T02:26:58Z</time>
      </trkpt>
      <trkpt lat="43.11274" lon="2.27324">
        <ele>148.8</ele>
        <time>2021-10-09T02:27:06Z</time>
      </trkpt>
      <trkpt lat="43.1127" lon="2.27317">
        <ele>148.8</ele>
        <time>2021-10-09T02:27:07Z</time>
      </trkpt>
      <trkpt lat="43.11236" lon="2.27256">
        <ele>148.8</ele>
        <time>2021-10-09T02:27:15Z</time>
      </trkpt>
      <trkpt lat="43.11231" lon="2.27248">
        <ele>148.8</ele>
        <time>2021-10-09T02:27:16Z</time>
      </trkpt>
      <trkpt lat="43.11206" lon="2.2719">
        <ele>149</ele>
        <time>2021-10-09T02:27:23Z</time>
      </trkpt>
      <trkpt lat="43.11178" lon="2.2711">
        <ele>149.2</ele>
        <time>2021-10-09T02:27:32Z</time>
      </trkpt>
      <trkpt lat="43.11171" lon="2.27093">
        <ele>149.2</ele>
        <time>2021-10-09T02:27:34Z</time>
      </trkpt>
      <trkpt lat="43.11152" lon="2.27017">
        <ele>149.2</ele>
        <time>2021-10-09T02:27:43Z</time>
      </trkpt>
      <trkpt lat="43.11145" lon="2.27">
        <ele>149.2</ele>
        <time>2021-10-09T02:27:45Z</time>
      </trkpt>
      <trkpt lat="43.11119" lon="2.26933">
        <ele>149.4</ele>
        <time>2021-10-09T02:27:53Z</time>
      </trkpt>
      <trkpt lat="43.11113" lon="2.26916">
        <ele>149.4</ele>
        <time>2021-10-09T02:27:55Z</time>
      </trkpt>
      <trkpt lat="43.11087" lon="2.26847">
        <ele>149.6</ele>
        <time>2021-10-09T02:28:03Z</time>
      </trkpt>
      <trkpt lat="43.11063" lon="2.26778">
        <ele>149.6</ele>
        <time>2021-10-09T02:28:11Z</time>
      </trkpt>
      <trkpt lat="43.1106" lon="2.26769">
        <ele>149.6</ele>
        <time>2021-10-09T02:28:12Z</time>
      </trkpt>
      <trkpt lat="43.11035" lon="2.26698">
        <ele>149.8</ele>
        <time>2021-10-09T02:28:20Z</time>
      </trkpt>
      <trkpt lat="43.11026" lon="2.26671">
        <ele>149.8</ele>
        <time>2021-10-09T02:28:23Z</time>
      </trkpt>
      <trkpt lat="43.11001" lon="2.26601">
        <ele>150</ele>
        <time>2021-10-09T02:28:31Z</time>
      </trkpt>
      <trkpt lat="43.10992" lon="2.26576">
        <ele>150</ele>
        <time>2021-10-09T02:28:34Z</time>
      </trkpt>
      <trkpt lat="43.10968" lon="2.26507">
        <ele>150.2</ele>
        <time>2021-10-09T02:28:42Z</time>
      </trkpt>
      <trkpt lat="43.10965" lon="2.26499">
        <ele>150.2</ele>
        <time>2021-10-09T02:28:43Z</time>
      </trkpt>
      <trkpt lat="43.1094" lon="2.26432">
        <ele>150.4</ele>
        <time>2021-10-09T02:28:51Z</time>
      </trkpt>
      <trkpt lat="43.10928" lon="2.26398">
        <ele>150.6</ele>
        <time>2021-10-09T02:28:55Z</time>
      </trkpt>
      <trkpt lat="43.10904" lon="2.2633">
        <ele>150.8</ele>
        <time>2021-10-09T02:29:03Z</time>
      </trkpt>
      <trkpt lat="43.10898" lon="2.26313">
        <ele>150.8</ele>
        <time>2021-10-09T02:29:05Z</time>
      </trkpt>
      <trkpt lat="43.10874" lon="2.26245">
        <ele>151</ele>
        <time>2021-10-09T02:29:13Z</time>
      </trkpt>
      <trkpt lat="43.10858" lon="2.26203">
        <ele>151.2</ele>
        <time>2021-10-09T02:29:18Z</time>
      </trkpt>
      <trkpt lat="43.10833" lon="2.26137">
        <ele>151.4</ele>
        <time>2021-10-09T02:29:26Z</time>
      </trkpt>
      <trkpt lat="43.10817" lon="2.26096">
        <ele>151.6</ele>
        <time>2021-10-09T02:29:31Z</time>
      </trkpt>
      <trkpt lat="43.10791" lon="2.26031">
        <ele>152</ele>
        <time>2021-10-09T02:29:39Z</time>
      </trkpt>
      <trkpt lat="43.10787" lon="2.26023">
        <ele>152</ele>
        <time>2021-10-09T02:29:40Z</time>
      </trkpt>
      <trkpt lat="43.10757" lon="2.25954">
        <ele>152.4</ele>
        <time>2021-10-09T02:29:49Z</time>
      </trkpt>
      <trkpt lat="43.10747" lon="2.2593">
        <ele>152.6</ele>
        <time>2021-10-09T02:29:52Z</time>
      </trkpt>
      <trkpt lat="43.10717" lon="2.2586">
        <ele>153</ele>
        <time>2021-10-09T02:30:01Z</time>
      </trkpt>
      <trkpt lat="43.10714" lon="2.25852">
        <ele>153.2</ele>
        <time>2021-10-09T02:30:02Z</time>
      </trkpt>
      <trkpt lat="43.10684" lon="2.25781">
        <ele>153.6</ele>
        <time>2021-10-09T02:30:11Z</time>
      </trkpt>
      <trkpt lat="43.10678" lon="2.25765">
        <ele>153.8</ele>
        <time>2021-10-09T02:30:13Z</time>
      </trkpt>
      <trkpt lat="43.10655" lon="2.25708">
        <ele>154.2</ele>
        <time>2021-10-09T02:30:20Z</time>
      </trkpt>
      <trkpt lat="43.10634" lon="2.25646">
        <ele>154.8</ele>
        <time>2021-10-09T02:30:27Z</time>
      </trkpt>
      <trkpt lat="43.10615" lon="2.25593">
        <ele>155.2</ele>
        <time>2021-10-09T02:30:33Z</time>
      </trkpt>
      <trkpt lat="43.106" lon="2.25537">
        <ele>155.4</ele>
        <time>2021-10-09T02:30:39Z</time>
      </trkpt>
      <trkpt lat="43.10585" lon="2.25469">
        <ele>155.2</ele>
        <time>2021-10-09T02:30:46Z</time>
      </trkpt>
      <trkpt lat="43.10572" lon="2.2541">
        <ele>155.4</ele>
        <time>2021-10-09T02:30:52Z</time>
      </trkpt>
      <trkpt lat="43.10558" lon="2.25351">
        <ele>155.4</ele>
        <time>2021-10-09T02:30:58Z</time>
      </trkpt>
      <trkpt lat="43.10556" lon="2.25341">
        <ele>155.4</ele>
        <time>2021-10-09T02:30:59Z</time>
      </trkpt>
      <trkpt lat="43.10547" lon="2.25302">
        <ele>155.4</ele>
        <time>2021-10-09T02:31:04Z</time>
      </trkpt>
      <trkpt lat="43.1053" lon="2.25224">
        <ele>155</ele>
        <time>2021-10-09T02:31:12Z</time>
      </trkpt>
      <trkpt lat="43.10512" lon="2.25148">
        <ele>154.8</ele>
        <time>2021-10-09T02:31:20Z</time>
      </trkpt>
      <trkpt lat="43.10511" lon="2.25106">
        <ele>154.8</ele>
        <time>2021-10-09T02:31:25Z</time>
      </trkpt>
      <trkpt lat="43.1049" lon="2.25081">
        <ele>154.8</ele>
        <time>2021-10-09T02:31:27Z</time>
      </trkpt>
      <trkpt lat="43.1049" lon="2.25068">
        <ele>155</ele>
        <time>2021-10-09T02:31:29Z</time>
      </trkpt>
      <trkpt lat="43.10489" lon="2.25064">
        <ele>154.6</ele>
        <time>2021-10-09T02:31:30Z</time>
      </trkpt>
      <trkpt lat="43.10485" lon="2.25056">
        <ele>154.6</ele>
        <time>2021-10-09T02:31:31Z</time>
      </trkpt>
      <trkpt lat="43.10476" lon="2.25048">
        <ele>154.6</ele>
        <time>2021-10-09T02:31:33Z</time>
      </trkpt>
      <trkpt lat="43.10464" lon="2.25047">
        <ele>154.8</ele>
        <time>2021-10-09T02:31:35Z</time>
      </trkpt>
      <trkpt lat="43.10458" lon="2.25051">
        <ele>154.8</ele>
        <time>2021-10-09T02:31:36Z</time>
      </trkpt>
      <trkpt lat="43.10455" lon="2.25053">
        <ele>154.6</ele>
        <time>2021-10-09T02:31:37Z</time>
      </trkpt>
      <trkpt lat="43.10423" lon="2.25042">
        <ele>154.4</ele>
        <time>2021-10-09T02:31:39Z</time>
      </trkpt>
      <trkpt lat="43.10378" lon="2.25004">
        <ele>154</ele>
        <time>2021-10-09T02:31:46Z</time>
      </trkpt>
      <trkpt lat="43.1034" lon="2.24957">
        <ele>153.6</ele>
        <time>2021-10-09T02:31:53Z</time>
      </trkpt>
      <trkpt lat="43.10309" lon="2.24904">
        <ele>153.4</ele>
        <time>2021-10-09T02:32:00Z</time>
      </trkpt>
      <trkpt lat="43.10285" lon="2.24849">
        <ele>153.4</ele>
        <time>2021-10-09T02:32:07Z</time>
      </trkpt>
      <trkpt lat="43.10265" lon="2.24793">
        <ele>153.4</ele>
        <time>2021-10-09T02:32:14Z</time>
      </trkpt>
      <trkpt lat="43.10243" lon="2.24732">
        <ele>153.6</ele>
        <time>2021-10-09T02:32:22Z</time>
      </trkpt>
      <trkpt lat="43.10223" lon="2.24678">
        <ele>153.8</ele>
        <time>2021-10-09T02:32:29Z</time>
      </trkpt>
      <trkpt lat="43.10196" lon="2.24606">
        <ele>154</ele>
        <time>2021-10-09T02:32:38Z</time>
      </trkpt>
      <trkpt lat="43.10171" lon="2.2454">
        <ele>154.2</ele>
        <time>2021-10-09T02:32:46Z</time>
      </trkpt>
      <trkpt lat="43.10164" lon="2.24524">
        <ele>154.2</ele>
        <time>2021-10-09T02:32:48Z</time>
      </trkpt>
      <trkpt lat="43.10137" lon="2.24455">
        <ele>154.2</ele>
        <time>2021-10-09T02:32:56Z</time>
      </trkpt>
      <trkpt lat="43.10111" lon="2.24385">
        <ele>154.2</ele>
        <time>2021-10-09T02:33:04Z</time>
      </trkpt>
      <trkpt lat="43.10098" lon="2.2435">
        <ele>154.2</ele>
        <time>2021-10-09T02:33:08Z</time>
      </trkpt>
      <trkpt lat="43.10072" lon="2.24282">
        <ele>154.4</ele>
        <time>2021-10-09T02:33:16Z</time>
      </trkpt>
      <trkpt lat="43.10063" lon="2.24257">
        <ele>154.2</ele>
        <time>2021-10-09T02:33:19Z</time>
      </trkpt>
      <trkpt lat="43.10039" lon="2.24189">
        <ele>154.2</ele>
        <time>2021-10-09T02:33:27Z</time>
      </trkpt>
      <trkpt lat="43.10036" lon="2.24181">
        <ele>154.2</ele>
        <time>2021-10-09T02:33:28Z</time>
      </trkpt>
      <trkpt lat="43.1001" lon="2.24114">
        <ele>154.2</ele>
        <time>2021-10-09T02:33:36Z</time>
      </trkpt>
      <trkpt lat="43.09985" lon="2.24047">
        <ele>154.2</ele>
        <time>2021-10-09T02:33:44Z</time>
      </trkpt>
      <trkpt lat="43.09982" lon="2.24038">
        <ele>154.2</ele>
        <time>2021-10-09T02:33:45Z</time>
      </trkpt>
      <trkpt lat="43.09958" lon="2.23972">
        <ele>154.2</ele>
        <time>2021-10-09T02:33:53Z</time>
      </trkpt>
      <trkpt lat="43.09948" lon="2.23948">
        <ele>154.4</ele>
        <time>2021-10-09T02:33:56Z</time>
      </trkpt>
      <trkpt lat="43.09923" lon="2.23881">
        <ele>154.4</ele>
        <time>2021-10-09T02:34:04Z</time>
      </trkpt>
      <trkpt lat="43.09898" lon="2.23814">
        <ele>154.4</ele>
        <time>2021-10-09T02:34:12Z</time>
      </trkpt>
      <trkpt lat="43.09895" lon="2.23806">
        <ele>154.4</ele>
        <time>2021-10-09T02:34:13Z</time>
      </trkpt>
      <trkpt lat="43.0987" lon="2.2374">
        <ele>154.4</ele>
        <time>2021-10-09T02:34:21Z</time>
      </trkpt>
      <trkpt lat="43.09864" lon="2.23723">
        <ele>154.4</ele>
        <time>2021-10-09T02:34:23Z</time>
      </trkpt>
      <trkpt lat="43.0984" lon="2.23657">
        <ele>154.6</ele>
        <time>2021-10-09T02:34:31Z</time>
      </trkpt>
      <trkpt lat="43.09834" lon="2.23641">
        <ele>154.6</ele>
        <time>2021-10-09T02:34:33Z</time>
      </trkpt>
      <trkpt lat="43.09811" lon="2.23572">
        <ele>154.8</ele>
        <time>2021-10-09T02:34:41Z</time>
      </trkpt>
      <trkpt lat="43.09806" lon="2.23554">
        <ele>154.8</ele>
        <time>2021-10-09T02:34:43Z</time>
      </trkpt>
      <trkpt lat="43.09785" lon="2.23484">
        <ele>154.8</ele>
        <time>2021-10-09T02:34:51Z</time>
      </trkpt>
      <trkpt lat="43.09783" lon="2.23475">
        <ele>154.8</ele>
        <time>2021-10-09T02:34:52Z</time>
      </trkpt>
      <trkpt lat="43.09763" lon="2.23404">
        <ele>155</ele>
        <time>2021-10-09T02:35:00Z</time>
      </trkpt>
      <trkpt lat="43.09757" lon="2.2332">
        <ele>155.2</ele>
        <time>2021-10-09T02:35:09Z</time>
      </trkpt>
      <trkpt lat="43.09754" lon="2.23311">
        <ele>155.4</ele>
        <time>2021-10-09T02:35:10Z</time>
      </trkpt>
      <trkpt lat="43.09727" lon="2.23243">
        <ele>155.6</ele>
        <time>2021-10-09T02:35:18Z</time>
      </trkpt>
      <trkpt lat="43.09698" lon="2.2319">
        <ele>155.8</ele>
        <time>2021-10-09T02:35:25Z</time>
      </trkpt>
      <trkpt lat="43.09664" lon="2.23128">
        <ele>156.2</ele>
        <time>2021-10-09T02:35:33Z</time>
      </trkpt>
      <trkpt lat="43.09638" lon="2.23095">
        <ele>156.2</ele>
        <time>2021-10-09T02:35:38Z</time>
      </trkpt>
      <trkpt lat="43.09589" lon="2.23049">
        <ele>156.4</ele>
        <time>2021-10-09T02:35:46Z</time>
      </trkpt>
      <trkpt lat="43.09538" lon="2.23026">
        <ele>156.4</ele>
        <time>2021-10-09T02:35:53Z</time>
      </trkpt>
      <trkpt lat="43.09481" lon="2.23008">
        <ele>156.4</ele>
        <time>2021-10-09T02:36:01Z</time>
      </trkpt>
      <trkpt lat="43.09424" lon="2.22983">
        <ele>156</ele>
        <time>2021-10-09T02:36:09Z</time>
      </trkpt>
      <trkpt lat="43.09403" lon="2.22961">
        <ele>156</ele>
        <time>2021-10-09T02:36:13Z</time>
      </trkpt>
      <trkpt lat="43.09394" lon="2.22946">
        <ele>155.8</ele>
        <time>2021-10-09T02:36:15Z</time>
      </trkpt>
      <trkpt lat="43.09368" lon="2.22948">
        <ele>155.8</ele>
        <time>2021-10-09T02:36:17Z</time>
      </trkpt>
      <trkpt lat="43.09359" lon="2.22939">
        <ele>155.8</ele>
        <time>2021-10-09T02:36:19Z</time>
      </trkpt>
      <trkpt lat="43.0935" lon="2.22937">
        <ele>155.8</ele>
        <time>2021-10-09T02:36:21Z</time>
      </trkpt>
      <trkpt lat="43.09331" lon="2.22955">
        <ele>155.6</ele>
        <time>2021-10-09T02:36:24Z</time>
      </trkpt>
      <trkpt lat="43.09327" lon="2.2296">
        <ele>155.6</ele>
        <time>2021-10-09T02:36:25Z</time>
      </trkpt>
      <trkpt lat="43.09319" lon="2.22965">
        <ele>155.6</ele>
        <time>2021-10-09T02:36:26Z</time>
      </trkpt>
      <trkpt lat="43.09303" lon="2.2297">
        <ele>155.4</ele>
        <time>2021-10-09T02:36:28Z</time>
      </trkpt>
      <trkpt lat="43.09294" lon="2.22971">
        <ele>155.4</ele>
        <time>2021-10-09T02:36:29Z</time>
      </trkpt>
      <trkpt lat="43.09279" lon="2.22968">
        <ele>155.2</ele>
        <time>2021-10-09T02:36:31Z</time>
      </trkpt>
      <trkpt lat="43.09257" lon="2.22965">
        <ele>155.2</ele>
        <time>2021-10-09T02:36:34Z</time>
      </trkpt>
      <trkpt lat="43.09216" lon="2.2295">
        <ele>155.4</ele>
        <time>2021-10-09T02:36:40Z</time>
      </trkpt>
      <trkpt lat="43.09177" lon="2.2293">
        <ele>155.4</ele>
        <time>2021-10-09T02:36:46Z</time>
      </trkpt>
      <trkpt lat="43.09123" lon="2.22902">
        <ele>155.2</ele>
        <time>2021-10-09T02:36:54Z</time>
      </trkpt>
      <trkpt lat="43.0907" lon="2.22878">
        <ele>155</ele>
        <time>2021-10-09T02:37:02Z</time>
      </trkpt>
      <trkpt lat="43.09044" lon="2.22865">
        <ele>155</ele>
        <time>2021-10-09T02:37:06Z</time>
      </trkpt>
      <trkpt lat="43.09031" lon="2.22858">
        <ele>155</ele>
        <time>2021-10-09T02:37:08Z</time>
      </trkpt>
      <trkpt lat="43.08991" lon="2.22839">
        <ele>154.6</ele>
        <time>2021-10-09T02:37:14Z</time>
      </trkpt>
      <trkpt lat="43.08957" lon="2.22822">
        <ele>154.6</ele>
        <time>2021-10-09T02:37:19Z</time>
      </trkpt>
      <trkpt lat="43.08904" lon="2.22795">
        <ele>155</ele>
        <time>2021-10-09T02:37:27Z</time>
      </trkpt>
      <trkpt lat="43.08879" lon="2.22783">
        <ele>155</ele>
        <time>2021-10-09T02:37:31Z</time>
      </trkpt>
      <trkpt lat="43.08872" lon="2.2278">
        <ele>155</ele>
        <time>2021-10-09T02:37:32Z</time>
      </trkpt>
      <trkpt lat="43.08832" lon="2.22761">
        <ele>155.2</ele>
        <time>2021-10-09T02:37:38Z</time>
      </trkpt>
      <trkpt lat="43.08777" lon="2.22737">
        <ele>155.4</ele>
        <time>2021-10-09T02:37:46Z</time>
      </trkpt>
      <trkpt lat="43.08771" lon="2.22734">
        <ele>155.2</ele>
        <time>2021-10-09T02:37:47Z</time>
      </trkpt>
      <trkpt lat="43.08719" lon="2.22707">
        <ele>155.2</ele>
        <time>2021-10-09T02:37:55Z</time>
      </trkpt>
      <trkpt lat="43.08713" lon="2.22704">
        <ele>155.2</ele>
        <time>2021-10-09T02:37:56Z</time>
      </trkpt>
      <trkpt lat="43.08676" lon="2.22684">
        <ele>155.4</ele>
        <time>2021-10-09T02:38:02Z</time>
      </trkpt>
      <trkpt lat="43.08644" lon="2.22665">
        <ele>155.6</ele>
        <time>2021-10-09T02:38:07Z</time>
      </trkpt>
      <trkpt lat="43.08594" lon="2.22635">
        <ele>155.8</ele>
        <time>2021-10-09T02:38:15Z</time>
      </trkpt>
      <trkpt lat="43.08582" lon="2.22628">
        <ele>155.8</ele>
        <time>2021-10-09T02:38:17Z</time>
      </trkpt>
      <trkpt lat="43.0855" lon="2.22599">
        <ele>156.2</ele>
        <time>2021-10-09T02:38:23Z</time>
      </trkpt>
      <trkpt lat="43.08545" lon="2.22593">
        <ele>156.4</ele>
        <time>2021-10-09T02:38:24Z</time>
      </trkpt>
      <trkpt lat="43.08539" lon="2.22575">
        <ele>156.4</ele>
        <time>2021-10-09T02:38:26Z</time>
      </trkpt>
      <trkpt lat="43.08526" lon="2.2257">
        <ele>156.6</ele>
        <time>2021-10-09T02:38:28Z</time>
      </trkpt>
      <trkpt lat="43.08516" lon="2.22578">
        <ele>156.6</ele>
        <time>2021-10-09T02:38:30Z</time>
      </trkpt>
      <trkpt lat="43.08514" lon="2.2258">
        <ele>156.6</ele>
        <time>2021-10-09T02:38:31Z</time>
      </trkpt>
      <trkpt lat="43.085" lon="2.22587">
        <ele>156.6</ele>
        <time>2021-10-09T02:38:32Z</time>
      </trkpt>
      <trkpt lat="43.08488" lon="2.22583">
        <ele>156.6</ele>
        <time>2021-10-09T02:38:34Z</time>
      </trkpt>
      <trkpt lat="43.08482" lon="2.2258">
        <ele>156.6</ele>
        <time>2021-10-09T02:38:35Z</time>
      </trkpt>
      <trkpt lat="43.08438" lon="2.22567">
        <ele>156.8</ele>
        <time>2021-10-09T02:38:42Z</time>
      </trkpt>
      <trkpt lat="43.0839" lon="2.22548">
        <ele>157.2</ele>
        <time>2021-10-09T02:38:50Z</time>
      </trkpt>
      <trkpt lat="43.08354" lon="2.22532">
        <ele>157.2</ele>
        <time>2021-10-09T02:38:56Z</time>
      </trkpt>
      <trkpt lat="43.08348" lon="2.22529">
        <ele>157.2</ele>
        <time>2021-10-09T02:38:57Z</time>
      </trkpt>
      <trkpt lat="43.08331" lon="2.22521">
        <ele>157.2</ele>
        <time>2021-10-09T02:39:00Z</time>
      </trkpt>
      <trkpt lat="43.08307" lon="2.2251">
        <ele>157.2</ele>
        <time>2021-10-09T02:39:04Z</time>
      </trkpt>
      <trkpt lat="43.08264" lon="2.2249">
        <ele>157.4</ele>
        <time>2021-10-09T02:39:11Z</time>
      </trkpt>
      <trkpt lat="43.08226" lon="2.22472">
        <ele>157.4</ele>
        <time>2021-10-09T02:39:17Z</time>
      </trkpt>
      <trkpt lat="43.08184" lon="2.22451">
        <ele>157.8</ele>
        <time>2021-10-09T02:39:24Z</time>
      </trkpt>
      <trkpt lat="43.08148" lon="2.22434">
        <ele>157.8</ele>
        <time>2021-10-09T02:39:30Z</time>
      </trkpt>
      <trkpt lat="43.08136" lon="2.22428">
        <ele>158</ele>
        <time>2021-10-09T02:39:32Z</time>
      </trkpt>
      <trkpt lat="43.08118" lon="2.22419">
        <ele>158</ele>
        <time>2021-10-09T02:39:35Z</time>
      </trkpt>
      <trkpt lat="43.08081" lon="2.224">
        <ele>158</ele>
        <time>2021-10-09T02:39:41Z</time>
      </trkpt>
      <trkpt lat="43.08044" lon="2.22382">
        <ele>158.2</ele>
        <time>2021-10-09T02:39:47Z</time>
      </trkpt>
      <trkpt lat="43.08006" lon="2.22363">
        <ele>158.4</ele>
        <time>2021-10-09T02:39:53Z</time>
      </trkpt>
      <trkpt lat="43.07993" lon="2.22356">
        <ele>158.4</ele>
        <time>2021-10-09T02:39:55Z</time>
      </trkpt>
      <trkpt lat="43.07974" lon="2.22344">
        <ele>158.4</ele>
        <time>2021-10-09T02:39:58Z</time>
      </trkpt>
      <trkpt lat="43.07949" lon="2.22331">
        <ele>158.4</ele>
        <time>2021-10-09T02:40:02Z</time>
      </trkpt>
      <trkpt lat="43.07936" lon="2.22325">
        <ele>158.6</ele>
        <time>2021-10-09T02:40:04Z</time>
      </trkpt>
      <trkpt lat="43.07892" lon="2.22303">
        <ele>158.6</ele>
        <time>2021-10-09T02:40:11Z</time>
      </trkpt>
      <trkpt lat="43.07867" lon="2.2229">
        <ele>158.6</ele>
        <time>2021-10-09T02:40:15Z</time>
      </trkpt>
      <trkpt lat="43.07828" lon="2.22271">
        <ele>158.8</ele>
        <time>2021-10-09T02:40:21Z</time>
      </trkpt>
      <trkpt lat="43.07797" lon="2.22255">
        <ele>158.8</ele>
        <time>2021-10-09T02:40:26Z</time>
      </trkpt>
      <trkpt lat="43.07766" lon="2.2224">
        <ele>159</ele>
        <time>2021-10-09T02:40:31Z</time>
      </trkpt>
      <trkpt lat="43.07735" lon="2.22226">
        <ele>159</ele>
        <time>2021-10-09T02:40:36Z</time>
      </trkpt>
      <trkpt lat="43.07723" lon="2.2222">
        <ele>159</ele>
        <time>2021-10-09T02:40:38Z</time>
      </trkpt>
      <trkpt lat="43.07698" lon="2.2221">
        <ele>159</ele>
        <time>2021-10-09T02:40:42Z</time>
      </trkpt>
      <trkpt lat="43.07674" lon="2.222">
        <ele>159</ele>
        <time>2021-10-09T02:40:46Z</time>
      </trkpt>
      <trkpt lat="43.07629" lon="2.22182">
        <ele>159</ele>
        <time>2021-10-09T02:40:53Z</time>
      </trkpt>
      <trkpt lat="43.07577" lon="2.22162">
        <ele>159.4</ele>
        <time>2021-10-09T02:41:01Z</time>
      </trkpt>
      <trkpt lat="43.0757" lon="2.22161">
        <ele>159.4</ele>
        <time>2021-10-09T02:41:02Z</time>
      </trkpt>
      <trkpt lat="43.07525" lon="2.22148">
        <ele>159.6</ele>
        <time>2021-10-09T02:41:09Z</time>
      </trkpt>
      <trkpt lat="43.07472" lon="2.22133">
        <ele>159.8</ele>
        <time>2021-10-09T02:41:17Z</time>
      </trkpt>
      <trkpt lat="43.07465" lon="2.22131">
        <ele>159.8</ele>
        <time>2021-10-09T02:41:18Z</time>
      </trkpt>
      <trkpt lat="43.07428" lon="2.22111">
        <ele>159.8</ele>
        <time>2021-10-09T02:41:24Z</time>
      </trkpt>
      <trkpt lat="43.07421" lon="2.22106">
        <ele>160</ele>
        <time>2021-10-09T02:41:25Z</time>
      </trkpt>
      <trkpt lat="43.07416" lon="2.221">
        <ele>160</ele>
        <time>2021-10-09T02:41:26Z</time>
      </trkpt>
      <trkpt lat="43.07413" lon="2.22091">
        <ele>160</ele>
        <time>2021-10-09T02:41:27Z</time>
      </trkpt>
      <trkpt lat="43.07411" lon="2.22082">
        <ele>160</ele>
        <time>2021-10-09T02:41:28Z</time>
      </trkpt>
      <trkpt lat="43.07414" lon="2.22062">
        <ele>160.2</ele>
        <time>2021-10-09T02:41:30Z</time>
      </trkpt>
      <trkpt lat="43.07415" lon="2.22053">
        <ele>160.2</ele>
        <time>2021-10-09T02:41:31Z</time>
      </trkpt>
      <trkpt lat="43.07411" lon="2.22035">
        <ele>160.2</ele>
        <time>2021-10-09T02:41:33Z</time>
      </trkpt>
      <trkpt lat="43.07401" lon="2.22021">
        <ele>160.4</ele>
        <time>2021-10-09T02:41:35Z</time>
      </trkpt>
      <trkpt lat="43.07395" lon="2.22016">
        <ele>160.4</ele>
        <time>2021-10-09T02:41:36Z</time>
      </trkpt>
      <trkpt lat="43.07388" lon="2.22014">
        <ele>160.4</ele>
        <time>2021-10-09T02:41:37Z</time>
      </trkpt>
      <trkpt lat="43.07374" lon="2.22016">
        <ele>160.4</ele>
        <time>2021-10-09T02:41:39Z</time>
      </trkpt>
      <trkpt lat="43.07362" lon="2.22027">
        <ele>160.4</ele>
        <time>2021-10-09T02:41:41Z</time>
      </trkpt>
      <trkpt lat="43.07352" lon="2.2203">
        <ele>160.4</ele>
        <time>2021-10-09T02:41:42Z</time>
      </trkpt>
      <trkpt lat="43.07345" lon="2.22028">
        <ele>160.4</ele>
        <time>2021-10-09T02:41:43Z</time>
      </trkpt>
      <trkpt lat="43.0733" lon="2.22022">
        <ele>160.6</ele>
        <time>2021-10-09T02:41:45Z</time>
      </trkpt>
      <trkpt lat="43.07288" lon="2.22005">
        <ele>161</ele>
        <time>2021-10-09T02:41:51Z</time>
      </trkpt>
      <trkpt lat="43.07233" lon="2.21984">
        <ele>161.6</ele>
        <time>2021-10-09T02:41:59Z</time>
      </trkpt>
      <trkpt lat="43.07176" lon="2.21957">
        <ele>161.8</ele>
        <time>2021-10-09T02:42:07Z</time>
      </trkpt>
      <trkpt lat="43.07162" lon="2.2195">
        <ele>161.8</ele>
        <time>2021-10-09T02:42:09Z</time>
      </trkpt>
      <trkpt lat="43.07108" lon="2.21924">
        <ele>162</ele>
        <time>2021-10-09T02:42:17Z</time>
      </trkpt>
      <trkpt lat="43.07062" lon="2.21902">
        <ele>162.2</ele>
        <time>2021-10-09T02:42:24Z</time>
      </trkpt>
      <trkpt lat="43.07023" lon="2.21883">
        <ele>162.6</ele>
        <time>2021-10-09T02:42:30Z</time>
      </trkpt>
      <trkpt lat="43.06991" lon="2.21868">
        <ele>162.6</ele>
        <time>2021-10-09T02:42:35Z</time>
      </trkpt>
      <trkpt lat="43.06985" lon="2.21865">
        <ele>162.6</ele>
        <time>2021-10-09T02:42:36Z</time>
      </trkpt>
      <trkpt lat="43.06959" lon="2.21853">
        <ele>162.6</ele>
        <time>2021-10-09T02:42:40Z</time>
      </trkpt>
      <trkpt lat="43.06915" lon="2.21831">
        <ele>162.8</ele>
        <time>2021-10-09T02:42:47Z</time>
      </trkpt>
      <trkpt lat="43.06868" lon="2.21809">
        <ele>162.8</ele>
        <time>2021-10-09T02:42:54Z</time>
      </trkpt>
      <trkpt lat="43.06835" lon="2.21791">
        <ele>162.8</ele>
        <time>2021-10-09T02:42:59Z</time>
      </trkpt>
      <trkpt lat="43.06827" lon="2.21789">
        <ele>162.6</ele>
        <time>2021-10-09T02:43:00Z</time>
      </trkpt>
      <trkpt lat="43.0679" lon="2.21781">
        <ele>162.6</ele>
        <time>2021-10-09T02:43:05Z</time>
      </trkpt>
      <trkpt lat="43.06783" lon="2.21777">
        <ele>162.6</ele>
        <time>2021-10-09T02:43:06Z</time>
      </trkpt>
      <trkpt lat="43.06737" lon="2.21753">
        <ele>162.6</ele>
        <time>2021-10-09T02:43:13Z</time>
      </trkpt>
      <trkpt lat="43.0669" lon="2.21732">
        <ele>162.2</ele>
        <time>2021-10-09T02:43:20Z</time>
      </trkpt>
      <trkpt lat="43.0665" lon="2.21711">
        <ele>161.6</ele>
        <time>2021-10-09T02:43:26Z</time>
      </trkpt>
      <trkpt lat="43.06611" lon="2.2169">
        <ele>161.2</ele>
        <time>2021-10-09T02:43:32Z</time>
      </trkpt>
      <trkpt lat="43.06578" lon="2.21674">
        <ele>161</ele>
        <time>2021-10-09T02:43:37Z</time>
      </trkpt>
      <trkpt lat="43.06535" lon="2.21653">
        <ele>161</ele>
        <time>2021-10-09T02:43:43Z</time>
      </trkpt>
      <trkpt lat="43.06503" lon="2.21637">
        <ele>160.8</ele>
        <time>2021-10-09T02:43:48Z</time>
      </trkpt>
      <trkpt lat="43.06463" lon="2.21618">
        <ele>160.6</ele>
        <time>2021-10-09T02:43:54Z</time>
      </trkpt>
      <trkpt lat="43.06419" lon="2.21597">
        <ele>160</ele>
        <time>2021-10-09T02:44:01Z</time>
      </trkpt>
      <trkpt lat="43.06384" lon="2.21581">
        <ele>159.8</ele>
        <time>2021-10-09T02:44:06Z</time>
      </trkpt>
      <trkpt lat="43.06331" lon="2.21556">
        <ele>159.6</ele>
        <time>2021-10-09T02:44:14Z</time>
      </trkpt>
      <trkpt lat="43.06293" lon="2.21538">
        <ele>159.8</ele>
        <time>2021-10-09T02:44:20Z</time>
      </trkpt>
      <trkpt lat="43.06263" lon="2.21524">
        <ele>159.4</ele>
        <time>2021-10-09T02:44:25Z</time>
      </trkpt>
      <trkpt lat="43.06257" lon="2.21521">
        <ele>159.6</ele>
        <time>2021-10-09T02:44:26Z</time>
      </trkpt>
      <trkpt lat="43.06229" lon="2.21506">
        <ele>159.4</ele>
        <time>2021-10-09T02:44:30Z</time>
      </trkpt>
      <trkpt lat="43.06175" lon="2.21479">
        <ele>160.2</ele>
        <time>2021-10-09T02:44:38Z</time>
      </trkpt>
      <trkpt lat="43.06136" lon="2.21464">
        <ele>160.4</ele>
        <time>2021-10-09T02:44:44Z</time>
      </trkpt>
      <trkpt lat="43.06092" lon="2.21441">
        <ele>160.8</ele>
        <time>2021-10-09T02:44:51Z</time>
      </trkpt>
      <trkpt lat="43.06087" lon="2.21438">
        <ele>160.8</ele>
        <time>2021-10-09T02:44:52Z</time>
      </trkpt>
      <trkpt lat="43.06065" lon="2.21423">
        <ele>161</ele>
        <time>2021-10-09T02:44:56Z</time>
      </trkpt>
      <trkpt lat="43.06034" lon="2.21404">
        <ele>161.2</ele>
        <time>2021-10-09T02:45:02Z</time>
      </trkpt>
      <trkpt lat="43.06005" lon="2.21389">
        <ele>161.2</ele>
        <time>2021-10-09T02:45:07Z</time>
      </trkpt>
      <trkpt lat="43.05967" lon="2.21379">
        <ele>161.2</ele>
        <time>2021-10-09T02:45:13Z</time>
      </trkpt>
      <trkpt lat="43.05923" lon="2.21374">
        <ele>161.2</ele>
        <time>2021-10-09T02:45:19Z</time>
      </trkpt>
      <trkpt lat="43.05887" lon="2.21369">
        <ele>160.8</ele>
        <time>2021-10-09T02:45:24Z</time>
      </trkpt>
      <trkpt lat="43.0588" lon="2.21367">
        <ele>160.8</ele>
        <time>2021-10-09T02:45:25Z</time>
      </trkpt>
      <trkpt lat="43.05827" lon="2.21359">
        <ele>161</ele>
        <time>2021-10-09T02:45:32Z</time>
      </trkpt>
      <trkpt lat="43.05783" lon="2.21357">
        <ele>161.4</ele>
        <time>2021-10-09T02:45:38Z</time>
      </trkpt>
      <trkpt lat="43.05748" lon="2.21363">
        <ele>161.4</ele>
        <time>2021-10-09T02:45:43Z</time>
      </trkpt>
      <trkpt lat="43.05712" lon="2.21368">
        <ele>161.8</ele>
        <time>2021-10-09T02:45:48Z</time>
      </trkpt>
      <trkpt lat="43.05704" lon="2.21366">
        <ele>161.8</ele>
        <time>2021-10-09T02:45:49Z</time>
      </trkpt>
      <trkpt lat="43.05654" lon="2.2135">
        <ele>162.4</ele>
        <time>2021-10-09T02:45:56Z</time>
      </trkpt>
      <trkpt lat="43.056" lon="2.21336">
        <ele>163</ele>
        <time>2021-10-09T02:46:04Z</time>
      </trkpt>
      <trkpt lat="43.05593" lon="2.21334">
        <ele>163</ele>
        <time>2021-10-09T02:46:05Z</time>
      </trkpt>
      <trkpt lat="43.05539" lon="2.21318">
        <ele>163.4</ele>
        <time>2021-10-09T02:46:13Z</time>
      </trkpt>
      <trkpt lat="43.05503" lon="2.21307">
        <ele>164</ele>
        <time>2021-10-09T02:46:19Z</time>
      </trkpt>
      <trkpt lat="43.05468" lon="2.21299">
        <ele>164.4</ele>
        <time>2021-10-09T02:46:25Z</time>
      </trkpt>
      <trkpt lat="43.05461" lon="2.2129">
        <ele>164.4</ele>
        <time>2021-10-09T02:46:26Z</time>
      </trkpt>
      <trkpt lat="43.05455" lon="2.21275">
        <ele>164.6</ele>
        <time>2021-10-09T02:46:28Z</time>
      </trkpt>
      <trkpt lat="43.05442" lon="2.21229">
        <ele>165.4</ele>
        <time>2021-10-09T02:46:34Z</time>
      </trkpt>
      <trkpt lat="43.05431" lon="2.2117">
        <ele>166</ele>
        <time>2021-10-09T02:46:41Z</time>
      </trkpt>
      <trkpt lat="43.05418" lon="2.21092">
        <ele>166.6</ele>
        <time>2021-10-09T02:46:50Z</time>
      </trkpt>
      <trkpt lat="43.05406" lon="2.21024">
        <ele>167.4</ele>
        <time>2021-10-09T02:46:58Z</time>
      </trkpt>
      <trkpt lat="43.05395" lon="2.20955">
        <ele>168.2</ele>
        <time>2021-10-09T02:47:06Z</time>
      </trkpt>
      <trkpt lat="43.05393" lon="2.20938">
        <ele>168.4</ele>
        <time>2021-10-09T02:47:08Z</time>
      </trkpt>
      <trkpt lat="43.05395" lon="2.20911">
        <ele>168.6</ele>
        <time>2021-10-09T02:47:11Z</time>
      </trkpt>
      <trkpt lat="43.05404" lon="2.20848">
        <ele>169.2</ele>
        <time>2021-10-09T02:47:18Z</time>
      </trkpt>
      <trkpt lat="43.05415" lon="2.20784">
        <ele>169.8</ele>
        <time>2021-10-09T02:47:25Z</time>
      </trkpt>
      <trkpt lat="43.05427" lon="2.20711">
        <ele>170.2</ele>
        <time>2021-10-09T02:47:33Z</time>
      </trkpt>
      <trkpt lat="43.05428" lon="2.20703">
        <ele>170.4</ele>
        <time>2021-10-09T02:47:34Z</time>
      </trkpt>
      <trkpt lat="43.05441" lon="2.20622">
        <ele>171</ele>
        <time>2021-10-09T02:47:43Z</time>
      </trkpt>
      <trkpt lat="43.05452" lon="2.20552">
        <ele>171.6</ele>
        <time>2021-10-09T02:47:51Z</time>
      </trkpt>
      <trkpt lat="43.05462" lon="2.20493">
        <ele>172.2</ele>
        <time>2021-10-09T02:47:58Z</time>
      </trkpt>
      <trkpt lat="43.05463" lon="2.20485">
        <ele>172.4</ele>
        <time>2021-10-09T02:47:59Z</time>
      </trkpt>
      <trkpt lat="43.05467" lon="2.20452">
        <ele>172.6</ele>
        <time>2021-10-09T02:48:03Z</time>
      </trkpt>
      <trkpt lat="43.05466" lon="2.20388">
        <ele>173.4</ele>
        <time>2021-10-09T02:48:11Z</time>
      </trkpt>
      <trkpt lat="43.05457" lon="2.20333">
        <ele>174.4</ele>
        <time>2021-10-09T02:48:18Z</time>
      </trkpt>
      <trkpt lat="43.05445" lon="2.20269">
        <ele>175.4</ele>
        <time>2021-10-09T02:48:27Z</time>
      </trkpt>
      <trkpt lat="43.0545" lon="2.2026">
        <ele>175.6</ele>
        <time>2021-10-09T02:48:29Z</time>
      </trkpt>
      <trkpt lat="43.05454" lon="2.20256">
        <ele>175.6</ele>
        <time>2021-10-09T02:48:30Z</time>
      </trkpt>
      <trkpt lat="43.05469" lon="2.20227">
        <ele>176.4</ele>
        <time>2021-10-09T02:48:36Z</time>
      </trkpt>
      <trkpt lat="43.05473" lon="2.20215">
        <ele>176.6</ele>
        <time>2021-10-09T02:48:38Z</time>
      </trkpt>
      <trkpt lat="43.0548" lon="2.20191">
        <ele>176.8</ele>
        <time>2021-10-09T02:48:42Z</time>
      </trkpt>
      <trkpt lat="43.05498" lon="2.20148">
        <ele>177.6</ele>
        <time>2021-10-09T02:48:49Z</time>
      </trkpt>
      <trkpt lat="43.05501" lon="2.20143">
        <ele>177.6</ele>
        <time>2021-10-09T02:48:50Z</time>
      </trkpt>
      <trkpt lat="43.05516" lon="2.20112">
        <ele>178.2</ele>
        <time>2021-10-09T02:48:55Z</time>
      </trkpt>
      <trkpt lat="43.05539" lon="2.20068">
        <ele>178.8</ele>
        <time>2021-10-09T02:49:03Z</time>
      </trkpt>
      <trkpt lat="43.05551" lon="2.20061">
        <ele>179</ele>
        <time>2021-10-09T02:49:05Z</time>
      </trkpt>
      <trkpt lat="43.05553" lon="2.20064">
        <ele>179.2</ele>
        <time>2021-10-09T02:49:06Z</time>
      </trkpt>
      <trkpt lat="43.05568" lon="2.20081">
        <ele>179.8</ele>
        <time>2021-10-09T02:49:10Z</time>
      </trkpt>
      <trkpt lat="43.05604" lon="2.20121">
        <ele>191.4</ele>
        <time>2021-10-09T03:14:53Z</time>
      </trkpt>
      <trkpt lat="43.05604" lon="2.20121">
        <ele>191.4</ele>
        <time>2021-10-09T03:14:54Z</time>
      </trkpt>
      <trkpt lat="43.05605" lon="2.20134">
        <ele>193.6</ele>
        <time>2021-10-09T03:27:03Z</time>
      </trkpt>
      <trkpt lat="43.05605" lon="2.20134">
        <ele>193.4</ele>
        <time>2021-10-09T03:27:05Z</time>
      </trkpt>
      <trkpt lat="43.05597" lon="2.20113">
        <ele>193</ele>
        <time>2021-10-09T03:27:10Z</time>
      </trkpt>
      <trkpt lat="43.05584" lon="2.20098">
        <ele>192.6</ele>
        <time>2021-10-09T03:27:15Z</time>
      </trkpt>
      <trkpt lat="43.05566" lon="2.20079">
        <ele>191.8</ele>
        <time>2021-10-09T03:27:23Z</time>
      </trkpt>
      <trkpt lat="43.05552" lon="2.20063">
        <ele>191.2</ele>
        <time>2021-10-09T03:27:29Z</time>
      </trkpt>
      <trkpt lat="43.05539" lon="2.20042">
        <ele>191</ele>
        <time>2021-10-09T03:27:34Z</time>
      </trkpt>
      <trkpt lat="43.05515" lon="2.20009">
        <ele>190.6</ele>
        <time>2021-10-09T03:27:42Z</time>
      </trkpt>
      <trkpt lat="43.055" lon="2.19991">
        <ele>190.6</ele>
        <time>2021-10-09T03:27:47Z</time>
      </trkpt>
      <trkpt lat="43.05498" lon="2.19988">
        <ele>190.6</ele>
        <time>2021-10-09T03:27:48Z</time>
      </trkpt>
      <trkpt lat="43.0549" lon="2.19989">
        <ele>190.4</ele>
        <time>2021-10-09T03:27:49Z</time>
      </trkpt>
      <trkpt lat="43.05485" lon="2.19999">
        <ele>190.2</ele>
        <time>2021-10-09T03:27:51Z</time>
      </trkpt>
      <trkpt lat="43.05483" lon="2.20005">
        <ele>190.2</ele>
        <time>2021-10-09T03:27:52Z</time>
      </trkpt>
      <trkpt lat="43.05462" lon="2.20027">
        <ele>189.8</ele>
        <time>2021-10-09T03:27:57Z</time>
      </trkpt>
      <trkpt lat="43.05451" lon="2.20032">
        <ele>189.8</ele>
        <time>2021-10-09T03:27:59Z</time>
      </trkpt>
      <trkpt lat="43.05441" lon="2.20037">
        <ele>189.6</ele>
        <time>2021-10-09T03:28:01Z</time>
      </trkpt>
      <trkpt lat="43.05431" lon="2.20047">
        <ele>189.4</ele>
        <time>2021-10-09T03:28:03Z</time>
      </trkpt>
      <trkpt lat="43.05431" lon="2.20057">
        <ele>189.4</ele>
        <time>2021-10-09T03:28:04Z</time>
      </trkpt>
      <trkpt lat="43.05432" lon="2.20065">
        <ele>189.2</ele>
        <time>2021-10-09T03:28:05Z</time>
      </trkpt>
      <trkpt lat="43.05435" lon="2.20091">
        <ele>189</ele>
        <time>2021-10-09T03:28:08Z</time>
      </trkpt>
      <trkpt lat="43.05438" lon="2.20108">
        <ele>189</ele>
        <time>2021-10-09T03:28:10Z</time>
      </trkpt>
      <trkpt lat="43.05439" lon="2.2012">
        <ele>188.8</ele>
        <time>2021-10-09T03:28:12Z</time>
      </trkpt>
      <trkpt lat="43.05438" lon="2.20126">
        <ele>188.6</ele>
        <time>2021-10-09T03:28:13Z</time>
      </trkpt>
      <trkpt lat="43.05432" lon="2.20134">
        <ele>188.6</ele>
        <time>2021-10-09T03:28:15Z</time>
      </trkpt>
      <trkpt lat="43.05425" lon="2.20139">
        <ele>188.4</ele>
        <time>2021-10-09T03:28:17Z</time>
      </trkpt>
      <trkpt lat="43.0542" lon="2.20144">
        <ele>188.2</ele>
        <time>2021-10-09T03:28:18Z</time>
      </trkpt>
      <trkpt lat="43.05421" lon="2.2015">
        <ele>188.2</ele>
        <time>2021-10-09T03:28:19Z</time>
      </trkpt>
      <trkpt lat="43.05424" lon="2.20163">
        <ele>188</ele>
        <time>2021-10-09T03:28:21Z</time>
      </trkpt>
      <trkpt lat="43.05426" lon="2.20176">
        <ele>187.6</ele>
        <time>2021-10-09T03:28:23Z</time>
      </trkpt>
      <trkpt lat="43.05429" lon="2.20189">
        <ele>187.4</ele>
        <time>2021-10-09T03:28:25Z</time>
      </trkpt>
      <trkpt lat="43.0543" lon="2.20196">
        <ele>187.4</ele>
        <time>2021-10-09T03:28:26Z</time>
      </trkpt>
      <trkpt lat="43.05439" lon="2.20239">
        <ele>187</ele>
        <time>2021-10-09T03:28:32Z</time>
      </trkpt>
      <trkpt lat="43.05449" lon="2.2029">
        <ele>186.4</ele>
        <time>2021-10-09T03:28:38Z</time>
      </trkpt>
      <trkpt lat="43.05464" lon="2.20365">
        <ele>185.6</ele>
        <time>2021-10-09T03:28:46Z</time>
      </trkpt>
      <trkpt lat="43.05468" lon="2.20436">
        <ele>185</ele>
        <time>2021-10-09T03:28:53Z</time>
      </trkpt>
      <trkpt lat="43.05461" lon="2.20496">
        <ele>184.2</ele>
        <time>2021-10-09T03:28:59Z</time>
      </trkpt>
      <trkpt lat="43.05455" lon="2.20536">
        <ele>184</ele>
        <time>2021-10-09T03:29:03Z</time>
      </trkpt>
      <trkpt lat="43.0545" lon="2.20566">
        <ele>183.8</ele>
        <time>2021-10-09T03:29:06Z</time>
      </trkpt>
      <trkpt lat="43.05438" lon="2.20637">
        <ele>183.2</ele>
        <time>2021-10-09T03:29:13Z</time>
      </trkpt>
      <trkpt lat="43.05428" lon="2.20704">
        <ele>182.8</ele>
        <time>2021-10-09T03:29:20Z</time>
      </trkpt>
      <trkpt lat="43.05417" lon="2.20769">
        <ele>182.4</ele>
        <time>2021-10-09T03:29:27Z</time>
      </trkpt>
      <trkpt lat="43.05405" lon="2.20842">
        <ele>182</ele>
        <time>2021-10-09T03:29:35Z</time>
      </trkpt>
      <trkpt lat="43.05396" lon="2.20909">
        <ele>181.6</ele>
        <time>2021-10-09T03:29:42Z</time>
      </trkpt>
      <trkpt lat="43.05393" lon="2.20937">
        <ele>181.6</ele>
        <time>2021-10-09T03:29:45Z</time>
      </trkpt>
      <trkpt lat="43.05395" lon="2.20956">
        <ele>181.4</ele>
        <time>2021-10-09T03:29:47Z</time>
      </trkpt>
      <trkpt lat="43.05407" lon="2.21033">
        <ele>181</ele>
        <time>2021-10-09T03:29:55Z</time>
      </trkpt>
      <trkpt lat="43.05409" lon="2.21043">
        <ele>181</ele>
        <time>2021-10-09T03:29:56Z</time>
      </trkpt>
      <trkpt lat="43.05422" lon="2.21119">
        <ele>180.6</ele>
        <time>2021-10-09T03:30:04Z</time>
      </trkpt>
      <trkpt lat="43.05425" lon="2.21138">
        <ele>180.4</ele>
        <time>2021-10-09T03:30:06Z</time>
      </trkpt>
      <trkpt lat="43.05439" lon="2.21213">
        <ele>180</ele>
        <time>2021-10-09T03:30:14Z</time>
      </trkpt>
      <trkpt lat="43.05441" lon="2.21222">
        <ele>180</ele>
        <time>2021-10-09T03:30:15Z</time>
      </trkpt>
      <trkpt lat="43.05444" lon="2.21259">
        <ele>179.6</ele>
        <time>2021-10-09T03:30:19Z</time>
      </trkpt>
      <trkpt lat="43.05446" lon="2.21277">
        <ele>179.6</ele>
        <time>2021-10-09T03:30:21Z</time>
      </trkpt>
      <trkpt lat="43.05438" lon="2.21304">
        <ele>179.4</ele>
        <time>2021-10-09T03:30:24Z</time>
      </trkpt>
      <trkpt lat="43.05432" lon="2.2131">
        <ele>179.2</ele>
        <time>2021-10-09T03:30:25Z</time>
      </trkpt>
      <trkpt lat="43.05427" lon="2.21317">
        <ele>179.2</ele>
        <time>2021-10-09T03:30:26Z</time>
      </trkpt>
      <trkpt lat="43.05419" lon="2.21332">
        <ele>179</ele>
        <time>2021-10-09T03:30:28Z</time>
      </trkpt>
      <trkpt lat="43.0539" lon="2.21365">
        <ele>178.8</ele>
        <time>2021-10-09T03:30:34Z</time>
      </trkpt>
      <trkpt lat="43.05365" lon="2.21392">
        <ele>178.2</ele>
        <time>2021-10-09T03:30:39Z</time>
      </trkpt>
      <trkpt lat="43.05356" lon="2.21404">
        <ele>177.8</ele>
        <time>2021-10-09T03:30:41Z</time>
      </trkpt>
      <trkpt lat="43.05346" lon="2.21416">
        <ele>177.6</ele>
        <time>2021-10-09T03:30:43Z</time>
      </trkpt>
      <trkpt lat="43.05322" lon="2.21445">
        <ele>176.8</ele>
        <time>2021-10-09T03:30:48Z</time>
      </trkpt>
      <trkpt lat="43.05318" lon="2.21451">
        <ele>176.6</ele>
        <time>2021-10-09T03:30:49Z</time>
      </trkpt>
      <trkpt lat="43.05296" lon="2.21482">
        <ele>176</ele>
        <time>2021-10-09T03:30:54Z</time>
      </trkpt>
      <trkpt lat="43.05291" lon="2.21488">
        <ele>176</ele>
        <time>2021-10-09T03:30:55Z</time>
      </trkpt>
      <trkpt lat="43.0527" lon="2.21524">
        <ele>175.4</ele>
        <time>2021-10-09T03:31:00Z</time>
      </trkpt>
      <trkpt lat="43.05231" lon="2.21583">
        <ele>174.4</ele>
        <time>2021-10-09T03:31:08Z</time>
      </trkpt>
      <trkpt lat="43.05203" lon="2.21655">
        <ele>173.8</ele>
        <time>2021-10-09T03:31:17Z</time>
      </trkpt>
      <trkpt lat="43.05178" lon="2.21691">
        <ele>173.6</ele>
        <time>2021-10-09T03:31:22Z</time>
      </trkpt>
      <trkpt lat="43.05138" lon="2.21745">
        <ele>173.4</ele>
        <time>2021-10-09T03:31:30Z</time>
      </trkpt>
      <trkpt lat="43.05084" lon="2.21795">
        <ele>173.2</ele>
        <time>2021-10-09T03:31:39Z</time>
      </trkpt>
      <trkpt lat="43.0508" lon="2.21803">
        <ele>173.2</ele>
        <time>2021-10-09T03:31:40Z</time>
      </trkpt>
      <trkpt lat="43.0507" lon="2.21827">
        <ele>173.2</ele>
        <time>2021-10-09T03:31:43Z</time>
      </trkpt>
      <trkpt lat="43.05062" lon="2.21839">
        <ele>173</ele>
        <time>2021-10-09T03:31:45Z</time>
      </trkpt>
      <trkpt lat="43.05056" lon="2.21845">
        <ele>173</ele>
        <time>2021-10-09T03:31:46Z</time>
      </trkpt>
      <trkpt lat="43.05031" lon="2.21862">
        <ele>173</ele>
        <time>2021-10-09T03:31:50Z</time>
      </trkpt>
      <trkpt lat="43.05025" lon="2.21867">
        <ele>173</ele>
        <time>2021-10-09T03:31:51Z</time>
      </trkpt>
      <trkpt lat="43.05019" lon="2.21873">
        <ele>173</ele>
        <time>2021-10-09T03:31:52Z</time>
      </trkpt>
      <trkpt lat="43.04999" lon="2.21898">
        <ele>173</ele>
        <time>2021-10-09T03:31:56Z</time>
      </trkpt>
      <trkpt lat="43.04969" lon="2.21936">
        <ele>173</ele>
        <time>2021-10-09T03:32:02Z</time>
      </trkpt>
      <trkpt lat="43.04928" lon="2.21988">
        <ele>173.2</ele>
        <time>2021-10-09T03:32:10Z</time>
      </trkpt>
      <trkpt lat="43.04923" lon="2.21994">
        <ele>173.2</ele>
        <time>2021-10-09T03:32:11Z</time>
      </trkpt>
      <trkpt lat="43.04892" lon="2.22017">
        <ele>173</ele>
        <time>2021-10-09T03:32:16Z</time>
      </trkpt>
      <trkpt lat="43.04848" lon="2.22037">
        <ele>173.2</ele>
        <time>2021-10-09T03:32:23Z</time>
      </trkpt>
      <trkpt lat="43.04803" lon="2.22049">
        <ele>173.2</ele>
        <time>2021-10-09T03:32:30Z</time>
      </trkpt>
      <trkpt lat="43.04797" lon="2.22051">
        <ele>173.2</ele>
        <time>2021-10-09T03:32:31Z</time>
      </trkpt>
      <trkpt lat="43.04765" lon="2.22059">
        <ele>173.2</ele>
        <time>2021-10-09T03:32:36Z</time>
      </trkpt>
      <trkpt lat="43.04708" lon="2.22075">
        <ele>173</ele>
        <time>2021-10-09T03:32:45Z</time>
      </trkpt>
      <trkpt lat="43.04652" lon="2.22099">
        <ele>172.6</ele>
        <time>2021-10-09T03:32:54Z</time>
      </trkpt>
      <trkpt lat="43.04615" lon="2.22128">
        <ele>172.8</ele>
        <time>2021-10-09T03:33:00Z</time>
      </trkpt>
      <trkpt lat="43.04586" lon="2.22159">
        <ele>172.8</ele>
        <time>2021-10-09T03:33:05Z</time>
      </trkpt>
      <trkpt lat="43.04558" lon="2.22209">
        <ele>173</ele>
        <time>2021-10-09T03:33:11Z</time>
      </trkpt>
      <trkpt lat="43.0455" lon="2.22227">
        <ele>173.2</ele>
        <time>2021-10-09T03:33:13Z</time>
      </trkpt>
      <trkpt lat="43.04546" lon="2.22247">
        <ele>173.2</ele>
        <time>2021-10-09T03:33:15Z</time>
      </trkpt>
      <trkpt lat="43.04538" lon="2.22295">
        <ele>172.8</ele>
        <time>2021-10-09T03:33:20Z</time>
      </trkpt>
      <trkpt lat="43.0453" lon="2.22373">
        <ele>172.6</ele>
        <time>2021-10-09T03:33:28Z</time>
      </trkpt>
      <trkpt lat="43.0452" lon="2.22451">
        <ele>172.6</ele>
        <time>2021-10-09T03:33:36Z</time>
      </trkpt>
      <trkpt lat="43.04516" lon="2.22459">
        <ele>172.6</ele>
        <time>2021-10-09T03:33:37Z</time>
      </trkpt>
      <trkpt lat="43.04512" lon="2.22467">
        <ele>172.6</ele>
        <time>2021-10-09T03:33:38Z</time>
      </trkpt>
      <trkpt lat="43.04499" lon="2.22473">
        <ele>172.4</ele>
        <time>2021-10-09T03:33:40Z</time>
      </trkpt>
      <trkpt lat="43.0449" lon="2.22493">
        <ele>172.4</ele>
        <time>2021-10-09T03:33:42Z</time>
      </trkpt>
      <trkpt lat="43.04491" lon="2.22498">
        <ele>172.8</ele>
        <time>2021-10-09T03:33:43Z</time>
      </trkpt>
      <trkpt lat="43.04496" lon="2.2251">
        <ele>172.6</ele>
        <time>2021-10-09T03:33:44Z</time>
      </trkpt>
      <trkpt lat="43.045" lon="2.22538">
        <ele>172.4</ele>
        <time>2021-10-09T03:33:47Z</time>
      </trkpt>
      <trkpt lat="43.04503" lon="2.22586">
        <ele>172.8</ele>
        <time>2021-10-09T03:33:52Z</time>
      </trkpt>
      <trkpt lat="43.04501" lon="2.22604">
        <ele>172.8</ele>
        <time>2021-10-09T03:33:54Z</time>
      </trkpt>
      <trkpt lat="43.04498" lon="2.22633">
        <ele>173</ele>
        <time>2021-10-09T03:33:57Z</time>
      </trkpt>
      <trkpt lat="43.0449" lon="2.22699">
        <ele>173.4</ele>
        <time>2021-10-09T03:34:04Z</time>
      </trkpt>
      <trkpt lat="43.04481" lon="2.22773">
        <ele>174</ele>
        <time>2021-10-09T03:34:12Z</time>
      </trkpt>
      <trkpt lat="43.0448" lon="2.22782">
        <ele>174</ele>
        <time>2021-10-09T03:34:13Z</time>
      </trkpt>
      <trkpt lat="43.04471" lon="2.22855">
        <ele>174.6</ele>
        <time>2021-10-09T03:34:21Z</time>
      </trkpt>
      <trkpt lat="43.04462" lon="2.22927">
        <ele>175.4</ele>
        <time>2021-10-09T03:34:29Z</time>
      </trkpt>
      <trkpt lat="43.04452" lon="2.23001">
        <ele>176.4</ele>
        <time>2021-10-09T03:34:37Z</time>
      </trkpt>
      <trkpt lat="43.0445" lon="2.23019">
        <ele>176.8</ele>
        <time>2021-10-09T03:34:39Z</time>
      </trkpt>
      <trkpt lat="43.0444" lon="2.23093">
        <ele>177.6</ele>
        <time>2021-10-09T03:34:47Z</time>
      </trkpt>
      <trkpt lat="43.04436" lon="2.2312">
        <ele>178</ele>
        <time>2021-10-09T03:34:50Z</time>
      </trkpt>
      <trkpt lat="43.04429" lon="2.23175">
        <ele>178.2</ele>
        <time>2021-10-09T03:34:56Z</time>
      </trkpt>
      <trkpt lat="43.04428" lon="2.23184">
        <ele>178.2</ele>
        <time>2021-10-09T03:34:57Z</time>
      </trkpt>
      <trkpt lat="43.04413" lon="2.232">
        <ele>178.4</ele>
        <time>2021-10-09T03:34:59Z</time>
      </trkpt>
      <trkpt lat="43.04413" lon="2.23207">
        <ele>178.4</ele>
        <time>2021-10-09T03:35:00Z</time>
      </trkpt>
      <trkpt lat="43.04424" lon="2.23219">
        <ele>178.4</ele>
        <time>2021-10-09T03:35:01Z</time>
      </trkpt>
      <trkpt lat="43.04421" lon="2.23246">
        <ele>178.6</ele>
        <time>2021-10-09T03:35:04Z</time>
      </trkpt>
      <trkpt lat="43.04415" lon="2.23309">
        <ele>179.2</ele>
        <time>2021-10-09T03:35:11Z</time>
      </trkpt>
      <trkpt lat="43.04406" lon="2.23384">
        <ele>179.6</ele>
        <time>2021-10-09T03:35:20Z</time>
      </trkpt>
      <trkpt lat="43.04396" lon="2.23461">
        <ele>180.2</ele>
        <time>2021-10-09T03:35:29Z</time>
      </trkpt>
      <trkpt lat="43.04392" lon="2.23486">
        <ele>180.4</ele>
        <time>2021-10-09T03:35:32Z</time>
      </trkpt>
      <trkpt lat="43.04383" lon="2.23561">
        <ele>181</ele>
        <time>2021-10-09T03:35:41Z</time>
      </trkpt>
      <trkpt lat="43.04379" lon="2.23586">
        <ele>181.2</ele>
        <time>2021-10-09T03:35:44Z</time>
      </trkpt>
      <trkpt lat="43.04371" lon="2.23654">
        <ele>181.6</ele>
        <time>2021-10-09T03:35:52Z</time>
      </trkpt>
      <trkpt lat="43.04361" lon="2.2373">
        <ele>182.2</ele>
        <time>2021-10-09T03:36:00Z</time>
      </trkpt>
      <trkpt lat="43.04352" lon="2.23789">
        <ele>182.4</ele>
        <time>2021-10-09T03:36:06Z</time>
      </trkpt>
      <trkpt lat="43.04336" lon="2.23845">
        <ele>182.6</ele>
        <time>2021-10-09T03:36:12Z</time>
      </trkpt>
      <trkpt lat="43.0431" lon="2.23896">
        <ele>183</ele>
        <time>2021-10-09T03:36:18Z</time>
      </trkpt>
      <trkpt lat="43.04277" lon="2.23934">
        <ele>183.2</ele>
        <time>2021-10-09T03:36:24Z</time>
      </trkpt>
      <trkpt lat="43.04231" lon="2.23981">
        <ele>183.4</ele>
        <time>2021-10-09T03:36:32Z</time>
      </trkpt>
      <trkpt lat="43.04225" lon="2.23987">
        <ele>183.4</ele>
        <time>2021-10-09T03:36:33Z</time>
      </trkpt>
      <trkpt lat="43.04214" lon="2.23998">
        <ele>183.4</ele>
        <time>2021-10-09T03:36:35Z</time>
      </trkpt>
      <trkpt lat="43.04191" lon="2.2402">
        <ele>183.6</ele>
        <time>2021-10-09T03:36:39Z</time>
      </trkpt>
      <trkpt lat="43.04163" lon="2.24049">
        <ele>184</ele>
        <time>2021-10-09T03:36:44Z</time>
      </trkpt>
      <trkpt lat="43.0414" lon="2.24073">
        <ele>184.4</ele>
        <time>2021-10-09T03:36:48Z</time>
      </trkpt>
      <trkpt lat="43.04098" lon="2.24117">
        <ele>184.8</ele>
        <time>2021-10-09T03:36:55Z</time>
      </trkpt>
      <trkpt lat="43.04051" lon="2.24164">
        <ele>184.8</ele>
        <time>2021-10-09T03:37:03Z</time>
      </trkpt>
      <trkpt lat="43.04013" lon="2.24208">
        <ele>185.2</ele>
        <time>2021-10-09T03:37:10Z</time>
      </trkpt>
      <trkpt lat="43.03968" lon="2.24256">
        <ele>184.6</ele>
        <time>2021-10-09T03:37:18Z</time>
      </trkpt>
      <trkpt lat="43.03924" lon="2.24303">
        <ele>184.6</ele>
        <time>2021-10-09T03:37:26Z</time>
      </trkpt>
      <trkpt lat="43.03918" lon="2.24309">
        <ele>184.6</ele>
        <time>2021-10-09T03:37:27Z</time>
      </trkpt>
      <trkpt lat="43.03876" lon="2.24356">
        <ele>184.2</ele>
        <time>2021-10-09T03:37:35Z</time>
      </trkpt>
      <trkpt lat="43.0387" lon="2.24362">
        <ele>184.2</ele>
        <time>2021-10-09T03:37:36Z</time>
      </trkpt>
      <trkpt lat="43.03827" lon="2.24408">
        <ele>184.2</ele>
        <time>2021-10-09T03:37:44Z</time>
      </trkpt>
      <trkpt lat="43.03817" lon="2.24419">
        <ele>184.2</ele>
        <time>2021-10-09T03:37:46Z</time>
      </trkpt>
      <trkpt lat="43.03775" lon="2.24462">
        <ele>184</ele>
        <time>2021-10-09T03:37:54Z</time>
      </trkpt>
      <trkpt lat="43.03733" lon="2.24505">
        <ele>184.2</ele>
        <time>2021-10-09T03:38:02Z</time>
      </trkpt>
      <trkpt lat="43.03691" lon="2.24549">
        <ele>184.2</ele>
        <time>2021-10-09T03:38:10Z</time>
      </trkpt>
      <trkpt lat="43.0365" lon="2.24591">
        <ele>184.2</ele>
        <time>2021-10-09T03:38:18Z</time>
      </trkpt>
      <trkpt lat="43.03603" lon="2.24639">
        <ele>184.2</ele>
        <time>2021-10-09T03:38:27Z</time>
      </trkpt>
      <trkpt lat="43.03565" lon="2.24678">
        <ele>184.4</ele>
        <time>2021-10-09T03:38:34Z</time>
      </trkpt>
      <trkpt lat="43.03522" lon="2.24723">
        <ele>184.8</ele>
        <time>2021-10-09T03:38:42Z</time>
      </trkpt>
      <trkpt lat="43.03506" lon="2.24739">
        <ele>185</ele>
        <time>2021-10-09T03:38:45Z</time>
      </trkpt>
      <trkpt lat="43.03461" lon="2.24781">
        <ele>185.2</ele>
        <time>2021-10-09T03:38:53Z</time>
      </trkpt>
      <trkpt lat="43.03449" lon="2.24792">
        <ele>185.4</ele>
        <time>2021-10-09T03:38:55Z</time>
      </trkpt>
      <trkpt lat="43.03415" lon="2.24822">
        <ele>185.6</ele>
        <time>2021-10-09T03:39:01Z</time>
      </trkpt>
      <trkpt lat="43.03374" lon="2.24856">
        <ele>185.8</ele>
        <time>2021-10-09T03:39:08Z</time>
      </trkpt>
      <trkpt lat="43.03326" lon="2.24896">
        <ele>186.4</ele>
        <time>2021-10-09T03:39:16Z</time>
      </trkpt>
      <trkpt lat="43.03281" lon="2.24923">
        <ele>186.8</ele>
        <time>2021-10-09T03:39:23Z</time>
      </trkpt>
      <trkpt lat="43.03236" lon="2.24949">
        <ele>186.8</ele>
        <time>2021-10-09T03:39:30Z</time>
      </trkpt>
      <trkpt lat="43.03197" lon="2.24969">
        <ele>187</ele>
        <time>2021-10-09T03:39:36Z</time>
      </trkpt>
      <trkpt lat="43.0315" lon="2.24988">
        <ele>187</ele>
        <time>2021-10-09T03:39:43Z</time>
      </trkpt>
      <trkpt lat="43.03101" lon="2.25006">
        <ele>187.2</ele>
        <time>2021-10-09T03:39:50Z</time>
      </trkpt>
      <trkpt lat="43.03052" lon="2.2502">
        <ele>187.2</ele>
        <time>2021-10-09T03:39:57Z</time>
      </trkpt>
      <trkpt lat="43.03003" lon="2.25031">
        <ele>187.4</ele>
        <time>2021-10-09T03:40:04Z</time>
      </trkpt>
      <trkpt lat="43.02955" lon="2.25041">
        <ele>187.6</ele>
        <time>2021-10-09T03:40:11Z</time>
      </trkpt>
      <trkpt lat="43.029" lon="2.25053">
        <ele>188</ele>
        <time>2021-10-09T03:40:19Z</time>
      </trkpt>
      <trkpt lat="43.0288" lon="2.25057">
        <ele>188</ele>
        <time>2021-10-09T03:40:22Z</time>
      </trkpt>
      <trkpt lat="43.02824" lon="2.2507">
        <ele>188.4</ele>
        <time>2021-10-09T03:40:30Z</time>
      </trkpt>
      <trkpt lat="43.02817" lon="2.2507">
        <ele>188.4</ele>
        <time>2021-10-09T03:40:31Z</time>
      </trkpt>
      <trkpt lat="43.02774" lon="2.25076">
        <ele>188.6</ele>
        <time>2021-10-09T03:40:37Z</time>
      </trkpt>
      <trkpt lat="43.02725" lon="2.25082">
        <ele>188.4</ele>
        <time>2021-10-09T03:40:44Z</time>
      </trkpt>
      <trkpt lat="43.02689" lon="2.25086">
        <ele>188</ele>
        <time>2021-10-09T03:40:49Z</time>
      </trkpt>
      <trkpt lat="43.02638" lon="2.2509">
        <ele>187.2</ele>
        <time>2021-10-09T03:40:56Z</time>
      </trkpt>
      <trkpt lat="43.02602" lon="2.25094">
        <ele>186.4</ele>
        <time>2021-10-09T03:41:01Z</time>
      </trkpt>
      <trkpt lat="43.02566" lon="2.25098">
        <ele>185.6</ele>
        <time>2021-10-09T03:41:06Z</time>
      </trkpt>
      <trkpt lat="43.02507" lon="2.251">
        <ele>184.4</ele>
        <time>2021-10-09T03:41:14Z</time>
      </trkpt>
      <trkpt lat="43.0245" lon="2.25097">
        <ele>183.2</ele>
        <time>2021-10-09T03:41:22Z</time>
      </trkpt>
      <trkpt lat="43.02409" lon="2.25106">
        <ele>182.4</ele>
        <time>2021-10-09T03:41:28Z</time>
      </trkpt>
      <trkpt lat="43.0237" lon="2.25125">
        <ele>181.2</ele>
        <time>2021-10-09T03:41:34Z</time>
      </trkpt>
      <trkpt lat="43.02357" lon="2.25132">
        <ele>180.6</ele>
        <time>2021-10-09T03:41:36Z</time>
      </trkpt>
      <trkpt lat="43.02345" lon="2.25139">
        <ele>180.2</ele>
        <time>2021-10-09T03:41:38Z</time>
      </trkpt>
      <trkpt lat="43.02309" lon="2.25156">
        <ele>179.4</ele>
        <time>2021-10-09T03:41:44Z</time>
      </trkpt>
      <trkpt lat="43.02264" lon="2.25175">
        <ele>178.6</ele>
        <time>2021-10-09T03:41:51Z</time>
      </trkpt>
      <trkpt lat="43.02225" lon="2.25182">
        <ele>178.2</ele>
        <time>2021-10-09T03:41:57Z</time>
      </trkpt>
      <trkpt lat="43.02179" lon="2.25183">
        <ele>177.6</ele>
        <time>2021-10-09T03:42:04Z</time>
      </trkpt>
      <trkpt lat="43.02139" lon="2.25184">
        <ele>177</ele>
        <time>2021-10-09T03:42:10Z</time>
      </trkpt>
      <trkpt lat="43.02087" lon="2.25181">
        <ele>177</ele>
        <time>2021-10-09T03:42:18Z</time>
      </trkpt>
      <trkpt lat="43.02034" lon="2.25173">
        <ele>176.8</ele>
        <time>2021-10-09T03:42:26Z</time>
      </trkpt>
      <trkpt lat="43.02027" lon="2.25171">
        <ele>176.8</ele>
        <time>2021-10-09T03:42:27Z</time>
      </trkpt>
      <trkpt lat="43.01985" lon="2.25164">
        <ele>176.4</ele>
        <time>2021-10-09T03:42:33Z</time>
      </trkpt>
      <trkpt lat="43.01929" lon="2.25158">
        <ele>176.2</ele>
        <time>2021-10-09T03:42:41Z</time>
      </trkpt>
      <trkpt lat="43.01922" lon="2.25159">
        <ele>176.4</ele>
        <time>2021-10-09T03:42:42Z</time>
      </trkpt>
      <trkpt lat="43.01894" lon="2.25164">
        <ele>176.6</ele>
        <time>2021-10-09T03:42:46Z</time>
      </trkpt>
      <trkpt lat="43.01856" lon="2.25186">
        <ele>176.8</ele>
        <time>2021-10-09T03:42:52Z</time>
      </trkpt>
      <trkpt lat="43.01822" lon="2.2522">
        <ele>176.8</ele>
        <time>2021-10-09T03:42:58Z</time>
      </trkpt>
      <trkpt lat="43.01813" lon="2.25234">
        <ele>176.8</ele>
        <time>2021-10-09T03:43:00Z</time>
      </trkpt>
      <trkpt lat="43.01798" lon="2.25264">
        <ele>176.8</ele>
        <time>2021-10-09T03:43:04Z</time>
      </trkpt>
      <trkpt lat="43.01778" lon="2.25322">
        <ele>177.2</ele>
        <time>2021-10-09T03:43:11Z</time>
      </trkpt>
      <trkpt lat="43.01761" lon="2.25376">
        <ele>177.4</ele>
        <time>2021-10-09T03:43:18Z</time>
      </trkpt>
      <trkpt lat="43.01749" lon="2.25416">
        <ele>177.4</ele>
        <time>2021-10-09T03:43:23Z</time>
      </trkpt>
      <trkpt lat="43.01743" lon="2.25433">
        <ele>177.6</ele>
        <time>2021-10-09T03:43:25Z</time>
      </trkpt>
      <trkpt lat="43.01719" lon="2.25487">
        <ele>178.2</ele>
        <time>2021-10-09T03:43:32Z</time>
      </trkpt>
      <trkpt lat="43.01691" lon="2.25524">
        <ele>178.6</ele>
        <time>2021-10-09T03:43:38Z</time>
      </trkpt>
      <trkpt lat="43.01658" lon="2.25554">
        <ele>179.6</ele>
        <time>2021-10-09T03:43:44Z</time>
      </trkpt>
      <trkpt lat="43.01618" lon="2.25585">
        <ele>180.2</ele>
        <time>2021-10-09T03:43:51Z</time>
      </trkpt>
      <trkpt lat="43.01571" lon="2.25616">
        <ele>180.8</ele>
        <time>2021-10-09T03:43:59Z</time>
      </trkpt>
      <trkpt lat="43.01521" lon="2.25638">
        <ele>181.2</ele>
        <time>2021-10-09T03:44:07Z</time>
      </trkpt>
      <trkpt lat="43.01483" lon="2.25647">
        <ele>181.6</ele>
        <time>2021-10-09T03:44:13Z</time>
      </trkpt>
      <trkpt lat="43.01437" lon="2.25644">
        <ele>181.8</ele>
        <time>2021-10-09T03:44:20Z</time>
      </trkpt>
      <trkpt lat="43.014" lon="2.25635">
        <ele>182.2</ele>
        <time>2021-10-09T03:44:26Z</time>
      </trkpt>
      <trkpt lat="43.01367" lon="2.25613">
        <ele>182.4</ele>
        <time>2021-10-09T03:44:32Z</time>
      </trkpt>
      <trkpt lat="43.01339" lon="2.25584">
        <ele>182.4</ele>
        <time>2021-10-09T03:44:38Z</time>
      </trkpt>
      <trkpt lat="43.01329" lon="2.25567">
        <ele>182.6</ele>
        <time>2021-10-09T03:44:41Z</time>
      </trkpt>
      <trkpt lat="43.0132" lon="2.25548">
        <ele>182.8</ele>
        <time>2021-10-09T03:44:44Z</time>
      </trkpt>
      <trkpt lat="43.01301" lon="2.25512">
        <ele>183.4</ele>
        <time>2021-10-09T03:44:50Z</time>
      </trkpt>
      <trkpt lat="43.01285" lon="2.25473">
        <ele>184</ele>
        <time>2021-10-09T03:44:56Z</time>
      </trkpt>
      <trkpt lat="43.0127" lon="2.25432">
        <ele>184.6</ele>
        <time>2021-10-09T03:45:02Z</time>
      </trkpt>
      <trkpt lat="43.01255" lon="2.25379">
        <ele>185.4</ele>
        <time>2021-10-09T03:45:09Z</time>
      </trkpt>
      <trkpt lat="43.0124" lon="2.25323">
        <ele>186</ele>
        <time>2021-10-09T03:45:16Z</time>
      </trkpt>
      <trkpt lat="43.01224" lon="2.25246">
        <ele>187</ele>
        <time>2021-10-09T03:45:25Z</time>
      </trkpt>
      <trkpt lat="43.01214" lon="2.25183">
        <ele>187.2</ele>
        <time>2021-10-09T03:45:32Z</time>
      </trkpt>
      <trkpt lat="43.01212" lon="2.25136">
        <ele>187.4</ele>
        <time>2021-10-09T03:45:37Z</time>
      </trkpt>
      <trkpt lat="43.0121" lon="2.25066">
        <ele>188.2</ele>
        <time>2021-10-09T03:45:45Z</time>
      </trkpt>
      <trkpt lat="43.01209" lon="2.25058">
        <ele>188.4</ele>
        <time>2021-10-09T03:45:46Z</time>
      </trkpt>
      <trkpt lat="43.01199" lon="2.25025">
        <ele>188.8</ele>
        <time>2021-10-09T03:45:50Z</time>
      </trkpt>
      <trkpt lat="43.01172" lon="2.24976">
        <ele>189.2</ele>
        <time>2021-10-09T03:45:57Z</time>
      </trkpt>
      <trkpt lat="43.01154" lon="2.24955">
        <ele>189.6</ele>
        <time>2021-10-09T03:46:01Z</time>
      </trkpt>
      <trkpt lat="43.01145" lon="2.24946">
        <ele>189.8</ele>
        <time>2021-10-09T03:46:03Z</time>
      </trkpt>
      <trkpt lat="43.01117" lon="2.24925">
        <ele>190.4</ele>
        <time>2021-10-09T03:46:09Z</time>
      </trkpt>
      <trkpt lat="43.01107" lon="2.24919">
        <ele>190.6</ele>
        <time>2021-10-09T03:46:11Z</time>
      </trkpt>
      <trkpt lat="43.01092" lon="2.24911">
        <ele>190.8</ele>
        <time>2021-10-09T03:46:14Z</time>
      </trkpt>
      <trkpt lat="43.0105" lon="2.24892">
        <ele>191.2</ele>
        <time>2021-10-09T03:46:22Z</time>
      </trkpt>
      <trkpt lat="43.01016" lon="2.24882">
        <ele>191.6</ele>
        <time>2021-10-09T03:46:28Z</time>
      </trkpt>
      <trkpt lat="43.00978" lon="2.24884">
        <ele>191.8</ele>
        <time>2021-10-09T03:46:34Z</time>
      </trkpt>
      <trkpt lat="43.00928" lon="2.24887">
        <ele>192</ele>
        <time>2021-10-09T03:46:41Z</time>
      </trkpt>
      <trkpt lat="43.00886" lon="2.24879">
        <ele>192.2</ele>
        <time>2021-10-09T03:46:47Z</time>
      </trkpt>
      <trkpt lat="43.00841" lon="2.24857">
        <ele>192.4</ele>
        <time>2021-10-09T03:46:54Z</time>
      </trkpt>
      <trkpt lat="43.00804" lon="2.24829">
        <ele>192.6</ele>
        <time>2021-10-09T03:47:01Z</time>
      </trkpt>
      <trkpt lat="43.00757" lon="2.24792">
        <ele>192.8</ele>
        <time>2021-10-09T03:47:10Z</time>
      </trkpt>
      <trkpt lat="43.00722" lon="2.24773">
        <ele>192.6</ele>
        <time>2021-10-09T03:47:16Z</time>
      </trkpt>
      <trkpt lat="43.00703" lon="2.24771">
        <ele>192.4</ele>
        <time>2021-10-09T03:47:19Z</time>
      </trkpt>
      <trkpt lat="43.0069" lon="2.24774">
        <ele>192.4</ele>
        <time>2021-10-09T03:47:21Z</time>
      </trkpt>
      <trkpt lat="43.00684" lon="2.24777">
        <ele>192.2</ele>
        <time>2021-10-09T03:47:22Z</time>
      </trkpt>
      <trkpt lat="43.0066" lon="2.24794">
        <ele>192</ele>
        <time>2021-10-09T03:47:26Z</time>
      </trkpt>
      <trkpt lat="43.00633" lon="2.24822">
        <ele>191.6</ele>
        <time>2021-10-09T03:47:31Z</time>
      </trkpt>
      <trkpt lat="43.00604" lon="2.24864">
        <ele>191.2</ele>
        <time>2021-10-09T03:47:37Z</time>
      </trkpt>
      <trkpt lat="43.00565" lon="2.24917">
        <ele>191</ele>
        <time>2021-10-09T03:47:45Z</time>
      </trkpt>
      <trkpt lat="43.0056" lon="2.24921">
        <ele>191</ele>
        <time>2021-10-09T03:47:46Z</time>
      </trkpt>
      <trkpt lat="43.00542" lon="2.24932">
        <ele>191</ele>
        <time>2021-10-09T03:47:49Z</time>
      </trkpt>
      <trkpt lat="43.00529" lon="2.24935">
        <ele>191.2</ele>
        <time>2021-10-09T03:47:51Z</time>
      </trkpt>
      <trkpt lat="43.0051" lon="2.24935">
        <ele>191</ele>
        <time>2021-10-09T03:47:54Z</time>
      </trkpt>
      <trkpt lat="43.00473" lon="2.24922">
        <ele>191</ele>
        <time>2021-10-09T03:48:00Z</time>
      </trkpt>
      <trkpt lat="43.00421" lon="2.24893">
        <ele>190.8</ele>
        <time>2021-10-09T03:48:09Z</time>
      </trkpt>
      <trkpt lat="43.00371" lon="2.24861">
        <ele>190.8</ele>
        <time>2021-10-09T03:48:18Z</time>
      </trkpt>
      <trkpt lat="43.00348" lon="2.24853">
        <ele>190.4</ele>
        <time>2021-10-09T03:48:22Z</time>
      </trkpt>
      <trkpt lat="43.00335" lon="2.24851">
        <ele>190.4</ele>
        <time>2021-10-09T03:48:24Z</time>
      </trkpt>
      <trkpt lat="43.00323" lon="2.24849">
        <ele>190.2</ele>
        <time>2021-10-09T03:48:26Z</time>
      </trkpt>
      <trkpt lat="43.00299" lon="2.24848">
        <ele>190</ele>
        <time>2021-10-09T03:48:30Z</time>
      </trkpt>
      <trkpt lat="43.0025" lon="2.24853">
        <ele>190</ele>
        <time>2021-10-09T03:48:38Z</time>
      </trkpt>
      <trkpt lat="43.00226" lon="2.2486">
        <ele>189.8</ele>
        <time>2021-10-09T03:48:42Z</time>
      </trkpt>
      <trkpt lat="43.00214" lon="2.24867">
        <ele>189.8</ele>
        <time>2021-10-09T03:48:44Z</time>
      </trkpt>
      <trkpt lat="43.00174" lon="2.24905">
        <ele>190</ele>
        <time>2021-10-09T03:48:51Z</time>
      </trkpt>
      <trkpt lat="43.00133" lon="2.24933">
        <ele>190.2</ele>
        <time>2021-10-09T03:48:58Z</time>
      </trkpt>
      <trkpt lat="43.0008" lon="2.2496">
        <ele>190.8</ele>
        <time>2021-10-09T03:49:07Z</time>
      </trkpt>
      <trkpt lat="43.0003" lon="2.24987">
        <ele>191.4</ele>
        <time>2021-10-09T03:49:16Z</time>
      </trkpt>
      <trkpt lat="43.00025" lon="2.2499">
        <ele>191.6</ele>
        <time>2021-10-09T03:49:17Z</time>
      </trkpt>
      <trkpt lat="43.00015" lon="2.24997">
        <ele>191.8</ele>
        <time>2021-10-09T03:49:19Z</time>
      </trkpt>
      <trkpt lat="43.0001" lon="2.25">
        <ele>191.8</ele>
        <time>2021-10-09T03:49:20Z</time>
      </trkpt>
      <trkpt lat="42.99982" lon="2.25021">
        <ele>192.6</ele>
        <time>2021-10-09T03:49:26Z</time>
      </trkpt>
      <trkpt lat="42.99973" lon="2.25029">
        <ele>192.6</ele>
        <time>2021-10-09T03:49:28Z</time>
      </trkpt>
      <trkpt lat="42.99963" lon="2.25037">
        <ele>192.8</ele>
        <time>2021-10-09T03:49:30Z</time>
      </trkpt>
      <trkpt lat="42.99953" lon="2.25045">
        <ele>193</ele>
        <time>2021-10-09T03:49:32Z</time>
      </trkpt>
      <trkpt lat="42.99936" lon="2.25058">
        <ele>193.2</ele>
        <time>2021-10-09T03:49:35Z</time>
      </trkpt>
      <trkpt lat="42.99905" lon="2.25088">
        <ele>194.2</ele>
        <time>2021-10-09T03:49:41Z</time>
      </trkpt>
      <trkpt lat="42.99885" lon="2.2511">
        <ele>194.8</ele>
        <time>2021-10-09T03:49:45Z</time>
      </trkpt>
      <trkpt lat="42.99863" lon="2.2514">
        <ele>195.4</ele>
        <time>2021-10-09T03:49:50Z</time>
      </trkpt>
      <trkpt lat="42.99824" lon="2.2519">
        <ele>196.6</ele>
        <time>2021-10-09T03:49:58Z</time>
      </trkpt>
      <trkpt lat="42.99792" lon="2.2522">
        <ele>197.6</ele>
        <time>2021-10-09T03:50:04Z</time>
      </trkpt>
      <trkpt lat="42.99787" lon="2.25225">
        <ele>197.8</ele>
        <time>2021-10-09T03:50:05Z</time>
      </trkpt>
      <trkpt lat="42.99763" lon="2.25239">
        <ele>198.4</ele>
        <time>2021-10-09T03:50:09Z</time>
      </trkpt>
      <trkpt lat="42.99757" lon="2.25241">
        <ele>198.6</ele>
        <time>2021-10-09T03:50:10Z</time>
      </trkpt>
      <trkpt lat="42.99732" lon="2.25247">
        <ele>199</ele>
        <time>2021-10-09T03:50:14Z</time>
      </trkpt>
      <trkpt lat="42.997" lon="2.25256">
        <ele>199.6</ele>
        <time>2021-10-09T03:50:19Z</time>
      </trkpt>
      <trkpt lat="42.99645" lon="2.25279">
        <ele>200.2</ele>
        <time>2021-10-09T03:50:28Z</time>
      </trkpt>
      <trkpt lat="42.99639" lon="2.25282">
        <ele>200.2</ele>
        <time>2021-10-09T03:50:29Z</time>
      </trkpt>
      <trkpt lat="42.99584" lon="2.25312">
        <ele>200.8</ele>
        <time>2021-10-09T03:50:38Z</time>
      </trkpt>
      <trkpt lat="42.99531" lon="2.25346">
        <ele>201.2</ele>
        <time>2021-10-09T03:50:47Z</time>
      </trkpt>
      <trkpt lat="42.99525" lon="2.25351">
        <ele>201.2</ele>
        <time>2021-10-09T03:50:48Z</time>
      </trkpt>
      <trkpt lat="42.99479" lon="2.254">
        <ele>201.4</ele>
        <time>2021-10-09T03:50:57Z</time>
      </trkpt>
      <trkpt lat="42.99447" lon="2.25448">
        <ele>201.4</ele>
        <time>2021-10-09T03:51:04Z</time>
      </trkpt>
      <trkpt lat="42.99412" lon="2.25512">
        <ele>201.4</ele>
        <time>2021-10-09T03:51:13Z</time>
      </trkpt>
      <trkpt lat="42.99408" lon="2.25519">
        <ele>201.6</ele>
        <time>2021-10-09T03:51:14Z</time>
      </trkpt>
      <trkpt lat="42.99374" lon="2.25584">
        <ele>201.8</ele>
        <time>2021-10-09T03:51:23Z</time>
      </trkpt>
      <trkpt lat="42.99355" lon="2.25621">
        <ele>201.8</ele>
        <time>2021-10-09T03:51:28Z</time>
      </trkpt>
      <trkpt lat="42.99316" lon="2.25684">
        <ele>202.2</ele>
        <time>2021-10-09T03:51:37Z</time>
      </trkpt>
      <trkpt lat="42.99271" lon="2.25737">
        <ele>202.6</ele>
        <time>2021-10-09T03:51:46Z</time>
      </trkpt>
      <trkpt lat="42.99261" lon="2.25748">
        <ele>202.6</ele>
        <time>2021-10-09T03:51:48Z</time>
      </trkpt>
      <trkpt lat="42.99221" lon="2.25791">
        <ele>202.8</ele>
        <time>2021-10-09T03:51:56Z</time>
      </trkpt>
      <trkpt lat="42.99191" lon="2.25823">
        <ele>203</ele>
        <time>2021-10-09T03:52:02Z</time>
      </trkpt>
      <trkpt lat="42.99151" lon="2.25866">
        <ele>203</ele>
        <time>2021-10-09T03:52:10Z</time>
      </trkpt>
      <trkpt lat="42.99111" lon="2.25909">
        <ele>203</ele>
        <time>2021-10-09T03:52:18Z</time>
      </trkpt>
      <trkpt lat="42.99065" lon="2.25956">
        <ele>202.8</ele>
        <time>2021-10-09T03:52:27Z</time>
      </trkpt>
      <trkpt lat="42.9906" lon="2.25961">
        <ele>202.8</ele>
        <time>2021-10-09T03:52:28Z</time>
      </trkpt>
      <trkpt lat="42.9903" lon="2.25995">
        <ele>202.8</ele>
        <time>2021-10-09T03:52:34Z</time>
      </trkpt>
      <trkpt lat="42.99002" lon="2.26046">
        <ele>202.6</ele>
        <time>2021-10-09T03:52:41Z</time>
      </trkpt>
      <trkpt lat="42.98977" lon="2.26111">
        <ele>202.8</ele>
        <time>2021-10-09T03:52:49Z</time>
      </trkpt>
      <trkpt lat="42.98974" lon="2.26119">
        <ele>202.8</ele>
        <time>2021-10-09T03:52:50Z</time>
      </trkpt>
      <trkpt lat="42.98945" lon="2.2618">
        <ele>202.6</ele>
        <time>2021-10-09T03:52:58Z</time>
      </trkpt>
      <trkpt lat="42.98915" lon="2.26219">
        <ele>202.6</ele>
        <time>2021-10-09T03:53:04Z</time>
      </trkpt>
      <trkpt lat="42.98877" lon="2.26247">
        <ele>202.4</ele>
        <time>2021-10-09T03:53:10Z</time>
      </trkpt>
      <trkpt lat="42.98843" lon="2.26258">
        <ele>202.4</ele>
        <time>2021-10-09T03:53:15Z</time>
      </trkpt>
      <trkpt lat="42.98803" lon="2.26259">
        <ele>202.2</ele>
        <time>2021-10-09T03:53:21Z</time>
      </trkpt>
      <trkpt lat="42.98751" lon="2.26251">
        <ele>202.4</ele>
        <time>2021-10-09T03:53:29Z</time>
      </trkpt>
      <trkpt lat="42.98694" lon="2.26243">
        <ele>202.4</ele>
        <time>2021-10-09T03:53:38Z</time>
      </trkpt>
      <trkpt lat="42.98641" lon="2.26237">
        <ele>202.4</ele>
        <time>2021-10-09T03:53:47Z</time>
      </trkpt>
      <trkpt lat="42.986" lon="2.26243">
        <ele>202</ele>
        <time>2021-10-09T03:53:54Z</time>
      </trkpt>
      <trkpt lat="42.9856" lon="2.26262">
        <ele>202</ele>
        <time>2021-10-09T03:54:01Z</time>
      </trkpt>
      <trkpt lat="42.9852" lon="2.26285">
        <ele>201.6</ele>
        <time>2021-10-09T03:54:08Z</time>
      </trkpt>
      <trkpt lat="42.98481" lon="2.26309">
        <ele>201.4</ele>
        <time>2021-10-09T03:54:15Z</time>
      </trkpt>
      <trkpt lat="42.98451" lon="2.26331">
        <ele>201.2</ele>
        <time>2021-10-09T03:54:21Z</time>
      </trkpt>
      <trkpt lat="42.98421" lon="2.26353">
        <ele>200.8</ele>
        <time>2021-10-09T03:54:27Z</time>
      </trkpt>
      <trkpt lat="42.98384" lon="2.26385">
        <ele>200.8</ele>
        <time>2021-10-09T03:54:35Z</time>
      </trkpt>
      <trkpt lat="42.98352" lon="2.26412">
        <ele>201.2</ele>
        <time>2021-10-09T03:54:42Z</time>
      </trkpt>
      <trkpt lat="42.98313" lon="2.2644">
        <ele>201.2</ele>
        <time>2021-10-09T03:54:50Z</time>
      </trkpt>
      <trkpt lat="42.98281" lon="2.26461">
        <ele>201.4</ele>
        <time>2021-10-09T03:54:56Z</time>
      </trkpt>
      <trkpt lat="42.98237" lon="2.26491">
        <ele>201.8</ele>
        <time>2021-10-09T03:55:04Z</time>
      </trkpt>
      <trkpt lat="42.98185" lon="2.26523">
        <ele>202.2</ele>
        <time>2021-10-09T03:55:13Z</time>
      </trkpt>
      <trkpt lat="42.98178" lon="2.26526">
        <ele>202.2</ele>
        <time>2021-10-09T03:55:14Z</time>
      </trkpt>
      <trkpt lat="42.9816" lon="2.26535">
        <ele>202.2</ele>
        <time>2021-10-09T03:55:17Z</time>
      </trkpt>
      <trkpt lat="42.98141" lon="2.2654">
        <ele>202.2</ele>
        <time>2021-10-09T03:55:20Z</time>
      </trkpt>
      <trkpt lat="42.98109" lon="2.26539">
        <ele>202.4</ele>
        <time>2021-10-09T03:55:25Z</time>
      </trkpt>
      <trkpt lat="42.98069" lon="2.26525">
        <ele>202.8</ele>
        <time>2021-10-09T03:55:31Z</time>
      </trkpt>
      <trkpt lat="42.98034" lon="2.26497">
        <ele>202.8</ele>
        <time>2021-10-09T03:55:37Z</time>
      </trkpt>
      <trkpt lat="42.97988" lon="2.26451">
        <ele>203.2</ele>
        <time>2021-10-09T03:55:45Z</time>
      </trkpt>
      <trkpt lat="42.97976" lon="2.26439">
        <ele>203.2</ele>
        <time>2021-10-09T03:55:47Z</time>
      </trkpt>
      <trkpt lat="42.97928" lon="2.26393">
        <ele>203.2</ele>
        <time>2021-10-09T03:55:55Z</time>
      </trkpt>
      <trkpt lat="42.9789" lon="2.2637">
        <ele>202.8</ele>
        <time>2021-10-09T03:56:01Z</time>
      </trkpt>
      <trkpt lat="42.97845" lon="2.26355">
        <ele>202.6</ele>
        <time>2021-10-09T03:56:08Z</time>
      </trkpt>
      <trkpt lat="42.97794" lon="2.26344">
        <ele>202.4</ele>
        <time>2021-10-09T03:56:16Z</time>
      </trkpt>
      <trkpt lat="42.97739" lon="2.26333">
        <ele>202.2</ele>
        <time>2021-10-09T03:56:25Z</time>
      </trkpt>
      <trkpt lat="42.97733" lon="2.26331">
        <ele>202.2</ele>
        <time>2021-10-09T03:56:26Z</time>
      </trkpt>
      <trkpt lat="42.97689" lon="2.26322">
        <ele>202.4</ele>
        <time>2021-10-09T03:56:34Z</time>
      </trkpt>
      <trkpt lat="42.97634" lon="2.2631">
        <ele>202.8</ele>
        <time>2021-10-09T03:56:44Z</time>
      </trkpt>
      <trkpt lat="42.97602" lon="2.26291">
        <ele>203.4</ele>
        <time>2021-10-09T03:56:50Z</time>
      </trkpt>
      <trkpt lat="42.9757" lon="2.26258">
        <ele>204</ele>
        <time>2021-10-09T03:56:57Z</time>
      </trkpt>
      <trkpt lat="42.97533" lon="2.26206">
        <ele>205</ele>
        <time>2021-10-09T03:57:06Z</time>
      </trkpt>
      <trkpt lat="42.97497" lon="2.26152">
        <ele>206</ele>
        <time>2021-10-09T03:57:15Z</time>
      </trkpt>
      <trkpt lat="42.97492" lon="2.26146">
        <ele>206</ele>
        <time>2021-10-09T03:57:16Z</time>
      </trkpt>
      <trkpt lat="42.97459" lon="2.2611">
        <ele>206.8</ele>
        <time>2021-10-09T03:57:23Z</time>
      </trkpt>
      <trkpt lat="42.97425" lon="2.26092">
        <ele>207.2</ele>
        <time>2021-10-09T03:57:29Z</time>
      </trkpt>
      <trkpt lat="42.97372" lon="2.26074">
        <ele>208</ele>
        <time>2021-10-09T03:57:38Z</time>
      </trkpt>
      <trkpt lat="42.9732" lon="2.26059">
        <ele>208.6</ele>
        <time>2021-10-09T03:57:47Z</time>
      </trkpt>
      <trkpt lat="42.97284" lon="2.26054">
        <ele>209</ele>
        <time>2021-10-09T03:57:53Z</time>
      </trkpt>
      <trkpt lat="42.97241" lon="2.26061">
        <ele>209.2</ele>
        <time>2021-10-09T03:58:00Z</time>
      </trkpt>
      <trkpt lat="42.9719" lon="2.26071">
        <ele>209.2</ele>
        <time>2021-10-09T03:58:08Z</time>
      </trkpt>
      <trkpt lat="42.97152" lon="2.26066">
        <ele>209.4</ele>
        <time>2021-10-09T03:58:14Z</time>
      </trkpt>
      <trkpt lat="42.97116" lon="2.26049">
        <ele>209.6</ele>
        <time>2021-10-09T03:58:20Z</time>
      </trkpt>
      <trkpt lat="42.97084" lon="2.26022">
        <ele>209.8</ele>
        <time>2021-10-09T03:58:26Z</time>
      </trkpt>
      <trkpt lat="42.97048" lon="2.25976">
        <ele>210.4</ele>
        <time>2021-10-09T03:58:34Z</time>
      </trkpt>
      <trkpt lat="42.97019" lon="2.25949">
        <ele>210.6</ele>
        <time>2021-10-09T03:58:40Z</time>
      </trkpt>
      <trkpt lat="42.96983" lon="2.25937">
        <ele>210.8</ele>
        <time>2021-10-09T03:58:46Z</time>
      </trkpt>
      <trkpt lat="42.96947" lon="2.25943">
        <ele>210.6</ele>
        <time>2021-10-09T03:58:52Z</time>
      </trkpt>
      <trkpt lat="42.96907" lon="2.25963">
        <ele>209.8</ele>
        <time>2021-10-09T03:58:59Z</time>
      </trkpt>
      <trkpt lat="42.96878" lon="2.2599">
        <ele>209.8</ele>
        <time>2021-10-09T03:59:05Z</time>
      </trkpt>
      <trkpt lat="42.96849" lon="2.26034">
        <ele>209.6</ele>
        <time>2021-10-09T03:59:12Z</time>
      </trkpt>
      <trkpt lat="42.96821" lon="2.26067">
        <ele>209.6</ele>
        <time>2021-10-09T03:59:18Z</time>
      </trkpt>
      <trkpt lat="42.96815" lon="2.26071">
        <ele>209.4</ele>
        <time>2021-10-09T03:59:19Z</time>
      </trkpt>
      <trkpt lat="42.96803" lon="2.26076">
        <ele>209.4</ele>
        <time>2021-10-09T03:59:21Z</time>
      </trkpt>
      <trkpt lat="42.96798" lon="2.26079">
        <ele>209.2</ele>
        <time>2021-10-09T03:59:22Z</time>
      </trkpt>
      <trkpt lat="42.96791" lon="2.26081">
        <ele>209.2</ele>
        <time>2021-10-09T03:59:23Z</time>
      </trkpt>
      <trkpt lat="42.96773" lon="2.26082">
        <ele>209.2</ele>
        <time>2021-10-09T03:59:26Z</time>
      </trkpt>
      <trkpt lat="42.9676" lon="2.26079">
        <ele>209.4</ele>
        <time>2021-10-09T03:59:28Z</time>
      </trkpt>
      <trkpt lat="42.96747" lon="2.26072">
        <ele>209.4</ele>
        <time>2021-10-09T03:59:30Z</time>
      </trkpt>
      <trkpt lat="42.96737" lon="2.26063">
        <ele>210</ele>
        <time>2021-10-09T03:59:32Z</time>
      </trkpt>
      <trkpt lat="42.96723" lon="2.26046">
        <ele>210.4</ele>
        <time>2021-10-09T03:59:35Z</time>
      </trkpt>
      <trkpt lat="42.967" lon="2.25998">
        <ele>211</ele>
        <time>2021-10-09T03:59:42Z</time>
      </trkpt>
      <trkpt lat="42.96683" lon="2.25964">
        <ele>211.4</ele>
        <time>2021-10-09T03:59:47Z</time>
      </trkpt>
      <trkpt lat="42.96675" lon="2.25952">
        <ele>211.6</ele>
        <time>2021-10-09T03:59:49Z</time>
      </trkpt>
      <trkpt lat="42.96645" lon="2.25925">
        <ele>212</ele>
        <time>2021-10-09T03:59:55Z</time>
      </trkpt>
      <trkpt lat="42.96594" lon="2.25895">
        <ele>212.8</ele>
        <time>2021-10-09T04:00:04Z</time>
      </trkpt>
      <trkpt lat="42.96547" lon="2.25868">
        <ele>213.2</ele>
        <time>2021-10-09T04:00:12Z</time>
      </trkpt>
      <trkpt lat="42.96507" lon="2.25844">
        <ele>213.6</ele>
        <time>2021-10-09T04:00:19Z</time>
      </trkpt>
      <trkpt lat="42.96467" lon="2.25819">
        <ele>214</ele>
        <time>2021-10-09T04:00:26Z</time>
      </trkpt>
      <trkpt lat="42.96433" lon="2.25783">
        <ele>214.4</ele>
        <time>2021-10-09T04:00:33Z</time>
      </trkpt>
      <trkpt lat="42.96406" lon="2.25745">
        <ele>215</ele>
        <time>2021-10-09T04:00:40Z</time>
      </trkpt>
      <trkpt lat="42.96375" lon="2.25713">
        <ele>215.6</ele>
        <time>2021-10-09T04:00:47Z</time>
      </trkpt>
      <trkpt lat="42.96338" lon="2.25694">
        <ele>216</ele>
        <time>2021-10-09T04:00:54Z</time>
      </trkpt>
      <trkpt lat="42.96298" lon="2.25684">
        <ele>216.2</ele>
        <time>2021-10-09T04:01:01Z</time>
      </trkpt>
      <trkpt lat="42.96245" lon="2.25671">
        <ele>216.4</ele>
        <time>2021-10-09T04:01:10Z</time>
      </trkpt>
      <trkpt lat="42.96186" lon="2.25657">
        <ele>216.6</ele>
        <time>2021-10-09T04:01:20Z</time>
      </trkpt>
      <trkpt lat="42.96134" lon="2.25645">
        <ele>216.8</ele>
        <time>2021-10-09T04:01:29Z</time>
      </trkpt>
      <trkpt lat="42.96087" lon="2.25642">
        <ele>216.8</ele>
        <time>2021-10-09T04:01:37Z</time>
      </trkpt>
      <trkpt lat="42.96048" lon="2.25652">
        <ele>217</ele>
        <time>2021-10-09T04:01:44Z</time>
      </trkpt>
      <trkpt lat="42.96009" lon="2.25673">
        <ele>216.8</ele>
        <time>2021-10-09T04:01:51Z</time>
      </trkpt>
      <trkpt lat="42.95975" lon="2.25708">
        <ele>216.8</ele>
        <time>2021-10-09T04:01:58Z</time>
      </trkpt>
      <trkpt lat="42.95951" lon="2.25746">
        <ele>217.2</ele>
        <time>2021-10-09T04:02:04Z</time>
      </trkpt>
      <trkpt lat="42.9593" lon="2.25797">
        <ele>217.2</ele>
        <time>2021-10-09T04:02:11Z</time>
      </trkpt>
      <trkpt lat="42.9591" lon="2.25861">
        <ele>217.4</ele>
        <time>2021-10-09T04:02:19Z</time>
      </trkpt>
      <trkpt lat="42.95889" lon="2.25925">
        <ele>217.6</ele>
        <time>2021-10-09T04:02:27Z</time>
      </trkpt>
      <trkpt lat="42.95865" lon="2.25966">
        <ele>217.8</ele>
        <time>2021-10-09T04:02:33Z</time>
      </trkpt>
      <trkpt lat="42.95847" lon="2.25989">
        <ele>217.8</ele>
        <time>2021-10-09T04:02:37Z</time>
      </trkpt>
      <trkpt lat="42.95836" lon="2.25999">
        <ele>218</ele>
        <time>2021-10-09T04:02:39Z</time>
      </trkpt>
      <trkpt lat="42.95802" lon="2.26021">
        <ele>218</ele>
        <time>2021-10-09T04:02:45Z</time>
      </trkpt>
      <trkpt lat="42.95765" lon="2.26028">
        <ele>218</ele>
        <time>2021-10-09T04:02:51Z</time>
      </trkpt>
      <trkpt lat="42.95726" lon="2.26023">
        <ele>218</ele>
        <time>2021-10-09T04:02:57Z</time>
      </trkpt>
      <trkpt lat="42.9569" lon="2.26004">
        <ele>218</ele>
        <time>2021-10-09T04:03:03Z</time>
      </trkpt>
      <trkpt lat="42.95658" lon="2.25973">
        <ele>218.2</ele>
        <time>2021-10-09T04:03:09Z</time>
      </trkpt>
      <trkpt lat="42.9563" lon="2.25926">
        <ele>218.6</ele>
        <time>2021-10-09T04:03:16Z</time>
      </trkpt>
      <trkpt lat="42.95609" lon="2.25872">
        <ele>218.6</ele>
        <time>2021-10-09T04:03:23Z</time>
      </trkpt>
      <trkpt lat="42.95589" lon="2.2582">
        <ele>218.6</ele>
        <time>2021-10-09T04:03:30Z</time>
      </trkpt>
      <trkpt lat="42.95572" lon="2.25778">
        <ele>218.8</ele>
        <time>2021-10-09T04:03:36Z</time>
      </trkpt>
      <trkpt lat="42.9555" lon="2.25721">
        <ele>219</ele>
        <time>2021-10-09T04:03:43Z</time>
      </trkpt>
      <trkpt lat="42.95522" lon="2.25652">
        <ele>219</ele>
        <time>2021-10-09T04:03:52Z</time>
      </trkpt>
      <trkpt lat="42.95519" lon="2.25644">
        <ele>219</ele>
        <time>2021-10-09T04:03:53Z</time>
      </trkpt>
      <trkpt lat="42.95492" lon="2.25585">
        <ele>219.2</ele>
        <time>2021-10-09T04:04:01Z</time>
      </trkpt>
      <trkpt lat="42.95476" lon="2.25549">
        <ele>219.4</ele>
        <time>2021-10-09T04:04:06Z</time>
      </trkpt>
      <trkpt lat="42.95472" lon="2.25543">
        <ele>219.4</ele>
        <time>2021-10-09T04:04:07Z</time>
      </trkpt>
      <trkpt lat="42.95456" lon="2.2552">
        <ele>219.4</ele>
        <time>2021-10-09T04:04:11Z</time>
      </trkpt>
      <trkpt lat="42.95432" lon="2.25493">
        <ele>219.2</ele>
        <time>2021-10-09T04:04:16Z</time>
      </trkpt>
      <trkpt lat="42.95403" lon="2.25465">
        <ele>219.4</ele>
        <time>2021-10-09T04:04:22Z</time>
      </trkpt>
      <trkpt lat="42.95383" lon="2.25446">
        <ele>219.2</ele>
        <time>2021-10-09T04:04:26Z</time>
      </trkpt>
      <trkpt lat="42.95374" lon="2.25436">
        <ele>219</ele>
        <time>2021-10-09T04:04:28Z</time>
      </trkpt>
      <trkpt lat="42.95346" lon="2.25408">
        <ele>218.6</ele>
        <time>2021-10-09T04:04:34Z</time>
      </trkpt>
      <trkpt lat="42.95311" lon="2.2538">
        <ele>218.4</ele>
        <time>2021-10-09T04:04:41Z</time>
      </trkpt>
      <trkpt lat="42.95269" lon="2.25353">
        <ele>218.2</ele>
        <time>2021-10-09T04:04:49Z</time>
      </trkpt>
      <trkpt lat="42.95227" lon="2.25344">
        <ele>217.8</ele>
        <time>2021-10-09T04:04:56Z</time>
      </trkpt>
      <trkpt lat="42.95221" lon="2.25344">
        <ele>217.8</ele>
        <time>2021-10-09T04:04:57Z</time>
      </trkpt>
      <trkpt lat="42.95196" lon="2.25343">
        <ele>217.8</ele>
        <time>2021-10-09T04:05:01Z</time>
      </trkpt>
      <trkpt lat="42.95153" lon="2.25344">
        <ele>217.6</ele>
        <time>2021-10-09T04:05:08Z</time>
      </trkpt>
      <trkpt lat="42.95097" lon="2.25345">
        <ele>217</ele>
        <time>2021-10-09T04:05:17Z</time>
      </trkpt>
      <trkpt lat="42.95086" lon="2.25345">
        <ele>216.8</ele>
        <time>2021-10-09T04:05:19Z</time>
      </trkpt>
      <trkpt lat="42.95051" lon="2.25345">
        <ele>216.2</ele>
        <time>2021-10-09T04:05:25Z</time>
      </trkpt>
      <trkpt lat="42.94997" lon="2.25346">
        <ele>215</ele>
        <time>2021-10-09T04:05:34Z</time>
      </trkpt>
      <trkpt lat="42.94961" lon="2.25346">
        <ele>214.6</ele>
        <time>2021-10-09T04:05:40Z</time>
      </trkpt>
      <trkpt lat="42.94922" lon="2.25346">
        <ele>214.4</ele>
        <time>2021-10-09T04:05:46Z</time>
      </trkpt>
      <trkpt lat="42.94878" lon="2.25345">
        <ele>213.6</ele>
        <time>2021-10-09T04:05:53Z</time>
      </trkpt>
      <trkpt lat="42.94834" lon="2.25344">
        <ele>213</ele>
        <time>2021-10-09T04:06:00Z</time>
      </trkpt>
      <trkpt lat="42.94809" lon="2.25347">
        <ele>213</ele>
        <time>2021-10-09T04:06:04Z</time>
      </trkpt>
      <trkpt lat="42.94791" lon="2.25352">
        <ele>213</ele>
        <time>2021-10-09T04:06:07Z</time>
      </trkpt>
      <trkpt lat="42.94752" lon="2.25364">
        <ele>212.8</ele>
        <time>2021-10-09T04:06:14Z</time>
      </trkpt>
      <trkpt lat="42.94723" lon="2.2538">
        <ele>213</ele>
        <time>2021-10-09T04:06:20Z</time>
      </trkpt>
      <trkpt lat="42.94718" lon="2.25383">
        <ele>213</ele>
        <time>2021-10-09T04:06:21Z</time>
      </trkpt>
      <trkpt lat="42.94694" lon="2.25398">
        <ele>212.8</ele>
        <time>2021-10-09T04:06:26Z</time>
      </trkpt>
      <trkpt lat="42.94689" lon="2.25402">
        <ele>212.8</ele>
        <time>2021-10-09T04:06:27Z</time>
      </trkpt>
      <trkpt lat="42.94665" lon="2.25421">
        <ele>212.8</ele>
        <time>2021-10-09T04:06:32Z</time>
      </trkpt>
      <trkpt lat="42.94633" lon="2.2545">
        <ele>213</ele>
        <time>2021-10-09T04:06:39Z</time>
      </trkpt>
      <trkpt lat="42.94615" lon="2.25468">
        <ele>213</ele>
        <time>2021-10-09T04:06:43Z</time>
      </trkpt>
      <trkpt lat="42.94606" lon="2.25476">
        <ele>213.2</ele>
        <time>2021-10-09T04:06:45Z</time>
      </trkpt>
      <trkpt lat="42.94576" lon="2.25506">
        <ele>213.4</ele>
        <time>2021-10-09T04:06:52Z</time>
      </trkpt>
      <trkpt lat="42.94548" lon="2.25534">
        <ele>213.8</ele>
        <time>2021-10-09T04:06:59Z</time>
      </trkpt>
      <trkpt lat="42.94517" lon="2.25564">
        <ele>214.2</ele>
        <time>2021-10-09T04:07:06Z</time>
      </trkpt>
      <trkpt lat="42.94476" lon="2.25603">
        <ele>214.6</ele>
        <time>2021-10-09T04:07:14Z</time>
      </trkpt>
      <trkpt lat="42.94452" lon="2.25621">
        <ele>214.8</ele>
        <time>2021-10-09T04:07:18Z</time>
      </trkpt>
      <trkpt lat="42.94438" lon="2.25627">
        <ele>214.8</ele>
        <time>2021-10-09T04:07:20Z</time>
      </trkpt>
      <trkpt lat="42.94403" lon="2.25635">
        <ele>215.2</ele>
        <time>2021-10-09T04:07:25Z</time>
      </trkpt>
      <trkpt lat="42.94375" lon="2.25625">
        <ele>215.4</ele>
        <time>2021-10-09T04:07:29Z</time>
      </trkpt>
      <trkpt lat="42.9435" lon="2.25611">
        <ele>215.6</ele>
        <time>2021-10-09T04:07:33Z</time>
      </trkpt>
      <trkpt lat="42.94344" lon="2.25605">
        <ele>215.8</ele>
        <time>2021-10-09T04:07:34Z</time>
      </trkpt>
      <trkpt lat="42.9431" lon="2.25562">
        <ele>217.2</ele>
        <time>2021-10-09T04:07:41Z</time>
      </trkpt>
      <trkpt lat="42.94266" lon="2.25506">
        <ele>218</ele>
        <time>2021-10-09T04:07:50Z</time>
      </trkpt>
      <trkpt lat="42.94261" lon="2.255">
        <ele>218.2</ele>
        <time>2021-10-09T04:07:51Z</time>
      </trkpt>
      <trkpt lat="42.94229" lon="2.25458">
        <ele>219</ele>
        <time>2021-10-09T04:07:58Z</time>
      </trkpt>
      <trkpt lat="42.94187" lon="2.25402">
        <ele>220.2</ele>
        <time>2021-10-09T04:08:07Z</time>
      </trkpt>
      <trkpt lat="42.94152" lon="2.25359">
        <ele>220.6</ele>
        <time>2021-10-09T04:08:14Z</time>
      </trkpt>
      <trkpt lat="42.94124" lon="2.25321">
        <ele>221.4</ele>
        <time>2021-10-09T04:08:20Z</time>
      </trkpt>
      <trkpt lat="42.94087" lon="2.25272">
        <ele>222.6</ele>
        <time>2021-10-09T04:08:28Z</time>
      </trkpt>
      <trkpt lat="42.94061" lon="2.25225">
        <ele>223.6</ele>
        <time>2021-10-09T04:08:35Z</time>
      </trkpt>
      <trkpt lat="42.94053" lon="2.25204">
        <ele>224</ele>
        <time>2021-10-09T04:08:38Z</time>
      </trkpt>
      <trkpt lat="42.94049" lon="2.25188">
        <ele>224.2</ele>
        <time>2021-10-09T04:08:40Z</time>
      </trkpt>
      <trkpt lat="42.94048" lon="2.2518">
        <ele>224.4</ele>
        <time>2021-10-09T04:08:41Z</time>
      </trkpt>
      <trkpt lat="42.94045" lon="2.25164">
        <ele>224.6</ele>
        <time>2021-10-09T04:08:43Z</time>
      </trkpt>
      <trkpt lat="42.94038" lon="2.25131">
        <ele>225</ele>
        <time>2021-10-09T04:08:47Z</time>
      </trkpt>
      <trkpt lat="42.94026" lon="2.25065">
        <ele>225.8</ele>
        <time>2021-10-09T04:08:55Z</time>
      </trkpt>
      <trkpt lat="42.94013" lon="2.24997">
        <ele>226.4</ele>
        <time>2021-10-09T04:09:03Z</time>
      </trkpt>
      <trkpt lat="42.94003" lon="2.24937">
        <ele>226.6</ele>
        <time>2021-10-09T04:09:10Z</time>
      </trkpt>
      <trkpt lat="42.9399" lon="2.24871">
        <ele>226.8</ele>
        <time>2021-10-09T04:09:18Z</time>
      </trkpt>
      <trkpt lat="42.93976" lon="2.24796">
        <ele>227</ele>
        <time>2021-10-09T04:09:27Z</time>
      </trkpt>
      <trkpt lat="42.93962" lon="2.24719">
        <ele>227</ele>
        <time>2021-10-09T04:09:36Z</time>
      </trkpt>
      <trkpt lat="42.93951" lon="2.24659">
        <ele>226.6</ele>
        <time>2021-10-09T04:09:43Z</time>
      </trkpt>
      <trkpt lat="42.9394" lon="2.246">
        <ele>226.8</ele>
        <time>2021-10-09T04:09:50Z</time>
      </trkpt>
      <trkpt lat="42.93927" lon="2.24522">
        <ele>226.8</ele>
        <time>2021-10-09T04:09:59Z</time>
      </trkpt>
      <trkpt lat="42.93926" lon="2.24514">
        <ele>226.8</ele>
        <time>2021-10-09T04:10:00Z</time>
      </trkpt>
      <trkpt lat="42.93925" lon="2.24459">
        <ele>226.8</ele>
        <time>2021-10-09T04:10:06Z</time>
      </trkpt>
      <trkpt lat="42.93933" lon="2.24396">
        <ele>227</ele>
        <time>2021-10-09T04:10:13Z</time>
      </trkpt>
      <trkpt lat="42.93938" lon="2.24361">
        <ele>226.8</ele>
        <time>2021-10-09T04:10:17Z</time>
      </trkpt>
      <trkpt lat="42.93939" lon="2.24352">
        <ele>227</ele>
        <time>2021-10-09T04:10:18Z</time>
      </trkpt>
      <trkpt lat="42.93945" lon="2.24308">
        <ele>227</ele>
        <time>2021-10-09T04:10:23Z</time>
      </trkpt>
      <trkpt lat="42.93951" lon="2.24256">
        <ele>226.8</ele>
        <time>2021-10-09T04:10:29Z</time>
      </trkpt>
      <trkpt lat="42.93951" lon="2.24221">
        <ele>226.4</ele>
        <time>2021-10-09T04:10:33Z</time>
      </trkpt>
      <trkpt lat="42.93949" lon="2.24204">
        <ele>226.4</ele>
        <time>2021-10-09T04:10:35Z</time>
      </trkpt>
      <trkpt lat="42.93939" lon="2.24136">
        <ele>225.2</ele>
        <time>2021-10-09T04:10:43Z</time>
      </trkpt>
      <trkpt lat="42.93931" lon="2.2409">
        <ele>225</ele>
        <time>2021-10-09T04:10:48Z</time>
      </trkpt>
      <trkpt lat="42.93919" lon="2.24027">
        <ele>224.4</ele>
        <time>2021-10-09T04:10:55Z</time>
      </trkpt>
      <trkpt lat="42.93909" lon="2.23974">
        <ele>224</ele>
        <time>2021-10-09T04:11:01Z</time>
      </trkpt>
      <trkpt lat="42.93894" lon="2.23895">
        <ele>223.8</ele>
        <time>2021-10-09T04:11:10Z</time>
      </trkpt>
      <trkpt lat="42.9389" lon="2.23878">
        <ele>223.8</ele>
        <time>2021-10-09T04:11:12Z</time>
      </trkpt>
      <trkpt lat="42.93876" lon="2.23808">
        <ele>224</ele>
        <time>2021-10-09T04:11:20Z</time>
      </trkpt>
      <trkpt lat="42.93864" lon="2.23747">
        <ele>223.8</ele>
        <time>2021-10-09T04:11:27Z</time>
      </trkpt>
      <trkpt lat="42.93854" lon="2.23706">
        <ele>224</ele>
        <time>2021-10-09T04:11:32Z</time>
      </trkpt>
      <trkpt lat="42.93848" lon="2.23691">
        <ele>224.2</ele>
        <time>2021-10-09T04:11:34Z</time>
      </trkpt>
      <trkpt lat="42.93823" lon="2.23654">
        <ele>224.8</ele>
        <time>2021-10-09T04:11:40Z</time>
      </trkpt>
      <trkpt lat="42.93791" lon="2.23629">
        <ele>225.2</ele>
        <time>2021-10-09T04:11:46Z</time>
      </trkpt>
      <trkpt lat="42.9374" lon="2.23593">
        <ele>226.2</ele>
        <time>2021-10-09T04:11:55Z</time>
      </trkpt>
      <trkpt lat="42.93691" lon="2.23556">
        <ele>227</ele>
        <time>2021-10-09T04:12:04Z</time>
      </trkpt>
      <trkpt lat="42.93685" lon="2.23551">
        <ele>227</ele>
        <time>2021-10-09T04:12:05Z</time>
      </trkpt>
      <trkpt lat="42.93681" lon="2.23547">
        <ele>227.2</ele>
        <time>2021-10-09T04:12:06Z</time>
      </trkpt>
      <trkpt lat="42.93675" lon="2.23525">
        <ele>227.2</ele>
        <time>2021-10-09T04:12:08Z</time>
      </trkpt>
      <trkpt lat="42.93669" lon="2.23521">
        <ele>227.4</ele>
        <time>2021-10-09T04:12:09Z</time>
      </trkpt>
      <trkpt lat="42.93661" lon="2.23521">
        <ele>227.4</ele>
        <time>2021-10-09T04:12:10Z</time>
      </trkpt>
      <trkpt lat="42.93649" lon="2.23528">
        <ele>227.6</ele>
        <time>2021-10-09T04:12:12Z</time>
      </trkpt>
      <trkpt lat="42.93643" lon="2.23528">
        <ele>227.6</ele>
        <time>2021-10-09T04:12:13Z</time>
      </trkpt>
      <trkpt lat="42.9362" lon="2.23524">
        <ele>227.8</ele>
        <time>2021-10-09T04:12:17Z</time>
      </trkpt>
      <trkpt lat="42.9357" lon="2.23507">
        <ele>228.6</ele>
        <time>2021-10-09T04:12:26Z</time>
      </trkpt>
      <trkpt lat="42.93527" lon="2.23492">
        <ele>229.4</ele>
        <time>2021-10-09T04:12:34Z</time>
      </trkpt>
      <trkpt lat="42.93491" lon="2.23477">
        <ele>229.8</ele>
        <time>2021-10-09T04:12:40Z</time>
      </trkpt>
      <trkpt lat="42.93442" lon="2.23452">
        <ele>230.2</ele>
        <time>2021-10-09T04:12:48Z</time>
      </trkpt>
      <trkpt lat="42.93404" lon="2.23422">
        <ele>230.6</ele>
        <time>2021-10-09T04:12:55Z</time>
      </trkpt>
      <trkpt lat="42.93368" lon="2.23374">
        <ele>231</ele>
        <time>2021-10-09T04:13:03Z</time>
      </trkpt>
      <trkpt lat="42.93343" lon="2.23323">
        <ele>231.4</ele>
        <time>2021-10-09T04:13:10Z</time>
      </trkpt>
      <trkpt lat="42.93317" lon="2.23266">
        <ele>231.6</ele>
        <time>2021-10-09T04:13:18Z</time>
      </trkpt>
      <trkpt lat="42.93292" lon="2.2321">
        <ele>232</ele>
        <time>2021-10-09T04:13:26Z</time>
      </trkpt>
      <trkpt lat="42.93269" lon="2.23161">
        <ele>232.2</ele>
        <time>2021-10-09T04:13:33Z</time>
      </trkpt>
      <trkpt lat="42.93241" lon="2.23097">
        <ele>232.8</ele>
        <time>2021-10-09T04:13:42Z</time>
      </trkpt>
      <trkpt lat="42.93237" lon="2.23089">
        <ele>232.8</ele>
        <time>2021-10-09T04:13:43Z</time>
      </trkpt>
      <trkpt lat="42.93217" lon="2.23043">
        <ele>233.6</ele>
        <time>2021-10-09T04:13:50Z</time>
      </trkpt>
      <trkpt lat="42.93188" lon="2.2298">
        <ele>234.4</ele>
        <time>2021-10-09T04:14:00Z</time>
      </trkpt>
      <trkpt lat="42.93165" lon="2.22927">
        <ele>235.4</ele>
        <time>2021-10-09T04:14:09Z</time>
      </trkpt>
      <trkpt lat="42.93145" lon="2.22882">
        <ele>236.4</ele>
        <time>2021-10-09T04:14:17Z</time>
      </trkpt>
      <trkpt lat="42.93126" lon="2.22841">
        <ele>237.2</ele>
        <time>2021-10-09T04:14:24Z</time>
      </trkpt>
      <trkpt lat="42.93106" lon="2.22795">
        <ele>237.6</ele>
        <time>2021-10-09T04:14:32Z</time>
      </trkpt>
      <trkpt lat="42.93096" lon="2.22773">
        <ele>237.8</ele>
        <time>2021-10-09T04:14:36Z</time>
      </trkpt>
      <trkpt lat="42.93088" lon="2.22756">
        <ele>238</ele>
        <time>2021-10-09T04:14:39Z</time>
      </trkpt>
      <trkpt lat="42.9307" lon="2.22717">
        <ele>238.6</ele>
        <time>2021-10-09T04:14:46Z</time>
      </trkpt>
      <trkpt lat="42.93053" lon="2.22679">
        <ele>239.2</ele>
        <time>2021-10-09T04:14:53Z</time>
      </trkpt>
      <trkpt lat="42.9305" lon="2.22674">
        <ele>239.2</ele>
        <time>2021-10-09T04:14:54Z</time>
      </trkpt>
      <trkpt lat="42.93038" lon="2.22647">
        <ele>239.8</ele>
        <time>2021-10-09T04:14:59Z</time>
      </trkpt>
      <trkpt lat="42.93017" lon="2.226">
        <ele>240.6</ele>
        <time>2021-10-09T04:15:07Z</time>
      </trkpt>
      <trkpt lat="42.92998" lon="2.22553">
        <ele>241.4</ele>
        <time>2021-10-09T04:15:14Z</time>
      </trkpt>
      <trkpt lat="42.92989" lon="2.22512">
        <ele>242.4</ele>
        <time>2021-10-09T04:15:20Z</time>
      </trkpt>
      <trkpt lat="42.92985" lon="2.22457">
        <ele>243.4</ele>
        <time>2021-10-09T04:15:28Z</time>
      </trkpt>
      <trkpt lat="42.92984" lon="2.22406">
        <ele>244.8</ele>
        <time>2021-10-09T04:15:36Z</time>
      </trkpt>
      <trkpt lat="42.92982" lon="2.22335">
        <ele>247.4</ele>
        <time>2021-10-09T04:15:48Z</time>
      </trkpt>
      <trkpt lat="42.9298" lon="2.22278">
        <ele>249.4</ele>
        <time>2021-10-09T04:15:57Z</time>
      </trkpt>
      <trkpt lat="42.92973" lon="2.22205">
        <ele>251.6</ele>
        <time>2021-10-09T04:16:08Z</time>
      </trkpt>
      <trkpt lat="42.92972" lon="2.22198">
        <ele>252</ele>
        <time>2021-10-09T04:16:09Z</time>
      </trkpt>
      <trkpt lat="42.9296" lon="2.2214">
        <ele>253.4</ele>
        <time>2021-10-09T04:16:17Z</time>
      </trkpt>
      <trkpt lat="42.92942" lon="2.22081">
        <ele>254.4</ele>
        <time>2021-10-09T04:16:24Z</time>
      </trkpt>
      <trkpt lat="42.92917" lon="2.22028">
        <ele>254.8</ele>
        <time>2021-10-09T04:16:30Z</time>
      </trkpt>
      <trkpt lat="42.92885" lon="2.21988">
        <ele>255</ele>
        <time>2021-10-09T04:16:35Z</time>
      </trkpt>
      <trkpt lat="42.92843" lon="2.21961">
        <ele>255</ele>
        <time>2021-10-09T04:16:40Z</time>
      </trkpt>
      <trkpt lat="42.92804" lon="2.2195">
        <ele>254.8</ele>
        <time>2021-10-09T04:16:44Z</time>
      </trkpt>
      <trkpt lat="42.92774" lon="2.21952">
        <ele>255.6</ele>
        <time>2021-10-09T04:16:47Z</time>
      </trkpt>
      <trkpt lat="42.92736" lon="2.21965">
        <ele>253.8</ele>
        <time>2021-10-09T04:16:51Z</time>
      </trkpt>
      <trkpt lat="42.92695" lon="2.21979">
        <ele>254.2</ele>
        <time>2021-10-09T04:16:56Z</time>
      </trkpt>
      <trkpt lat="42.92642" lon="2.21996">
        <ele>253.8</ele>
        <time>2021-10-09T04:17:03Z</time>
      </trkpt>
      <trkpt lat="42.9262" lon="2.21996">
        <ele>253.6</ele>
        <time>2021-10-09T04:17:06Z</time>
      </trkpt>
      <trkpt lat="42.92605" lon="2.21995">
        <ele>253.6</ele>
        <time>2021-10-09T04:17:08Z</time>
      </trkpt>
      <trkpt lat="42.92568" lon="2.21983">
        <ele>253.4</ele>
        <time>2021-10-09T04:17:13Z</time>
      </trkpt>
      <trkpt lat="42.92517" lon="2.21958">
        <ele>252.8</ele>
        <time>2021-10-09T04:17:20Z</time>
      </trkpt>
      <trkpt lat="42.92463" lon="2.21926">
        <ele>252.8</ele>
        <time>2021-10-09T04:17:28Z</time>
      </trkpt>
      <trkpt lat="42.92447" lon="2.21912">
        <ele>252.4</ele>
        <time>2021-10-09T04:17:31Z</time>
      </trkpt>
      <trkpt lat="42.92433" lon="2.21897">
        <ele>252.2</ele>
        <time>2021-10-09T04:17:34Z</time>
      </trkpt>
      <trkpt lat="42.92414" lon="2.21876">
        <ele>251.8</ele>
        <time>2021-10-09T04:17:38Z</time>
      </trkpt>
      <trkpt lat="42.92405" lon="2.21866">
        <ele>251.6</ele>
        <time>2021-10-09T04:17:40Z</time>
      </trkpt>
      <trkpt lat="42.924" lon="2.21861">
        <ele>251.6</ele>
        <time>2021-10-09T04:17:41Z</time>
      </trkpt>
      <trkpt lat="42.92376" lon="2.21836">
        <ele>251.4</ele>
        <time>2021-10-09T04:17:46Z</time>
      </trkpt>
      <trkpt lat="42.92363" lon="2.21823">
        <ele>251.4</ele>
        <time>2021-10-09T04:17:49Z</time>
      </trkpt>
      <trkpt lat="42.92354" lon="2.21814">
        <ele>251.4</ele>
        <time>2021-10-09T04:17:51Z</time>
      </trkpt>
      <trkpt lat="42.92318" lon="2.21793">
        <ele>251.2</ele>
        <time>2021-10-09T04:17:57Z</time>
      </trkpt>
      <trkpt lat="42.92273" lon="2.21766">
        <ele>251</ele>
        <time>2021-10-09T04:18:04Z</time>
      </trkpt>
      <trkpt lat="42.92218" lon="2.21732">
        <ele>250.8</ele>
        <time>2021-10-09T04:18:12Z</time>
      </trkpt>
      <trkpt lat="42.92179" lon="2.21697">
        <ele>250.4</ele>
        <time>2021-10-09T04:18:18Z</time>
      </trkpt>
      <trkpt lat="42.92158" lon="2.21665">
        <ele>250.4</ele>
        <time>2021-10-09T04:18:22Z</time>
      </trkpt>
      <trkpt lat="42.92141" lon="2.21619">
        <ele>250.4</ele>
        <time>2021-10-09T04:18:27Z</time>
      </trkpt>
      <trkpt lat="42.92128" lon="2.21554">
        <ele>250.4</ele>
        <time>2021-10-09T04:18:34Z</time>
      </trkpt>
      <trkpt lat="42.92115" lon="2.21483">
        <ele>250.6</ele>
        <time>2021-10-09T04:18:42Z</time>
      </trkpt>
      <trkpt lat="42.92109" lon="2.21457">
        <ele>250.6</ele>
        <time>2021-10-09T04:18:45Z</time>
      </trkpt>
      <trkpt lat="42.92094" lon="2.21388">
        <ele>250.8</ele>
        <time>2021-10-09T04:18:53Z</time>
      </trkpt>
      <trkpt lat="42.92079" lon="2.21317">
        <ele>251</ele>
        <time>2021-10-09T04:19:01Z</time>
      </trkpt>
      <trkpt lat="42.9206" lon="2.2125">
        <ele>251.4</ele>
        <time>2021-10-09T04:19:09Z</time>
      </trkpt>
      <trkpt lat="42.92037" lon="2.21206">
        <ele>251.6</ele>
        <time>2021-10-09T04:19:15Z</time>
      </trkpt>
      <trkpt lat="42.92009" lon="2.21166">
        <ele>252</ele>
        <time>2021-10-09T04:19:21Z</time>
      </trkpt>
      <trkpt lat="42.91967" lon="2.21114">
        <ele>252.6</ele>
        <time>2021-10-09T04:19:29Z</time>
      </trkpt>
      <trkpt lat="42.91937" lon="2.21076">
        <ele>252.6</ele>
        <time>2021-10-09T04:19:35Z</time>
      </trkpt>
      <trkpt lat="42.91902" lon="2.21035">
        <ele>252.8</ele>
        <time>2021-10-09T04:19:42Z</time>
      </trkpt>
      <trkpt lat="42.91865" lon="2.2099">
        <ele>253</ele>
        <time>2021-10-09T04:19:50Z</time>
      </trkpt>
      <trkpt lat="42.91829" lon="2.20955">
        <ele>253</ele>
        <time>2021-10-09T04:19:57Z</time>
      </trkpt>
      <trkpt lat="42.91794" lon="2.20934">
        <ele>253.2</ele>
        <time>2021-10-09T04:20:03Z</time>
      </trkpt>
      <trkpt lat="42.91788" lon="2.20931">
        <ele>253.2</ele>
        <time>2021-10-09T04:20:04Z</time>
      </trkpt>
      <trkpt lat="42.91782" lon="2.20928">
        <ele>253.2</ele>
        <time>2021-10-09T04:20:05Z</time>
      </trkpt>
      <trkpt lat="42.91751" lon="2.20914">
        <ele>253.2</ele>
        <time>2021-10-09T04:20:10Z</time>
      </trkpt>
      <trkpt lat="42.91709" lon="2.20894">
        <ele>253.4</ele>
        <time>2021-10-09T04:20:17Z</time>
      </trkpt>
      <trkpt lat="42.9166" lon="2.20875">
        <ele>253.4</ele>
        <time>2021-10-09T04:20:25Z</time>
      </trkpt>
      <trkpt lat="42.91644" lon="2.20874">
        <ele>253.4</ele>
        <time>2021-10-09T04:20:28Z</time>
      </trkpt>
      <trkpt lat="42.91628" lon="2.20876">
        <ele>253.4</ele>
        <time>2021-10-09T04:20:31Z</time>
      </trkpt>
      <trkpt lat="42.91592" lon="2.2088">
        <ele>253.6</ele>
        <time>2021-10-09T04:20:37Z</time>
      </trkpt>
      <trkpt lat="42.9156" lon="2.2088">
        <ele>253.8</ele>
        <time>2021-10-09T04:20:43Z</time>
      </trkpt>
      <trkpt lat="42.91525" lon="2.2087">
        <ele>254</ele>
        <time>2021-10-09T04:20:50Z</time>
      </trkpt>
      <trkpt lat="42.91485" lon="2.20857">
        <ele>254.2</ele>
        <time>2021-10-09T04:20:57Z</time>
      </trkpt>
      <trkpt lat="42.91444" lon="2.20833">
        <ele>254.4</ele>
        <time>2021-10-09T04:21:04Z</time>
      </trkpt>
      <trkpt lat="42.91402" lon="2.20798">
        <ele>254.4</ele>
        <time>2021-10-09T04:21:12Z</time>
      </trkpt>
      <trkpt lat="42.91382" lon="2.20773">
        <ele>254.8</ele>
        <time>2021-10-09T04:21:16Z</time>
      </trkpt>
      <trkpt lat="42.91375" lon="2.20759">
        <ele>255</ele>
        <time>2021-10-09T04:21:18Z</time>
      </trkpt>
      <trkpt lat="42.91364" lon="2.20714">
        <ele>255.2</ele>
        <time>2021-10-09T04:21:23Z</time>
      </trkpt>
      <trkpt lat="42.91355" lon="2.20655">
        <ele>255.6</ele>
        <time>2021-10-09T04:21:29Z</time>
      </trkpt>
      <trkpt lat="42.91349" lon="2.20581">
        <ele>255.6</ele>
        <time>2021-10-09T04:21:36Z</time>
      </trkpt>
      <trkpt lat="42.91349" lon="2.20509">
        <ele>255.6</ele>
        <time>2021-10-09T04:21:43Z</time>
      </trkpt>
      <trkpt lat="42.91348" lon="2.2044">
        <ele>255.4</ele>
        <time>2021-10-09T04:21:50Z</time>
      </trkpt>
      <trkpt lat="42.91347" lon="2.20374">
        <ele>255.4</ele>
        <time>2021-10-09T04:21:57Z</time>
      </trkpt>
      <trkpt lat="42.91346" lon="2.20297">
        <ele>255.6</ele>
        <time>2021-10-09T04:22:05Z</time>
      </trkpt>
      <trkpt lat="42.91345" lon="2.20279">
        <ele>255.6</ele>
        <time>2021-10-09T04:22:07Z</time>
      </trkpt>
      <trkpt lat="42.91345" lon="2.20226">
        <ele>255.8</ele>
        <time>2021-10-09T04:22:13Z</time>
      </trkpt>
      <trkpt lat="42.91344" lon="2.20163">
        <ele>255.6</ele>
        <time>2021-10-09T04:22:20Z</time>
      </trkpt>
      <trkpt lat="42.91343" lon="2.20118">
        <ele>255.6</ele>
        <time>2021-10-09T04:22:25Z</time>
      </trkpt>
      <trkpt lat="42.91341" lon="2.20037">
        <ele>255.8</ele>
        <time>2021-10-09T04:22:34Z</time>
      </trkpt>
      <trkpt lat="42.91338" lon="2.19985">
        <ele>256.2</ele>
        <time>2021-10-09T04:22:40Z</time>
      </trkpt>
      <trkpt lat="42.91328" lon="2.19929">
        <ele>256.6</ele>
        <time>2021-10-09T04:22:47Z</time>
      </trkpt>
      <trkpt lat="42.91325" lon="2.19922">
        <ele>256.8</ele>
        <time>2021-10-09T04:22:48Z</time>
      </trkpt>
      <trkpt lat="42.91311" lon="2.19895">
        <ele>257</ele>
        <time>2021-10-09T04:22:52Z</time>
      </trkpt>
      <trkpt lat="42.91285" lon="2.19863">
        <ele>257.4</ele>
        <time>2021-10-09T04:22:58Z</time>
      </trkpt>
      <trkpt lat="42.91246" lon="2.19839">
        <ele>257.8</ele>
        <time>2021-10-09T04:23:05Z</time>
      </trkpt>
      <trkpt lat="42.91201" lon="2.19812">
        <ele>258.2</ele>
        <time>2021-10-09T04:23:13Z</time>
      </trkpt>
      <trkpt lat="42.9115" lon="2.19781">
        <ele>258.6</ele>
        <time>2021-10-09T04:23:22Z</time>
      </trkpt>
      <trkpt lat="42.91114" lon="2.1977">
        <ele>258.6</ele>
        <time>2021-10-09T04:23:28Z</time>
      </trkpt>
      <trkpt lat="42.91076" lon="2.19769">
        <ele>258.6</ele>
        <time>2021-10-09T04:23:34Z</time>
      </trkpt>
      <trkpt lat="42.91037" lon="2.19762">
        <ele>258.8</ele>
        <time>2021-10-09T04:23:40Z</time>
      </trkpt>
      <trkpt lat="42.91001" lon="2.19736">
        <ele>258.8</ele>
        <time>2021-10-09T04:23:46Z</time>
      </trkpt>
      <trkpt lat="42.90976" lon="2.19705">
        <ele>259</ele>
        <time>2021-10-09T04:23:51Z</time>
      </trkpt>
      <trkpt lat="42.90947" lon="2.19655">
        <ele>259.2</ele>
        <time>2021-10-09T04:23:58Z</time>
      </trkpt>
      <trkpt lat="42.90913" lon="2.19594">
        <ele>259.8</ele>
        <time>2021-10-09T04:24:06Z</time>
      </trkpt>
      <trkpt lat="42.90908" lon="2.19587">
        <ele>259.8</ele>
        <time>2021-10-09T04:24:07Z</time>
      </trkpt>
      <trkpt lat="42.90879" lon="2.19533">
        <ele>260.4</ele>
        <time>2021-10-09T04:24:14Z</time>
      </trkpt>
      <trkpt lat="42.9084" lon="2.1947">
        <ele>261.2</ele>
        <time>2021-10-09T04:24:23Z</time>
      </trkpt>
      <trkpt lat="42.90836" lon="2.19463">
        <ele>261.2</ele>
        <time>2021-10-09T04:24:24Z</time>
      </trkpt>
      <trkpt lat="42.90806" lon="2.19418">
        <ele>261.6</ele>
        <time>2021-10-09T04:24:31Z</time>
      </trkpt>
      <trkpt lat="42.90764" lon="2.19359">
        <ele>262</ele>
        <time>2021-10-09T04:24:40Z</time>
      </trkpt>
      <trkpt lat="42.90728" lon="2.19316">
        <ele>262</ele>
        <time>2021-10-09T04:24:47Z</time>
      </trkpt>
      <trkpt lat="42.9069" lon="2.19275">
        <ele>262.4</ele>
        <time>2021-10-09T04:24:54Z</time>
      </trkpt>
      <trkpt lat="42.90653" lon="2.19236">
        <ele>262.4</ele>
        <time>2021-10-09T04:25:01Z</time>
      </trkpt>
      <trkpt lat="42.90621" lon="2.19204">
        <ele>262.6</ele>
        <time>2021-10-09T04:25:07Z</time>
      </trkpt>
      <trkpt lat="42.90573" lon="2.19157">
        <ele>262.6</ele>
        <time>2021-10-09T04:25:16Z</time>
      </trkpt>
      <trkpt lat="42.90567" lon="2.19152">
        <ele>262.6</ele>
        <time>2021-10-09T04:25:17Z</time>
      </trkpt>
      <trkpt lat="42.90524" lon="2.19112">
        <ele>262.6</ele>
        <time>2021-10-09T04:25:25Z</time>
      </trkpt>
      <trkpt lat="42.90486" lon="2.19076">
        <ele>262.8</ele>
        <time>2021-10-09T04:25:32Z</time>
      </trkpt>
      <trkpt lat="42.90443" lon="2.19036">
        <ele>263</ele>
        <time>2021-10-09T04:25:40Z</time>
      </trkpt>
      <trkpt lat="42.90397" lon="2.18994">
        <ele>263.2</ele>
        <time>2021-10-09T04:25:49Z</time>
      </trkpt>
      <trkpt lat="42.90358" lon="2.18959">
        <ele>263.4</ele>
        <time>2021-10-09T04:25:57Z</time>
      </trkpt>
      <trkpt lat="42.90316" lon="2.18929">
        <ele>264</ele>
        <time>2021-10-09T04:26:05Z</time>
      </trkpt>
      <trkpt lat="42.90271" lon="2.18908">
        <ele>264.2</ele>
        <time>2021-10-09T04:26:13Z</time>
      </trkpt>
      <trkpt lat="42.90222" lon="2.18901">
        <ele>264.4</ele>
        <time>2021-10-09T04:26:21Z</time>
      </trkpt>
      <trkpt lat="42.90167" lon="2.18895">
        <ele>264.6</ele>
        <time>2021-10-09T04:26:30Z</time>
      </trkpt>
      <trkpt lat="42.90123" lon="2.18885">
        <ele>264.8</ele>
        <time>2021-10-09T04:26:37Z</time>
      </trkpt>
      <trkpt lat="42.9007" lon="2.18864">
        <ele>265</ele>
        <time>2021-10-09T04:26:46Z</time>
      </trkpt>
      <trkpt lat="42.90037" lon="2.18844">
        <ele>265</ele>
        <time>2021-10-09T04:26:52Z</time>
      </trkpt>
      <trkpt lat="42.89994" lon="2.1881">
        <ele>265.4</ele>
        <time>2021-10-09T04:27:00Z</time>
      </trkpt>
      <trkpt lat="42.89948" lon="2.18765">
        <ele>265.8</ele>
        <time>2021-10-09T04:27:09Z</time>
      </trkpt>
      <trkpt lat="42.89943" lon="2.18761">
        <ele>265.8</ele>
        <time>2021-10-09T04:27:10Z</time>
      </trkpt>
      <trkpt lat="42.89899" lon="2.18727">
        <ele>266</ele>
        <time>2021-10-09T04:27:18Z</time>
      </trkpt>
      <trkpt lat="42.89853" lon="2.18702">
        <ele>266.2</ele>
        <time>2021-10-09T04:27:26Z</time>
      </trkpt>
      <trkpt lat="42.89818" lon="2.18692">
        <ele>266.4</ele>
        <time>2021-10-09T04:27:32Z</time>
      </trkpt>
      <trkpt lat="42.89807" lon="2.18691">
        <ele>266.4</ele>
        <time>2021-10-09T04:27:34Z</time>
      </trkpt>
      <trkpt lat="42.89783" lon="2.18693">
        <ele>266.6</ele>
        <time>2021-10-09T04:27:38Z</time>
      </trkpt>
      <trkpt lat="42.89771" lon="2.18697">
        <ele>266.8</ele>
        <time>2021-10-09T04:27:40Z</time>
      </trkpt>
      <trkpt lat="42.89754" lon="2.18706">
        <ele>267</ele>
        <time>2021-10-09T04:27:43Z</time>
      </trkpt>
      <trkpt lat="42.89748" lon="2.18709">
        <ele>267.2</ele>
        <time>2021-10-09T04:27:44Z</time>
      </trkpt>
      <trkpt lat="42.89717" lon="2.18736">
        <ele>267.4</ele>
        <time>2021-10-09T04:27:50Z</time>
      </trkpt>
      <trkpt lat="42.89693" lon="2.18772">
        <ele>267.8</ele>
        <time>2021-10-09T04:27:56Z</time>
      </trkpt>
      <trkpt lat="42.89676" lon="2.18817">
        <ele>268</ele>
        <time>2021-10-09T04:28:02Z</time>
      </trkpt>
      <trkpt lat="42.89659" lon="2.18881">
        <ele>268.4</ele>
        <time>2021-10-09T04:28:10Z</time>
      </trkpt>
      <trkpt lat="42.89636" lon="2.18943">
        <ele>269.2</ele>
        <time>2021-10-09T04:28:18Z</time>
      </trkpt>
      <trkpt lat="42.89604" lon="2.18998">
        <ele>269.8</ele>
        <time>2021-10-09T04:28:26Z</time>
      </trkpt>
      <trkpt lat="42.89576" lon="2.19036">
        <ele>270.2</ele>
        <time>2021-10-09T04:28:32Z</time>
      </trkpt>
      <trkpt lat="42.89542" lon="2.19087">
        <ele>270.6</ele>
        <time>2021-10-09T04:28:40Z</time>
      </trkpt>
      <trkpt lat="42.89539" lon="2.19093">
        <ele>270.8</ele>
        <time>2021-10-09T04:28:41Z</time>
      </trkpt>
      <trkpt lat="42.89528" lon="2.19124">
        <ele>271</ele>
        <time>2021-10-09T04:28:45Z</time>
      </trkpt>
      <trkpt lat="42.89514" lon="2.19192">
        <ele>271.6</ele>
        <time>2021-10-09T04:28:53Z</time>
      </trkpt>
      <trkpt lat="42.89491" lon="2.19256">
        <ele>272</ele>
        <time>2021-10-09T04:29:01Z</time>
      </trkpt>
      <trkpt lat="42.89463" lon="2.19325">
        <ele>272.6</ele>
        <time>2021-10-09T04:29:10Z</time>
      </trkpt>
      <trkpt lat="42.89436" lon="2.19375">
        <ele>273</ele>
        <time>2021-10-09T04:29:17Z</time>
      </trkpt>
      <trkpt lat="42.89432" lon="2.19381">
        <ele>273</ele>
        <time>2021-10-09T04:29:18Z</time>
      </trkpt>
      <trkpt lat="42.89418" lon="2.19399">
        <ele>273.2</ele>
        <time>2021-10-09T04:29:21Z</time>
      </trkpt>
      <trkpt lat="42.89408" lon="2.19412">
        <ele>273.4</ele>
        <time>2021-10-09T04:29:23Z</time>
      </trkpt>
      <trkpt lat="42.894" lon="2.19409">
        <ele>273.4</ele>
        <time>2021-10-09T04:29:24Z</time>
      </trkpt>
      <trkpt lat="42.89385" lon="2.19434">
        <ele>273.4</ele>
        <time>2021-10-09T04:29:27Z</time>
      </trkpt>
      <trkpt lat="42.89373" lon="2.1944">
        <ele>273.6</ele>
        <time>2021-10-09T04:29:29Z</time>
      </trkpt>
      <trkpt lat="42.89361" lon="2.19446">
        <ele>273.8</ele>
        <time>2021-10-09T04:29:31Z</time>
      </trkpt>
      <trkpt lat="42.89325" lon="2.19465">
        <ele>274</ele>
        <time>2021-10-09T04:29:37Z</time>
      </trkpt>
      <trkpt lat="42.89313" lon="2.19471">
        <ele>274.2</ele>
        <time>2021-10-09T04:29:39Z</time>
      </trkpt>
      <trkpt lat="42.89259" lon="2.19498">
        <ele>274.6</ele>
        <time>2021-10-09T04:29:48Z</time>
      </trkpt>
      <trkpt lat="42.89253" lon="2.19501">
        <ele>274.8</ele>
        <time>2021-10-09T04:29:49Z</time>
      </trkpt>
      <trkpt lat="42.89207" lon="2.19525">
        <ele>275</ele>
        <time>2021-10-09T04:29:57Z</time>
      </trkpt>
      <trkpt lat="42.8917" lon="2.19542">
        <ele>275.4</ele>
        <time>2021-10-09T04:30:03Z</time>
      </trkpt>
      <trkpt lat="42.89164" lon="2.19544">
        <ele>275.4</ele>
        <time>2021-10-09T04:30:04Z</time>
      </trkpt>
      <trkpt lat="42.89145" lon="2.19546">
        <ele>275.4</ele>
        <time>2021-10-09T04:30:07Z</time>
      </trkpt>
      <trkpt lat="42.89133" lon="2.19544">
        <ele>275.4</ele>
        <time>2021-10-09T04:30:09Z</time>
      </trkpt>
      <trkpt lat="42.89103" lon="2.19533">
        <ele>275.6</ele>
        <time>2021-10-09T04:30:14Z</time>
      </trkpt>
      <trkpt lat="42.89076" lon="2.19516">
        <ele>275.8</ele>
        <time>2021-10-09T04:30:19Z</time>
      </trkpt>
      <trkpt lat="42.89036" lon="2.1949">
        <ele>276</ele>
        <time>2021-10-09T04:30:27Z</time>
      </trkpt>
      <trkpt lat="42.88996" lon="2.19461">
        <ele>276.4</ele>
        <time>2021-10-09T04:30:35Z</time>
      </trkpt>
      <trkpt lat="42.8897" lon="2.19442">
        <ele>276.6</ele>
        <time>2021-10-09T04:30:40Z</time>
      </trkpt>
      <trkpt lat="42.88932" lon="2.19415">
        <ele>277</ele>
        <time>2021-10-09T04:30:47Z</time>
      </trkpt>
      <trkpt lat="42.88896" lon="2.19388">
        <ele>277</ele>
        <time>2021-10-09T04:30:53Z</time>
      </trkpt>
      <trkpt lat="42.88846" lon="2.19353">
        <ele>276.8</ele>
        <time>2021-10-09T04:31:00Z</time>
      </trkpt>
      <trkpt lat="42.88792" lon="2.19316">
        <ele>276.4</ele>
        <time>2021-10-09T04:31:07Z</time>
      </trkpt>
      <trkpt lat="42.88785" lon="2.19311">
        <ele>276.4</ele>
        <time>2021-10-09T04:31:08Z</time>
      </trkpt>
      <trkpt lat="42.88732" lon="2.19272">
        <ele>276.4</ele>
        <time>2021-10-09T04:31:16Z</time>
      </trkpt>
      <trkpt lat="42.88684" lon="2.19237">
        <ele>276.2</ele>
        <time>2021-10-09T04:31:24Z</time>
      </trkpt>
      <trkpt lat="42.88638" lon="2.19204">
        <ele>276.4</ele>
        <time>2021-10-09T04:31:32Z</time>
      </trkpt>
      <trkpt lat="42.88593" lon="2.19171">
        <ele>276.4</ele>
        <time>2021-10-09T04:31:40Z</time>
      </trkpt>
      <trkpt lat="42.8855" lon="2.1914">
        <ele>276.6</ele>
        <time>2021-10-09T04:31:48Z</time>
      </trkpt>
      <trkpt lat="42.88523" lon="2.19121">
        <ele>276.6</ele>
        <time>2021-10-09T04:31:53Z</time>
      </trkpt>
      <trkpt lat="42.88473" lon="2.19085">
        <ele>276.6</ele>
        <time>2021-10-09T04:32:02Z</time>
      </trkpt>
      <trkpt lat="42.88435" lon="2.19059">
        <ele>276.8</ele>
        <time>2021-10-09T04:32:09Z</time>
      </trkpt>
      <trkpt lat="42.88415" lon="2.19046">
        <ele>277</ele>
        <time>2021-10-09T04:32:13Z</time>
      </trkpt>
      <trkpt lat="42.88404" lon="2.19042">
        <ele>277</ele>
        <time>2021-10-09T04:32:15Z</time>
      </trkpt>
      <trkpt lat="42.88361" lon="2.19038">
        <ele>277.4</ele>
        <time>2021-10-09T04:32:22Z</time>
      </trkpt>
      <trkpt lat="42.88303" lon="2.19041">
        <ele>277.6</ele>
        <time>2021-10-09T04:32:31Z</time>
      </trkpt>
      <trkpt lat="42.88296" lon="2.19042">
        <ele>277.6</ele>
        <time>2021-10-09T04:32:32Z</time>
      </trkpt>
      <trkpt lat="42.88241" lon="2.19046">
        <ele>278.2</ele>
        <time>2021-10-09T04:32:41Z</time>
      </trkpt>
      <trkpt lat="42.88194" lon="2.19049">
        <ele>279</ele>
        <time>2021-10-09T04:32:49Z</time>
      </trkpt>
      <trkpt lat="42.88175" lon="2.19047">
        <ele>279.2</ele>
        <time>2021-10-09T04:32:52Z</time>
      </trkpt>
      <trkpt lat="42.88162" lon="2.19042">
        <ele>279.2</ele>
        <time>2021-10-09T04:32:54Z</time>
      </trkpt>
      <trkpt lat="42.88111" lon="2.19012">
        <ele>279.4</ele>
        <time>2021-10-09T04:33:02Z</time>
      </trkpt>
      <trkpt lat="42.88062" lon="2.18982">
        <ele>279.8</ele>
        <time>2021-10-09T04:33:10Z</time>
      </trkpt>
      <trkpt lat="42.8805" lon="2.18974">
        <ele>280</ele>
        <time>2021-10-09T04:33:12Z</time>
      </trkpt>
      <trkpt lat="42.87997" lon="2.18942">
        <ele>280.6</ele>
        <time>2021-10-09T04:33:21Z</time>
      </trkpt>
      <trkpt lat="42.87984" lon="2.18934">
        <ele>280.8</ele>
        <time>2021-10-09T04:33:23Z</time>
      </trkpt>
      <trkpt lat="42.8793" lon="2.18901">
        <ele>281</ele>
        <time>2021-10-09T04:33:32Z</time>
      </trkpt>
      <trkpt lat="42.87924" lon="2.18897">
        <ele>280.8</ele>
        <time>2021-10-09T04:33:33Z</time>
      </trkpt>
      <trkpt lat="42.87879" lon="2.18869">
        <ele>281.2</ele>
        <time>2021-10-09T04:33:41Z</time>
      </trkpt>
      <trkpt lat="42.87848" lon="2.1885">
        <ele>281.6</ele>
        <time>2021-10-09T04:33:47Z</time>
      </trkpt>
      <trkpt lat="42.8782" lon="2.18827">
        <ele>281.8</ele>
        <time>2021-10-09T04:33:53Z</time>
      </trkpt>
      <trkpt lat="42.87816" lon="2.18822">
        <ele>281.8</ele>
        <time>2021-10-09T04:33:54Z</time>
      </trkpt>
      <trkpt lat="42.87811" lon="2.18817">
        <ele>281.8</ele>
        <time>2021-10-09T04:33:55Z</time>
      </trkpt>
      <trkpt lat="42.87799" lon="2.18798">
        <ele>282</ele>
        <time>2021-10-09T04:33:58Z</time>
      </trkpt>
      <trkpt lat="42.87795" lon="2.1879">
        <ele>282</ele>
        <time>2021-10-09T04:33:59Z</time>
      </trkpt>
      <trkpt lat="42.87793" lon="2.18782">
        <ele>282</ele>
        <time>2021-10-09T04:34:00Z</time>
      </trkpt>
      <trkpt lat="42.87786" lon="2.18756">
        <ele>282.2</ele>
        <time>2021-10-09T04:34:03Z</time>
      </trkpt>
      <trkpt lat="42.8778" lon="2.18681">
        <ele>282.2</ele>
        <time>2021-10-09T04:34:11Z</time>
      </trkpt>
      <trkpt lat="42.87779" lon="2.18663">
        <ele>282.2</ele>
        <time>2021-10-09T04:34:13Z</time>
      </trkpt>
      <trkpt lat="42.87772" lon="2.18582">
        <ele>282.4</ele>
        <time>2021-10-09T04:34:22Z</time>
      </trkpt>
      <trkpt lat="42.87767" lon="2.18514">
        <ele>282.8</ele>
        <time>2021-10-09T04:34:30Z</time>
      </trkpt>
      <trkpt lat="42.87761" lon="2.18443">
        <ele>283.4</ele>
        <time>2021-10-09T04:34:38Z</time>
      </trkpt>
      <trkpt lat="42.87757" lon="2.18398">
        <ele>283.4</ele>
        <time>2021-10-09T04:34:43Z</time>
      </trkpt>
      <trkpt lat="42.87746" lon="2.18361">
        <ele>283.6</ele>
        <time>2021-10-09T04:34:47Z</time>
      </trkpt>
      <trkpt lat="42.8774" lon="2.18345">
        <ele>283.6</ele>
        <time>2021-10-09T04:34:49Z</time>
      </trkpt>
      <trkpt lat="42.87722" lon="2.18309">
        <ele>284</ele>
        <time>2021-10-09T04:34:54Z</time>
      </trkpt>
      <trkpt lat="42.87718" lon="2.18302">
        <ele>284</ele>
        <time>2021-10-09T04:34:55Z</time>
      </trkpt>
      <trkpt lat="42.87711" lon="2.1829">
        <ele>284.2</ele>
        <time>2021-10-09T04:34:57Z</time>
      </trkpt>
      <trkpt lat="42.87707" lon="2.18285">
        <ele>284.4</ele>
        <time>2021-10-09T04:34:58Z</time>
      </trkpt>
      <trkpt lat="42.87676" lon="2.18256">
        <ele>285</ele>
        <time>2021-10-09T04:35:04Z</time>
      </trkpt>
      <trkpt lat="42.87642" lon="2.18236">
        <ele>285.8</ele>
        <time>2021-10-09T04:35:10Z</time>
      </trkpt>
      <trkpt lat="42.87607" lon="2.18227">
        <ele>286</ele>
        <time>2021-10-09T04:35:16Z</time>
      </trkpt>
      <trkpt lat="42.87564" lon="2.18231">
        <ele>286.8</ele>
        <time>2021-10-09T04:35:23Z</time>
      </trkpt>
      <trkpt lat="42.87526" lon="2.18236">
        <ele>287.2</ele>
        <time>2021-10-09T04:35:29Z</time>
      </trkpt>
      <trkpt lat="42.8752" lon="2.18237">
        <ele>287.4</ele>
        <time>2021-10-09T04:35:30Z</time>
      </trkpt>
      <trkpt lat="42.87514" lon="2.18238">
        <ele>287.4</ele>
        <time>2021-10-09T04:35:31Z</time>
      </trkpt>
      <trkpt lat="42.87496" lon="2.18242">
        <ele>287.8</ele>
        <time>2021-10-09T04:35:34Z</time>
      </trkpt>
      <trkpt lat="42.8749" lon="2.18243">
        <ele>288</ele>
        <time>2021-10-09T04:35:35Z</time>
      </trkpt>
      <trkpt lat="42.87466" lon="2.18248">
        <ele>288.4</ele>
        <time>2021-10-09T04:35:39Z</time>
      </trkpt>
      <trkpt lat="42.87453" lon="2.1825">
        <ele>288.6</ele>
        <time>2021-10-09T04:35:41Z</time>
      </trkpt>
      <trkpt lat="42.87442" lon="2.18253">
        <ele>288.6</ele>
        <time>2021-10-09T04:35:43Z</time>
      </trkpt>
      <trkpt lat="42.87403" lon="2.18261">
        <ele>288.8</ele>
        <time>2021-10-09T04:35:49Z</time>
      </trkpt>
      <trkpt lat="42.87383" lon="2.18265">
        <ele>288.8</ele>
        <time>2021-10-09T04:35:52Z</time>
      </trkpt>
      <trkpt lat="42.87371" lon="2.18267">
        <ele>288.8</ele>
        <time>2021-10-09T04:35:54Z</time>
      </trkpt>
      <trkpt lat="42.87348" lon="2.18271">
        <ele>288.6</ele>
        <time>2021-10-09T04:35:58Z</time>
      </trkpt>
      <trkpt lat="42.87328" lon="2.18275">
        <ele>288.6</ele>
        <time>2021-10-09T04:36:01Z</time>
      </trkpt>
      <trkpt lat="42.8731" lon="2.1828">
        <ele>288.6</ele>
        <time>2021-10-09T04:36:04Z</time>
      </trkpt>
      <trkpt lat="42.8729" lon="2.18284">
        <ele>288.8</ele>
        <time>2021-10-09T04:36:07Z</time>
      </trkpt>
      <trkpt lat="42.87277" lon="2.18286">
        <ele>288.8</ele>
        <time>2021-10-09T04:36:09Z</time>
      </trkpt>
      <trkpt lat="42.87257" lon="2.1829">
        <ele>289</ele>
        <time>2021-10-09T04:36:12Z</time>
      </trkpt>
      <trkpt lat="42.87251" lon="2.18292">
        <ele>289</ele>
        <time>2021-10-09T04:36:13Z</time>
      </trkpt>
      <trkpt lat="42.87218" lon="2.18298">
        <ele>289.2</ele>
        <time>2021-10-09T04:36:18Z</time>
      </trkpt>
      <trkpt lat="42.87185" lon="2.18305">
        <ele>289.6</ele>
        <time>2021-10-09T04:36:23Z</time>
      </trkpt>
      <trkpt lat="42.87179" lon="2.18306">
        <ele>289.6</ele>
        <time>2021-10-09T04:36:24Z</time>
      </trkpt>
      <trkpt lat="42.87167" lon="2.18308">
        <ele>289.6</ele>
        <time>2021-10-09T04:36:26Z</time>
      </trkpt>
      <trkpt lat="42.87161" lon="2.1831">
        <ele>289.6</ele>
        <time>2021-10-09T04:36:27Z</time>
      </trkpt>
      <trkpt lat="42.87119" lon="2.18317">
        <ele>289.8</ele>
        <time>2021-10-09T04:36:33Z</time>
      </trkpt>
      <trkpt lat="42.87091" lon="2.18322">
        <ele>290</ele>
        <time>2021-10-09T04:36:37Z</time>
      </trkpt>
      <trkpt lat="42.87063" lon="2.18328">
        <ele>290.2</ele>
        <time>2021-10-09T04:36:41Z</time>
      </trkpt>
      <trkpt lat="42.87021" lon="2.18334">
        <ele>290.4</ele>
        <time>2021-10-09T04:36:47Z</time>
      </trkpt>
      <trkpt lat="42.87007" lon="2.18336">
        <ele>290.4</ele>
        <time>2021-10-09T04:36:49Z</time>
      </trkpt>
      <trkpt lat="42.86953" lon="2.18346">
        <ele>290.6</ele>
        <time>2021-10-09T04:36:57Z</time>
      </trkpt>
      <trkpt lat="42.86909" lon="2.18354">
        <ele>290.8</ele>
        <time>2021-10-09T04:37:04Z</time>
      </trkpt>
      <trkpt lat="42.86878" lon="2.1836">
        <ele>290.8</ele>
        <time>2021-10-09T04:37:09Z</time>
      </trkpt>
      <trkpt lat="42.86845" lon="2.18367">
        <ele>290.8</ele>
        <time>2021-10-09T04:37:14Z</time>
      </trkpt>
      <trkpt lat="42.86799" lon="2.18375">
        <ele>291</ele>
        <time>2021-10-09T04:37:21Z</time>
      </trkpt>
      <trkpt lat="42.86754" lon="2.18382">
        <ele>291</ele>
        <time>2021-10-09T04:37:28Z</time>
      </trkpt>
      <trkpt lat="42.86715" lon="2.18385">
        <ele>291</ele>
        <time>2021-10-09T04:37:34Z</time>
      </trkpt>
      <trkpt lat="42.86663" lon="2.18387">
        <ele>291</ele>
        <time>2021-10-09T04:37:42Z</time>
      </trkpt>
      <trkpt lat="42.86613" lon="2.18391">
        <ele>291.2</ele>
        <time>2021-10-09T04:37:50Z</time>
      </trkpt>
      <trkpt lat="42.86563" lon="2.18402">
        <ele>291.2</ele>
        <time>2021-10-09T04:37:58Z</time>
      </trkpt>
      <trkpt lat="42.86522" lon="2.18422">
        <ele>291.6</ele>
        <time>2021-10-09T04:38:05Z</time>
      </trkpt>
      <trkpt lat="42.86484" lon="2.1845">
        <ele>292</ele>
        <time>2021-10-09T04:38:12Z</time>
      </trkpt>
      <trkpt lat="42.8644" lon="2.18499">
        <ele>292.4</ele>
        <time>2021-10-09T04:38:21Z</time>
      </trkpt>
      <trkpt lat="42.86435" lon="2.18504">
        <ele>292.4</ele>
        <time>2021-10-09T04:38:22Z</time>
      </trkpt>
      <trkpt lat="42.86398" lon="2.18543">
        <ele>292.4</ele>
        <time>2021-10-09T04:38:29Z</time>
      </trkpt>
      <trkpt lat="42.86381" lon="2.18559">
        <ele>292.4</ele>
        <time>2021-10-09T04:38:32Z</time>
      </trkpt>
      <trkpt lat="42.8637" lon="2.1857">
        <ele>292.4</ele>
        <time>2021-10-09T04:38:34Z</time>
      </trkpt>
      <trkpt lat="42.86359" lon="2.18592">
        <ele>292.4</ele>
        <time>2021-10-09T04:38:37Z</time>
      </trkpt>
      <trkpt lat="42.86357" lon="2.186">
        <ele>292.4</ele>
        <time>2021-10-09T04:38:38Z</time>
      </trkpt>
      <trkpt lat="42.86352" lon="2.18634">
        <ele>292.4</ele>
        <time>2021-10-09T04:38:42Z</time>
      </trkpt>
      <trkpt lat="42.8635" lon="2.18651">
        <ele>292.4</ele>
        <time>2021-10-09T04:38:44Z</time>
      </trkpt>
      <trkpt lat="42.86346" lon="2.18677">
        <ele>292.2</ele>
        <time>2021-10-09T04:38:48Z</time>
      </trkpt>
      <trkpt lat="42.86357" lon="2.18701">
        <ele>292.2</ele>
        <time>2021-10-09T04:38:53Z</time>
      </trkpt>
      <trkpt lat="42.86358" lon="2.18707">
        <ele>292.2</ele>
        <time>2021-10-09T04:38:58Z</time>
      </trkpt>
      <trkpt lat="42.86359" lon="2.18716">
        <ele>291.8</ele>
        <time>2021-10-09T04:41:49Z</time>
      </trkpt>
      <trkpt lat="42.8636" lon="2.18721">
        <ele>291.8</ele>
        <time>2021-10-09T04:41:51Z</time>
      </trkpt>
      <trkpt lat="42.86363" lon="2.18739">
        <ele>290.8</ele>
        <time>2021-10-09T04:41:56Z</time>
      </trkpt>
      <trkpt lat="42.8637" lon="2.1877">
        <ele>290.2</ele>
        <time>2021-10-09T04:42:05Z</time>
      </trkpt>
      <trkpt lat="42.86371" lon="2.18775">
        <ele>290.2</ele>
        <time>2021-10-09T04:42:07Z</time>
      </trkpt>
      <trkpt lat="42.86368" lon="2.18782">
        <ele>290.2</ele>
        <time>2021-10-09T04:42:09Z</time>
      </trkpt>
      <trkpt lat="42.86362" lon="2.18801">
        <ele>289.8</ele>
        <time>2021-10-09T04:42:14Z</time>
      </trkpt>
      <trkpt lat="42.86367" lon="2.18839">
        <ele>289.8</ele>
        <time>2021-10-09T04:42:20Z</time>
      </trkpt>
      <trkpt lat="42.8637" lon="2.18852">
        <ele>289.8</ele>
        <time>2021-10-09T04:42:22Z</time>
      </trkpt>
      <trkpt lat="42.86375" lon="2.18879">
        <ele>289.8</ele>
        <time>2021-10-09T04:42:26Z</time>
      </trkpt>
      <trkpt lat="42.8638" lon="2.18915">
        <ele>289.8</ele>
        <time>2021-10-09T04:42:31Z</time>
      </trkpt>
      <trkpt lat="42.86381" lon="2.18923">
        <ele>289.8</ele>
        <time>2021-10-09T04:42:32Z</time>
      </trkpt>
      <trkpt lat="42.86387" lon="2.18969">
        <ele>289.4</ele>
        <time>2021-10-09T04:42:38Z</time>
      </trkpt>
      <trkpt lat="42.86387" lon="2.18976">
        <ele>289.2</ele>
        <time>2021-10-09T04:42:39Z</time>
      </trkpt>
      <trkpt lat="42.86389" lon="2.1899">
        <ele>289</ele>
        <time>2021-10-09T04:42:41Z</time>
      </trkpt>
      <trkpt lat="42.86389" lon="2.1903">
        <ele>288.4</ele>
        <time>2021-10-09T04:42:46Z</time>
      </trkpt>
      <trkpt lat="42.86387" lon="2.19047">
        <ele>288.2</ele>
        <time>2021-10-09T04:42:48Z</time>
      </trkpt>
      <trkpt lat="42.86381" lon="2.19078">
        <ele>287.6</ele>
        <time>2021-10-09T04:42:52Z</time>
      </trkpt>
      <trkpt lat="42.86369" lon="2.19123">
        <ele>286.8</ele>
        <time>2021-10-09T04:42:58Z</time>
      </trkpt>
      <trkpt lat="42.86362" lon="2.19137">
        <ele>286.6</ele>
        <time>2021-10-09T04:43:00Z</time>
      </trkpt>
      <trkpt lat="42.8635" lon="2.19155">
        <ele>286.6</ele>
        <time>2021-10-09T04:43:03Z</time>
      </trkpt>
      <trkpt lat="42.86341" lon="2.19165">
        <ele>287</ele>
        <time>2021-10-09T04:43:05Z</time>
      </trkpt>
      <trkpt lat="42.86324" lon="2.19176">
        <ele>287.2</ele>
        <time>2021-10-09T04:43:08Z</time>
      </trkpt>
      <trkpt lat="42.86283" lon="2.19188">
        <ele>287</ele>
        <time>2021-10-09T04:43:15Z</time>
      </trkpt>
      <trkpt lat="42.86249" lon="2.19196">
        <ele>288.2</ele>
        <time>2021-10-09T04:43:21Z</time>
      </trkpt>
      <trkpt lat="42.86242" lon="2.19197">
        <ele>288.4</ele>
        <time>2021-10-09T04:43:22Z</time>
      </trkpt>
      <trkpt lat="42.86236" lon="2.19197">
        <ele>287.4</ele>
        <time>2021-10-09T04:43:23Z</time>
      </trkpt>
      <trkpt lat="42.86223" lon="2.19193">
        <ele>287.4</ele>
        <time>2021-10-09T04:43:25Z</time>
      </trkpt>
      <trkpt lat="42.86217" lon="2.19189">
        <ele>287.4</ele>
        <time>2021-10-09T04:43:26Z</time>
      </trkpt>
      <trkpt lat="42.86212" lon="2.19185">
        <ele>287.4</ele>
        <time>2021-10-09T04:43:27Z</time>
      </trkpt>
      <trkpt lat="42.86195" lon="2.19162">
        <ele>287.8</ele>
        <time>2021-10-09T04:43:31Z</time>
      </trkpt>
      <trkpt lat="42.86178" lon="2.19115">
        <ele>288.4</ele>
        <time>2021-10-09T04:43:38Z</time>
      </trkpt>
      <trkpt lat="42.8616" lon="2.19049">
        <ele>289.6</ele>
        <time>2021-10-09T04:43:47Z</time>
      </trkpt>
      <trkpt lat="42.86145" lon="2.18985">
        <ele>290.6</ele>
        <time>2021-10-09T04:43:55Z</time>
      </trkpt>
      <trkpt lat="42.86125" lon="2.18923">
        <ele>291.4</ele>
        <time>2021-10-09T04:44:03Z</time>
      </trkpt>
      <trkpt lat="42.86114" lon="2.18902">
        <ele>291.8</ele>
        <time>2021-10-09T04:44:06Z</time>
      </trkpt>
      <trkpt lat="42.86106" lon="2.1889">
        <ele>292.2</ele>
        <time>2021-10-09T04:44:08Z</time>
      </trkpt>
      <trkpt lat="42.86071" lon="2.18858">
        <ele>293</ele>
        <time>2021-10-09T04:44:15Z</time>
      </trkpt>
      <trkpt lat="42.8606" lon="2.1885">
        <ele>293</ele>
        <time>2021-10-09T04:44:17Z</time>
      </trkpt>
      <trkpt lat="42.86042" lon="2.18846">
        <ele>293.2</ele>
        <time>2021-10-09T04:44:20Z</time>
      </trkpt>
      <trkpt lat="42.86011" lon="2.18849">
        <ele>293.6</ele>
        <time>2021-10-09T04:44:25Z</time>
      </trkpt>
      <trkpt lat="42.85976" lon="2.18867">
        <ele>294</ele>
        <time>2021-10-09T04:44:31Z</time>
      </trkpt>
      <trkpt lat="42.85966" lon="2.18878">
        <ele>294.2</ele>
        <time>2021-10-09T04:44:33Z</time>
      </trkpt>
      <trkpt lat="42.85957" lon="2.18891">
        <ele>294.2</ele>
        <time>2021-10-09T04:44:35Z</time>
      </trkpt>
      <trkpt lat="42.85954" lon="2.18898">
        <ele>294.4</ele>
        <time>2021-10-09T04:44:36Z</time>
      </trkpt>
      <trkpt lat="42.85942" lon="2.18928">
        <ele>294.6</ele>
        <time>2021-10-09T04:44:40Z</time>
      </trkpt>
      <trkpt lat="42.85917" lon="2.18997">
        <ele>295</ele>
        <time>2021-10-09T04:44:49Z</time>
      </trkpt>
      <trkpt lat="42.85914" lon="2.19004">
        <ele>295.2</ele>
        <time>2021-10-09T04:44:50Z</time>
      </trkpt>
      <trkpt lat="42.85889" lon="2.19074">
        <ele>295.8</ele>
        <time>2021-10-09T04:45:00Z</time>
      </trkpt>
      <trkpt lat="42.85887" lon="2.19081">
        <ele>296</ele>
        <time>2021-10-09T04:45:01Z</time>
      </trkpt>
      <trkpt lat="42.85864" lon="2.19127">
        <ele>296.6</ele>
        <time>2021-10-09T04:45:08Z</time>
      </trkpt>
      <trkpt lat="42.85827" lon="2.19185">
        <ele>297.2</ele>
        <time>2021-10-09T04:45:17Z</time>
      </trkpt>
      <trkpt lat="42.85792" lon="2.19237">
        <ele>298</ele>
        <time>2021-10-09T04:45:25Z</time>
      </trkpt>
      <trkpt lat="42.8575" lon="2.19288">
        <ele>298.4</ele>
        <time>2021-10-09T04:45:34Z</time>
      </trkpt>
      <trkpt lat="42.85746" lon="2.19294">
        <ele>298.4</ele>
        <time>2021-10-09T04:45:35Z</time>
      </trkpt>
      <trkpt lat="42.85705" lon="2.19343">
        <ele>298.6</ele>
        <time>2021-10-09T04:45:44Z</time>
      </trkpt>
      <trkpt lat="42.85666" lon="2.19391">
        <ele>299</ele>
        <time>2021-10-09T04:45:53Z</time>
      </trkpt>
      <trkpt lat="42.85638" lon="2.1943">
        <ele>299.2</ele>
        <time>2021-10-09T04:46:00Z</time>
      </trkpt>
      <trkpt lat="42.85609" lon="2.1948">
        <ele>299.6</ele>
        <time>2021-10-09T04:46:08Z</time>
      </trkpt>
      <trkpt lat="42.85579" lon="2.19539">
        <ele>300.4</ele>
        <time>2021-10-09T04:46:17Z</time>
      </trkpt>
      <trkpt lat="42.85555" lon="2.19595">
        <ele>301</ele>
        <time>2021-10-09T04:46:25Z</time>
      </trkpt>
      <trkpt lat="42.85535" lon="2.19665">
        <ele>301.6</ele>
        <time>2021-10-09T04:46:34Z</time>
      </trkpt>
      <trkpt lat="42.85533" lon="2.19672">
        <ele>301.6</ele>
        <time>2021-10-09T04:46:35Z</time>
      </trkpt>
      <trkpt lat="42.85513" lon="2.19741">
        <ele>302.4</ele>
        <time>2021-10-09T04:46:44Z</time>
      </trkpt>
      <trkpt lat="42.85498" lon="2.19795">
        <ele>302.8</ele>
        <time>2021-10-09T04:46:51Z</time>
      </trkpt>
      <trkpt lat="42.85477" lon="2.1987">
        <ele>303.8</ele>
        <time>2021-10-09T04:47:01Z</time>
      </trkpt>
      <trkpt lat="42.85471" lon="2.19892">
        <ele>304</ele>
        <time>2021-10-09T04:47:04Z</time>
      </trkpt>
      <trkpt lat="42.8545" lon="2.19959">
        <ele>304.6</ele>
        <time>2021-10-09T04:47:13Z</time>
      </trkpt>
      <trkpt lat="42.85432" lon="2.20002">
        <ele>305</ele>
        <time>2021-10-09T04:47:19Z</time>
      </trkpt>
      <trkpt lat="42.85401" lon="2.20045">
        <ele>305.4</ele>
        <time>2021-10-09T04:47:26Z</time>
      </trkpt>
      <trkpt lat="42.85386" lon="2.20062">
        <ele>305.6</ele>
        <time>2021-10-09T04:47:29Z</time>
      </trkpt>
      <trkpt lat="42.8538" lon="2.20066">
        <ele>305.6</ele>
        <time>2021-10-09T04:47:30Z</time>
      </trkpt>
      <trkpt lat="42.85356" lon="2.20073">
        <ele>306</ele>
        <time>2021-10-09T04:47:34Z</time>
      </trkpt>
      <trkpt lat="42.8535" lon="2.20074">
        <ele>306</ele>
        <time>2021-10-09T04:47:35Z</time>
      </trkpt>
      <trkpt lat="42.8532" lon="2.2008">
        <ele>306.4</ele>
        <time>2021-10-09T04:47:40Z</time>
      </trkpt>
      <trkpt lat="42.85314" lon="2.20081">
        <ele>306.4</ele>
        <time>2021-10-09T04:47:41Z</time>
      </trkpt>
      <trkpt lat="42.85272" lon="2.2009">
        <ele>307</ele>
        <time>2021-10-09T04:47:48Z</time>
      </trkpt>
      <trkpt lat="42.85243" lon="2.20106">
        <ele>307.4</ele>
        <time>2021-10-09T04:47:53Z</time>
      </trkpt>
      <trkpt lat="42.85198" lon="2.20148">
        <ele>307.8</ele>
        <time>2021-10-09T04:48:02Z</time>
      </trkpt>
      <trkpt lat="42.85154" lon="2.2019">
        <ele>308.2</ele>
        <time>2021-10-09T04:48:11Z</time>
      </trkpt>
      <trkpt lat="42.85129" lon="2.20214">
        <ele>308.6</ele>
        <time>2021-10-09T04:48:16Z</time>
      </trkpt>
      <trkpt lat="42.85119" lon="2.20223">
        <ele>308.8</ele>
        <time>2021-10-09T04:48:18Z</time>
      </trkpt>
      <trkpt lat="42.85074" lon="2.20267">
        <ele>309.2</ele>
        <time>2021-10-09T04:48:27Z</time>
      </trkpt>
      <trkpt lat="42.85069" lon="2.20272">
        <ele>309.2</ele>
        <time>2021-10-09T04:48:28Z</time>
      </trkpt>
      <trkpt lat="42.85021" lon="2.2031">
        <ele>309.8</ele>
        <time>2021-10-09T04:48:37Z</time>
      </trkpt>
      <trkpt lat="42.84981" lon="2.20331">
        <ele>310</ele>
        <time>2021-10-09T04:48:44Z</time>
      </trkpt>
      <trkpt lat="42.84975" lon="2.20334">
        <ele>310</ele>
        <time>2021-10-09T04:48:45Z</time>
      </trkpt>
      <trkpt lat="42.84924" lon="2.20342">
        <ele>309.8</ele>
        <time>2021-10-09T04:48:53Z</time>
      </trkpt>
      <trkpt lat="42.84905" lon="2.20344">
        <ele>309.8</ele>
        <time>2021-10-09T04:48:56Z</time>
      </trkpt>
      <trkpt lat="42.84891" lon="2.20344">
        <ele>309.6</ele>
        <time>2021-10-09T04:48:58Z</time>
      </trkpt>
      <trkpt lat="42.84884" lon="2.20341">
        <ele>309.4</ele>
        <time>2021-10-09T04:48:59Z</time>
      </trkpt>
      <trkpt lat="42.84858" lon="2.20327">
        <ele>309.2</ele>
        <time>2021-10-09T04:49:03Z</time>
      </trkpt>
      <trkpt lat="42.84833" lon="2.20313">
        <ele>309</ele>
        <time>2021-10-09T04:49:07Z</time>
      </trkpt>
      <trkpt lat="42.84827" lon="2.20311">
        <ele>308.8</ele>
        <time>2021-10-09T04:49:08Z</time>
      </trkpt>
      <trkpt lat="42.84801" lon="2.20302">
        <ele>308.6</ele>
        <time>2021-10-09T04:49:12Z</time>
      </trkpt>
      <trkpt lat="42.84776" lon="2.20294">
        <ele>308.4</ele>
        <time>2021-10-09T04:49:16Z</time>
      </trkpt>
      <trkpt lat="42.84769" lon="2.20293">
        <ele>308.4</ele>
        <time>2021-10-09T04:49:17Z</time>
      </trkpt>
      <trkpt lat="42.84762" lon="2.20292">
        <ele>308.4</ele>
        <time>2021-10-09T04:49:18Z</time>
      </trkpt>
      <trkpt lat="42.84735" lon="2.20298">
        <ele>308</ele>
        <time>2021-10-09T04:49:22Z</time>
      </trkpt>
      <trkpt lat="42.84702" lon="2.20307">
        <ele>307.6</ele>
        <time>2021-10-09T04:49:27Z</time>
      </trkpt>
      <trkpt lat="42.84695" lon="2.20308">
        <ele>307.4</ele>
        <time>2021-10-09T04:49:28Z</time>
      </trkpt>
      <trkpt lat="42.84662" lon="2.20312">
        <ele>306.4</ele>
        <time>2021-10-09T04:49:33Z</time>
      </trkpt>
      <trkpt lat="42.84629" lon="2.20317">
        <ele>305.6</ele>
        <time>2021-10-09T04:49:38Z</time>
      </trkpt>
      <trkpt lat="42.84622" lon="2.20316">
        <ele>305.4</ele>
        <time>2021-10-09T04:49:39Z</time>
      </trkpt>
      <trkpt lat="42.84584" lon="2.20303">
        <ele>304.8</ele>
        <time>2021-10-09T04:49:45Z</time>
      </trkpt>
      <trkpt lat="42.84565" lon="2.20296">
        <ele>304.8</ele>
        <time>2021-10-09T04:49:48Z</time>
      </trkpt>
      <trkpt lat="42.84546" lon="2.20293">
        <ele>304.8</ele>
        <time>2021-10-09T04:49:51Z</time>
      </trkpt>
      <trkpt lat="42.84539" lon="2.20294">
        <ele>304.8</ele>
        <time>2021-10-09T04:49:52Z</time>
      </trkpt>
      <trkpt lat="42.84514" lon="2.20297">
        <ele>304.4</ele>
        <time>2021-10-09T04:49:56Z</time>
      </trkpt>
      <trkpt lat="42.84481" lon="2.20299">
        <ele>303.8</ele>
        <time>2021-10-09T04:50:01Z</time>
      </trkpt>
      <trkpt lat="42.84429" lon="2.20304">
        <ele>303.4</ele>
        <time>2021-10-09T04:50:09Z</time>
      </trkpt>
      <trkpt lat="42.84389" lon="2.20312">
        <ele>303.6</ele>
        <time>2021-10-09T04:50:15Z</time>
      </trkpt>
      <trkpt lat="42.84366" lon="2.20318">
        <ele>303.4</ele>
        <time>2021-10-09T04:50:19Z</time>
      </trkpt>
      <trkpt lat="42.84354" lon="2.20323">
        <ele>304.6</ele>
        <time>2021-10-09T04:50:21Z</time>
      </trkpt>
      <trkpt lat="42.84336" lon="2.20331">
        <ele>304.2</ele>
        <time>2021-10-09T04:50:24Z</time>
      </trkpt>
      <trkpt lat="42.84325" lon="2.20335">
        <ele>304.4</ele>
        <time>2021-10-09T04:50:26Z</time>
      </trkpt>
      <trkpt lat="42.84301" lon="2.20333">
        <ele>304.4</ele>
        <time>2021-10-09T04:50:30Z</time>
      </trkpt>
      <trkpt lat="42.84296" lon="2.20332">
        <ele>304.4</ele>
        <time>2021-10-09T04:50:31Z</time>
      </trkpt>
      <trkpt lat="42.8429" lon="2.20329">
        <ele>304.4</ele>
        <time>2021-10-09T04:50:32Z</time>
      </trkpt>
      <trkpt lat="42.84276" lon="2.20323">
        <ele>304.4</ele>
        <time>2021-10-09T04:50:35Z</time>
      </trkpt>
      <trkpt lat="42.84266" lon="2.20318">
        <ele>304.4</ele>
        <time>2021-10-09T04:50:37Z</time>
      </trkpt>
      <trkpt lat="42.84261" lon="2.20315">
        <ele>304.4</ele>
        <time>2021-10-09T04:50:38Z</time>
      </trkpt>
      <trkpt lat="42.84255" lon="2.20312">
        <ele>304.4</ele>
        <time>2021-10-09T04:50:39Z</time>
      </trkpt>
      <trkpt lat="42.84246" lon="2.20303">
        <ele>304.2</ele>
        <time>2021-10-09T04:50:41Z</time>
      </trkpt>
      <trkpt lat="42.84238" lon="2.20294">
        <ele>304.2</ele>
        <time>2021-10-09T04:50:43Z</time>
      </trkpt>
      <trkpt lat="42.84219" lon="2.20279">
        <ele>305</ele>
        <time>2021-10-09T04:50:47Z</time>
      </trkpt>
      <trkpt lat="42.84209" lon="2.20275">
        <ele>304.6</ele>
        <time>2021-10-09T04:50:49Z</time>
      </trkpt>
      <trkpt lat="42.84194" lon="2.20272">
        <ele>304.8</ele>
        <time>2021-10-09T04:50:52Z</time>
      </trkpt>
      <trkpt lat="42.84173" lon="2.20269">
        <ele>305.2</ele>
        <time>2021-10-09T04:50:56Z</time>
      </trkpt>
      <trkpt lat="42.84168" lon="2.20269">
        <ele>305.4</ele>
        <time>2021-10-09T04:50:57Z</time>
      </trkpt>
      <trkpt lat="42.84126" lon="2.20276">
        <ele>306.2</ele>
        <time>2021-10-09T04:51:05Z</time>
      </trkpt>
      <trkpt lat="42.84121" lon="2.20277">
        <ele>306.2</ele>
        <time>2021-10-09T04:51:06Z</time>
      </trkpt>
      <trkpt lat="42.84093" lon="2.2028">
        <ele>306.4</ele>
        <time>2021-10-09T04:51:11Z</time>
      </trkpt>
      <trkpt lat="42.84043" lon="2.20278">
        <ele>307</ele>
        <time>2021-10-09T04:51:20Z</time>
      </trkpt>
      <trkpt lat="42.8402" lon="2.20274">
        <ele>307.2</ele>
        <time>2021-10-09T04:51:24Z</time>
      </trkpt>
      <trkpt lat="42.84009" lon="2.20269">
        <ele>307.2</ele>
        <time>2021-10-09T04:51:26Z</time>
      </trkpt>
      <trkpt lat="42.83983" lon="2.2025">
        <ele>307.6</ele>
        <time>2021-10-09T04:51:31Z</time>
      </trkpt>
      <trkpt lat="42.83978" lon="2.20247">
        <ele>307.8</ele>
        <time>2021-10-09T04:51:32Z</time>
      </trkpt>
      <trkpt lat="42.83968" lon="2.20239">
        <ele>308</ele>
        <time>2021-10-09T04:51:35Z</time>
      </trkpt>
      <trkpt lat="42.83964" lon="2.20237">
        <ele>308</ele>
        <time>2021-10-09T04:51:38Z</time>
      </trkpt>
      <trkpt lat="42.8396" lon="2.20235">
        <ele>311.4</ele>
        <time>2021-10-09T04:53:22Z</time>
      </trkpt>
      <trkpt lat="42.83942" lon="2.20228">
        <ele>311.6</ele>
        <time>2021-10-09T04:53:26Z</time>
      </trkpt>
      <trkpt lat="42.83937" lon="2.20228">
        <ele>311.8</ele>
        <time>2021-10-09T04:53:27Z</time>
      </trkpt>
      <trkpt lat="42.83924" lon="2.20228">
        <ele>312</ele>
        <time>2021-10-09T04:53:29Z</time>
      </trkpt>
      <trkpt lat="42.83912" lon="2.20231">
        <ele>312.2</ele>
        <time>2021-10-09T04:53:31Z</time>
      </trkpt>
      <trkpt lat="42.83906" lon="2.20233">
        <ele>312.2</ele>
        <time>2021-10-09T04:53:32Z</time>
      </trkpt>
      <trkpt lat="42.83861" lon="2.2027">
        <ele>312</ele>
        <time>2021-10-09T04:53:38Z</time>
      </trkpt>
      <trkpt lat="42.83817" lon="2.20316">
        <ele>312.2</ele>
        <time>2021-10-09T04:53:45Z</time>
      </trkpt>
      <trkpt lat="42.83812" lon="2.20323">
        <ele>312.2</ele>
        <time>2021-10-09T04:53:46Z</time>
      </trkpt>
      <trkpt lat="42.83795" lon="2.20346">
        <ele>312.2</ele>
        <time>2021-10-09T04:53:49Z</time>
      </trkpt>
      <trkpt lat="42.83789" lon="2.20354">
        <ele>312.2</ele>
        <time>2021-10-09T04:53:50Z</time>
      </trkpt>
      <trkpt lat="42.83779" lon="2.2037">
        <ele>312.2</ele>
        <time>2021-10-09T04:53:52Z</time>
      </trkpt>
      <trkpt lat="42.83774" lon="2.20378">
        <ele>312.2</ele>
        <time>2021-10-09T04:53:53Z</time>
      </trkpt>
      <trkpt lat="42.8375" lon="2.20407">
        <ele>312.2</ele>
        <time>2021-10-09T04:53:57Z</time>
      </trkpt>
      <trkpt lat="42.83739" lon="2.20415">
        <ele>312.2</ele>
        <time>2021-10-09T04:53:59Z</time>
      </trkpt>
      <trkpt lat="42.83733" lon="2.2042">
        <ele>312.2</ele>
        <time>2021-10-09T04:54:00Z</time>
      </trkpt>
      <trkpt lat="42.8372" lon="2.20426">
        <ele>312.2</ele>
        <time>2021-10-09T04:54:02Z</time>
      </trkpt>
      <trkpt lat="42.83713" lon="2.20428">
        <ele>312.4</ele>
        <time>2021-10-09T04:54:03Z</time>
      </trkpt>
      <trkpt lat="42.83663" lon="2.20447">
        <ele>312.4</ele>
        <time>2021-10-09T04:54:10Z</time>
      </trkpt>
      <trkpt lat="42.83613" lon="2.20461">
        <ele>312.4</ele>
        <time>2021-10-09T04:54:17Z</time>
      </trkpt>
      <trkpt lat="42.83598" lon="2.20461">
        <ele>312.6</ele>
        <time>2021-10-09T04:54:19Z</time>
      </trkpt>
      <trkpt lat="42.83583" lon="2.20463">
        <ele>312.6</ele>
        <time>2021-10-09T04:54:21Z</time>
      </trkpt>
      <trkpt lat="42.83575" lon="2.20465">
        <ele>312.6</ele>
        <time>2021-10-09T04:54:22Z</time>
      </trkpt>
      <trkpt lat="42.83562" lon="2.20473">
        <ele>312.6</ele>
        <time>2021-10-09T04:54:24Z</time>
      </trkpt>
      <trkpt lat="42.83537" lon="2.20492">
        <ele>312.8</ele>
        <time>2021-10-09T04:54:28Z</time>
      </trkpt>
      <trkpt lat="42.83496" lon="2.20524">
        <ele>312.8</ele>
        <time>2021-10-09T04:54:35Z</time>
      </trkpt>
      <trkpt lat="42.83485" lon="2.20535">
        <ele>312.8</ele>
        <time>2021-10-09T04:54:37Z</time>
      </trkpt>
      <trkpt lat="42.8347" lon="2.20552">
        <ele>312.8</ele>
        <time>2021-10-09T04:54:40Z</time>
      </trkpt>
      <trkpt lat="42.83455" lon="2.20572">
        <ele>312.8</ele>
        <time>2021-10-09T04:54:43Z</time>
      </trkpt>
      <trkpt lat="42.83446" lon="2.20585">
        <ele>312.8</ele>
        <time>2021-10-09T04:54:45Z</time>
      </trkpt>
      <trkpt lat="42.83441" lon="2.20591">
        <ele>312.8</ele>
        <time>2021-10-09T04:54:46Z</time>
      </trkpt>
      <trkpt lat="42.83414" lon="2.2063">
        <ele>312.8</ele>
        <time>2021-10-09T04:54:52Z</time>
      </trkpt>
      <trkpt lat="42.83388" lon="2.20667">
        <ele>312.8</ele>
        <time>2021-10-09T04:54:58Z</time>
      </trkpt>
      <trkpt lat="42.8337" lon="2.20692">
        <ele>312.8</ele>
        <time>2021-10-09T04:55:02Z</time>
      </trkpt>
      <trkpt lat="42.83341" lon="2.20731">
        <ele>312.8</ele>
        <time>2021-10-09T04:55:08Z</time>
      </trkpt>
      <trkpt lat="42.83321" lon="2.20755">
        <ele>312.8</ele>
        <time>2021-10-09T04:55:12Z</time>
      </trkpt>
      <trkpt lat="42.83316" lon="2.20761">
        <ele>312.6</ele>
        <time>2021-10-09T04:55:13Z</time>
      </trkpt>
      <trkpt lat="42.83307" lon="2.20773">
        <ele>312.6</ele>
        <time>2021-10-09T04:55:15Z</time>
      </trkpt>
      <trkpt lat="42.83297" lon="2.20783">
        <ele>312.4</ele>
        <time>2021-10-09T04:55:17Z</time>
      </trkpt>
      <trkpt lat="42.83274" lon="2.20796">
        <ele>312.4</ele>
        <time>2021-10-09T04:55:21Z</time>
      </trkpt>
      <trkpt lat="42.83256" lon="2.20808">
        <ele>312.4</ele>
        <time>2021-10-09T04:55:24Z</time>
      </trkpt>
      <trkpt lat="42.83246" lon="2.20819">
        <ele>312.4</ele>
        <time>2021-10-09T04:55:26Z</time>
      </trkpt>
      <trkpt lat="42.83241" lon="2.20825">
        <ele>312.4</ele>
        <time>2021-10-09T04:55:27Z</time>
      </trkpt>
      <trkpt lat="42.83222" lon="2.20848">
        <ele>312.4</ele>
        <time>2021-10-09T04:55:31Z</time>
      </trkpt>
      <trkpt lat="42.83195" lon="2.20877">
        <ele>312.4</ele>
        <time>2021-10-09T04:55:37Z</time>
      </trkpt>
      <trkpt lat="42.83186" lon="2.20886">
        <ele>312.6</ele>
        <time>2021-10-09T04:55:39Z</time>
      </trkpt>
      <trkpt lat="42.83171" lon="2.20901">
        <ele>312.8</ele>
        <time>2021-10-09T04:55:42Z</time>
      </trkpt>
      <trkpt lat="42.83107" lon="2.21005">
        <ele>312.8</ele>
        <time>2021-10-09T04:56:00Z</time>
      </trkpt>
      <trkpt lat="42.83097" lon="2.21023">
        <ele>313</ele>
        <time>2021-10-09T04:56:03Z</time>
      </trkpt>
      <trkpt lat="42.83062" lon="2.21074">
        <ele>313.6</ele>
        <time>2021-10-09T04:56:10Z</time>
      </trkpt>
      <trkpt lat="42.83024" lon="2.2112">
        <ele>314.2</ele>
        <time>2021-10-09T04:56:18Z</time>
      </trkpt>
      <trkpt lat="42.82997" lon="2.21163">
        <ele>314.8</ele>
        <time>2021-10-09T04:56:25Z</time>
      </trkpt>
      <trkpt lat="42.82973" lon="2.21217">
        <ele>315.6</ele>
        <time>2021-10-09T04:56:33Z</time>
      </trkpt>
      <trkpt lat="42.8296" lon="2.21257">
        <ele>316.4</ele>
        <time>2021-10-09T04:56:39Z</time>
      </trkpt>
      <trkpt lat="42.82948" lon="2.21301">
        <ele>317.6</ele>
        <time>2021-10-09T04:56:46Z</time>
      </trkpt>
      <trkpt lat="42.82947" lon="2.21308">
        <ele>317.8</ele>
        <time>2021-10-09T04:56:47Z</time>
      </trkpt>
      <trkpt lat="42.82942" lon="2.21349">
        <ele>318.8</ele>
        <time>2021-10-09T04:56:53Z</time>
      </trkpt>
      <trkpt lat="42.82943" lon="2.21406">
        <ele>320.4</ele>
        <time>2021-10-09T04:57:01Z</time>
      </trkpt>
      <trkpt lat="42.8295" lon="2.2147">
        <ele>321.6</ele>
        <time>2021-10-09T04:57:09Z</time>
      </trkpt>
      <trkpt lat="42.82958" lon="2.21545">
        <ele>324</ele>
        <time>2021-10-09T04:57:18Z</time>
      </trkpt>
      <trkpt lat="42.82961" lon="2.2157">
        <ele>325.4</ele>
        <time>2021-10-09T04:57:21Z</time>
      </trkpt>
      <trkpt lat="42.82966" lon="2.21649">
        <ele>328.2</ele>
        <time>2021-10-09T04:57:30Z</time>
      </trkpt>
      <trkpt lat="42.8296" lon="2.21716">
        <ele>330.4</ele>
        <time>2021-10-09T04:57:38Z</time>
      </trkpt>
      <trkpt lat="42.82951" lon="2.21774">
        <ele>332</ele>
        <time>2021-10-09T04:57:45Z</time>
      </trkpt>
      <trkpt lat="42.82938" lon="2.21841">
        <ele>334</ele>
        <time>2021-10-09T04:57:53Z</time>
      </trkpt>
      <trkpt lat="42.82929" lon="2.21917">
        <ele>335.6</ele>
        <time>2021-10-09T04:58:02Z</time>
      </trkpt>
      <trkpt lat="42.82929" lon="2.21926">
        <ele>335.8</ele>
        <time>2021-10-09T04:58:03Z</time>
      </trkpt>
      <trkpt lat="42.82926" lon="2.22003">
        <ele>337.8</ele>
        <time>2021-10-09T04:58:12Z</time>
      </trkpt>
      <trkpt lat="42.82926" lon="2.22078">
        <ele>339.6</ele>
        <time>2021-10-09T04:58:21Z</time>
      </trkpt>
      <trkpt lat="42.82926" lon="2.22102">
        <ele>340.4</ele>
        <time>2021-10-09T04:58:24Z</time>
      </trkpt>
      <trkpt lat="42.8293" lon="2.22169">
        <ele>342.2</ele>
        <time>2021-10-09T04:58:32Z</time>
      </trkpt>
      <trkpt lat="42.82939" lon="2.22247">
        <ele>344</ele>
        <time>2021-10-09T04:58:41Z</time>
      </trkpt>
      <trkpt lat="42.8294" lon="2.22256">
        <ele>344.2</ele>
        <time>2021-10-09T04:58:42Z</time>
      </trkpt>
      <trkpt lat="42.82945" lon="2.22323">
        <ele>345.2</ele>
        <time>2021-10-09T04:58:49Z</time>
      </trkpt>
      <trkpt lat="42.82943" lon="2.22353">
        <ele>345.6</ele>
        <time>2021-10-09T04:58:52Z</time>
      </trkpt>
      <trkpt lat="42.82939" lon="2.22372">
        <ele>346</ele>
        <time>2021-10-09T04:58:54Z</time>
      </trkpt>
      <trkpt lat="42.82933" lon="2.22391">
        <ele>346.2</ele>
        <time>2021-10-09T04:58:56Z</time>
      </trkpt>
      <trkpt lat="42.82922" lon="2.22416">
        <ele>346.6</ele>
        <time>2021-10-09T04:58:59Z</time>
      </trkpt>
      <trkpt lat="42.82897" lon="2.22451">
        <ele>347.4</ele>
        <time>2021-10-09T04:59:04Z</time>
      </trkpt>
      <trkpt lat="42.82862" lon="2.22482">
        <ele>348</ele>
        <time>2021-10-09T04:59:10Z</time>
      </trkpt>
      <trkpt lat="42.82814" lon="2.22522">
        <ele>348.8</ele>
        <time>2021-10-09T04:59:18Z</time>
      </trkpt>
      <trkpt lat="42.82807" lon="2.22527">
        <ele>348.8</ele>
        <time>2021-10-09T04:59:19Z</time>
      </trkpt>
      <trkpt lat="42.8277" lon="2.22556">
        <ele>349.4</ele>
        <time>2021-10-09T04:59:25Z</time>
      </trkpt>
      <trkpt lat="42.82723" lon="2.22574">
        <ele>350</ele>
        <time>2021-10-09T04:59:32Z</time>
      </trkpt>
      <trkpt lat="42.82684" lon="2.22594">
        <ele>350.4</ele>
        <time>2021-10-09T04:59:38Z</time>
      </trkpt>
      <trkpt lat="42.82643" lon="2.22625">
        <ele>350.8</ele>
        <time>2021-10-09T04:59:45Z</time>
      </trkpt>
      <trkpt lat="42.82632" lon="2.22634">
        <ele>351</ele>
        <time>2021-10-09T04:59:47Z</time>
      </trkpt>
      <trkpt lat="42.82622" lon="2.22644">
        <ele>351.2</ele>
        <time>2021-10-09T04:59:49Z</time>
      </trkpt>
      <trkpt lat="42.8259" lon="2.22674">
        <ele>351.4</ele>
        <time>2021-10-09T04:59:55Z</time>
      </trkpt>
      <trkpt lat="42.82567" lon="2.22697">
        <ele>351.6</ele>
        <time>2021-10-09T04:59:59Z</time>
      </trkpt>
      <trkpt lat="42.82557" lon="2.22709">
        <ele>351.6</ele>
        <time>2021-10-09T05:00:01Z</time>
      </trkpt>
      <trkpt lat="42.82552" lon="2.22715">
        <ele>351.6</ele>
        <time>2021-10-09T05:00:02Z</time>
      </trkpt>
      <trkpt lat="42.82536" lon="2.22734">
        <ele>351.8</ele>
        <time>2021-10-09T05:00:05Z</time>
      </trkpt>
      <trkpt lat="42.82526" lon="2.22746">
        <ele>351.8</ele>
        <time>2021-10-09T05:00:07Z</time>
      </trkpt>
      <trkpt lat="42.82513" lon="2.22764">
        <ele>352</ele>
        <time>2021-10-09T05:00:10Z</time>
      </trkpt>
      <trkpt lat="42.82481" lon="2.22797">
        <ele>352.2</ele>
        <time>2021-10-09T05:00:16Z</time>
      </trkpt>
      <trkpt lat="42.82445" lon="2.22822">
        <ele>352.4</ele>
        <time>2021-10-09T05:00:22Z</time>
      </trkpt>
      <trkpt lat="42.82403" lon="2.22846">
        <ele>352.8</ele>
        <time>2021-10-09T05:00:29Z</time>
      </trkpt>
      <trkpt lat="42.82398" lon="2.22849">
        <ele>352.8</ele>
        <time>2021-10-09T05:00:30Z</time>
      </trkpt>
      <trkpt lat="42.82356" lon="2.22867">
        <ele>353.2</ele>
        <time>2021-10-09T05:00:37Z</time>
      </trkpt>
      <trkpt lat="42.82318" lon="2.22873">
        <ele>353.6</ele>
        <time>2021-10-09T05:00:43Z</time>
      </trkpt>
      <trkpt lat="42.82305" lon="2.22872">
        <ele>353.8</ele>
        <time>2021-10-09T05:00:45Z</time>
      </trkpt>
      <trkpt lat="42.82292" lon="2.22865">
        <ele>354</ele>
        <time>2021-10-09T05:00:47Z</time>
      </trkpt>
      <trkpt lat="42.82286" lon="2.2286">
        <ele>354.2</ele>
        <time>2021-10-09T05:00:48Z</time>
      </trkpt>
      <trkpt lat="42.82276" lon="2.22847">
        <ele>354.4</ele>
        <time>2021-10-09T05:00:50Z</time>
      </trkpt>
      <trkpt lat="42.82273" lon="2.22841">
        <ele>354.6</ele>
        <time>2021-10-09T05:00:51Z</time>
      </trkpt>
      <trkpt lat="42.82269" lon="2.22835">
        <ele>354.6</ele>
        <time>2021-10-09T05:00:52Z</time>
      </trkpt>
      <trkpt lat="42.82265" lon="2.22817">
        <ele>355</ele>
        <time>2021-10-09T05:00:54Z</time>
      </trkpt>
      <trkpt lat="42.82266" lon="2.22799">
        <ele>355.2</ele>
        <time>2021-10-09T05:00:56Z</time>
      </trkpt>
      <trkpt lat="42.82268" lon="2.22784">
        <ele>355.6</ele>
        <time>2021-10-09T05:00:58Z</time>
      </trkpt>
      <trkpt lat="42.82273" lon="2.22761">
        <ele>355.8</ele>
        <time>2021-10-09T05:01:01Z</time>
      </trkpt>
      <trkpt lat="42.82276" lon="2.22748">
        <ele>356</ele>
        <time>2021-10-09T05:01:03Z</time>
      </trkpt>
      <trkpt lat="42.82293" lon="2.22708">
        <ele>356.6</ele>
        <time>2021-10-09T05:01:09Z</time>
      </trkpt>
      <trkpt lat="42.82297" lon="2.22694">
        <ele>356.8</ele>
        <time>2021-10-09T05:01:11Z</time>
      </trkpt>
      <trkpt lat="42.823" lon="2.22679">
        <ele>357</ele>
        <time>2021-10-09T05:01:13Z</time>
      </trkpt>
      <trkpt lat="42.82295" lon="2.22618">
        <ele>358</ele>
        <time>2021-10-09T05:01:20Z</time>
      </trkpt>
      <trkpt lat="42.82294" lon="2.2261">
        <ele>358</ele>
        <time>2021-10-09T05:01:21Z</time>
      </trkpt>
      <trkpt lat="42.82292" lon="2.22601">
        <ele>358.2</ele>
        <time>2021-10-09T05:01:22Z</time>
      </trkpt>
      <trkpt lat="42.82281" lon="2.22571">
        <ele>358.6</ele>
        <time>2021-10-09T05:01:26Z</time>
      </trkpt>
      <trkpt lat="42.82258" lon="2.22529">
        <ele>359.2</ele>
        <time>2021-10-09T05:01:32Z</time>
      </trkpt>
      <trkpt lat="42.82223" lon="2.22496">
        <ele>360</ele>
        <time>2021-10-09T05:01:39Z</time>
      </trkpt>
      <trkpt lat="42.82187" lon="2.22482">
        <ele>360.6</ele>
        <time>2021-10-09T05:01:45Z</time>
      </trkpt>
      <trkpt lat="42.82157" lon="2.22478">
        <ele>361</ele>
        <time>2021-10-09T05:01:50Z</time>
      </trkpt>
      <trkpt lat="42.82151" lon="2.22479">
        <ele>361</ele>
        <time>2021-10-09T05:01:51Z</time>
      </trkpt>
      <trkpt lat="42.82145" lon="2.22481">
        <ele>361.2</ele>
        <time>2021-10-09T05:01:52Z</time>
      </trkpt>
      <trkpt lat="42.82129" lon="2.2249">
        <ele>361.4</ele>
        <time>2021-10-09T05:01:55Z</time>
      </trkpt>
      <trkpt lat="42.82098" lon="2.22527">
        <ele>361.8</ele>
        <time>2021-10-09T05:02:01Z</time>
      </trkpt>
      <trkpt lat="42.82072" lon="2.22564">
        <ele>362.2</ele>
        <time>2021-10-09T05:02:08Z</time>
      </trkpt>
      <trkpt lat="42.82041" lon="2.22625">
        <ele>362.6</ele>
        <time>2021-10-09T05:02:16Z</time>
      </trkpt>
      <trkpt lat="42.82039" lon="2.22632">
        <ele>362.6</ele>
        <time>2021-10-09T05:02:17Z</time>
      </trkpt>
      <trkpt lat="42.82024" lon="2.22686">
        <ele>363</ele>
        <time>2021-10-09T05:02:24Z</time>
      </trkpt>
      <trkpt lat="42.82005" lon="2.22744">
        <ele>363.4</ele>
        <time>2021-10-09T05:02:32Z</time>
      </trkpt>
      <trkpt lat="42.81998" lon="2.22757">
        <ele>363.4</ele>
        <time>2021-10-09T05:02:34Z</time>
      </trkpt>
      <trkpt lat="42.81986" lon="2.22773">
        <ele>363.6</ele>
        <time>2021-10-09T05:02:37Z</time>
      </trkpt>
      <trkpt lat="42.81976" lon="2.22781">
        <ele>363.8</ele>
        <time>2021-10-09T05:02:39Z</time>
      </trkpt>
      <trkpt lat="42.81966" lon="2.22788">
        <ele>364</ele>
        <time>2021-10-09T05:02:41Z</time>
      </trkpt>
      <trkpt lat="42.81937" lon="2.22794">
        <ele>364.4</ele>
        <time>2021-10-09T05:02:46Z</time>
      </trkpt>
      <trkpt lat="42.81882" lon="2.22797">
        <ele>365</ele>
        <time>2021-10-09T05:02:55Z</time>
      </trkpt>
      <trkpt lat="42.81844" lon="2.228">
        <ele>365.6</ele>
        <time>2021-10-09T05:03:01Z</time>
      </trkpt>
      <trkpt lat="42.81832" lon="2.22804">
        <ele>365.8</ele>
        <time>2021-10-09T05:03:03Z</time>
      </trkpt>
      <trkpt lat="42.81797" lon="2.22824">
        <ele>366.2</ele>
        <time>2021-10-09T05:03:10Z</time>
      </trkpt>
      <trkpt lat="42.81746" lon="2.22858">
        <ele>366.8</ele>
        <time>2021-10-09T05:03:18Z</time>
      </trkpt>
      <trkpt lat="42.81706" lon="2.22884">
        <ele>367.2</ele>
        <time>2021-10-09T05:03:25Z</time>
      </trkpt>
      <trkpt lat="42.81692" lon="2.22885">
        <ele>367.4</ele>
        <time>2021-10-09T05:03:27Z</time>
      </trkpt>
      <trkpt lat="42.8168" lon="2.22882">
        <ele>367.4</ele>
        <time>2021-10-09T05:03:29Z</time>
      </trkpt>
      <trkpt lat="42.81667" lon="2.22874">
        <ele>367.6</ele>
        <time>2021-10-09T05:03:31Z</time>
      </trkpt>
      <trkpt lat="42.81657" lon="2.22863">
        <ele>367.8</ele>
        <time>2021-10-09T05:03:33Z</time>
      </trkpt>
      <trkpt lat="42.81649" lon="2.22848">
        <ele>368</ele>
        <time>2021-10-09T05:03:35Z</time>
      </trkpt>
      <trkpt lat="42.81638" lon="2.22826">
        <ele>368.4</ele>
        <time>2021-10-09T05:03:38Z</time>
      </trkpt>
      <trkpt lat="42.81624" lon="2.22798">
        <ele>368.8</ele>
        <time>2021-10-09T05:03:42Z</time>
      </trkpt>
      <trkpt lat="42.81615" lon="2.22786">
        <ele>369</ele>
        <time>2021-10-09T05:03:44Z</time>
      </trkpt>
      <trkpt lat="42.81606" lon="2.22776">
        <ele>369.2</ele>
        <time>2021-10-09T05:03:46Z</time>
      </trkpt>
      <trkpt lat="42.81594" lon="2.22768">
        <ele>369.4</ele>
        <time>2021-10-09T05:03:48Z</time>
      </trkpt>
      <trkpt lat="42.81582" lon="2.22765">
        <ele>369.6</ele>
        <time>2021-10-09T05:03:50Z</time>
      </trkpt>
      <trkpt lat="42.81569" lon="2.22765">
        <ele>370</ele>
        <time>2021-10-09T05:03:52Z</time>
      </trkpt>
      <trkpt lat="42.81556" lon="2.22766">
        <ele>370.2</ele>
        <time>2021-10-09T05:03:54Z</time>
      </trkpt>
      <trkpt lat="42.81544" lon="2.22758">
        <ele>370.4</ele>
        <time>2021-10-09T05:03:56Z</time>
      </trkpt>
      <trkpt lat="42.81498" lon="2.22723">
        <ele>371.2</ele>
        <time>2021-10-09T05:04:04Z</time>
      </trkpt>
      <trkpt lat="42.81466" lon="2.22697">
        <ele>371.6</ele>
        <time>2021-10-09T05:04:10Z</time>
      </trkpt>
      <trkpt lat="42.8144" lon="2.22674">
        <ele>372</ele>
        <time>2021-10-09T05:04:15Z</time>
      </trkpt>
      <trkpt lat="42.81436" lon="2.22668">
        <ele>372</ele>
        <time>2021-10-09T05:04:16Z</time>
      </trkpt>
      <trkpt lat="42.81427" lon="2.22655">
        <ele>372</ele>
        <time>2021-10-09T05:04:18Z</time>
      </trkpt>
      <trkpt lat="42.81422" lon="2.2264">
        <ele>372.2</ele>
        <time>2021-10-09T05:04:20Z</time>
      </trkpt>
      <trkpt lat="42.81421" lon="2.22632">
        <ele>372.2</ele>
        <time>2021-10-09T05:04:21Z</time>
      </trkpt>
      <trkpt lat="42.81423" lon="2.2259">
        <ele>372</ele>
        <time>2021-10-09T05:04:26Z</time>
      </trkpt>
      <trkpt lat="42.81429" lon="2.22566">
        <ele>372.2</ele>
        <time>2021-10-09T05:04:29Z</time>
      </trkpt>
      <trkpt lat="42.81436" lon="2.2255">
        <ele>372.2</ele>
        <time>2021-10-09T05:04:31Z</time>
      </trkpt>
      <trkpt lat="42.81447" lon="2.22528">
        <ele>372.4</ele>
        <time>2021-10-09T05:04:34Z</time>
      </trkpt>
      <trkpt lat="42.81458" lon="2.22507">
        <ele>372.4</ele>
        <time>2021-10-09T05:04:37Z</time>
      </trkpt>
      <trkpt lat="42.81491" lon="2.22442">
        <ele>372.6</ele>
        <time>2021-10-09T05:04:46Z</time>
      </trkpt>
      <trkpt lat="42.81511" lon="2.22399">
        <ele>372.8</ele>
        <time>2021-10-09T05:04:52Z</time>
      </trkpt>
      <trkpt lat="42.81512" lon="2.22357">
        <ele>372.8</ele>
        <time>2021-10-09T05:04:57Z</time>
      </trkpt>
      <trkpt lat="42.81512" lon="2.2234">
        <ele>372.8</ele>
        <time>2021-10-09T05:04:59Z</time>
      </trkpt>
      <trkpt lat="42.81513" lon="2.22324">
        <ele>372.8</ele>
        <time>2021-10-09T05:05:01Z</time>
      </trkpt>
      <trkpt lat="42.81522" lon="2.22284">
        <ele>373</ele>
        <time>2021-10-09T05:05:06Z</time>
      </trkpt>
      <trkpt lat="42.81527" lon="2.22263">
        <ele>373</ele>
        <time>2021-10-09T05:05:09Z</time>
      </trkpt>
      <trkpt lat="42.81529" lon="2.22255">
        <ele>372.8</ele>
        <time>2021-10-09T05:05:10Z</time>
      </trkpt>
      <trkpt lat="42.81535" lon="2.22234">
        <ele>372.8</ele>
        <time>2021-10-09T05:05:13Z</time>
      </trkpt>
      <trkpt lat="42.81537" lon="2.22218">
        <ele>373</ele>
        <time>2021-10-09T05:05:15Z</time>
      </trkpt>
      <trkpt lat="42.81534" lon="2.22203">
        <ele>372.8</ele>
        <time>2021-10-09T05:05:17Z</time>
      </trkpt>
      <trkpt lat="42.8153" lon="2.22196">
        <ele>373</ele>
        <time>2021-10-09T05:05:18Z</time>
      </trkpt>
      <trkpt lat="42.81525" lon="2.2219">
        <ele>373</ele>
        <time>2021-10-09T05:05:19Z</time>
      </trkpt>
      <trkpt lat="42.81514" lon="2.22183">
        <ele>373.2</ele>
        <time>2021-10-09T05:05:21Z</time>
      </trkpt>
      <trkpt lat="42.81508" lon="2.22182">
        <ele>373.2</ele>
        <time>2021-10-09T05:05:22Z</time>
      </trkpt>
      <trkpt lat="42.81498" lon="2.22178">
        <ele>373.2</ele>
        <time>2021-10-09T05:05:24Z</time>
      </trkpt>
      <trkpt lat="42.81485" lon="2.22176">
        <ele>373.4</ele>
        <time>2021-10-09T05:05:26Z</time>
      </trkpt>
      <trkpt lat="42.81468" lon="2.22175">
        <ele>373.4</ele>
        <time>2021-10-09T05:05:29Z</time>
      </trkpt>
      <trkpt lat="42.81458" lon="2.22174">
        <ele>373.4</ele>
        <time>2021-10-09T05:05:31Z</time>
      </trkpt>
      <trkpt lat="42.81447" lon="2.2217">
        <ele>373.4</ele>
        <time>2021-10-09T05:05:33Z</time>
      </trkpt>
      <trkpt lat="42.81437" lon="2.22161">
        <ele>373.4</ele>
        <time>2021-10-09T05:05:35Z</time>
      </trkpt>
      <trkpt lat="42.81429" lon="2.22148">
        <ele>373.4</ele>
        <time>2021-10-09T05:05:37Z</time>
      </trkpt>
      <trkpt lat="42.81424" lon="2.22134">
        <ele>373.4</ele>
        <time>2021-10-09T05:05:39Z</time>
      </trkpt>
      <trkpt lat="42.81419" lon="2.22104">
        <ele>373.8</ele>
        <time>2021-10-09T05:05:43Z</time>
      </trkpt>
      <trkpt lat="42.81419" lon="2.22083">
        <ele>374.6</ele>
        <time>2021-10-09T05:05:46Z</time>
      </trkpt>
      <trkpt lat="42.81423" lon="2.22063">
        <ele>375.2</ele>
        <time>2021-10-09T05:05:48Z</time>
      </trkpt>
      <trkpt lat="42.81426" lon="2.22057">
        <ele>375.6</ele>
        <time>2021-10-09T05:05:49Z</time>
      </trkpt>
      <trkpt lat="42.81431" lon="2.22046">
        <ele>376</ele>
        <time>2021-10-09T05:05:51Z</time>
      </trkpt>
      <trkpt lat="42.81433" lon="2.22039">
        <ele>376.2</ele>
        <time>2021-10-09T05:05:52Z</time>
      </trkpt>
      <trkpt lat="42.81439" lon="2.22026">
        <ele>376.6</ele>
        <time>2021-10-09T05:05:54Z</time>
      </trkpt>
      <trkpt lat="42.81443" lon="2.2202">
        <ele>376.8</ele>
        <time>2021-10-09T05:05:55Z</time>
      </trkpt>
      <trkpt lat="42.81462" lon="2.22003">
        <ele>377.6</ele>
        <time>2021-10-09T05:05:59Z</time>
      </trkpt>
      <trkpt lat="42.81499" lon="2.21988">
        <ele>378.4</ele>
        <time>2021-10-09T05:06:06Z</time>
      </trkpt>
      <trkpt lat="42.81514" lon="2.21979">
        <ele>378.6</ele>
        <time>2021-10-09T05:06:09Z</time>
      </trkpt>
      <trkpt lat="42.81524" lon="2.2197">
        <ele>379</ele>
        <time>2021-10-09T05:06:11Z</time>
      </trkpt>
      <trkpt lat="42.81531" lon="2.21957">
        <ele>379</ele>
        <time>2021-10-09T05:06:13Z</time>
      </trkpt>
      <trkpt lat="42.81534" lon="2.21942">
        <ele>379</ele>
        <time>2021-10-09T05:06:15Z</time>
      </trkpt>
      <trkpt lat="42.81535" lon="2.21927">
        <ele>379.2</ele>
        <time>2021-10-09T05:06:17Z</time>
      </trkpt>
      <trkpt lat="42.81533" lon="2.21913">
        <ele>379.2</ele>
        <time>2021-10-09T05:06:19Z</time>
      </trkpt>
      <trkpt lat="42.81531" lon="2.21898">
        <ele>379</ele>
        <time>2021-10-09T05:06:21Z</time>
      </trkpt>
      <trkpt lat="42.81527" lon="2.21883">
        <ele>379</ele>
        <time>2021-10-09T05:06:23Z</time>
      </trkpt>
      <trkpt lat="42.81526" lon="2.21875">
        <ele>379</ele>
        <time>2021-10-09T05:06:24Z</time>
      </trkpt>
      <trkpt lat="42.8152" lon="2.21835">
        <ele>378.8</ele>
        <time>2021-10-09T05:06:29Z</time>
      </trkpt>
      <trkpt lat="42.81521" lon="2.2182">
        <ele>379.8</ele>
        <time>2021-10-09T05:06:31Z</time>
      </trkpt>
      <trkpt lat="42.81521" lon="2.21806">
        <ele>379</ele>
        <time>2021-10-09T05:06:33Z</time>
      </trkpt>
      <trkpt lat="42.81521" lon="2.21798">
        <ele>378.6</ele>
        <time>2021-10-09T05:06:34Z</time>
      </trkpt>
      <trkpt lat="42.81523" lon="2.21776">
        <ele>378.2</ele>
        <time>2021-10-09T05:06:37Z</time>
      </trkpt>
      <trkpt lat="42.81524" lon="2.21769">
        <ele>378.2</ele>
        <time>2021-10-09T05:06:38Z</time>
      </trkpt>
      <trkpt lat="42.81529" lon="2.21753">
        <ele>377.8</ele>
        <time>2021-10-09T05:06:40Z</time>
      </trkpt>
      <trkpt lat="42.81536" lon="2.21739">
        <ele>377.4</ele>
        <time>2021-10-09T05:06:42Z</time>
      </trkpt>
      <trkpt lat="42.81539" lon="2.21733">
        <ele>377.2</ele>
        <time>2021-10-09T05:06:43Z</time>
      </trkpt>
      <trkpt lat="42.81561" lon="2.217">
        <ele>377</ele>
        <time>2021-10-09T05:06:49Z</time>
      </trkpt>
      <trkpt lat="42.81575" lon="2.21688">
        <ele>377.2</ele>
        <time>2021-10-09T05:06:52Z</time>
      </trkpt>
      <trkpt lat="42.81589" lon="2.21675">
        <ele>377.4</ele>
        <time>2021-10-09T05:06:55Z</time>
      </trkpt>
      <trkpt lat="42.81607" lon="2.21632">
        <ele>377.4</ele>
        <time>2021-10-09T05:07:01Z</time>
      </trkpt>
      <trkpt lat="42.81611" lon="2.21602">
        <ele>376.4</ele>
        <time>2021-10-09T05:07:05Z</time>
      </trkpt>
      <trkpt lat="42.81611" lon="2.21586">
        <ele>376.4</ele>
        <time>2021-10-09T05:07:07Z</time>
      </trkpt>
      <trkpt lat="42.8161" lon="2.21563">
        <ele>376.4</ele>
        <time>2021-10-09T05:07:10Z</time>
      </trkpt>
      <trkpt lat="42.81602" lon="2.21518">
        <ele>377.6</ele>
        <time>2021-10-09T05:07:16Z</time>
      </trkpt>
      <trkpt lat="42.81592" lon="2.21466">
        <ele>377.6</ele>
        <time>2021-10-09T05:07:23Z</time>
      </trkpt>
      <trkpt lat="42.81588" lon="2.21452">
        <ele>377.8</ele>
        <time>2021-10-09T05:07:25Z</time>
      </trkpt>
      <trkpt lat="42.81585" lon="2.21437">
        <ele>377.8</ele>
        <time>2021-10-09T05:07:27Z</time>
      </trkpt>
      <trkpt lat="42.81585" lon="2.21429">
        <ele>377.8</ele>
        <time>2021-10-09T05:07:28Z</time>
      </trkpt>
      <trkpt lat="42.81586" lon="2.21391">
        <ele>377.8</ele>
        <time>2021-10-09T05:07:33Z</time>
      </trkpt>
      <trkpt lat="42.81587" lon="2.21384">
        <ele>377.8</ele>
        <time>2021-10-09T05:07:34Z</time>
      </trkpt>
      <trkpt lat="42.8159" lon="2.21369">
        <ele>377.6</ele>
        <time>2021-10-09T05:07:36Z</time>
      </trkpt>
      <trkpt lat="42.81594" lon="2.21347">
        <ele>377.8</ele>
        <time>2021-10-09T05:07:39Z</time>
      </trkpt>
      <trkpt lat="42.81614" lon="2.21285">
        <ele>376.6</ele>
        <time>2021-10-09T05:07:48Z</time>
      </trkpt>
      <trkpt lat="42.81621" lon="2.21241">
        <ele>375.6</ele>
        <time>2021-10-09T05:07:54Z</time>
      </trkpt>
      <trkpt lat="42.81622" lon="2.21234">
        <ele>375.6</ele>
        <time>2021-10-09T05:07:55Z</time>
      </trkpt>
      <trkpt lat="42.81622" lon="2.21219">
        <ele>375.2</ele>
        <time>2021-10-09T05:07:57Z</time>
      </trkpt>
      <trkpt lat="42.81619" lon="2.21197">
        <ele>375</ele>
        <time>2021-10-09T05:08:00Z</time>
      </trkpt>
      <trkpt lat="42.81618" lon="2.2119">
        <ele>375</ele>
        <time>2021-10-09T05:08:01Z</time>
      </trkpt>
      <trkpt lat="42.81614" lon="2.21175">
        <ele>374.8</ele>
        <time>2021-10-09T05:08:03Z</time>
      </trkpt>
      <trkpt lat="42.81612" lon="2.21169">
        <ele>374.6</ele>
        <time>2021-10-09T05:08:04Z</time>
      </trkpt>
      <trkpt lat="42.81604" lon="2.21142">
        <ele>374.4</ele>
        <time>2021-10-09T05:08:08Z</time>
      </trkpt>
      <trkpt lat="42.81596" lon="2.21123">
        <ele>374.2</ele>
        <time>2021-10-09T05:08:11Z</time>
      </trkpt>
      <trkpt lat="42.81594" lon="2.21117">
        <ele>374.2</ele>
        <time>2021-10-09T05:08:12Z</time>
      </trkpt>
      <trkpt lat="42.81587" lon="2.21087">
        <ele>374.2</ele>
        <time>2021-10-09T05:08:16Z</time>
      </trkpt>
      <trkpt lat="42.81586" lon="2.21063">
        <ele>374.4</ele>
        <time>2021-10-09T05:08:19Z</time>
      </trkpt>
      <trkpt lat="42.81585" lon="2.21049">
        <ele>374.6</ele>
        <time>2021-10-09T05:08:21Z</time>
      </trkpt>
      <trkpt lat="42.81586" lon="2.2102">
        <ele>374.2</ele>
        <time>2021-10-09T05:08:25Z</time>
      </trkpt>
      <trkpt lat="42.81588" lon="2.21005">
        <ele>374.2</ele>
        <time>2021-10-09T05:08:27Z</time>
      </trkpt>
      <trkpt lat="42.81595" lon="2.20983">
        <ele>374</ele>
        <time>2021-10-09T05:08:30Z</time>
      </trkpt>
      <trkpt lat="42.81597" lon="2.20977">
        <ele>374.2</ele>
        <time>2021-10-09T05:08:31Z</time>
      </trkpt>
      <trkpt lat="42.8161" lon="2.20956">
        <ele>374.6</ele>
        <time>2021-10-09T05:08:35Z</time>
      </trkpt>
      <trkpt lat="42.81634" lon="2.20926">
        <ele>375</ele>
        <time>2021-10-09T05:08:41Z</time>
      </trkpt>
      <trkpt lat="42.81661" lon="2.20902">
        <ele>375.4</ele>
        <time>2021-10-09T05:08:47Z</time>
      </trkpt>
      <trkpt lat="42.81674" lon="2.20883">
        <ele>375.6</ele>
        <time>2021-10-09T05:08:50Z</time>
      </trkpt>
      <trkpt lat="42.81679" lon="2.20868">
        <ele>375.8</ele>
        <time>2021-10-09T05:08:52Z</time>
      </trkpt>
      <trkpt lat="42.81684" lon="2.20839">
        <ele>376</ele>
        <time>2021-10-09T05:08:56Z</time>
      </trkpt>
      <trkpt lat="42.81684" lon="2.20832">
        <ele>376</ele>
        <time>2021-10-09T05:08:57Z</time>
      </trkpt>
      <trkpt lat="42.81684" lon="2.2081">
        <ele>376</ele>
        <time>2021-10-09T05:09:00Z</time>
      </trkpt>
      <trkpt lat="42.81683" lon="2.20789">
        <ele>376.2</ele>
        <time>2021-10-09T05:09:03Z</time>
      </trkpt>
      <trkpt lat="42.81683" lon="2.20782">
        <ele>376.2</ele>
        <time>2021-10-09T05:09:04Z</time>
      </trkpt>
      <trkpt lat="42.81683" lon="2.20766">
        <ele>376.4</ele>
        <time>2021-10-09T05:09:06Z</time>
      </trkpt>
      <trkpt lat="42.81684" lon="2.20758">
        <ele>376.4</ele>
        <time>2021-10-09T05:09:07Z</time>
      </trkpt>
      <trkpt lat="42.81697" lon="2.20705">
        <ele>377.2</ele>
        <time>2021-10-09T05:09:14Z</time>
      </trkpt>
      <trkpt lat="42.81704" lon="2.20677">
        <ele>377.6</ele>
        <time>2021-10-09T05:09:18Z</time>
      </trkpt>
      <trkpt lat="42.81705" lon="2.20669">
        <ele>377.6</ele>
        <time>2021-10-09T05:09:19Z</time>
      </trkpt>
      <trkpt lat="42.81717" lon="2.20617">
        <ele>378.6</ele>
        <time>2021-10-09T05:09:26Z</time>
      </trkpt>
      <trkpt lat="42.81719" lon="2.2061">
        <ele>378.8</ele>
        <time>2021-10-09T05:09:27Z</time>
      </trkpt>
      <trkpt lat="42.81726" lon="2.20588">
        <ele>379.2</ele>
        <time>2021-10-09T05:09:30Z</time>
      </trkpt>
      <trkpt lat="42.81742" lon="2.20532">
        <ele>379.6</ele>
        <time>2021-10-09T05:09:38Z</time>
      </trkpt>
      <trkpt lat="42.81749" lon="2.20504">
        <ele>379.8</ele>
        <time>2021-10-09T05:09:42Z</time>
      </trkpt>
      <trkpt lat="42.81751" lon="2.2049">
        <ele>380</ele>
        <time>2021-10-09T05:09:44Z</time>
      </trkpt>
      <trkpt lat="42.8175" lon="2.20473">
        <ele>380</ele>
        <time>2021-10-09T05:09:46Z</time>
      </trkpt>
      <trkpt lat="42.81744" lon="2.20456">
        <ele>380.2</ele>
        <time>2021-10-09T05:09:48Z</time>
      </trkpt>
      <trkpt lat="42.81731" lon="2.20446">
        <ele>380.6</ele>
        <time>2021-10-09T05:09:50Z</time>
      </trkpt>
      <trkpt lat="42.81725" lon="2.20444">
        <ele>380.8</ele>
        <time>2021-10-09T05:09:51Z</time>
      </trkpt>
      <trkpt lat="42.81692" lon="2.20442">
        <ele>382</ele>
        <time>2021-10-09T05:09:56Z</time>
      </trkpt>
      <trkpt lat="42.8168" lon="2.20437">
        <ele>382.4</ele>
        <time>2021-10-09T05:09:58Z</time>
      </trkpt>
      <trkpt lat="42.81656" lon="2.20416">
        <ele>383.2</ele>
        <time>2021-10-09T05:10:03Z</time>
      </trkpt>
      <trkpt lat="42.81652" lon="2.2041">
        <ele>383.4</ele>
        <time>2021-10-09T05:10:04Z</time>
      </trkpt>
      <trkpt lat="42.81648" lon="2.20404">
        <ele>383.6</ele>
        <time>2021-10-09T05:10:05Z</time>
      </trkpt>
      <trkpt lat="42.81642" lon="2.2039">
        <ele>384</ele>
        <time>2021-10-09T05:10:07Z</time>
      </trkpt>
      <trkpt lat="42.81645" lon="2.20375">
        <ele>384.4</ele>
        <time>2021-10-09T05:10:09Z</time>
      </trkpt>
      <trkpt lat="42.81648" lon="2.20367">
        <ele>384.4</ele>
        <time>2021-10-09T05:10:10Z</time>
      </trkpt>
      <trkpt lat="42.8166" lon="2.20332">
        <ele>385</ele>
        <time>2021-10-09T05:10:15Z</time>
      </trkpt>
      <trkpt lat="42.81663" lon="2.20325">
        <ele>385</ele>
        <time>2021-10-09T05:10:16Z</time>
      </trkpt>
      <trkpt lat="42.81669" lon="2.20312">
        <ele>385.4</ele>
        <time>2021-10-09T05:10:18Z</time>
      </trkpt>
      <trkpt lat="42.81675" lon="2.20299">
        <ele>385.6</ele>
        <time>2021-10-09T05:10:20Z</time>
      </trkpt>
      <trkpt lat="42.81677" lon="2.20292">
        <ele>385.8</ele>
        <time>2021-10-09T05:10:21Z</time>
      </trkpt>
      <trkpt lat="42.81679" lon="2.20286">
        <ele>385.8</ele>
        <time>2021-10-09T05:10:22Z</time>
      </trkpt>
      <trkpt lat="42.81681" lon="2.20271">
        <ele>386</ele>
        <time>2021-10-09T05:10:24Z</time>
      </trkpt>
      <trkpt lat="42.81676" lon="2.20256">
        <ele>386.4</ele>
        <time>2021-10-09T05:10:26Z</time>
      </trkpt>
      <trkpt lat="42.81671" lon="2.2025">
        <ele>386.6</ele>
        <time>2021-10-09T05:10:27Z</time>
      </trkpt>
      <trkpt lat="42.81666" lon="2.20245">
        <ele>386.8</ele>
        <time>2021-10-09T05:10:28Z</time>
      </trkpt>
      <trkpt lat="42.81646" lon="2.20227">
        <ele>387.8</ele>
        <time>2021-10-09T05:10:32Z</time>
      </trkpt>
      <trkpt lat="42.81641" lon="2.20222">
        <ele>388</ele>
        <time>2021-10-09T05:10:33Z</time>
      </trkpt>
      <trkpt lat="42.81629" lon="2.20206">
        <ele>388.6</ele>
        <time>2021-10-09T05:10:36Z</time>
      </trkpt>
      <trkpt lat="42.81626" lon="2.202">
        <ele>388.8</ele>
        <time>2021-10-09T05:10:37Z</time>
      </trkpt>
      <trkpt lat="42.81616" lon="2.20167">
        <ele>389.6</ele>
        <time>2021-10-09T05:10:42Z</time>
      </trkpt>
      <trkpt lat="42.81615" lon="2.20142">
        <ele>390.6</ele>
        <time>2021-10-09T05:10:46Z</time>
      </trkpt>
      <trkpt lat="42.81616" lon="2.2013">
        <ele>391</ele>
        <time>2021-10-09T05:10:48Z</time>
      </trkpt>
      <trkpt lat="42.8162" lon="2.20096">
        <ele>392.4</ele>
        <time>2021-10-09T05:10:53Z</time>
      </trkpt>
      <trkpt lat="42.81621" lon="2.20091">
        <ele>392.6</ele>
        <time>2021-10-09T05:10:54Z</time>
      </trkpt>
      <trkpt lat="42.81627" lon="2.20067">
        <ele>393.2</ele>
        <time>2021-10-09T05:10:58Z</time>
      </trkpt>
      <trkpt lat="42.81632" lon="2.20055">
        <ele>393.6</ele>
        <time>2021-10-09T05:11:00Z</time>
      </trkpt>
      <trkpt lat="42.81637" lon="2.20043">
        <ele>394</ele>
        <time>2021-10-09T05:11:02Z</time>
      </trkpt>
      <trkpt lat="42.81647" lon="2.20026">
        <ele>394.4</ele>
        <time>2021-10-09T05:11:05Z</time>
      </trkpt>
      <trkpt lat="42.81656" lon="2.20018">
        <ele>394.8</ele>
        <time>2021-10-09T05:11:07Z</time>
      </trkpt>
      <trkpt lat="42.8167" lon="2.2001">
        <ele>395.4</ele>
        <time>2021-10-09T05:11:10Z</time>
      </trkpt>
      <trkpt lat="42.81679" lon="2.20007">
        <ele>395.8</ele>
        <time>2021-10-09T05:11:12Z</time>
      </trkpt>
      <trkpt lat="42.81689" lon="2.20007">
        <ele>396</ele>
        <time>2021-10-09T05:11:14Z</time>
      </trkpt>
      <trkpt lat="42.81723" lon="2.20016">
        <ele>398</ele>
        <time>2021-10-09T05:11:21Z</time>
      </trkpt>
      <trkpt lat="42.81729" lon="2.20017">
        <ele>398.2</ele>
        <time>2021-10-09T05:11:22Z</time>
      </trkpt>
      <trkpt lat="42.81739" lon="2.20017">
        <ele>398.6</ele>
        <time>2021-10-09T05:11:24Z</time>
      </trkpt>
      <trkpt lat="42.81751" lon="2.20014">
        <ele>399</ele>
        <time>2021-10-09T05:11:26Z</time>
      </trkpt>
      <trkpt lat="42.81755" lon="2.20011">
        <ele>399.2</ele>
        <time>2021-10-09T05:11:27Z</time>
      </trkpt>
      <trkpt lat="42.8177" lon="2.1999">
        <ele>399.8</ele>
        <time>2021-10-09T05:11:31Z</time>
      </trkpt>
      <trkpt lat="42.81791" lon="2.19951">
        <ele>400.2</ele>
        <time>2021-10-09T05:11:38Z</time>
      </trkpt>
      <trkpt lat="42.81802" lon="2.19926">
        <ele>400.2</ele>
        <time>2021-10-09T05:11:42Z</time>
      </trkpt>
      <trkpt lat="42.81807" lon="2.19915">
        <ele>400.2</ele>
        <time>2021-10-09T05:11:44Z</time>
      </trkpt>
      <trkpt lat="42.81818" lon="2.19899">
        <ele>400.2</ele>
        <time>2021-10-09T05:11:47Z</time>
      </trkpt>
      <trkpt lat="42.81829" lon="2.19886">
        <ele>400.2</ele>
        <time>2021-10-09T05:11:50Z</time>
      </trkpt>
      <trkpt lat="42.81837" lon="2.19878">
        <ele>400.2</ele>
        <time>2021-10-09T05:11:52Z</time>
      </trkpt>
      <trkpt lat="42.81858" lon="2.19856">
        <ele>400.4</ele>
        <time>2021-10-09T05:11:57Z</time>
      </trkpt>
      <trkpt lat="42.81887" lon="2.19823">
        <ele>401.2</ele>
        <time>2021-10-09T05:12:04Z</time>
      </trkpt>
      <trkpt lat="42.8189" lon="2.19818">
        <ele>401.4</ele>
        <time>2021-10-09T05:12:05Z</time>
      </trkpt>
      <trkpt lat="42.81892" lon="2.19812">
        <ele>401.4</ele>
        <time>2021-10-09T05:12:06Z</time>
      </trkpt>
      <trkpt lat="42.81893" lon="2.19793">
        <ele>401.8</ele>
        <time>2021-10-09T05:12:09Z</time>
      </trkpt>
      <trkpt lat="42.81891" lon="2.19781">
        <ele>401.8</ele>
        <time>2021-10-09T05:12:11Z</time>
      </trkpt>
      <trkpt lat="42.81882" lon="2.19756">
        <ele>402</ele>
        <time>2021-10-09T05:12:15Z</time>
      </trkpt>
      <trkpt lat="42.8188" lon="2.1975">
        <ele>402</ele>
        <time>2021-10-09T05:12:16Z</time>
      </trkpt>
      <trkpt lat="42.81869" lon="2.19724">
        <ele>402.4</ele>
        <time>2021-10-09T05:12:20Z</time>
      </trkpt>
      <trkpt lat="42.81867" lon="2.19718">
        <ele>402.4</ele>
        <time>2021-10-09T05:12:21Z</time>
      </trkpt>
      <trkpt lat="42.81865" lon="2.19711">
        <ele>402.4</ele>
        <time>2021-10-09T05:12:22Z</time>
      </trkpt>
      <trkpt lat="42.81864" lon="2.1968">
        <ele>402.4</ele>
        <time>2021-10-09T05:12:26Z</time>
      </trkpt>
      <trkpt lat="42.81867" lon="2.19658">
        <ele>402.6</ele>
        <time>2021-10-09T05:12:29Z</time>
      </trkpt>
      <trkpt lat="42.81872" lon="2.19636">
        <ele>402.8</ele>
        <time>2021-10-09T05:12:32Z</time>
      </trkpt>
      <trkpt lat="42.81876" lon="2.19623">
        <ele>403.2</ele>
        <time>2021-10-09T05:12:34Z</time>
      </trkpt>
      <trkpt lat="42.81884" lon="2.19609">
        <ele>403.4</ele>
        <time>2021-10-09T05:12:36Z</time>
      </trkpt>
      <trkpt lat="42.81917" lon="2.19582">
        <ele>404.8</ele>
        <time>2021-10-09T05:12:43Z</time>
      </trkpt>
      <trkpt lat="42.81948" lon="2.1955">
        <ele>405.8</ele>
        <time>2021-10-09T05:12:50Z</time>
      </trkpt>
      <trkpt lat="42.81977" lon="2.19512">
        <ele>406.6</ele>
        <time>2021-10-09T05:12:57Z</time>
      </trkpt>
      <trkpt lat="42.81983" lon="2.19498">
        <ele>407</ele>
        <time>2021-10-09T05:12:59Z</time>
      </trkpt>
      <trkpt lat="42.8199" lon="2.19477">
        <ele>407.4</ele>
        <time>2021-10-09T05:13:02Z</time>
      </trkpt>
      <trkpt lat="42.8199" lon="2.19437">
        <ele>408</ele>
        <time>2021-10-09T05:13:07Z</time>
      </trkpt>
      <trkpt lat="42.81987" lon="2.19421">
        <ele>408.4</ele>
        <time>2021-10-09T05:13:09Z</time>
      </trkpt>
      <trkpt lat="42.81988" lon="2.19406">
        <ele>408.6</ele>
        <time>2021-10-09T05:13:11Z</time>
      </trkpt>
      <trkpt lat="42.8199" lon="2.19398">
        <ele>408.8</ele>
        <time>2021-10-09T05:13:12Z</time>
      </trkpt>
      <trkpt lat="42.81993" lon="2.19391">
        <ele>409</ele>
        <time>2021-10-09T05:13:13Z</time>
      </trkpt>
      <trkpt lat="42.81998" lon="2.19379">
        <ele>409.4</ele>
        <time>2021-10-09T05:13:15Z</time>
      </trkpt>
      <trkpt lat="42.82" lon="2.19373">
        <ele>409.4</ele>
        <time>2021-10-09T05:13:16Z</time>
      </trkpt>
      <trkpt lat="42.82005" lon="2.19367">
        <ele>409.6</ele>
        <time>2021-10-09T05:13:17Z</time>
      </trkpt>
      <trkpt lat="42.82022" lon="2.19353">
        <ele>410.4</ele>
        <time>2021-10-09T05:13:21Z</time>
      </trkpt>
      <trkpt lat="42.82051" lon="2.19343">
        <ele>412.2</ele>
        <time>2021-10-09T05:13:27Z</time>
      </trkpt>
      <trkpt lat="42.82071" lon="2.19341">
        <ele>413</ele>
        <time>2021-10-09T05:13:32Z</time>
      </trkpt>
      <trkpt lat="42.82104" lon="2.19341">
        <ele>413.4</ele>
        <time>2021-10-09T05:13:39Z</time>
      </trkpt>
      <trkpt lat="42.82137" lon="2.19345">
        <ele>414</ele>
        <time>2021-10-09T05:13:45Z</time>
      </trkpt>
      <trkpt lat="42.82155" lon="2.19342">
        <ele>414.2</ele>
        <time>2021-10-09T05:13:48Z</time>
      </trkpt>
      <trkpt lat="42.82159" lon="2.19339">
        <ele>414.2</ele>
        <time>2021-10-09T05:13:49Z</time>
      </trkpt>
      <trkpt lat="42.82163" lon="2.19333">
        <ele>414.2</ele>
        <time>2021-10-09T05:13:50Z</time>
      </trkpt>
      <trkpt lat="42.82171" lon="2.19313">
        <ele>414.4</ele>
        <time>2021-10-09T05:13:53Z</time>
      </trkpt>
      <trkpt lat="42.82173" lon="2.19305">
        <ele>414.4</ele>
        <time>2021-10-09T05:13:54Z</time>
      </trkpt>
      <trkpt lat="42.82174" lon="2.19291">
        <ele>414.4</ele>
        <time>2021-10-09T05:13:56Z</time>
      </trkpt>
      <trkpt lat="42.82175" lon="2.19279">
        <ele>414.4</ele>
        <time>2021-10-09T05:13:58Z</time>
      </trkpt>
      <trkpt lat="42.82175" lon="2.19264">
        <ele>414.6</ele>
        <time>2021-10-09T05:14:00Z</time>
      </trkpt>
      <trkpt lat="42.82172" lon="2.1925">
        <ele>414.6</ele>
        <time>2021-10-09T05:14:02Z</time>
      </trkpt>
      <trkpt lat="42.82154" lon="2.19228">
        <ele>415.2</ele>
        <time>2021-10-09T05:14:06Z</time>
      </trkpt>
      <trkpt lat="42.82127" lon="2.19192">
        <ele>415.8</ele>
        <time>2021-10-09T05:14:13Z</time>
      </trkpt>
      <trkpt lat="42.82104" lon="2.19162">
        <ele>415.8</ele>
        <time>2021-10-09T05:14:19Z</time>
      </trkpt>
      <trkpt lat="42.82081" lon="2.19132">
        <ele>416</ele>
        <time>2021-10-09T05:14:25Z</time>
      </trkpt>
      <trkpt lat="42.82078" lon="2.19127">
        <ele>416</ele>
        <time>2021-10-09T05:14:26Z</time>
      </trkpt>
      <trkpt lat="42.82069" lon="2.19112">
        <ele>416</ele>
        <time>2021-10-09T05:14:29Z</time>
      </trkpt>
      <trkpt lat="42.82066" lon="2.19107">
        <ele>416</ele>
        <time>2021-10-09T05:14:30Z</time>
      </trkpt>
      <trkpt lat="42.82064" lon="2.191">
        <ele>415.8</ele>
        <time>2021-10-09T05:14:31Z</time>
      </trkpt>
      <trkpt lat="42.82062" lon="2.19085">
        <ele>415.8</ele>
        <time>2021-10-09T05:14:33Z</time>
      </trkpt>
      <trkpt lat="42.82065" lon="2.1907">
        <ele>415.8</ele>
        <time>2021-10-09T05:14:35Z</time>
      </trkpt>
      <trkpt lat="42.82071" lon="2.19059">
        <ele>416</ele>
        <time>2021-10-09T05:14:37Z</time>
      </trkpt>
      <trkpt lat="42.82079" lon="2.1905">
        <ele>416</ele>
        <time>2021-10-09T05:14:39Z</time>
      </trkpt>
      <trkpt lat="42.82094" lon="2.19039">
        <ele>416.4</ele>
        <time>2021-10-09T05:14:42Z</time>
      </trkpt>
      <trkpt lat="42.82103" lon="2.19034">
        <ele>416.4</ele>
        <time>2021-10-09T05:14:44Z</time>
      </trkpt>
      <trkpt lat="42.82123" lon="2.19034">
        <ele>417</ele>
        <time>2021-10-09T05:14:48Z</time>
      </trkpt>
      <trkpt lat="42.82152" lon="2.19042">
        <ele>417.8</ele>
        <time>2021-10-09T05:14:54Z</time>
      </trkpt>
      <trkpt lat="42.82157" lon="2.19042">
        <ele>418</ele>
        <time>2021-10-09T05:14:55Z</time>
      </trkpt>
      <trkpt lat="42.82167" lon="2.19042">
        <ele>418.4</ele>
        <time>2021-10-09T05:14:57Z</time>
      </trkpt>
      <trkpt lat="42.82175" lon="2.1904">
        <ele>418.4</ele>
        <time>2021-10-09T05:14:58Z</time>
      </trkpt>
      <trkpt lat="42.82179" lon="2.19036">
        <ele>418.4</ele>
        <time>2021-10-09T05:14:59Z</time>
      </trkpt>
      <trkpt lat="42.82188" lon="2.19024">
        <ele>418.8</ele>
        <time>2021-10-09T05:15:01Z</time>
      </trkpt>
      <trkpt lat="42.82191" lon="2.19007">
        <ele>419.2</ele>
        <time>2021-10-09T05:15:03Z</time>
      </trkpt>
      <trkpt lat="42.82186" lon="2.18992">
        <ele>419.4</ele>
        <time>2021-10-09T05:15:05Z</time>
      </trkpt>
      <trkpt lat="42.82179" lon="2.18981">
        <ele>419.6</ele>
        <time>2021-10-09T05:15:07Z</time>
      </trkpt>
      <trkpt lat="42.82172" lon="2.18973">
        <ele>420</ele>
        <time>2021-10-09T05:15:09Z</time>
      </trkpt>
      <trkpt lat="42.82155" lon="2.18956">
        <ele>420.4</ele>
        <time>2021-10-09T05:15:13Z</time>
      </trkpt>
      <trkpt lat="42.82148" lon="2.18946">
        <ele>420.6</ele>
        <time>2021-10-09T05:15:15Z</time>
      </trkpt>
      <trkpt lat="42.82142" lon="2.18935">
        <ele>421</ele>
        <time>2021-10-09T05:15:17Z</time>
      </trkpt>
      <trkpt lat="42.82135" lon="2.18924">
        <ele>421.4</ele>
        <time>2021-10-09T05:15:19Z</time>
      </trkpt>
      <trkpt lat="42.82132" lon="2.18919">
        <ele>421.4</ele>
        <time>2021-10-09T05:15:20Z</time>
      </trkpt>
      <trkpt lat="42.82129" lon="2.18912">
        <ele>421.6</ele>
        <time>2021-10-09T05:15:21Z</time>
      </trkpt>
      <trkpt lat="42.8212" lon="2.18888">
        <ele>422.4</ele>
        <time>2021-10-09T05:15:25Z</time>
      </trkpt>
      <trkpt lat="42.82116" lon="2.18873">
        <ele>422.6</ele>
        <time>2021-10-09T05:15:27Z</time>
      </trkpt>
      <trkpt lat="42.82115" lon="2.18849">
        <ele>423</ele>
        <time>2021-10-09T05:15:30Z</time>
      </trkpt>
      <trkpt lat="42.82116" lon="2.18836">
        <ele>423.2</ele>
        <time>2021-10-09T05:15:32Z</time>
      </trkpt>
      <trkpt lat="42.82122" lon="2.18814">
        <ele>423.2</ele>
        <time>2021-10-09T05:15:35Z</time>
      </trkpt>
      <trkpt lat="42.82128" lon="2.18803">
        <ele>423.4</ele>
        <time>2021-10-09T05:15:37Z</time>
      </trkpt>
      <trkpt lat="42.82139" lon="2.18787">
        <ele>423.4</ele>
        <time>2021-10-09T05:15:40Z</time>
      </trkpt>
      <trkpt lat="42.82173" lon="2.18741">
        <ele>424</ele>
        <time>2021-10-09T05:15:49Z</time>
      </trkpt>
      <trkpt lat="42.82186" lon="2.18717">
        <ele>424.4</ele>
        <time>2021-10-09T05:15:53Z</time>
      </trkpt>
      <trkpt lat="42.82188" lon="2.18711">
        <ele>424.6</ele>
        <time>2021-10-09T05:15:54Z</time>
      </trkpt>
      <trkpt lat="42.82193" lon="2.18698">
        <ele>424.8</ele>
        <time>2021-10-09T05:15:56Z</time>
      </trkpt>
      <trkpt lat="42.82198" lon="2.18677">
        <ele>425</ele>
        <time>2021-10-09T05:15:59Z</time>
      </trkpt>
      <trkpt lat="42.82198" lon="2.18649">
        <ele>425.2</ele>
        <time>2021-10-09T05:16:03Z</time>
      </trkpt>
      <trkpt lat="42.82197" lon="2.18642">
        <ele>425.2</ele>
        <time>2021-10-09T05:16:04Z</time>
      </trkpt>
      <trkpt lat="42.82194" lon="2.18622">
        <ele>425.4</ele>
        <time>2021-10-09T05:16:07Z</time>
      </trkpt>
      <trkpt lat="42.82189" lon="2.18602">
        <ele>425.4</ele>
        <time>2021-10-09T05:16:10Z</time>
      </trkpt>
      <trkpt lat="42.82179" lon="2.18575">
        <ele>425.6</ele>
        <time>2021-10-09T05:16:14Z</time>
      </trkpt>
      <trkpt lat="42.82174" lon="2.18563">
        <ele>425.6</ele>
        <time>2021-10-09T05:16:16Z</time>
      </trkpt>
      <trkpt lat="42.82162" lon="2.18531">
        <ele>426.2</ele>
        <time>2021-10-09T05:16:21Z</time>
      </trkpt>
      <trkpt lat="42.82161" lon="2.18522">
        <ele>426.2</ele>
        <time>2021-10-09T05:16:22Z</time>
      </trkpt>
      <trkpt lat="42.82165" lon="2.18486">
        <ele>426.4</ele>
        <time>2021-10-09T05:16:27Z</time>
      </trkpt>
      <trkpt lat="42.82166" lon="2.18479">
        <ele>426.6</ele>
        <time>2021-10-09T05:16:28Z</time>
      </trkpt>
      <trkpt lat="42.82174" lon="2.18451">
        <ele>427</ele>
        <time>2021-10-09T05:16:32Z</time>
      </trkpt>
      <trkpt lat="42.82188" lon="2.1842">
        <ele>427.4</ele>
        <time>2021-10-09T05:16:37Z</time>
      </trkpt>
      <trkpt lat="42.8219" lon="2.18414">
        <ele>427.6</ele>
        <time>2021-10-09T05:16:38Z</time>
      </trkpt>
      <trkpt lat="42.82193" lon="2.18408">
        <ele>427.6</ele>
        <time>2021-10-09T05:16:39Z</time>
      </trkpt>
      <trkpt lat="42.82203" lon="2.18392">
        <ele>428</ele>
        <time>2021-10-09T05:16:42Z</time>
      </trkpt>
      <trkpt lat="42.82232" lon="2.1836">
        <ele>429</ele>
        <time>2021-10-09T05:16:49Z</time>
      </trkpt>
      <trkpt lat="42.82246" lon="2.18348">
        <ele>429.6</ele>
        <time>2021-10-09T05:16:52Z</time>
      </trkpt>
      <trkpt lat="42.82255" lon="2.18339">
        <ele>429.8</ele>
        <time>2021-10-09T05:16:54Z</time>
      </trkpt>
      <trkpt lat="42.82258" lon="2.18334">
        <ele>430</ele>
        <time>2021-10-09T05:16:55Z</time>
      </trkpt>
      <trkpt lat="42.82264" lon="2.18322">
        <ele>430.2</ele>
        <time>2021-10-09T05:16:57Z</time>
      </trkpt>
      <trkpt lat="42.82268" lon="2.18301">
        <ele>430.6</ele>
        <time>2021-10-09T05:17:00Z</time>
      </trkpt>
      <trkpt lat="42.8227" lon="2.18286">
        <ele>430.6</ele>
        <time>2021-10-09T05:17:02Z</time>
      </trkpt>
      <trkpt lat="42.82272" lon="2.18273">
        <ele>430.8</ele>
        <time>2021-10-09T05:17:04Z</time>
      </trkpt>
      <trkpt lat="42.8228" lon="2.18247">
        <ele>430.8</ele>
        <time>2021-10-09T05:17:08Z</time>
      </trkpt>
      <trkpt lat="42.82295" lon="2.18205">
        <ele>431.6</ele>
        <time>2021-10-09T05:17:14Z</time>
      </trkpt>
      <trkpt lat="42.82305" lon="2.18164">
        <ele>432.4</ele>
        <time>2021-10-09T05:17:20Z</time>
      </trkpt>
      <trkpt lat="42.82308" lon="2.18136">
        <ele>432.6</ele>
        <time>2021-10-09T05:17:24Z</time>
      </trkpt>
      <trkpt lat="42.82309" lon="2.1808">
        <ele>433</ele>
        <time>2021-10-09T05:17:32Z</time>
      </trkpt>
      <trkpt lat="42.82308" lon="2.18029">
        <ele>433.4</ele>
        <time>2021-10-09T05:17:39Z</time>
      </trkpt>
      <trkpt lat="42.82307" lon="2.18007">
        <ele>433.6</ele>
        <time>2021-10-09T05:17:42Z</time>
      </trkpt>
      <trkpt lat="42.82307" lon="2.17994">
        <ele>433.6</ele>
        <time>2021-10-09T05:17:44Z</time>
      </trkpt>
      <trkpt lat="42.82307" lon="2.17987">
        <ele>433.8</ele>
        <time>2021-10-09T05:17:45Z</time>
      </trkpt>
      <trkpt lat="42.82308" lon="2.17973">
        <ele>433.8</ele>
        <time>2021-10-09T05:17:47Z</time>
      </trkpt>
      <trkpt lat="42.82309" lon="2.17966">
        <ele>434</ele>
        <time>2021-10-09T05:17:48Z</time>
      </trkpt>
      <trkpt lat="42.82309" lon="2.17959">
        <ele>434.2</ele>
        <time>2021-10-09T05:17:49Z</time>
      </trkpt>
      <trkpt lat="42.82314" lon="2.17937">
        <ele>434.4</ele>
        <time>2021-10-09T05:17:52Z</time>
      </trkpt>
      <trkpt lat="42.82316" lon="2.17931">
        <ele>434.6</ele>
        <time>2021-10-09T05:17:53Z</time>
      </trkpt>
      <trkpt lat="42.82322" lon="2.1791">
        <ele>435</ele>
        <time>2021-10-09T05:17:56Z</time>
      </trkpt>
      <trkpt lat="42.82327" lon="2.17898">
        <ele>435.2</ele>
        <time>2021-10-09T05:17:58Z</time>
      </trkpt>
      <trkpt lat="42.82329" lon="2.17892">
        <ele>435.4</ele>
        <time>2021-10-09T05:17:59Z</time>
      </trkpt>
      <trkpt lat="42.82333" lon="2.1788">
        <ele>435.6</ele>
        <time>2021-10-09T05:18:01Z</time>
      </trkpt>
      <trkpt lat="42.82335" lon="2.17874">
        <ele>435.6</ele>
        <time>2021-10-09T05:18:02Z</time>
      </trkpt>
      <trkpt lat="42.82346" lon="2.17852">
        <ele>435.8</ele>
        <time>2021-10-09T05:18:06Z</time>
      </trkpt>
      <trkpt lat="42.82349" lon="2.17846">
        <ele>435.8</ele>
        <time>2021-10-09T05:18:07Z</time>
      </trkpt>
      <trkpt lat="42.82351" lon="2.17841">
        <ele>436</ele>
        <time>2021-10-09T05:18:08Z</time>
      </trkpt>
      <trkpt lat="42.82359" lon="2.17826">
        <ele>436.2</ele>
        <time>2021-10-09T05:18:11Z</time>
      </trkpt>
      <trkpt lat="42.82362" lon="2.1782">
        <ele>436.4</ele>
        <time>2021-10-09T05:18:12Z</time>
      </trkpt>
      <trkpt lat="42.82365" lon="2.17815">
        <ele>436.4</ele>
        <time>2021-10-09T05:18:13Z</time>
      </trkpt>
      <trkpt lat="42.82372" lon="2.17791">
        <ele>436.6</ele>
        <time>2021-10-09T05:18:17Z</time>
      </trkpt>
      <trkpt lat="42.82373" lon="2.17785">
        <ele>436.6</ele>
        <time>2021-10-09T05:18:18Z</time>
      </trkpt>
      <trkpt lat="42.82374" lon="2.1776">
        <ele>437</ele>
        <time>2021-10-09T05:18:22Z</time>
      </trkpt>
      <trkpt lat="42.82376" lon="2.17718">
        <ele>437.4</ele>
        <time>2021-10-09T05:18:28Z</time>
      </trkpt>
      <trkpt lat="42.82376" lon="2.17697">
        <ele>437.6</ele>
        <time>2021-10-09T05:18:31Z</time>
      </trkpt>
      <trkpt lat="42.82379" lon="2.17678">
        <ele>437.8</ele>
        <time>2021-10-09T05:18:34Z</time>
      </trkpt>
      <trkpt lat="42.82379" lon="2.17672">
        <ele>437.8</ele>
        <time>2021-10-09T05:18:35Z</time>
      </trkpt>
      <trkpt lat="42.82387" lon="2.17651">
        <ele>438</ele>
        <time>2021-10-09T05:18:39Z</time>
      </trkpt>
      <trkpt lat="42.82389" lon="2.17646">
        <ele>438</ele>
        <time>2021-10-09T05:18:40Z</time>
      </trkpt>
      <trkpt lat="42.82396" lon="2.17628">
        <ele>438.2</ele>
        <time>2021-10-09T05:18:43Z</time>
      </trkpt>
      <trkpt lat="42.82398" lon="2.17623">
        <ele>438.2</ele>
        <time>2021-10-09T05:18:44Z</time>
      </trkpt>
      <trkpt lat="42.82401" lon="2.17611">
        <ele>438.4</ele>
        <time>2021-10-09T05:18:46Z</time>
      </trkpt>
      <trkpt lat="42.82402" lon="2.17605">
        <ele>438.4</ele>
        <time>2021-10-09T05:18:47Z</time>
      </trkpt>
      <trkpt lat="42.82402" lon="2.17597">
        <ele>438.4</ele>
        <time>2021-10-09T05:18:48Z</time>
      </trkpt>
      <trkpt lat="42.82401" lon="2.1758">
        <ele>438.6</ele>
        <time>2021-10-09T05:18:50Z</time>
      </trkpt>
      <trkpt lat="42.824" lon="2.17572">
        <ele>438.8</ele>
        <time>2021-10-09T05:18:51Z</time>
      </trkpt>
      <trkpt lat="42.82397" lon="2.17564">
        <ele>438.8</ele>
        <time>2021-10-09T05:18:52Z</time>
      </trkpt>
      <trkpt lat="42.82382" lon="2.17539">
        <ele>439.6</ele>
        <time>2021-10-09T05:18:56Z</time>
      </trkpt>
      <trkpt lat="42.82359" lon="2.17508">
        <ele>440.6</ele>
        <time>2021-10-09T05:19:02Z</time>
      </trkpt>
      <trkpt lat="42.82356" lon="2.17504">
        <ele>440.8</ele>
        <time>2021-10-09T05:19:03Z</time>
      </trkpt>
      <trkpt lat="42.8235" lon="2.17488">
        <ele>441</ele>
        <time>2021-10-09T05:19:06Z</time>
      </trkpt>
      <trkpt lat="42.82349" lon="2.17482">
        <ele>441.2</ele>
        <time>2021-10-09T05:19:07Z</time>
      </trkpt>
      <trkpt lat="42.82347" lon="2.17456">
        <ele>441.2</ele>
        <time>2021-10-09T05:19:11Z</time>
      </trkpt>
      <trkpt lat="42.82347" lon="2.1745">
        <ele>441.2</ele>
        <time>2021-10-09T05:19:12Z</time>
      </trkpt>
      <trkpt lat="42.8235" lon="2.17409">
        <ele>441.8</ele>
        <time>2021-10-09T05:19:18Z</time>
      </trkpt>
      <trkpt lat="42.82359" lon="2.17372">
        <ele>442.4</ele>
        <time>2021-10-09T05:19:24Z</time>
      </trkpt>
      <trkpt lat="42.82368" lon="2.17342">
        <ele>442.8</ele>
        <time>2021-10-09T05:19:29Z</time>
      </trkpt>
      <trkpt lat="42.82372" lon="2.17329">
        <ele>443</ele>
        <time>2021-10-09T05:19:31Z</time>
      </trkpt>
      <trkpt lat="42.82378" lon="2.17311">
        <ele>443.4</ele>
        <time>2021-10-09T05:19:34Z</time>
      </trkpt>
      <trkpt lat="42.82386" lon="2.17281">
        <ele>443.8</ele>
        <time>2021-10-09T05:19:39Z</time>
      </trkpt>
      <trkpt lat="42.82387" lon="2.17275">
        <ele>443.8</ele>
        <time>2021-10-09T05:19:40Z</time>
      </trkpt>
      <trkpt lat="42.82388" lon="2.17262">
        <ele>444</ele>
        <time>2021-10-09T05:19:42Z</time>
      </trkpt>
      <trkpt lat="42.82389" lon="2.17242">
        <ele>444.2</ele>
        <time>2021-10-09T05:19:45Z</time>
      </trkpt>
      <trkpt lat="42.82385" lon="2.17194">
        <ele>445</ele>
        <time>2021-10-09T05:19:52Z</time>
      </trkpt>
      <trkpt lat="42.82382" lon="2.17166">
        <ele>445.8</ele>
        <time>2021-10-09T05:19:56Z</time>
      </trkpt>
      <trkpt lat="42.82381" lon="2.17153">
        <ele>446</ele>
        <time>2021-10-09T05:19:58Z</time>
      </trkpt>
      <trkpt lat="42.82379" lon="2.17139">
        <ele>446.4</ele>
        <time>2021-10-09T05:20:00Z</time>
      </trkpt>
      <trkpt lat="42.82378" lon="2.17127">
        <ele>446.6</ele>
        <time>2021-10-09T05:20:02Z</time>
      </trkpt>
      <trkpt lat="42.82378" lon="2.1712">
        <ele>446.8</ele>
        <time>2021-10-09T05:20:03Z</time>
      </trkpt>
      <trkpt lat="42.82376" lon="2.17108">
        <ele>447</ele>
        <time>2021-10-09T05:20:05Z</time>
      </trkpt>
      <trkpt lat="42.82374" lon="2.17083">
        <ele>447.6</ele>
        <time>2021-10-09T05:20:09Z</time>
      </trkpt>
      <trkpt lat="42.82375" lon="2.1707">
        <ele>447.8</ele>
        <time>2021-10-09T05:20:11Z</time>
      </trkpt>
      <trkpt lat="42.82375" lon="2.17057">
        <ele>448</ele>
        <time>2021-10-09T05:20:13Z</time>
      </trkpt>
      <trkpt lat="42.82376" lon="2.17051">
        <ele>448.2</ele>
        <time>2021-10-09T05:20:14Z</time>
      </trkpt>
      <trkpt lat="42.82378" lon="2.17039">
        <ele>448.4</ele>
        <time>2021-10-09T05:20:16Z</time>
      </trkpt>
      <trkpt lat="42.8238" lon="2.17027">
        <ele>448.6</ele>
        <time>2021-10-09T05:20:18Z</time>
      </trkpt>
      <trkpt lat="42.82382" lon="2.17021">
        <ele>448.8</ele>
        <time>2021-10-09T05:20:19Z</time>
      </trkpt>
      <trkpt lat="42.82395" lon="2.16977">
        <ele>449.6</ele>
        <time>2021-10-09T05:20:26Z</time>
      </trkpt>
      <trkpt lat="42.82397" lon="2.16971">
        <ele>449.8</ele>
        <time>2021-10-09T05:20:27Z</time>
      </trkpt>
      <trkpt lat="42.82401" lon="2.1695">
        <ele>450.2</ele>
        <time>2021-10-09T05:20:30Z</time>
      </trkpt>
      <trkpt lat="42.82403" lon="2.16929">
        <ele>450.4</ele>
        <time>2021-10-09T05:20:33Z</time>
      </trkpt>
      <trkpt lat="42.82404" lon="2.16894">
        <ele>450.8</ele>
        <time>2021-10-09T05:20:38Z</time>
      </trkpt>
      <trkpt lat="42.82404" lon="2.16887">
        <ele>451</ele>
        <time>2021-10-09T05:20:39Z</time>
      </trkpt>
      <trkpt lat="42.82401" lon="2.16853">
        <ele>451.4</ele>
        <time>2021-10-09T05:20:44Z</time>
      </trkpt>
      <trkpt lat="42.82399" lon="2.16806">
        <ele>452</ele>
        <time>2021-10-09T05:20:51Z</time>
      </trkpt>
      <trkpt lat="42.82396" lon="2.16765">
        <ele>452.4</ele>
        <time>2021-10-09T05:20:57Z</time>
      </trkpt>
      <trkpt lat="42.82395" lon="2.16758">
        <ele>452.6</ele>
        <time>2021-10-09T05:20:58Z</time>
      </trkpt>
      <trkpt lat="42.82388" lon="2.16723">
        <ele>453</ele>
        <time>2021-10-09T05:21:03Z</time>
      </trkpt>
      <trkpt lat="42.8238" lon="2.16682">
        <ele>453.4</ele>
        <time>2021-10-09T05:21:09Z</time>
      </trkpt>
      <trkpt lat="42.82374" lon="2.16649">
        <ele>453.6</ele>
        <time>2021-10-09T05:21:14Z</time>
      </trkpt>
      <trkpt lat="42.82374" lon="2.16643">
        <ele>453.6</ele>
        <time>2021-10-09T05:21:15Z</time>
      </trkpt>
      <trkpt lat="42.82373" lon="2.16637">
        <ele>453.8</ele>
        <time>2021-10-09T05:21:16Z</time>
      </trkpt>
      <trkpt lat="42.82372" lon="2.16611">
        <ele>454</ele>
        <time>2021-10-09T05:21:20Z</time>
      </trkpt>
      <trkpt lat="42.8237" lon="2.16567">
        <ele>454.4</ele>
        <time>2021-10-09T05:21:27Z</time>
      </trkpt>
      <trkpt lat="42.82366" lon="2.16523">
        <ele>454.8</ele>
        <time>2021-10-09T05:21:34Z</time>
      </trkpt>
      <trkpt lat="42.82365" lon="2.16511">
        <ele>455</ele>
        <time>2021-10-09T05:21:36Z</time>
      </trkpt>
      <trkpt lat="42.82362" lon="2.16485">
        <ele>455.2</ele>
        <time>2021-10-09T05:21:40Z</time>
      </trkpt>
      <trkpt lat="42.82361" lon="2.16472">
        <ele>455.4</ele>
        <time>2021-10-09T05:21:42Z</time>
      </trkpt>
      <trkpt lat="42.82358" lon="2.16447">
        <ele>455.6</ele>
        <time>2021-10-09T05:21:46Z</time>
      </trkpt>
      <trkpt lat="42.82354" lon="2.16408">
        <ele>456</ele>
        <time>2021-10-09T05:21:52Z</time>
      </trkpt>
      <trkpt lat="42.82341" lon="2.16362">
        <ele>457</ele>
        <time>2021-10-09T05:21:59Z</time>
      </trkpt>
      <trkpt lat="42.82327" lon="2.16333">
        <ele>457.6</ele>
        <time>2021-10-09T05:22:04Z</time>
      </trkpt>
      <trkpt lat="42.82324" lon="2.16328">
        <ele>457.8</ele>
        <time>2021-10-09T05:22:05Z</time>
      </trkpt>
      <trkpt lat="42.82301" lon="2.1629">
        <ele>459.2</ele>
        <time>2021-10-09T05:22:13Z</time>
      </trkpt>
      <trkpt lat="42.82299" lon="2.16284">
        <ele>459.2</ele>
        <time>2021-10-09T05:22:14Z</time>
      </trkpt>
      <trkpt lat="42.82295" lon="2.16265">
        <ele>459.8</ele>
        <time>2021-10-09T05:22:17Z</time>
      </trkpt>
      <trkpt lat="42.82295" lon="2.16259">
        <ele>460</ele>
        <time>2021-10-09T05:22:18Z</time>
      </trkpt>
      <trkpt lat="42.82294" lon="2.16235">
        <ele>460.4</ele>
        <time>2021-10-09T05:22:22Z</time>
      </trkpt>
      <trkpt lat="42.82295" lon="2.16228">
        <ele>460.6</ele>
        <time>2021-10-09T05:22:23Z</time>
      </trkpt>
      <trkpt lat="42.823" lon="2.16209">
        <ele>461</ele>
        <time>2021-10-09T05:22:26Z</time>
      </trkpt>
      <trkpt lat="42.82307" lon="2.16199">
        <ele>461.4</ele>
        <time>2021-10-09T05:22:28Z</time>
      </trkpt>
      <trkpt lat="42.82316" lon="2.16187">
        <ele>462</ele>
        <time>2021-10-09T05:22:31Z</time>
      </trkpt>
      <trkpt lat="42.82332" lon="2.16172">
        <ele>463.2</ele>
        <time>2021-10-09T05:22:36Z</time>
      </trkpt>
      <trkpt lat="42.82337" lon="2.16162">
        <ele>463.6</ele>
        <time>2021-10-09T05:22:38Z</time>
      </trkpt>
      <trkpt lat="42.8234" lon="2.16151">
        <ele>464</ele>
        <time>2021-10-09T05:22:40Z</time>
      </trkpt>
      <trkpt lat="42.8234" lon="2.16139">
        <ele>464.4</ele>
        <time>2021-10-09T05:22:42Z</time>
      </trkpt>
      <trkpt lat="42.82338" lon="2.1612">
        <ele>464.8</ele>
        <time>2021-10-09T05:22:45Z</time>
      </trkpt>
      <trkpt lat="42.82337" lon="2.16106">
        <ele>465</ele>
        <time>2021-10-09T05:22:47Z</time>
      </trkpt>
      <trkpt lat="42.82335" lon="2.16086">
        <ele>465.6</ele>
        <time>2021-10-09T05:22:50Z</time>
      </trkpt>
      <trkpt lat="42.82333" lon="2.16047">
        <ele>466.6</ele>
        <time>2021-10-09T05:22:56Z</time>
      </trkpt>
      <trkpt lat="42.82336" lon="2.16037">
        <ele>466.8</ele>
        <time>2021-10-09T05:22:58Z</time>
      </trkpt>
      <trkpt lat="42.82338" lon="2.16026">
        <ele>467</ele>
        <time>2021-10-09T05:23:00Z</time>
      </trkpt>
      <trkpt lat="42.82347" lon="2.15998">
        <ele>467.6</ele>
        <time>2021-10-09T05:23:05Z</time>
      </trkpt>
      <trkpt lat="42.82362" lon="2.15958">
        <ele>468.6</ele>
        <time>2021-10-09T05:23:12Z</time>
      </trkpt>
      <trkpt lat="42.82368" lon="2.15932">
        <ele>469.2</ele>
        <time>2021-10-09T05:23:16Z</time>
      </trkpt>
      <trkpt lat="42.82368" lon="2.15919">
        <ele>469.6</ele>
        <time>2021-10-09T05:23:18Z</time>
      </trkpt>
      <trkpt lat="42.82366" lon="2.15886">
        <ele>470</ele>
        <time>2021-10-09T05:23:23Z</time>
      </trkpt>
      <trkpt lat="42.82364" lon="2.15874">
        <ele>470.2</ele>
        <time>2021-10-09T05:23:25Z</time>
      </trkpt>
      <trkpt lat="42.82362" lon="2.15854">
        <ele>470.4</ele>
        <time>2021-10-09T05:23:28Z</time>
      </trkpt>
      <trkpt lat="42.82361" lon="2.15847">
        <ele>470.6</ele>
        <time>2021-10-09T05:23:29Z</time>
      </trkpt>
      <trkpt lat="42.82357" lon="2.15821">
        <ele>471</ele>
        <time>2021-10-09T05:23:33Z</time>
      </trkpt>
      <trkpt lat="42.82346" lon="2.15775">
        <ele>471.6</ele>
        <time>2021-10-09T05:23:40Z</time>
      </trkpt>
      <trkpt lat="42.8234" lon="2.15751">
        <ele>472</ele>
        <time>2021-10-09T05:23:44Z</time>
      </trkpt>
      <trkpt lat="42.82336" lon="2.15738">
        <ele>472.2</ele>
        <time>2021-10-09T05:23:46Z</time>
      </trkpt>
      <trkpt lat="42.82332" lon="2.15733">
        <ele>472.2</ele>
        <time>2021-10-09T05:23:47Z</time>
      </trkpt>
      <trkpt lat="42.82318" lon="2.15712">
        <ele>473</ele>
        <time>2021-10-09T05:23:51Z</time>
      </trkpt>
      <trkpt lat="42.82311" lon="2.157">
        <ele>473.4</ele>
        <time>2021-10-09T05:23:53Z</time>
      </trkpt>
      <trkpt lat="42.82309" lon="2.15686">
        <ele>473.6</ele>
        <time>2021-10-09T05:23:55Z</time>
      </trkpt>
      <trkpt lat="42.82307" lon="2.1565">
        <ele>474.2</ele>
        <time>2021-10-09T05:24:00Z</time>
      </trkpt>
      <trkpt lat="42.82307" lon="2.15643">
        <ele>474.4</ele>
        <time>2021-10-09T05:24:01Z</time>
      </trkpt>
      <trkpt lat="42.82305" lon="2.15585">
        <ele>475.4</ele>
        <time>2021-10-09T05:24:09Z</time>
      </trkpt>
      <trkpt lat="42.82305" lon="2.1557">
        <ele>475.6</ele>
        <time>2021-10-09T05:24:11Z</time>
      </trkpt>
      <trkpt lat="42.82305" lon="2.15555">
        <ele>475.6</ele>
        <time>2021-10-09T05:24:13Z</time>
      </trkpt>
      <trkpt lat="42.82303" lon="2.15526">
        <ele>476</ele>
        <time>2021-10-09T05:24:17Z</time>
      </trkpt>
      <trkpt lat="42.823" lon="2.15512">
        <ele>476.4</ele>
        <time>2021-10-09T05:24:19Z</time>
      </trkpt>
      <trkpt lat="42.82297" lon="2.15505">
        <ele>476.4</ele>
        <time>2021-10-09T05:24:20Z</time>
      </trkpt>
      <trkpt lat="42.82285" lon="2.15482">
        <ele>477</ele>
        <time>2021-10-09T05:24:24Z</time>
      </trkpt>
      <trkpt lat="42.82278" lon="2.15472">
        <ele>477.4</ele>
        <time>2021-10-09T05:24:26Z</time>
      </trkpt>
      <trkpt lat="42.8227" lon="2.1546">
        <ele>478</ele>
        <time>2021-10-09T05:24:29Z</time>
      </trkpt>
      <trkpt lat="42.82266" lon="2.15454">
        <ele>478.6</ele>
        <time>2021-10-09T05:24:34Z</time>
      </trkpt>
      <trkpt lat="42.82253" lon="2.15464">
        <ele>479.6</ele>
        <time>2021-10-09T05:24:40Z</time>
      </trkpt>
      <trkpt lat="42.82253" lon="2.15464">
        <ele>479.8</ele>
        <time>2021-10-09T05:24:42Z</time>
      </trkpt>
      <trkpt lat="42.82261" lon="2.15457">
        <ele>486.6</ele>
        <time>2021-10-09T05:26:20Z</time>
      </trkpt>
      <trkpt lat="42.82263" lon="2.15455">
        <ele>486.6</ele>
        <time>2021-10-09T05:26:21Z</time>
      </trkpt>
      <trkpt lat="42.82262" lon="2.15438">
        <ele>486.8</ele>
        <time>2021-10-09T05:26:25Z</time>
      </trkpt>
      <trkpt lat="42.82261" lon="2.1542">
        <ele>487</ele>
        <time>2021-10-09T05:26:28Z</time>
      </trkpt>
      <trkpt lat="42.82262" lon="2.15409">
        <ele>487</ele>
        <time>2021-10-09T05:26:30Z</time>
      </trkpt>
      <trkpt lat="42.82264" lon="2.15355">
        <ele>487.4</ele>
        <time>2021-10-09T05:26:39Z</time>
      </trkpt>
      <trkpt lat="42.82265" lon="2.15349">
        <ele>487.4</ele>
        <time>2021-10-09T05:26:40Z</time>
      </trkpt>
      <trkpt lat="42.82266" lon="2.15324">
        <ele>487.6</ele>
        <time>2021-10-09T05:26:44Z</time>
      </trkpt>
      <trkpt lat="42.82268" lon="2.15284">
        <ele>488</ele>
        <time>2021-10-09T05:26:50Z</time>
      </trkpt>
      <trkpt lat="42.8227" lon="2.15224">
        <ele>488</ele>
        <time>2021-10-09T05:26:59Z</time>
      </trkpt>
      <trkpt lat="42.82273" lon="2.15175">
        <ele>488.2</ele>
        <time>2021-10-09T05:27:06Z</time>
      </trkpt>
      <trkpt lat="42.82275" lon="2.15134">
        <ele>488.2</ele>
        <time>2021-10-09T05:27:12Z</time>
      </trkpt>
      <trkpt lat="42.82278" lon="2.15073">
        <ele>488.2</ele>
        <time>2021-10-09T05:27:21Z</time>
      </trkpt>
      <trkpt lat="42.82285" lon="2.15007">
        <ele>488</ele>
        <time>2021-10-09T05:27:31Z</time>
      </trkpt>
      <trkpt lat="42.82299" lon="2.1497">
        <ele>487.4</ele>
        <time>2021-10-09T05:27:37Z</time>
      </trkpt>
      <trkpt lat="42.82327" lon="2.14921">
        <ele>487</ele>
        <time>2021-10-09T05:27:46Z</time>
      </trkpt>
      <trkpt lat="42.82344" lon="2.14888">
        <ele>487</ele>
        <time>2021-10-09T05:27:52Z</time>
      </trkpt>
      <trkpt lat="42.82347" lon="2.14882">
        <ele>487</ele>
        <time>2021-10-09T05:27:53Z</time>
      </trkpt>
      <trkpt lat="42.82352" lon="2.14868">
        <ele>486.8</ele>
        <time>2021-10-09T05:27:55Z</time>
      </trkpt>
      <trkpt lat="42.82352" lon="2.14848">
        <ele>486.8</ele>
        <time>2021-10-09T05:27:58Z</time>
      </trkpt>
      <trkpt lat="42.82351" lon="2.14798">
        <ele>486.6</ele>
        <time>2021-10-09T05:28:05Z</time>
      </trkpt>
      <trkpt lat="42.82346" lon="2.14749">
        <ele>486.4</ele>
        <time>2021-10-09T05:28:12Z</time>
      </trkpt>
      <trkpt lat="42.82342" lon="2.14691">
        <ele>486.2</ele>
        <time>2021-10-09T05:28:20Z</time>
      </trkpt>
      <trkpt lat="42.8234" lon="2.14643">
        <ele>485.6</ele>
        <time>2021-10-09T05:28:27Z</time>
      </trkpt>
      <trkpt lat="42.82339" lon="2.14595">
        <ele>484.8</ele>
        <time>2021-10-09T05:28:34Z</time>
      </trkpt>
      <trkpt lat="42.82337" lon="2.14548">
        <ele>484</ele>
        <time>2021-10-09T05:28:41Z</time>
      </trkpt>
      <trkpt lat="42.82342" lon="2.14498">
        <ele>483.2</ele>
        <time>2021-10-09T05:28:48Z</time>
      </trkpt>
      <trkpt lat="42.82349" lon="2.1447">
        <ele>483</ele>
        <time>2021-10-09T05:28:52Z</time>
      </trkpt>
      <trkpt lat="42.82354" lon="2.14459">
        <ele>483</ele>
        <time>2021-10-09T05:28:54Z</time>
      </trkpt>
      <trkpt lat="42.8236" lon="2.14448">
        <ele>482.8</ele>
        <time>2021-10-09T05:28:56Z</time>
      </trkpt>
      <trkpt lat="42.82378" lon="2.14426">
        <ele>482.6</ele>
        <time>2021-10-09T05:29:00Z</time>
      </trkpt>
      <trkpt lat="42.82405" lon="2.14403">
        <ele>482.4</ele>
        <time>2021-10-09T05:29:06Z</time>
      </trkpt>
      <trkpt lat="42.8241" lon="2.14401">
        <ele>482.4</ele>
        <time>2021-10-09T05:29:07Z</time>
      </trkpt>
      <trkpt lat="42.82415" lon="2.14398">
        <ele>482.2</ele>
        <time>2021-10-09T05:29:08Z</time>
      </trkpt>
      <trkpt lat="42.82428" lon="2.14392">
        <ele>482</ele>
        <time>2021-10-09T05:29:11Z</time>
      </trkpt>
      <trkpt lat="42.82437" lon="2.14388">
        <ele>482</ele>
        <time>2021-10-09T05:29:13Z</time>
      </trkpt>
      <trkpt lat="42.82452" lon="2.14384">
        <ele>481.8</ele>
        <time>2021-10-09T05:29:16Z</time>
      </trkpt>
      <trkpt lat="42.82457" lon="2.14384">
        <ele>481.6</ele>
        <time>2021-10-09T05:29:17Z</time>
      </trkpt>
      <trkpt lat="42.82476" lon="2.14383">
        <ele>481.4</ele>
        <time>2021-10-09T05:29:21Z</time>
      </trkpt>
      <trkpt lat="42.82508" lon="2.14377">
        <ele>481.2</ele>
        <time>2021-10-09T05:29:27Z</time>
      </trkpt>
      <trkpt lat="42.82513" lon="2.14376">
        <ele>481.2</ele>
        <time>2021-10-09T05:29:28Z</time>
      </trkpt>
      <trkpt lat="42.82531" lon="2.14363">
        <ele>480.8</ele>
        <time>2021-10-09T05:29:32Z</time>
      </trkpt>
      <trkpt lat="42.82558" lon="2.14339">
        <ele>480.6</ele>
        <time>2021-10-09T05:29:38Z</time>
      </trkpt>
      <trkpt lat="42.82575" lon="2.14322">
        <ele>480.4</ele>
        <time>2021-10-09T05:29:42Z</time>
      </trkpt>
      <trkpt lat="42.82582" lon="2.14314">
        <ele>480.2</ele>
        <time>2021-10-09T05:29:44Z</time>
      </trkpt>
      <trkpt lat="42.82605" lon="2.14299">
        <ele>480</ele>
        <time>2021-10-09T05:29:49Z</time>
      </trkpt>
      <trkpt lat="42.82629" lon="2.14291">
        <ele>479.6</ele>
        <time>2021-10-09T05:29:54Z</time>
      </trkpt>
      <trkpt lat="42.82659" lon="2.14287">
        <ele>479.4</ele>
        <time>2021-10-09T05:30:00Z</time>
      </trkpt>
      <trkpt lat="42.82702" lon="2.14282">
        <ele>479</ele>
        <time>2021-10-09T05:30:08Z</time>
      </trkpt>
      <trkpt lat="42.82736" lon="2.1427">
        <ele>478.8</ele>
        <time>2021-10-09T05:30:15Z</time>
      </trkpt>
      <trkpt lat="42.8275" lon="2.14264">
        <ele>478.6</ele>
        <time>2021-10-09T05:30:18Z</time>
      </trkpt>
      <trkpt lat="42.82759" lon="2.14257">
        <ele>478.4</ele>
        <time>2021-10-09T05:30:20Z</time>
      </trkpt>
      <trkpt lat="42.82768" lon="2.1425">
        <ele>478.4</ele>
        <time>2021-10-09T05:30:22Z</time>
      </trkpt>
      <trkpt lat="42.82779" lon="2.14238">
        <ele>478.2</ele>
        <time>2021-10-09T05:30:25Z</time>
      </trkpt>
      <trkpt lat="42.82785" lon="2.14227">
        <ele>478.2</ele>
        <time>2021-10-09T05:30:27Z</time>
      </trkpt>
      <trkpt lat="42.82792" lon="2.14208">
        <ele>478</ele>
        <time>2021-10-09T05:30:30Z</time>
      </trkpt>
      <trkpt lat="42.82802" lon="2.14175">
        <ele>477.8</ele>
        <time>2021-10-09T05:30:35Z</time>
      </trkpt>
      <trkpt lat="42.82805" lon="2.14161">
        <ele>477.6</ele>
        <time>2021-10-09T05:30:37Z</time>
      </trkpt>
      <trkpt lat="42.82805" lon="2.14119">
        <ele>477.4</ele>
        <time>2021-10-09T05:30:43Z</time>
      </trkpt>
      <trkpt lat="42.82804" lon="2.14113">
        <ele>477.4</ele>
        <time>2021-10-09T05:30:44Z</time>
      </trkpt>
      <trkpt lat="42.82801" lon="2.14099">
        <ele>477.4</ele>
        <time>2021-10-09T05:30:46Z</time>
      </trkpt>
      <trkpt lat="42.828" lon="2.14092">
        <ele>477.6</ele>
        <time>2021-10-09T05:30:47Z</time>
      </trkpt>
      <trkpt lat="42.82788" lon="2.14029">
        <ele>478</ele>
        <time>2021-10-09T05:30:56Z</time>
      </trkpt>
      <trkpt lat="42.82785" lon="2.13994">
        <ele>477.8</ele>
        <time>2021-10-09T05:31:01Z</time>
      </trkpt>
      <trkpt lat="42.82785" lon="2.13986">
        <ele>478</ele>
        <time>2021-10-09T05:31:02Z</time>
      </trkpt>
      <trkpt lat="42.82787" lon="2.13922">
        <ele>478.2</ele>
        <time>2021-10-09T05:31:11Z</time>
      </trkpt>
      <trkpt lat="42.82785" lon="2.13872">
        <ele>478.8</ele>
        <time>2021-10-09T05:31:18Z</time>
      </trkpt>
      <trkpt lat="42.82788" lon="2.13853">
        <ele>479</ele>
        <time>2021-10-09T05:31:21Z</time>
      </trkpt>
      <trkpt lat="42.82793" lon="2.1384">
        <ele>479</ele>
        <time>2021-10-09T05:31:23Z</time>
      </trkpt>
      <trkpt lat="42.8281" lon="2.13791">
        <ele>479.4</ele>
        <time>2021-10-09T05:31:31Z</time>
      </trkpt>
      <trkpt lat="42.82821" lon="2.1376">
        <ele>479.6</ele>
        <time>2021-10-09T05:31:36Z</time>
      </trkpt>
      <trkpt lat="42.82832" lon="2.13723">
        <ele>479.8</ele>
        <time>2021-10-09T05:31:42Z</time>
      </trkpt>
      <trkpt lat="42.82833" lon="2.13716">
        <ele>480</ele>
        <time>2021-10-09T05:31:43Z</time>
      </trkpt>
      <trkpt lat="42.82839" lon="2.13665">
        <ele>480.8</ele>
        <time>2021-10-09T05:31:50Z</time>
      </trkpt>
      <trkpt lat="42.82836" lon="2.13615">
        <ele>481.6</ele>
        <time>2021-10-09T05:31:57Z</time>
      </trkpt>
      <trkpt lat="42.82825" lon="2.1356">
        <ele>482.2</ele>
        <time>2021-10-09T05:32:05Z</time>
      </trkpt>
      <trkpt lat="42.82822" lon="2.13546">
        <ele>482.6</ele>
        <time>2021-10-09T05:32:07Z</time>
      </trkpt>
      <trkpt lat="42.82817" lon="2.1352">
        <ele>483</ele>
        <time>2021-10-09T05:32:11Z</time>
      </trkpt>
      <trkpt lat="42.82812" lon="2.135">
        <ele>483.4</ele>
        <time>2021-10-09T05:32:14Z</time>
      </trkpt>
      <trkpt lat="42.82809" lon="2.13486">
        <ele>483.8</ele>
        <time>2021-10-09T05:32:16Z</time>
      </trkpt>
      <trkpt lat="42.82808" lon="2.13479">
        <ele>483.8</ele>
        <time>2021-10-09T05:32:17Z</time>
      </trkpt>
      <trkpt lat="42.82803" lon="2.13453">
        <ele>484.4</ele>
        <time>2021-10-09T05:32:21Z</time>
      </trkpt>
      <trkpt lat="42.82802" lon="2.13433">
        <ele>484.6</ele>
        <time>2021-10-09T05:32:24Z</time>
      </trkpt>
      <trkpt lat="42.828" lon="2.13413">
        <ele>484.8</ele>
        <time>2021-10-09T05:32:27Z</time>
      </trkpt>
      <trkpt lat="42.82802" lon="2.13394">
        <ele>484.8</ele>
        <time>2021-10-09T05:32:30Z</time>
      </trkpt>
      <trkpt lat="42.82807" lon="2.1337">
        <ele>485</ele>
        <time>2021-10-09T05:32:34Z</time>
      </trkpt>
      <trkpt lat="42.8281" lon="2.13364">
        <ele>485.2</ele>
        <time>2021-10-09T05:32:35Z</time>
      </trkpt>
      <trkpt lat="42.8283" lon="2.13315">
        <ele>486.6</ele>
        <time>2021-10-09T05:32:43Z</time>
      </trkpt>
      <trkpt lat="42.82835" lon="2.13303">
        <ele>486.8</ele>
        <time>2021-10-09T05:32:45Z</time>
      </trkpt>
      <trkpt lat="42.82841" lon="2.13286">
        <ele>487</ele>
        <time>2021-10-09T05:32:48Z</time>
      </trkpt>
      <trkpt lat="42.82851" lon="2.13262">
        <ele>487.4</ele>
        <time>2021-10-09T05:32:52Z</time>
      </trkpt>
      <trkpt lat="42.82857" lon="2.13244">
        <ele>487.8</ele>
        <time>2021-10-09T05:32:55Z</time>
      </trkpt>
      <trkpt lat="42.82868" lon="2.13198">
        <ele>488.4</ele>
        <time>2021-10-09T05:33:02Z</time>
      </trkpt>
      <trkpt lat="42.82871" lon="2.13172">
        <ele>488.8</ele>
        <time>2021-10-09T05:33:06Z</time>
      </trkpt>
      <trkpt lat="42.82871" lon="2.13158">
        <ele>489</ele>
        <time>2021-10-09T05:33:08Z</time>
      </trkpt>
      <trkpt lat="42.82873" lon="2.13118">
        <ele>489.6</ele>
        <time>2021-10-09T05:33:14Z</time>
      </trkpt>
      <trkpt lat="42.82873" lon="2.13112">
        <ele>489.8</ele>
        <time>2021-10-09T05:33:15Z</time>
      </trkpt>
      <trkpt lat="42.82874" lon="2.13092">
        <ele>490</ele>
        <time>2021-10-09T05:33:18Z</time>
      </trkpt>
      <trkpt lat="42.82875" lon="2.13072">
        <ele>490.4</ele>
        <time>2021-10-09T05:33:21Z</time>
      </trkpt>
      <trkpt lat="42.82875" lon="2.13058">
        <ele>490.6</ele>
        <time>2021-10-09T05:33:23Z</time>
      </trkpt>
      <trkpt lat="42.82876" lon="2.13038">
        <ele>490.8</ele>
        <time>2021-10-09T05:33:26Z</time>
      </trkpt>
      <trkpt lat="42.82879" lon="2.13025">
        <ele>491</ele>
        <time>2021-10-09T05:33:28Z</time>
      </trkpt>
      <trkpt lat="42.82883" lon="2.12999">
        <ele>491.2</ele>
        <time>2021-10-09T05:33:32Z</time>
      </trkpt>
      <trkpt lat="42.82888" lon="2.12967">
        <ele>491.8</ele>
        <time>2021-10-09T05:33:37Z</time>
      </trkpt>
      <trkpt lat="42.82887" lon="2.1296">
        <ele>491.8</ele>
        <time>2021-10-09T05:33:38Z</time>
      </trkpt>
      <trkpt lat="42.82886" lon="2.12947">
        <ele>492.2</ele>
        <time>2021-10-09T05:33:40Z</time>
      </trkpt>
      <trkpt lat="42.82885" lon="2.12928">
        <ele>492.6</ele>
        <time>2021-10-09T05:33:43Z</time>
      </trkpt>
      <trkpt lat="42.82885" lon="2.12922">
        <ele>492.8</ele>
        <time>2021-10-09T05:33:44Z</time>
      </trkpt>
      <trkpt lat="42.82874" lon="2.12867">
        <ele>494</ele>
        <time>2021-10-09T05:33:52Z</time>
      </trkpt>
      <trkpt lat="42.82867" lon="2.1282">
        <ele>494.8</ele>
        <time>2021-10-09T05:33:59Z</time>
      </trkpt>
      <trkpt lat="42.82867" lon="2.12813">
        <ele>495</ele>
        <time>2021-10-09T05:34:00Z</time>
      </trkpt>
      <trkpt lat="42.82865" lon="2.12772">
        <ele>495.6</ele>
        <time>2021-10-09T05:34:06Z</time>
      </trkpt>
      <trkpt lat="42.82863" lon="2.12738">
        <ele>496</ele>
        <time>2021-10-09T05:34:11Z</time>
      </trkpt>
      <trkpt lat="42.82863" lon="2.12718">
        <ele>496.2</ele>
        <time>2021-10-09T05:34:14Z</time>
      </trkpt>
      <trkpt lat="42.82863" lon="2.12664">
        <ele>496.8</ele>
        <time>2021-10-09T05:34:22Z</time>
      </trkpt>
      <trkpt lat="42.82867" lon="2.12618">
        <ele>497.4</ele>
        <time>2021-10-09T05:34:29Z</time>
      </trkpt>
      <trkpt lat="42.82881" lon="2.12568">
        <ele>498</ele>
        <time>2021-10-09T05:34:37Z</time>
      </trkpt>
      <trkpt lat="42.82884" lon="2.12563">
        <ele>498.2</ele>
        <time>2021-10-09T05:34:38Z</time>
      </trkpt>
      <trkpt lat="42.82893" lon="2.12539">
        <ele>498.4</ele>
        <time>2021-10-09T05:34:42Z</time>
      </trkpt>
      <trkpt lat="42.82911" lon="2.12498">
        <ele>499</ele>
        <time>2021-10-09T05:34:49Z</time>
      </trkpt>
      <trkpt lat="42.8292" lon="2.12475">
        <ele>499.2</ele>
        <time>2021-10-09T05:34:53Z</time>
      </trkpt>
      <trkpt lat="42.82925" lon="2.12456">
        <ele>499.4</ele>
        <time>2021-10-09T05:34:56Z</time>
      </trkpt>
      <trkpt lat="42.82939" lon="2.12406">
        <ele>500.2</ele>
        <time>2021-10-09T05:35:04Z</time>
      </trkpt>
      <trkpt lat="42.82954" lon="2.12364">
        <ele>500.6</ele>
        <time>2021-10-09T05:35:11Z</time>
      </trkpt>
      <trkpt lat="42.82957" lon="2.12358">
        <ele>500.6</ele>
        <time>2021-10-09T05:35:12Z</time>
      </trkpt>
      <trkpt lat="42.82978" lon="2.12306">
        <ele>501.6</ele>
        <time>2021-10-09T05:35:21Z</time>
      </trkpt>
      <trkpt lat="42.8298" lon="2.12293">
        <ele>501.8</ele>
        <time>2021-10-09T05:35:23Z</time>
      </trkpt>
      <trkpt lat="42.82983" lon="2.12274">
        <ele>502</ele>
        <time>2021-10-09T05:35:26Z</time>
      </trkpt>
      <trkpt lat="42.82984" lon="2.12261">
        <ele>502.2</ele>
        <time>2021-10-09T05:35:28Z</time>
      </trkpt>
      <trkpt lat="42.82986" lon="2.12233">
        <ele>502.6</ele>
        <time>2021-10-09T05:35:32Z</time>
      </trkpt>
      <trkpt lat="42.82989" lon="2.12178">
        <ele>503.4</ele>
        <time>2021-10-09T05:35:40Z</time>
      </trkpt>
      <trkpt lat="42.82991" lon="2.12136">
        <ele>504</ele>
        <time>2021-10-09T05:35:46Z</time>
      </trkpt>
      <trkpt lat="42.82992" lon="2.12129">
        <ele>504.2</ele>
        <time>2021-10-09T05:35:47Z</time>
      </trkpt>
      <trkpt lat="42.82997" lon="2.12108">
        <ele>504.6</ele>
        <time>2021-10-09T05:35:50Z</time>
      </trkpt>
      <trkpt lat="42.83005" lon="2.12091">
        <ele>505</ele>
        <time>2021-10-09T05:35:53Z</time>
      </trkpt>
      <trkpt lat="42.83028" lon="2.12064">
        <ele>505.6</ele>
        <time>2021-10-09T05:35:59Z</time>
      </trkpt>
      <trkpt lat="42.83031" lon="2.12058">
        <ele>505.6</ele>
        <time>2021-10-09T05:36:00Z</time>
      </trkpt>
      <trkpt lat="42.83044" lon="2.12029">
        <ele>506</ele>
        <time>2021-10-09T05:36:05Z</time>
      </trkpt>
      <trkpt lat="42.83054" lon="2.11991">
        <ele>506.8</ele>
        <time>2021-10-09T05:36:11Z</time>
      </trkpt>
      <trkpt lat="42.83057" lon="2.11978">
        <ele>507</ele>
        <time>2021-10-09T05:36:13Z</time>
      </trkpt>
      <trkpt lat="42.83068" lon="2.11934">
        <ele>507.6</ele>
        <time>2021-10-09T05:36:20Z</time>
      </trkpt>
      <trkpt lat="42.83077" lon="2.11883">
        <ele>508.6</ele>
        <time>2021-10-09T05:36:28Z</time>
      </trkpt>
      <trkpt lat="42.83075" lon="2.11846">
        <ele>509.2</ele>
        <time>2021-10-09T05:36:34Z</time>
      </trkpt>
      <trkpt lat="42.83064" lon="2.11811">
        <ele>509.8</ele>
        <time>2021-10-09T05:36:40Z</time>
      </trkpt>
      <trkpt lat="42.83063" lon="2.11805">
        <ele>509.8</ele>
        <time>2021-10-09T05:36:41Z</time>
      </trkpt>
      <trkpt lat="42.83055" lon="2.1178">
        <ele>510</ele>
        <time>2021-10-09T05:36:45Z</time>
      </trkpt>
      <trkpt lat="42.8305" lon="2.11762">
        <ele>510.4</ele>
        <time>2021-10-09T05:36:48Z</time>
      </trkpt>
      <trkpt lat="42.8305" lon="2.11749">
        <ele>510.4</ele>
        <time>2021-10-09T05:36:50Z</time>
      </trkpt>
      <trkpt lat="42.8305" lon="2.11743">
        <ele>510.6</ele>
        <time>2021-10-09T05:36:51Z</time>
      </trkpt>
      <trkpt lat="42.83049" lon="2.11729">
        <ele>510.8</ele>
        <time>2021-10-09T05:36:53Z</time>
      </trkpt>
      <trkpt lat="42.8305" lon="2.11703">
        <ele>511</ele>
        <time>2021-10-09T05:36:57Z</time>
      </trkpt>
      <trkpt lat="42.83052" lon="2.1169">
        <ele>511.2</ele>
        <time>2021-10-09T05:36:59Z</time>
      </trkpt>
      <trkpt lat="42.83055" lon="2.11671">
        <ele>511.6</ele>
        <time>2021-10-09T05:37:02Z</time>
      </trkpt>
      <trkpt lat="42.83056" lon="2.11665">
        <ele>511.6</ele>
        <time>2021-10-09T05:37:03Z</time>
      </trkpt>
      <trkpt lat="42.83066" lon="2.11643">
        <ele>511.8</ele>
        <time>2021-10-09T05:37:07Z</time>
      </trkpt>
      <trkpt lat="42.83068" lon="2.11637">
        <ele>512</ele>
        <time>2021-10-09T05:37:08Z</time>
      </trkpt>
      <trkpt lat="42.83083" lon="2.11599">
        <ele>512.2</ele>
        <time>2021-10-09T05:37:14Z</time>
      </trkpt>
      <trkpt lat="42.83101" lon="2.11544">
        <ele>512.8</ele>
        <time>2021-10-09T05:37:22Z</time>
      </trkpt>
      <trkpt lat="42.83102" lon="2.11537">
        <ele>512.8</ele>
        <time>2021-10-09T05:37:23Z</time>
      </trkpt>
      <trkpt lat="42.8311" lon="2.11502">
        <ele>513.2</ele>
        <time>2021-10-09T05:37:28Z</time>
      </trkpt>
      <trkpt lat="42.83116" lon="2.11452">
        <ele>513.6</ele>
        <time>2021-10-09T05:37:35Z</time>
      </trkpt>
      <trkpt lat="42.83123" lon="2.11396">
        <ele>514</ele>
        <time>2021-10-09T05:37:43Z</time>
      </trkpt>
      <trkpt lat="42.83126" lon="2.11374">
        <ele>514.2</ele>
        <time>2021-10-09T05:37:46Z</time>
      </trkpt>
      <trkpt lat="42.8313" lon="2.11346">
        <ele>514.6</ele>
        <time>2021-10-09T05:37:50Z</time>
      </trkpt>
      <trkpt lat="42.83135" lon="2.11304">
        <ele>514.8</ele>
        <time>2021-10-09T05:37:56Z</time>
      </trkpt>
      <trkpt lat="42.83142" lon="2.11256">
        <ele>515.4</ele>
        <time>2021-10-09T05:38:03Z</time>
      </trkpt>
      <trkpt lat="42.83151" lon="2.11207">
        <ele>515.8</ele>
        <time>2021-10-09T05:38:10Z</time>
      </trkpt>
      <trkpt lat="42.83154" lon="2.11201">
        <ele>516</ele>
        <time>2021-10-09T05:38:11Z</time>
      </trkpt>
      <trkpt lat="42.83164" lon="2.11176">
        <ele>516.2</ele>
        <time>2021-10-09T05:38:15Z</time>
      </trkpt>
      <trkpt lat="42.83163" lon="2.11147">
        <ele>516.6</ele>
        <time>2021-10-09T05:38:19Z</time>
      </trkpt>
      <trkpt lat="42.83162" lon="2.11134">
        <ele>516.8</ele>
        <time>2021-10-09T05:38:21Z</time>
      </trkpt>
      <trkpt lat="42.83162" lon="2.11127">
        <ele>516.8</ele>
        <time>2021-10-09T05:38:22Z</time>
      </trkpt>
      <trkpt lat="42.83161" lon="2.11106">
        <ele>517</ele>
        <time>2021-10-09T05:38:25Z</time>
      </trkpt>
      <trkpt lat="42.8316" lon="2.11092">
        <ele>517.2</ele>
        <time>2021-10-09T05:38:27Z</time>
      </trkpt>
      <trkpt lat="42.83166" lon="2.11058">
        <ele>517.6</ele>
        <time>2021-10-09T05:38:32Z</time>
      </trkpt>
      <trkpt lat="42.83178" lon="2.1101">
        <ele>518.2</ele>
        <time>2021-10-09T05:38:39Z</time>
      </trkpt>
      <trkpt lat="42.83182" lon="2.10997">
        <ele>518.2</ele>
        <time>2021-10-09T05:38:41Z</time>
      </trkpt>
      <trkpt lat="42.83191" lon="2.1098">
        <ele>518.4</ele>
        <time>2021-10-09T05:38:44Z</time>
      </trkpt>
      <trkpt lat="42.83197" lon="2.10968">
        <ele>518.6</ele>
        <time>2021-10-09T05:38:46Z</time>
      </trkpt>
      <trkpt lat="42.83202" lon="2.10948">
        <ele>518.8</ele>
        <time>2021-10-09T05:38:49Z</time>
      </trkpt>
      <trkpt lat="42.83222" lon="2.10915">
        <ele>519.2</ele>
        <time>2021-10-09T05:38:55Z</time>
      </trkpt>
      <trkpt lat="42.83229" lon="2.10905">
        <ele>519.4</ele>
        <time>2021-10-09T05:38:57Z</time>
      </trkpt>
      <trkpt lat="42.83239" lon="2.1089">
        <ele>519.6</ele>
        <time>2021-10-09T05:39:00Z</time>
      </trkpt>
      <trkpt lat="42.83244" lon="2.10879">
        <ele>519.8</ele>
        <time>2021-10-09T05:39:02Z</time>
      </trkpt>
      <trkpt lat="42.83251" lon="2.1086">
        <ele>520</ele>
        <time>2021-10-09T05:39:05Z</time>
      </trkpt>
      <trkpt lat="42.83258" lon="2.10817">
        <ele>520.6</ele>
        <time>2021-10-09T05:39:11Z</time>
      </trkpt>
      <trkpt lat="42.83259" lon="2.1081">
        <ele>520.6</ele>
        <time>2021-10-09T05:39:12Z</time>
      </trkpt>
      <trkpt lat="42.83273" lon="2.10754">
        <ele>521.2</ele>
        <time>2021-10-09T05:39:20Z</time>
      </trkpt>
      <trkpt lat="42.83279" lon="2.10703">
        <ele>522</ele>
        <time>2021-10-09T05:39:27Z</time>
      </trkpt>
      <trkpt lat="42.83278" lon="2.10688">
        <ele>522.2</ele>
        <time>2021-10-09T05:39:29Z</time>
      </trkpt>
      <trkpt lat="42.83275" lon="2.10659">
        <ele>522.8</ele>
        <time>2021-10-09T05:39:33Z</time>
      </trkpt>
      <trkpt lat="42.83266" lon="2.10627">
        <ele>523</ele>
        <time>2021-10-09T05:39:38Z</time>
      </trkpt>
      <trkpt lat="42.83264" lon="2.10621">
        <ele>523</ele>
        <time>2021-10-09T05:39:39Z</time>
      </trkpt>
      <trkpt lat="42.83263" lon="2.10616">
        <ele>523.2</ele>
        <time>2021-10-09T05:39:40Z</time>
      </trkpt>
      <trkpt lat="42.83258" lon="2.10605">
        <ele>523.4</ele>
        <time>2021-10-09T05:39:42Z</time>
      </trkpt>
      <trkpt lat="42.83254" lon="2.10599">
        <ele>523.4</ele>
        <time>2021-10-09T05:39:43Z</time>
      </trkpt>
      <trkpt lat="42.83233" lon="2.10556">
        <ele>523.8</ele>
        <time>2021-10-09T05:39:50Z</time>
      </trkpt>
      <trkpt lat="42.83224" lon="2.10538">
        <ele>524</ele>
        <time>2021-10-09T05:39:53Z</time>
      </trkpt>
      <trkpt lat="42.83219" lon="2.10526">
        <ele>524</ele>
        <time>2021-10-09T05:39:55Z</time>
      </trkpt>
      <trkpt lat="42.83216" lon="2.1052">
        <ele>524</ele>
        <time>2021-10-09T05:39:56Z</time>
      </trkpt>
      <trkpt lat="42.832" lon="2.10481">
        <ele>524.4</ele>
        <time>2021-10-09T05:40:02Z</time>
      </trkpt>
      <trkpt lat="42.83198" lon="2.10474">
        <ele>524.4</ele>
        <time>2021-10-09T05:40:03Z</time>
      </trkpt>
      <trkpt lat="42.83194" lon="2.10461">
        <ele>524.6</ele>
        <time>2021-10-09T05:40:05Z</time>
      </trkpt>
      <trkpt lat="42.83188" lon="2.1044">
        <ele>524.8</ele>
        <time>2021-10-09T05:40:08Z</time>
      </trkpt>
      <trkpt lat="42.83171" lon="2.10391">
        <ele>525.8</ele>
        <time>2021-10-09T05:40:15Z</time>
      </trkpt>
      <trkpt lat="42.83169" lon="2.10385">
        <ele>526</ele>
        <time>2021-10-09T05:40:16Z</time>
      </trkpt>
      <trkpt lat="42.83163" lon="2.10368">
        <ele>526.6</ele>
        <time>2021-10-09T05:40:19Z</time>
      </trkpt>
      <trkpt lat="42.83156" lon="2.10359">
        <ele>527</ele>
        <time>2021-10-09T05:40:21Z</time>
      </trkpt>
      <trkpt lat="42.83152" lon="2.10354">
        <ele>527.2</ele>
        <time>2021-10-09T05:40:22Z</time>
      </trkpt>
      <trkpt lat="42.83144" lon="2.10344">
        <ele>527.6</ele>
        <time>2021-10-09T05:40:24Z</time>
      </trkpt>
      <trkpt lat="42.83137" lon="2.10334">
        <ele>528</ele>
        <time>2021-10-09T05:40:26Z</time>
      </trkpt>
      <trkpt lat="42.83129" lon="2.10325">
        <ele>528.4</ele>
        <time>2021-10-09T05:40:28Z</time>
      </trkpt>
      <trkpt lat="42.83119" lon="2.10312">
        <ele>529</ele>
        <time>2021-10-09T05:40:31Z</time>
      </trkpt>
      <trkpt lat="42.83105" lon="2.10294">
        <ele>529.6</ele>
        <time>2021-10-09T05:40:35Z</time>
      </trkpt>
      <trkpt lat="42.83098" lon="2.10285">
        <ele>530</ele>
        <time>2021-10-09T05:40:37Z</time>
      </trkpt>
      <trkpt lat="42.83091" lon="2.10276">
        <ele>530.2</ele>
        <time>2021-10-09T05:40:39Z</time>
      </trkpt>
      <trkpt lat="42.83082" lon="2.10264">
        <ele>530.6</ele>
        <time>2021-10-09T05:40:42Z</time>
      </trkpt>
      <trkpt lat="42.83053" lon="2.10227">
        <ele>532.2</ele>
        <time>2021-10-09T05:40:51Z</time>
      </trkpt>
      <trkpt lat="42.8304" lon="2.1021">
        <ele>532.8</ele>
        <time>2021-10-09T05:40:55Z</time>
      </trkpt>
      <trkpt lat="42.83032" lon="2.10195">
        <ele>533.4</ele>
        <time>2021-10-09T05:40:58Z</time>
      </trkpt>
      <trkpt lat="42.83021" lon="2.10173">
        <ele>534.6</ele>
        <time>2021-10-09T05:41:02Z</time>
      </trkpt>
      <trkpt lat="42.83015" lon="2.10162">
        <ele>535.2</ele>
        <time>2021-10-09T05:41:04Z</time>
      </trkpt>
      <trkpt lat="42.83014" lon="2.10151">
        <ele>535.8</ele>
        <time>2021-10-09T05:41:06Z</time>
      </trkpt>
      <trkpt lat="42.83014" lon="2.10137">
        <ele>536.2</ele>
        <time>2021-10-09T05:41:08Z</time>
      </trkpt>
      <trkpt lat="42.83013" lon="2.1013">
        <ele>536.4</ele>
        <time>2021-10-09T05:41:09Z</time>
      </trkpt>
      <trkpt lat="42.83012" lon="2.10091">
        <ele>537.8</ele>
        <time>2021-10-09T05:41:15Z</time>
      </trkpt>
      <trkpt lat="42.83006" lon="2.10052">
        <ele>538.6</ele>
        <time>2021-10-09T05:41:21Z</time>
      </trkpt>
      <trkpt lat="42.83003" lon="2.10039">
        <ele>539</ele>
        <time>2021-10-09T05:41:23Z</time>
      </trkpt>
      <trkpt lat="42.82989" lon="2.09998">
        <ele>540.4</ele>
        <time>2021-10-09T05:41:30Z</time>
      </trkpt>
      <trkpt lat="42.82986" lon="2.09992">
        <ele>540.6</ele>
        <time>2021-10-09T05:41:31Z</time>
      </trkpt>
      <trkpt lat="42.82979" lon="2.09974">
        <ele>541.4</ele>
        <time>2021-10-09T05:41:34Z</time>
      </trkpt>
      <trkpt lat="42.8297" lon="2.09958">
        <ele>542</ele>
        <time>2021-10-09T05:41:37Z</time>
      </trkpt>
      <trkpt lat="42.82947" lon="2.0992">
        <ele>543.4</ele>
        <time>2021-10-09T05:41:44Z</time>
      </trkpt>
      <trkpt lat="42.82915" lon="2.09865">
        <ele>545.4</ele>
        <time>2021-10-09T05:41:54Z</time>
      </trkpt>
      <trkpt lat="42.82892" lon="2.09827">
        <ele>546.8</ele>
        <time>2021-10-09T05:42:01Z</time>
      </trkpt>
      <trkpt lat="42.82865" lon="2.09785">
        <ele>548.4</ele>
        <time>2021-10-09T05:42:09Z</time>
      </trkpt>
      <trkpt lat="42.82834" lon="2.09739">
        <ele>550.2</ele>
        <time>2021-10-09T05:42:18Z</time>
      </trkpt>
      <trkpt lat="42.82828" lon="2.09729">
        <ele>550.6</ele>
        <time>2021-10-09T05:42:20Z</time>
      </trkpt>
      <trkpt lat="42.82815" lon="2.0971">
        <ele>551.4</ele>
        <time>2021-10-09T05:42:24Z</time>
      </trkpt>
      <trkpt lat="42.82809" lon="2.097">
        <ele>551.8</ele>
        <time>2021-10-09T05:42:26Z</time>
      </trkpt>
      <trkpt lat="42.82799" lon="2.09687">
        <ele>552.4</ele>
        <time>2021-10-09T05:42:29Z</time>
      </trkpt>
      <trkpt lat="42.82796" lon="2.09683">
        <ele>552.6</ele>
        <time>2021-10-09T05:42:30Z</time>
      </trkpt>
      <trkpt lat="42.82782" lon="2.09665">
        <ele>553.6</ele>
        <time>2021-10-09T05:42:34Z</time>
      </trkpt>
      <trkpt lat="42.82779" lon="2.09661">
        <ele>553.8</ele>
        <time>2021-10-09T05:42:35Z</time>
      </trkpt>
      <trkpt lat="42.82764" lon="2.09642">
        <ele>554.6</ele>
        <time>2021-10-09T05:42:39Z</time>
      </trkpt>
      <trkpt lat="42.82752" lon="2.09631">
        <ele>555.4</ele>
        <time>2021-10-09T05:42:42Z</time>
      </trkpt>
      <trkpt lat="42.82732" lon="2.09612">
        <ele>556.8</ele>
        <time>2021-10-09T05:42:47Z</time>
      </trkpt>
      <trkpt lat="42.8273" lon="2.09607">
        <ele>557</ele>
        <time>2021-10-09T05:42:48Z</time>
      </trkpt>
      <trkpt lat="42.82721" lon="2.09586">
        <ele>557.8</ele>
        <time>2021-10-09T05:42:52Z</time>
      </trkpt>
      <trkpt lat="42.82716" lon="2.09575">
        <ele>558.2</ele>
        <time>2021-10-09T05:42:54Z</time>
      </trkpt>
      <trkpt lat="42.82703" lon="2.09545">
        <ele>559.8</ele>
        <time>2021-10-09T05:43:00Z</time>
      </trkpt>
      <trkpt lat="42.82701" lon="2.09539">
        <ele>560</ele>
        <time>2021-10-09T05:43:01Z</time>
      </trkpt>
      <trkpt lat="42.82697" lon="2.09522">
        <ele>560.8</ele>
        <time>2021-10-09T05:43:04Z</time>
      </trkpt>
      <trkpt lat="42.82694" lon="2.09505">
        <ele>561.6</ele>
        <time>2021-10-09T05:43:07Z</time>
      </trkpt>
      <trkpt lat="42.82696" lon="2.09495">
        <ele>562</ele>
        <time>2021-10-09T05:43:09Z</time>
      </trkpt>
      <trkpt lat="42.82699" lon="2.09478">
        <ele>562.6</ele>
        <time>2021-10-09T05:43:12Z</time>
      </trkpt>
      <trkpt lat="42.82701" lon="2.09472">
        <ele>562.8</ele>
        <time>2021-10-09T05:43:13Z</time>
      </trkpt>
      <trkpt lat="42.82707" lon="2.09449">
        <ele>563.4</ele>
        <time>2021-10-09T05:43:17Z</time>
      </trkpt>
      <trkpt lat="42.82714" lon="2.0942">
        <ele>564</ele>
        <time>2021-10-09T05:43:22Z</time>
      </trkpt>
      <trkpt lat="42.82715" lon="2.09402">
        <ele>564.2</ele>
        <time>2021-10-09T05:43:25Z</time>
      </trkpt>
      <trkpt lat="42.82713" lon="2.09366">
        <ele>564.6</ele>
        <time>2021-10-09T05:43:31Z</time>
      </trkpt>
      <trkpt lat="42.82715" lon="2.09342">
        <ele>565</ele>
        <time>2021-10-09T05:43:35Z</time>
      </trkpt>
      <trkpt lat="42.82718" lon="2.09318">
        <ele>565.4</ele>
        <time>2021-10-09T05:43:39Z</time>
      </trkpt>
      <trkpt lat="42.82725" lon="2.09276">
        <ele>566</ele>
        <time>2021-10-09T05:43:46Z</time>
      </trkpt>
      <trkpt lat="42.82723" lon="2.09252">
        <ele>566.2</ele>
        <time>2021-10-09T05:43:50Z</time>
      </trkpt>
      <trkpt lat="42.8272" lon="2.09234">
        <ele>566.6</ele>
        <time>2021-10-09T05:43:53Z</time>
      </trkpt>
      <trkpt lat="42.82708" lon="2.0918">
        <ele>567</ele>
        <time>2021-10-09T05:44:02Z</time>
      </trkpt>
      <trkpt lat="42.82701" lon="2.09131">
        <ele>568.2</ele>
        <time>2021-10-09T05:44:10Z</time>
      </trkpt>
      <trkpt lat="42.82698" lon="2.09107">
        <ele>568.6</ele>
        <time>2021-10-09T05:44:14Z</time>
      </trkpt>
      <trkpt lat="42.82698" lon="2.09088">
        <ele>569.2</ele>
        <time>2021-10-09T05:44:17Z</time>
      </trkpt>
      <trkpt lat="42.82699" lon="2.09082">
        <ele>569.2</ele>
        <time>2021-10-09T05:44:18Z</time>
      </trkpt>
      <trkpt lat="42.82702" lon="2.09064">
        <ele>569.6</ele>
        <time>2021-10-09T05:44:21Z</time>
      </trkpt>
      <trkpt lat="42.82705" lon="2.09052">
        <ele>569.8</ele>
        <time>2021-10-09T05:44:23Z</time>
      </trkpt>
      <trkpt lat="42.82713" lon="2.09023">
        <ele>570.4</ele>
        <time>2021-10-09T05:44:28Z</time>
      </trkpt>
      <trkpt lat="42.82715" lon="2.09017">
        <ele>570.4</ele>
        <time>2021-10-09T05:44:29Z</time>
      </trkpt>
      <trkpt lat="42.82725" lon="2.08979">
        <ele>571</ele>
        <time>2021-10-09T05:44:36Z</time>
      </trkpt>
      <trkpt lat="42.82729" lon="2.08963">
        <ele>571.2</ele>
        <time>2021-10-09T05:44:39Z</time>
      </trkpt>
      <trkpt lat="42.82732" lon="2.08946">
        <ele>571.2</ele>
        <time>2021-10-09T05:44:42Z</time>
      </trkpt>
      <trkpt lat="42.82736" lon="2.0893">
        <ele>571.2</ele>
        <time>2021-10-09T05:44:45Z</time>
      </trkpt>
      <trkpt lat="42.82737" lon="2.08925">
        <ele>571.2</ele>
        <time>2021-10-09T05:44:46Z</time>
      </trkpt>
      <trkpt lat="42.82737" lon="2.08914">
        <ele>571.4</ele>
        <time>2021-10-09T05:44:48Z</time>
      </trkpt>
      <trkpt lat="42.82734" lon="2.08896">
        <ele>571.6</ele>
        <time>2021-10-09T05:44:51Z</time>
      </trkpt>
      <trkpt lat="42.82733" lon="2.08892">
        <ele>571.6</ele>
        <time>2021-10-09T05:44:52Z</time>
      </trkpt>
      <trkpt lat="42.82724" lon="2.08847">
        <ele>572</ele>
        <time>2021-10-09T05:45:00Z</time>
      </trkpt>
      <trkpt lat="42.82719" lon="2.08826">
        <ele>572.2</ele>
        <time>2021-10-09T05:45:04Z</time>
      </trkpt>
      <trkpt lat="42.82717" lon="2.08815">
        <ele>572.2</ele>
        <time>2021-10-09T05:45:06Z</time>
      </trkpt>
      <trkpt lat="42.82709" lon="2.08778">
        <ele>572.8</ele>
        <time>2021-10-09T05:45:12Z</time>
      </trkpt>
      <trkpt lat="42.82708" lon="2.08772">
        <ele>573</ele>
        <time>2021-10-09T05:45:13Z</time>
      </trkpt>
      <trkpt lat="42.82705" lon="2.08754">
        <ele>573.6</ele>
        <time>2021-10-09T05:45:16Z</time>
      </trkpt>
      <trkpt lat="42.82703" lon="2.08742">
        <ele>573.8</ele>
        <time>2021-10-09T05:45:18Z</time>
      </trkpt>
      <trkpt lat="42.82702" lon="2.08736">
        <ele>574</ele>
        <time>2021-10-09T05:45:19Z</time>
      </trkpt>
      <trkpt lat="42.82702" lon="2.08724">
        <ele>574.4</ele>
        <time>2021-10-09T05:45:21Z</time>
      </trkpt>
      <trkpt lat="42.82704" lon="2.08712">
        <ele>574.6</ele>
        <time>2021-10-09T05:45:23Z</time>
      </trkpt>
      <trkpt lat="42.82714" lon="2.0868">
        <ele>575.4</ele>
        <time>2021-10-09T05:45:29Z</time>
      </trkpt>
      <trkpt lat="42.82728" lon="2.08641">
        <ele>576.2</ele>
        <time>2021-10-09T05:45:36Z</time>
      </trkpt>
      <trkpt lat="42.82741" lon="2.08623">
        <ele>576.8</ele>
        <time>2021-10-09T05:45:40Z</time>
      </trkpt>
      <trkpt lat="42.82744" lon="2.08619">
        <ele>577</ele>
        <time>2021-10-09T05:45:41Z</time>
      </trkpt>
      <trkpt lat="42.82751" lon="2.08613">
        <ele>577.4</ele>
        <time>2021-10-09T05:45:43Z</time>
      </trkpt>
      <trkpt lat="42.82766" lon="2.08603">
        <ele>578</ele>
        <time>2021-10-09T05:45:47Z</time>
      </trkpt>
      <trkpt lat="42.82787" lon="2.08585">
        <ele>579.2</ele>
        <time>2021-10-09T05:45:53Z</time>
      </trkpt>
      <trkpt lat="42.82798" lon="2.08567">
        <ele>580</ele>
        <time>2021-10-09T05:45:57Z</time>
      </trkpt>
      <trkpt lat="42.82803" lon="2.08558">
        <ele>580.4</ele>
        <time>2021-10-09T05:45:59Z</time>
      </trkpt>
      <trkpt lat="42.82806" lon="2.08554">
        <ele>580.8</ele>
        <time>2021-10-09T05:46:00Z</time>
      </trkpt>
      <trkpt lat="42.82816" lon="2.08535">
        <ele>581.6</ele>
        <time>2021-10-09T05:46:04Z</time>
      </trkpt>
      <trkpt lat="42.82827" lon="2.08516">
        <ele>582.2</ele>
        <time>2021-10-09T05:46:08Z</time>
      </trkpt>
      <trkpt lat="42.82832" lon="2.08506">
        <ele>582.6</ele>
        <time>2021-10-09T05:46:10Z</time>
      </trkpt>
      <trkpt lat="42.82843" lon="2.08475">
        <ele>583.8</ele>
        <time>2021-10-09T05:46:16Z</time>
      </trkpt>
      <trkpt lat="42.82845" lon="2.08464">
        <ele>584</ele>
        <time>2021-10-09T05:46:18Z</time>
      </trkpt>
      <trkpt lat="42.82846" lon="2.08457">
        <ele>584.2</ele>
        <time>2021-10-09T05:46:19Z</time>
      </trkpt>
      <trkpt lat="42.82845" lon="2.08422">
        <ele>585.4</ele>
        <time>2021-10-09T05:46:25Z</time>
      </trkpt>
      <trkpt lat="42.82842" lon="2.08369">
        <ele>587</ele>
        <time>2021-10-09T05:46:34Z</time>
      </trkpt>
      <trkpt lat="42.82845" lon="2.08322">
        <ele>588.6</ele>
        <time>2021-10-09T05:46:42Z</time>
      </trkpt>
      <trkpt lat="42.82845" lon="2.08316">
        <ele>588.8</ele>
        <time>2021-10-09T05:46:43Z</time>
      </trkpt>
      <trkpt lat="42.82847" lon="2.08281">
        <ele>589.8</ele>
        <time>2021-10-09T05:46:49Z</time>
      </trkpt>
      <trkpt lat="42.82852" lon="2.08246">
        <ele>591</ele>
        <time>2021-10-09T05:46:55Z</time>
      </trkpt>
      <trkpt lat="42.82854" lon="2.08241">
        <ele>591.2</ele>
        <time>2021-10-09T05:46:56Z</time>
      </trkpt>
      <trkpt lat="42.82856" lon="2.08236">
        <ele>591.4</ele>
        <time>2021-10-09T05:46:57Z</time>
      </trkpt>
      <trkpt lat="42.82868" lon="2.08213">
        <ele>592.2</ele>
        <time>2021-10-09T05:47:02Z</time>
      </trkpt>
      <trkpt lat="42.82871" lon="2.08208">
        <ele>592.4</ele>
        <time>2021-10-09T05:47:03Z</time>
      </trkpt>
      <trkpt lat="42.82888" lon="2.08192">
        <ele>593.2</ele>
        <time>2021-10-09T05:47:08Z</time>
      </trkpt>
      <trkpt lat="42.82899" lon="2.08178">
        <ele>594</ele>
        <time>2021-10-09T05:47:12Z</time>
      </trkpt>
      <trkpt lat="42.82913" lon="2.08156">
        <ele>594.8</ele>
        <time>2021-10-09T05:47:17Z</time>
      </trkpt>
      <trkpt lat="42.82915" lon="2.08152">
        <ele>595</ele>
        <time>2021-10-09T05:47:18Z</time>
      </trkpt>
      <trkpt lat="42.82921" lon="2.08143">
        <ele>595.6</ele>
        <time>2021-10-09T05:47:20Z</time>
      </trkpt>
      <trkpt lat="42.8293" lon="2.08124">
        <ele>596.4</ele>
        <time>2021-10-09T05:47:24Z</time>
      </trkpt>
      <trkpt lat="42.8294" lon="2.08091">
        <ele>597.6</ele>
        <time>2021-10-09T05:47:30Z</time>
      </trkpt>
      <trkpt lat="42.82955" lon="2.08034">
        <ele>599.8</ele>
        <time>2021-10-09T05:47:40Z</time>
      </trkpt>
      <trkpt lat="42.82962" lon="2.07984">
        <ele>601.4</ele>
        <time>2021-10-09T05:47:49Z</time>
      </trkpt>
      <trkpt lat="42.82964" lon="2.07962">
        <ele>601.8</ele>
        <time>2021-10-09T05:47:53Z</time>
      </trkpt>
      <trkpt lat="42.82965" lon="2.07951">
        <ele>602</ele>
        <time>2021-10-09T05:47:55Z</time>
      </trkpt>
      <trkpt lat="42.82967" lon="2.07928">
        <ele>602.6</ele>
        <time>2021-10-09T05:47:59Z</time>
      </trkpt>
      <trkpt lat="42.82969" lon="2.07909">
        <ele>603.2</ele>
        <time>2021-10-09T05:48:02Z</time>
      </trkpt>
      <trkpt lat="42.82973" lon="2.07899">
        <ele>603.4</ele>
        <time>2021-10-09T05:48:04Z</time>
      </trkpt>
      <trkpt lat="42.82983" lon="2.07874">
        <ele>604.4</ele>
        <time>2021-10-09T05:48:09Z</time>
      </trkpt>
      <trkpt lat="42.82997" lon="2.0785">
        <ele>605.4</ele>
        <time>2021-10-09T05:48:15Z</time>
      </trkpt>
      <trkpt lat="42.83018" lon="2.07824">
        <ele>606.4</ele>
        <time>2021-10-09T05:48:22Z</time>
      </trkpt>
      <trkpt lat="42.83025" lon="2.07816">
        <ele>606.6</ele>
        <time>2021-10-09T05:48:24Z</time>
      </trkpt>
      <trkpt lat="42.83035" lon="2.07799">
        <ele>607.2</ele>
        <time>2021-10-09T05:48:28Z</time>
      </trkpt>
      <trkpt lat="42.8305" lon="2.07752">
        <ele>609</ele>
        <time>2021-10-09T05:48:37Z</time>
      </trkpt>
      <trkpt lat="42.83068" lon="2.07697">
        <ele>610.8</ele>
        <time>2021-10-09T05:48:48Z</time>
      </trkpt>
      <trkpt lat="42.83069" lon="2.07692">
        <ele>611</ele>
        <time>2021-10-09T05:48:49Z</time>
      </trkpt>
      <trkpt lat="42.83075" lon="2.07665">
        <ele>612</ele>
        <time>2021-10-09T05:48:54Z</time>
      </trkpt>
      <trkpt lat="42.83089" lon="2.07626">
        <ele>613.6</ele>
        <time>2021-10-09T05:49:02Z</time>
      </trkpt>
      <trkpt lat="42.831" lon="2.07586">
        <ele>615</ele>
        <time>2021-10-09T05:49:10Z</time>
      </trkpt>
      <trkpt lat="42.83111" lon="2.07552">
        <ele>616</ele>
        <time>2021-10-09T05:49:17Z</time>
      </trkpt>
      <trkpt lat="42.83125" lon="2.07521">
        <ele>617</ele>
        <time>2021-10-09T05:49:24Z</time>
      </trkpt>
      <trkpt lat="42.83128" lon="2.07516">
        <ele>617.2</ele>
        <time>2021-10-09T05:49:25Z</time>
      </trkpt>
      <trkpt lat="42.8313" lon="2.07511">
        <ele>617.2</ele>
        <time>2021-10-09T05:49:26Z</time>
      </trkpt>
      <trkpt lat="42.83141" lon="2.07488">
        <ele>618</ele>
        <time>2021-10-09T05:49:31Z</time>
      </trkpt>
      <trkpt lat="42.8315" lon="2.07455">
        <ele>619.4</ele>
        <time>2021-10-09T05:49:38Z</time>
      </trkpt>
      <trkpt lat="42.83166" lon="2.07414">
        <ele>620.2</ele>
        <time>2021-10-09T05:49:47Z</time>
      </trkpt>
      <trkpt lat="42.83178" lon="2.07386">
        <ele>621</ele>
        <time>2021-10-09T05:49:53Z</time>
      </trkpt>
      <trkpt lat="42.83196" lon="2.07342">
        <ele>622.6</ele>
        <time>2021-10-09T05:50:03Z</time>
      </trkpt>
      <trkpt lat="42.8321" lon="2.07308">
        <ele>623.2</ele>
        <time>2021-10-09T05:50:11Z</time>
      </trkpt>
      <trkpt lat="42.83222" lon="2.07279">
        <ele>622.8</ele>
        <time>2021-10-09T05:50:18Z</time>
      </trkpt>
      <trkpt lat="42.83234" lon="2.0725">
        <ele>621.4</ele>
        <time>2021-10-09T05:50:25Z</time>
      </trkpt>
      <trkpt lat="42.83244" lon="2.07225">
        <ele>621.2</ele>
        <time>2021-10-09T05:50:31Z</time>
      </trkpt>
      <trkpt lat="42.83257" lon="2.07195">
        <ele>620.2</ele>
        <time>2021-10-09T05:50:38Z</time>
      </trkpt>
      <trkpt lat="42.8327" lon="2.07162">
        <ele>619.4</ele>
        <time>2021-10-09T05:50:46Z</time>
      </trkpt>
      <trkpt lat="42.83286" lon="2.07127">
        <ele>619.6</ele>
        <time>2021-10-09T05:50:54Z</time>
      </trkpt>
      <trkpt lat="42.83303" lon="2.07099">
        <ele>619</ele>
        <time>2021-10-09T05:51:01Z</time>
      </trkpt>
      <trkpt lat="42.83321" lon="2.0707">
        <ele>620.2</ele>
        <time>2021-10-09T05:51:09Z</time>
      </trkpt>
      <trkpt lat="42.83338" lon="2.07052">
        <ele>620.6</ele>
        <time>2021-10-09T05:51:15Z</time>
      </trkpt>
      <trkpt lat="42.83358" lon="2.07039">
        <ele>621.4</ele>
        <time>2021-10-09T05:51:22Z</time>
      </trkpt>
      <trkpt lat="42.8336" lon="2.07037">
        <ele>621.6</ele>
        <time>2021-10-09T05:51:24Z</time>
      </trkpt>
      <trkpt lat="42.83363" lon="2.07035">
        <ele>621.8</ele>
        <time>2021-10-09T05:51:26Z</time>
      </trkpt>
      <trkpt lat="42.83364" lon="2.07035">
        <ele>622.4</ele>
        <time>2021-10-09T05:51:29Z</time>
      </trkpt>
      <trkpt lat="42.83369" lon="2.07031">
        <ele>624.2</ele>
        <time>2021-10-09T05:51:52Z</time>
      </trkpt>
      <trkpt lat="42.8337" lon="2.0703">
        <ele>624.2</ele>
        <time>2021-10-09T05:51:53Z</time>
      </trkpt>
      <trkpt lat="42.83375" lon="2.07026">
        <ele>624.6</ele>
        <time>2021-10-09T05:51:56Z</time>
      </trkpt>
      <trkpt lat="42.8338" lon="2.07023">
        <ele>624.8</ele>
        <time>2021-10-09T05:51:58Z</time>
      </trkpt>
      <trkpt lat="42.83397" lon="2.0701">
        <ele>625.4</ele>
        <time>2021-10-09T05:52:05Z</time>
      </trkpt>
      <trkpt lat="42.83406" lon="2.07002">
        <ele>626</ele>
        <time>2021-10-09T05:52:09Z</time>
      </trkpt>
      <trkpt lat="42.8342" lon="2.06975">
        <ele>626.8</ele>
        <time>2021-10-09T05:52:16Z</time>
      </trkpt>
      <trkpt lat="42.83427" lon="2.06956">
        <ele>627.4</ele>
        <time>2021-10-09T05:52:22Z</time>
      </trkpt>
      <trkpt lat="42.83429" lon="2.06949">
        <ele>627.6</ele>
        <time>2021-10-09T05:52:23Z</time>
      </trkpt>
      <trkpt lat="42.83431" lon="2.06945">
        <ele>627.8</ele>
        <time>2021-10-09T05:52:24Z</time>
      </trkpt>
      <trkpt lat="42.83436" lon="2.06939">
        <ele>627.8</ele>
        <time>2021-10-09T05:52:26Z</time>
      </trkpt>
      <trkpt lat="42.83448" lon="2.06926">
        <ele>628.4</ele>
        <time>2021-10-09T05:52:31Z</time>
      </trkpt>
      <trkpt lat="42.83463" lon="2.06914">
        <ele>628.8</ele>
        <time>2021-10-09T05:52:36Z</time>
      </trkpt>
      <trkpt lat="42.83465" lon="2.06911">
        <ele>628.8</ele>
        <time>2021-10-09T05:52:37Z</time>
      </trkpt>
      <trkpt lat="42.83465" lon="2.06844">
        <ele>630.8</ele>
        <time>2021-10-09T05:52:57Z</time>
      </trkpt>
      <trkpt lat="42.83465" lon="2.06844">
        <ele>631</ele>
        <time>2021-10-09T05:52:59Z</time>
      </trkpt>
      <trkpt lat="42.83471" lon="2.06818">
        <ele>631.6</ele>
        <time>2021-10-09T05:53:06Z</time>
      </trkpt>
      <trkpt lat="42.83471" lon="2.06818">
        <ele>631.6</ele>
        <time>2021-10-09T05:53:07Z</time>
      </trkpt>
      <trkpt lat="42.83478" lon="2.06749">
        <ele>631.8</ele>
        <time>2021-10-09T05:53:11Z</time>
      </trkpt>
      <trkpt lat="42.83486" lon="2.06724">
        <ele>632.4</ele>
        <time>2021-10-09T05:53:16Z</time>
      </trkpt>
      <trkpt lat="42.83496" lon="2.067">
        <ele>632.8</ele>
        <time>2021-10-09T05:53:22Z</time>
      </trkpt>
      <trkpt lat="42.835" lon="2.06676">
        <ele>633.2</ele>
        <time>2021-10-09T05:53:28Z</time>
      </trkpt>
      <trkpt lat="42.83505" lon="2.06644">
        <ele>633.8</ele>
        <time>2021-10-09T05:53:34Z</time>
      </trkpt>
      <trkpt lat="42.8352" lon="2.06608">
        <ele>634.2</ele>
        <time>2021-10-09T05:53:42Z</time>
      </trkpt>
      <trkpt lat="42.8354" lon="2.06586">
        <ele>634.6</ele>
        <time>2021-10-09T05:53:49Z</time>
      </trkpt>
      <trkpt lat="42.83548" lon="2.0655">
        <ele>635</ele>
        <time>2021-10-09T05:53:57Z</time>
      </trkpt>
      <trkpt lat="42.83558" lon="2.06517">
        <ele>635.8</ele>
        <time>2021-10-09T05:54:03Z</time>
      </trkpt>
      <trkpt lat="42.83574" lon="2.06496">
        <ele>636.2</ele>
        <time>2021-10-09T05:54:08Z</time>
      </trkpt>
      <trkpt lat="42.83596" lon="2.0647">
        <ele>636.6</ele>
        <time>2021-10-09T05:54:15Z</time>
      </trkpt>
      <trkpt lat="42.83619" lon="2.06455">
        <ele>639</ele>
        <time>2021-10-09T05:54:22Z</time>
      </trkpt>
      <trkpt lat="42.8364" lon="2.06451">
        <ele>640.8</ele>
        <time>2021-10-09T05:54:28Z</time>
      </trkpt>
      <trkpt lat="42.83667" lon="2.06458">
        <ele>643.4</ele>
        <time>2021-10-09T05:54:35Z</time>
      </trkpt>
      <trkpt lat="42.83674" lon="2.06461">
        <ele>644.2</ele>
        <time>2021-10-09T05:54:37Z</time>
      </trkpt>
      <trkpt lat="42.8369" lon="2.0646">
        <ele>645</ele>
        <time>2021-10-09T05:54:39Z</time>
      </trkpt>
      <trkpt lat="42.83703" lon="2.06434">
        <ele>646.4</ele>
        <time>2021-10-09T05:54:44Z</time>
      </trkpt>
      <trkpt lat="42.83712" lon="2.06395">
        <ele>648.6</ele>
        <time>2021-10-09T05:54:51Z</time>
      </trkpt>
      <trkpt lat="42.83712" lon="2.06369">
        <ele>650</ele>
        <time>2021-10-09T05:54:56Z</time>
      </trkpt>
      <trkpt lat="42.83712" lon="2.06363">
        <ele>650.2</ele>
        <time>2021-10-09T05:54:57Z</time>
      </trkpt>
      <trkpt lat="42.8371" lon="2.06347">
        <ele>651</ele>
        <time>2021-10-09T05:55:00Z</time>
      </trkpt>
      <trkpt lat="42.83704" lon="2.06331">
        <ele>652.2</ele>
        <time>2021-10-09T05:55:04Z</time>
      </trkpt>
      <trkpt lat="42.8369" lon="2.06312">
        <ele>653.6</ele>
        <time>2021-10-09T05:55:09Z</time>
      </trkpt>
      <trkpt lat="42.83675" lon="2.06296">
        <ele>655</ele>
        <time>2021-10-09T05:55:14Z</time>
      </trkpt>
      <trkpt lat="42.83668" lon="2.06289">
        <ele>655.8</ele>
        <time>2021-10-09T05:55:17Z</time>
      </trkpt>
      <trkpt lat="42.83666" lon="2.06288">
        <ele>656</ele>
        <time>2021-10-09T05:55:18Z</time>
      </trkpt>
      <trkpt lat="42.83662" lon="2.06283">
        <ele>656.6</ele>
        <time>2021-10-09T05:55:20Z</time>
      </trkpt>
      <trkpt lat="42.8366" lon="2.06282">
        <ele>656.8</ele>
        <time>2021-10-09T05:55:21Z</time>
      </trkpt>
      <trkpt lat="42.83653" lon="2.06271">
        <ele>657.4</ele>
        <time>2021-10-09T05:55:24Z</time>
      </trkpt>
      <trkpt lat="42.83668" lon="2.06261">
        <ele>657.6</ele>
        <time>2021-10-09T05:55:25Z</time>
      </trkpt>
      <trkpt lat="42.8367" lon="2.06249">
        <ele>658.4</ele>
        <time>2021-10-09T05:55:29Z</time>
      </trkpt>
      <trkpt lat="42.83671" lon="2.06242">
        <ele>659</ele>
        <time>2021-10-09T05:55:33Z</time>
      </trkpt>
      <trkpt lat="42.83663" lon="2.06234">
        <ele>659.4</ele>
        <time>2021-10-09T05:55:36Z</time>
      </trkpt>
      <trkpt lat="42.83646" lon="2.06193">
        <ele>660</ele>
        <time>2021-10-09T05:55:43Z</time>
      </trkpt>
      <trkpt lat="42.8364" lon="2.06137">
        <ele>659</ele>
        <time>2021-10-09T05:55:50Z</time>
      </trkpt>
      <trkpt lat="42.8362" lon="2.06126">
        <ele>660.6</ele>
        <time>2021-10-09T05:55:54Z</time>
      </trkpt>
      <trkpt lat="42.83607" lon="2.06095">
        <ele>660.8</ele>
        <time>2021-10-09T05:56:00Z</time>
      </trkpt>
      <trkpt lat="42.83587" lon="2.06058">
        <ele>660.4</ele>
        <time>2021-10-09T05:56:07Z</time>
      </trkpt>
      <trkpt lat="42.8357" lon="2.06033">
        <ele>660.8</ele>
        <time>2021-10-09T05:56:12Z</time>
      </trkpt>
      <trkpt lat="42.83567" lon="2.06028">
        <ele>661</ele>
        <time>2021-10-09T05:56:13Z</time>
      </trkpt>
      <trkpt lat="42.83544" lon="2.06">
        <ele>661.6</ele>
        <time>2021-10-09T05:56:20Z</time>
      </trkpt>
      <trkpt lat="42.83527" lon="2.05979">
        <ele>662</ele>
        <time>2021-10-09T05:56:26Z</time>
      </trkpt>
      <trkpt lat="42.83518" lon="2.05967">
        <ele>662.2</ele>
        <time>2021-10-09T05:56:30Z</time>
      </trkpt>
      <trkpt lat="42.83506" lon="2.05953">
        <ele>662.4</ele>
        <time>2021-10-09T05:56:34Z</time>
      </trkpt>
      <trkpt lat="42.83496" lon="2.05931">
        <ele>663</ele>
        <time>2021-10-09T05:56:38Z</time>
      </trkpt>
      <trkpt lat="42.83487" lon="2.05907">
        <ele>663.2</ele>
        <time>2021-10-09T05:56:43Z</time>
      </trkpt>
      <trkpt lat="42.83478" lon="2.05871">
        <ele>663.6</ele>
        <time>2021-10-09T05:56:49Z</time>
      </trkpt>
      <trkpt lat="42.83473" lon="2.05828">
        <ele>664</ele>
        <time>2021-10-09T05:56:55Z</time>
      </trkpt>
      <trkpt lat="42.83467" lon="2.0576">
        <ele>664.6</ele>
        <time>2021-10-09T05:57:05Z</time>
      </trkpt>
      <trkpt lat="42.83463" lon="2.05711">
        <ele>665</ele>
        <time>2021-10-09T05:57:13Z</time>
      </trkpt>
      <trkpt lat="42.83454" lon="2.05682">
        <ele>665.2</ele>
        <time>2021-10-09T05:57:18Z</time>
      </trkpt>
      <trkpt lat="42.83452" lon="2.05674">
        <ele>665.2</ele>
        <time>2021-10-09T05:57:19Z</time>
      </trkpt>
      <trkpt lat="42.83445" lon="2.05664">
        <ele>665.4</ele>
        <time>2021-10-09T05:57:21Z</time>
      </trkpt>
      <trkpt lat="42.83433" lon="2.05647">
        <ele>665.8</ele>
        <time>2021-10-09T05:57:24Z</time>
      </trkpt>
      <trkpt lat="42.83429" lon="2.05644">
        <ele>666</ele>
        <time>2021-10-09T05:57:25Z</time>
      </trkpt>
      <trkpt lat="42.83415" lon="2.05635">
        <ele>666.2</ele>
        <time>2021-10-09T05:57:28Z</time>
      </trkpt>
      <trkpt lat="42.8341" lon="2.05631">
        <ele>666.4</ele>
        <time>2021-10-09T05:57:29Z</time>
      </trkpt>
      <trkpt lat="42.83405" lon="2.05628">
        <ele>666.8</ele>
        <time>2021-10-09T05:57:31Z</time>
      </trkpt>
      <trkpt lat="42.83386" lon="2.05629">
        <ele>667.6</ele>
        <time>2021-10-09T05:57:35Z</time>
      </trkpt>
      <trkpt lat="42.83378" lon="2.05629">
        <ele>668.6</ele>
        <time>2021-10-09T05:57:42Z</time>
      </trkpt>
      <trkpt lat="42.83361" lon="2.05574">
        <ele>669.2</ele>
        <time>2021-10-09T05:57:47Z</time>
      </trkpt>
      <trkpt lat="42.83339" lon="2.05577">
        <ele>670</ele>
        <time>2021-10-09T05:57:53Z</time>
      </trkpt>
      <trkpt lat="42.83312" lon="2.05574">
        <ele>671</ele>
        <time>2021-10-09T05:57:59Z</time>
      </trkpt>
      <trkpt lat="42.83298" lon="2.05599">
        <ele>671</ele>
        <time>2021-10-09T05:58:00Z</time>
      </trkpt>
      <trkpt lat="42.83272" lon="2.05622">
        <ele>671.2</ele>
        <time>2021-10-09T05:58:03Z</time>
      </trkpt>
      <trkpt lat="42.83254" lon="2.05628">
        <ele>671.6</ele>
        <time>2021-10-09T05:58:06Z</time>
      </trkpt>
      <trkpt lat="42.83238" lon="2.05622">
        <ele>672</ele>
        <time>2021-10-09T05:58:09Z</time>
      </trkpt>
      <trkpt lat="42.83215" lon="2.05635">
        <ele>672.4</ele>
        <time>2021-10-09T05:58:13Z</time>
      </trkpt>
      <trkpt lat="42.83199" lon="2.05632">
        <ele>673</ele>
        <time>2021-10-09T05:58:16Z</time>
      </trkpt>
      <trkpt lat="42.83193" lon="2.05632">
        <ele>673.2</ele>
        <time>2021-10-09T05:58:17Z</time>
      </trkpt>
      <trkpt lat="42.83181" lon="2.05631">
        <ele>673.6</ele>
        <time>2021-10-09T05:58:19Z</time>
      </trkpt>
      <trkpt lat="42.83171" lon="2.05631">
        <ele>674</ele>
        <time>2021-10-09T05:58:21Z</time>
      </trkpt>
      <trkpt lat="42.83159" lon="2.05635">
        <ele>674.2</ele>
        <time>2021-10-09T05:58:23Z</time>
      </trkpt>
      <trkpt lat="42.83142" lon="2.05642">
        <ele>674.6</ele>
        <time>2021-10-09T05:58:26Z</time>
      </trkpt>
      <trkpt lat="42.83117" lon="2.05663">
        <ele>675.4</ele>
        <time>2021-10-09T05:58:31Z</time>
      </trkpt>
      <trkpt lat="42.83097" lon="2.05681">
        <ele>676</ele>
        <time>2021-10-09T05:58:35Z</time>
      </trkpt>
      <trkpt lat="42.83087" lon="2.05685">
        <ele>676.4</ele>
        <time>2021-10-09T05:58:37Z</time>
      </trkpt>
      <trkpt lat="42.83075" lon="2.05681">
        <ele>676.8</ele>
        <time>2021-10-09T05:58:39Z</time>
      </trkpt>
      <trkpt lat="42.8307" lon="2.05678">
        <ele>677</ele>
        <time>2021-10-09T05:58:40Z</time>
      </trkpt>
      <trkpt lat="42.83057" lon="2.05666">
        <ele>677.4</ele>
        <time>2021-10-09T05:58:43Z</time>
      </trkpt>
      <trkpt lat="42.83049" lon="2.05655">
        <ele>677.8</ele>
        <time>2021-10-09T05:58:45Z</time>
      </trkpt>
      <trkpt lat="42.83046" lon="2.05649">
        <ele>678</ele>
        <time>2021-10-09T05:58:46Z</time>
      </trkpt>
      <trkpt lat="42.8304" lon="2.05632">
        <ele>678.6</ele>
        <time>2021-10-09T05:58:49Z</time>
      </trkpt>
      <trkpt lat="42.83035" lon="2.05612">
        <ele>679</ele>
        <time>2021-10-09T05:58:52Z</time>
      </trkpt>
      <trkpt lat="42.83034" lon="2.05606">
        <ele>679</ele>
        <time>2021-10-09T05:58:53Z</time>
      </trkpt>
      <trkpt lat="42.83032" lon="2.056">
        <ele>679.2</ele>
        <time>2021-10-09T05:58:54Z</time>
      </trkpt>
      <trkpt lat="42.83027" lon="2.05576">
        <ele>679.6</ele>
        <time>2021-10-09T05:58:57Z</time>
      </trkpt>
      <trkpt lat="42.83023" lon="2.05561">
        <ele>679.8</ele>
        <time>2021-10-09T05:58:59Z</time>
      </trkpt>
      <trkpt lat="42.83017" lon="2.05545">
        <ele>680</ele>
        <time>2021-10-09T05:59:01Z</time>
      </trkpt>
      <trkpt lat="42.83007" lon="2.05525">
        <ele>680.4</ele>
        <time>2021-10-09T05:59:04Z</time>
      </trkpt>
      <trkpt lat="42.82996" lon="2.0551">
        <ele>680.6</ele>
        <time>2021-10-09T05:59:06Z</time>
      </trkpt>
      <trkpt lat="42.82968" lon="2.05499">
        <ele>681.2</ele>
        <time>2021-10-09T05:59:11Z</time>
      </trkpt>
      <trkpt lat="42.82963" lon="2.05498">
        <ele>681.4</ele>
        <time>2021-10-09T05:59:12Z</time>
      </trkpt>
      <trkpt lat="42.82952" lon="2.05495">
        <ele>681.6</ele>
        <time>2021-10-09T05:59:14Z</time>
      </trkpt>
      <trkpt lat="42.82942" lon="2.05493">
        <ele>681.8</ele>
        <time>2021-10-09T05:59:16Z</time>
      </trkpt>
      <trkpt lat="42.82922" lon="2.05489">
        <ele>682.4</ele>
        <time>2021-10-09T05:59:20Z</time>
      </trkpt>
      <trkpt lat="42.82898" lon="2.05488">
        <ele>683</ele>
        <time>2021-10-09T05:59:25Z</time>
      </trkpt>
      <trkpt lat="42.82894" lon="2.05488">
        <ele>683.2</ele>
        <time>2021-10-09T05:59:26Z</time>
      </trkpt>
      <trkpt lat="42.82889" lon="2.05487">
        <ele>683.4</ele>
        <time>2021-10-09T05:59:27Z</time>
      </trkpt>
      <trkpt lat="42.82875" lon="2.05487">
        <ele>683.6</ele>
        <time>2021-10-09T05:59:30Z</time>
      </trkpt>
      <trkpt lat="42.82859" lon="2.0549">
        <ele>684</ele>
        <time>2021-10-09T05:59:33Z</time>
      </trkpt>
      <trkpt lat="42.82854" lon="2.05493">
        <ele>684.2</ele>
        <time>2021-10-09T05:59:34Z</time>
      </trkpt>
      <trkpt lat="42.82824" lon="2.05506">
        <ele>684.8</ele>
        <time>2021-10-09T05:59:40Z</time>
      </trkpt>
      <trkpt lat="42.82804" lon="2.05515">
        <ele>685.2</ele>
        <time>2021-10-09T05:59:44Z</time>
      </trkpt>
      <trkpt lat="42.828" lon="2.05517">
        <ele>685.2</ele>
        <time>2021-10-09T05:59:45Z</time>
      </trkpt>
      <trkpt lat="42.82796" lon="2.05518">
        <ele>685.2</ele>
        <time>2021-10-09T05:59:46Z</time>
      </trkpt>
      <trkpt lat="42.8279" lon="2.05515">
        <ele>685.2</ele>
        <time>2021-10-09T05:59:47Z</time>
      </trkpt>
      <trkpt lat="42.82786" lon="2.05512">
        <ele>685.4</ele>
        <time>2021-10-09T05:59:48Z</time>
      </trkpt>
      <trkpt lat="42.82778" lon="2.05504">
        <ele>685.4</ele>
        <time>2021-10-09T05:59:50Z</time>
      </trkpt>
      <trkpt lat="42.82775" lon="2.05493">
        <ele>685.6</ele>
        <time>2021-10-09T05:59:52Z</time>
      </trkpt>
      <trkpt lat="42.82772" lon="2.05484">
        <ele>685.8</ele>
        <time>2021-10-09T05:59:54Z</time>
      </trkpt>
      <trkpt lat="42.82762" lon="2.05461">
        <ele>686.2</ele>
        <time>2021-10-09T05:59:59Z</time>
      </trkpt>
      <trkpt lat="42.82755" lon="2.05447">
        <ele>686.4</ele>
        <time>2021-10-09T06:00:01Z</time>
      </trkpt>
      <trkpt lat="42.8275" lon="2.05441">
        <ele>686.4</ele>
        <time>2021-10-09T06:00:02Z</time>
      </trkpt>
      <trkpt lat="42.82733" lon="2.05429">
        <ele>686.8</ele>
        <time>2021-10-09T06:00:05Z</time>
      </trkpt>
      <trkpt lat="42.82724" lon="2.05421">
        <ele>687</ele>
        <time>2021-10-09T06:00:07Z</time>
      </trkpt>
      <trkpt lat="42.82717" lon="2.05418">
        <ele>687</ele>
        <time>2021-10-09T06:00:08Z</time>
      </trkpt>
      <trkpt lat="42.82694" lon="2.0541">
        <ele>687.2</ele>
        <time>2021-10-09T06:00:12Z</time>
      </trkpt>
      <trkpt lat="42.82664" lon="2.05393">
        <ele>688.4</ele>
        <time>2021-10-09T06:00:18Z</time>
      </trkpt>
      <trkpt lat="42.82654" lon="2.05387">
        <ele>688.6</ele>
        <time>2021-10-09T06:00:20Z</time>
      </trkpt>
      <trkpt lat="42.82647" lon="2.05378">
        <ele>688.8</ele>
        <time>2021-10-09T06:00:22Z</time>
      </trkpt>
      <trkpt lat="42.82644" lon="2.05372">
        <ele>689</ele>
        <time>2021-10-09T06:00:23Z</time>
      </trkpt>
      <trkpt lat="42.82641" lon="2.05366">
        <ele>689</ele>
        <time>2021-10-09T06:00:24Z</time>
      </trkpt>
      <trkpt lat="42.82631" lon="2.05343">
        <ele>689.4</ele>
        <time>2021-10-09T06:00:28Z</time>
      </trkpt>
      <trkpt lat="42.82629" lon="2.05324">
        <ele>689.4</ele>
        <time>2021-10-09T06:00:31Z</time>
      </trkpt>
      <trkpt lat="42.82628" lon="2.0531">
        <ele>689.6</ele>
        <time>2021-10-09T06:00:33Z</time>
      </trkpt>
      <trkpt lat="42.82626" lon="2.05297">
        <ele>689.6</ele>
        <time>2021-10-09T06:00:35Z</time>
      </trkpt>
      <trkpt lat="42.82625" lon="2.05284">
        <ele>689.8</ele>
        <time>2021-10-09T06:00:37Z</time>
      </trkpt>
      <trkpt lat="42.82624" lon="2.05277">
        <ele>689.8</ele>
        <time>2021-10-09T06:00:38Z</time>
      </trkpt>
      <trkpt lat="42.82622" lon="2.05258">
        <ele>689.8</ele>
        <time>2021-10-09T06:00:41Z</time>
      </trkpt>
      <trkpt lat="42.82621" lon="2.05245">
        <ele>689.8</ele>
        <time>2021-10-09T06:00:43Z</time>
      </trkpt>
      <trkpt lat="42.82619" lon="2.05231">
        <ele>689.8</ele>
        <time>2021-10-09T06:00:45Z</time>
      </trkpt>
      <trkpt lat="42.82618" lon="2.05217">
        <ele>689.8</ele>
        <time>2021-10-09T06:00:47Z</time>
      </trkpt>
      <trkpt lat="42.82617" lon="2.0521">
        <ele>689.6</ele>
        <time>2021-10-09T06:00:48Z</time>
      </trkpt>
      <trkpt lat="42.82616" lon="2.05204">
        <ele>689.6</ele>
        <time>2021-10-09T06:00:49Z</time>
      </trkpt>
      <trkpt lat="42.82615" lon="2.05191">
        <ele>689.4</ele>
        <time>2021-10-09T06:00:51Z</time>
      </trkpt>
      <trkpt lat="42.82615" lon="2.05186">
        <ele>688.8</ele>
        <time>2021-10-09T06:00:52Z</time>
      </trkpt>
      <trkpt lat="42.82614" lon="2.0518">
        <ele>689.2</ele>
        <time>2021-10-09T06:00:53Z</time>
      </trkpt>
      <trkpt lat="42.82612" lon="2.05159">
        <ele>688.8</ele>
        <time>2021-10-09T06:00:56Z</time>
      </trkpt>
      <trkpt lat="42.82606" lon="2.05102">
        <ele>688.2</ele>
        <time>2021-10-09T06:01:04Z</time>
      </trkpt>
      <trkpt lat="42.82601" lon="2.05047">
        <ele>687.4</ele>
        <time>2021-10-09T06:01:12Z</time>
      </trkpt>
      <trkpt lat="42.826" lon="2.0504">
        <ele>687.2</ele>
        <time>2021-10-09T06:01:13Z</time>
      </trkpt>
      <trkpt lat="42.82597" lon="2.05006">
        <ele>686.2</ele>
        <time>2021-10-09T06:01:18Z</time>
      </trkpt>
      <trkpt lat="42.82594" lon="2.04971">
        <ele>685.6</ele>
        <time>2021-10-09T06:01:23Z</time>
      </trkpt>
      <trkpt lat="42.8259" lon="2.04922">
        <ele>684.6</ele>
        <time>2021-10-09T06:01:30Z</time>
      </trkpt>
      <trkpt lat="42.82587" lon="2.04894">
        <ele>684.6</ele>
        <time>2021-10-09T06:01:34Z</time>
      </trkpt>
      <trkpt lat="42.82586" lon="2.0488">
        <ele>684.6</ele>
        <time>2021-10-09T06:01:36Z</time>
      </trkpt>
      <trkpt lat="42.82584" lon="2.04868">
        <ele>684.6</ele>
        <time>2021-10-09T06:01:38Z</time>
      </trkpt>
      <trkpt lat="42.8258" lon="2.04849">
        <ele>684</ele>
        <time>2021-10-09T06:01:41Z</time>
      </trkpt>
      <trkpt lat="42.82564" lon="2.04819">
        <ele>684.6</ele>
        <time>2021-10-09T06:01:46Z</time>
      </trkpt>
      <trkpt lat="42.82548" lon="2.04787">
        <ele>685.8</ele>
        <time>2021-10-09T06:01:51Z</time>
      </trkpt>
      <trkpt lat="42.82545" lon="2.04781">
        <ele>686.2</ele>
        <time>2021-10-09T06:01:52Z</time>
      </trkpt>
      <trkpt lat="42.82538" lon="2.04769">
        <ele>685.4</ele>
        <time>2021-10-09T06:01:54Z</time>
      </trkpt>
      <trkpt lat="42.82531" lon="2.04755">
        <ele>685.6</ele>
        <time>2021-10-09T06:01:56Z</time>
      </trkpt>
      <trkpt lat="42.82524" lon="2.04727">
        <ele>686</ele>
        <time>2021-10-09T06:02:00Z</time>
      </trkpt>
      <trkpt lat="42.82523" lon="2.0472">
        <ele>686.2</ele>
        <time>2021-10-09T06:02:01Z</time>
      </trkpt>
      <trkpt lat="42.82521" lon="2.04682">
        <ele>686.6</ele>
        <time>2021-10-09T06:02:06Z</time>
      </trkpt>
      <trkpt lat="42.8252" lon="2.04668">
        <ele>686.8</ele>
        <time>2021-10-09T06:02:08Z</time>
      </trkpt>
      <trkpt lat="42.8252" lon="2.0466">
        <ele>686.8</ele>
        <time>2021-10-09T06:02:09Z</time>
      </trkpt>
      <trkpt lat="42.82518" lon="2.04614">
        <ele>687</ele>
        <time>2021-10-09T06:02:15Z</time>
      </trkpt>
      <trkpt lat="42.82518" lon="2.046">
        <ele>687.2</ele>
        <time>2021-10-09T06:02:17Z</time>
      </trkpt>
      <trkpt lat="42.82517" lon="2.04586">
        <ele>687.2</ele>
        <time>2021-10-09T06:02:19Z</time>
      </trkpt>
      <trkpt lat="42.82517" lon="2.04573">
        <ele>687.4</ele>
        <time>2021-10-09T06:02:21Z</time>
      </trkpt>
      <trkpt lat="42.82516" lon="2.04567">
        <ele>687.4</ele>
        <time>2021-10-09T06:02:22Z</time>
      </trkpt>
      <trkpt lat="42.82516" lon="2.0456">
        <ele>687.6</ele>
        <time>2021-10-09T06:02:23Z</time>
      </trkpt>
      <trkpt lat="42.82516" lon="2.04554">
        <ele>687.8</ele>
        <time>2021-10-09T06:02:24Z</time>
      </trkpt>
      <trkpt lat="42.82515" lon="2.04542">
        <ele>687.8</ele>
        <time>2021-10-09T06:02:26Z</time>
      </trkpt>
      <trkpt lat="42.82515" lon="2.0453">
        <ele>687.8</ele>
        <time>2021-10-09T06:02:28Z</time>
      </trkpt>
      <trkpt lat="42.82515" lon="2.04523">
        <ele>687.8</ele>
        <time>2021-10-09T06:02:29Z</time>
      </trkpt>
      <trkpt lat="42.82515" lon="2.04517">
        <ele>688</ele>
        <time>2021-10-09T06:02:30Z</time>
      </trkpt>
      <trkpt lat="42.82514" lon="2.045">
        <ele>688</ele>
        <time>2021-10-09T06:02:33Z</time>
      </trkpt>
      <trkpt lat="42.82514" lon="2.04494">
        <ele>688</ele>
        <time>2021-10-09T06:02:34Z</time>
      </trkpt>
      <trkpt lat="42.82513" lon="2.04484">
        <ele>688.2</ele>
        <time>2021-10-09T06:02:36Z</time>
      </trkpt>
      <trkpt lat="42.82513" lon="2.04478">
        <ele>688.2</ele>
        <time>2021-10-09T06:02:37Z</time>
      </trkpt>
      <trkpt lat="42.82513" lon="2.04465">
        <ele>688.4</ele>
        <time>2021-10-09T06:02:39Z</time>
      </trkpt>
      <trkpt lat="42.82512" lon="2.04453">
        <ele>688.8</ele>
        <time>2021-10-09T06:02:41Z</time>
      </trkpt>
      <trkpt lat="42.82512" lon="2.04441">
        <ele>689</ele>
        <time>2021-10-09T06:02:43Z</time>
      </trkpt>
      <trkpt lat="42.82512" lon="2.04434">
        <ele>689.2</ele>
        <time>2021-10-09T06:02:44Z</time>
      </trkpt>
      <trkpt lat="42.8251" lon="2.0442">
        <ele>689.6</ele>
        <time>2021-10-09T06:02:46Z</time>
      </trkpt>
      <trkpt lat="42.82506" lon="2.04408">
        <ele>690.2</ele>
        <time>2021-10-09T06:02:48Z</time>
      </trkpt>
      <trkpt lat="42.82504" lon="2.04402">
        <ele>690.4</ele>
        <time>2021-10-09T06:02:49Z</time>
      </trkpt>
      <trkpt lat="42.82502" lon="2.04395">
        <ele>690.6</ele>
        <time>2021-10-09T06:02:50Z</time>
      </trkpt>
      <trkpt lat="42.82494" lon="2.04374">
        <ele>691.6</ele>
        <time>2021-10-09T06:02:53Z</time>
      </trkpt>
      <trkpt lat="42.82471" lon="2.04328">
        <ele>693.4</ele>
        <time>2021-10-09T06:03:01Z</time>
      </trkpt>
      <trkpt lat="42.82465" lon="2.04317">
        <ele>693.8</ele>
        <time>2021-10-09T06:03:03Z</time>
      </trkpt>
      <trkpt lat="42.82462" lon="2.0431">
        <ele>694</ele>
        <time>2021-10-09T06:03:04Z</time>
      </trkpt>
      <trkpt lat="42.82456" lon="2.043">
        <ele>694.4</ele>
        <time>2021-10-09T06:03:06Z</time>
      </trkpt>
      <trkpt lat="42.82449" lon="2.0429">
        <ele>694.8</ele>
        <time>2021-10-09T06:03:08Z</time>
      </trkpt>
      <trkpt lat="42.82424" lon="2.04255">
        <ele>696.8</ele>
        <time>2021-10-09T06:03:15Z</time>
      </trkpt>
      <trkpt lat="42.824" lon="2.0422">
        <ele>698.6</ele>
        <time>2021-10-09T06:03:22Z</time>
      </trkpt>
      <trkpt lat="42.82376" lon="2.04184">
        <ele>700.2</ele>
        <time>2021-10-09T06:03:29Z</time>
      </trkpt>
      <trkpt lat="42.82357" lon="2.0415">
        <ele>701.4</ele>
        <time>2021-10-09T06:03:35Z</time>
      </trkpt>
      <trkpt lat="42.82338" lon="2.04116">
        <ele>702.6</ele>
        <time>2021-10-09T06:03:41Z</time>
      </trkpt>
      <trkpt lat="42.82318" lon="2.04082">
        <ele>703.8</ele>
        <time>2021-10-09T06:03:47Z</time>
      </trkpt>
      <trkpt lat="42.82302" lon="2.04054">
        <ele>704.8</ele>
        <time>2021-10-09T06:03:52Z</time>
      </trkpt>
      <trkpt lat="42.82296" lon="2.04043">
        <ele>705.2</ele>
        <time>2021-10-09T06:03:54Z</time>
      </trkpt>
      <trkpt lat="42.82286" lon="2.04027">
        <ele>705.6</ele>
        <time>2021-10-09T06:03:57Z</time>
      </trkpt>
      <trkpt lat="42.8227" lon="2.04002">
        <ele>706.8</ele>
        <time>2021-10-09T06:04:02Z</time>
      </trkpt>
      <trkpt lat="42.8225" lon="2.03974">
        <ele>707.6</ele>
        <time>2021-10-09T06:04:08Z</time>
      </trkpt>
      <trkpt lat="42.82236" lon="2.03958">
        <ele>708.2</ele>
        <time>2021-10-09T06:04:12Z</time>
      </trkpt>
      <trkpt lat="42.82229" lon="2.03951">
        <ele>708.4</ele>
        <time>2021-10-09T06:04:14Z</time>
      </trkpt>
      <trkpt lat="42.82215" lon="2.03936">
        <ele>709</ele>
        <time>2021-10-09T06:04:18Z</time>
      </trkpt>
      <trkpt lat="42.82209" lon="2.03929">
        <ele>709.2</ele>
        <time>2021-10-09T06:04:20Z</time>
      </trkpt>
      <trkpt lat="42.82195" lon="2.03914">
        <ele>709.6</ele>
        <time>2021-10-09T06:04:24Z</time>
      </trkpt>
      <trkpt lat="42.8218" lon="2.03898">
        <ele>710.2</ele>
        <time>2021-10-09T06:04:29Z</time>
      </trkpt>
      <trkpt lat="42.82158" lon="2.03875">
        <ele>710.8</ele>
        <time>2021-10-09T06:04:35Z</time>
      </trkpt>
      <trkpt lat="42.82132" lon="2.03849">
        <ele>711.8</ele>
        <time>2021-10-09T06:04:42Z</time>
      </trkpt>
      <trkpt lat="42.82107" lon="2.03824">
        <ele>712.8</ele>
        <time>2021-10-09T06:04:49Z</time>
      </trkpt>
      <trkpt lat="42.82104" lon="2.03821">
        <ele>713</ele>
        <time>2021-10-09T06:04:50Z</time>
      </trkpt>
      <trkpt lat="42.82088" lon="2.03805">
        <ele>713.8</ele>
        <time>2021-10-09T06:04:55Z</time>
      </trkpt>
      <trkpt lat="42.8207" lon="2.0378">
        <ele>714.6</ele>
        <time>2021-10-09T06:05:01Z</time>
      </trkpt>
      <trkpt lat="42.82068" lon="2.03776">
        <ele>714.8</ele>
        <time>2021-10-09T06:05:02Z</time>
      </trkpt>
      <trkpt lat="42.82058" lon="2.03763">
        <ele>715.6</ele>
        <time>2021-10-09T06:05:06Z</time>
      </trkpt>
      <trkpt lat="42.82049" lon="2.0375">
        <ele>716.2</ele>
        <time>2021-10-09T06:05:10Z</time>
      </trkpt>
      <trkpt lat="42.82037" lon="2.0372">
        <ele>717.2</ele>
        <time>2021-10-09T06:05:16Z</time>
      </trkpt>
      <trkpt lat="42.8202" lon="2.03686">
        <ele>718.4</ele>
        <time>2021-10-09T06:05:23Z</time>
      </trkpt>
      <trkpt lat="42.82016" lon="2.03683">
        <ele>718.6</ele>
        <time>2021-10-09T06:05:24Z</time>
      </trkpt>
      <trkpt lat="42.82004" lon="2.03673">
        <ele>719.4</ele>
        <time>2021-10-09T06:05:27Z</time>
      </trkpt>
      <trkpt lat="42.81999" lon="2.03669">
        <ele>719.4</ele>
        <time>2021-10-09T06:05:28Z</time>
      </trkpt>
      <trkpt lat="42.81997" lon="2.03669">
        <ele>719.8</ele>
        <time>2021-10-09T06:05:29Z</time>
      </trkpt>
      <trkpt lat="42.81982" lon="2.03668">
        <ele>720.2</ele>
        <time>2021-10-09T06:05:32Z</time>
      </trkpt>
      <trkpt lat="42.81943" lon="2.03669">
        <ele>721</ele>
        <time>2021-10-09T06:05:39Z</time>
      </trkpt>
      <trkpt lat="42.81918" lon="2.03671">
        <ele>721.4</ele>
        <time>2021-10-09T06:05:44Z</time>
      </trkpt>
      <trkpt lat="42.81893" lon="2.03673">
        <ele>721.8</ele>
        <time>2021-10-09T06:05:49Z</time>
      </trkpt>
      <trkpt lat="42.81884" lon="2.03674">
        <ele>721.8</ele>
        <time>2021-10-09T06:05:51Z</time>
      </trkpt>
      <trkpt lat="42.81871" lon="2.03678">
        <ele>721.8</ele>
        <time>2021-10-09T06:05:54Z</time>
      </trkpt>
      <trkpt lat="42.81867" lon="2.0368">
        <ele>721.8</ele>
        <time>2021-10-09T06:05:55Z</time>
      </trkpt>
      <trkpt lat="42.81849" lon="2.03689">
        <ele>721.8</ele>
        <time>2021-10-09T06:05:59Z</time>
      </trkpt>
      <trkpt lat="42.81822" lon="2.03703">
        <ele>722</ele>
        <time>2021-10-09T06:06:05Z</time>
      </trkpt>
      <trkpt lat="42.81804" lon="2.03712">
        <ele>720.8</ele>
        <time>2021-10-09T06:06:09Z</time>
      </trkpt>
      <trkpt lat="42.81787" lon="2.03725">
        <ele>720.2</ele>
        <time>2021-10-09T06:06:13Z</time>
      </trkpt>
      <trkpt lat="42.81783" lon="2.03729">
        <ele>720</ele>
        <time>2021-10-09T06:06:14Z</time>
      </trkpt>
      <trkpt lat="42.81767" lon="2.03745">
        <ele>719.4</ele>
        <time>2021-10-09T06:06:18Z</time>
      </trkpt>
      <trkpt lat="42.81762" lon="2.03753">
        <ele>719</ele>
        <time>2021-10-09T06:06:20Z</time>
      </trkpt>
      <trkpt lat="42.81753" lon="2.03769">
        <ele>718.6</ele>
        <time>2021-10-09T06:06:23Z</time>
      </trkpt>
      <trkpt lat="42.81744" lon="2.03784">
        <ele>718</ele>
        <time>2021-10-09T06:06:26Z</time>
      </trkpt>
      <trkpt lat="42.81725" lon="2.03812">
        <ele>718</ele>
        <time>2021-10-09T06:06:31Z</time>
      </trkpt>
      <trkpt lat="42.81716" lon="2.03816">
        <ele>718</ele>
        <time>2021-10-09T06:06:33Z</time>
      </trkpt>
      <trkpt lat="42.81707" lon="2.03819">
        <ele>718</ele>
        <time>2021-10-09T06:06:35Z</time>
      </trkpt>
      <trkpt lat="42.81698" lon="2.0382">
        <ele>718</ele>
        <time>2021-10-09T06:06:37Z</time>
      </trkpt>
      <trkpt lat="42.81689" lon="2.03817">
        <ele>718</ele>
        <time>2021-10-09T06:06:39Z</time>
      </trkpt>
      <trkpt lat="42.81685" lon="2.03816">
        <ele>718</ele>
        <time>2021-10-09T06:06:40Z</time>
      </trkpt>
      <trkpt lat="42.81681" lon="2.03815">
        <ele>718</ele>
        <time>2021-10-09T06:06:41Z</time>
      </trkpt>
      <trkpt lat="42.81674" lon="2.03813">
        <ele>718.2</ele>
        <time>2021-10-09T06:06:43Z</time>
      </trkpt>
      <trkpt lat="42.81658" lon="2.03808">
        <ele>717.6</ele>
        <time>2021-10-09T06:06:47Z</time>
      </trkpt>
      <trkpt lat="42.81645" lon="2.03802">
        <ele>718.6</ele>
        <time>2021-10-09T06:06:50Z</time>
      </trkpt>
      <trkpt lat="42.81627" lon="2.03795">
        <ele>718.4</ele>
        <time>2021-10-09T06:06:54Z</time>
      </trkpt>
      <trkpt lat="42.816" lon="2.03783">
        <ele>718.4</ele>
        <time>2021-10-09T06:06:59Z</time>
      </trkpt>
      <trkpt lat="42.81589" lon="2.03778">
        <ele>718.4</ele>
        <time>2021-10-09T06:07:01Z</time>
      </trkpt>
      <trkpt lat="42.81578" lon="2.03774">
        <ele>718.4</ele>
        <time>2021-10-09T06:07:03Z</time>
      </trkpt>
      <trkpt lat="42.81561" lon="2.03767">
        <ele>718.6</ele>
        <time>2021-10-09T06:07:06Z</time>
      </trkpt>
      <trkpt lat="42.81551" lon="2.03761">
        <ele>718.6</ele>
        <time>2021-10-09T06:07:08Z</time>
      </trkpt>
      <trkpt lat="42.81518" lon="2.03741">
        <ele>719.4</ele>
        <time>2021-10-09T06:07:14Z</time>
      </trkpt>
      <trkpt lat="42.81482" lon="2.03719">
        <ele>720.6</ele>
        <time>2021-10-09T06:07:21Z</time>
      </trkpt>
      <trkpt lat="42.81452" lon="2.03701">
        <ele>721.2</ele>
        <time>2021-10-09T06:07:27Z</time>
      </trkpt>
      <trkpt lat="42.81438" lon="2.0369">
        <ele>721.4</ele>
        <time>2021-10-09T06:07:30Z</time>
      </trkpt>
      <trkpt lat="42.81429" lon="2.03683">
        <ele>721.6</ele>
        <time>2021-10-09T06:07:32Z</time>
      </trkpt>
      <trkpt lat="42.81402" lon="2.03661">
        <ele>722</ele>
        <time>2021-10-09T06:07:38Z</time>
      </trkpt>
      <trkpt lat="42.81371" lon="2.03637">
        <ele>723.2</ele>
        <time>2021-10-09T06:07:45Z</time>
      </trkpt>
      <trkpt lat="42.81342" lon="2.03609">
        <ele>724.2</ele>
        <time>2021-10-09T06:07:52Z</time>
      </trkpt>
      <trkpt lat="42.81312" lon="2.03579">
        <ele>725.2</ele>
        <time>2021-10-09T06:07:59Z</time>
      </trkpt>
      <trkpt lat="42.81277" lon="2.03554">
        <ele>726.4</ele>
        <time>2021-10-09T06:08:06Z</time>
      </trkpt>
      <trkpt lat="42.81241" lon="2.03528">
        <ele>727.4</ele>
        <time>2021-10-09T06:08:13Z</time>
      </trkpt>
      <trkpt lat="42.81191" lon="2.03505">
        <ele>728.6</ele>
        <time>2021-10-09T06:08:22Z</time>
      </trkpt>
      <trkpt lat="42.81139" lon="2.0348">
        <ele>729.8</ele>
        <time>2021-10-09T06:08:31Z</time>
      </trkpt>
      <trkpt lat="42.811" lon="2.03464">
        <ele>730.4</ele>
        <time>2021-10-09T06:08:38Z</time>
      </trkpt>
      <trkpt lat="42.81073" lon="2.03458">
        <ele>730.8</ele>
        <time>2021-10-09T06:08:43Z</time>
      </trkpt>
      <trkpt lat="42.81054" lon="2.03453">
        <ele>731</ele>
        <time>2021-10-09T06:08:47Z</time>
      </trkpt>
      <trkpt lat="42.81041" lon="2.0345">
        <ele>731.2</ele>
        <time>2021-10-09T06:08:50Z</time>
      </trkpt>
      <trkpt lat="42.81032" lon="2.03448">
        <ele>731.2</ele>
        <time>2021-10-09T06:08:52Z</time>
      </trkpt>
      <trkpt lat="42.81027" lon="2.03447">
        <ele>731.4</ele>
        <time>2021-10-09T06:08:53Z</time>
      </trkpt>
      <trkpt lat="42.81012" lon="2.03443">
        <ele>731.6</ele>
        <time>2021-10-09T06:08:56Z</time>
      </trkpt>
      <trkpt lat="42.81002" lon="2.03437">
        <ele>731.8</ele>
        <time>2021-10-09T06:08:58Z</time>
      </trkpt>
      <trkpt lat="42.80993" lon="2.03431">
        <ele>732</ele>
        <time>2021-10-09T06:09:00Z</time>
      </trkpt>
      <trkpt lat="42.80987" lon="2.03418">
        <ele>732.2</ele>
        <time>2021-10-09T06:09:02Z</time>
      </trkpt>
      <trkpt lat="42.80983" lon="2.03406">
        <ele>732.4</ele>
        <time>2021-10-09T06:09:04Z</time>
      </trkpt>
      <trkpt lat="42.8098" lon="2.03363">
        <ele>733.2</ele>
        <time>2021-10-09T06:09:10Z</time>
      </trkpt>
      <trkpt lat="42.80976" lon="2.03351">
        <ele>733.4</ele>
        <time>2021-10-09T06:09:12Z</time>
      </trkpt>
      <trkpt lat="42.80973" lon="2.03339">
        <ele>733.6</ele>
        <time>2021-10-09T06:09:14Z</time>
      </trkpt>
      <trkpt lat="42.80971" lon="2.03333">
        <ele>733.6</ele>
        <time>2021-10-09T06:09:15Z</time>
      </trkpt>
      <trkpt lat="42.80969" lon="2.03327">
        <ele>733.6</ele>
        <time>2021-10-09T06:09:16Z</time>
      </trkpt>
      <trkpt lat="42.80961" lon="2.03309">
        <ele>734</ele>
        <time>2021-10-09T06:09:19Z</time>
      </trkpt>
      <trkpt lat="42.80957" lon="2.03303">
        <ele>734</ele>
        <time>2021-10-09T06:09:20Z</time>
      </trkpt>
      <trkpt lat="42.80933" lon="2.03265">
        <ele>735.2</ele>
        <time>2021-10-09T06:09:27Z</time>
      </trkpt>
      <trkpt lat="42.80925" lon="2.03253">
        <ele>735.8</ele>
        <time>2021-10-09T06:09:30Z</time>
      </trkpt>
      <trkpt lat="42.80922" lon="2.03249">
        <ele>736</ele>
        <time>2021-10-09T06:09:31Z</time>
      </trkpt>
      <trkpt lat="42.80914" lon="2.03242">
        <ele>736.2</ele>
        <time>2021-10-09T06:09:33Z</time>
      </trkpt>
      <trkpt lat="42.80907" lon="2.03237">
        <ele>736.6</ele>
        <time>2021-10-09T06:09:35Z</time>
      </trkpt>
      <trkpt lat="42.809" lon="2.03219">
        <ele>737</ele>
        <time>2021-10-09T06:09:39Z</time>
      </trkpt>
      <trkpt lat="42.80901" lon="2.03208">
        <ele>737.2</ele>
        <time>2021-10-09T06:09:41Z</time>
      </trkpt>
      <trkpt lat="42.80904" lon="2.03195">
        <ele>737.6</ele>
        <time>2021-10-09T06:09:43Z</time>
      </trkpt>
      <trkpt lat="42.80906" lon="2.03189">
        <ele>737.8</ele>
        <time>2021-10-09T06:09:44Z</time>
      </trkpt>
      <trkpt lat="42.80916" lon="2.03161">
        <ele>738.2</ele>
        <time>2021-10-09T06:09:49Z</time>
      </trkpt>
      <trkpt lat="42.80919" lon="2.03155">
        <ele>738.4</ele>
        <time>2021-10-09T06:09:50Z</time>
      </trkpt>
      <trkpt lat="42.8092" lon="2.03143">
        <ele>738.6</ele>
        <time>2021-10-09T06:09:52Z</time>
      </trkpt>
      <trkpt lat="42.80922" lon="2.03131">
        <ele>738.8</ele>
        <time>2021-10-09T06:09:54Z</time>
      </trkpt>
      <trkpt lat="42.80929" lon="2.03103">
        <ele>739.4</ele>
        <time>2021-10-09T06:09:59Z</time>
      </trkpt>
      <trkpt lat="42.8093" lon="2.03097">
        <ele>739.6</ele>
        <time>2021-10-09T06:10:00Z</time>
      </trkpt>
      <trkpt lat="42.80934" lon="2.0308">
        <ele>740</ele>
        <time>2021-10-09T06:10:03Z</time>
      </trkpt>
      <trkpt lat="42.80935" lon="2.03069">
        <ele>740.2</ele>
        <time>2021-10-09T06:10:05Z</time>
      </trkpt>
      <trkpt lat="42.80937" lon="2.03058">
        <ele>740.6</ele>
        <time>2021-10-09T06:10:07Z</time>
      </trkpt>
      <trkpt lat="42.8094" lon="2.0304">
        <ele>740.8</ele>
        <time>2021-10-09T06:10:10Z</time>
      </trkpt>
      <trkpt lat="42.80941" lon="2.03035">
        <ele>740.8</ele>
        <time>2021-10-09T06:10:11Z</time>
      </trkpt>
      <trkpt lat="42.80943" lon="2.03023">
        <ele>741</ele>
        <time>2021-10-09T06:10:13Z</time>
      </trkpt>
      <trkpt lat="42.80943" lon="2.03018">
        <ele>741.2</ele>
        <time>2021-10-09T06:10:14Z</time>
      </trkpt>
      <trkpt lat="42.80945" lon="2.03008">
        <ele>741.4</ele>
        <time>2021-10-09T06:10:16Z</time>
      </trkpt>
      <trkpt lat="42.80945" lon="2.03008">
        <ele>741.4</ele>
        <time>2021-10-09T06:10:17Z</time>
      </trkpt>
      <trkpt lat="42.80945" lon="2.03">
        <ele>741.6</ele>
        <time>2021-10-09T06:10:18Z</time>
      </trkpt>
      <trkpt lat="42.80946" lon="2.02994">
        <ele>741.6</ele>
        <time>2021-10-09T06:10:19Z</time>
      </trkpt>
      <trkpt lat="42.80946" lon="2.02982">
        <ele>741.6</ele>
        <time>2021-10-09T06:10:21Z</time>
      </trkpt>
      <trkpt lat="42.80947" lon="2.02964">
        <ele>741.8</ele>
        <time>2021-10-09T06:10:24Z</time>
      </trkpt>
      <trkpt lat="42.80947" lon="2.02952">
        <ele>742</ele>
        <time>2021-10-09T06:10:26Z</time>
      </trkpt>
      <trkpt lat="42.80946" lon="2.02935">
        <ele>742.2</ele>
        <time>2021-10-09T06:10:29Z</time>
      </trkpt>
      <trkpt lat="42.80943" lon="2.02906">
        <ele>743</ele>
        <time>2021-10-09T06:10:34Z</time>
      </trkpt>
      <trkpt lat="42.80936" lon="2.02882">
        <ele>743.2</ele>
        <time>2021-10-09T06:10:38Z</time>
      </trkpt>
      <trkpt lat="42.80934" lon="2.02877">
        <ele>743.2</ele>
        <time>2021-10-09T06:10:39Z</time>
      </trkpt>
      <trkpt lat="42.80928" lon="2.02859">
        <ele>743</ele>
        <time>2021-10-09T06:10:43Z</time>
      </trkpt>
      <trkpt lat="42.8092" lon="2.02835">
        <ele>743.2</ele>
        <time>2021-10-09T06:10:48Z</time>
      </trkpt>
      <trkpt lat="42.80914" lon="2.02815">
        <ele>742</ele>
        <time>2021-10-09T06:10:52Z</time>
      </trkpt>
      <trkpt lat="42.80908" lon="2.02795">
        <ele>741.4</ele>
        <time>2021-10-09T06:10:56Z</time>
      </trkpt>
      <trkpt lat="42.80905" lon="2.0279">
        <ele>741.4</ele>
        <time>2021-10-09T06:10:57Z</time>
      </trkpt>
      <trkpt lat="42.80893" lon="2.02775">
        <ele>741.6</ele>
        <time>2021-10-09T06:11:00Z</time>
      </trkpt>
      <trkpt lat="42.80873" lon="2.02745">
        <ele>741.6</ele>
        <time>2021-10-09T06:11:06Z</time>
      </trkpt>
      <trkpt lat="42.80858" lon="2.02713">
        <ele>743.4</ele>
        <time>2021-10-09T06:11:12Z</time>
      </trkpt>
      <trkpt lat="42.80855" lon="2.02701">
        <ele>742.6</ele>
        <time>2021-10-09T06:11:15Z</time>
      </trkpt>
      <trkpt lat="42.80853" lon="2.02697">
        <ele>742.6</ele>
        <time>2021-10-09T06:11:16Z</time>
      </trkpt>
      <trkpt lat="42.80852" lon="2.02693">
        <ele>742.6</ele>
        <time>2021-10-09T06:11:17Z</time>
      </trkpt>
      <trkpt lat="42.8085" lon="2.02683">
        <ele>742.6</ele>
        <time>2021-10-09T06:11:19Z</time>
      </trkpt>
      <trkpt lat="42.80847" lon="2.02672">
        <ele>742.6</ele>
        <time>2021-10-09T06:11:21Z</time>
      </trkpt>
      <trkpt lat="42.80845" lon="2.02666">
        <ele>742.6</ele>
        <time>2021-10-09T06:11:22Z</time>
      </trkpt>
      <trkpt lat="42.8084" lon="2.02646">
        <ele>742.6</ele>
        <time>2021-10-09T06:11:26Z</time>
      </trkpt>
      <trkpt lat="42.80835" lon="2.02626">
        <ele>743</ele>
        <time>2021-10-09T06:11:30Z</time>
      </trkpt>
      <trkpt lat="42.80833" lon="2.0262">
        <ele>743</ele>
        <time>2021-10-09T06:11:31Z</time>
      </trkpt>
      <trkpt lat="42.80831" lon="2.0261">
        <ele>743.2</ele>
        <time>2021-10-09T06:11:33Z</time>
      </trkpt>
      <trkpt lat="42.80828" lon="2.02601">
        <ele>743.4</ele>
        <time>2021-10-09T06:11:35Z</time>
      </trkpt>
      <trkpt lat="42.80823" lon="2.02575">
        <ele>743.8</ele>
        <time>2021-10-09T06:11:40Z</time>
      </trkpt>
      <trkpt lat="42.80822" lon="2.02569">
        <ele>743.8</ele>
        <time>2021-10-09T06:11:41Z</time>
      </trkpt>
      <trkpt lat="42.80818" lon="2.02547">
        <ele>744.2</ele>
        <time>2021-10-09T06:11:45Z</time>
      </trkpt>
      <trkpt lat="42.80815" lon="2.02529">
        <ele>744.4</ele>
        <time>2021-10-09T06:11:48Z</time>
      </trkpt>
      <trkpt lat="42.80815" lon="2.02523">
        <ele>744.4</ele>
        <time>2021-10-09T06:11:49Z</time>
      </trkpt>
      <trkpt lat="42.80814" lon="2.02499">
        <ele>744.8</ele>
        <time>2021-10-09T06:11:53Z</time>
      </trkpt>
      <trkpt lat="42.80813" lon="2.0247">
        <ele>745</ele>
        <time>2021-10-09T06:11:58Z</time>
      </trkpt>
      <trkpt lat="42.80812" lon="2.02465">
        <ele>745.2</ele>
        <time>2021-10-09T06:11:59Z</time>
      </trkpt>
      <trkpt lat="42.8081" lon="2.02453">
        <ele>745.6</ele>
        <time>2021-10-09T06:12:01Z</time>
      </trkpt>
      <trkpt lat="42.80808" lon="2.02439">
        <ele>745.8</ele>
        <time>2021-10-09T06:12:03Z</time>
      </trkpt>
      <trkpt lat="42.80806" lon="2.02428">
        <ele>746</ele>
        <time>2021-10-09T06:12:05Z</time>
      </trkpt>
      <trkpt lat="42.80804" lon="2.02413">
        <ele>746.2</ele>
        <time>2021-10-09T06:12:07Z</time>
      </trkpt>
      <trkpt lat="42.80804" lon="2.02393">
        <ele>746.8</ele>
        <time>2021-10-09T06:12:10Z</time>
      </trkpt>
      <trkpt lat="42.80804" lon="2.0238">
        <ele>747.2</ele>
        <time>2021-10-09T06:12:12Z</time>
      </trkpt>
      <trkpt lat="42.80803" lon="2.02373">
        <ele>747.4</ele>
        <time>2021-10-09T06:12:14Z</time>
      </trkpt>
      <trkpt lat="42.80807" lon="2.02358">
        <ele>747.6</ele>
        <time>2021-10-09T06:12:16Z</time>
      </trkpt>
      <trkpt lat="42.8081" lon="2.02347">
        <ele>747.8</ele>
        <time>2021-10-09T06:12:18Z</time>
      </trkpt>
      <trkpt lat="42.80812" lon="2.02341">
        <ele>748</ele>
        <time>2021-10-09T06:12:19Z</time>
      </trkpt>
      <trkpt lat="42.80816" lon="2.02285">
        <ele>748.8</ele>
        <time>2021-10-09T06:12:26Z</time>
      </trkpt>
      <trkpt lat="42.80813" lon="2.0228">
        <ele>749</ele>
        <time>2021-10-09T06:12:27Z</time>
      </trkpt>
      <trkpt lat="42.80807" lon="2.02265">
        <ele>749.4</ele>
        <time>2021-10-09T06:12:30Z</time>
      </trkpt>
      <trkpt lat="42.80805" lon="2.0226">
        <ele>749.6</ele>
        <time>2021-10-09T06:12:31Z</time>
      </trkpt>
      <trkpt lat="42.80798" lon="2.02247">
        <ele>750.2</ele>
        <time>2021-10-09T06:12:34Z</time>
      </trkpt>
      <trkpt lat="42.80796" lon="2.02242">
        <ele>750.4</ele>
        <time>2021-10-09T06:12:35Z</time>
      </trkpt>
      <trkpt lat="42.80781" lon="2.02209">
        <ele>751.6</ele>
        <time>2021-10-09T06:12:41Z</time>
      </trkpt>
      <trkpt lat="42.80769" lon="2.02181">
        <ele>752.8</ele>
        <time>2021-10-09T06:12:46Z</time>
      </trkpt>
      <trkpt lat="42.80762" lon="2.02165">
        <ele>753.2</ele>
        <time>2021-10-09T06:12:49Z</time>
      </trkpt>
      <trkpt lat="42.80758" lon="2.02154">
        <ele>753.4</ele>
        <time>2021-10-09T06:12:51Z</time>
      </trkpt>
      <trkpt lat="42.80758" lon="2.02136">
        <ele>753.4</ele>
        <time>2021-10-09T06:12:54Z</time>
      </trkpt>
      <trkpt lat="42.80757" lon="2.02126">
        <ele>753.4</ele>
        <time>2021-10-09T06:12:56Z</time>
      </trkpt>
      <trkpt lat="42.80756" lon="2.021">
        <ele>753.2</ele>
        <time>2021-10-09T06:13:01Z</time>
      </trkpt>
      <trkpt lat="42.80756" lon="2.02095">
        <ele>753</ele>
        <time>2021-10-09T06:13:02Z</time>
      </trkpt>
      <trkpt lat="42.80756" lon="2.02085">
        <ele>752.8</ele>
        <time>2021-10-09T06:13:04Z</time>
      </trkpt>
      <trkpt lat="42.80755" lon="2.02071">
        <ele>753</ele>
        <time>2021-10-09T06:13:06Z</time>
      </trkpt>
      <trkpt lat="42.80755" lon="2.02064">
        <ele>753</ele>
        <time>2021-10-09T06:13:07Z</time>
      </trkpt>
      <trkpt lat="42.80754" lon="2.02043">
        <ele>753.2</ele>
        <time>2021-10-09T06:13:11Z</time>
      </trkpt>
      <trkpt lat="42.80753" lon="2.02032">
        <ele>753.4</ele>
        <time>2021-10-09T06:13:13Z</time>
      </trkpt>
      <trkpt lat="42.80753" lon="2.02026">
        <ele>753.4</ele>
        <time>2021-10-09T06:13:14Z</time>
      </trkpt>
      <trkpt lat="42.8075" lon="2.01989">
        <ele>753.8</ele>
        <time>2021-10-09T06:13:20Z</time>
      </trkpt>
      <trkpt lat="42.80742" lon="2.01939">
        <ele>754.2</ele>
        <time>2021-10-09T06:13:28Z</time>
      </trkpt>
      <trkpt lat="42.80735" lon="2.01903">
        <ele>754.4</ele>
        <time>2021-10-09T06:13:34Z</time>
      </trkpt>
      <trkpt lat="42.80728" lon="2.01863">
        <ele>755</ele>
        <time>2021-10-09T06:13:41Z</time>
      </trkpt>
      <trkpt lat="42.80719" lon="2.01807">
        <ele>757.8</ele>
        <time>2021-10-09T06:13:49Z</time>
      </trkpt>
      <trkpt lat="42.80714" lon="2.01761">
        <ele>759.4</ele>
        <time>2021-10-09T06:13:56Z</time>
      </trkpt>
      <trkpt lat="42.80714" lon="2.01755">
        <ele>759.6</ele>
        <time>2021-10-09T06:13:57Z</time>
      </trkpt>
      <trkpt lat="42.80712" lon="2.01738">
        <ele>760.2</ele>
        <time>2021-10-09T06:14:00Z</time>
      </trkpt>
      <trkpt lat="42.80708" lon="2.01723">
        <ele>760.4</ele>
        <time>2021-10-09T06:14:02Z</time>
      </trkpt>
      <trkpt lat="42.80703" lon="2.01704">
        <ele>760.8</ele>
        <time>2021-10-09T06:14:05Z</time>
      </trkpt>
      <trkpt lat="42.80693" lon="2.01668">
        <ele>761.6</ele>
        <time>2021-10-09T06:14:11Z</time>
      </trkpt>
      <trkpt lat="42.80691" lon="2.01662">
        <ele>761.8</ele>
        <time>2021-10-09T06:14:12Z</time>
      </trkpt>
      <trkpt lat="42.80686" lon="2.01643">
        <ele>762.4</ele>
        <time>2021-10-09T06:14:15Z</time>
      </trkpt>
      <trkpt lat="42.80679" lon="2.01634">
        <ele>762.8</ele>
        <time>2021-10-09T06:14:17Z</time>
      </trkpt>
      <trkpt lat="42.80668" lon="2.01619">
        <ele>763.4</ele>
        <time>2021-10-09T06:14:20Z</time>
      </trkpt>
      <trkpt lat="42.80661" lon="2.01609">
        <ele>763.4</ele>
        <time>2021-10-09T06:14:22Z</time>
      </trkpt>
      <trkpt lat="42.80641" lon="2.01584">
        <ele>764</ele>
        <time>2021-10-09T06:14:28Z</time>
      </trkpt>
      <trkpt lat="42.80615" lon="2.01555">
        <ele>764.8</ele>
        <time>2021-10-09T06:14:35Z</time>
      </trkpt>
      <trkpt lat="42.80602" lon="2.0154">
        <ele>765.4</ele>
        <time>2021-10-09T06:14:39Z</time>
      </trkpt>
      <trkpt lat="42.80592" lon="2.01529">
        <ele>765.8</ele>
        <time>2021-10-09T06:14:42Z</time>
      </trkpt>
      <trkpt lat="42.80585" lon="2.01521">
        <ele>766.2</ele>
        <time>2021-10-09T06:14:44Z</time>
      </trkpt>
      <trkpt lat="42.8058" lon="2.01509">
        <ele>766.4</ele>
        <time>2021-10-09T06:14:46Z</time>
      </trkpt>
      <trkpt lat="42.80579" lon="2.01498">
        <ele>766.6</ele>
        <time>2021-10-09T06:14:48Z</time>
      </trkpt>
      <trkpt lat="42.80578" lon="2.01492">
        <ele>766.6</ele>
        <time>2021-10-09T06:14:49Z</time>
      </trkpt>
      <trkpt lat="42.80576" lon="2.01478">
        <ele>766.8</ele>
        <time>2021-10-09T06:14:51Z</time>
      </trkpt>
      <trkpt lat="42.80574" lon="2.01466">
        <ele>767</ele>
        <time>2021-10-09T06:14:53Z</time>
      </trkpt>
      <trkpt lat="42.80573" lon="2.01454">
        <ele>767.2</ele>
        <time>2021-10-09T06:14:55Z</time>
      </trkpt>
      <trkpt lat="42.80573" lon="2.01447">
        <ele>767.2</ele>
        <time>2021-10-09T06:14:56Z</time>
      </trkpt>
      <trkpt lat="42.80572" lon="2.01437">
        <ele>767.4</ele>
        <time>2021-10-09T06:14:58Z</time>
      </trkpt>
      <trkpt lat="42.80572" lon="2.01419">
        <ele>767.6</ele>
        <time>2021-10-09T06:15:01Z</time>
      </trkpt>
      <trkpt lat="42.8055" lon="2.01403">
        <ele>767.8</ele>
        <time>2021-10-09T06:15:04Z</time>
      </trkpt>
      <trkpt lat="42.80543" lon="2.0139">
        <ele>767.8</ele>
        <time>2021-10-09T06:15:06Z</time>
      </trkpt>
      <trkpt lat="42.80539" lon="2.01378">
        <ele>768</ele>
        <time>2021-10-09T06:15:08Z</time>
      </trkpt>
      <trkpt lat="42.80542" lon="2.01367">
        <ele>768.2</ele>
        <time>2021-10-09T06:15:10Z</time>
      </trkpt>
      <trkpt lat="42.80546" lon="2.01355">
        <ele>768.4</ele>
        <time>2021-10-09T06:15:12Z</time>
      </trkpt>
      <trkpt lat="42.80549" lon="2.01349">
        <ele>768.4</ele>
        <time>2021-10-09T06:15:13Z</time>
      </trkpt>
      <trkpt lat="42.80558" lon="2.01338">
        <ele>768.6</ele>
        <time>2021-10-09T06:15:15Z</time>
      </trkpt>
      <trkpt lat="42.80577" lon="2.01315">
        <ele>768.8</ele>
        <time>2021-10-09T06:15:20Z</time>
      </trkpt>
      <trkpt lat="42.80578" lon="2.013">
        <ele>768.8</ele>
        <time>2021-10-09T06:15:23Z</time>
      </trkpt>
      <trkpt lat="42.80581" lon="2.01273">
        <ele>769</ele>
        <time>2021-10-09T06:15:28Z</time>
      </trkpt>
      <trkpt lat="42.80575" lon="2.01257">
        <ele>769</ele>
        <time>2021-10-09T06:15:32Z</time>
      </trkpt>
      <trkpt lat="42.80562" lon="2.01232">
        <ele>769.6</ele>
        <time>2021-10-09T06:15:37Z</time>
      </trkpt>
      <trkpt lat="42.80554" lon="2.01227">
        <ele>769.8</ele>
        <time>2021-10-09T06:15:39Z</time>
      </trkpt>
      <trkpt lat="42.80541" lon="2.0122">
        <ele>770</ele>
        <time>2021-10-09T06:15:42Z</time>
      </trkpt>
      <trkpt lat="42.80529" lon="2.01212">
        <ele>770.4</ele>
        <time>2021-10-09T06:15:46Z</time>
      </trkpt>
      <trkpt lat="42.80514" lon="2.01193">
        <ele>770.8</ele>
        <time>2021-10-09T06:15:50Z</time>
      </trkpt>
      <trkpt lat="42.80511" lon="2.01188">
        <ele>770.8</ele>
        <time>2021-10-09T06:15:51Z</time>
      </trkpt>
      <trkpt lat="42.80508" lon="2.01183">
        <ele>771</ele>
        <time>2021-10-09T06:15:52Z</time>
      </trkpt>
      <trkpt lat="42.80498" lon="2.01157">
        <ele>771.4</ele>
        <time>2021-10-09T06:15:57Z</time>
      </trkpt>
      <trkpt lat="42.80494" lon="2.01143">
        <ele>771.8</ele>
        <time>2021-10-09T06:16:00Z</time>
      </trkpt>
      <trkpt lat="42.80492" lon="2.01138">
        <ele>772</ele>
        <time>2021-10-09T06:16:01Z</time>
      </trkpt>
      <trkpt lat="42.80491" lon="2.01125">
        <ele>772.2</ele>
        <time>2021-10-09T06:16:04Z</time>
      </trkpt>
      <trkpt lat="42.80491" lon="2.0112">
        <ele>772.4</ele>
        <time>2021-10-09T06:16:05Z</time>
      </trkpt>
      <trkpt lat="42.80491" lon="2.01115">
        <ele>772.4</ele>
        <time>2021-10-09T06:16:06Z</time>
      </trkpt>
      <trkpt lat="42.8049" lon="2.01105">
        <ele>772.6</ele>
        <time>2021-10-09T06:16:08Z</time>
      </trkpt>
      <trkpt lat="42.8049" lon="2.011">
        <ele>772.8</ele>
        <time>2021-10-09T06:16:09Z</time>
      </trkpt>
      <trkpt lat="42.8049" lon="2.01091">
        <ele>773</ele>
        <time>2021-10-09T06:16:11Z</time>
      </trkpt>
      <trkpt lat="42.80489" lon="2.01082">
        <ele>773.2</ele>
        <time>2021-10-09T06:16:13Z</time>
      </trkpt>
      <trkpt lat="42.80489" lon="2.01076">
        <ele>773.2</ele>
        <time>2021-10-09T06:16:14Z</time>
      </trkpt>
      <trkpt lat="42.8049" lon="2.01064">
        <ele>773.4</ele>
        <time>2021-10-09T06:16:17Z</time>
      </trkpt>
      <trkpt lat="42.80491" lon="2.01059">
        <ele>773.6</ele>
        <time>2021-10-09T06:16:18Z</time>
      </trkpt>
      <trkpt lat="42.80492" lon="2.01054">
        <ele>773.6</ele>
        <time>2021-10-09T06:16:19Z</time>
      </trkpt>
      <trkpt lat="42.80493" lon="2.01044">
        <ele>773.8</ele>
        <time>2021-10-09T06:16:21Z</time>
      </trkpt>
      <trkpt lat="42.80493" lon="2.0104">
        <ele>774</ele>
        <time>2021-10-09T06:16:22Z</time>
      </trkpt>
      <trkpt lat="42.80494" lon="2.01031">
        <ele>774</ele>
        <time>2021-10-09T06:16:24Z</time>
      </trkpt>
      <trkpt lat="42.80495" lon="2.01027">
        <ele>774.2</ele>
        <time>2021-10-09T06:16:25Z</time>
      </trkpt>
      <trkpt lat="42.80496" lon="2.01018">
        <ele>774.4</ele>
        <time>2021-10-09T06:16:27Z</time>
      </trkpt>
      <trkpt lat="42.80497" lon="2.01008">
        <ele>774.4</ele>
        <time>2021-10-09T06:16:29Z</time>
      </trkpt>
      <trkpt lat="42.80497" lon="2.01004">
        <ele>774.6</ele>
        <time>2021-10-09T06:16:30Z</time>
      </trkpt>
      <trkpt lat="42.805" lon="2.00984">
        <ele>774.8</ele>
        <time>2021-10-09T06:16:34Z</time>
      </trkpt>
      <trkpt lat="42.80502" lon="2.00973">
        <ele>775</ele>
        <time>2021-10-09T06:16:36Z</time>
      </trkpt>
      <trkpt lat="42.80504" lon="2.00962">
        <ele>775.4</ele>
        <time>2021-10-09T06:16:38Z</time>
      </trkpt>
      <trkpt lat="42.80505" lon="2.00953">
        <ele>775.6</ele>
        <time>2021-10-09T06:16:40Z</time>
      </trkpt>
      <trkpt lat="42.80507" lon="2.00943">
        <ele>776</ele>
        <time>2021-10-09T06:16:42Z</time>
      </trkpt>
      <trkpt lat="42.80512" lon="2.00914">
        <ele>777.2</ele>
        <time>2021-10-09T06:16:48Z</time>
      </trkpt>
      <trkpt lat="42.80517" lon="2.00888">
        <ele>777.8</ele>
        <time>2021-10-09T06:16:54Z</time>
      </trkpt>
      <trkpt lat="42.80523" lon="2.00863">
        <ele>778.8</ele>
        <time>2021-10-09T06:17:00Z</time>
      </trkpt>
      <trkpt lat="42.80525" lon="2.00846">
        <ele>779.2</ele>
        <time>2021-10-09T06:17:05Z</time>
      </trkpt>
      <trkpt lat="42.80527" lon="2.00821">
        <ele>780</ele>
        <time>2021-10-09T06:17:11Z</time>
      </trkpt>
      <trkpt lat="42.80526" lon="2.00801">
        <ele>781</ele>
        <time>2021-10-09T06:17:16Z</time>
      </trkpt>
      <trkpt lat="42.80524" lon="2.00787">
        <ele>781.6</ele>
        <time>2021-10-09T06:17:19Z</time>
      </trkpt>
      <trkpt lat="42.80517" lon="2.00768">
        <ele>782.6</ele>
        <time>2021-10-09T06:17:23Z</time>
      </trkpt>
      <trkpt lat="42.80503" lon="2.00732">
        <ele>784.4</ele>
        <time>2021-10-09T06:17:28Z</time>
      </trkpt>
      <trkpt lat="42.80498" lon="2.00723">
        <ele>784.8</ele>
        <time>2021-10-09T06:17:30Z</time>
      </trkpt>
      <trkpt lat="42.80493" lon="2.00716">
        <ele>785</ele>
        <time>2021-10-09T06:17:32Z</time>
      </trkpt>
      <trkpt lat="42.80485" lon="2.00704">
        <ele>785.4</ele>
        <time>2021-10-09T06:17:35Z</time>
      </trkpt>
      <trkpt lat="42.80483" lon="2.007">
        <ele>785.6</ele>
        <time>2021-10-09T06:17:36Z</time>
      </trkpt>
      <trkpt lat="42.80479" lon="2.00693">
        <ele>786</ele>
        <time>2021-10-09T06:17:38Z</time>
      </trkpt>
      <trkpt lat="42.80466" lon="2.00668">
        <ele>786.4</ele>
        <time>2021-10-09T06:17:44Z</time>
      </trkpt>
      <trkpt lat="42.80459" lon="2.0065">
        <ele>786.8</ele>
        <time>2021-10-09T06:17:49Z</time>
      </trkpt>
      <trkpt lat="42.80455" lon="2.00641">
        <ele>787</ele>
        <time>2021-10-09T06:17:51Z</time>
      </trkpt>
      <trkpt lat="42.80452" lon="2.00631">
        <ele>787.2</ele>
        <time>2021-10-09T06:17:54Z</time>
      </trkpt>
      <trkpt lat="42.80449" lon="2.00616">
        <ele>787.2</ele>
        <time>2021-10-09T06:17:58Z</time>
      </trkpt>
      <trkpt lat="42.80448" lon="2.00612">
        <ele>787</ele>
        <time>2021-10-09T06:17:59Z</time>
      </trkpt>
      <trkpt lat="42.80448" lon="2.00609">
        <ele>787</ele>
        <time>2021-10-09T06:18:00Z</time>
      </trkpt>
      <trkpt lat="42.80446" lon="2.00601">
        <ele>787</ele>
        <time>2021-10-09T06:18:02Z</time>
      </trkpt>
      <trkpt lat="42.8044" lon="2.00595">
        <ele>787.2</ele>
        <time>2021-10-09T06:18:03Z</time>
      </trkpt>
      <trkpt lat="42.80436" lon="2.00591">
        <ele>787.2</ele>
        <time>2021-10-09T06:18:05Z</time>
      </trkpt>
      <trkpt lat="42.80433" lon="2.00583">
        <ele>787.2</ele>
        <time>2021-10-09T06:18:07Z</time>
      </trkpt>
      <trkpt lat="42.80432" lon="2.00576">
        <ele>787.4</ele>
        <time>2021-10-09T06:18:09Z</time>
      </trkpt>
      <trkpt lat="42.8043" lon="2.00565">
        <ele>787.6</ele>
        <time>2021-10-09T06:18:12Z</time>
      </trkpt>
      <trkpt lat="42.80429" lon="2.0056">
        <ele>787.8</ele>
        <time>2021-10-09T06:18:13Z</time>
      </trkpt>
      <trkpt lat="42.80419" lon="2.00544">
        <ele>788.2</ele>
        <time>2021-10-09T06:18:19Z</time>
      </trkpt>
      <trkpt lat="42.80413" lon="2.00536">
        <ele>788.4</ele>
        <time>2021-10-09T06:18:21Z</time>
      </trkpt>
      <trkpt lat="42.80405" lon="2.00525">
        <ele>789.2</ele>
        <time>2021-10-09T06:18:25Z</time>
      </trkpt>
      <trkpt lat="42.80392" lon="2.00512">
        <ele>790.2</ele>
        <time>2021-10-09T06:18:30Z</time>
      </trkpt>
      <trkpt lat="42.80369" lon="2.00491">
        <ele>792.2</ele>
        <time>2021-10-09T06:18:38Z</time>
      </trkpt>
      <trkpt lat="42.80347" lon="2.00483">
        <ele>793.4</ele>
        <time>2021-10-09T06:18:44Z</time>
      </trkpt>
      <trkpt lat="42.80325" lon="2.0048">
        <ele>795</ele>
        <time>2021-10-09T06:18:51Z</time>
      </trkpt>
      <trkpt lat="42.80314" lon="2.00486">
        <ele>796.8</ele>
        <time>2021-10-09T06:18:55Z</time>
      </trkpt>
      <trkpt lat="42.80285" lon="2.00493">
        <ele>799.2</ele>
        <time>2021-10-09T06:19:01Z</time>
      </trkpt>
      <trkpt lat="42.80276" lon="2.00485">
        <ele>800</ele>
        <time>2021-10-09T06:19:03Z</time>
      </trkpt>
      <trkpt lat="42.80275" lon="2.00481">
        <ele>800.4</ele>
        <time>2021-10-09T06:19:04Z</time>
      </trkpt>
      <trkpt lat="42.80272" lon="2.00465">
        <ele>801.2</ele>
        <time>2021-10-09T06:19:07Z</time>
      </trkpt>
      <trkpt lat="42.80266" lon="2.0046">
        <ele>801.8</ele>
        <time>2021-10-09T06:19:09Z</time>
      </trkpt>
      <trkpt lat="42.80251" lon="2.00448">
        <ele>802.8</ele>
        <time>2021-10-09T06:19:13Z</time>
      </trkpt>
      <trkpt lat="42.80247" lon="2.00445">
        <ele>803</ele>
        <time>2021-10-09T06:19:14Z</time>
      </trkpt>
      <trkpt lat="42.80234" lon="2.00429">
        <ele>803.8</ele>
        <time>2021-10-09T06:19:18Z</time>
      </trkpt>
      <trkpt lat="42.80226" lon="2.00415">
        <ele>804.4</ele>
        <time>2021-10-09T06:19:21Z</time>
      </trkpt>
      <trkpt lat="42.80221" lon="2.00405">
        <ele>804.8</ele>
        <time>2021-10-09T06:19:23Z</time>
      </trkpt>
      <trkpt lat="42.80217" lon="2.00394">
        <ele>805.4</ele>
        <time>2021-10-09T06:19:25Z</time>
      </trkpt>
      <trkpt lat="42.80213" lon="2.00379">
        <ele>806.2</ele>
        <time>2021-10-09T06:19:28Z</time>
      </trkpt>
      <trkpt lat="42.8021" lon="2.00369">
        <ele>806.6</ele>
        <time>2021-10-09T06:19:30Z</time>
      </trkpt>
      <trkpt lat="42.80207" lon="2.00357">
        <ele>807.2</ele>
        <time>2021-10-09T06:19:32Z</time>
      </trkpt>
      <trkpt lat="42.80202" lon="2.00337">
        <ele>808.2</ele>
        <time>2021-10-09T06:19:35Z</time>
      </trkpt>
      <trkpt lat="42.80196" lon="2.00302">
        <ele>809.8</ele>
        <time>2021-10-09T06:19:41Z</time>
      </trkpt>
      <trkpt lat="42.80203" lon="2.00278">
        <ele>810.8</ele>
        <time>2021-10-09T06:19:46Z</time>
      </trkpt>
      <trkpt lat="42.80207" lon="2.00258">
        <ele>812</ele>
        <time>2021-10-09T06:19:50Z</time>
      </trkpt>
      <trkpt lat="42.80206" lon="2.0024">
        <ele>813</ele>
        <time>2021-10-09T06:19:53Z</time>
      </trkpt>
      <trkpt lat="42.80204" lon="2.00234">
        <ele>813.2</ele>
        <time>2021-10-09T06:19:54Z</time>
      </trkpt>
      <trkpt lat="42.80195" lon="2.00215">
        <ele>814.4</ele>
        <time>2021-10-09T06:19:58Z</time>
      </trkpt>
      <trkpt lat="42.80189" lon="2.00207">
        <ele>815</ele>
        <time>2021-10-09T06:20:00Z</time>
      </trkpt>
      <trkpt lat="42.80187" lon="2.00202">
        <ele>815.2</ele>
        <time>2021-10-09T06:20:01Z</time>
      </trkpt>
      <trkpt lat="42.80171" lon="2.00181">
        <ele>816.6</ele>
        <time>2021-10-09T06:20:06Z</time>
      </trkpt>
      <trkpt lat="42.80167" lon="2.00179">
        <ele>816.8</ele>
        <time>2021-10-09T06:20:07Z</time>
      </trkpt>
      <trkpt lat="42.80156" lon="2.00171">
        <ele>817.4</ele>
        <time>2021-10-09T06:20:10Z</time>
      </trkpt>
      <trkpt lat="42.80151" lon="2.00169">
        <ele>817.6</ele>
        <time>2021-10-09T06:20:11Z</time>
      </trkpt>
      <trkpt lat="42.80147" lon="2.00167">
        <ele>817.8</ele>
        <time>2021-10-09T06:20:12Z</time>
      </trkpt>
      <trkpt lat="42.80134" lon="2.00157">
        <ele>818.8</ele>
        <time>2021-10-09T06:20:16Z</time>
      </trkpt>
      <trkpt lat="42.8013" lon="2.00154">
        <ele>818.8</ele>
        <time>2021-10-09T06:20:17Z</time>
      </trkpt>
      <trkpt lat="42.80124" lon="2.00146">
        <ele>819.4</ele>
        <time>2021-10-09T06:20:19Z</time>
      </trkpt>
      <trkpt lat="42.8012" lon="2.00136">
        <ele>819.8</ele>
        <time>2021-10-09T06:20:21Z</time>
      </trkpt>
      <trkpt lat="42.80117" lon="2.00114">
        <ele>820.4</ele>
        <time>2021-10-09T06:20:25Z</time>
      </trkpt>
      <trkpt lat="42.80119" lon="2.00102">
        <ele>820.8</ele>
        <time>2021-10-09T06:20:27Z</time>
      </trkpt>
      <trkpt lat="42.80119" lon="2.00097">
        <ele>821</ele>
        <time>2021-10-09T06:20:28Z</time>
      </trkpt>
      <trkpt lat="42.8012" lon="2.00091">
        <ele>821.2</ele>
        <time>2021-10-09T06:20:29Z</time>
      </trkpt>
      <trkpt lat="42.80123" lon="2.00069">
        <ele>821.8</ele>
        <time>2021-10-09T06:20:33Z</time>
      </trkpt>
      <trkpt lat="42.80124" lon="2.00057">
        <ele>822.2</ele>
        <time>2021-10-09T06:20:35Z</time>
      </trkpt>
      <trkpt lat="42.80125" lon="2.00034">
        <ele>822.8</ele>
        <time>2021-10-09T06:20:39Z</time>
      </trkpt>
      <trkpt lat="42.80126" lon="2.00019">
        <ele>823.4</ele>
        <time>2021-10-09T06:20:42Z</time>
      </trkpt>
      <trkpt lat="42.80126" lon="2.00008">
        <ele>823.6</ele>
        <time>2021-10-09T06:20:44Z</time>
      </trkpt>
      <trkpt lat="42.80126" lon="2.00003">
        <ele>823.8</ele>
        <time>2021-10-09T06:20:45Z</time>
      </trkpt>
      <trkpt lat="42.80125" lon="1.99985">
        <ele>824.2</ele>
        <time>2021-10-09T06:20:49Z</time>
      </trkpt>
      <trkpt lat="42.80124" lon="1.99973">
        <ele>824.4</ele>
        <time>2021-10-09T06:20:51Z</time>
      </trkpt>
      <trkpt lat="42.80123" lon="1.99968">
        <ele>824.6</ele>
        <time>2021-10-09T06:20:52Z</time>
      </trkpt>
      <trkpt lat="42.80121" lon="1.99953">
        <ele>825.2</ele>
        <time>2021-10-09T06:20:56Z</time>
      </trkpt>
      <trkpt lat="42.8011" lon="1.99927">
        <ele>826</ele>
        <time>2021-10-09T06:21:00Z</time>
      </trkpt>
      <trkpt lat="42.80107" lon="1.9992">
        <ele>826.4</ele>
        <time>2021-10-09T06:21:02Z</time>
      </trkpt>
      <trkpt lat="42.80106" lon="1.99917">
        <ele>826.6</ele>
        <time>2021-10-09T06:21:03Z</time>
      </trkpt>
      <trkpt lat="42.80105" lon="1.99915">
        <ele>826.6</ele>
        <time>2021-10-09T06:21:04Z</time>
      </trkpt>
      <trkpt lat="42.80101" lon="1.99907">
        <ele>826.6</ele>
        <time>2021-10-09T06:21:06Z</time>
      </trkpt>
      <trkpt lat="42.801" lon="1.99904">
        <ele>826.8</ele>
        <time>2021-10-09T06:21:07Z</time>
      </trkpt>
      <trkpt lat="42.80096" lon="1.99894">
        <ele>827.2</ele>
        <time>2021-10-09T06:21:09Z</time>
      </trkpt>
      <trkpt lat="42.80093" lon="1.99888">
        <ele>827.2</ele>
        <time>2021-10-09T06:21:10Z</time>
      </trkpt>
      <trkpt lat="42.80089" lon="1.99878">
        <ele>827.4</ele>
        <time>2021-10-09T06:21:12Z</time>
      </trkpt>
      <trkpt lat="42.80079" lon="1.99863">
        <ele>827.8</ele>
        <time>2021-10-09T06:21:16Z</time>
      </trkpt>
      <trkpt lat="42.80075" lon="1.9986">
        <ele>827.6</ele>
        <time>2021-10-09T06:21:17Z</time>
      </trkpt>
      <trkpt lat="42.80058" lon="1.99847">
        <ele>827.6</ele>
        <time>2021-10-09T06:21:22Z</time>
      </trkpt>
      <trkpt lat="42.80037" lon="1.99836">
        <ele>828</ele>
        <time>2021-10-09T06:21:28Z</time>
      </trkpt>
      <trkpt lat="42.80013" lon="1.99824">
        <ele>829</ele>
        <time>2021-10-09T06:21:35Z</time>
      </trkpt>
      <trkpt lat="42.79982" lon="1.99804">
        <ele>830.2</ele>
        <time>2021-10-09T06:21:44Z</time>
      </trkpt>
      <trkpt lat="42.79963" lon="1.99791">
        <ele>831</ele>
        <time>2021-10-09T06:21:50Z</time>
      </trkpt>
      <trkpt lat="42.79953" lon="1.99776">
        <ele>831.8</ele>
        <time>2021-10-09T06:21:55Z</time>
      </trkpt>
      <trkpt lat="42.79943" lon="1.99761">
        <ele>832.4</ele>
        <time>2021-10-09T06:21:59Z</time>
      </trkpt>
      <trkpt lat="42.79935" lon="1.9974">
        <ele>833.4</ele>
        <time>2021-10-09T06:22:03Z</time>
      </trkpt>
      <trkpt lat="42.79931" lon="1.99722">
        <ele>833.6</ele>
        <time>2021-10-09T06:22:07Z</time>
      </trkpt>
      <trkpt lat="42.79928" lon="1.99708">
        <ele>834.2</ele>
        <time>2021-10-09T06:22:10Z</time>
      </trkpt>
      <trkpt lat="42.7992" lon="1.99686">
        <ele>834.8</ele>
        <time>2021-10-09T06:22:15Z</time>
      </trkpt>
      <trkpt lat="42.79914" lon="1.99673">
        <ele>835</ele>
        <time>2021-10-09T06:22:18Z</time>
      </trkpt>
      <trkpt lat="42.79906" lon="1.99656">
        <ele>835.4</ele>
        <time>2021-10-09T06:22:22Z</time>
      </trkpt>
      <trkpt lat="42.79896" lon="1.99638">
        <ele>835.6</ele>
        <time>2021-10-09T06:22:27Z</time>
      </trkpt>
      <trkpt lat="42.79881" lon="1.99612">
        <ele>837.2</ele>
        <time>2021-10-09T06:22:32Z</time>
      </trkpt>
      <trkpt lat="42.79869" lon="1.99592">
        <ele>837.8</ele>
        <time>2021-10-09T06:22:36Z</time>
      </trkpt>
      <trkpt lat="42.79859" lon="1.99568">
        <ele>838.4</ele>
        <time>2021-10-09T06:22:41Z</time>
      </trkpt>
      <trkpt lat="42.79854" lon="1.99547">
        <ele>839</ele>
        <time>2021-10-09T06:22:45Z</time>
      </trkpt>
      <trkpt lat="42.79851" lon="1.99536">
        <ele>839.2</ele>
        <time>2021-10-09T06:22:47Z</time>
      </trkpt>
      <trkpt lat="42.7985" lon="1.99524">
        <ele>839.4</ele>
        <time>2021-10-09T06:22:49Z</time>
      </trkpt>
      <trkpt lat="42.79848" lon="1.99499">
        <ele>840.2</ele>
        <time>2021-10-09T06:22:53Z</time>
      </trkpt>
      <trkpt lat="42.79844" lon="1.99472">
        <ele>841</ele>
        <time>2021-10-09T06:22:58Z</time>
      </trkpt>
      <trkpt lat="42.79835" lon="1.99454">
        <ele>841.2</ele>
        <time>2021-10-09T06:23:02Z</time>
      </trkpt>
      <trkpt lat="42.79818" lon="1.9944">
        <ele>841.6</ele>
        <time>2021-10-09T06:23:07Z</time>
      </trkpt>
      <trkpt lat="42.79789" lon="1.99438">
        <ele>842</ele>
        <time>2021-10-09T06:23:13Z</time>
      </trkpt>
      <trkpt lat="42.79781" lon="1.99439">
        <ele>842</ele>
        <time>2021-10-09T06:23:15Z</time>
      </trkpt>
      <trkpt lat="42.79772" lon="1.9944">
        <ele>841.8</ele>
        <time>2021-10-09T06:23:17Z</time>
      </trkpt>
      <trkpt lat="42.7976" lon="1.99442">
        <ele>841.4</ele>
        <time>2021-10-09T06:23:20Z</time>
      </trkpt>
      <trkpt lat="42.79756" lon="1.99442">
        <ele>842</ele>
        <time>2021-10-09T06:23:21Z</time>
      </trkpt>
      <trkpt lat="42.79743" lon="1.99443">
        <ele>839.8</ele>
        <time>2021-10-09T06:23:24Z</time>
      </trkpt>
      <trkpt lat="42.79735" lon="1.9944">
        <ele>840.6</ele>
        <time>2021-10-09T06:23:26Z</time>
      </trkpt>
      <trkpt lat="42.79722" lon="1.99436">
        <ele>840.6</ele>
        <time>2021-10-09T06:23:30Z</time>
      </trkpt>
      <trkpt lat="42.7971" lon="1.99431">
        <ele>840</ele>
        <time>2021-10-09T06:23:34Z</time>
      </trkpt>
      <trkpt lat="42.79699" lon="1.99423">
        <ele>838.4</ele>
        <time>2021-10-09T06:23:39Z</time>
      </trkpt>
      <trkpt lat="42.7968" lon="1.99409">
        <ele>837</ele>
        <time>2021-10-09T06:23:44Z</time>
      </trkpt>
      <trkpt lat="42.79641" lon="1.99386">
        <ele>835.8</ele>
        <time>2021-10-09T06:23:51Z</time>
      </trkpt>
      <trkpt lat="42.79615" lon="1.99374">
        <ele>836</ele>
        <time>2021-10-09T06:23:59Z</time>
      </trkpt>
      <trkpt lat="42.79589" lon="1.99363">
        <ele>839.2</ele>
        <time>2021-10-09T06:24:06Z</time>
      </trkpt>
      <trkpt lat="42.79567" lon="1.99349">
        <ele>840.8</ele>
        <time>2021-10-09T06:24:12Z</time>
      </trkpt>
      <trkpt lat="42.79548" lon="1.99337">
        <ele>841.6</ele>
        <time>2021-10-09T06:24:17Z</time>
      </trkpt>
      <trkpt lat="42.79541" lon="1.99314">
        <ele>842.4</ele>
        <time>2021-10-09T06:24:22Z</time>
      </trkpt>
      <trkpt lat="42.79534" lon="1.99286">
        <ele>843.8</ele>
        <time>2021-10-09T06:24:27Z</time>
      </trkpt>
      <trkpt lat="42.79533" lon="1.99252">
        <ele>845.4</ele>
        <time>2021-10-09T06:24:33Z</time>
      </trkpt>
      <trkpt lat="42.79534" lon="1.99241">
        <ele>846</ele>
        <time>2021-10-09T06:24:35Z</time>
      </trkpt>
      <trkpt lat="42.79535" lon="1.9923">
        <ele>846.4</ele>
        <time>2021-10-09T06:24:37Z</time>
      </trkpt>
      <trkpt lat="42.79536" lon="1.99219">
        <ele>846.8</ele>
        <time>2021-10-09T06:24:39Z</time>
      </trkpt>
      <trkpt lat="42.79537" lon="1.99208">
        <ele>847.2</ele>
        <time>2021-10-09T06:24:41Z</time>
      </trkpt>
      <trkpt lat="42.79538" lon="1.99197">
        <ele>847.4</ele>
        <time>2021-10-09T06:24:43Z</time>
      </trkpt>
      <trkpt lat="42.79534" lon="1.99175">
        <ele>848.4</ele>
        <time>2021-10-09T06:24:47Z</time>
      </trkpt>
      <trkpt lat="42.79528" lon="1.99164">
        <ele>849</ele>
        <time>2021-10-09T06:24:50Z</time>
      </trkpt>
      <trkpt lat="42.79517" lon="1.9915">
        <ele>849.6</ele>
        <time>2021-10-09T06:24:54Z</time>
      </trkpt>
      <trkpt lat="42.79506" lon="1.99135">
        <ele>850</ele>
        <time>2021-10-09T06:24:58Z</time>
      </trkpt>
      <trkpt lat="42.79503" lon="1.99131">
        <ele>850</ele>
        <time>2021-10-09T06:24:59Z</time>
      </trkpt>
      <trkpt lat="42.79488" lon="1.99113">
        <ele>850.2</ele>
        <time>2021-10-09T06:25:04Z</time>
      </trkpt>
      <trkpt lat="42.79475" lon="1.99097">
        <ele>849.8</ele>
        <time>2021-10-09T06:25:09Z</time>
      </trkpt>
      <trkpt lat="42.79456" lon="1.99073">
        <ele>849.8</ele>
        <time>2021-10-09T06:25:16Z</time>
      </trkpt>
      <trkpt lat="42.79445" lon="1.9905">
        <ele>849.2</ele>
        <time>2021-10-09T06:25:22Z</time>
      </trkpt>
      <trkpt lat="42.79439" lon="1.99026">
        <ele>849</ele>
        <time>2021-10-09T06:25:27Z</time>
      </trkpt>
      <trkpt lat="42.79427" lon="1.9899">
        <ele>848.6</ele>
        <time>2021-10-09T06:25:34Z</time>
      </trkpt>
      <trkpt lat="42.79416" lon="1.98971">
        <ele>848.4</ele>
        <time>2021-10-09T06:25:38Z</time>
      </trkpt>
      <trkpt lat="42.79392" lon="1.9894">
        <ele>848.6</ele>
        <time>2021-10-09T06:25:45Z</time>
      </trkpt>
      <trkpt lat="42.79366" lon="1.9891">
        <ele>849.2</ele>
        <time>2021-10-09T06:25:53Z</time>
      </trkpt>
      <trkpt lat="42.79344" lon="1.9888">
        <ele>849.4</ele>
        <time>2021-10-09T06:26:00Z</time>
      </trkpt>
      <trkpt lat="42.79319" lon="1.98848">
        <ele>850</ele>
        <time>2021-10-09T06:26:08Z</time>
      </trkpt>
      <trkpt lat="42.79303" lon="1.98827">
        <ele>850.2</ele>
        <time>2021-10-09T06:26:14Z</time>
      </trkpt>
      <trkpt lat="42.79285" lon="1.98804">
        <ele>850.6</ele>
        <time>2021-10-09T06:26:20Z</time>
      </trkpt>
      <trkpt lat="42.79271" lon="1.98785">
        <ele>850.4</ele>
        <time>2021-10-09T06:26:26Z</time>
      </trkpt>
      <trkpt lat="42.79258" lon="1.9877">
        <ele>850.2</ele>
        <time>2021-10-09T06:26:31Z</time>
      </trkpt>
      <trkpt lat="42.79239" lon="1.98754">
        <ele>849.4</ele>
        <time>2021-10-09T06:26:37Z</time>
      </trkpt>
      <trkpt lat="42.79222" lon="1.9874">
        <ele>849.2</ele>
        <time>2021-10-09T06:26:42Z</time>
      </trkpt>
      <trkpt lat="42.79203" lon="1.98722">
        <ele>850.2</ele>
        <time>2021-10-09T06:26:47Z</time>
      </trkpt>
      <trkpt lat="42.79199" lon="1.98718">
        <ele>850.4</ele>
        <time>2021-10-09T06:26:48Z</time>
      </trkpt>
      <trkpt lat="42.79191" lon="1.98702">
        <ele>850.6</ele>
        <time>2021-10-09T06:26:52Z</time>
      </trkpt>
      <trkpt lat="42.79187" lon="1.98687">
        <ele>850.4</ele>
        <time>2021-10-09T06:26:56Z</time>
      </trkpt>
      <trkpt lat="42.79182" lon="1.98662">
        <ele>850.2</ele>
        <time>2021-10-09T06:27:01Z</time>
      </trkpt>
      <trkpt lat="42.79177" lon="1.98636">
        <ele>851</ele>
        <time>2021-10-09T06:27:05Z</time>
      </trkpt>
      <trkpt lat="42.79174" lon="1.98625">
        <ele>851</ele>
        <time>2021-10-09T06:27:07Z</time>
      </trkpt>
      <trkpt lat="42.79168" lon="1.98611">
        <ele>850.4</ele>
        <time>2021-10-09T06:27:10Z</time>
      </trkpt>
      <trkpt lat="42.79156" lon="1.9859">
        <ele>849.4</ele>
        <time>2021-10-09T06:27:16Z</time>
      </trkpt>
      <trkpt lat="42.79146" lon="1.98577">
        <ele>849.6</ele>
        <time>2021-10-09T06:27:21Z</time>
      </trkpt>
      <trkpt lat="42.79136" lon="1.98564">
        <ele>849</ele>
        <time>2021-10-09T06:27:26Z</time>
      </trkpt>
      <trkpt lat="42.79125" lon="1.98546">
        <ele>848.4</ele>
        <time>2021-10-09T06:27:31Z</time>
      </trkpt>
      <trkpt lat="42.79106" lon="1.98514">
        <ele>848.4</ele>
        <time>2021-10-09T06:27:38Z</time>
      </trkpt>
      <trkpt lat="42.79099" lon="1.98497">
        <ele>848.6</ele>
        <time>2021-10-09T06:27:42Z</time>
      </trkpt>
      <trkpt lat="42.79089" lon="1.98472">
        <ele>848.6</ele>
        <time>2021-10-09T06:27:47Z</time>
      </trkpt>
      <trkpt lat="42.79074" lon="1.98449">
        <ele>849</ele>
        <time>2021-10-09T06:27:53Z</time>
      </trkpt>
      <trkpt lat="42.79061" lon="1.98434">
        <ele>848.8</ele>
        <time>2021-10-09T06:27:58Z</time>
      </trkpt>
      <trkpt lat="42.79051" lon="1.98423">
        <ele>849</ele>
        <time>2021-10-09T06:28:02Z</time>
      </trkpt>
      <trkpt lat="42.79041" lon="1.98411">
        <ele>849.4</ele>
        <time>2021-10-09T06:28:06Z</time>
      </trkpt>
      <trkpt lat="42.79027" lon="1.98393">
        <ele>850.4</ele>
        <time>2021-10-09T06:28:12Z</time>
      </trkpt>
      <trkpt lat="42.79016" lon="1.98375">
        <ele>851.6</ele>
        <time>2021-10-09T06:28:17Z</time>
      </trkpt>
      <trkpt lat="42.79012" lon="1.98365">
        <ele>852.6</ele>
        <time>2021-10-09T06:28:20Z</time>
      </trkpt>
      <trkpt lat="42.7901" lon="1.98362">
        <ele>853</ele>
        <time>2021-10-09T06:28:21Z</time>
      </trkpt>
      <trkpt lat="42.79002" lon="1.98339">
        <ele>855</ele>
        <time>2021-10-09T06:28:26Z</time>
      </trkpt>
      <trkpt lat="42.78994" lon="1.98319">
        <ele>856.8</ele>
        <time>2021-10-09T06:28:31Z</time>
      </trkpt>
      <trkpt lat="42.78986" lon="1.98297">
        <ele>858.6</ele>
        <time>2021-10-09T06:28:36Z</time>
      </trkpt>
      <trkpt lat="42.78981" lon="1.98275">
        <ele>860.4</ele>
        <time>2021-10-09T06:28:41Z</time>
      </trkpt>
      <trkpt lat="42.7898" lon="1.98267">
        <ele>861</ele>
        <time>2021-10-09T06:28:43Z</time>
      </trkpt>
      <trkpt lat="42.78979" lon="1.98263">
        <ele>861.4</ele>
        <time>2021-10-09T06:28:44Z</time>
      </trkpt>
      <trkpt lat="42.78978" lon="1.98246">
        <ele>863</ele>
        <time>2021-10-09T06:28:48Z</time>
      </trkpt>
      <trkpt lat="42.78978" lon="1.98241">
        <ele>863.4</ele>
        <time>2021-10-09T06:28:49Z</time>
      </trkpt>
      <trkpt lat="42.78977" lon="1.98213">
        <ele>866</ele>
        <time>2021-10-09T06:28:55Z</time>
      </trkpt>
      <trkpt lat="42.78976" lon="1.98194">
        <ele>868.4</ele>
        <time>2021-10-09T06:28:59Z</time>
      </trkpt>
      <trkpt lat="42.78975" lon="1.98183">
        <ele>869.4</ele>
        <time>2021-10-09T06:29:01Z</time>
      </trkpt>
      <trkpt lat="42.78972" lon="1.98173">
        <ele>870.4</ele>
        <time>2021-10-09T06:29:03Z</time>
      </trkpt>
      <trkpt lat="42.78961" lon="1.98153">
        <ele>872.6</ele>
        <time>2021-10-09T06:29:08Z</time>
      </trkpt>
      <trkpt lat="42.78949" lon="1.98135">
        <ele>874.8</ele>
        <time>2021-10-09T06:29:13Z</time>
      </trkpt>
      <trkpt lat="42.78929" lon="1.98106">
        <ele>878</ele>
        <time>2021-10-09T06:29:21Z</time>
      </trkpt>
      <trkpt lat="42.78911" lon="1.98093">
        <ele>880</ele>
        <time>2021-10-09T06:29:27Z</time>
      </trkpt>
      <trkpt lat="42.78891" lon="1.98081">
        <ele>882.2</ele>
        <time>2021-10-09T06:29:33Z</time>
      </trkpt>
      <trkpt lat="42.78873" lon="1.98064">
        <ele>883.8</ele>
        <time>2021-10-09T06:29:39Z</time>
      </trkpt>
      <trkpt lat="42.78852" lon="1.98048">
        <ele>885.8</ele>
        <time>2021-10-09T06:29:46Z</time>
      </trkpt>
      <trkpt lat="42.78833" lon="1.98031">
        <ele>887.4</ele>
        <time>2021-10-09T06:29:52Z</time>
      </trkpt>
      <trkpt lat="42.7882" lon="1.98013">
        <ele>889</ele>
        <time>2021-10-09T06:29:57Z</time>
      </trkpt>
      <trkpt lat="42.78818" lon="1.98004">
        <ele>890.2</ele>
        <time>2021-10-09T06:30:00Z</time>
      </trkpt>
      <trkpt lat="42.78817" lon="1.98003">
        <ele>890.4</ele>
        <time>2021-10-09T06:30:01Z</time>
      </trkpt>
      <trkpt lat="42.78816" lon="1.97998">
        <ele>890.8</ele>
        <time>2021-10-09T06:30:03Z</time>
      </trkpt>
      <trkpt lat="42.78812" lon="1.97982">
        <ele>891.2</ele>
        <time>2021-10-09T06:30:05Z</time>
      </trkpt>
      <trkpt lat="42.78809" lon="1.97948">
        <ele>892.8</ele>
        <time>2021-10-09T06:30:11Z</time>
      </trkpt>
      <trkpt lat="42.78801" lon="1.9792">
        <ele>895</ele>
        <time>2021-10-09T06:30:17Z</time>
      </trkpt>
      <trkpt lat="42.78788" lon="1.97901">
        <ele>896.6</ele>
        <time>2021-10-09T06:30:22Z</time>
      </trkpt>
      <trkpt lat="42.78771" lon="1.97892">
        <ele>897.8</ele>
        <time>2021-10-09T06:30:27Z</time>
      </trkpt>
      <trkpt lat="42.7877" lon="1.97891">
        <ele>898.6</ele>
        <time>2021-10-09T06:30:30Z</time>
      </trkpt>
      <trkpt lat="42.78766" lon="1.97889">
        <ele>899.4</ele>
        <time>2021-10-09T06:30:33Z</time>
      </trkpt>
      <trkpt lat="42.78762" lon="1.97884">
        <ele>899.8</ele>
        <time>2021-10-09T06:30:35Z</time>
      </trkpt>
      <trkpt lat="42.78757" lon="1.97878">
        <ele>900.2</ele>
        <time>2021-10-09T06:30:37Z</time>
      </trkpt>
      <trkpt lat="42.78748" lon="1.97873">
        <ele>900.6</ele>
        <time>2021-10-09T06:30:39Z</time>
      </trkpt>
      <trkpt lat="42.78726" lon="1.97863">
        <ele>901.6</ele>
        <time>2021-10-09T06:30:45Z</time>
      </trkpt>
      <trkpt lat="42.78706" lon="1.97852">
        <ele>902.4</ele>
        <time>2021-10-09T06:30:50Z</time>
      </trkpt>
      <trkpt lat="42.78677" lon="1.97823">
        <ele>903.4</ele>
        <time>2021-10-09T06:30:59Z</time>
      </trkpt>
      <trkpt lat="42.78655" lon="1.97801">
        <ele>904.4</ele>
        <time>2021-10-09T06:31:06Z</time>
      </trkpt>
      <trkpt lat="42.7864" lon="1.97784">
        <ele>905.2</ele>
        <time>2021-10-09T06:31:12Z</time>
      </trkpt>
      <trkpt lat="42.78625" lon="1.97766">
        <ele>905.4</ele>
        <time>2021-10-09T06:31:18Z</time>
      </trkpt>
      <trkpt lat="42.78613" lon="1.97749">
        <ele>905.4</ele>
        <time>2021-10-09T06:31:23Z</time>
      </trkpt>
      <trkpt lat="42.78602" lon="1.97729">
        <ele>905.6</ele>
        <time>2021-10-09T06:31:28Z</time>
      </trkpt>
      <trkpt lat="42.78591" lon="1.97705">
        <ele>905.8</ele>
        <time>2021-10-09T06:31:34Z</time>
      </trkpt>
      <trkpt lat="42.78589" lon="1.97698">
        <ele>905.6</ele>
        <time>2021-10-09T06:31:36Z</time>
      </trkpt>
      <trkpt lat="42.78586" lon="1.97693">
        <ele>905.6</ele>
        <time>2021-10-09T06:31:38Z</time>
      </trkpt>
      <trkpt lat="42.78575" lon="1.97667">
        <ele>905.4</ele>
        <time>2021-10-09T06:31:44Z</time>
      </trkpt>
      <trkpt lat="42.78567" lon="1.9765">
        <ele>905.2</ele>
        <time>2021-10-09T06:31:48Z</time>
      </trkpt>
      <trkpt lat="42.78566" lon="1.97646">
        <ele>905.4</ele>
        <time>2021-10-09T06:31:49Z</time>
      </trkpt>
      <trkpt lat="42.78552" lon="1.9762">
        <ele>905.4</ele>
        <time>2021-10-09T06:31:55Z</time>
      </trkpt>
      <trkpt lat="42.78541" lon="1.97605">
        <ele>905.2</ele>
        <time>2021-10-09T06:32:00Z</time>
      </trkpt>
      <trkpt lat="42.78525" lon="1.9759">
        <ele>904.2</ele>
        <time>2021-10-09T06:32:07Z</time>
      </trkpt>
      <trkpt lat="42.78509" lon="1.97575">
        <ele>904</ele>
        <time>2021-10-09T06:32:13Z</time>
      </trkpt>
      <trkpt lat="42.78494" lon="1.97556">
        <ele>904.4</ele>
        <time>2021-10-09T06:32:19Z</time>
      </trkpt>
      <trkpt lat="42.78481" lon="1.97537">
        <ele>905</ele>
        <time>2021-10-09T06:32:25Z</time>
      </trkpt>
      <trkpt lat="42.7847" lon="1.97519">
        <ele>905.4</ele>
        <time>2021-10-09T06:32:31Z</time>
      </trkpt>
      <trkpt lat="42.78461" lon="1.97502">
        <ele>906</ele>
        <time>2021-10-09T06:32:37Z</time>
      </trkpt>
      <trkpt lat="42.78456" lon="1.97494">
        <ele>906.4</ele>
        <time>2021-10-09T06:32:40Z</time>
      </trkpt>
      <trkpt lat="42.78455" lon="1.97491">
        <ele>906.6</ele>
        <time>2021-10-09T06:32:41Z</time>
      </trkpt>
      <trkpt lat="42.78455" lon="1.97491">
        <ele>907</ele>
        <time>2021-10-09T06:32:43Z</time>
      </trkpt>
      <trkpt lat="42.78445" lon="1.97475">
        <ele>907.4</ele>
        <time>2021-10-09T06:32:46Z</time>
      </trkpt>
      <trkpt lat="42.78444" lon="1.97474">
        <ele>907.6</ele>
        <time>2021-10-09T06:32:47Z</time>
      </trkpt>
      <trkpt lat="42.78429" lon="1.97451">
        <ele>908</ele>
        <time>2021-10-09T06:32:49Z</time>
      </trkpt>
      <trkpt lat="42.78429" lon="1.97451">
        <ele>908.2</ele>
        <time>2021-10-09T06:32:51Z</time>
      </trkpt>
      <trkpt lat="42.7843" lon="1.97452">
        <ele>909</ele>
        <time>2021-10-09T06:32:56Z</time>
      </trkpt>
      <trkpt lat="42.78428" lon="1.97447">
        <ele>909</ele>
        <time>2021-10-09T06:32:57Z</time>
      </trkpt>
      <trkpt lat="42.78426" lon="1.97435">
        <ele>909.4</ele>
        <time>2021-10-09T06:32:59Z</time>
      </trkpt>
      <trkpt lat="42.78425" lon="1.97428">
        <ele>910</ele>
        <time>2021-10-09T06:33:01Z</time>
      </trkpt>
      <trkpt lat="42.78417" lon="1.97402">
        <ele>910.8</ele>
        <time>2021-10-09T06:33:07Z</time>
      </trkpt>
      <trkpt lat="42.78395" lon="1.97377">
        <ele>912.2</ele>
        <time>2021-10-09T06:33:14Z</time>
      </trkpt>
      <trkpt lat="42.78373" lon="1.97368">
        <ele>915.2</ele>
        <time>2021-10-09T06:33:20Z</time>
      </trkpt>
      <trkpt lat="42.7837" lon="1.97368">
        <ele>915.6</ele>
        <time>2021-10-09T06:33:21Z</time>
      </trkpt>
      <trkpt lat="42.78359" lon="1.97363">
        <ele>916.6</ele>
        <time>2021-10-09T06:33:24Z</time>
      </trkpt>
      <trkpt lat="42.7835" lon="1.97357">
        <ele>917.6</ele>
        <time>2021-10-09T06:33:28Z</time>
      </trkpt>
      <trkpt lat="42.78348" lon="1.97356">
        <ele>917.8</ele>
        <time>2021-10-09T06:33:29Z</time>
      </trkpt>
      <trkpt lat="42.78329" lon="1.97345">
        <ele>919.4</ele>
        <time>2021-10-09T06:33:36Z</time>
      </trkpt>
      <trkpt lat="42.78314" lon="1.97335">
        <ele>920.6</ele>
        <time>2021-10-09T06:33:41Z</time>
      </trkpt>
      <trkpt lat="42.78327" lon="1.97343">
        <ele>922.4</ele>
        <time>2021-10-09T06:33:48Z</time>
      </trkpt>
      <trkpt lat="42.78332" lon="1.97332">
        <ele>923</ele>
        <time>2021-10-09T06:33:50Z</time>
      </trkpt>
      <trkpt lat="42.78325" lon="1.97322">
        <ele>923.2</ele>
        <time>2021-10-09T06:33:52Z</time>
      </trkpt>
      <trkpt lat="42.78315" lon="1.973">
        <ele>924.4</ele>
        <time>2021-10-09T06:33:58Z</time>
      </trkpt>
      <trkpt lat="42.78306" lon="1.97276">
        <ele>925.2</ele>
        <time>2021-10-09T06:34:04Z</time>
      </trkpt>
      <trkpt lat="42.78283" lon="1.97244">
        <ele>927</ele>
        <time>2021-10-09T06:34:13Z</time>
      </trkpt>
      <trkpt lat="42.78276" lon="1.97217">
        <ele>928.6</ele>
        <time>2021-10-09T06:34:19Z</time>
      </trkpt>
      <trkpt lat="42.78264" lon="1.97203">
        <ele>930</ele>
        <time>2021-10-09T06:34:24Z</time>
      </trkpt>
      <trkpt lat="42.78253" lon="1.97192">
        <ele>930.8</ele>
        <time>2021-10-09T06:34:29Z</time>
      </trkpt>
      <trkpt lat="42.78237" lon="1.97182">
        <ele>931.8</ele>
        <time>2021-10-09T06:34:35Z</time>
      </trkpt>
      <trkpt lat="42.78219" lon="1.97172">
        <ele>932.8</ele>
        <time>2021-10-09T06:34:42Z</time>
      </trkpt>
      <trkpt lat="42.78217" lon="1.9717">
        <ele>933</ele>
        <time>2021-10-09T06:34:43Z</time>
      </trkpt>
      <trkpt lat="42.78209" lon="1.97166">
        <ele>933.2</ele>
        <time>2021-10-09T06:34:46Z</time>
      </trkpt>
      <trkpt lat="42.782" lon="1.97161">
        <ele>933.8</ele>
        <time>2021-10-09T06:34:50Z</time>
      </trkpt>
      <trkpt lat="42.78188" lon="1.97154">
        <ele>934.8</ele>
        <time>2021-10-09T06:34:56Z</time>
      </trkpt>
      <trkpt lat="42.78178" lon="1.97149">
        <ele>935.4</ele>
        <time>2021-10-09T06:35:01Z</time>
      </trkpt>
      <trkpt lat="42.78174" lon="1.97147">
        <ele>935.8</ele>
        <time>2021-10-09T06:35:03Z</time>
      </trkpt>
      <trkpt lat="42.78171" lon="1.97144">
        <ele>936</ele>
        <time>2021-10-09T06:35:05Z</time>
      </trkpt>
      <trkpt lat="42.78164" lon="1.97139">
        <ele>936.4</ele>
        <time>2021-10-09T06:35:09Z</time>
      </trkpt>
      <trkpt lat="42.78162" lon="1.97137">
        <ele>936.6</ele>
        <time>2021-10-09T06:35:10Z</time>
      </trkpt>
      <trkpt lat="42.78161" lon="1.97136">
        <ele>936.8</ele>
        <time>2021-10-09T06:35:11Z</time>
      </trkpt>
      <trkpt lat="42.78156" lon="1.97132">
        <ele>937.2</ele>
        <time>2021-10-09T06:35:14Z</time>
      </trkpt>
      <trkpt lat="42.78151" lon="1.97128">
        <ele>937.8</ele>
        <time>2021-10-09T06:35:18Z</time>
      </trkpt>
      <trkpt lat="42.78148" lon="1.97126">
        <ele>938</ele>
        <time>2021-10-09T06:35:20Z</time>
      </trkpt>
      <trkpt lat="42.78144" lon="1.97122">
        <ele>938.6</ele>
        <time>2021-10-09T06:35:23Z</time>
      </trkpt>
      <trkpt lat="42.7814" lon="1.97119">
        <ele>939</ele>
        <time>2021-10-09T06:35:25Z</time>
      </trkpt>
      <trkpt lat="42.78138" lon="1.97117">
        <ele>939.4</ele>
        <time>2021-10-09T06:35:27Z</time>
      </trkpt>
      <trkpt lat="42.78135" lon="1.97113">
        <ele>939.8</ele>
        <time>2021-10-09T06:35:30Z</time>
      </trkpt>
      <trkpt lat="42.78136" lon="1.97097">
        <ele>940.2</ele>
        <time>2021-10-09T06:35:35Z</time>
      </trkpt>
      <trkpt lat="42.78131" lon="1.97081">
        <ele>941.4</ele>
        <time>2021-10-09T06:35:39Z</time>
      </trkpt>
      <trkpt lat="42.78127" lon="1.97063">
        <ele>942.6</ele>
        <time>2021-10-09T06:35:44Z</time>
      </trkpt>
      <trkpt lat="42.78124" lon="1.97057">
        <ele>943</ele>
        <time>2021-10-09T06:35:45Z</time>
      </trkpt>
      <trkpt lat="42.78108" lon="1.97038">
        <ele>944</ele>
        <time>2021-10-09T06:35:48Z</time>
      </trkpt>
      <trkpt lat="42.78076" lon="1.97011">
        <ele>947</ele>
        <time>2021-10-09T06:35:56Z</time>
      </trkpt>
      <trkpt lat="42.78062" lon="1.96993">
        <ele>948.8</ele>
        <time>2021-10-09T06:36:01Z</time>
      </trkpt>
      <trkpt lat="42.78055" lon="1.96973">
        <ele>950.4</ele>
        <time>2021-10-09T06:36:08Z</time>
      </trkpt>
      <trkpt lat="42.78042" lon="1.96941">
        <ele>953</ele>
        <time>2021-10-09T06:36:16Z</time>
      </trkpt>
      <trkpt lat="42.78028" lon="1.9692">
        <ele>954.8</ele>
        <time>2021-10-09T06:36:22Z</time>
      </trkpt>
      <trkpt lat="42.78018" lon="1.96905">
        <ele>956.2</ele>
        <time>2021-10-09T06:36:27Z</time>
      </trkpt>
      <trkpt lat="42.78001" lon="1.96881">
        <ele>959.2</ele>
        <time>2021-10-09T06:36:34Z</time>
      </trkpt>
      <trkpt lat="42.77983" lon="1.96856">
        <ele>962.4</ele>
        <time>2021-10-09T06:36:42Z</time>
      </trkpt>
      <trkpt lat="42.77973" lon="1.96841">
        <ele>964.2</ele>
        <time>2021-10-09T06:36:47Z</time>
      </trkpt>
      <trkpt lat="42.77957" lon="1.96821">
        <ele>966.6</ele>
        <time>2021-10-09T06:36:54Z</time>
      </trkpt>
      <trkpt lat="42.77941" lon="1.96807">
        <ele>969</ele>
        <time>2021-10-09T06:37:01Z</time>
      </trkpt>
      <trkpt lat="42.77925" lon="1.96793">
        <ele>971.4</ele>
        <time>2021-10-09T06:37:08Z</time>
      </trkpt>
      <trkpt lat="42.77913" lon="1.96784">
        <ele>973</ele>
        <time>2021-10-09T06:37:14Z</time>
      </trkpt>
      <trkpt lat="42.77895" lon="1.96773">
        <ele>974.8</ele>
        <time>2021-10-09T06:37:21Z</time>
      </trkpt>
      <trkpt lat="42.77878" lon="1.96761">
        <ele>976.8</ele>
        <time>2021-10-09T06:37:28Z</time>
      </trkpt>
      <trkpt lat="42.77871" lon="1.96749">
        <ele>978.6</ele>
        <time>2021-10-09T06:37:33Z</time>
      </trkpt>
      <trkpt lat="42.77867" lon="1.96734">
        <ele>980</ele>
        <time>2021-10-09T06:37:38Z</time>
      </trkpt>
      <trkpt lat="42.77864" lon="1.96711">
        <ele>981.4</ele>
        <time>2021-10-09T06:37:45Z</time>
      </trkpt>
      <trkpt lat="42.77858" lon="1.96695">
        <ele>982.8</ele>
        <time>2021-10-09T06:37:51Z</time>
      </trkpt>
      <trkpt lat="42.77851" lon="1.96683">
        <ele>983.8</ele>
        <time>2021-10-09T06:37:56Z</time>
      </trkpt>
      <trkpt lat="42.77839" lon="1.96675">
        <ele>985.4</ele>
        <time>2021-10-09T06:38:03Z</time>
      </trkpt>
      <trkpt lat="42.77825" lon="1.96664">
        <ele>987</ele>
        <time>2021-10-09T06:38:11Z</time>
      </trkpt>
      <trkpt lat="42.77812" lon="1.96641">
        <ele>989.6</ele>
        <time>2021-10-09T06:38:22Z</time>
      </trkpt>
      <trkpt lat="42.77796" lon="1.96624">
        <ele>991.6</ele>
        <time>2021-10-09T06:38:30Z</time>
      </trkpt>
      <trkpt lat="42.77775" lon="1.96614">
        <ele>994</ele>
        <time>2021-10-09T06:38:39Z</time>
      </trkpt>
      <trkpt lat="42.77763" lon="1.96612">
        <ele>996.2</ele>
        <time>2021-10-09T06:38:46Z</time>
      </trkpt>
      <trkpt lat="42.7776" lon="1.96611">
        <ele>996.8</ele>
        <time>2021-10-09T06:38:48Z</time>
      </trkpt>
      <trkpt lat="42.77755" lon="1.9661">
        <ele>997.8</ele>
        <time>2021-10-09T06:38:51Z</time>
      </trkpt>
      <trkpt lat="42.77741" lon="1.96607">
        <ele>1000.2</ele>
        <time>2021-10-09T06:38:58Z</time>
      </trkpt>
      <trkpt lat="42.77724" lon="1.96601">
        <ele>1003.6</ele>
        <time>2021-10-09T06:39:07Z</time>
      </trkpt>
      <trkpt lat="42.77706" lon="1.96592">
        <ele>1007</ele>
        <time>2021-10-09T06:39:16Z</time>
      </trkpt>
      <trkpt lat="42.77696" lon="1.96584">
        <ele>1009.2</ele>
        <time>2021-10-09T06:39:22Z</time>
      </trkpt>
      <trkpt lat="42.77694" lon="1.96583">
        <ele>1009.6</ele>
        <time>2021-10-09T06:39:23Z</time>
      </trkpt>
      <trkpt lat="42.77681" lon="1.96574">
        <ele>1012</ele>
        <time>2021-10-09T06:39:30Z</time>
      </trkpt>
      <trkpt lat="42.77663" lon="1.96561">
        <ele>1015.2</ele>
        <time>2021-10-09T06:39:40Z</time>
      </trkpt>
      <trkpt lat="42.77647" lon="1.96547">
        <ele>1018.2</ele>
        <time>2021-10-09T06:39:49Z</time>
      </trkpt>
      <trkpt lat="42.77636" lon="1.96537">
        <ele>1020</ele>
        <time>2021-10-09T06:39:55Z</time>
      </trkpt>
      <trkpt lat="42.77623" lon="1.96527">
        <ele>1022</ele>
        <time>2021-10-09T06:40:02Z</time>
      </trkpt>
      <trkpt lat="42.7761" lon="1.96515">
        <ele>1024.4</ele>
        <time>2021-10-09T06:40:10Z</time>
      </trkpt>
      <trkpt lat="42.77598" lon="1.96507">
        <ele>1026.2</ele>
        <time>2021-10-09T06:40:16Z</time>
      </trkpt>
      <trkpt lat="42.77579" lon="1.96499">
        <ele>1028.6</ele>
        <time>2021-10-09T06:40:25Z</time>
      </trkpt>
      <trkpt lat="42.77567" lon="1.96498">
        <ele>1030.2</ele>
        <time>2021-10-09T06:40:32Z</time>
      </trkpt>
      <trkpt lat="42.77548" lon="1.96495">
        <ele>1031.8</ele>
        <time>2021-10-09T06:40:39Z</time>
      </trkpt>
      <trkpt lat="42.77532" lon="1.96487">
        <ele>1033.4</ele>
        <time>2021-10-09T06:40:46Z</time>
      </trkpt>
      <trkpt lat="42.77521" lon="1.96476">
        <ele>1034.8</ele>
        <time>2021-10-09T06:40:52Z</time>
      </trkpt>
      <trkpt lat="42.77513" lon="1.96469">
        <ele>1035.6</ele>
        <time>2021-10-09T06:40:56Z</time>
      </trkpt>
      <trkpt lat="42.77498" lon="1.96453">
        <ele>1038</ele>
        <time>2021-10-09T06:41:03Z</time>
      </trkpt>
      <trkpt lat="42.77481" lon="1.96437">
        <ele>1040</ele>
        <time>2021-10-09T06:41:11Z</time>
      </trkpt>
      <trkpt lat="42.77465" lon="1.96428">
        <ele>1041.6</ele>
        <time>2021-10-09T06:41:18Z</time>
      </trkpt>
      <trkpt lat="42.77448" lon="1.96425">
        <ele>1043.2</ele>
        <time>2021-10-09T06:41:25Z</time>
      </trkpt>
      <trkpt lat="42.77431" lon="1.96425">
        <ele>1044.4</ele>
        <time>2021-10-09T06:41:32Z</time>
      </trkpt>
      <trkpt lat="42.77418" lon="1.96425">
        <ele>1045.4</ele>
        <time>2021-10-09T06:41:38Z</time>
      </trkpt>
      <trkpt lat="42.77393" lon="1.96425">
        <ele>1046.8</ele>
        <time>2021-10-09T06:41:48Z</time>
      </trkpt>
      <trkpt lat="42.77373" lon="1.96425">
        <ele>1048</ele>
        <time>2021-10-09T06:41:56Z</time>
      </trkpt>
      <trkpt lat="42.77349" lon="1.9642">
        <ele>1049.2</ele>
        <time>2021-10-09T06:42:05Z</time>
      </trkpt>
      <trkpt lat="42.77329" lon="1.96415">
        <ele>1050.4</ele>
        <time>2021-10-09T06:42:13Z</time>
      </trkpt>
      <trkpt lat="42.77307" lon="1.96409">
        <ele>1052.2</ele>
        <time>2021-10-09T06:42:21Z</time>
      </trkpt>
      <trkpt lat="42.77286" lon="1.96405">
        <ele>1053.8</ele>
        <time>2021-10-09T06:42:29Z</time>
      </trkpt>
      <trkpt lat="42.77261" lon="1.96402">
        <ele>1055.8</ele>
        <time>2021-10-09T06:42:37Z</time>
      </trkpt>
      <trkpt lat="42.77245" lon="1.96396">
        <ele>1057</ele>
        <time>2021-10-09T06:42:43Z</time>
      </trkpt>
      <trkpt lat="42.77228" lon="1.96389">
        <ele>1058.4</ele>
        <time>2021-10-09T06:42:49Z</time>
      </trkpt>
      <trkpt lat="42.77211" lon="1.96382">
        <ele>1059.6</ele>
        <time>2021-10-09T06:42:55Z</time>
      </trkpt>
      <trkpt lat="42.77197" lon="1.96379">
        <ele>1060.8</ele>
        <time>2021-10-09T06:43:00Z</time>
      </trkpt>
      <trkpt lat="42.77178" lon="1.9639">
        <ele>1062.6</ele>
        <time>2021-10-09T06:43:07Z</time>
      </trkpt>
      <trkpt lat="42.7717" lon="1.96394">
        <ele>1064.2</ele>
        <time>2021-10-09T06:43:12Z</time>
      </trkpt>
      <trkpt lat="42.77172" lon="1.96396">
        <ele>1064.4</ele>
        <time>2021-10-09T06:43:13Z</time>
      </trkpt>
      <trkpt lat="42.77175" lon="1.96394">
        <ele>1064.8</ele>
        <time>2021-10-09T06:43:15Z</time>
      </trkpt>
      <trkpt lat="42.77176" lon="1.9639">
        <ele>1065.8</ele>
        <time>2021-10-09T06:43:19Z</time>
      </trkpt>
      <trkpt lat="42.77174" lon="1.96394">
        <ele>1074.2</ele>
        <time>2021-10-09T06:44:16Z</time>
      </trkpt>
      <trkpt lat="42.77163" lon="1.96398">
        <ele>1074.8</ele>
        <time>2021-10-09T06:44:23Z</time>
      </trkpt>
      <trkpt lat="42.7715" lon="1.96405">
        <ele>1075</ele>
        <time>2021-10-09T06:44:28Z</time>
      </trkpt>
      <trkpt lat="42.77132" lon="1.96414">
        <ele>1075.4</ele>
        <time>2021-10-09T06:44:35Z</time>
      </trkpt>
      <trkpt lat="42.77113" lon="1.96426">
        <ele>1076</ele>
        <time>2021-10-09T06:44:42Z</time>
      </trkpt>
      <trkpt lat="42.77099" lon="1.96438">
        <ele>1076.4</ele>
        <time>2021-10-09T06:44:48Z</time>
      </trkpt>
      <trkpt lat="42.77084" lon="1.96453">
        <ele>1077.4</ele>
        <time>2021-10-09T06:44:55Z</time>
      </trkpt>
      <trkpt lat="42.77067" lon="1.96463">
        <ele>1078</ele>
        <time>2021-10-09T06:45:01Z</time>
      </trkpt>
      <trkpt lat="42.77052" lon="1.96472">
        <ele>1078.8</ele>
        <time>2021-10-09T06:45:07Z</time>
      </trkpt>
      <trkpt lat="42.77038" lon="1.9648">
        <ele>1079.6</ele>
        <time>2021-10-09T06:45:13Z</time>
      </trkpt>
      <trkpt lat="42.77018" lon="1.96484">
        <ele>1080.8</ele>
        <time>2021-10-09T06:45:21Z</time>
      </trkpt>
      <trkpt lat="42.76998" lon="1.96484">
        <ele>1081.8</ele>
        <time>2021-10-09T06:45:28Z</time>
      </trkpt>
      <trkpt lat="42.76973" lon="1.96482">
        <ele>1083.2</ele>
        <time>2021-10-09T06:45:36Z</time>
      </trkpt>
      <trkpt lat="42.76959" lon="1.96482">
        <ele>1083.8</ele>
        <time>2021-10-09T06:45:41Z</time>
      </trkpt>
      <trkpt lat="42.76939" lon="1.96481">
        <ele>1084.8</ele>
        <time>2021-10-09T06:45:48Z</time>
      </trkpt>
      <trkpt lat="42.76923" lon="1.9648">
        <ele>1085.8</ele>
        <time>2021-10-09T06:45:54Z</time>
      </trkpt>
      <trkpt lat="42.76904" lon="1.96474">
        <ele>1087</ele>
        <time>2021-10-09T06:46:01Z</time>
      </trkpt>
      <trkpt lat="42.76885" lon="1.96471">
        <ele>1088</ele>
        <time>2021-10-09T06:46:08Z</time>
      </trkpt>
      <trkpt lat="42.7687" lon="1.96477">
        <ele>1089.2</ele>
        <time>2021-10-09T06:46:14Z</time>
      </trkpt>
      <trkpt lat="42.76851" lon="1.96486">
        <ele>1090.4</ele>
        <time>2021-10-09T06:46:22Z</time>
      </trkpt>
      <trkpt lat="42.76836" lon="1.96492">
        <ele>1091.4</ele>
        <time>2021-10-09T06:46:28Z</time>
      </trkpt>
      <trkpt lat="42.76818" lon="1.96495">
        <ele>1092.6</ele>
        <time>2021-10-09T06:46:36Z</time>
      </trkpt>
      <trkpt lat="42.76807" lon="1.96496">
        <ele>1093.6</ele>
        <time>2021-10-09T06:46:41Z</time>
      </trkpt>
      <trkpt lat="42.76789" lon="1.96494">
        <ele>1094.8</ele>
        <time>2021-10-09T06:46:48Z</time>
      </trkpt>
      <trkpt lat="42.76775" lon="1.96489">
        <ele>1095.8</ele>
        <time>2021-10-09T06:46:54Z</time>
      </trkpt>
      <trkpt lat="42.76757" lon="1.96487">
        <ele>1097.4</ele>
        <time>2021-10-09T06:47:02Z</time>
      </trkpt>
      <trkpt lat="42.76746" lon="1.96493">
        <ele>1098.4</ele>
        <time>2021-10-09T06:47:07Z</time>
      </trkpt>
      <trkpt lat="42.76732" lon="1.96505">
        <ele>1100</ele>
        <time>2021-10-09T06:47:14Z</time>
      </trkpt>
      <trkpt lat="42.76716" lon="1.96517">
        <ele>1101.8</ele>
        <time>2021-10-09T06:47:22Z</time>
      </trkpt>
      <trkpt lat="42.76698" lon="1.96526">
        <ele>1103.6</ele>
        <time>2021-10-09T06:47:30Z</time>
      </trkpt>
      <trkpt lat="42.76677" lon="1.96536">
        <ele>1105.4</ele>
        <time>2021-10-09T06:47:39Z</time>
      </trkpt>
      <trkpt lat="42.76659" lon="1.96544">
        <ele>1107</ele>
        <time>2021-10-09T06:47:47Z</time>
      </trkpt>
      <trkpt lat="42.76642" lon="1.96556">
        <ele>1108.6</ele>
        <time>2021-10-09T06:47:55Z</time>
      </trkpt>
      <trkpt lat="42.76623" lon="1.96573">
        <ele>1110.6</ele>
        <time>2021-10-09T06:48:05Z</time>
      </trkpt>
      <trkpt lat="42.76611" lon="1.96578">
        <ele>1111.6</ele>
        <time>2021-10-09T06:48:11Z</time>
      </trkpt>
      <trkpt lat="42.76598" lon="1.96582">
        <ele>1112.8</ele>
        <time>2021-10-09T06:48:18Z</time>
      </trkpt>
      <trkpt lat="42.76587" lon="1.96585">
        <ele>1113.6</ele>
        <time>2021-10-09T06:48:23Z</time>
      </trkpt>
      <trkpt lat="42.76574" lon="1.96588">
        <ele>1114.4</ele>
        <time>2021-10-09T06:48:29Z</time>
      </trkpt>
      <trkpt lat="42.76554" lon="1.96599">
        <ele>1115.6</ele>
        <time>2021-10-09T06:48:37Z</time>
      </trkpt>
      <trkpt lat="42.76545" lon="1.96603">
        <ele>1116.2</ele>
        <time>2021-10-09T06:48:42Z</time>
      </trkpt>
      <trkpt lat="42.76534" lon="1.96609">
        <ele>1116.8</ele>
        <time>2021-10-09T06:48:48Z</time>
      </trkpt>
      <trkpt lat="42.7652" lon="1.96616">
        <ele>1117.4</ele>
        <time>2021-10-09T06:48:54Z</time>
      </trkpt>
      <trkpt lat="42.76503" lon="1.9662">
        <ele>1118</ele>
        <time>2021-10-09T06:49:01Z</time>
      </trkpt>
      <trkpt lat="42.76486" lon="1.96623">
        <ele>1118.4</ele>
        <time>2021-10-09T06:49:08Z</time>
      </trkpt>
      <trkpt lat="42.76469" lon="1.96622">
        <ele>1118.8</ele>
        <time>2021-10-09T06:49:14Z</time>
      </trkpt>
      <trkpt lat="42.76453" lon="1.9662">
        <ele>1119.2</ele>
        <time>2021-10-09T06:49:20Z</time>
      </trkpt>
      <trkpt lat="42.7644" lon="1.96618">
        <ele>1119.8</ele>
        <time>2021-10-09T06:49:26Z</time>
      </trkpt>
      <trkpt lat="42.76427" lon="1.96619">
        <ele>1120.2</ele>
        <time>2021-10-09T06:49:33Z</time>
      </trkpt>
      <trkpt lat="42.76416" lon="1.96625">
        <ele>1120.2</ele>
        <time>2021-10-09T06:49:38Z</time>
      </trkpt>
      <trkpt lat="42.76404" lon="1.96642">
        <ele>1120.8</ele>
        <time>2021-10-09T06:49:44Z</time>
      </trkpt>
      <trkpt lat="42.764" lon="1.96656">
        <ele>1121.6</ele>
        <time>2021-10-09T06:49:49Z</time>
      </trkpt>
      <trkpt lat="42.76395" lon="1.96667">
        <ele>1122.2</ele>
        <time>2021-10-09T06:49:54Z</time>
      </trkpt>
      <trkpt lat="42.76386" lon="1.9668">
        <ele>1123.6</ele>
        <time>2021-10-09T06:50:00Z</time>
      </trkpt>
      <trkpt lat="42.76374" lon="1.9669">
        <ele>1124.8</ele>
        <time>2021-10-09T06:50:06Z</time>
      </trkpt>
      <trkpt lat="42.76359" lon="1.967">
        <ele>1126.2</ele>
        <time>2021-10-09T06:50:12Z</time>
      </trkpt>
      <trkpt lat="42.76349" lon="1.96722">
        <ele>1128.6</ele>
        <time>2021-10-09T06:50:19Z</time>
      </trkpt>
      <trkpt lat="42.76343" lon="1.9674">
        <ele>1132</ele>
        <time>2021-10-09T06:50:26Z</time>
      </trkpt>
      <trkpt lat="42.7634" lon="1.96757">
        <ele>1134.6</ele>
        <time>2021-10-09T06:50:32Z</time>
      </trkpt>
      <trkpt lat="42.76337" lon="1.96776">
        <ele>1137</ele>
        <time>2021-10-09T06:50:38Z</time>
      </trkpt>
      <trkpt lat="42.76333" lon="1.96794">
        <ele>1139.8</ele>
        <time>2021-10-09T06:50:44Z</time>
      </trkpt>
      <trkpt lat="42.76329" lon="1.96804">
        <ele>1141</ele>
        <time>2021-10-09T06:50:47Z</time>
      </trkpt>
      <trkpt lat="42.76327" lon="1.9681">
        <ele>1141.8</ele>
        <time>2021-10-09T06:50:49Z</time>
      </trkpt>
      <trkpt lat="42.76322" lon="1.96823">
        <ele>1143.8</ele>
        <time>2021-10-09T06:50:54Z</time>
      </trkpt>
      <trkpt lat="42.7632" lon="1.96828">
        <ele>1144.6</ele>
        <time>2021-10-09T06:50:56Z</time>
      </trkpt>
      <trkpt lat="42.76317" lon="1.96834">
        <ele>1145.4</ele>
        <time>2021-10-09T06:50:58Z</time>
      </trkpt>
      <trkpt lat="42.76311" lon="1.96849">
        <ele>1147.2</ele>
        <time>2021-10-09T06:51:03Z</time>
      </trkpt>
      <trkpt lat="42.76306" lon="1.96866">
        <ele>1148.8</ele>
        <time>2021-10-09T06:51:08Z</time>
      </trkpt>
      <trkpt lat="42.76305" lon="1.9687">
        <ele>1149.2</ele>
        <time>2021-10-09T06:51:09Z</time>
      </trkpt>
      <trkpt lat="42.76303" lon="1.96877">
        <ele>1149.8</ele>
        <time>2021-10-09T06:51:11Z</time>
      </trkpt>
      <trkpt lat="42.763" lon="1.96882">
        <ele>1150.6</ele>
        <time>2021-10-09T06:51:13Z</time>
      </trkpt>
      <trkpt lat="42.76299" lon="1.96884">
        <ele>1150.8</ele>
        <time>2021-10-09T06:51:14Z</time>
      </trkpt>
      <trkpt lat="42.76294" lon="1.96884">
        <ele>1151.4</ele>
        <time>2021-10-09T06:51:16Z</time>
      </trkpt>
      <trkpt lat="42.76292" lon="1.96883">
        <ele>1151.8</ele>
        <time>2021-10-09T06:51:17Z</time>
      </trkpt>
      <trkpt lat="42.76282" lon="1.96877">
        <ele>1152.4</ele>
        <time>2021-10-09T06:51:19Z</time>
      </trkpt>
      <trkpt lat="42.76282" lon="1.96876">
        <ele>1153</ele>
        <time>2021-10-09T06:51:21Z</time>
      </trkpt>
      <trkpt lat="42.76282" lon="1.96849">
        <ele>1155</ele>
        <time>2021-10-09T06:51:27Z</time>
      </trkpt>
      <trkpt lat="42.76284" lon="1.96831">
        <ele>1156.6</ele>
        <time>2021-10-09T06:51:32Z</time>
      </trkpt>
      <trkpt lat="42.76285" lon="1.96828">
        <ele>1157</ele>
        <time>2021-10-09T06:51:33Z</time>
      </trkpt>
      <trkpt lat="42.76287" lon="1.96817">
        <ele>1157.6</ele>
        <time>2021-10-09T06:51:36Z</time>
      </trkpt>
      <trkpt lat="42.76288" lon="1.96814">
        <ele>1158</ele>
        <time>2021-10-09T06:51:37Z</time>
      </trkpt>
      <trkpt lat="42.7629" lon="1.96804">
        <ele>1158.6</ele>
        <time>2021-10-09T06:51:40Z</time>
      </trkpt>
      <trkpt lat="42.76291" lon="1.96801">
        <ele>1159</ele>
        <time>2021-10-09T06:51:42Z</time>
      </trkpt>
      <trkpt lat="42.76291" lon="1.968">
        <ele>1159.4</ele>
        <time>2021-10-09T06:51:43Z</time>
      </trkpt>
      <trkpt lat="42.76291" lon="1.96797">
        <ele>1159.6</ele>
        <time>2021-10-09T06:51:44Z</time>
      </trkpt>
      <trkpt lat="42.76292" lon="1.96787">
        <ele>1160</ele>
        <time>2021-10-09T06:51:46Z</time>
      </trkpt>
      <trkpt lat="42.76291" lon="1.96775">
        <ele>1161.2</ele>
        <time>2021-10-09T06:51:50Z</time>
      </trkpt>
      <trkpt lat="42.7629" lon="1.96772">
        <ele>1161.4</ele>
        <time>2021-10-09T06:51:51Z</time>
      </trkpt>
      <trkpt lat="42.7629" lon="1.9677">
        <ele>1162.6</ele>
        <time>2021-10-09T06:51:55Z</time>
      </trkpt>
      <trkpt lat="42.76288" lon="1.96763">
        <ele>1167</ele>
        <time>2021-10-09T06:52:17Z</time>
      </trkpt>
      <trkpt lat="42.76286" lon="1.96759">
        <ele>1167.2</ele>
        <time>2021-10-09T06:52:19Z</time>
      </trkpt>
      <trkpt lat="42.76274" lon="1.9674">
        <ele>1168.8</ele>
        <time>2021-10-09T06:52:27Z</time>
      </trkpt>
      <trkpt lat="42.76265" lon="1.96726">
        <ele>1169.6</ele>
        <time>2021-10-09T06:52:33Z</time>
      </trkpt>
      <trkpt lat="42.76258" lon="1.96714">
        <ele>1170.4</ele>
        <time>2021-10-09T06:52:39Z</time>
      </trkpt>
      <trkpt lat="42.76251" lon="1.96697">
        <ele>1171.4</ele>
        <time>2021-10-09T06:52:46Z</time>
      </trkpt>
      <trkpt lat="42.76242" lon="1.96679">
        <ele>1172</ele>
        <time>2021-10-09T06:52:52Z</time>
      </trkpt>
      <trkpt lat="42.76228" lon="1.96655">
        <ele>1173.2</ele>
        <time>2021-10-09T06:53:01Z</time>
      </trkpt>
      <trkpt lat="42.76219" lon="1.96642">
        <ele>1174</ele>
        <time>2021-10-09T06:53:07Z</time>
      </trkpt>
      <trkpt lat="42.76199" lon="1.96627">
        <ele>1175.2</ele>
        <time>2021-10-09T06:53:17Z</time>
      </trkpt>
      <trkpt lat="42.76179" lon="1.96614">
        <ele>1176</ele>
        <time>2021-10-09T06:53:27Z</time>
      </trkpt>
      <trkpt lat="42.76164" lon="1.96599">
        <ele>1176.8</ele>
        <time>2021-10-09T06:53:35Z</time>
      </trkpt>
      <trkpt lat="42.76151" lon="1.96583">
        <ele>1177.2</ele>
        <time>2021-10-09T06:53:43Z</time>
      </trkpt>
      <trkpt lat="42.76138" lon="1.96571">
        <ele>1177.6</ele>
        <time>2021-10-09T06:53:50Z</time>
      </trkpt>
      <trkpt lat="42.76123" lon="1.96557">
        <ele>1178.4</ele>
        <time>2021-10-09T06:53:58Z</time>
      </trkpt>
      <trkpt lat="42.76106" lon="1.96542">
        <ele>1179</ele>
        <time>2021-10-09T06:54:07Z</time>
      </trkpt>
      <trkpt lat="42.76089" lon="1.96526">
        <ele>1180</ele>
        <time>2021-10-09T06:54:16Z</time>
      </trkpt>
      <trkpt lat="42.76075" lon="1.9651">
        <ele>1180.8</ele>
        <time>2021-10-09T06:54:24Z</time>
      </trkpt>
      <trkpt lat="42.76057" lon="1.96488">
        <ele>1182.8</ele>
        <time>2021-10-09T06:54:33Z</time>
      </trkpt>
      <trkpt lat="42.76037" lon="1.96469">
        <ele>1185</ele>
        <time>2021-10-09T06:54:43Z</time>
      </trkpt>
      <trkpt lat="42.76027" lon="1.96457">
        <ele>1186</ele>
        <time>2021-10-09T06:54:49Z</time>
      </trkpt>
      <trkpt lat="42.76018" lon="1.96441">
        <ele>1187</ele>
        <time>2021-10-09T06:54:56Z</time>
      </trkpt>
      <trkpt lat="42.76011" lon="1.9643">
        <ele>1187.8</ele>
        <time>2021-10-09T06:55:01Z</time>
      </trkpt>
      <trkpt lat="42.76004" lon="1.96422">
        <ele>1188.6</ele>
        <time>2021-10-09T06:55:07Z</time>
      </trkpt>
      <trkpt lat="42.75999" lon="1.96419">
        <ele>1188.8</ele>
        <time>2021-10-09T06:55:09Z</time>
      </trkpt>
      <trkpt lat="42.75991" lon="1.96414">
        <ele>1189.4</ele>
        <time>2021-10-09T06:55:13Z</time>
      </trkpt>
      <trkpt lat="42.75971" lon="1.96398">
        <ele>1190.8</ele>
        <time>2021-10-09T06:55:22Z</time>
      </trkpt>
      <trkpt lat="42.75961" lon="1.9639">
        <ele>1191.4</ele>
        <time>2021-10-09T06:55:27Z</time>
      </trkpt>
      <trkpt lat="42.75949" lon="1.9638">
        <ele>1192</ele>
        <time>2021-10-09T06:55:33Z</time>
      </trkpt>
      <trkpt lat="42.75938" lon="1.96366">
        <ele>1192.6</ele>
        <time>2021-10-09T06:55:40Z</time>
      </trkpt>
      <trkpt lat="42.75931" lon="1.96357">
        <ele>1193</ele>
        <time>2021-10-09T06:55:45Z</time>
      </trkpt>
      <trkpt lat="42.75926" lon="1.96351">
        <ele>1193.8</ele>
        <time>2021-10-09T06:55:48Z</time>
      </trkpt>
      <trkpt lat="42.75924" lon="1.96347">
        <ele>1194</ele>
        <time>2021-10-09T06:55:49Z</time>
      </trkpt>
      <trkpt lat="42.75918" lon="1.96331">
        <ele>1194.6</ele>
        <time>2021-10-09T06:55:55Z</time>
      </trkpt>
      <trkpt lat="42.75912" lon="1.96311">
        <ele>1195.2</ele>
        <time>2021-10-09T06:56:01Z</time>
      </trkpt>
      <trkpt lat="42.75905" lon="1.96292">
        <ele>1196.4</ele>
        <time>2021-10-09T06:56:08Z</time>
      </trkpt>
      <trkpt lat="42.75896" lon="1.96277">
        <ele>1197.2</ele>
        <time>2021-10-09T06:56:14Z</time>
      </trkpt>
      <trkpt lat="42.75885" lon="1.96268">
        <ele>1198</ele>
        <time>2021-10-09T06:56:20Z</time>
      </trkpt>
      <trkpt lat="42.75873" lon="1.9626">
        <ele>1198.6</ele>
        <time>2021-10-09T06:56:25Z</time>
      </trkpt>
      <trkpt lat="42.75859" lon="1.96248">
        <ele>1199.4</ele>
        <time>2021-10-09T06:56:32Z</time>
      </trkpt>
      <trkpt lat="42.75848" lon="1.96232">
        <ele>1200.4</ele>
        <time>2021-10-09T06:56:39Z</time>
      </trkpt>
      <trkpt lat="42.75831" lon="1.96213">
        <ele>1202</ele>
        <time>2021-10-09T06:56:48Z</time>
      </trkpt>
      <trkpt lat="42.75819" lon="1.962">
        <ele>1203.4</ele>
        <time>2021-10-09T06:56:55Z</time>
      </trkpt>
      <trkpt lat="42.75807" lon="1.96191">
        <ele>1204.6</ele>
        <time>2021-10-09T06:57:01Z</time>
      </trkpt>
      <trkpt lat="42.75796" lon="1.96182">
        <ele>1206</ele>
        <time>2021-10-09T06:57:06Z</time>
      </trkpt>
      <trkpt lat="42.75781" lon="1.9617">
        <ele>1208</ele>
        <time>2021-10-09T06:57:13Z</time>
      </trkpt>
      <trkpt lat="42.7576" lon="1.96148">
        <ele>1212</ele>
        <time>2021-10-09T06:57:22Z</time>
      </trkpt>
      <trkpt lat="42.75748" lon="1.96136">
        <ele>1214.6</ele>
        <time>2021-10-09T06:57:28Z</time>
      </trkpt>
      <trkpt lat="42.75745" lon="1.96133">
        <ele>1215.4</ele>
        <time>2021-10-09T06:57:30Z</time>
      </trkpt>
      <trkpt lat="42.75738" lon="1.96129">
        <ele>1216.6</ele>
        <time>2021-10-09T06:57:33Z</time>
      </trkpt>
      <trkpt lat="42.75735" lon="1.96127">
        <ele>1217</ele>
        <time>2021-10-09T06:57:34Z</time>
      </trkpt>
      <trkpt lat="42.7573" lon="1.96124">
        <ele>1218</ele>
        <time>2021-10-09T06:57:37Z</time>
      </trkpt>
      <trkpt lat="42.75716" lon="1.96116">
        <ele>1220.4</ele>
        <time>2021-10-09T06:57:43Z</time>
      </trkpt>
      <trkpt lat="42.75702" lon="1.961">
        <ele>1222.8</ele>
        <time>2021-10-09T06:57:51Z</time>
      </trkpt>
      <trkpt lat="42.7569" lon="1.96082">
        <ele>1225.4</ele>
        <time>2021-10-09T06:57:58Z</time>
      </trkpt>
      <trkpt lat="42.75676" lon="1.96067">
        <ele>1228.2</ele>
        <time>2021-10-09T06:58:05Z</time>
      </trkpt>
      <trkpt lat="42.75667" lon="1.96059">
        <ele>1230.4</ele>
        <time>2021-10-09T06:58:10Z</time>
      </trkpt>
      <trkpt lat="42.75667" lon="1.96059">
        <ele>1231.2</ele>
        <time>2021-10-09T06:58:12Z</time>
      </trkpt>
      <trkpt lat="42.75662" lon="1.96055">
        <ele>1232.2</ele>
        <time>2021-10-09T06:58:15Z</time>
      </trkpt>
      <trkpt lat="42.7566" lon="1.96054">
        <ele>1232.4</ele>
        <time>2021-10-09T06:58:16Z</time>
      </trkpt>
      <trkpt lat="42.75647" lon="1.96046">
        <ele>1234</ele>
        <time>2021-10-09T06:58:22Z</time>
      </trkpt>
      <trkpt lat="42.7564" lon="1.96043">
        <ele>1235.4</ele>
        <time>2021-10-09T06:58:27Z</time>
      </trkpt>
      <trkpt lat="42.7564" lon="1.96043">
        <ele>1235.6</ele>
        <time>2021-10-09T06:58:28Z</time>
      </trkpt>
      <trkpt lat="42.75636" lon="1.96041">
        <ele>1236.2</ele>
        <time>2021-10-09T06:58:30Z</time>
      </trkpt>
      <trkpt lat="42.75631" lon="1.96039">
        <ele>1236.6</ele>
        <time>2021-10-09T06:58:32Z</time>
      </trkpt>
      <trkpt lat="42.75613" lon="1.96031">
        <ele>1238.2</ele>
        <time>2021-10-09T06:58:39Z</time>
      </trkpt>
      <trkpt lat="42.75599" lon="1.96017">
        <ele>1239.4</ele>
        <time>2021-10-09T06:58:45Z</time>
      </trkpt>
      <trkpt lat="42.75588" lon="1.96006">
        <ele>1240.4</ele>
        <time>2021-10-09T06:58:50Z</time>
      </trkpt>
      <trkpt lat="42.75577" lon="1.95997">
        <ele>1241.4</ele>
        <time>2021-10-09T06:58:55Z</time>
      </trkpt>
      <trkpt lat="42.75568" lon="1.9599">
        <ele>1242</ele>
        <time>2021-10-09T06:59:00Z</time>
      </trkpt>
      <trkpt lat="42.75556" lon="1.95981">
        <ele>1243</ele>
        <time>2021-10-09T06:59:06Z</time>
      </trkpt>
      <trkpt lat="42.75543" lon="1.95966">
        <ele>1244</ele>
        <time>2021-10-09T06:59:13Z</time>
      </trkpt>
      <trkpt lat="42.75529" lon="1.95951">
        <ele>1246.2</ele>
        <time>2021-10-09T06:59:19Z</time>
      </trkpt>
      <trkpt lat="42.75515" lon="1.9594">
        <ele>1247.8</ele>
        <time>2021-10-09T06:59:26Z</time>
      </trkpt>
      <trkpt lat="42.75509" lon="1.95937">
        <ele>1248.4</ele>
        <time>2021-10-09T06:59:30Z</time>
      </trkpt>
      <trkpt lat="42.75502" lon="1.95933">
        <ele>1248.8</ele>
        <time>2021-10-09T06:59:34Z</time>
      </trkpt>
      <trkpt lat="42.75493" lon="1.95928">
        <ele>1249.6</ele>
        <time>2021-10-09T06:59:39Z</time>
      </trkpt>
      <trkpt lat="42.75484" lon="1.95923">
        <ele>1250.4</ele>
        <time>2021-10-09T06:59:44Z</time>
      </trkpt>
      <trkpt lat="42.7547" lon="1.95909">
        <ele>1251.4</ele>
        <time>2021-10-09T06:59:51Z</time>
      </trkpt>
      <trkpt lat="42.75457" lon="1.95896">
        <ele>1252.2</ele>
        <time>2021-10-09T06:59:58Z</time>
      </trkpt>
      <trkpt lat="42.75446" lon="1.95885">
        <ele>1252.6</ele>
        <time>2021-10-09T07:00:04Z</time>
      </trkpt>
      <trkpt lat="42.75435" lon="1.95876">
        <ele>1253.4</ele>
        <time>2021-10-09T07:00:10Z</time>
      </trkpt>
      <trkpt lat="42.7542" lon="1.9587">
        <ele>1253.6</ele>
        <time>2021-10-09T07:00:17Z</time>
      </trkpt>
      <trkpt lat="42.75404" lon="1.95863">
        <ele>1254.4</ele>
        <time>2021-10-09T07:00:24Z</time>
      </trkpt>
      <trkpt lat="42.75392" lon="1.95859">
        <ele>1254.4</ele>
        <time>2021-10-09T07:00:30Z</time>
      </trkpt>
      <trkpt lat="42.75384" lon="1.95855">
        <ele>1254.8</ele>
        <time>2021-10-09T07:00:35Z</time>
      </trkpt>
      <trkpt lat="42.75378" lon="1.95851">
        <ele>1255</ele>
        <time>2021-10-09T07:00:39Z</time>
      </trkpt>
      <trkpt lat="42.75377" lon="1.95851">
        <ele>1255</ele>
        <time>2021-10-09T07:00:40Z</time>
      </trkpt>
      <trkpt lat="42.75371" lon="1.95845">
        <ele>1255</ele>
        <time>2021-10-09T07:00:44Z</time>
      </trkpt>
      <trkpt lat="42.75369" lon="1.95841">
        <ele>1255</ele>
        <time>2021-10-09T07:00:46Z</time>
      </trkpt>
      <trkpt lat="42.75367" lon="1.95838">
        <ele>1255</ele>
        <time>2021-10-09T07:00:48Z</time>
      </trkpt>
      <trkpt lat="42.75366" lon="1.95835">
        <ele>1255</ele>
        <time>2021-10-09T07:00:49Z</time>
      </trkpt>
      <trkpt lat="42.75362" lon="1.95826">
        <ele>1254.8</ele>
        <time>2021-10-09T07:00:53Z</time>
      </trkpt>
      <trkpt lat="42.75355" lon="1.95809">
        <ele>1255</ele>
        <time>2021-10-09T07:00:58Z</time>
      </trkpt>
      <trkpt lat="42.75352" lon="1.95801">
        <ele>1255.4</ele>
        <time>2021-10-09T07:01:00Z</time>
      </trkpt>
      <trkpt lat="42.75348" lon="1.95792">
        <ele>1255.6</ele>
        <time>2021-10-09T07:01:03Z</time>
      </trkpt>
      <trkpt lat="42.75342" lon="1.95773">
        <ele>1256</ele>
        <time>2021-10-09T07:01:09Z</time>
      </trkpt>
      <trkpt lat="42.75326" lon="1.95796">
        <ele>1256</ele>
        <time>2021-10-09T07:01:14Z</time>
      </trkpt>
      <trkpt lat="42.75315" lon="1.95805">
        <ele>1256.2</ele>
        <time>2021-10-09T07:01:20Z</time>
      </trkpt>
      <trkpt lat="42.75309" lon="1.95808">
        <ele>1256.2</ele>
        <time>2021-10-09T07:01:23Z</time>
      </trkpt>
      <trkpt lat="42.75306" lon="1.95798">
        <ele>1259.6</ele>
        <time>2021-10-09T07:01:26Z</time>
      </trkpt>
      <trkpt lat="42.75292" lon="1.95789">
        <ele>1262</ele>
        <time>2021-10-09T07:01:31Z</time>
      </trkpt>
      <trkpt lat="42.75278" lon="1.95806">
        <ele>1264.4</ele>
        <time>2021-10-09T07:01:39Z</time>
      </trkpt>
      <trkpt lat="42.75272" lon="1.95815">
        <ele>1265.6</ele>
        <time>2021-10-09T07:01:44Z</time>
      </trkpt>
      <trkpt lat="42.75261" lon="1.95831">
        <ele>1268</ele>
        <time>2021-10-09T07:01:51Z</time>
      </trkpt>
      <trkpt lat="42.75237" lon="1.95844">
        <ele>1271</ele>
        <time>2021-10-09T07:02:00Z</time>
      </trkpt>
      <trkpt lat="42.75221" lon="1.95849">
        <ele>1272.8</ele>
        <time>2021-10-09T07:02:07Z</time>
      </trkpt>
      <trkpt lat="42.7521" lon="1.95852">
        <ele>1273.8</ele>
        <time>2021-10-09T07:02:12Z</time>
      </trkpt>
      <trkpt lat="42.752" lon="1.95855">
        <ele>1275</ele>
        <time>2021-10-09T07:02:17Z</time>
      </trkpt>
      <trkpt lat="42.75181" lon="1.9586">
        <ele>1277</ele>
        <time>2021-10-09T07:02:26Z</time>
      </trkpt>
      <trkpt lat="42.75171" lon="1.95862">
        <ele>1277.8</ele>
        <time>2021-10-09T07:02:31Z</time>
      </trkpt>
      <trkpt lat="42.75157" lon="1.95865">
        <ele>1278.8</ele>
        <time>2021-10-09T07:02:38Z</time>
      </trkpt>
      <trkpt lat="42.75148" lon="1.95866">
        <ele>1279.6</ele>
        <time>2021-10-09T07:02:43Z</time>
      </trkpt>
      <trkpt lat="42.75145" lon="1.95867">
        <ele>1279.8</ele>
        <time>2021-10-09T07:02:45Z</time>
      </trkpt>
      <trkpt lat="42.75149" lon="1.95889">
        <ele>1280.2</ele>
        <time>2021-10-09T07:02:47Z</time>
      </trkpt>
      <trkpt lat="42.75138" lon="1.95885">
        <ele>1280.8</ele>
        <time>2021-10-09T07:02:52Z</time>
      </trkpt>
      <trkpt lat="42.75123" lon="1.95867">
        <ele>1282.6</ele>
        <time>2021-10-09T07:03:00Z</time>
      </trkpt>
      <trkpt lat="42.75116" lon="1.95864">
        <ele>1283.6</ele>
        <time>2021-10-09T07:03:05Z</time>
      </trkpt>
      <trkpt lat="42.75115" lon="1.95864">
        <ele>1284</ele>
        <time>2021-10-09T07:03:06Z</time>
      </trkpt>
      <trkpt lat="42.75108" lon="1.95876">
        <ele>1284.8</ele>
        <time>2021-10-09T07:03:10Z</time>
      </trkpt>
      <trkpt lat="42.75098" lon="1.95884">
        <ele>1286.4</ele>
        <time>2021-10-09T07:03:15Z</time>
      </trkpt>
      <trkpt lat="42.75071" lon="1.95862">
        <ele>1287.6</ele>
        <time>2021-10-09T07:03:18Z</time>
      </trkpt>
      <trkpt lat="42.75059" lon="1.95869">
        <ele>1288.6</ele>
        <time>2021-10-09T07:03:22Z</time>
      </trkpt>
      <trkpt lat="42.75057" lon="1.95871">
        <ele>1289</ele>
        <time>2021-10-09T07:03:23Z</time>
      </trkpt>
      <trkpt lat="42.75053" lon="1.95874">
        <ele>1290.4</ele>
        <time>2021-10-09T07:03:29Z</time>
      </trkpt>
      <trkpt lat="42.75053" lon="1.95874">
        <ele>1290.8</ele>
        <time>2021-10-09T07:03:31Z</time>
      </trkpt>
      <trkpt lat="42.75053" lon="1.95874">
        <ele>1291</ele>
        <time>2021-10-09T07:03:32Z</time>
      </trkpt>
      <trkpt lat="42.75068" lon="1.95905">
        <ele>1292.4</ele>
        <time>2021-10-09T07:03:35Z</time>
      </trkpt>
      <trkpt lat="42.75073" lon="1.95904">
        <ele>1292.8</ele>
        <time>2021-10-09T07:03:36Z</time>
      </trkpt>
      <trkpt lat="42.75088" lon="1.95899">
        <ele>1294.6</ele>
        <time>2021-10-09T07:03:42Z</time>
      </trkpt>
      <trkpt lat="42.75109" lon="1.95896">
        <ele>1296.2</ele>
        <time>2021-10-09T07:03:49Z</time>
      </trkpt>
      <trkpt lat="42.75115" lon="1.95897">
        <ele>1296.8</ele>
        <time>2021-10-09T07:03:51Z</time>
      </trkpt>
      <trkpt lat="42.75122" lon="1.95898">
        <ele>1297.2</ele>
        <time>2021-10-09T07:03:54Z</time>
      </trkpt>
      <trkpt lat="42.75127" lon="1.95899">
        <ele>1297.8</ele>
        <time>2021-10-09T07:03:57Z</time>
      </trkpt>
      <trkpt lat="42.7513" lon="1.959">
        <ele>1298</ele>
        <time>2021-10-09T07:03:58Z</time>
      </trkpt>
      <trkpt lat="42.7513" lon="1.95918">
        <ele>1298.2</ele>
        <time>2021-10-09T07:04:01Z</time>
      </trkpt>
      <trkpt lat="42.75135" lon="1.95919">
        <ele>1298.4</ele>
        <time>2021-10-09T07:04:03Z</time>
      </trkpt>
      <trkpt lat="42.75142" lon="1.95926">
        <ele>1299</ele>
        <time>2021-10-09T07:04:06Z</time>
      </trkpt>
      <trkpt lat="42.75148" lon="1.95926">
        <ele>1299.4</ele>
        <time>2021-10-09T07:04:08Z</time>
      </trkpt>
      <trkpt lat="42.75155" lon="1.95926">
        <ele>1299.6</ele>
        <time>2021-10-09T07:04:10Z</time>
      </trkpt>
      <trkpt lat="42.75161" lon="1.95903">
        <ele>1300</ele>
        <time>2021-10-09T07:04:12Z</time>
      </trkpt>
      <trkpt lat="42.75165" lon="1.95904">
        <ele>1300.2</ele>
        <time>2021-10-09T07:04:14Z</time>
      </trkpt>
      <trkpt lat="42.75168" lon="1.95904">
        <ele>1300.4</ele>
        <time>2021-10-09T07:04:15Z</time>
      </trkpt>
      <trkpt lat="42.75188" lon="1.95905">
        <ele>1301.2</ele>
        <time>2021-10-09T07:04:22Z</time>
      </trkpt>
      <trkpt lat="42.75201" lon="1.95903">
        <ele>1301.6</ele>
        <time>2021-10-09T07:04:26Z</time>
      </trkpt>
      <trkpt lat="42.75212" lon="1.95901">
        <ele>1302</ele>
        <time>2021-10-09T07:04:30Z</time>
      </trkpt>
      <trkpt lat="42.75229" lon="1.95899">
        <ele>1302.6</ele>
        <time>2021-10-09T07:04:36Z</time>
      </trkpt>
      <trkpt lat="42.7524" lon="1.959">
        <ele>1303</ele>
        <time>2021-10-09T07:04:40Z</time>
      </trkpt>
      <trkpt lat="42.75257" lon="1.95901">
        <ele>1303.6</ele>
        <time>2021-10-09T07:04:46Z</time>
      </trkpt>
      <trkpt lat="42.75268" lon="1.959">
        <ele>1303.8</ele>
        <time>2021-10-09T07:04:50Z</time>
      </trkpt>
      <trkpt lat="42.75271" lon="1.959">
        <ele>1304</ele>
        <time>2021-10-09T07:04:51Z</time>
      </trkpt>
      <trkpt lat="42.75275" lon="1.959">
        <ele>1304</ele>
        <time>2021-10-09T07:04:53Z</time>
      </trkpt>
      <trkpt lat="42.7528" lon="1.95899">
        <ele>1304.2</ele>
        <time>2021-10-09T07:04:55Z</time>
      </trkpt>
      <trkpt lat="42.75295" lon="1.95897">
        <ele>1304.2</ele>
        <time>2021-10-09T07:05:00Z</time>
      </trkpt>
      <trkpt lat="42.75308" lon="1.959">
        <ele>1304.6</ele>
        <time>2021-10-09T07:05:05Z</time>
      </trkpt>
      <trkpt lat="42.75312" lon="1.95918">
        <ele>1304.8</ele>
        <time>2021-10-09T07:05:08Z</time>
      </trkpt>
      <trkpt lat="42.7531" lon="1.95916">
        <ele>1304.8</ele>
        <time>2021-10-09T07:05:09Z</time>
      </trkpt>
      <trkpt lat="42.7531" lon="1.95916">
        <ele>1304.8</ele>
        <time>2021-10-09T07:05:10Z</time>
      </trkpt>
      <trkpt lat="42.75305" lon="1.95921">
        <ele>1305</ele>
        <time>2021-10-09T07:05:13Z</time>
      </trkpt>
      <trkpt lat="42.75294" lon="1.95922">
        <ele>1305.4</ele>
        <time>2021-10-09T07:05:18Z</time>
      </trkpt>
      <trkpt lat="42.75282" lon="1.95919">
        <ele>1305.4</ele>
        <time>2021-10-09T07:05:23Z</time>
      </trkpt>
      <trkpt lat="42.75265" lon="1.95917">
        <ele>1305.4</ele>
        <time>2021-10-09T07:05:29Z</time>
      </trkpt>
      <trkpt lat="42.75253" lon="1.95918">
        <ele>1305.6</ele>
        <time>2021-10-09T07:05:34Z</time>
      </trkpt>
      <trkpt lat="42.75243" lon="1.95919">
        <ele>1305.6</ele>
        <time>2021-10-09T07:05:38Z</time>
      </trkpt>
      <trkpt lat="42.75232" lon="1.95923">
        <ele>1305.8</ele>
        <time>2021-10-09T07:05:43Z</time>
      </trkpt>
      <trkpt lat="42.75219" lon="1.95928">
        <ele>1306</ele>
        <time>2021-10-09T07:05:49Z</time>
      </trkpt>
      <trkpt lat="42.75205" lon="1.95933">
        <ele>1306</ele>
        <time>2021-10-09T07:05:55Z</time>
      </trkpt>
      <trkpt lat="42.75192" lon="1.95937">
        <ele>1306</ele>
        <time>2021-10-09T07:06:01Z</time>
      </trkpt>
      <trkpt lat="42.75179" lon="1.95942">
        <ele>1306</ele>
        <time>2021-10-09T07:06:07Z</time>
      </trkpt>
      <trkpt lat="42.75167" lon="1.95946">
        <ele>1306.2</ele>
        <time>2021-10-09T07:06:12Z</time>
      </trkpt>
      <trkpt lat="42.75156" lon="1.95952">
        <ele>1306.2</ele>
        <time>2021-10-09T07:06:17Z</time>
      </trkpt>
      <trkpt lat="42.75145" lon="1.95957">
        <ele>1306.2</ele>
        <time>2021-10-09T07:06:22Z</time>
      </trkpt>
      <trkpt lat="42.75129" lon="1.95961">
        <ele>1306</ele>
        <time>2021-10-09T07:06:29Z</time>
      </trkpt>
      <trkpt lat="42.75114" lon="1.95964">
        <ele>1307.4</ele>
        <time>2021-10-09T07:06:35Z</time>
      </trkpt>
      <trkpt lat="42.751" lon="1.95968">
        <ele>1307.6</ele>
        <time>2021-10-09T07:06:41Z</time>
      </trkpt>
      <trkpt lat="42.75095" lon="1.95972">
        <ele>1314.2</ele>
        <time>2021-10-09T07:06:47Z</time>
      </trkpt>
      <trkpt lat="42.75084" lon="1.95989">
        <ele>1317.4</ele>
        <time>2021-10-09T07:06:54Z</time>
      </trkpt>
      <trkpt lat="42.75074" lon="1.96003">
        <ele>1319.2</ele>
        <time>2021-10-09T07:06:58Z</time>
      </trkpt>
      <trkpt lat="42.75063" lon="1.96008">
        <ele>1320.8</ele>
        <time>2021-10-09T07:07:03Z</time>
      </trkpt>
      <trkpt lat="42.75056" lon="1.96009">
        <ele>1322.6</ele>
        <time>2021-10-09T07:07:08Z</time>
      </trkpt>
      <trkpt lat="42.75047" lon="1.9601">
        <ele>1323.2</ele>
        <time>2021-10-09T07:07:10Z</time>
      </trkpt>
      <trkpt lat="42.75037" lon="1.96012">
        <ele>1324.8</ele>
        <time>2021-10-09T07:07:13Z</time>
      </trkpt>
      <trkpt lat="42.75019" lon="1.96015">
        <ele>1327.2</ele>
        <time>2021-10-09T07:07:19Z</time>
      </trkpt>
      <trkpt lat="42.75006" lon="1.96007">
        <ele>1328.8</ele>
        <time>2021-10-09T07:07:24Z</time>
      </trkpt>
      <trkpt lat="42.74993" lon="1.96001">
        <ele>1330.6</ele>
        <time>2021-10-09T07:07:30Z</time>
      </trkpt>
      <trkpt lat="42.74977" lon="1.95999">
        <ele>1332.8</ele>
        <time>2021-10-09T07:07:37Z</time>
      </trkpt>
      <trkpt lat="42.74967" lon="1.96">
        <ele>1334</ele>
        <time>2021-10-09T07:07:42Z</time>
      </trkpt>
      <trkpt lat="42.74952" lon="1.96003">
        <ele>1335.8</ele>
        <time>2021-10-09T07:07:48Z</time>
      </trkpt>
      <trkpt lat="42.74934" lon="1.96005">
        <ele>1337.4</ele>
        <time>2021-10-09T07:07:56Z</time>
      </trkpt>
      <trkpt lat="42.74919" lon="1.96008">
        <ele>1339.4</ele>
        <time>2021-10-09T07:08:03Z</time>
      </trkpt>
      <trkpt lat="42.74916" lon="1.96009">
        <ele>1339.8</ele>
        <time>2021-10-09T07:08:05Z</time>
      </trkpt>
      <trkpt lat="42.74907" lon="1.96014">
        <ele>1340.8</ele>
        <time>2021-10-09T07:08:09Z</time>
      </trkpt>
      <trkpt lat="42.74887" lon="1.9602">
        <ele>1343</ele>
        <time>2021-10-09T07:08:16Z</time>
      </trkpt>
      <trkpt lat="42.74873" lon="1.96021">
        <ele>1344.4</ele>
        <time>2021-10-09T07:08:22Z</time>
      </trkpt>
      <trkpt lat="42.74857" lon="1.96022">
        <ele>1346</ele>
        <time>2021-10-09T07:08:28Z</time>
      </trkpt>
      <trkpt lat="42.74837" lon="1.96022">
        <ele>1347.6</ele>
        <time>2021-10-09T07:08:36Z</time>
      </trkpt>
      <trkpt lat="42.74835" lon="1.96022">
        <ele>1347.8</ele>
        <time>2021-10-09T07:08:37Z</time>
      </trkpt>
      <trkpt lat="42.7483" lon="1.96022">
        <ele>1348.2</ele>
        <time>2021-10-09T07:08:39Z</time>
      </trkpt>
      <trkpt lat="42.74825" lon="1.96021">
        <ele>1348.8</ele>
        <time>2021-10-09T07:08:42Z</time>
      </trkpt>
      <trkpt lat="42.74822" lon="1.96021">
        <ele>1349</ele>
        <time>2021-10-09T07:08:43Z</time>
      </trkpt>
      <trkpt lat="42.74815" lon="1.96018">
        <ele>1349.8</ele>
        <time>2021-10-09T07:08:47Z</time>
      </trkpt>
      <trkpt lat="42.74801" lon="1.96011">
        <ele>1351.4</ele>
        <time>2021-10-09T07:08:53Z</time>
      </trkpt>
      <trkpt lat="42.74785" lon="1.96">
        <ele>1353.6</ele>
        <time>2021-10-09T07:08:59Z</time>
      </trkpt>
      <trkpt lat="42.7477" lon="1.95986">
        <ele>1355.6</ele>
        <time>2021-10-09T07:09:06Z</time>
      </trkpt>
      <trkpt lat="42.74755" lon="1.95977">
        <ele>1357.2</ele>
        <time>2021-10-09T07:09:13Z</time>
      </trkpt>
      <trkpt lat="42.74747" lon="1.95972">
        <ele>1358.4</ele>
        <time>2021-10-09T07:09:17Z</time>
      </trkpt>
      <trkpt lat="42.74745" lon="1.95971">
        <ele>1358.6</ele>
        <time>2021-10-09T07:09:18Z</time>
      </trkpt>
      <trkpt lat="42.74731" lon="1.95965">
        <ele>1360.4</ele>
        <time>2021-10-09T07:09:24Z</time>
      </trkpt>
      <trkpt lat="42.74719" lon="1.95958">
        <ele>1361.8</ele>
        <time>2021-10-09T07:09:30Z</time>
      </trkpt>
      <trkpt lat="42.74706" lon="1.95951">
        <ele>1363</ele>
        <time>2021-10-09T07:09:35Z</time>
      </trkpt>
      <trkpt lat="42.74692" lon="1.95943">
        <ele>1364.6</ele>
        <time>2021-10-09T07:09:41Z</time>
      </trkpt>
      <trkpt lat="42.74681" lon="1.95936">
        <ele>1366</ele>
        <time>2021-10-09T07:09:46Z</time>
      </trkpt>
      <trkpt lat="42.74666" lon="1.95927">
        <ele>1368</ele>
        <time>2021-10-09T07:09:53Z</time>
      </trkpt>
      <trkpt lat="42.74653" lon="1.9592">
        <ele>1369.4</ele>
        <time>2021-10-09T07:09:59Z</time>
      </trkpt>
      <trkpt lat="42.7464" lon="1.95914">
        <ele>1370.8</ele>
        <time>2021-10-09T07:10:04Z</time>
      </trkpt>
      <trkpt lat="42.74628" lon="1.95909">
        <ele>1372</ele>
        <time>2021-10-09T07:10:09Z</time>
      </trkpt>
      <trkpt lat="42.74619" lon="1.95905">
        <ele>1373.2</ele>
        <time>2021-10-09T07:10:14Z</time>
      </trkpt>
      <trkpt lat="42.74608" lon="1.95906">
        <ele>1374.2</ele>
        <time>2021-10-09T07:10:18Z</time>
      </trkpt>
      <trkpt lat="42.74596" lon="1.95908">
        <ele>1375.4</ele>
        <time>2021-10-09T07:10:23Z</time>
      </trkpt>
      <trkpt lat="42.74587" lon="1.95912">
        <ele>1376.2</ele>
        <time>2021-10-09T07:10:27Z</time>
      </trkpt>
      <trkpt lat="42.74584" lon="1.95913">
        <ele>1376.4</ele>
        <time>2021-10-09T07:10:28Z</time>
      </trkpt>
      <trkpt lat="42.74567" lon="1.95921">
        <ele>1378.4</ele>
        <time>2021-10-09T07:10:35Z</time>
      </trkpt>
      <trkpt lat="42.74551" lon="1.95927">
        <ele>1381.6</ele>
        <time>2021-10-09T07:10:42Z</time>
      </trkpt>
      <trkpt lat="42.7454" lon="1.95931">
        <ele>1383.4</ele>
        <time>2021-10-09T07:10:47Z</time>
      </trkpt>
      <trkpt lat="42.74522" lon="1.95938">
        <ele>1386.8</ele>
        <time>2021-10-09T07:10:55Z</time>
      </trkpt>
      <trkpt lat="42.74502" lon="1.95944">
        <ele>1390.4</ele>
        <time>2021-10-09T07:11:03Z</time>
      </trkpt>
      <trkpt lat="42.74487" lon="1.95948">
        <ele>1393.4</ele>
        <time>2021-10-09T07:11:10Z</time>
      </trkpt>
      <trkpt lat="42.74475" lon="1.9595">
        <ele>1395.4</ele>
        <time>2021-10-09T07:11:15Z</time>
      </trkpt>
      <trkpt lat="42.74472" lon="1.95949">
        <ele>1396.2</ele>
        <time>2021-10-09T07:11:17Z</time>
      </trkpt>
      <trkpt lat="42.74465" lon="1.95946">
        <ele>1397.6</ele>
        <time>2021-10-09T07:11:20Z</time>
      </trkpt>
      <trkpt lat="42.74453" lon="1.95932">
        <ele>1399.4</ele>
        <time>2021-10-09T07:11:25Z</time>
      </trkpt>
      <trkpt lat="42.74444" lon="1.95917">
        <ele>1401.2</ele>
        <time>2021-10-09T07:11:30Z</time>
      </trkpt>
      <trkpt lat="42.74435" lon="1.95899">
        <ele>1403.4</ele>
        <time>2021-10-09T07:11:37Z</time>
      </trkpt>
      <trkpt lat="42.74424" lon="1.9588">
        <ele>1406.6</ele>
        <time>2021-10-09T07:11:44Z</time>
      </trkpt>
      <trkpt lat="42.74418" lon="1.9587">
        <ele>1408.2</ele>
        <time>2021-10-09T07:11:48Z</time>
      </trkpt>
      <trkpt lat="42.74417" lon="1.95868">
        <ele>1408.6</ele>
        <time>2021-10-09T07:11:49Z</time>
      </trkpt>
      <trkpt lat="42.74413" lon="1.95853">
        <ele>1410.6</ele>
        <time>2021-10-09T07:11:55Z</time>
      </trkpt>
      <trkpt lat="42.74412" lon="1.95833">
        <ele>1412.8</ele>
        <time>2021-10-09T07:12:01Z</time>
      </trkpt>
      <trkpt lat="42.74411" lon="1.95811">
        <ele>1415.2</ele>
        <time>2021-10-09T07:12:07Z</time>
      </trkpt>
      <trkpt lat="42.74408" lon="1.95792">
        <ele>1417.4</ele>
        <time>2021-10-09T07:12:13Z</time>
      </trkpt>
      <trkpt lat="42.74401" lon="1.95778">
        <ele>1419.2</ele>
        <time>2021-10-09T07:12:18Z</time>
      </trkpt>
      <trkpt lat="42.74392" lon="1.95763">
        <ele>1421.4</ele>
        <time>2021-10-09T07:12:24Z</time>
      </trkpt>
      <trkpt lat="42.74382" lon="1.95747">
        <ele>1423.8</ele>
        <time>2021-10-09T07:12:31Z</time>
      </trkpt>
      <trkpt lat="42.74375" lon="1.95736">
        <ele>1425.2</ele>
        <time>2021-10-09T07:12:36Z</time>
      </trkpt>
      <trkpt lat="42.74366" lon="1.95726">
        <ele>1427</ele>
        <time>2021-10-09T07:12:42Z</time>
      </trkpt>
      <trkpt lat="42.74365" lon="1.95725">
        <ele>1427.4</ele>
        <time>2021-10-09T07:12:43Z</time>
      </trkpt>
      <trkpt lat="42.74359" lon="1.95719">
        <ele>1428.4</ele>
        <time>2021-10-09T07:12:47Z</time>
      </trkpt>
      <trkpt lat="42.7435" lon="1.95709">
        <ele>1430</ele>
        <time>2021-10-09T07:12:54Z</time>
      </trkpt>
      <trkpt lat="42.74339" lon="1.95698">
        <ele>1431.8</ele>
        <time>2021-10-09T07:13:01Z</time>
      </trkpt>
      <trkpt lat="42.74331" lon="1.95689">
        <ele>1433</ele>
        <time>2021-10-09T07:13:07Z</time>
      </trkpt>
      <trkpt lat="42.7433" lon="1.95687">
        <ele>1433.2</ele>
        <time>2021-10-09T07:13:08Z</time>
      </trkpt>
      <trkpt lat="42.74326" lon="1.95681">
        <ele>1434</ele>
        <time>2021-10-09T07:13:11Z</time>
      </trkpt>
      <trkpt lat="42.74321" lon="1.95659">
        <ele>1435.8</ele>
        <time>2021-10-09T07:13:18Z</time>
      </trkpt>
      <trkpt lat="42.74318" lon="1.95641">
        <ele>1437.2</ele>
        <time>2021-10-09T07:13:24Z</time>
      </trkpt>
      <trkpt lat="42.74316" lon="1.9563">
        <ele>1438.2</ele>
        <time>2021-10-09T07:13:28Z</time>
      </trkpt>
      <trkpt lat="42.74315" lon="1.95624">
        <ele>1438.4</ele>
        <time>2021-10-09T07:13:30Z</time>
      </trkpt>
      <trkpt lat="42.74311" lon="1.95603">
        <ele>1440</ele>
        <time>2021-10-09T07:13:37Z</time>
      </trkpt>
      <trkpt lat="42.7431" lon="1.95586">
        <ele>1441.4</ele>
        <time>2021-10-09T07:13:43Z</time>
      </trkpt>
      <trkpt lat="42.74308" lon="1.95562">
        <ele>1442.8</ele>
        <time>2021-10-09T07:13:50Z</time>
      </trkpt>
      <trkpt lat="42.74307" lon="1.95542">
        <ele>1444.2</ele>
        <time>2021-10-09T07:13:56Z</time>
      </trkpt>
      <trkpt lat="42.74306" lon="1.95531">
        <ele>1445</ele>
        <time>2021-10-09T07:13:59Z</time>
      </trkpt>
      <trkpt lat="42.74306" lon="1.95523">
        <ele>1445.4</ele>
        <time>2021-10-09T07:14:01Z</time>
      </trkpt>
      <trkpt lat="42.74316" lon="1.95508">
        <ele>1447</ele>
        <time>2021-10-09T07:14:07Z</time>
      </trkpt>
      <trkpt lat="42.7433" lon="1.95504">
        <ele>1448.2</ele>
        <time>2021-10-09T07:14:13Z</time>
      </trkpt>
      <trkpt lat="42.74342" lon="1.95508">
        <ele>1449.2</ele>
        <time>2021-10-09T07:14:18Z</time>
      </trkpt>
      <trkpt lat="42.74356" lon="1.9552">
        <ele>1450.8</ele>
        <time>2021-10-09T07:14:24Z</time>
      </trkpt>
      <trkpt lat="42.74358" lon="1.95521">
        <ele>1451</ele>
        <time>2021-10-09T07:14:25Z</time>
      </trkpt>
      <trkpt lat="42.7436" lon="1.95523">
        <ele>1451.4</ele>
        <time>2021-10-09T07:14:26Z</time>
      </trkpt>
      <trkpt lat="42.74364" lon="1.95526">
        <ele>1452</ele>
        <time>2021-10-09T07:14:28Z</time>
      </trkpt>
      <trkpt lat="42.74372" lon="1.95534">
        <ele>1453.2</ele>
        <time>2021-10-09T07:14:32Z</time>
      </trkpt>
      <trkpt lat="42.74384" lon="1.95544">
        <ele>1454.2</ele>
        <time>2021-10-09T07:14:37Z</time>
      </trkpt>
      <trkpt lat="42.74394" lon="1.95553">
        <ele>1456</ele>
        <time>2021-10-09T07:14:43Z</time>
      </trkpt>
      <trkpt lat="42.74404" lon="1.95562">
        <ele>1457.8</ele>
        <time>2021-10-09T07:14:48Z</time>
      </trkpt>
      <trkpt lat="42.74417" lon="1.95573">
        <ele>1460.2</ele>
        <time>2021-10-09T07:14:54Z</time>
      </trkpt>
      <trkpt lat="42.74428" lon="1.95582">
        <ele>1462.4</ele>
        <time>2021-10-09T07:14:59Z</time>
      </trkpt>
      <trkpt lat="42.74439" lon="1.95591">
        <ele>1464.4</ele>
        <time>2021-10-09T07:15:04Z</time>
      </trkpt>
      <trkpt lat="42.7445" lon="1.956">
        <ele>1466.4</ele>
        <time>2021-10-09T07:15:09Z</time>
      </trkpt>
      <trkpt lat="42.74459" lon="1.95608">
        <ele>1468.4</ele>
        <time>2021-10-09T07:15:14Z</time>
      </trkpt>
      <trkpt lat="42.74469" lon="1.95616">
        <ele>1469.8</ele>
        <time>2021-10-09T07:15:18Z</time>
      </trkpt>
      <trkpt lat="42.74474" lon="1.95621">
        <ele>1470.6</ele>
        <time>2021-10-09T07:15:20Z</time>
      </trkpt>
      <trkpt lat="42.74478" lon="1.95625">
        <ele>1471.6</ele>
        <time>2021-10-09T07:15:22Z</time>
      </trkpt>
      <trkpt lat="42.74487" lon="1.95632">
        <ele>1473.2</ele>
        <time>2021-10-09T07:15:26Z</time>
      </trkpt>
      <trkpt lat="42.74497" lon="1.95638">
        <ele>1474.6</ele>
        <time>2021-10-09T07:15:30Z</time>
      </trkpt>
      <trkpt lat="42.74499" lon="1.9564">
        <ele>1475</ele>
        <time>2021-10-09T07:15:31Z</time>
      </trkpt>
      <trkpt lat="42.74504" lon="1.95642">
        <ele>1476.2</ele>
        <time>2021-10-09T07:15:34Z</time>
      </trkpt>
      <trkpt lat="42.74507" lon="1.95644">
        <ele>1477.8</ele>
        <time>2021-10-09T07:15:37Z</time>
      </trkpt>
      <trkpt lat="42.74521" lon="1.95651">
        <ele>1479.2</ele>
        <time>2021-10-09T07:15:41Z</time>
      </trkpt>
      <trkpt lat="42.74527" lon="1.95655">
        <ele>1480.8</ele>
        <time>2021-10-09T07:15:45Z</time>
      </trkpt>
      <trkpt lat="42.74543" lon="1.95663">
        <ele>1482.8</ele>
        <time>2021-10-09T07:15:50Z</time>
      </trkpt>
      <trkpt lat="42.74558" lon="1.95681">
        <ele>1485.4</ele>
        <time>2021-10-09T07:15:57Z</time>
      </trkpt>
      <trkpt lat="42.74567" lon="1.95692">
        <ele>1486.8</ele>
        <time>2021-10-09T07:16:02Z</time>
      </trkpt>
      <trkpt lat="42.74571" lon="1.95696">
        <ele>1487.4</ele>
        <time>2021-10-09T07:16:04Z</time>
      </trkpt>
      <trkpt lat="42.74573" lon="1.95698">
        <ele>1487.6</ele>
        <time>2021-10-09T07:16:05Z</time>
      </trkpt>
      <trkpt lat="42.74588" lon="1.957">
        <ele>1489</ele>
        <time>2021-10-09T07:16:10Z</time>
      </trkpt>
      <trkpt lat="42.74603" lon="1.957">
        <ele>1490</ele>
        <time>2021-10-09T07:16:15Z</time>
      </trkpt>
      <trkpt lat="42.74614" lon="1.957">
        <ele>1491</ele>
        <time>2021-10-09T07:16:20Z</time>
      </trkpt>
      <trkpt lat="42.74629" lon="1.95702">
        <ele>1492</ele>
        <time>2021-10-09T07:16:26Z</time>
      </trkpt>
      <trkpt lat="42.74642" lon="1.95704">
        <ele>1492.4</ele>
        <time>2021-10-09T07:16:31Z</time>
      </trkpt>
      <trkpt lat="42.74652" lon="1.95706">
        <ele>1492.6</ele>
        <time>2021-10-09T07:16:36Z</time>
      </trkpt>
      <trkpt lat="42.74659" lon="1.95709">
        <ele>1493</ele>
        <time>2021-10-09T07:16:40Z</time>
      </trkpt>
      <trkpt lat="42.74668" lon="1.95712">
        <ele>1493.2</ele>
        <time>2021-10-09T07:16:43Z</time>
      </trkpt>
      <trkpt lat="42.7467" lon="1.95713">
        <ele>1493.4</ele>
        <time>2021-10-09T07:16:44Z</time>
      </trkpt>
      <trkpt lat="42.74686" lon="1.95718">
        <ele>1493.6</ele>
        <time>2021-10-09T07:16:50Z</time>
      </trkpt>
      <trkpt lat="42.74701" lon="1.95723">
        <ele>1494.4</ele>
        <time>2021-10-09T07:16:57Z</time>
      </trkpt>
      <trkpt lat="42.74711" lon="1.95726">
        <ele>1494.8</ele>
        <time>2021-10-09T07:17:01Z</time>
      </trkpt>
      <trkpt lat="42.74713" lon="1.95726">
        <ele>1494.8</ele>
        <time>2021-10-09T07:17:02Z</time>
      </trkpt>
      <trkpt lat="42.74715" lon="1.95727">
        <ele>1495</ele>
        <time>2021-10-09T07:17:03Z</time>
      </trkpt>
      <trkpt lat="42.74723" lon="1.95726">
        <ele>1495.2</ele>
        <time>2021-10-09T07:17:06Z</time>
      </trkpt>
      <trkpt lat="42.74734" lon="1.95718">
        <ele>1495.8</ele>
        <time>2021-10-09T07:17:11Z</time>
      </trkpt>
      <trkpt lat="42.7474" lon="1.95711">
        <ele>1496</ele>
        <time>2021-10-09T07:17:16Z</time>
      </trkpt>
      <trkpt lat="42.74748" lon="1.95702">
        <ele>1496.6</ele>
        <time>2021-10-09T07:17:21Z</time>
      </trkpt>
      <trkpt lat="42.74749" lon="1.957">
        <ele>1496.6</ele>
        <time>2021-10-09T07:17:22Z</time>
      </trkpt>
      <trkpt lat="42.74755" lon="1.95693">
        <ele>1497</ele>
        <time>2021-10-09T07:17:27Z</time>
      </trkpt>
      <trkpt lat="42.74759" lon="1.95691">
        <ele>1497.2</ele>
        <time>2021-10-09T07:17:29Z</time>
      </trkpt>
      <trkpt lat="42.74762" lon="1.95689">
        <ele>1497.2</ele>
        <time>2021-10-09T07:17:31Z</time>
      </trkpt>
      <trkpt lat="42.74774" lon="1.95683">
        <ele>1498</ele>
        <time>2021-10-09T07:17:37Z</time>
      </trkpt>
      <trkpt lat="42.74784" lon="1.95677">
        <ele>1498.6</ele>
        <time>2021-10-09T07:17:42Z</time>
      </trkpt>
      <trkpt lat="42.74787" lon="1.95675">
        <ele>1499</ele>
        <time>2021-10-09T07:17:44Z</time>
      </trkpt>
      <trkpt lat="42.74792" lon="1.95672">
        <ele>1499.4</ele>
        <time>2021-10-09T07:17:46Z</time>
      </trkpt>
      <trkpt lat="42.74802" lon="1.95667">
        <ele>1500.4</ele>
        <time>2021-10-09T07:17:51Z</time>
      </trkpt>
      <trkpt lat="42.74804" lon="1.95665">
        <ele>1500.8</ele>
        <time>2021-10-09T07:17:52Z</time>
      </trkpt>
      <trkpt lat="42.74812" lon="1.95661">
        <ele>1501.4</ele>
        <time>2021-10-09T07:17:56Z</time>
      </trkpt>
      <trkpt lat="42.74823" lon="1.95655">
        <ele>1502.2</ele>
        <time>2021-10-09T07:18:01Z</time>
      </trkpt>
      <trkpt lat="42.74829" lon="1.95651">
        <ele>1503.2</ele>
        <time>2021-10-09T07:18:06Z</time>
      </trkpt>
      <trkpt lat="42.74835" lon="1.95647">
        <ele>1504</ele>
        <time>2021-10-09T07:18:12Z</time>
      </trkpt>
      <trkpt lat="42.74835" lon="1.95647">
        <ele>1504</ele>
        <time>2021-10-09T07:18:13Z</time>
      </trkpt>
      <trkpt lat="42.74847" lon="1.95638">
        <ele>1505.4</ele>
        <time>2021-10-09T07:18:22Z</time>
      </trkpt>
      <trkpt lat="42.74852" lon="1.95634">
        <ele>1505.8</ele>
        <time>2021-10-09T07:18:24Z</time>
      </trkpt>
      <trkpt lat="42.74855" lon="1.95632">
        <ele>1506.2</ele>
        <time>2021-10-09T07:18:26Z</time>
      </trkpt>
      <trkpt lat="42.74858" lon="1.95627">
        <ele>1506.6</ele>
        <time>2021-10-09T07:18:28Z</time>
      </trkpt>
      <trkpt lat="42.74867" lon="1.95614">
        <ele>1507.4</ele>
        <time>2021-10-09T07:18:34Z</time>
      </trkpt>
      <trkpt lat="42.74873" lon="1.95604">
        <ele>1507.8</ele>
        <time>2021-10-09T07:18:38Z</time>
      </trkpt>
      <trkpt lat="42.74874" lon="1.95601">
        <ele>1508</ele>
        <time>2021-10-09T07:18:39Z</time>
      </trkpt>
      <trkpt lat="42.74879" lon="1.95593">
        <ele>1508.2</ele>
        <time>2021-10-09T07:18:42Z</time>
      </trkpt>
      <trkpt lat="42.74886" lon="1.9558">
        <ele>1508.8</ele>
        <time>2021-10-09T07:18:47Z</time>
      </trkpt>
      <trkpt lat="42.74889" lon="1.95573">
        <ele>1509.2</ele>
        <time>2021-10-09T07:18:51Z</time>
      </trkpt>
      <trkpt lat="42.74894" lon="1.95562">
        <ele>1509.4</ele>
        <time>2021-10-09T07:18:54Z</time>
      </trkpt>
      <trkpt lat="42.74897" lon="1.95556">
        <ele>1509.6</ele>
        <time>2021-10-09T07:18:56Z</time>
      </trkpt>
      <trkpt lat="42.74905" lon="1.95538">
        <ele>1510</ele>
        <time>2021-10-09T07:19:02Z</time>
      </trkpt>
      <trkpt lat="42.74907" lon="1.95532">
        <ele>1510.2</ele>
        <time>2021-10-09T07:19:04Z</time>
      </trkpt>
      <trkpt lat="42.74909" lon="1.95528">
        <ele>1510.4</ele>
        <time>2021-10-09T07:19:06Z</time>
      </trkpt>
      <trkpt lat="42.74914" lon="1.95519">
        <ele>1511.2</ele>
        <time>2021-10-09T07:19:09Z</time>
      </trkpt>
      <trkpt lat="42.74915" lon="1.95517">
        <ele>1511.4</ele>
        <time>2021-10-09T07:19:10Z</time>
      </trkpt>
      <trkpt lat="42.74924" lon="1.955">
        <ele>1512.6</ele>
        <time>2021-10-09T07:19:16Z</time>
      </trkpt>
      <trkpt lat="42.74925" lon="1.95498">
        <ele>1512.8</ele>
        <time>2021-10-09T07:19:17Z</time>
      </trkpt>
      <trkpt lat="42.74928" lon="1.95493">
        <ele>1513.2</ele>
        <time>2021-10-09T07:19:19Z</time>
      </trkpt>
      <trkpt lat="42.74936" lon="1.95482">
        <ele>1514.2</ele>
        <time>2021-10-09T07:19:24Z</time>
      </trkpt>
      <trkpt lat="42.74946" lon="1.9547">
        <ele>1515.2</ele>
        <time>2021-10-09T07:19:29Z</time>
      </trkpt>
      <trkpt lat="42.74958" lon="1.95458">
        <ele>1516</ele>
        <time>2021-10-09T07:19:35Z</time>
      </trkpt>
      <trkpt lat="42.74968" lon="1.95444">
        <ele>1517</ele>
        <time>2021-10-09T07:19:41Z</time>
      </trkpt>
      <trkpt lat="42.74973" lon="1.95426">
        <ele>1517.8</ele>
        <time>2021-10-09T07:19:47Z</time>
      </trkpt>
      <trkpt lat="42.74978" lon="1.95404">
        <ele>1518.8</ele>
        <time>2021-10-09T07:19:54Z</time>
      </trkpt>
      <trkpt lat="42.74987" lon="1.95386">
        <ele>1520</ele>
        <time>2021-10-09T07:20:01Z</time>
      </trkpt>
      <trkpt lat="42.74997" lon="1.95371">
        <ele>1520.8</ele>
        <time>2021-10-09T07:20:07Z</time>
      </trkpt>
      <trkpt lat="42.7501" lon="1.95355">
        <ele>1522</ele>
        <time>2021-10-09T07:20:14Z</time>
      </trkpt>
      <trkpt lat="42.75019" lon="1.9535">
        <ele>1522.4</ele>
        <time>2021-10-09T07:20:18Z</time>
      </trkpt>
      <trkpt lat="42.75021" lon="1.95349">
        <ele>1522.6</ele>
        <time>2021-10-09T07:20:19Z</time>
      </trkpt>
      <trkpt lat="42.75034" lon="1.9534">
        <ele>1523.6</ele>
        <time>2021-10-09T07:20:25Z</time>
      </trkpt>
      <trkpt lat="42.75041" lon="1.95331">
        <ele>1524.2</ele>
        <time>2021-10-09T07:20:29Z</time>
      </trkpt>
      <trkpt lat="42.75043" lon="1.95327">
        <ele>1524.2</ele>
        <time>2021-10-09T07:20:31Z</time>
      </trkpt>
      <trkpt lat="42.75049" lon="1.95318">
        <ele>1524.6</ele>
        <time>2021-10-09T07:20:35Z</time>
      </trkpt>
      <trkpt lat="42.75051" lon="1.95316">
        <ele>1524.8</ele>
        <time>2021-10-09T07:20:36Z</time>
      </trkpt>
      <trkpt lat="42.75052" lon="1.95314">
        <ele>1524.8</ele>
        <time>2021-10-09T07:20:37Z</time>
      </trkpt>
      <trkpt lat="42.75058" lon="1.95307">
        <ele>1525.2</ele>
        <time>2021-10-09T07:20:40Z</time>
      </trkpt>
      <trkpt lat="42.75069" lon="1.95296">
        <ele>1525.4</ele>
        <time>2021-10-09T07:20:45Z</time>
      </trkpt>
      <trkpt lat="42.75081" lon="1.95287">
        <ele>1525.8</ele>
        <time>2021-10-09T07:20:50Z</time>
      </trkpt>
      <trkpt lat="42.75088" lon="1.95276">
        <ele>1526</ele>
        <time>2021-10-09T07:20:54Z</time>
      </trkpt>
      <trkpt lat="42.75088" lon="1.95273">
        <ele>1526.2</ele>
        <time>2021-10-09T07:20:55Z</time>
      </trkpt>
      <trkpt lat="42.75086" lon="1.95258">
        <ele>1527</ele>
        <time>2021-10-09T07:21:00Z</time>
      </trkpt>
      <trkpt lat="42.75082" lon="1.95252">
        <ele>1527.4</ele>
        <time>2021-10-09T07:21:03Z</time>
      </trkpt>
      <trkpt lat="42.7508" lon="1.95248">
        <ele>1528</ele>
        <time>2021-10-09T07:21:05Z</time>
      </trkpt>
      <trkpt lat="42.75077" lon="1.95242">
        <ele>1528.6</ele>
        <time>2021-10-09T07:21:11Z</time>
      </trkpt>
      <trkpt lat="42.75077" lon="1.95227">
        <ele>1529.6</ele>
        <time>2021-10-09T07:21:17Z</time>
      </trkpt>
      <trkpt lat="42.75079" lon="1.95217">
        <ele>1530.6</ele>
        <time>2021-10-09T07:21:22Z</time>
      </trkpt>
      <trkpt lat="42.75079" lon="1.95215">
        <ele>1530.8</ele>
        <time>2021-10-09T07:21:23Z</time>
      </trkpt>
      <trkpt lat="42.7508" lon="1.9521">
        <ele>1531.6</ele>
        <time>2021-10-09T07:21:27Z</time>
      </trkpt>
      <trkpt lat="42.75081" lon="1.95205">
        <ele>1532.4</ele>
        <time>2021-10-09T07:21:30Z</time>
      </trkpt>
      <trkpt lat="42.75081" lon="1.95204">
        <ele>1532.6</ele>
        <time>2021-10-09T07:21:31Z</time>
      </trkpt>
      <trkpt lat="42.75082" lon="1.952">
        <ele>1533.4</ele>
        <time>2021-10-09T07:21:36Z</time>
      </trkpt>
      <trkpt lat="42.75082" lon="1.95197">
        <ele>1546.8</ele>
        <time>2021-10-09T07:23:52Z</time>
      </trkpt>
      <trkpt lat="42.75083" lon="1.9519">
        <ele>1547</ele>
        <time>2021-10-09T07:23:55Z</time>
      </trkpt>
      <trkpt lat="42.75084" lon="1.9518">
        <ele>1547.4</ele>
        <time>2021-10-09T07:23:59Z</time>
      </trkpt>
      <trkpt lat="42.7508" lon="1.95166">
        <ele>1548</ele>
        <time>2021-10-09T07:24:04Z</time>
      </trkpt>
      <trkpt lat="42.75079" lon="1.95145">
        <ele>1548.4</ele>
        <time>2021-10-09T07:24:09Z</time>
      </trkpt>
      <trkpt lat="42.75081" lon="1.95123">
        <ele>1548.6</ele>
        <time>2021-10-09T07:24:15Z</time>
      </trkpt>
      <trkpt lat="42.75082" lon="1.95116">
        <ele>1548.6</ele>
        <time>2021-10-09T07:24:17Z</time>
      </trkpt>
      <trkpt lat="42.75084" lon="1.95109">
        <ele>1548.6</ele>
        <time>2021-10-09T07:24:19Z</time>
      </trkpt>
      <trkpt lat="42.75085" lon="1.95106">
        <ele>1548.6</ele>
        <time>2021-10-09T07:24:20Z</time>
      </trkpt>
      <trkpt lat="42.75086" lon="1.95104">
        <ele>1548.6</ele>
        <time>2021-10-09T07:24:21Z</time>
      </trkpt>
      <trkpt lat="42.75087" lon="1.95101">
        <ele>1548.8</ele>
        <time>2021-10-09T07:24:22Z</time>
      </trkpt>
      <trkpt lat="42.75091" lon="1.95094">
        <ele>1548.8</ele>
        <time>2021-10-09T07:24:24Z</time>
      </trkpt>
      <trkpt lat="42.75093" lon="1.95091">
        <ele>1549</ele>
        <time>2021-10-09T07:24:25Z</time>
      </trkpt>
      <trkpt lat="42.75101" lon="1.95077">
        <ele>1549.2</ele>
        <time>2021-10-09T07:24:30Z</time>
      </trkpt>
      <trkpt lat="42.75102" lon="1.95073">
        <ele>1549.2</ele>
        <time>2021-10-09T07:24:31Z</time>
      </trkpt>
      <trkpt lat="42.75104" lon="1.95067">
        <ele>1549</ele>
        <time>2021-10-09T07:24:34Z</time>
      </trkpt>
      <trkpt lat="42.75108" lon="1.9505">
        <ele>1549</ele>
        <time>2021-10-09T07:24:38Z</time>
      </trkpt>
      <trkpt lat="42.75109" lon="1.95042">
        <ele>1549.2</ele>
        <time>2021-10-09T07:24:40Z</time>
      </trkpt>
      <trkpt lat="42.75109" lon="1.95038">
        <ele>1549.2</ele>
        <time>2021-10-09T07:24:41Z</time>
      </trkpt>
      <trkpt lat="42.75111" lon="1.9502">
        <ele>1549.6</ele>
        <time>2021-10-09T07:24:46Z</time>
      </trkpt>
      <trkpt lat="42.75112" lon="1.95017">
        <ele>1549.4</ele>
        <time>2021-10-09T07:24:47Z</time>
      </trkpt>
      <trkpt lat="42.75114" lon="1.95005">
        <ele>1549.4</ele>
        <time>2021-10-09T07:24:50Z</time>
      </trkpt>
      <trkpt lat="42.75119" lon="1.94984">
        <ele>1549.4</ele>
        <time>2021-10-09T07:24:56Z</time>
      </trkpt>
      <trkpt lat="42.7512" lon="1.94978">
        <ele>1549.4</ele>
        <time>2021-10-09T07:24:58Z</time>
      </trkpt>
      <trkpt lat="42.75122" lon="1.9497">
        <ele>1549.4</ele>
        <time>2021-10-09T07:25:00Z</time>
      </trkpt>
      <trkpt lat="42.75124" lon="1.94959">
        <ele>1549.2</ele>
        <time>2021-10-09T07:25:04Z</time>
      </trkpt>
      <trkpt lat="42.75127" lon="1.94946">
        <ele>1549.4</ele>
        <time>2021-10-09T07:25:09Z</time>
      </trkpt>
      <trkpt lat="42.75127" lon="1.94942">
        <ele>1549.6</ele>
        <time>2021-10-09T07:25:11Z</time>
      </trkpt>
      <trkpt lat="42.75128" lon="1.94932">
        <ele>1549.8</ele>
        <time>2021-10-09T07:25:14Z</time>
      </trkpt>
      <trkpt lat="42.7513" lon="1.94903">
        <ele>1550.4</ele>
        <time>2021-10-09T07:25:22Z</time>
      </trkpt>
      <trkpt lat="42.75132" lon="1.94882">
        <ele>1550.8</ele>
        <time>2021-10-09T07:25:28Z</time>
      </trkpt>
      <trkpt lat="42.7513" lon="1.9486">
        <ele>1551.4</ele>
        <time>2021-10-09T07:25:34Z</time>
      </trkpt>
      <trkpt lat="42.75125" lon="1.94834">
        <ele>1552</ele>
        <time>2021-10-09T07:25:41Z</time>
      </trkpt>
      <trkpt lat="42.75116" lon="1.94812">
        <ele>1552.8</ele>
        <time>2021-10-09T07:25:48Z</time>
      </trkpt>
      <trkpt lat="42.75102" lon="1.94791">
        <ele>1553.8</ele>
        <time>2021-10-09T07:25:55Z</time>
      </trkpt>
      <trkpt lat="42.75091" lon="1.94775">
        <ele>1554.6</ele>
        <time>2021-10-09T07:26:01Z</time>
      </trkpt>
      <trkpt lat="42.75077" lon="1.94758">
        <ele>1555.4</ele>
        <time>2021-10-09T07:26:08Z</time>
      </trkpt>
      <trkpt lat="42.75067" lon="1.94742">
        <ele>1556.4</ele>
        <time>2021-10-09T07:26:14Z</time>
      </trkpt>
      <trkpt lat="42.75062" lon="1.94731">
        <ele>1557.4</ele>
        <time>2021-10-09T07:26:18Z</time>
      </trkpt>
      <trkpt lat="42.75056" lon="1.9471">
        <ele>1559.6</ele>
        <time>2021-10-09T07:26:23Z</time>
      </trkpt>
      <trkpt lat="42.75052" lon="1.94694">
        <ele>1561.2</ele>
        <time>2021-10-09T07:26:27Z</time>
      </trkpt>
      <trkpt lat="42.75049" lon="1.9467">
        <ele>1563</ele>
        <time>2021-10-09T07:26:33Z</time>
      </trkpt>
      <trkpt lat="42.75046" lon="1.9465">
        <ele>1564.8</ele>
        <time>2021-10-09T07:26:39Z</time>
      </trkpt>
      <trkpt lat="42.75037" lon="1.94651">
        <ele>1565.8</ele>
        <time>2021-10-09T07:26:42Z</time>
      </trkpt>
      <trkpt lat="42.75037" lon="1.94652">
        <ele>1566.4</ele>
        <time>2021-10-09T07:26:44Z</time>
      </trkpt>
      <trkpt lat="42.75039" lon="1.94665">
        <ele>1567</ele>
        <time>2021-10-09T07:26:46Z</time>
      </trkpt>
      <trkpt lat="42.75043" lon="1.94685">
        <ele>1568.6</ele>
        <time>2021-10-09T07:26:51Z</time>
      </trkpt>
      <trkpt lat="42.75046" lon="1.94704">
        <ele>1570.4</ele>
        <time>2021-10-09T07:26:56Z</time>
      </trkpt>
      <trkpt lat="42.75047" lon="1.94719">
        <ele>1571.8</ele>
        <time>2021-10-09T07:27:00Z</time>
      </trkpt>
      <trkpt lat="42.75048" lon="1.94737">
        <ele>1573.4</ele>
        <time>2021-10-09T07:27:05Z</time>
      </trkpt>
      <trkpt lat="42.7505" lon="1.94757">
        <ele>1575.4</ele>
        <time>2021-10-09T07:27:11Z</time>
      </trkpt>
      <trkpt lat="42.75055" lon="1.94775">
        <ele>1577.2</ele>
        <time>2021-10-09T07:27:16Z</time>
      </trkpt>
      <trkpt lat="42.75061" lon="1.94789">
        <ele>1579.2</ele>
        <time>2021-10-09T07:27:21Z</time>
      </trkpt>
      <trkpt lat="42.75062" lon="1.94792">
        <ele>1579.8</ele>
        <time>2021-10-09T07:27:22Z</time>
      </trkpt>
      <trkpt lat="42.75064" lon="1.94797">
        <ele>1580.8</ele>
        <time>2021-10-09T07:27:24Z</time>
      </trkpt>
      <trkpt lat="42.75069" lon="1.9481">
        <ele>1582.2</ele>
        <time>2021-10-09T07:27:28Z</time>
      </trkpt>
      <trkpt lat="42.75075" lon="1.94832">
        <ele>1583.8</ele>
        <time>2021-10-09T07:27:33Z</time>
      </trkpt>
      <trkpt lat="42.75076" lon="1.94842">
        <ele>1584.8</ele>
        <time>2021-10-09T07:27:36Z</time>
      </trkpt>
      <trkpt lat="42.75079" lon="1.94864">
        <ele>1586.6</ele>
        <time>2021-10-09T07:27:42Z</time>
      </trkpt>
      <trkpt lat="42.75079" lon="1.94881">
        <ele>1588</ele>
        <time>2021-10-09T07:27:47Z</time>
      </trkpt>
      <trkpt lat="42.75079" lon="1.94899">
        <ele>1589.6</ele>
        <time>2021-10-09T07:27:52Z</time>
      </trkpt>
      <trkpt lat="42.75076" lon="1.94915">
        <ele>1590.8</ele>
        <time>2021-10-09T07:27:57Z</time>
      </trkpt>
      <trkpt lat="42.75074" lon="1.94933">
        <ele>1592.6</ele>
        <time>2021-10-09T07:28:02Z</time>
      </trkpt>
      <trkpt lat="42.75073" lon="1.94936">
        <ele>1592.8</ele>
        <time>2021-10-09T07:28:03Z</time>
      </trkpt>
      <trkpt lat="42.75071" lon="1.94954">
        <ele>1594</ele>
        <time>2021-10-09T07:28:07Z</time>
      </trkpt>
      <trkpt lat="42.75071" lon="1.94958">
        <ele>1594.2</ele>
        <time>2021-10-09T07:28:08Z</time>
      </trkpt>
      <trkpt lat="42.75069" lon="1.94964">
        <ele>1594.8</ele>
        <time>2021-10-09T07:28:10Z</time>
      </trkpt>
      <trkpt lat="42.75064" lon="1.94979">
        <ele>1596.2</ele>
        <time>2021-10-09T07:28:14Z</time>
      </trkpt>
      <trkpt lat="42.75058" lon="1.94979">
        <ele>1596.6</ele>
        <time>2021-10-09T07:28:16Z</time>
      </trkpt>
      <trkpt lat="42.75056" lon="1.94975">
        <ele>1596.8</ele>
        <time>2021-10-09T07:28:17Z</time>
      </trkpt>
      <trkpt lat="42.75055" lon="1.9496">
        <ele>1597.2</ele>
        <time>2021-10-09T07:28:21Z</time>
      </trkpt>
      <trkpt lat="42.75055" lon="1.94944">
        <ele>1598.4</ele>
        <time>2021-10-09T07:28:26Z</time>
      </trkpt>
      <trkpt lat="42.75055" lon="1.9492">
        <ele>1599.6</ele>
        <time>2021-10-09T07:28:33Z</time>
      </trkpt>
      <trkpt lat="42.75055" lon="1.94905">
        <ele>1600.2</ele>
        <time>2021-10-09T07:28:38Z</time>
      </trkpt>
      <trkpt lat="42.75055" lon="1.949">
        <ele>1600.6</ele>
        <time>2021-10-09T07:28:40Z</time>
      </trkpt>
      <trkpt lat="42.75055" lon="1.94886">
        <ele>1601</ele>
        <time>2021-10-09T07:28:43Z</time>
      </trkpt>
      <trkpt lat="42.75049" lon="1.94861">
        <ele>1602.2</ele>
        <time>2021-10-09T07:28:49Z</time>
      </trkpt>
      <trkpt lat="42.75045" lon="1.94845">
        <ele>1603</ele>
        <time>2021-10-09T07:28:53Z</time>
      </trkpt>
      <trkpt lat="42.75038" lon="1.94827">
        <ele>1604</ele>
        <time>2021-10-09T07:28:59Z</time>
      </trkpt>
      <trkpt lat="42.75032" lon="1.94812">
        <ele>1604.8</ele>
        <time>2021-10-09T07:29:04Z</time>
      </trkpt>
      <trkpt lat="42.75024" lon="1.94794">
        <ele>1605.6</ele>
        <time>2021-10-09T07:29:10Z</time>
      </trkpt>
      <trkpt lat="42.75014" lon="1.94772">
        <ele>1607</ele>
        <time>2021-10-09T07:29:17Z</time>
      </trkpt>
      <trkpt lat="42.75006" lon="1.94749">
        <ele>1608</ele>
        <time>2021-10-09T07:29:24Z</time>
      </trkpt>
      <trkpt lat="42.75003" lon="1.94744">
        <ele>1608.2</ele>
        <time>2021-10-09T07:29:26Z</time>
      </trkpt>
      <trkpt lat="42.75" lon="1.94741">
        <ele>1608.8</ele>
        <time>2021-10-09T07:29:28Z</time>
      </trkpt>
      <trkpt lat="42.74992" lon="1.94733">
        <ele>1609.8</ele>
        <time>2021-10-09T07:29:32Z</time>
      </trkpt>
      <trkpt lat="42.74981" lon="1.94722">
        <ele>1611</ele>
        <time>2021-10-09T07:29:37Z</time>
      </trkpt>
      <trkpt lat="42.7497" lon="1.94708">
        <ele>1612</ele>
        <time>2021-10-09T07:29:43Z</time>
      </trkpt>
      <trkpt lat="42.74964" lon="1.94693">
        <ele>1613</ele>
        <time>2021-10-09T07:29:48Z</time>
      </trkpt>
      <trkpt lat="42.74964" lon="1.94673">
        <ele>1614.4</ele>
        <time>2021-10-09T07:29:54Z</time>
      </trkpt>
      <trkpt lat="42.74962" lon="1.94647">
        <ele>1616.8</ele>
        <time>2021-10-09T07:30:01Z</time>
      </trkpt>
      <trkpt lat="42.74956" lon="1.94621">
        <ele>1619.4</ele>
        <time>2021-10-09T07:30:08Z</time>
      </trkpt>
      <trkpt lat="42.74952" lon="1.94599">
        <ele>1621.4</ele>
        <time>2021-10-09T07:30:14Z</time>
      </trkpt>
      <trkpt lat="42.74952" lon="1.94588">
        <ele>1622.4</ele>
        <time>2021-10-09T07:30:17Z</time>
      </trkpt>
      <trkpt lat="42.74952" lon="1.94581">
        <ele>1623</ele>
        <time>2021-10-09T07:30:19Z</time>
      </trkpt>
      <trkpt lat="42.74957" lon="1.94564">
        <ele>1623.8</ele>
        <time>2021-10-09T07:30:23Z</time>
      </trkpt>
      <trkpt lat="42.74969" lon="1.9455">
        <ele>1624.6</ele>
        <time>2021-10-09T07:30:28Z</time>
      </trkpt>
      <trkpt lat="42.74982" lon="1.94537">
        <ele>1626.4</ele>
        <time>2021-10-09T07:30:34Z</time>
      </trkpt>
      <trkpt lat="42.74984" lon="1.94523">
        <ele>1627</ele>
        <time>2021-10-09T07:30:37Z</time>
      </trkpt>
      <trkpt lat="42.74983" lon="1.9452">
        <ele>1627.2</ele>
        <time>2021-10-09T07:30:38Z</time>
      </trkpt>
      <trkpt lat="42.74973" lon="1.94513">
        <ele>1628.4</ele>
        <time>2021-10-09T07:30:43Z</time>
      </trkpt>
      <trkpt lat="42.74964" lon="1.94509">
        <ele>1629</ele>
        <time>2021-10-09T07:30:46Z</time>
      </trkpt>
      <trkpt lat="42.74959" lon="1.94504">
        <ele>1629.4</ele>
        <time>2021-10-09T07:30:48Z</time>
      </trkpt>
      <trkpt lat="42.74947" lon="1.94488">
        <ele>1630.6</ele>
        <time>2021-10-09T07:30:53Z</time>
      </trkpt>
      <trkpt lat="42.74938" lon="1.94476">
        <ele>1631.4</ele>
        <time>2021-10-09T07:30:57Z</time>
      </trkpt>
      <trkpt lat="42.74922" lon="1.94463">
        <ele>1633</ele>
        <time>2021-10-09T07:31:03Z</time>
      </trkpt>
      <trkpt lat="42.74903" lon="1.94459">
        <ele>1634.2</ele>
        <time>2021-10-09T07:31:09Z</time>
      </trkpt>
      <trkpt lat="42.7489" lon="1.94457">
        <ele>1635</ele>
        <time>2021-10-09T07:31:14Z</time>
      </trkpt>
      <trkpt lat="42.74887" lon="1.94456">
        <ele>1635</ele>
        <time>2021-10-09T07:31:15Z</time>
      </trkpt>
      <trkpt lat="42.74876" lon="1.94442">
        <ele>1635.4</ele>
        <time>2021-10-09T07:31:20Z</time>
      </trkpt>
      <trkpt lat="42.74867" lon="1.94423">
        <ele>1636.2</ele>
        <time>2021-10-09T07:31:25Z</time>
      </trkpt>
      <trkpt lat="42.74861" lon="1.94396">
        <ele>1637.4</ele>
        <time>2021-10-09T07:31:31Z</time>
      </trkpt>
      <trkpt lat="42.7485" lon="1.94376">
        <ele>1638.4</ele>
        <time>2021-10-09T07:31:36Z</time>
      </trkpt>
      <trkpt lat="42.7484" lon="1.94361">
        <ele>1639.4</ele>
        <time>2021-10-09T07:31:41Z</time>
      </trkpt>
      <trkpt lat="42.74829" lon="1.94337">
        <ele>1640.8</ele>
        <time>2021-10-09T07:31:47Z</time>
      </trkpt>
      <trkpt lat="42.74827" lon="1.9431">
        <ele>1642.4</ele>
        <time>2021-10-09T07:31:53Z</time>
      </trkpt>
      <trkpt lat="42.74828" lon="1.94306">
        <ele>1642.6</ele>
        <time>2021-10-09T07:31:54Z</time>
      </trkpt>
      <trkpt lat="42.74831" lon="1.94293">
        <ele>1643.6</ele>
        <time>2021-10-09T07:31:57Z</time>
      </trkpt>
      <trkpt lat="42.74836" lon="1.94272">
        <ele>1644.2</ele>
        <time>2021-10-09T07:32:02Z</time>
      </trkpt>
      <trkpt lat="42.74839" lon="1.94253">
        <ele>1645.2</ele>
        <time>2021-10-09T07:32:07Z</time>
      </trkpt>
      <trkpt lat="42.74838" lon="1.94236">
        <ele>1645.8</ele>
        <time>2021-10-09T07:32:11Z</time>
      </trkpt>
      <trkpt lat="42.74838" lon="1.94232">
        <ele>1646</ele>
        <time>2021-10-09T07:32:12Z</time>
      </trkpt>
      <trkpt lat="42.74838" lon="1.94219">
        <ele>1646.8</ele>
        <time>2021-10-09T07:32:15Z</time>
      </trkpt>
      <trkpt lat="42.7484" lon="1.942">
        <ele>1648</ele>
        <time>2021-10-09T07:32:19Z</time>
      </trkpt>
      <trkpt lat="42.7485" lon="1.94189">
        <ele>1649</ele>
        <time>2021-10-09T07:32:23Z</time>
      </trkpt>
      <trkpt lat="42.74863" lon="1.94184">
        <ele>1649.8</ele>
        <time>2021-10-09T07:32:27Z</time>
      </trkpt>
      <trkpt lat="42.74866" lon="1.9417">
        <ele>1650.2</ele>
        <time>2021-10-09T07:32:29Z</time>
      </trkpt>
      <trkpt lat="42.74865" lon="1.94165">
        <ele>1650.2</ele>
        <time>2021-10-09T07:32:30Z</time>
      </trkpt>
      <trkpt lat="42.74864" lon="1.94162">
        <ele>1650.4</ele>
        <time>2021-10-09T07:32:31Z</time>
      </trkpt>
      <trkpt lat="42.74861" lon="1.94155">
        <ele>1650.4</ele>
        <time>2021-10-09T07:32:33Z</time>
      </trkpt>
      <trkpt lat="42.7485" lon="1.94133">
        <ele>1651</ele>
        <time>2021-10-09T07:32:39Z</time>
      </trkpt>
      <trkpt lat="42.74839" lon="1.9411">
        <ele>1651.8</ele>
        <time>2021-10-09T07:32:45Z</time>
      </trkpt>
      <trkpt lat="42.74824" lon="1.94081">
        <ele>1653.2</ele>
        <time>2021-10-09T07:32:53Z</time>
      </trkpt>
      <trkpt lat="42.74809" lon="1.94064">
        <ele>1654.2</ele>
        <time>2021-10-09T07:32:59Z</time>
      </trkpt>
      <trkpt lat="42.74791" lon="1.94048">
        <ele>1655.2</ele>
        <time>2021-10-09T07:33:06Z</time>
      </trkpt>
      <trkpt lat="42.74773" lon="1.94028">
        <ele>1655.8</ele>
        <time>2021-10-09T07:33:13Z</time>
      </trkpt>
      <trkpt lat="42.74771" lon="1.94002">
        <ele>1656.4</ele>
        <time>2021-10-09T07:33:19Z</time>
      </trkpt>
      <trkpt lat="42.74778" lon="1.9398">
        <ele>1657.4</ele>
        <time>2021-10-09T07:33:25Z</time>
      </trkpt>
      <trkpt lat="42.74785" lon="1.9396">
        <ele>1658</ele>
        <time>2021-10-09T07:33:31Z</time>
      </trkpt>
      <trkpt lat="42.74782" lon="1.93938">
        <ele>1659</ele>
        <time>2021-10-09T07:33:38Z</time>
      </trkpt>
      <trkpt lat="42.7478" lon="1.93929">
        <ele>1659.8</ele>
        <time>2021-10-09T07:33:43Z</time>
      </trkpt>
      <trkpt lat="42.74777" lon="1.93913">
        <ele>1661.2</ele>
        <time>2021-10-09T07:33:52Z</time>
      </trkpt>
      <trkpt lat="42.74776" lon="1.93909">
        <ele>1661.6</ele>
        <time>2021-10-09T07:33:56Z</time>
      </trkpt>
      <trkpt lat="42.74775" lon="1.93906">
        <ele>1661.8</ele>
        <time>2021-10-09T07:33:58Z</time>
      </trkpt>
      <trkpt lat="42.74772" lon="1.93898">
        <ele>1662.4</ele>
        <time>2021-10-09T07:34:03Z</time>
      </trkpt>
      <trkpt lat="42.74772" lon="1.93895">
        <ele>1662.6</ele>
        <time>2021-10-09T07:34:05Z</time>
      </trkpt>
      <trkpt lat="42.74769" lon="1.93888">
        <ele>1662.8</ele>
        <time>2021-10-09T07:34:09Z</time>
      </trkpt>
      <trkpt lat="42.74769" lon="1.93887">
        <ele>1663</ele>
        <time>2021-10-09T07:34:10Z</time>
      </trkpt>
      <trkpt lat="42.74768" lon="1.93886">
        <ele>1663</ele>
        <time>2021-10-09T07:34:13Z</time>
      </trkpt>
      <trkpt lat="42.74771" lon="1.93894">
        <ele>1664.8</ele>
        <time>2021-10-09T07:34:44Z</time>
      </trkpt>
      <trkpt lat="42.74774" lon="1.93901">
        <ele>1665</ele>
        <time>2021-10-09T07:34:48Z</time>
      </trkpt>
      <trkpt lat="42.74776" lon="1.93909">
        <ele>1665.2</ele>
        <time>2021-10-09T07:34:50Z</time>
      </trkpt>
      <trkpt lat="42.74775" lon="1.93906">
        <ele>1665.4</ele>
        <time>2021-10-09T07:34:52Z</time>
      </trkpt>
      <trkpt lat="42.74775" lon="1.93907">
        <ele>1665.4</ele>
        <time>2021-10-09T07:34:53Z</time>
      </trkpt>
      <trkpt lat="42.74775" lon="1.93907">
        <ele>1665.6</ele>
        <time>2021-10-09T07:34:55Z</time>
      </trkpt>
      <trkpt lat="42.74779" lon="1.93923">
        <ele>1669.8</ele>
        <time>2021-10-09T07:44:49Z</time>
      </trkpt>
      <trkpt lat="42.74779" lon="1.93925">
        <ele>1669.8</ele>
        <time>2021-10-09T07:44:50Z</time>
      </trkpt>
      <trkpt lat="42.74783" lon="1.93941">
        <ele>1669.4</ele>
        <time>2021-10-09T07:44:57Z</time>
      </trkpt>
      <trkpt lat="42.74783" lon="1.93943">
        <ele>1669.4</ele>
        <time>2021-10-09T07:44:58Z</time>
      </trkpt>
      <trkpt lat="42.74785" lon="1.93956">
        <ele>1669.2</ele>
        <time>2021-10-09T07:45:01Z</time>
      </trkpt>
      <trkpt lat="42.74784" lon="1.93961">
        <ele>1669</ele>
        <time>2021-10-09T07:45:02Z</time>
      </trkpt>
      <trkpt lat="42.74784" lon="1.93967">
        <ele>1669</ele>
        <time>2021-10-09T07:45:03Z</time>
      </trkpt>
      <trkpt lat="42.74779" lon="1.93978">
        <ele>1668.8</ele>
        <time>2021-10-09T07:45:05Z</time>
      </trkpt>
      <trkpt lat="42.74776" lon="1.93984">
        <ele>1668.8</ele>
        <time>2021-10-09T07:45:06Z</time>
      </trkpt>
      <trkpt lat="42.74773" lon="1.93991">
        <ele>1668.6</ele>
        <time>2021-10-09T07:45:07Z</time>
      </trkpt>
      <trkpt lat="42.7477" lon="1.94007">
        <ele>1668.6</ele>
        <time>2021-10-09T07:45:09Z</time>
      </trkpt>
      <trkpt lat="42.74771" lon="1.94017">
        <ele>1668.2</ele>
        <time>2021-10-09T07:45:10Z</time>
      </trkpt>
      <trkpt lat="42.74772" lon="1.94026">
        <ele>1668</ele>
        <time>2021-10-09T07:45:11Z</time>
      </trkpt>
      <trkpt lat="42.74779" lon="1.94041">
        <ele>1667.8</ele>
        <time>2021-10-09T07:45:13Z</time>
      </trkpt>
      <trkpt lat="42.74791" lon="1.94048">
        <ele>1667.4</ele>
        <time>2021-10-09T07:45:15Z</time>
      </trkpt>
      <trkpt lat="42.74798" lon="1.94054">
        <ele>1667.2</ele>
        <time>2021-10-09T07:45:16Z</time>
      </trkpt>
      <trkpt lat="42.7481" lon="1.94065">
        <ele>1666.8</ele>
        <time>2021-10-09T07:45:18Z</time>
      </trkpt>
      <trkpt lat="42.74822" lon="1.94077">
        <ele>1666.4</ele>
        <time>2021-10-09T07:45:20Z</time>
      </trkpt>
      <trkpt lat="42.74831" lon="1.94092">
        <ele>1666.2</ele>
        <time>2021-10-09T07:45:22Z</time>
      </trkpt>
      <trkpt lat="42.74839" lon="1.9411">
        <ele>1665.8</ele>
        <time>2021-10-09T07:45:24Z</time>
      </trkpt>
      <trkpt lat="42.7486" lon="1.94154">
        <ele>1665</ele>
        <time>2021-10-09T07:45:29Z</time>
      </trkpt>
      <trkpt lat="42.74866" lon="1.94169">
        <ele>1664.8</ele>
        <time>2021-10-09T07:45:31Z</time>
      </trkpt>
      <trkpt lat="42.74867" lon="1.94175">
        <ele>1664.6</ele>
        <time>2021-10-09T07:45:32Z</time>
      </trkpt>
      <trkpt lat="42.74865" lon="1.94182">
        <ele>1664.4</ele>
        <time>2021-10-09T07:45:33Z</time>
      </trkpt>
      <trkpt lat="42.74859" lon="1.94185">
        <ele>1664.2</ele>
        <time>2021-10-09T07:45:34Z</time>
      </trkpt>
      <trkpt lat="42.74854" lon="1.94187">
        <ele>1664</ele>
        <time>2021-10-09T07:45:35Z</time>
      </trkpt>
      <trkpt lat="42.74844" lon="1.94193">
        <ele>1663.4</ele>
        <time>2021-10-09T07:45:37Z</time>
      </trkpt>
      <trkpt lat="42.74839" lon="1.94204">
        <ele>1662.8</ele>
        <time>2021-10-09T07:45:39Z</time>
      </trkpt>
      <trkpt lat="42.74837" lon="1.94211">
        <ele>1662.6</ele>
        <time>2021-10-09T07:45:40Z</time>
      </trkpt>
      <trkpt lat="42.74838" lon="1.94228">
        <ele>1662</ele>
        <time>2021-10-09T07:45:42Z</time>
      </trkpt>
      <trkpt lat="42.74839" lon="1.94249">
        <ele>1661.6</ele>
        <time>2021-10-09T07:45:44Z</time>
      </trkpt>
      <trkpt lat="42.74836" lon="1.94271">
        <ele>1661.2</ele>
        <time>2021-10-09T07:45:46Z</time>
      </trkpt>
      <trkpt lat="42.74832" lon="1.94288">
        <ele>1660.8</ele>
        <time>2021-10-09T07:45:48Z</time>
      </trkpt>
      <trkpt lat="42.74828" lon="1.94305">
        <ele>1660.4</ele>
        <time>2021-10-09T07:45:50Z</time>
      </trkpt>
      <trkpt lat="42.74826" lon="1.94314">
        <ele>1660.4</ele>
        <time>2021-10-09T07:45:51Z</time>
      </trkpt>
      <trkpt lat="42.74826" lon="1.94324">
        <ele>1660.2</ele>
        <time>2021-10-09T07:45:52Z</time>
      </trkpt>
      <trkpt lat="42.7483" lon="1.94341">
        <ele>1659.8</ele>
        <time>2021-10-09T07:45:54Z</time>
      </trkpt>
      <trkpt lat="42.74844" lon="1.94368">
        <ele>1659.2</ele>
        <time>2021-10-09T07:45:57Z</time>
      </trkpt>
      <trkpt lat="42.74861" lon="1.94396">
        <ele>1658.6</ele>
        <time>2021-10-09T07:46:00Z</time>
      </trkpt>
      <trkpt lat="42.74866" lon="1.94417">
        <ele>1658.2</ele>
        <time>2021-10-09T07:46:02Z</time>
      </trkpt>
      <trkpt lat="42.74883" lon="1.94454">
        <ele>1657.2</ele>
        <time>2021-10-09T07:46:06Z</time>
      </trkpt>
      <trkpt lat="42.749" lon="1.94459">
        <ele>1656.8</ele>
        <time>2021-10-09T07:46:08Z</time>
      </trkpt>
      <trkpt lat="42.74926" lon="1.94465">
        <ele>1656</ele>
        <time>2021-10-09T07:46:11Z</time>
      </trkpt>
      <trkpt lat="42.74934" lon="1.94471">
        <ele>1655.8</ele>
        <time>2021-10-09T07:46:12Z</time>
      </trkpt>
      <trkpt lat="42.74941" lon="1.94479">
        <ele>1655.6</ele>
        <time>2021-10-09T07:46:13Z</time>
      </trkpt>
      <trkpt lat="42.74953" lon="1.94496">
        <ele>1655.2</ele>
        <time>2021-10-09T07:46:15Z</time>
      </trkpt>
      <trkpt lat="42.74973" lon="1.94513">
        <ele>1654.6</ele>
        <time>2021-10-09T07:46:18Z</time>
      </trkpt>
      <trkpt lat="42.74984" lon="1.94523">
        <ele>1654</ele>
        <time>2021-10-09T07:46:20Z</time>
      </trkpt>
      <trkpt lat="42.74985" lon="1.94531">
        <ele>1653.8</ele>
        <time>2021-10-09T07:46:21Z</time>
      </trkpt>
      <trkpt lat="42.74983" lon="1.94537">
        <ele>1653.4</ele>
        <time>2021-10-09T07:46:22Z</time>
      </trkpt>
      <trkpt lat="42.74979" lon="1.94543">
        <ele>1653.2</ele>
        <time>2021-10-09T07:46:23Z</time>
      </trkpt>
      <trkpt lat="42.74974" lon="1.94547">
        <ele>1653</ele>
        <time>2021-10-09T07:46:24Z</time>
      </trkpt>
      <trkpt lat="42.7496" lon="1.9456">
        <ele>1652.2</ele>
        <time>2021-10-09T07:46:26Z</time>
      </trkpt>
      <trkpt lat="42.74955" lon="1.9457">
        <ele>1652</ele>
        <time>2021-10-09T07:46:27Z</time>
      </trkpt>
      <trkpt lat="42.74953" lon="1.94579">
        <ele>1651.6</ele>
        <time>2021-10-09T07:46:28Z</time>
      </trkpt>
      <trkpt lat="42.74952" lon="1.946">
        <ele>1650.8</ele>
        <time>2021-10-09T07:46:30Z</time>
      </trkpt>
      <trkpt lat="42.74954" lon="1.94609">
        <ele>1650.4</ele>
        <time>2021-10-09T07:46:31Z</time>
      </trkpt>
      <trkpt lat="42.74959" lon="1.9463">
        <ele>1649.6</ele>
        <time>2021-10-09T07:46:33Z</time>
      </trkpt>
      <trkpt lat="42.74964" lon="1.94661">
        <ele>1648.4</ele>
        <time>2021-10-09T07:46:36Z</time>
      </trkpt>
      <trkpt lat="42.74964" lon="1.94671">
        <ele>1648</ele>
        <time>2021-10-09T07:46:37Z</time>
      </trkpt>
      <trkpt lat="42.74964" lon="1.9468">
        <ele>1647.6</ele>
        <time>2021-10-09T07:46:38Z</time>
      </trkpt>
      <trkpt lat="42.74964" lon="1.94693">
        <ele>1646.6</ele>
        <time>2021-10-09T07:46:40Z</time>
      </trkpt>
      <trkpt lat="42.74972" lon="1.9471">
        <ele>1645.4</ele>
        <time>2021-10-09T07:46:43Z</time>
      </trkpt>
      <trkpt lat="42.74979" lon="1.94721">
        <ele>1643.8</ele>
        <time>2021-10-09T07:46:46Z</time>
      </trkpt>
      <trkpt lat="42.75007" lon="1.94752">
        <ele>1642</ele>
        <time>2021-10-09T07:46:49Z</time>
      </trkpt>
      <trkpt lat="42.75031" lon="1.9481">
        <ele>1639.2</ele>
        <time>2021-10-09T07:46:54Z</time>
      </trkpt>
      <trkpt lat="42.7505" lon="1.94864">
        <ele>1637</ele>
        <time>2021-10-09T07:46:58Z</time>
      </trkpt>
      <trkpt lat="42.75055" lon="1.94892">
        <ele>1635.6</ele>
        <time>2021-10-09T07:47:00Z</time>
      </trkpt>
      <trkpt lat="42.75055" lon="1.94905">
        <ele>1635.2</ele>
        <time>2021-10-09T07:47:01Z</time>
      </trkpt>
      <trkpt lat="42.75055" lon="1.94939">
        <ele>1633.2</ele>
        <time>2021-10-09T07:47:04Z</time>
      </trkpt>
      <trkpt lat="42.75055" lon="1.94963">
        <ele>1631.2</ele>
        <time>2021-10-09T07:47:07Z</time>
      </trkpt>
      <trkpt lat="42.75056" lon="1.94972">
        <ele>1629.6</ele>
        <time>2021-10-09T07:47:09Z</time>
      </trkpt>
      <trkpt lat="42.75058" lon="1.94979">
        <ele>1629.2</ele>
        <time>2021-10-09T07:47:10Z</time>
      </trkpt>
      <trkpt lat="42.75069" lon="1.94967">
        <ele>1628</ele>
        <time>2021-10-09T07:47:12Z</time>
      </trkpt>
      <trkpt lat="42.7507" lon="1.94961">
        <ele>1627.4</ele>
        <time>2021-10-09T07:47:13Z</time>
      </trkpt>
      <trkpt lat="42.75072" lon="1.94948">
        <ele>1626.2</ele>
        <time>2021-10-09T07:47:15Z</time>
      </trkpt>
      <trkpt lat="42.75076" lon="1.94917">
        <ele>1624.2</ele>
        <time>2021-10-09T07:47:19Z</time>
      </trkpt>
      <trkpt lat="42.75079" lon="1.94876">
        <ele>1622.2</ele>
        <time>2021-10-09T07:47:23Z</time>
      </trkpt>
      <trkpt lat="42.75075" lon="1.9483">
        <ele>1620</ele>
        <time>2021-10-09T07:47:27Z</time>
      </trkpt>
      <trkpt lat="42.75073" lon="1.9482">
        <ele>1619.6</ele>
        <time>2021-10-09T07:47:28Z</time>
      </trkpt>
      <trkpt lat="42.75055" lon="1.94774">
        <ele>1617</ele>
        <time>2021-10-09T07:47:32Z</time>
      </trkpt>
      <trkpt lat="42.7505" lon="1.94761">
        <ele>1616.4</ele>
        <time>2021-10-09T07:47:33Z</time>
      </trkpt>
      <trkpt lat="42.75048" lon="1.94735">
        <ele>1615</ele>
        <time>2021-10-09T07:47:35Z</time>
      </trkpt>
      <trkpt lat="42.75046" lon="1.94701">
        <ele>1613</ele>
        <time>2021-10-09T07:47:38Z</time>
      </trkpt>
      <trkpt lat="42.75044" lon="1.94692">
        <ele>1612.4</ele>
        <time>2021-10-09T07:47:39Z</time>
      </trkpt>
      <trkpt lat="42.75043" lon="1.94684">
        <ele>1611.6</ele>
        <time>2021-10-09T07:47:40Z</time>
      </trkpt>
      <trkpt lat="42.7504" lon="1.94669">
        <ele>1610.4</ele>
        <time>2021-10-09T07:47:42Z</time>
      </trkpt>
      <trkpt lat="42.75039" lon="1.94663">
        <ele>1609.8</ele>
        <time>2021-10-09T07:47:43Z</time>
      </trkpt>
      <trkpt lat="42.75045" lon="1.94657">
        <ele>1608.6</ele>
        <time>2021-10-09T07:47:45Z</time>
      </trkpt>
      <trkpt lat="42.75048" lon="1.94657">
        <ele>1607.6</ele>
        <time>2021-10-09T07:47:47Z</time>
      </trkpt>
      <trkpt lat="42.75049" lon="1.94664">
        <ele>1606.8</ele>
        <time>2021-10-09T07:47:49Z</time>
      </trkpt>
      <trkpt lat="42.75049" lon="1.9467">
        <ele>1606.2</ele>
        <time>2021-10-09T07:47:50Z</time>
      </trkpt>
      <trkpt lat="42.75049" lon="1.94678">
        <ele>1605.6</ele>
        <time>2021-10-09T07:47:51Z</time>
      </trkpt>
      <trkpt lat="42.75052" lon="1.94695">
        <ele>1604.4</ele>
        <time>2021-10-09T07:47:53Z</time>
      </trkpt>
      <trkpt lat="42.75054" lon="1.94704">
        <ele>1603.8</ele>
        <time>2021-10-09T07:47:54Z</time>
      </trkpt>
      <trkpt lat="42.75063" lon="1.94732">
        <ele>1602</ele>
        <time>2021-10-09T07:47:57Z</time>
      </trkpt>
      <trkpt lat="42.75067" lon="1.94741">
        <ele>1601.4</ele>
        <time>2021-10-09T07:47:58Z</time>
      </trkpt>
      <trkpt lat="42.75093" lon="1.94778">
        <ele>1599.2</ele>
        <time>2021-10-09T07:48:02Z</time>
      </trkpt>
      <trkpt lat="42.75114" lon="1.94808">
        <ele>1597.6</ele>
        <time>2021-10-09T07:48:05Z</time>
      </trkpt>
      <trkpt lat="42.7512" lon="1.94818">
        <ele>1597</ele>
        <time>2021-10-09T07:48:06Z</time>
      </trkpt>
      <trkpt lat="42.75124" lon="1.9483">
        <ele>1596.4</ele>
        <time>2021-10-09T07:48:07Z</time>
      </trkpt>
      <trkpt lat="42.75129" lon="1.94854">
        <ele>1595.2</ele>
        <time>2021-10-09T07:48:09Z</time>
      </trkpt>
      <trkpt lat="42.75129" lon="1.94918">
        <ele>1592.4</ele>
        <time>2021-10-09T07:48:14Z</time>
      </trkpt>
      <trkpt lat="42.75127" lon="1.9494">
        <ele>1591.2</ele>
        <time>2021-10-09T07:48:16Z</time>
      </trkpt>
      <trkpt lat="42.75124" lon="1.94959">
        <ele>1590</ele>
        <time>2021-10-09T07:48:18Z</time>
      </trkpt>
      <trkpt lat="42.75122" lon="1.94969">
        <ele>1589.6</ele>
        <time>2021-10-09T07:48:19Z</time>
      </trkpt>
      <trkpt lat="42.75115" lon="1.95">
        <ele>1587.8</ele>
        <time>2021-10-09T07:48:22Z</time>
      </trkpt>
      <trkpt lat="42.75111" lon="1.95022">
        <ele>1586.6</ele>
        <time>2021-10-09T07:48:24Z</time>
      </trkpt>
      <trkpt lat="42.75107" lon="1.95055">
        <ele>1584.8</ele>
        <time>2021-10-09T07:48:27Z</time>
      </trkpt>
      <trkpt lat="42.75098" lon="1.95085">
        <ele>1583</ele>
        <time>2021-10-09T07:48:30Z</time>
      </trkpt>
      <trkpt lat="42.75093" lon="1.95092">
        <ele>1582.4</ele>
        <time>2021-10-09T07:48:31Z</time>
      </trkpt>
      <trkpt lat="42.75088" lon="1.95099">
        <ele>1581.6</ele>
        <time>2021-10-09T07:48:32Z</time>
      </trkpt>
      <trkpt lat="42.75081" lon="1.9512">
        <ele>1580.4</ele>
        <time>2021-10-09T07:48:34Z</time>
      </trkpt>
      <trkpt lat="42.75079" lon="1.95152">
        <ele>1578.6</ele>
        <time>2021-10-09T07:48:37Z</time>
      </trkpt>
      <trkpt lat="42.75079" lon="1.95163">
        <ele>1578</ele>
        <time>2021-10-09T07:48:38Z</time>
      </trkpt>
      <trkpt lat="42.75084" lon="1.95183">
        <ele>1576.8</ele>
        <time>2021-10-09T07:48:40Z</time>
      </trkpt>
      <trkpt lat="42.75081" lon="1.95203">
        <ele>1575.6</ele>
        <time>2021-10-09T07:48:42Z</time>
      </trkpt>
      <trkpt lat="42.75076" lon="1.9523">
        <ele>1573.8</ele>
        <time>2021-10-09T07:48:45Z</time>
      </trkpt>
      <trkpt lat="42.75077" lon="1.95239">
        <ele>1573.2</ele>
        <time>2021-10-09T07:48:46Z</time>
      </trkpt>
      <trkpt lat="42.75079" lon="1.95245">
        <ele>1572.6</ele>
        <time>2021-10-09T07:48:47Z</time>
      </trkpt>
      <trkpt lat="42.75087" lon="1.95262">
        <ele>1571.4</ele>
        <time>2021-10-09T07:48:49Z</time>
      </trkpt>
      <trkpt lat="42.75087" lon="1.95278">
        <ele>1570.2</ele>
        <time>2021-10-09T07:48:51Z</time>
      </trkpt>
      <trkpt lat="42.75078" lon="1.95289">
        <ele>1569</ele>
        <time>2021-10-09T07:48:53Z</time>
      </trkpt>
      <trkpt lat="42.75073" lon="1.95293">
        <ele>1568.4</ele>
        <time>2021-10-09T07:48:54Z</time>
      </trkpt>
      <trkpt lat="42.75061" lon="1.95302">
        <ele>1567</ele>
        <time>2021-10-09T07:48:56Z</time>
      </trkpt>
      <trkpt lat="42.7505" lon="1.95316">
        <ele>1565.6</ele>
        <time>2021-10-09T07:48:58Z</time>
      </trkpt>
      <trkpt lat="42.7504" lon="1.95332">
        <ele>1564.4</ele>
        <time>2021-10-09T07:49:00Z</time>
      </trkpt>
      <trkpt lat="42.75035" lon="1.9534">
        <ele>1563.8</ele>
        <time>2021-10-09T07:49:01Z</time>
      </trkpt>
      <trkpt lat="42.75027" lon="1.95346">
        <ele>1563.2</ele>
        <time>2021-10-09T07:49:02Z</time>
      </trkpt>
      <trkpt lat="42.7501" lon="1.95355">
        <ele>1561.8</ele>
        <time>2021-10-09T07:49:04Z</time>
      </trkpt>
      <trkpt lat="42.75002" lon="1.95362">
        <ele>1561.2</ele>
        <time>2021-10-09T07:49:05Z</time>
      </trkpt>
      <trkpt lat="42.74996" lon="1.95372">
        <ele>1560.6</ele>
        <time>2021-10-09T07:49:06Z</time>
      </trkpt>
      <trkpt lat="42.74984" lon="1.9539">
        <ele>1559.4</ele>
        <time>2021-10-09T07:49:08Z</time>
      </trkpt>
      <trkpt lat="42.74979" lon="1.954">
        <ele>1558.8</ele>
        <time>2021-10-09T07:49:09Z</time>
      </trkpt>
      <trkpt lat="42.74976" lon="1.95413">
        <ele>1558.2</ele>
        <time>2021-10-09T07:49:10Z</time>
      </trkpt>
      <trkpt lat="42.74972" lon="1.95433">
        <ele>1557</ele>
        <time>2021-10-09T07:49:12Z</time>
      </trkpt>
      <trkpt lat="42.7497" lon="1.95441">
        <ele>1556.4</ele>
        <time>2021-10-09T07:49:13Z</time>
      </trkpt>
      <trkpt lat="42.74967" lon="1.95448">
        <ele>1555.8</ele>
        <time>2021-10-09T07:49:14Z</time>
      </trkpt>
      <trkpt lat="42.74943" lon="1.95473">
        <ele>1553.4</ele>
        <time>2021-10-09T07:49:18Z</time>
      </trkpt>
      <trkpt lat="42.74918" lon="1.95511">
        <ele>1551</ele>
        <time>2021-10-09T07:49:22Z</time>
      </trkpt>
      <trkpt lat="42.74912" lon="1.95522">
        <ele>1550.2</ele>
        <time>2021-10-09T07:49:23Z</time>
      </trkpt>
      <trkpt lat="42.74897" lon="1.95555">
        <ele>1548.4</ele>
        <time>2021-10-09T07:49:26Z</time>
      </trkpt>
      <trkpt lat="42.74879" lon="1.95594">
        <ele>1545.8</ele>
        <time>2021-10-09T07:49:30Z</time>
      </trkpt>
      <trkpt lat="42.74864" lon="1.95618">
        <ele>1544</ele>
        <time>2021-10-09T07:49:33Z</time>
      </trkpt>
      <trkpt lat="42.7486" lon="1.95625">
        <ele>1543.2</ele>
        <time>2021-10-09T07:49:34Z</time>
      </trkpt>
      <trkpt lat="42.74856" lon="1.95631">
        <ele>1542.6</ele>
        <time>2021-10-09T07:49:35Z</time>
      </trkpt>
      <trkpt lat="42.74851" lon="1.95635">
        <ele>1542</ele>
        <time>2021-10-09T07:49:36Z</time>
      </trkpt>
      <trkpt lat="42.74835" lon="1.95647">
        <ele>1539.8</ele>
        <time>2021-10-09T07:49:39Z</time>
      </trkpt>
      <trkpt lat="42.74828" lon="1.95651">
        <ele>1539</ele>
        <time>2021-10-09T07:49:40Z</time>
      </trkpt>
      <trkpt lat="42.74798" lon="1.95669">
        <ele>1536</ele>
        <time>2021-10-09T07:49:44Z</time>
      </trkpt>
      <trkpt lat="42.74769" lon="1.95685">
        <ele>1532.6</ele>
        <time>2021-10-09T07:49:48Z</time>
      </trkpt>
      <trkpt lat="42.74744" lon="1.95707">
        <ele>1529.2</ele>
        <time>2021-10-09T07:49:52Z</time>
      </trkpt>
      <trkpt lat="42.74738" lon="1.95713">
        <ele>1528.2</ele>
        <time>2021-10-09T07:49:53Z</time>
      </trkpt>
      <trkpt lat="42.74725" lon="1.95726">
        <ele>1526.8</ele>
        <time>2021-10-09T07:49:55Z</time>
      </trkpt>
      <trkpt lat="42.74708" lon="1.95725">
        <ele>1525.6</ele>
        <time>2021-10-09T07:49:57Z</time>
      </trkpt>
      <trkpt lat="42.747" lon="1.95723">
        <ele>1525</ele>
        <time>2021-10-09T07:49:58Z</time>
      </trkpt>
      <trkpt lat="42.74683" lon="1.95717">
        <ele>1524</ele>
        <time>2021-10-09T07:50:00Z</time>
      </trkpt>
      <trkpt lat="42.74675" lon="1.95714">
        <ele>1523.4</ele>
        <time>2021-10-09T07:50:01Z</time>
      </trkpt>
      <trkpt lat="42.74649" lon="1.95705">
        <ele>1521.8</ele>
        <time>2021-10-09T07:50:04Z</time>
      </trkpt>
      <trkpt lat="42.74641" lon="1.95704">
        <ele>1521.4</ele>
        <time>2021-10-09T07:50:05Z</time>
      </trkpt>
      <trkpt lat="42.74632" lon="1.95703">
        <ele>1520.8</ele>
        <time>2021-10-09T07:50:06Z</time>
      </trkpt>
      <trkpt lat="42.74614" lon="1.957">
        <ele>1519.8</ele>
        <time>2021-10-09T07:50:08Z</time>
      </trkpt>
      <trkpt lat="42.74596" lon="1.957">
        <ele>1518.6</ele>
        <time>2021-10-09T07:50:10Z</time>
      </trkpt>
      <trkpt lat="42.74589" lon="1.957">
        <ele>1518</ele>
        <time>2021-10-09T07:50:11Z</time>
      </trkpt>
      <trkpt lat="42.74574" lon="1.95698">
        <ele>1517</ele>
        <time>2021-10-09T07:50:13Z</time>
      </trkpt>
      <trkpt lat="42.74567" lon="1.95692">
        <ele>1516.4</ele>
        <time>2021-10-09T07:50:14Z</time>
      </trkpt>
      <trkpt lat="42.74555" lon="1.95677">
        <ele>1515</ele>
        <time>2021-10-09T07:50:16Z</time>
      </trkpt>
      <trkpt lat="42.74539" lon="1.95661">
        <ele>1513.8</ele>
        <time>2021-10-09T07:50:18Z</time>
      </trkpt>
      <trkpt lat="42.74531" lon="1.95657">
        <ele>1513.2</ele>
        <time>2021-10-09T07:50:19Z</time>
      </trkpt>
      <trkpt lat="42.74507" lon="1.95644">
        <ele>1511.4</ele>
        <time>2021-10-09T07:50:22Z</time>
      </trkpt>
      <trkpt lat="42.74468" lon="1.95615">
        <ele>1508.8</ele>
        <time>2021-10-09T07:50:26Z</time>
      </trkpt>
      <trkpt lat="42.74433" lon="1.95586">
        <ele>1506.6</ele>
        <time>2021-10-09T07:50:30Z</time>
      </trkpt>
      <trkpt lat="42.74399" lon="1.95558">
        <ele>1504.2</ele>
        <time>2021-10-09T07:50:34Z</time>
      </trkpt>
      <trkpt lat="42.7439" lon="1.9555">
        <ele>1503.6</ele>
        <time>2021-10-09T07:50:35Z</time>
      </trkpt>
      <trkpt lat="42.74382" lon="1.95543">
        <ele>1503</ele>
        <time>2021-10-09T07:50:36Z</time>
      </trkpt>
      <trkpt lat="42.74367" lon="1.95529">
        <ele>1501.8</ele>
        <time>2021-10-09T07:50:38Z</time>
      </trkpt>
      <trkpt lat="42.74352" lon="1.95516">
        <ele>1500.4</ele>
        <time>2021-10-09T07:50:40Z</time>
      </trkpt>
      <trkpt lat="42.74337" lon="1.95506">
        <ele>1499.2</ele>
        <time>2021-10-09T07:50:42Z</time>
      </trkpt>
      <trkpt lat="42.7431" lon="1.95514">
        <ele>1497</ele>
        <time>2021-10-09T07:50:45Z</time>
      </trkpt>
      <trkpt lat="42.74307" lon="1.95538">
        <ele>1495.6</ele>
        <time>2021-10-09T07:50:47Z</time>
      </trkpt>
      <trkpt lat="42.74309" lon="1.95572">
        <ele>1493.8</ele>
        <time>2021-10-09T07:50:50Z</time>
      </trkpt>
      <trkpt lat="42.74316" lon="1.95629">
        <ele>1491.6</ele>
        <time>2021-10-09T07:50:54Z</time>
      </trkpt>
      <trkpt lat="42.74322" lon="1.95669">
        <ele>1490</ele>
        <time>2021-10-09T07:50:57Z</time>
      </trkpt>
      <trkpt lat="42.74327" lon="1.95682">
        <ele>1489.4</ele>
        <time>2021-10-09T07:50:58Z</time>
      </trkpt>
      <trkpt lat="42.74335" lon="1.95693">
        <ele>1488.8</ele>
        <time>2021-10-09T07:50:59Z</time>
      </trkpt>
      <trkpt lat="42.74343" lon="1.95702">
        <ele>1488.2</ele>
        <time>2021-10-09T07:51:00Z</time>
      </trkpt>
      <trkpt lat="42.74377" lon="1.95739">
        <ele>1486.2</ele>
        <time>2021-10-09T07:51:04Z</time>
      </trkpt>
      <trkpt lat="42.74403" lon="1.95781">
        <ele>1484.2</ele>
        <time>2021-10-09T07:51:08Z</time>
      </trkpt>
      <trkpt lat="42.74408" lon="1.95791">
        <ele>1483.6</ele>
        <time>2021-10-09T07:51:09Z</time>
      </trkpt>
      <trkpt lat="42.74411" lon="1.95811">
        <ele>1482.6</ele>
        <time>2021-10-09T07:51:11Z</time>
      </trkpt>
      <trkpt lat="42.74415" lon="1.95862">
        <ele>1480.4</ele>
        <time>2021-10-09T07:51:15Z</time>
      </trkpt>
      <trkpt lat="42.74426" lon="1.95884">
        <ele>1479.4</ele>
        <time>2021-10-09T07:51:17Z</time>
      </trkpt>
      <trkpt lat="42.74432" lon="1.95896">
        <ele>1479</ele>
        <time>2021-10-09T07:51:18Z</time>
      </trkpt>
      <trkpt lat="42.74465" lon="1.95946">
        <ele>1476.6</ele>
        <time>2021-10-09T07:51:23Z</time>
      </trkpt>
      <trkpt lat="42.74477" lon="1.9595">
        <ele>1475.6</ele>
        <time>2021-10-09T07:51:25Z</time>
      </trkpt>
      <trkpt lat="42.74494" lon="1.95946">
        <ele>1474.6</ele>
        <time>2021-10-09T07:51:27Z</time>
      </trkpt>
      <trkpt lat="42.74546" lon="1.95929">
        <ele>1471.8</ele>
        <time>2021-10-09T07:51:32Z</time>
      </trkpt>
      <trkpt lat="42.746" lon="1.95908">
        <ele>1468.6</ele>
        <time>2021-10-09T07:51:37Z</time>
      </trkpt>
      <trkpt lat="42.7461" lon="1.95906">
        <ele>1468</ele>
        <time>2021-10-09T07:51:38Z</time>
      </trkpt>
      <trkpt lat="42.74631" lon="1.9591">
        <ele>1466.8</ele>
        <time>2021-10-09T07:51:40Z</time>
      </trkpt>
      <trkpt lat="42.74641" lon="1.95914">
        <ele>1466.2</ele>
        <time>2021-10-09T07:51:41Z</time>
      </trkpt>
      <trkpt lat="42.74694" lon="1.95944">
        <ele>1464.2</ele>
        <time>2021-10-09T07:51:46Z</time>
      </trkpt>
      <trkpt lat="42.74706" lon="1.95951">
        <ele>1463.8</ele>
        <time>2021-10-09T07:51:47Z</time>
      </trkpt>
      <trkpt lat="42.7475" lon="1.95974">
        <ele>1462</ele>
        <time>2021-10-09T07:51:51Z</time>
      </trkpt>
      <trkpt lat="42.74798" lon="1.96009">
        <ele>1459.4</ele>
        <time>2021-10-09T07:51:56Z</time>
      </trkpt>
      <trkpt lat="42.74818" lon="1.96019">
        <ele>1458.4</ele>
        <time>2021-10-09T07:51:58Z</time>
      </trkpt>
      <trkpt lat="42.74829" lon="1.96022">
        <ele>1458</ele>
        <time>2021-10-09T07:51:59Z</time>
      </trkpt>
      <trkpt lat="42.74872" lon="1.96021">
        <ele>1454.6</ele>
        <time>2021-10-09T07:52:03Z</time>
      </trkpt>
      <trkpt lat="42.74915" lon="1.9601">
        <ele>1452</ele>
        <time>2021-10-09T07:52:07Z</time>
      </trkpt>
      <trkpt lat="42.74923" lon="1.96007">
        <ele>1451.4</ele>
        <time>2021-10-09T07:52:08Z</time>
      </trkpt>
      <trkpt lat="42.74964" lon="1.96001">
        <ele>1449.2</ele>
        <time>2021-10-09T07:52:12Z</time>
      </trkpt>
      <trkpt lat="42.74982" lon="1.95998">
        <ele>1448.4</ele>
        <time>2021-10-09T07:52:14Z</time>
      </trkpt>
      <trkpt lat="42.75" lon="1.96003">
        <ele>1447.4</ele>
        <time>2021-10-09T07:52:16Z</time>
      </trkpt>
      <trkpt lat="42.75033" lon="1.96013">
        <ele>1445.8</ele>
        <time>2021-10-09T07:52:19Z</time>
      </trkpt>
      <trkpt lat="42.75062" lon="1.96008">
        <ele>1444.4</ele>
        <time>2021-10-09T07:52:22Z</time>
      </trkpt>
      <trkpt lat="42.75073" lon="1.96003">
        <ele>1443.8</ele>
        <time>2021-10-09T07:52:23Z</time>
      </trkpt>
      <trkpt lat="42.75086" lon="1.95986">
        <ele>1442.6</ele>
        <time>2021-10-09T07:52:25Z</time>
      </trkpt>
      <trkpt lat="42.75098" lon="1.9597">
        <ele>1440.8</ele>
        <time>2021-10-09T07:52:27Z</time>
      </trkpt>
      <trkpt lat="42.75104" lon="1.95966">
        <ele>1440.2</ele>
        <time>2021-10-09T07:52:28Z</time>
      </trkpt>
      <trkpt lat="42.75112" lon="1.95964">
        <ele>1439.6</ele>
        <time>2021-10-09T07:52:29Z</time>
      </trkpt>
      <trkpt lat="42.75129" lon="1.95962">
        <ele>1438</ele>
        <time>2021-10-09T07:52:31Z</time>
      </trkpt>
      <trkpt lat="42.75157" lon="1.95951">
        <ele>1435.8</ele>
        <time>2021-10-09T07:52:34Z</time>
      </trkpt>
      <trkpt lat="42.75168" lon="1.95946">
        <ele>1435.2</ele>
        <time>2021-10-09T07:52:35Z</time>
      </trkpt>
      <trkpt lat="42.75212" lon="1.9593">
        <ele>1432.4</ele>
        <time>2021-10-09T07:52:39Z</time>
      </trkpt>
      <trkpt lat="42.7526" lon="1.95917">
        <ele>1429.8</ele>
        <time>2021-10-09T07:52:43Z</time>
      </trkpt>
      <trkpt lat="42.75271" lon="1.95916">
        <ele>1429.2</ele>
        <time>2021-10-09T07:52:44Z</time>
      </trkpt>
      <trkpt lat="42.75287" lon="1.95921">
        <ele>1428</ele>
        <time>2021-10-09T07:52:46Z</time>
      </trkpt>
      <trkpt lat="42.75305" lon="1.95921">
        <ele>1426.4</ele>
        <time>2021-10-09T07:52:48Z</time>
      </trkpt>
      <trkpt lat="42.7531" lon="1.95916">
        <ele>1425.2</ele>
        <time>2021-10-09T07:52:49Z</time>
      </trkpt>
      <trkpt lat="42.7531" lon="1.95916">
        <ele>1424.2</ele>
        <time>2021-10-09T07:52:50Z</time>
      </trkpt>
      <trkpt lat="42.7531" lon="1.95905">
        <ele>1421.8</ele>
        <time>2021-10-09T07:52:52Z</time>
      </trkpt>
      <trkpt lat="42.75309" lon="1.95902">
        <ele>1420</ele>
        <time>2021-10-09T07:52:53Z</time>
      </trkpt>
      <trkpt lat="42.75306" lon="1.95898">
        <ele>1418.6</ele>
        <time>2021-10-09T07:52:54Z</time>
      </trkpt>
      <trkpt lat="42.75298" lon="1.95896">
        <ele>1417.6</ele>
        <time>2021-10-09T07:52:55Z</time>
      </trkpt>
      <trkpt lat="42.75291" lon="1.95897">
        <ele>1416.6</ele>
        <time>2021-10-09T07:52:56Z</time>
      </trkpt>
      <trkpt lat="42.75271" lon="1.959">
        <ele>1414</ele>
        <time>2021-10-09T07:52:59Z</time>
      </trkpt>
      <trkpt lat="42.75265" lon="1.959">
        <ele>1413.2</ele>
        <time>2021-10-09T07:53:00Z</time>
      </trkpt>
      <trkpt lat="42.75237" lon="1.95899">
        <ele>1410</ele>
        <time>2021-10-09T07:53:04Z</time>
      </trkpt>
      <trkpt lat="42.75211" lon="1.95902">
        <ele>1407.6</ele>
        <time>2021-10-09T07:53:07Z</time>
      </trkpt>
      <trkpt lat="42.75201" lon="1.95903">
        <ele>1407</ele>
        <time>2021-10-09T07:53:08Z</time>
      </trkpt>
      <trkpt lat="42.75154" lon="1.95902">
        <ele>1403.8</ele>
        <time>2021-10-09T07:53:13Z</time>
      </trkpt>
      <trkpt lat="42.75135" lon="1.959">
        <ele>1402.4</ele>
        <time>2021-10-09T07:53:15Z</time>
      </trkpt>
      <trkpt lat="42.75116" lon="1.95897">
        <ele>1401</ele>
        <time>2021-10-09T07:53:17Z</time>
      </trkpt>
      <trkpt lat="42.75098" lon="1.95896">
        <ele>1399.6</ele>
        <time>2021-10-09T07:53:19Z</time>
      </trkpt>
      <trkpt lat="42.7508" lon="1.95902">
        <ele>1398</ele>
        <time>2021-10-09T07:53:21Z</time>
      </trkpt>
      <trkpt lat="42.75067" lon="1.95905">
        <ele>1396.2</ele>
        <time>2021-10-09T07:53:23Z</time>
      </trkpt>
      <trkpt lat="42.75062" lon="1.95905">
        <ele>1395.4</ele>
        <time>2021-10-09T07:53:24Z</time>
      </trkpt>
      <trkpt lat="42.75058" lon="1.95903">
        <ele>1394.8</ele>
        <time>2021-10-09T07:53:25Z</time>
      </trkpt>
      <trkpt lat="42.75054" lon="1.95899">
        <ele>1394</ele>
        <time>2021-10-09T07:53:26Z</time>
      </trkpt>
      <trkpt lat="42.75053" lon="1.95893">
        <ele>1393.4</ele>
        <time>2021-10-09T07:53:27Z</time>
      </trkpt>
      <trkpt lat="42.75051" lon="1.95883">
        <ele>1392.6</ele>
        <time>2021-10-09T07:53:28Z</time>
      </trkpt>
      <trkpt lat="42.75052" lon="1.95879">
        <ele>1392</ele>
        <time>2021-10-09T07:53:29Z</time>
      </trkpt>
      <trkpt lat="42.75058" lon="1.9587">
        <ele>1390.6</ele>
        <time>2021-10-09T07:53:31Z</time>
      </trkpt>
      <trkpt lat="42.75065" lon="1.95865">
        <ele>1389.4</ele>
        <time>2021-10-09T07:53:33Z</time>
      </trkpt>
      <trkpt lat="42.75074" lon="1.9586">
        <ele>1388.2</ele>
        <time>2021-10-09T07:53:35Z</time>
      </trkpt>
      <trkpt lat="42.75106" lon="1.9586">
        <ele>1386.8</ele>
        <time>2021-10-09T07:53:37Z</time>
      </trkpt>
      <trkpt lat="42.75135" lon="1.95868">
        <ele>1385.6</ele>
        <time>2021-10-09T07:53:39Z</time>
      </trkpt>
      <trkpt lat="42.75147" lon="1.95866">
        <ele>1385</ele>
        <time>2021-10-09T07:53:40Z</time>
      </trkpt>
      <trkpt lat="42.75159" lon="1.95864">
        <ele>1384.4</ele>
        <time>2021-10-09T07:53:41Z</time>
      </trkpt>
      <trkpt lat="42.75194" lon="1.95856">
        <ele>1382.6</ele>
        <time>2021-10-09T07:53:44Z</time>
      </trkpt>
      <trkpt lat="42.75216" lon="1.9585">
        <ele>1381.4</ele>
        <time>2021-10-09T07:53:46Z</time>
      </trkpt>
      <trkpt lat="42.75226" lon="1.95847">
        <ele>1380.8</ele>
        <time>2021-10-09T07:53:47Z</time>
      </trkpt>
      <trkpt lat="42.7525" lon="1.9584">
        <ele>1379</ele>
        <time>2021-10-09T07:53:49Z</time>
      </trkpt>
      <trkpt lat="42.75268" lon="1.95822">
        <ele>1377.4</ele>
        <time>2021-10-09T07:53:51Z</time>
      </trkpt>
      <trkpt lat="42.75295" lon="1.95786">
        <ele>1374.2</ele>
        <time>2021-10-09T07:53:55Z</time>
      </trkpt>
      <trkpt lat="42.7531" lon="1.95773">
        <ele>1372.6</ele>
        <time>2021-10-09T07:53:57Z</time>
      </trkpt>
      <trkpt lat="42.75317" lon="1.95767">
        <ele>1371.8</ele>
        <time>2021-10-09T07:53:58Z</time>
      </trkpt>
      <trkpt lat="42.7533" lon="1.95762">
        <ele>1370</ele>
        <time>2021-10-09T07:54:00Z</time>
      </trkpt>
      <trkpt lat="42.75335" lon="1.95763">
        <ele>1369</ele>
        <time>2021-10-09T07:54:01Z</time>
      </trkpt>
      <trkpt lat="42.75339" lon="1.95768">
        <ele>1368.2</ele>
        <time>2021-10-09T07:54:02Z</time>
      </trkpt>
      <trkpt lat="42.75342" lon="1.95775">
        <ele>1367.4</ele>
        <time>2021-10-09T07:54:03Z</time>
      </trkpt>
      <trkpt lat="42.75346" lon="1.95786">
        <ele>1366.6</ele>
        <time>2021-10-09T07:54:04Z</time>
      </trkpt>
      <trkpt lat="42.75358" lon="1.95816">
        <ele>1363.8</ele>
        <time>2021-10-09T07:54:06Z</time>
      </trkpt>
      <trkpt lat="42.75366" lon="1.95836">
        <ele>1362.4</ele>
        <time>2021-10-09T07:54:08Z</time>
      </trkpt>
      <trkpt lat="42.75371" lon="1.95845">
        <ele>1361.8</ele>
        <time>2021-10-09T07:54:09Z</time>
      </trkpt>
      <trkpt lat="42.75379" lon="1.95852">
        <ele>1361.2</ele>
        <time>2021-10-09T07:54:10Z</time>
      </trkpt>
      <trkpt lat="42.75397" lon="1.95861">
        <ele>1360</ele>
        <time>2021-10-09T07:54:12Z</time>
      </trkpt>
      <trkpt lat="42.75443" lon="1.95881">
        <ele>1356.2</ele>
        <time>2021-10-09T07:54:17Z</time>
      </trkpt>
      <trkpt lat="42.75454" lon="1.95893">
        <ele>1355.6</ele>
        <time>2021-10-09T07:54:18Z</time>
      </trkpt>
      <trkpt lat="42.75462" lon="1.95902">
        <ele>1354.8</ele>
        <time>2021-10-09T07:54:19Z</time>
      </trkpt>
      <trkpt lat="42.75492" lon="1.95927">
        <ele>1352.4</ele>
        <time>2021-10-09T07:54:22Z</time>
      </trkpt>
      <trkpt lat="42.75502" lon="1.95933">
        <ele>1351.8</ele>
        <time>2021-10-09T07:54:23Z</time>
      </trkpt>
      <trkpt lat="42.7553" lon="1.95952">
        <ele>1349.6</ele>
        <time>2021-10-09T07:54:26Z</time>
      </trkpt>
      <trkpt lat="42.75539" lon="1.95961">
        <ele>1349</ele>
        <time>2021-10-09T07:54:27Z</time>
      </trkpt>
      <trkpt lat="42.75556" lon="1.95981">
        <ele>1347.4</ele>
        <time>2021-10-09T07:54:29Z</time>
      </trkpt>
      <trkpt lat="42.75576" lon="1.95997">
        <ele>1346</ele>
        <time>2021-10-09T07:54:31Z</time>
      </trkpt>
      <trkpt lat="42.75596" lon="1.96014">
        <ele>1344.6</ele>
        <time>2021-10-09T07:54:33Z</time>
      </trkpt>
      <trkpt lat="42.75614" lon="1.96031">
        <ele>1343.2</ele>
        <time>2021-10-09T07:54:35Z</time>
      </trkpt>
      <trkpt lat="42.75633" lon="1.9604">
        <ele>1341.8</ele>
        <time>2021-10-09T07:54:37Z</time>
      </trkpt>
      <trkpt lat="42.75643" lon="1.96044">
        <ele>1341</ele>
        <time>2021-10-09T07:54:38Z</time>
      </trkpt>
      <trkpt lat="42.75681" lon="1.96071">
        <ele>1338.2</ele>
        <time>2021-10-09T07:54:42Z</time>
      </trkpt>
      <trkpt lat="42.75688" lon="1.9608">
        <ele>1337.4</ele>
        <time>2021-10-09T07:54:43Z</time>
      </trkpt>
      <trkpt lat="42.75703" lon="1.96101">
        <ele>1336.2</ele>
        <time>2021-10-09T07:54:45Z</time>
      </trkpt>
      <trkpt lat="42.75727" lon="1.96123">
        <ele>1334.4</ele>
        <time>2021-10-09T07:54:48Z</time>
      </trkpt>
      <trkpt lat="42.75737" lon="1.96129">
        <ele>1333.8</ele>
        <time>2021-10-09T07:54:49Z</time>
      </trkpt>
      <trkpt lat="42.75749" lon="1.96137">
        <ele>1333.4</ele>
        <time>2021-10-09T07:54:50Z</time>
      </trkpt>
      <trkpt lat="42.7577" lon="1.96159">
        <ele>1331.6</ele>
        <time>2021-10-09T07:54:52Z</time>
      </trkpt>
      <trkpt lat="42.75811" lon="1.96194">
        <ele>1328.8</ele>
        <time>2021-10-09T07:54:56Z</time>
      </trkpt>
      <trkpt lat="42.75848" lon="1.96233">
        <ele>1326.2</ele>
        <time>2021-10-09T07:55:00Z</time>
      </trkpt>
      <trkpt lat="42.7587" lon="1.96259">
        <ele>1324.4</ele>
        <time>2021-10-09T07:55:03Z</time>
      </trkpt>
      <trkpt lat="42.75897" lon="1.96279">
        <ele>1322.4</ele>
        <time>2021-10-09T07:55:06Z</time>
      </trkpt>
      <trkpt lat="42.75911" lon="1.96307">
        <ele>1320.8</ele>
        <time>2021-10-09T07:55:08Z</time>
      </trkpt>
      <trkpt lat="42.7592" lon="1.96337">
        <ele>1319.4</ele>
        <time>2021-10-09T07:55:10Z</time>
      </trkpt>
      <trkpt lat="42.75925" lon="1.9635">
        <ele>1318.6</ele>
        <time>2021-10-09T07:55:11Z</time>
      </trkpt>
      <trkpt lat="42.75933" lon="1.96359">
        <ele>1318</ele>
        <time>2021-10-09T07:55:12Z</time>
      </trkpt>
      <trkpt lat="42.7595" lon="1.9638">
        <ele>1316.8</ele>
        <time>2021-10-09T07:55:14Z</time>
      </trkpt>
      <trkpt lat="42.75986" lon="1.96409">
        <ele>1314.4</ele>
        <time>2021-10-09T07:55:18Z</time>
      </trkpt>
      <trkpt lat="42.76013" lon="1.96432">
        <ele>1312.6</ele>
        <time>2021-10-09T07:55:21Z</time>
      </trkpt>
      <trkpt lat="42.7602" lon="1.96444">
        <ele>1312</ele>
        <time>2021-10-09T07:55:22Z</time>
      </trkpt>
      <trkpt lat="42.76027" lon="1.96455">
        <ele>1311.4</ele>
        <time>2021-10-09T07:55:23Z</time>
      </trkpt>
      <trkpt lat="42.76046" lon="1.96477">
        <ele>1310</ele>
        <time>2021-10-09T07:55:25Z</time>
      </trkpt>
      <trkpt lat="42.76056" lon="1.96487">
        <ele>1309.4</ele>
        <time>2021-10-09T07:55:26Z</time>
      </trkpt>
      <trkpt lat="42.76074" lon="1.9651">
        <ele>1308.2</ele>
        <time>2021-10-09T07:55:28Z</time>
      </trkpt>
      <trkpt lat="42.76124" lon="1.96558">
        <ele>1305.2</ele>
        <time>2021-10-09T07:55:33Z</time>
      </trkpt>
      <trkpt lat="42.76162" lon="1.96596">
        <ele>1302.8</ele>
        <time>2021-10-09T07:55:37Z</time>
      </trkpt>
      <trkpt lat="42.7621" lon="1.96633">
        <ele>1299.8</ele>
        <time>2021-10-09T07:55:42Z</time>
      </trkpt>
      <trkpt lat="42.76226" lon="1.96651">
        <ele>1298.4</ele>
        <time>2021-10-09T07:55:44Z</time>
      </trkpt>
      <trkpt lat="42.76239" lon="1.96673">
        <ele>1297.2</ele>
        <time>2021-10-09T07:55:46Z</time>
      </trkpt>
      <trkpt lat="42.76256" lon="1.96708">
        <ele>1295.6</ele>
        <time>2021-10-09T07:55:48Z</time>
      </trkpt>
      <trkpt lat="42.76265" lon="1.96725">
        <ele>1294.8</ele>
        <time>2021-10-09T07:55:49Z</time>
      </trkpt>
      <trkpt lat="42.76273" lon="1.96739">
        <ele>1294.2</ele>
        <time>2021-10-09T07:55:50Z</time>
      </trkpt>
      <trkpt lat="42.76292" lon="1.96781">
        <ele>1292.6</ele>
        <time>2021-10-09T07:55:53Z</time>
      </trkpt>
      <trkpt lat="42.76292" lon="1.96781">
        <ele>1291.8</ele>
        <time>2021-10-09T07:55:54Z</time>
      </trkpt>
      <trkpt lat="42.76289" lon="1.96809">
        <ele>1290.4</ele>
        <time>2021-10-09T07:55:56Z</time>
      </trkpt>
      <trkpt lat="42.76284" lon="1.96831">
        <ele>1289.6</ele>
        <time>2021-10-09T07:55:58Z</time>
      </trkpt>
      <trkpt lat="42.76282" lon="1.96847">
        <ele>1289</ele>
        <time>2021-10-09T07:55:59Z</time>
      </trkpt>
      <trkpt lat="42.76282" lon="1.96882">
        <ele>1287.4</ele>
        <time>2021-10-09T07:56:02Z</time>
      </trkpt>
      <trkpt lat="42.76281" lon="1.9689">
        <ele>1286.4</ele>
        <time>2021-10-09T07:56:03Z</time>
      </trkpt>
      <trkpt lat="42.76281" lon="1.96895">
        <ele>1285.4</ele>
        <time>2021-10-09T07:56:04Z</time>
      </trkpt>
      <trkpt lat="42.76293" lon="1.96884">
        <ele>1284</ele>
        <time>2021-10-09T07:56:05Z</time>
      </trkpt>
      <trkpt lat="42.76297" lon="1.96884">
        <ele>1282.8</ele>
        <time>2021-10-09T07:56:06Z</time>
      </trkpt>
      <trkpt lat="42.76299" lon="1.96883">
        <ele>1282</ele>
        <time>2021-10-09T07:56:07Z</time>
      </trkpt>
      <trkpt lat="42.76303" lon="1.96881">
        <ele>1281.4</ele>
        <time>2021-10-09T07:56:08Z</time>
      </trkpt>
      <trkpt lat="42.76304" lon="1.96875">
        <ele>1281</ele>
        <time>2021-10-09T07:56:09Z</time>
      </trkpt>
      <trkpt lat="42.76306" lon="1.96864">
        <ele>1280.2</ele>
        <time>2021-10-09T07:56:10Z</time>
      </trkpt>
      <trkpt lat="42.76314" lon="1.96842">
        <ele>1278.4</ele>
        <time>2021-10-09T07:56:12Z</time>
      </trkpt>
      <trkpt lat="42.76336" lon="1.9678">
        <ele>1272.6</ele>
        <time>2021-10-09T07:56:17Z</time>
      </trkpt>
      <trkpt lat="42.76347" lon="1.9673">
        <ele>1267.6</ele>
        <time>2021-10-09T07:56:21Z</time>
      </trkpt>
      <trkpt lat="42.76354" lon="1.96708">
        <ele>1264.4</ele>
        <time>2021-10-09T07:56:23Z</time>
      </trkpt>
      <trkpt lat="42.76361" lon="1.96699">
        <ele>1262</ele>
        <time>2021-10-09T07:56:25Z</time>
      </trkpt>
      <trkpt lat="42.76384" lon="1.96682">
        <ele>1258.2</ele>
        <time>2021-10-09T07:56:28Z</time>
      </trkpt>
      <trkpt lat="42.76397" lon="1.96662">
        <ele>1255.8</ele>
        <time>2021-10-09T07:56:30Z</time>
      </trkpt>
      <trkpt lat="42.76401" lon="1.96652">
        <ele>1254.8</ele>
        <time>2021-10-09T07:56:31Z</time>
      </trkpt>
      <trkpt lat="42.76404" lon="1.96642">
        <ele>1253.8</ele>
        <time>2021-10-09T07:56:32Z</time>
      </trkpt>
      <trkpt lat="42.76412" lon="1.96629">
        <ele>1251.6</ele>
        <time>2021-10-09T07:56:34Z</time>
      </trkpt>
      <trkpt lat="42.76429" lon="1.96618">
        <ele>1248.8</ele>
        <time>2021-10-09T07:56:37Z</time>
      </trkpt>
      <trkpt lat="42.76443" lon="1.96618">
        <ele>1246.8</ele>
        <time>2021-10-09T07:56:39Z</time>
      </trkpt>
      <trkpt lat="42.76473" lon="1.96623">
        <ele>1244.2</ele>
        <time>2021-10-09T07:56:42Z</time>
      </trkpt>
      <trkpt lat="42.76485" lon="1.96623">
        <ele>1243.2</ele>
        <time>2021-10-09T07:56:43Z</time>
      </trkpt>
      <trkpt lat="42.76519" lon="1.96617">
        <ele>1240</ele>
        <time>2021-10-09T07:56:46Z</time>
      </trkpt>
      <trkpt lat="42.76529" lon="1.96612">
        <ele>1239</ele>
        <time>2021-10-09T07:56:47Z</time>
      </trkpt>
      <trkpt lat="42.76573" lon="1.96588">
        <ele>1234.2</ele>
        <time>2021-10-09T07:56:51Z</time>
      </trkpt>
      <trkpt lat="42.76594" lon="1.96583">
        <ele>1232.4</ele>
        <time>2021-10-09T07:56:53Z</time>
      </trkpt>
      <trkpt lat="42.76615" lon="1.96577">
        <ele>1230.4</ele>
        <time>2021-10-09T07:56:55Z</time>
      </trkpt>
      <trkpt lat="42.76627" lon="1.96571">
        <ele>1229.4</ele>
        <time>2021-10-09T07:56:56Z</time>
      </trkpt>
      <trkpt lat="42.76644" lon="1.96553">
        <ele>1227.4</ele>
        <time>2021-10-09T07:56:58Z</time>
      </trkpt>
      <trkpt lat="42.76686" lon="1.96532">
        <ele>1223.6</ele>
        <time>2021-10-09T07:57:02Z</time>
      </trkpt>
      <trkpt lat="42.76739" lon="1.96499">
        <ele>1219</ele>
        <time>2021-10-09T07:57:07Z</time>
      </trkpt>
      <trkpt lat="42.76747" lon="1.96492">
        <ele>1218.2</ele>
        <time>2021-10-09T07:57:08Z</time>
      </trkpt>
      <trkpt lat="42.76763" lon="1.96487">
        <ele>1216.6</ele>
        <time>2021-10-09T07:57:10Z</time>
      </trkpt>
      <trkpt lat="42.76779" lon="1.9649">
        <ele>1215</ele>
        <time>2021-10-09T07:57:12Z</time>
      </trkpt>
      <trkpt lat="42.76787" lon="1.96493">
        <ele>1214.2</ele>
        <time>2021-10-09T07:57:13Z</time>
      </trkpt>
      <trkpt lat="42.76823" lon="1.96495">
        <ele>1211</ele>
        <time>2021-10-09T07:57:17Z</time>
      </trkpt>
      <trkpt lat="42.76831" lon="1.96494">
        <ele>1210.2</ele>
        <time>2021-10-09T07:57:18Z</time>
      </trkpt>
      <trkpt lat="42.76839" lon="1.96491">
        <ele>1209.4</ele>
        <time>2021-10-09T07:57:19Z</time>
      </trkpt>
      <trkpt lat="42.76862" lon="1.96481">
        <ele>1206.8</ele>
        <time>2021-10-09T07:57:22Z</time>
      </trkpt>
      <trkpt lat="42.76882" lon="1.96471">
        <ele>1204.4</ele>
        <time>2021-10-09T07:57:25Z</time>
      </trkpt>
      <trkpt lat="42.76896" lon="1.96471">
        <ele>1202.6</ele>
        <time>2021-10-09T07:57:27Z</time>
      </trkpt>
      <trkpt lat="42.76916" lon="1.96479">
        <ele>1200.2</ele>
        <time>2021-10-09T07:57:30Z</time>
      </trkpt>
      <trkpt lat="42.76947" lon="1.96481">
        <ele>1196.8</ele>
        <time>2021-10-09T07:57:34Z</time>
      </trkpt>
      <trkpt lat="42.76955" lon="1.96481">
        <ele>1195.8</ele>
        <time>2021-10-09T07:57:35Z</time>
      </trkpt>
      <trkpt lat="42.76989" lon="1.96483">
        <ele>1191.4</ele>
        <time>2021-10-09T07:57:40Z</time>
      </trkpt>
      <trkpt lat="42.7703" lon="1.96483">
        <ele>1185.6</ele>
        <time>2021-10-09T07:57:47Z</time>
      </trkpt>
      <trkpt lat="42.77059" lon="1.96468">
        <ele>1181.4</ele>
        <time>2021-10-09T07:57:52Z</time>
      </trkpt>
      <trkpt lat="42.77083" lon="1.96453">
        <ele>1178.2</ele>
        <time>2021-10-09T07:57:56Z</time>
      </trkpt>
      <trkpt lat="42.77096" lon="1.96443">
        <ele>1176.6</ele>
        <time>2021-10-09T07:57:58Z</time>
      </trkpt>
      <trkpt lat="42.771" lon="1.96436">
        <ele>1175.8</ele>
        <time>2021-10-09T07:57:59Z</time>
      </trkpt>
      <trkpt lat="42.77122" lon="1.96421">
        <ele>1173.4</ele>
        <time>2021-10-09T07:58:02Z</time>
      </trkpt>
      <trkpt lat="42.77164" lon="1.96397">
        <ele>1169</ele>
        <time>2021-10-09T07:58:08Z</time>
      </trkpt>
      <trkpt lat="42.77195" lon="1.9638">
        <ele>1165</ele>
        <time>2021-10-09T07:58:13Z</time>
      </trkpt>
      <trkpt lat="42.77201" lon="1.96378">
        <ele>1164.2</ele>
        <time>2021-10-09T07:58:14Z</time>
      </trkpt>
      <trkpt lat="42.77208" lon="1.9638">
        <ele>1163.6</ele>
        <time>2021-10-09T07:58:15Z</time>
      </trkpt>
      <trkpt lat="42.77221" lon="1.96386">
        <ele>1161.8</ele>
        <time>2021-10-09T07:58:17Z</time>
      </trkpt>
      <trkpt lat="42.77241" lon="1.96394">
        <ele>1158.8</ele>
        <time>2021-10-09T07:58:21Z</time>
      </trkpt>
      <trkpt lat="42.77273" lon="1.96404">
        <ele>1154.6</ele>
        <time>2021-10-09T07:58:26Z</time>
      </trkpt>
      <trkpt lat="42.77302" lon="1.96408">
        <ele>1150.4</ele>
        <time>2021-10-09T07:58:31Z</time>
      </trkpt>
      <trkpt lat="42.77333" lon="1.96416">
        <ele>1146.4</ele>
        <time>2021-10-09T07:58:36Z</time>
      </trkpt>
      <trkpt lat="42.77373" lon="1.96425">
        <ele>1141.2</ele>
        <time>2021-10-09T07:58:42Z</time>
      </trkpt>
      <trkpt lat="42.77416" lon="1.96425">
        <ele>1137</ele>
        <time>2021-10-09T07:58:47Z</time>
      </trkpt>
      <trkpt lat="42.77466" lon="1.96429">
        <ele>1132.6</ele>
        <time>2021-10-09T07:58:52Z</time>
      </trkpt>
      <trkpt lat="42.77494" lon="1.96448">
        <ele>1130</ele>
        <time>2021-10-09T07:58:55Z</time>
      </trkpt>
      <trkpt lat="42.77535" lon="1.96489">
        <ele>1125.6</ele>
        <time>2021-10-09T07:59:00Z</time>
      </trkpt>
      <trkpt lat="42.77555" lon="1.96496">
        <ele>1123.8</ele>
        <time>2021-10-09T07:59:02Z</time>
      </trkpt>
      <trkpt lat="42.77566" lon="1.96497">
        <ele>1122.8</ele>
        <time>2021-10-09T07:59:03Z</time>
      </trkpt>
      <trkpt lat="42.77588" lon="1.96503">
        <ele>1121</ele>
        <time>2021-10-09T07:59:05Z</time>
      </trkpt>
      <trkpt lat="42.77609" lon="1.96514">
        <ele>1119.2</ele>
        <time>2021-10-09T07:59:07Z</time>
      </trkpt>
      <trkpt lat="42.77648" lon="1.96548">
        <ele>1115.4</ele>
        <time>2021-10-09T07:59:11Z</time>
      </trkpt>
      <trkpt lat="42.77702" lon="1.96589">
        <ele>1110.6</ele>
        <time>2021-10-09T07:59:16Z</time>
      </trkpt>
      <trkpt lat="42.77713" lon="1.96596">
        <ele>1109.6</ele>
        <time>2021-10-09T07:59:17Z</time>
      </trkpt>
      <trkpt lat="42.77762" lon="1.96611">
        <ele>1105.6</ele>
        <time>2021-10-09T07:59:21Z</time>
      </trkpt>
      <trkpt lat="42.77806" lon="1.96633">
        <ele>1101.6</ele>
        <time>2021-10-09T07:59:25Z</time>
      </trkpt>
      <trkpt lat="42.77819" lon="1.96654">
        <ele>1099.6</ele>
        <time>2021-10-09T07:59:27Z</time>
      </trkpt>
      <trkpt lat="42.77827" lon="1.96666">
        <ele>1098.6</ele>
        <time>2021-10-09T07:59:28Z</time>
      </trkpt>
      <trkpt lat="42.77837" lon="1.96674">
        <ele>1097.6</ele>
        <time>2021-10-09T07:59:29Z</time>
      </trkpt>
      <trkpt lat="42.77854" lon="1.96688">
        <ele>1095.4</ele>
        <time>2021-10-09T07:59:31Z</time>
      </trkpt>
      <trkpt lat="42.77864" lon="1.96709">
        <ele>1093.2</ele>
        <time>2021-10-09T07:59:33Z</time>
      </trkpt>
      <trkpt lat="42.7787" lon="1.96746">
        <ele>1090.2</ele>
        <time>2021-10-09T07:59:36Z</time>
      </trkpt>
      <trkpt lat="42.77883" lon="1.96766">
        <ele>1088</ele>
        <time>2021-10-09T07:59:38Z</time>
      </trkpt>
      <trkpt lat="42.77905" lon="1.96778">
        <ele>1084.8</ele>
        <time>2021-10-09T07:59:40Z</time>
      </trkpt>
      <trkpt lat="42.77916" lon="1.96786">
        <ele>1083.2</ele>
        <time>2021-10-09T07:59:41Z</time>
      </trkpt>
      <trkpt lat="42.77967" lon="1.96833">
        <ele>1077.4</ele>
        <time>2021-10-09T07:59:46Z</time>
      </trkpt>
      <trkpt lat="42.78013" lon="1.96897">
        <ele>1071.6</ele>
        <time>2021-10-09T07:59:51Z</time>
      </trkpt>
      <trkpt lat="42.78022" lon="1.96912">
        <ele>1070.2</ele>
        <time>2021-10-09T07:59:52Z</time>
      </trkpt>
      <trkpt lat="42.78051" lon="1.96961">
        <ele>1065.8</ele>
        <time>2021-10-09T07:59:56Z</time>
      </trkpt>
      <trkpt lat="42.78085" lon="1.97023">
        <ele>1061.2</ele>
        <time>2021-10-09T08:00:01Z</time>
      </trkpt>
      <trkpt lat="42.78092" lon="1.97034">
        <ele>1060.2</ele>
        <time>2021-10-09T08:00:02Z</time>
      </trkpt>
      <trkpt lat="42.78104" lon="1.97064">
        <ele>1058.4</ele>
        <time>2021-10-09T08:00:04Z</time>
      </trkpt>
      <trkpt lat="42.7812" lon="1.97094">
        <ele>1055.8</ele>
        <time>2021-10-09T08:00:07Z</time>
      </trkpt>
      <trkpt lat="42.78127" lon="1.97103">
        <ele>1055</ele>
        <time>2021-10-09T08:00:08Z</time>
      </trkpt>
      <trkpt lat="42.78135" lon="1.97113">
        <ele>1054.2</ele>
        <time>2021-10-09T08:00:09Z</time>
      </trkpt>
      <trkpt lat="42.78154" lon="1.9713">
        <ele>1052.6</ele>
        <time>2021-10-09T08:00:11Z</time>
      </trkpt>
      <trkpt lat="42.78197" lon="1.97159">
        <ele>1049.6</ele>
        <time>2021-10-09T08:00:15Z</time>
      </trkpt>
      <trkpt lat="42.7823" lon="1.97178">
        <ele>1047.4</ele>
        <time>2021-10-09T08:00:18Z</time>
      </trkpt>
      <trkpt lat="42.7824" lon="1.97184">
        <ele>1046.6</ele>
        <time>2021-10-09T08:00:19Z</time>
      </trkpt>
      <trkpt lat="42.78257" lon="1.97195">
        <ele>1045.2</ele>
        <time>2021-10-09T08:00:21Z</time>
      </trkpt>
      <trkpt lat="42.78266" lon="1.97205">
        <ele>1044</ele>
        <time>2021-10-09T08:00:22Z</time>
      </trkpt>
      <trkpt lat="42.78273" lon="1.97213">
        <ele>1043</ele>
        <time>2021-10-09T08:00:23Z</time>
      </trkpt>
      <trkpt lat="42.78283" lon="1.97243">
        <ele>1040.8</ele>
        <time>2021-10-09T08:00:25Z</time>
      </trkpt>
      <trkpt lat="42.78285" lon="1.97255">
        <ele>1040</ele>
        <time>2021-10-09T08:00:26Z</time>
      </trkpt>
      <trkpt lat="42.78284" lon="1.97267">
        <ele>1039.2</ele>
        <time>2021-10-09T08:00:27Z</time>
      </trkpt>
      <trkpt lat="42.78286" lon="1.97289">
        <ele>1038.4</ele>
        <time>2021-10-09T08:00:28Z</time>
      </trkpt>
      <trkpt lat="42.78298" lon="1.97318">
        <ele>1036.8</ele>
        <time>2021-10-09T08:00:30Z</time>
      </trkpt>
      <trkpt lat="42.78325" lon="1.97342">
        <ele>1034.8</ele>
        <time>2021-10-09T08:00:33Z</time>
      </trkpt>
      <trkpt lat="42.78344" lon="1.97354">
        <ele>1033.4</ele>
        <time>2021-10-09T08:00:35Z</time>
      </trkpt>
      <trkpt lat="42.78354" lon="1.9736">
        <ele>1032.6</ele>
        <time>2021-10-09T08:00:36Z</time>
      </trkpt>
      <trkpt lat="42.78402" lon="1.97382">
        <ele>1029.2</ele>
        <time>2021-10-09T08:00:41Z</time>
      </trkpt>
      <trkpt lat="42.7841" lon="1.97388">
        <ele>1028.4</ele>
        <time>2021-10-09T08:00:42Z</time>
      </trkpt>
      <trkpt lat="42.78419" lon="1.97408">
        <ele>1027</ele>
        <time>2021-10-09T08:00:44Z</time>
      </trkpt>
      <trkpt lat="42.78437" lon="1.97463">
        <ele>1023.6</ele>
        <time>2021-10-09T08:00:49Z</time>
      </trkpt>
      <trkpt lat="42.78466" lon="1.97513">
        <ele>1020</ele>
        <time>2021-10-09T08:00:53Z</time>
      </trkpt>
      <trkpt lat="42.78503" lon="1.97568">
        <ele>1016.6</ele>
        <time>2021-10-09T08:00:58Z</time>
      </trkpt>
      <trkpt lat="42.78511" lon="1.97578">
        <ele>1015.8</ele>
        <time>2021-10-09T08:00:59Z</time>
      </trkpt>
      <trkpt lat="42.78546" lon="1.97612">
        <ele>1013.2</ele>
        <time>2021-10-09T08:01:03Z</time>
      </trkpt>
      <trkpt lat="42.78573" lon="1.97661">
        <ele>1010.4</ele>
        <time>2021-10-09T08:01:07Z</time>
      </trkpt>
      <trkpt lat="42.78602" lon="1.97728">
        <ele>1006.6</ele>
        <time>2021-10-09T08:01:12Z</time>
      </trkpt>
      <trkpt lat="42.78608" lon="1.97741">
        <ele>1006</ele>
        <time>2021-10-09T08:01:13Z</time>
      </trkpt>
      <trkpt lat="42.78637" lon="1.9778">
        <ele>1003</ele>
        <time>2021-10-09T08:01:17Z</time>
      </trkpt>
      <trkpt lat="42.78668" lon="1.97815">
        <ele>999.2</ele>
        <time>2021-10-09T08:01:22Z</time>
      </trkpt>
      <trkpt lat="42.78694" lon="1.9784">
        <ele>996</ele>
        <time>2021-10-09T08:01:26Z</time>
      </trkpt>
      <trkpt lat="42.78701" lon="1.97846">
        <ele>995.2</ele>
        <time>2021-10-09T08:01:27Z</time>
      </trkpt>
      <trkpt lat="42.78718" lon="1.97859">
        <ele>992.6</ele>
        <time>2021-10-09T08:01:30Z</time>
      </trkpt>
      <trkpt lat="42.78725" lon="1.97863">
        <ele>991.8</ele>
        <time>2021-10-09T08:01:31Z</time>
      </trkpt>
      <trkpt lat="42.78751" lon="1.97874">
        <ele>988.2</ele>
        <time>2021-10-09T08:01:35Z</time>
      </trkpt>
      <trkpt lat="42.78759" lon="1.9788">
        <ele>987.4</ele>
        <time>2021-10-09T08:01:36Z</time>
      </trkpt>
      <trkpt lat="42.78779" lon="1.97896">
        <ele>984.6</ele>
        <time>2021-10-09T08:01:39Z</time>
      </trkpt>
      <trkpt lat="42.78786" lon="1.979">
        <ele>983.6</ele>
        <time>2021-10-09T08:01:40Z</time>
      </trkpt>
      <trkpt lat="42.78799" lon="1.97916">
        <ele>981.8</ele>
        <time>2021-10-09T08:01:42Z</time>
      </trkpt>
      <trkpt lat="42.78806" lon="1.97936">
        <ele>980</ele>
        <time>2021-10-09T08:01:44Z</time>
      </trkpt>
      <trkpt lat="42.78808" lon="1.97947">
        <ele>979</ele>
        <time>2021-10-09T08:01:45Z</time>
      </trkpt>
      <trkpt lat="42.78817" lon="1.98002">
        <ele>974.8</ele>
        <time>2021-10-09T08:01:50Z</time>
      </trkpt>
      <trkpt lat="42.78826" lon="1.98022">
        <ele>973</ele>
        <time>2021-10-09T08:01:52Z</time>
      </trkpt>
      <trkpt lat="42.78839" lon="1.98039">
        <ele>971.2</ele>
        <time>2021-10-09T08:01:54Z</time>
      </trkpt>
      <trkpt lat="42.78886" lon="1.98077">
        <ele>965.8</ele>
        <time>2021-10-09T08:02:00Z</time>
      </trkpt>
      <trkpt lat="42.78894" lon="1.98083">
        <ele>964.8</ele>
        <time>2021-10-09T08:02:01Z</time>
      </trkpt>
      <trkpt lat="42.7892" lon="1.98098">
        <ele>962.4</ele>
        <time>2021-10-09T08:02:04Z</time>
      </trkpt>
      <trkpt lat="42.78928" lon="1.98105">
        <ele>961.6</ele>
        <time>2021-10-09T08:02:05Z</time>
      </trkpt>
      <trkpt lat="42.78942" lon="1.98122">
        <ele>960</ele>
        <time>2021-10-09T08:02:07Z</time>
      </trkpt>
      <trkpt lat="42.78948" lon="1.98132">
        <ele>959.2</ele>
        <time>2021-10-09T08:02:08Z</time>
      </trkpt>
      <trkpt lat="42.78971" lon="1.98171">
        <ele>956</ele>
        <time>2021-10-09T08:02:12Z</time>
      </trkpt>
      <trkpt lat="42.78976" lon="1.98192">
        <ele>954.4</ele>
        <time>2021-10-09T08:02:14Z</time>
      </trkpt>
      <trkpt lat="42.78978" lon="1.98247">
        <ele>950.8</ele>
        <time>2021-10-09T08:02:18Z</time>
      </trkpt>
      <trkpt lat="42.78981" lon="1.98277">
        <ele>949</ele>
        <time>2021-10-09T08:02:20Z</time>
      </trkpt>
      <trkpt lat="42.7899" lon="1.98306">
        <ele>947.2</ele>
        <time>2021-10-09T08:02:22Z</time>
      </trkpt>
      <trkpt lat="42.79011" lon="1.98362">
        <ele>943.4</ele>
        <time>2021-10-09T08:02:26Z</time>
      </trkpt>
      <trkpt lat="42.79024" lon="1.98389">
        <ele>941.6</ele>
        <time>2021-10-09T08:02:28Z</time>
      </trkpt>
      <trkpt lat="42.79061" lon="1.98434">
        <ele>937.8</ele>
        <time>2021-10-09T08:02:32Z</time>
      </trkpt>
      <trkpt lat="42.79079" lon="1.98456">
        <ele>935.8</ele>
        <time>2021-10-09T08:02:34Z</time>
      </trkpt>
      <trkpt lat="42.79087" lon="1.98469">
        <ele>935</ele>
        <time>2021-10-09T08:02:35Z</time>
      </trkpt>
      <trkpt lat="42.79111" lon="1.98524">
        <ele>931.4</ele>
        <time>2021-10-09T08:02:39Z</time>
      </trkpt>
      <trkpt lat="42.79126" lon="1.98548">
        <ele>929.8</ele>
        <time>2021-10-09T08:02:41Z</time>
      </trkpt>
      <trkpt lat="42.79142" lon="1.98572">
        <ele>928</ele>
        <time>2021-10-09T08:02:43Z</time>
      </trkpt>
      <trkpt lat="42.79159" lon="1.98594">
        <ele>926</ele>
        <time>2021-10-09T08:02:45Z</time>
      </trkpt>
      <trkpt lat="42.79172" lon="1.9862">
        <ele>924.2</ele>
        <time>2021-10-09T08:02:47Z</time>
      </trkpt>
      <trkpt lat="42.7918" lon="1.98649">
        <ele>922.2</ele>
        <time>2021-10-09T08:02:49Z</time>
      </trkpt>
      <trkpt lat="42.79182" lon="1.98664">
        <ele>921.2</ele>
        <time>2021-10-09T08:02:50Z</time>
      </trkpt>
      <trkpt lat="42.79188" lon="1.98692">
        <ele>919.4</ele>
        <time>2021-10-09T08:02:52Z</time>
      </trkpt>
      <trkpt lat="42.79193" lon="1.98705">
        <ele>918.4</ele>
        <time>2021-10-09T08:02:53Z</time>
      </trkpt>
      <trkpt lat="42.79199" lon="1.98717">
        <ele>917.4</ele>
        <time>2021-10-09T08:02:54Z</time>
      </trkpt>
      <trkpt lat="42.79215" lon="1.98735">
        <ele>915.4</ele>
        <time>2021-10-09T08:02:56Z</time>
      </trkpt>
      <trkpt lat="42.79251" lon="1.98764">
        <ele>911.6</ele>
        <time>2021-10-09T08:03:00Z</time>
      </trkpt>
      <trkpt lat="42.7926" lon="1.98772">
        <ele>910.8</ele>
        <time>2021-10-09T08:03:01Z</time>
      </trkpt>
      <trkpt lat="42.79275" lon="1.98791">
        <ele>908.8</ele>
        <time>2021-10-09T08:03:03Z</time>
      </trkpt>
      <trkpt lat="42.7932" lon="1.9885">
        <ele>903.6</ele>
        <time>2021-10-09T08:03:09Z</time>
      </trkpt>
      <trkpt lat="42.79364" lon="1.98907">
        <ele>898.6</ele>
        <time>2021-10-09T08:03:15Z</time>
      </trkpt>
      <trkpt lat="42.79371" lon="1.98916">
        <ele>897.8</ele>
        <time>2021-10-09T08:03:16Z</time>
      </trkpt>
      <trkpt lat="42.79415" lon="1.9897">
        <ele>893.2</ele>
        <time>2021-10-09T08:03:22Z</time>
      </trkpt>
      <trkpt lat="42.79422" lon="1.98979">
        <ele>892.4</ele>
        <time>2021-10-09T08:03:23Z</time>
      </trkpt>
      <trkpt lat="42.79428" lon="1.9899">
        <ele>891.8</ele>
        <time>2021-10-09T08:03:24Z</time>
      </trkpt>
      <trkpt lat="42.79437" lon="1.99013">
        <ele>890.4</ele>
        <time>2021-10-09T08:03:26Z</time>
      </trkpt>
      <trkpt lat="42.79439" lon="1.99025">
        <ele>889.6</ele>
        <time>2021-10-09T08:03:27Z</time>
      </trkpt>
      <trkpt lat="42.79449" lon="1.99062">
        <ele>887.6</ele>
        <time>2021-10-09T08:03:30Z</time>
      </trkpt>
      <trkpt lat="42.79455" lon="1.99072">
        <ele>886.8</ele>
        <time>2021-10-09T08:03:31Z</time>
      </trkpt>
      <trkpt lat="42.79461" lon="1.99082">
        <ele>886.2</ele>
        <time>2021-10-09T08:03:32Z</time>
      </trkpt>
      <trkpt lat="42.79484" lon="1.99107">
        <ele>884</ele>
        <time>2021-10-09T08:03:35Z</time>
      </trkpt>
      <trkpt lat="42.79526" lon="1.99162">
        <ele>880.2</ele>
        <time>2021-10-09T08:03:41Z</time>
      </trkpt>
      <trkpt lat="42.79533" lon="1.99172">
        <ele>879.6</ele>
        <time>2021-10-09T08:03:42Z</time>
      </trkpt>
      <trkpt lat="42.79536" lon="1.99183">
        <ele>879</ele>
        <time>2021-10-09T08:03:43Z</time>
      </trkpt>
      <trkpt lat="42.79538" lon="1.99195">
        <ele>878.6</ele>
        <time>2021-10-09T08:03:44Z</time>
      </trkpt>
      <trkpt lat="42.79537" lon="1.99207">
        <ele>878</ele>
        <time>2021-10-09T08:03:45Z</time>
      </trkpt>
      <trkpt lat="42.79535" lon="1.99234">
        <ele>877</ele>
        <time>2021-10-09T08:03:47Z</time>
      </trkpt>
      <trkpt lat="42.79534" lon="1.99288">
        <ele>875</ele>
        <time>2021-10-09T08:03:51Z</time>
      </trkpt>
      <trkpt lat="42.79541" lon="1.99313">
        <ele>874.2</ele>
        <time>2021-10-09T08:03:53Z</time>
      </trkpt>
      <trkpt lat="42.79544" lon="1.99326">
        <ele>873.6</ele>
        <time>2021-10-09T08:03:54Z</time>
      </trkpt>
      <trkpt lat="42.7955" lon="1.99338">
        <ele>873.2</ele>
        <time>2021-10-09T08:03:55Z</time>
      </trkpt>
      <trkpt lat="42.79567" lon="1.99349">
        <ele>872.2</ele>
        <time>2021-10-09T08:03:57Z</time>
      </trkpt>
      <trkpt lat="42.79603" lon="1.99369">
        <ele>870.6</ele>
        <time>2021-10-09T08:04:01Z</time>
      </trkpt>
      <trkpt lat="42.79656" lon="1.99393">
        <ele>868.2</ele>
        <time>2021-10-09T08:04:07Z</time>
      </trkpt>
      <trkpt lat="42.7968" lon="1.99409">
        <ele>866.8</ele>
        <time>2021-10-09T08:04:10Z</time>
      </trkpt>
      <trkpt lat="42.79689" lon="1.99415">
        <ele>866.4</ele>
        <time>2021-10-09T08:04:11Z</time>
      </trkpt>
      <trkpt lat="42.79735" lon="1.9944">
        <ele>864</ele>
        <time>2021-10-09T08:04:16Z</time>
      </trkpt>
      <trkpt lat="42.79744" lon="1.99443">
        <ele>863.6</ele>
        <time>2021-10-09T08:04:17Z</time>
      </trkpt>
      <trkpt lat="42.79753" lon="1.99443">
        <ele>863</ele>
        <time>2021-10-09T08:04:18Z</time>
      </trkpt>
      <trkpt lat="42.79772" lon="1.9944">
        <ele>862</ele>
        <time>2021-10-09T08:04:20Z</time>
      </trkpt>
      <trkpt lat="42.798" lon="1.99436">
        <ele>860.4</ele>
        <time>2021-10-09T08:04:23Z</time>
      </trkpt>
      <trkpt lat="42.79811" lon="1.99438">
        <ele>859.8</ele>
        <time>2021-10-09T08:04:24Z</time>
      </trkpt>
      <trkpt lat="42.79821" lon="1.99442">
        <ele>859.4</ele>
        <time>2021-10-09T08:04:25Z</time>
      </trkpt>
      <trkpt lat="42.79838" lon="1.99457">
        <ele>858.6</ele>
        <time>2021-10-09T08:04:27Z</time>
      </trkpt>
      <trkpt lat="42.79845" lon="1.99475">
        <ele>857.8</ele>
        <time>2021-10-09T08:04:29Z</time>
      </trkpt>
      <trkpt lat="42.79847" lon="1.9949">
        <ele>857.6</ele>
        <time>2021-10-09T08:04:30Z</time>
      </trkpt>
      <trkpt lat="42.79855" lon="1.99553">
        <ele>855.8</ele>
        <time>2021-10-09T08:04:35Z</time>
      </trkpt>
      <trkpt lat="42.79858" lon="1.99565">
        <ele>856</ele>
        <time>2021-10-09T08:04:36Z</time>
      </trkpt>
      <trkpt lat="42.79867" lon="1.99586">
        <ele>855.6</ele>
        <time>2021-10-09T08:04:38Z</time>
      </trkpt>
      <trkpt lat="42.799" lon="1.99646">
        <ele>854.2</ele>
        <time>2021-10-09T08:04:44Z</time>
      </trkpt>
      <trkpt lat="42.7993" lon="1.99716">
        <ele>852.8</ele>
        <time>2021-10-09T08:04:50Z</time>
      </trkpt>
      <trkpt lat="42.79944" lon="1.99763">
        <ele>851.8</ele>
        <time>2021-10-09T08:04:54Z</time>
      </trkpt>
      <trkpt lat="42.79957" lon="1.99782">
        <ele>851.4</ele>
        <time>2021-10-09T08:04:56Z</time>
      </trkpt>
      <trkpt lat="42.79963" lon="1.99791">
        <ele>851.2</ele>
        <time>2021-10-09T08:04:57Z</time>
      </trkpt>
      <trkpt lat="42.79971" lon="1.99797">
        <ele>851</ele>
        <time>2021-10-09T08:04:58Z</time>
      </trkpt>
      <trkpt lat="42.79989" lon="1.99809">
        <ele>850.6</ele>
        <time>2021-10-09T08:05:00Z</time>
      </trkpt>
      <trkpt lat="42.80046" lon="1.99841">
        <ele>849.8</ele>
        <time>2021-10-09T08:05:06Z</time>
      </trkpt>
      <trkpt lat="42.80056" lon="1.99845">
        <ele>849.6</ele>
        <time>2021-10-09T08:05:07Z</time>
      </trkpt>
      <trkpt lat="42.80065" lon="1.99851">
        <ele>849.4</ele>
        <time>2021-10-09T08:05:08Z</time>
      </trkpt>
      <trkpt lat="42.80082" lon="1.99865">
        <ele>849</ele>
        <time>2021-10-09T08:05:10Z</time>
      </trkpt>
      <trkpt lat="42.80094" lon="1.9989">
        <ele>848.8</ele>
        <time>2021-10-09T08:05:12Z</time>
      </trkpt>
      <trkpt lat="42.801" lon="1.99903">
        <ele>848.6</ele>
        <time>2021-10-09T08:05:13Z</time>
      </trkpt>
      <trkpt lat="42.80122" lon="1.9996">
        <ele>848</ele>
        <time>2021-10-09T08:05:17Z</time>
      </trkpt>
      <trkpt lat="42.80124" lon="1.99974">
        <ele>847.8</ele>
        <time>2021-10-09T08:05:18Z</time>
      </trkpt>
      <trkpt lat="42.80126" lon="2.00004">
        <ele>847.4</ele>
        <time>2021-10-09T08:05:20Z</time>
      </trkpt>
      <trkpt lat="42.80124" lon="2.00062">
        <ele>846.8</ele>
        <time>2021-10-09T08:05:24Z</time>
      </trkpt>
      <trkpt lat="42.80122" lon="2.00076">
        <ele>846.6</ele>
        <time>2021-10-09T08:05:25Z</time>
      </trkpt>
      <trkpt lat="42.80118" lon="2.00129">
        <ele>846</ele>
        <time>2021-10-09T08:05:29Z</time>
      </trkpt>
      <trkpt lat="42.80125" lon="2.00149">
        <ele>845.6</ele>
        <time>2021-10-09T08:05:31Z</time>
      </trkpt>
      <trkpt lat="42.80132" lon="2.00155">
        <ele>845.4</ele>
        <time>2021-10-09T08:05:32Z</time>
      </trkpt>
      <trkpt lat="42.80138" lon="2.00161">
        <ele>845.4</ele>
        <time>2021-10-09T08:05:33Z</time>
      </trkpt>
      <trkpt lat="42.8015" lon="2.00169">
        <ele>845</ele>
        <time>2021-10-09T08:05:35Z</time>
      </trkpt>
      <trkpt lat="42.80165" lon="2.00177">
        <ele>844.8</ele>
        <time>2021-10-09T08:05:37Z</time>
      </trkpt>
      <trkpt lat="42.80177" lon="2.00188">
        <ele>844.4</ele>
        <time>2021-10-09T08:05:39Z</time>
      </trkpt>
      <trkpt lat="42.802" lon="2.00226">
        <ele>843.6</ele>
        <time>2021-10-09T08:05:44Z</time>
      </trkpt>
      <trkpt lat="42.80204" lon="2.00234">
        <ele>843.6</ele>
        <time>2021-10-09T08:05:45Z</time>
      </trkpt>
      <trkpt lat="42.80208" lon="2.00251">
        <ele>843.2</ele>
        <time>2021-10-09T08:05:47Z</time>
      </trkpt>
      <trkpt lat="42.80207" lon="2.00259">
        <ele>843</ele>
        <time>2021-10-09T08:05:48Z</time>
      </trkpt>
      <trkpt lat="42.80206" lon="2.00267">
        <ele>843</ele>
        <time>2021-10-09T08:05:49Z</time>
      </trkpt>
      <trkpt lat="42.802" lon="2.00283">
        <ele>842.6</ele>
        <time>2021-10-09T08:05:51Z</time>
      </trkpt>
      <trkpt lat="42.80198" lon="2.00292">
        <ele>842.4</ele>
        <time>2021-10-09T08:05:52Z</time>
      </trkpt>
      <trkpt lat="42.80197" lon="2.0031">
        <ele>842</ele>
        <time>2021-10-09T08:05:54Z</time>
      </trkpt>
      <trkpt lat="42.80205" lon="2.0035">
        <ele>841.2</ele>
        <time>2021-10-09T08:05:58Z</time>
      </trkpt>
      <trkpt lat="42.80212" lon="2.00377">
        <ele>840.6</ele>
        <time>2021-10-09T08:06:01Z</time>
      </trkpt>
      <trkpt lat="42.80217" lon="2.00394">
        <ele>840.2</ele>
        <time>2021-10-09T08:06:03Z</time>
      </trkpt>
      <trkpt lat="42.80223" lon="2.0041">
        <ele>839.8</ele>
        <time>2021-10-09T08:06:05Z</time>
      </trkpt>
      <trkpt lat="42.80231" lon="2.00425">
        <ele>839.6</ele>
        <time>2021-10-09T08:06:07Z</time>
      </trkpt>
      <trkpt lat="42.80252" lon="2.00449">
        <ele>838.8</ele>
        <time>2021-10-09T08:06:11Z</time>
      </trkpt>
      <trkpt lat="42.80258" lon="2.00454">
        <ele>838.6</ele>
        <time>2021-10-09T08:06:12Z</time>
      </trkpt>
      <trkpt lat="42.80263" lon="2.00458">
        <ele>838.4</ele>
        <time>2021-10-09T08:06:13Z</time>
      </trkpt>
      <trkpt lat="42.80274" lon="2.00468">
        <ele>838.2</ele>
        <time>2021-10-09T08:06:15Z</time>
      </trkpt>
      <trkpt lat="42.80276" lon="2.00484">
        <ele>837.8</ele>
        <time>2021-10-09T08:06:17Z</time>
      </trkpt>
      <trkpt lat="42.8028" lon="2.0049">
        <ele>837.6</ele>
        <time>2021-10-09T08:06:18Z</time>
      </trkpt>
      <trkpt lat="42.80286" lon="2.00493">
        <ele>837.4</ele>
        <time>2021-10-09T08:06:19Z</time>
      </trkpt>
      <trkpt lat="42.80297" lon="2.00493">
        <ele>837</ele>
        <time>2021-10-09T08:06:21Z</time>
      </trkpt>
      <trkpt lat="42.80309" lon="2.00488">
        <ele>836.4</ele>
        <time>2021-10-09T08:06:23Z</time>
      </trkpt>
      <trkpt lat="42.80322" lon="2.00482">
        <ele>836</ele>
        <time>2021-10-09T08:06:25Z</time>
      </trkpt>
      <trkpt lat="42.8033" lon="2.0048">
        <ele>835.6</ele>
        <time>2021-10-09T08:06:26Z</time>
      </trkpt>
      <trkpt lat="42.80345" lon="2.00483">
        <ele>835</ele>
        <time>2021-10-09T08:06:28Z</time>
      </trkpt>
      <trkpt lat="42.80377" lon="2.00497">
        <ele>834</ele>
        <time>2021-10-09T08:06:32Z</time>
      </trkpt>
      <trkpt lat="42.80405" lon="2.00526">
        <ele>833</ele>
        <time>2021-10-09T08:06:36Z</time>
      </trkpt>
      <trkpt lat="42.80412" lon="2.00535">
        <ele>832.6</ele>
        <time>2021-10-09T08:06:37Z</time>
      </trkpt>
      <trkpt lat="42.80432" lon="2.00578">
        <ele>831.6</ele>
        <time>2021-10-09T08:06:41Z</time>
      </trkpt>
      <trkpt lat="42.80454" lon="2.00638">
        <ele>830</ele>
        <time>2021-10-09T08:06:46Z</time>
      </trkpt>
      <trkpt lat="42.80477" lon="2.0069">
        <ele>828.6</ele>
        <time>2021-10-09T08:06:50Z</time>
      </trkpt>
      <trkpt lat="42.80513" lon="2.00754">
        <ele>827</ele>
        <time>2021-10-09T08:06:55Z</time>
      </trkpt>
      <trkpt lat="42.80518" lon="2.00769">
        <ele>826.6</ele>
        <time>2021-10-09T08:06:56Z</time>
      </trkpt>
      <trkpt lat="42.80526" lon="2.00797">
        <ele>826</ele>
        <time>2021-10-09T08:06:58Z</time>
      </trkpt>
      <trkpt lat="42.80527" lon="2.00812">
        <ele>825.6</ele>
        <time>2021-10-09T08:06:59Z</time>
      </trkpt>
      <trkpt lat="42.80527" lon="2.00824">
        <ele>825.2</ele>
        <time>2021-10-09T08:07:00Z</time>
      </trkpt>
      <trkpt lat="42.80526" lon="2.00839">
        <ele>824.8</ele>
        <time>2021-10-09T08:07:01Z</time>
      </trkpt>
      <trkpt lat="42.80525" lon="2.00853">
        <ele>824.6</ele>
        <time>2021-10-09T08:07:02Z</time>
      </trkpt>
      <trkpt lat="42.80519" lon="2.00879">
        <ele>824.2</ele>
        <time>2021-10-09T08:07:04Z</time>
      </trkpt>
      <trkpt lat="42.80508" lon="2.00934">
        <ele>823</ele>
        <time>2021-10-09T08:07:08Z</time>
      </trkpt>
      <trkpt lat="42.805" lon="2.00984">
        <ele>822</ele>
        <time>2021-10-09T08:07:11Z</time>
      </trkpt>
      <trkpt lat="42.80498" lon="2.01">
        <ele>821.8</ele>
        <time>2021-10-09T08:07:12Z</time>
      </trkpt>
      <trkpt lat="42.80489" lon="2.01086">
        <ele>820.2</ele>
        <time>2021-10-09T08:07:17Z</time>
      </trkpt>
      <trkpt lat="42.80491" lon="2.01129">
        <ele>819.4</ele>
        <time>2021-10-09T08:07:19Z</time>
      </trkpt>
      <trkpt lat="42.80495" lon="2.01147">
        <ele>819.2</ele>
        <time>2021-10-09T08:07:20Z</time>
      </trkpt>
      <trkpt lat="42.805" lon="2.01163">
        <ele>818.8</ele>
        <time>2021-10-09T08:07:21Z</time>
      </trkpt>
      <trkpt lat="42.80514" lon="2.01194">
        <ele>818.2</ele>
        <time>2021-10-09T08:07:23Z</time>
      </trkpt>
      <trkpt lat="42.80525" lon="2.0121">
        <ele>817.8</ele>
        <time>2021-10-09T08:07:24Z</time>
      </trkpt>
      <trkpt lat="42.80549" lon="2.01224">
        <ele>817.2</ele>
        <time>2021-10-09T08:07:26Z</time>
      </trkpt>
      <trkpt lat="42.80566" lon="2.01234">
        <ele>816.6</ele>
        <time>2021-10-09T08:07:28Z</time>
      </trkpt>
      <trkpt lat="42.80573" lon="2.01253">
        <ele>816.4</ele>
        <time>2021-10-09T08:07:29Z</time>
      </trkpt>
      <trkpt lat="42.80579" lon="2.01266">
        <ele>816</ele>
        <time>2021-10-09T08:07:30Z</time>
      </trkpt>
      <trkpt lat="42.80581" lon="2.01273">
        <ele>815.8</ele>
        <time>2021-10-09T08:07:31Z</time>
      </trkpt>
      <trkpt lat="42.8058" lon="2.01287">
        <ele>815.6</ele>
        <time>2021-10-09T08:07:32Z</time>
      </trkpt>
      <trkpt lat="42.80578" lon="2.01302">
        <ele>815.4</ele>
        <time>2021-10-09T08:07:33Z</time>
      </trkpt>
      <trkpt lat="42.80572" lon="2.01352">
        <ele>814.4</ele>
        <time>2021-10-09T08:07:37Z</time>
      </trkpt>
      <trkpt lat="42.80571" lon="2.01383">
        <ele>813.6</ele>
        <time>2021-10-09T08:07:40Z</time>
      </trkpt>
      <trkpt lat="42.80572" lon="2.01439">
        <ele>812.8</ele>
        <time>2021-10-09T08:07:44Z</time>
      </trkpt>
      <trkpt lat="42.80579" lon="2.01497">
        <ele>812</ele>
        <time>2021-10-09T08:07:48Z</time>
      </trkpt>
      <trkpt lat="42.80592" lon="2.01529">
        <ele>811.2</ele>
        <time>2021-10-09T08:07:50Z</time>
      </trkpt>
      <trkpt lat="42.806" lon="2.01539">
        <ele>811</ele>
        <time>2021-10-09T08:07:51Z</time>
      </trkpt>
      <trkpt lat="42.8065" lon="2.01594">
        <ele>809.4</ele>
        <time>2021-10-09T08:07:57Z</time>
      </trkpt>
      <trkpt lat="42.80671" lon="2.01622">
        <ele>808.6</ele>
        <time>2021-10-09T08:08:00Z</time>
      </trkpt>
      <trkpt lat="42.80678" lon="2.01632">
        <ele>808.4</ele>
        <time>2021-10-09T08:08:01Z</time>
      </trkpt>
      <trkpt lat="42.80692" lon="2.01664">
        <ele>807.8</ele>
        <time>2021-10-09T08:08:04Z</time>
      </trkpt>
      <trkpt lat="42.80712" lon="2.01739">
        <ele>806.8</ele>
        <time>2021-10-09T08:08:10Z</time>
      </trkpt>
      <trkpt lat="42.8072" lon="2.01817">
        <ele>805.4</ele>
        <time>2021-10-09T08:08:16Z</time>
      </trkpt>
      <trkpt lat="42.80722" lon="2.01831">
        <ele>805.2</ele>
        <time>2021-10-09T08:08:17Z</time>
      </trkpt>
      <trkpt lat="42.80736" lon="2.01907">
        <ele>803.8</ele>
        <time>2021-10-09T08:08:23Z</time>
      </trkpt>
      <trkpt lat="42.80741" lon="2.01932">
        <ele>803.2</ele>
        <time>2021-10-09T08:08:25Z</time>
      </trkpt>
      <trkpt lat="42.80751" lon="2.0201">
        <ele>801.8</ele>
        <time>2021-10-09T08:08:31Z</time>
      </trkpt>
      <trkpt lat="42.80753" lon="2.02024">
        <ele>801.6</ele>
        <time>2021-10-09T08:08:32Z</time>
      </trkpt>
      <trkpt lat="42.80756" lon="2.02092">
        <ele>800.2</ele>
        <time>2021-10-09T08:08:37Z</time>
      </trkpt>
      <trkpt lat="42.80758" lon="2.02146">
        <ele>798.8</ele>
        <time>2021-10-09T08:08:41Z</time>
      </trkpt>
      <trkpt lat="42.80765" lon="2.02171">
        <ele>797.6</ele>
        <time>2021-10-09T08:08:43Z</time>
      </trkpt>
      <trkpt lat="42.80775" lon="2.02195">
        <ele>796.4</ele>
        <time>2021-10-09T08:08:45Z</time>
      </trkpt>
      <trkpt lat="42.80801" lon="2.02252">
        <ele>793.8</ele>
        <time>2021-10-09T08:08:50Z</time>
      </trkpt>
      <trkpt lat="42.80811" lon="2.02275">
        <ele>792.8</ele>
        <time>2021-10-09T08:08:52Z</time>
      </trkpt>
      <trkpt lat="42.80817" lon="2.02307">
        <ele>791.8</ele>
        <time>2021-10-09T08:08:54Z</time>
      </trkpt>
      <trkpt lat="42.80804" lon="2.02384">
        <ele>788.8</ele>
        <time>2021-10-09T08:09:00Z</time>
      </trkpt>
      <trkpt lat="42.80809" lon="2.02447">
        <ele>786</ele>
        <time>2021-10-09T08:09:05Z</time>
      </trkpt>
      <trkpt lat="42.80811" lon="2.02458">
        <ele>785.4</ele>
        <time>2021-10-09T08:09:06Z</time>
      </trkpt>
      <trkpt lat="42.80814" lon="2.02507">
        <ele>783.4</ele>
        <time>2021-10-09T08:09:10Z</time>
      </trkpt>
      <trkpt lat="42.80817" lon="2.02542">
        <ele>782</ele>
        <time>2021-10-09T08:09:13Z</time>
      </trkpt>
      <trkpt lat="42.80819" lon="2.02554">
        <ele>781.6</ele>
        <time>2021-10-09T08:09:14Z</time>
      </trkpt>
      <trkpt lat="42.80832" lon="2.02616">
        <ele>779</ele>
        <time>2021-10-09T08:09:19Z</time>
      </trkpt>
      <trkpt lat="42.80848" lon="2.02676">
        <ele>777</ele>
        <time>2021-10-09T08:09:24Z</time>
      </trkpt>
      <trkpt lat="42.80858" lon="2.02713">
        <ele>776</ele>
        <time>2021-10-09T08:09:27Z</time>
      </trkpt>
      <trkpt lat="42.80863" lon="2.02724">
        <ele>775.8</ele>
        <time>2021-10-09T08:09:28Z</time>
      </trkpt>
      <trkpt lat="42.80868" lon="2.02735">
        <ele>775.4</ele>
        <time>2021-10-09T08:09:29Z</time>
      </trkpt>
      <trkpt lat="42.80881" lon="2.02758">
        <ele>774.8</ele>
        <time>2021-10-09T08:09:31Z</time>
      </trkpt>
      <trkpt lat="42.80896" lon="2.02779">
        <ele>774.2</ele>
        <time>2021-10-09T08:09:33Z</time>
      </trkpt>
      <trkpt lat="42.8091" lon="2.028">
        <ele>773.4</ele>
        <time>2021-10-09T08:09:35Z</time>
      </trkpt>
      <trkpt lat="42.8093" lon="2.02866">
        <ele>772</ele>
        <time>2021-10-09T08:09:40Z</time>
      </trkpt>
      <trkpt lat="42.80945" lon="2.02927">
        <ele>770.6</ele>
        <time>2021-10-09T08:09:45Z</time>
      </trkpt>
      <trkpt lat="42.80946" lon="2.0294">
        <ele>770.2</ele>
        <time>2021-10-09T08:09:46Z</time>
      </trkpt>
      <trkpt lat="42.80947" lon="2.02966">
        <ele>769.8</ele>
        <time>2021-10-09T08:09:48Z</time>
      </trkpt>
      <trkpt lat="42.80946" lon="2.02979">
        <ele>769.6</ele>
        <time>2021-10-09T08:09:49Z</time>
      </trkpt>
      <trkpt lat="42.80941" lon="2.03033">
        <ele>768.6</ele>
        <time>2021-10-09T08:09:53Z</time>
      </trkpt>
      <trkpt lat="42.80932" lon="2.03086">
        <ele>767.8</ele>
        <time>2021-10-09T08:09:57Z</time>
      </trkpt>
      <trkpt lat="42.80929" lon="2.03099">
        <ele>767.6</ele>
        <time>2021-10-09T08:09:58Z</time>
      </trkpt>
      <trkpt lat="42.80924" lon="2.03125">
        <ele>767.2</ele>
        <time>2021-10-09T08:10:00Z</time>
      </trkpt>
      <trkpt lat="42.8092" lon="2.0315">
        <ele>766.8</ele>
        <time>2021-10-09T08:10:02Z</time>
      </trkpt>
      <trkpt lat="42.8091" lon="2.03178">
        <ele>766.4</ele>
        <time>2021-10-09T08:10:04Z</time>
      </trkpt>
      <trkpt lat="42.80903" lon="2.03198">
        <ele>766.2</ele>
        <time>2021-10-09T08:10:06Z</time>
      </trkpt>
      <trkpt lat="42.80901" lon="2.03213">
        <ele>765</ele>
        <time>2021-10-09T08:10:07Z</time>
      </trkpt>
      <trkpt lat="42.80901" lon="2.03224">
        <ele>764.2</ele>
        <time>2021-10-09T08:10:08Z</time>
      </trkpt>
      <trkpt lat="42.80906" lon="2.03236">
        <ele>763.8</ele>
        <time>2021-10-09T08:10:10Z</time>
      </trkpt>
      <trkpt lat="42.80933" lon="2.03265">
        <ele>763</ele>
        <time>2021-10-09T08:10:13Z</time>
      </trkpt>
      <trkpt lat="42.80955" lon="2.033">
        <ele>762</ele>
        <time>2021-10-09T08:10:16Z</time>
      </trkpt>
      <trkpt lat="42.80968" lon="2.03322">
        <ele>761.4</ele>
        <time>2021-10-09T08:10:18Z</time>
      </trkpt>
      <trkpt lat="42.80975" lon="2.03346">
        <ele>760.8</ele>
        <time>2021-10-09T08:10:20Z</time>
      </trkpt>
      <trkpt lat="42.80978" lon="2.03358">
        <ele>760.6</ele>
        <time>2021-10-09T08:10:21Z</time>
      </trkpt>
      <trkpt lat="42.80984" lon="2.03409">
        <ele>759.6</ele>
        <time>2021-10-09T08:10:25Z</time>
      </trkpt>
      <trkpt lat="42.80987" lon="2.0342">
        <ele>759.2</ele>
        <time>2021-10-09T08:10:26Z</time>
      </trkpt>
      <trkpt lat="42.80994" lon="2.03431">
        <ele>759</ele>
        <time>2021-10-09T08:10:27Z</time>
      </trkpt>
      <trkpt lat="42.81002" lon="2.03437">
        <ele>758.6</ele>
        <time>2021-10-09T08:10:28Z</time>
      </trkpt>
      <trkpt lat="42.81012" lon="2.03443">
        <ele>758.2</ele>
        <time>2021-10-09T08:10:29Z</time>
      </trkpt>
      <trkpt lat="42.81031" lon="2.03448">
        <ele>757.6</ele>
        <time>2021-10-09T08:10:31Z</time>
      </trkpt>
      <trkpt lat="42.81071" lon="2.03457">
        <ele>756</ele>
        <time>2021-10-09T08:10:35Z</time>
      </trkpt>
      <trkpt lat="42.8108" lon="2.0346">
        <ele>755.4</ele>
        <time>2021-10-09T08:10:36Z</time>
      </trkpt>
      <trkpt lat="42.81139" lon="2.0348">
        <ele>753</ele>
        <time>2021-10-09T08:10:42Z</time>
      </trkpt>
      <trkpt lat="42.81167" lon="2.03493">
        <ele>751.8</ele>
        <time>2021-10-09T08:10:45Z</time>
      </trkpt>
      <trkpt lat="42.81218" lon="2.03517">
        <ele>749.6</ele>
        <time>2021-10-09T08:10:51Z</time>
      </trkpt>
      <trkpt lat="42.81235" lon="2.03525">
        <ele>749</ele>
        <time>2021-10-09T08:10:53Z</time>
      </trkpt>
      <trkpt lat="42.81288" lon="2.03562">
        <ele>746.4</ele>
        <time>2021-10-09T08:11:00Z</time>
      </trkpt>
      <trkpt lat="42.81338" lon="2.03605">
        <ele>744</ele>
        <time>2021-10-09T08:11:07Z</time>
      </trkpt>
      <trkpt lat="42.8139" lon="2.03652">
        <ele>741.4</ele>
        <time>2021-10-09T08:11:14Z</time>
      </trkpt>
      <trkpt lat="42.81438" lon="2.0369">
        <ele>739.2</ele>
        <time>2021-10-09T08:11:20Z</time>
      </trkpt>
      <trkpt lat="42.81447" lon="2.03697">
        <ele>738.8</ele>
        <time>2021-10-09T08:11:21Z</time>
      </trkpt>
      <trkpt lat="42.81487" lon="2.03722">
        <ele>737</ele>
        <time>2021-10-09T08:11:26Z</time>
      </trkpt>
      <trkpt lat="42.81519" lon="2.03742">
        <ele>735.4</ele>
        <time>2021-10-09T08:11:30Z</time>
      </trkpt>
      <trkpt lat="42.81535" lon="2.03752">
        <ele>734.6</ele>
        <time>2021-10-09T08:11:32Z</time>
      </trkpt>
      <trkpt lat="42.81583" lon="2.03776">
        <ele>732.2</ele>
        <time>2021-10-09T08:11:38Z</time>
      </trkpt>
      <trkpt lat="42.81615" lon="2.03789">
        <ele>730.2</ele>
        <time>2021-10-09T08:11:42Z</time>
      </trkpt>
      <trkpt lat="42.81652" lon="2.03805">
        <ele>728.2</ele>
        <time>2021-10-09T08:11:47Z</time>
      </trkpt>
      <trkpt lat="42.81659" lon="2.03808">
        <ele>727.8</ele>
        <time>2021-10-09T08:11:48Z</time>
      </trkpt>
      <trkpt lat="42.81679" lon="2.03814">
        <ele>726.8</ele>
        <time>2021-10-09T08:11:51Z</time>
      </trkpt>
      <trkpt lat="42.81693" lon="2.03818">
        <ele>726.2</ele>
        <time>2021-10-09T08:11:53Z</time>
      </trkpt>
      <trkpt lat="42.81705" lon="2.0382">
        <ele>725.6</ele>
        <time>2021-10-09T08:11:55Z</time>
      </trkpt>
      <trkpt lat="42.8172" lon="2.03814">
        <ele>725</ele>
        <time>2021-10-09T08:11:57Z</time>
      </trkpt>
      <trkpt lat="42.81727" lon="2.03811">
        <ele>724.8</ele>
        <time>2021-10-09T08:11:58Z</time>
      </trkpt>
      <trkpt lat="42.81733" lon="2.03805">
        <ele>724.4</ele>
        <time>2021-10-09T08:11:59Z</time>
      </trkpt>
      <trkpt lat="42.81742" lon="2.03789">
        <ele>723.8</ele>
        <time>2021-10-09T08:12:01Z</time>
      </trkpt>
      <trkpt lat="42.81746" lon="2.03782">
        <ele>723.6</ele>
        <time>2021-10-09T08:12:02Z</time>
      </trkpt>
      <trkpt lat="42.81757" lon="2.0376">
        <ele>722.6</ele>
        <time>2021-10-09T08:12:05Z</time>
      </trkpt>
      <trkpt lat="42.81762" lon="2.03752">
        <ele>722.6</ele>
        <time>2021-10-09T08:12:06Z</time>
      </trkpt>
      <trkpt lat="42.81781" lon="2.03731">
        <ele>721.6</ele>
        <time>2021-10-09T08:12:09Z</time>
      </trkpt>
      <trkpt lat="42.81802" lon="2.03713">
        <ele>721.2</ele>
        <time>2021-10-09T08:12:12Z</time>
      </trkpt>
      <trkpt lat="42.81809" lon="2.03709">
        <ele>720.8</ele>
        <time>2021-10-09T08:12:13Z</time>
      </trkpt>
      <trkpt lat="42.8185" lon="2.03689">
        <ele>721.2</ele>
        <time>2021-10-09T08:12:18Z</time>
      </trkpt>
      <trkpt lat="42.81901" lon="2.03673">
        <ele>721.2</ele>
        <time>2021-10-09T08:12:24Z</time>
      </trkpt>
      <trkpt lat="42.81948" lon="2.03668">
        <ele>722.8</ele>
        <time>2021-10-09T08:12:30Z</time>
      </trkpt>
      <trkpt lat="42.81997" lon="2.03669">
        <ele>722.8</ele>
        <time>2021-10-09T08:12:36Z</time>
      </trkpt>
      <trkpt lat="42.82003" lon="2.03672">
        <ele>722.8</ele>
        <time>2021-10-09T08:12:37Z</time>
      </trkpt>
      <trkpt lat="42.8201" lon="2.03678">
        <ele>722.8</ele>
        <time>2021-10-09T08:12:38Z</time>
      </trkpt>
      <trkpt lat="42.82023" lon="2.03689">
        <ele>722.8</ele>
        <time>2021-10-09T08:12:40Z</time>
      </trkpt>
      <trkpt lat="42.82045" lon="2.0374">
        <ele>722.8</ele>
        <time>2021-10-09T08:12:45Z</time>
      </trkpt>
      <trkpt lat="42.82061" lon="2.03767">
        <ele>722.8</ele>
        <time>2021-10-09T08:12:48Z</time>
      </trkpt>
      <trkpt lat="42.82067" lon="2.03775">
        <ele>722.6</ele>
        <time>2021-10-09T08:12:49Z</time>
      </trkpt>
      <trkpt lat="42.82107" lon="2.03824">
        <ele>722.6</ele>
        <time>2021-10-09T08:12:55Z</time>
      </trkpt>
      <trkpt lat="42.82153" lon="2.0387">
        <ele>722</ele>
        <time>2021-10-09T08:13:01Z</time>
      </trkpt>
      <trkpt lat="42.82161" lon="2.03877">
        <ele>721.8</ele>
        <time>2021-10-09T08:13:02Z</time>
      </trkpt>
      <trkpt lat="42.82208" lon="2.03928">
        <ele>721</ele>
        <time>2021-10-09T08:13:08Z</time>
      </trkpt>
      <trkpt lat="42.82223" lon="2.03945">
        <ele>720.6</ele>
        <time>2021-10-09T08:13:10Z</time>
      </trkpt>
      <trkpt lat="42.82268" lon="2.03999">
        <ele>719.6</ele>
        <time>2021-10-09T08:13:16Z</time>
      </trkpt>
      <trkpt lat="42.82275" lon="2.04009">
        <ele>719.4</ele>
        <time>2021-10-09T08:13:17Z</time>
      </trkpt>
      <trkpt lat="42.82311" lon="2.0407">
        <ele>718.2</ele>
        <time>2021-10-09T08:13:23Z</time>
      </trkpt>
      <trkpt lat="42.82317" lon="2.0408">
        <ele>718</ele>
        <time>2021-10-09T08:13:24Z</time>
      </trkpt>
      <trkpt lat="42.82355" lon="2.04146">
        <ele>717.4</ele>
        <time>2021-10-09T08:13:31Z</time>
      </trkpt>
      <trkpt lat="42.8236" lon="2.04156">
        <ele>717.2</ele>
        <time>2021-10-09T08:13:32Z</time>
      </trkpt>
      <trkpt lat="42.82395" lon="2.04214">
        <ele>716.4</ele>
        <time>2021-10-09T08:13:38Z</time>
      </trkpt>
      <trkpt lat="42.82427" lon="2.04259">
        <ele>716.4</ele>
        <time>2021-10-09T08:13:43Z</time>
      </trkpt>
      <trkpt lat="42.82433" lon="2.04267">
        <ele>716.2</ele>
        <time>2021-10-09T08:13:44Z</time>
      </trkpt>
      <trkpt lat="42.82445" lon="2.04285">
        <ele>716</ele>
        <time>2021-10-09T08:13:46Z</time>
      </trkpt>
      <trkpt lat="42.82473" lon="2.04332">
        <ele>715.6</ele>
        <time>2021-10-09T08:13:51Z</time>
      </trkpt>
      <trkpt lat="42.82498" lon="2.04383">
        <ele>715.2</ele>
        <time>2021-10-09T08:13:56Z</time>
      </trkpt>
      <trkpt lat="42.82512" lon="2.0443">
        <ele>714.8</ele>
        <time>2021-10-09T08:14:00Z</time>
      </trkpt>
      <trkpt lat="42.82514" lon="2.04495">
        <ele>714.2</ele>
        <time>2021-10-09T08:14:05Z</time>
      </trkpt>
      <trkpt lat="42.82517" lon="2.04574">
        <ele>713.4</ele>
        <time>2021-10-09T08:14:11Z</time>
      </trkpt>
      <trkpt lat="42.8252" lon="2.04652">
        <ele>712.2</ele>
        <time>2021-10-09T08:14:17Z</time>
      </trkpt>
      <trkpt lat="42.82524" lon="2.04726">
        <ele>711.4</ele>
        <time>2021-10-09T08:14:23Z</time>
      </trkpt>
      <trkpt lat="42.82525" lon="2.04738">
        <ele>711.2</ele>
        <time>2021-10-09T08:14:24Z</time>
      </trkpt>
      <trkpt lat="42.82529" lon="2.04749">
        <ele>711</ele>
        <time>2021-10-09T08:14:25Z</time>
      </trkpt>
      <trkpt lat="42.82539" lon="2.0477">
        <ele>710.8</ele>
        <time>2021-10-09T08:14:27Z</time>
      </trkpt>
      <trkpt lat="42.82566" lon="2.04822">
        <ele>710.4</ele>
        <time>2021-10-09T08:14:32Z</time>
      </trkpt>
      <trkpt lat="42.82581" lon="2.04852">
        <ele>710</ele>
        <time>2021-10-09T08:14:35Z</time>
      </trkpt>
      <trkpt lat="42.82585" lon="2.04877">
        <ele>709.8</ele>
        <time>2021-10-09T08:14:37Z</time>
      </trkpt>
      <trkpt lat="42.82591" lon="2.04941">
        <ele>709.2</ele>
        <time>2021-10-09T08:14:42Z</time>
      </trkpt>
      <trkpt lat="42.82598" lon="2.05017">
        <ele>708.4</ele>
        <time>2021-10-09T08:14:48Z</time>
      </trkpt>
      <trkpt lat="42.82599" lon="2.05029">
        <ele>708.2</ele>
        <time>2021-10-09T08:14:49Z</time>
      </trkpt>
      <trkpt lat="42.82606" lon="2.05102">
        <ele>707.4</ele>
        <time>2021-10-09T08:14:55Z</time>
      </trkpt>
      <trkpt lat="42.8261" lon="2.05138">
        <ele>707</ele>
        <time>2021-10-09T08:14:58Z</time>
      </trkpt>
      <trkpt lat="42.82618" lon="2.05221">
        <ele>706.2</ele>
        <time>2021-10-09T08:15:05Z</time>
      </trkpt>
      <trkpt lat="42.82619" lon="2.05233">
        <ele>706.2</ele>
        <time>2021-10-09T08:15:06Z</time>
      </trkpt>
      <trkpt lat="42.82628" lon="2.05313">
        <ele>705.2</ele>
        <time>2021-10-09T08:15:13Z</time>
      </trkpt>
      <trkpt lat="42.82629" lon="2.05324">
        <ele>705</ele>
        <time>2021-10-09T08:15:14Z</time>
      </trkpt>
      <trkpt lat="42.82637" lon="2.05357">
        <ele>704.6</ele>
        <time>2021-10-09T08:15:17Z</time>
      </trkpt>
      <trkpt lat="42.82642" lon="2.05367">
        <ele>704.4</ele>
        <time>2021-10-09T08:15:18Z</time>
      </trkpt>
      <trkpt lat="42.82647" lon="2.05377">
        <ele>704.2</ele>
        <time>2021-10-09T08:15:19Z</time>
      </trkpt>
      <trkpt lat="42.8266" lon="2.05391">
        <ele>704</ele>
        <time>2021-10-09T08:15:21Z</time>
      </trkpt>
      <trkpt lat="42.82677" lon="2.05401">
        <ele>703.8</ele>
        <time>2021-10-09T08:15:23Z</time>
      </trkpt>
      <trkpt lat="42.82694" lon="2.0541">
        <ele>703.4</ele>
        <time>2021-10-09T08:15:25Z</time>
      </trkpt>
      <trkpt lat="42.82729" lon="2.05425">
        <ele>702.8</ele>
        <time>2021-10-09T08:15:29Z</time>
      </trkpt>
      <trkpt lat="42.82738" lon="2.05432">
        <ele>702.6</ele>
        <time>2021-10-09T08:15:30Z</time>
      </trkpt>
      <trkpt lat="42.82745" lon="2.05438">
        <ele>702.6</ele>
        <time>2021-10-09T08:15:31Z</time>
      </trkpt>
      <trkpt lat="42.82758" lon="2.05454">
        <ele>702.4</ele>
        <time>2021-10-09T08:15:33Z</time>
      </trkpt>
      <trkpt lat="42.82763" lon="2.05464">
        <ele>702.2</ele>
        <time>2021-10-09T08:15:34Z</time>
      </trkpt>
      <trkpt lat="42.82776" lon="2.05495">
        <ele>701.8</ele>
        <time>2021-10-09T08:15:37Z</time>
      </trkpt>
      <trkpt lat="42.82779" lon="2.05505">
        <ele>701.6</ele>
        <time>2021-10-09T08:15:38Z</time>
      </trkpt>
      <trkpt lat="42.82785" lon="2.05511">
        <ele>701.6</ele>
        <time>2021-10-09T08:15:39Z</time>
      </trkpt>
      <trkpt lat="42.82792" lon="2.05516">
        <ele>701.4</ele>
        <time>2021-10-09T08:15:40Z</time>
      </trkpt>
      <trkpt lat="42.828" lon="2.05516">
        <ele>701.2</ele>
        <time>2021-10-09T08:15:41Z</time>
      </trkpt>
      <trkpt lat="42.82813" lon="2.05511">
        <ele>701</ele>
        <time>2021-10-09T08:15:43Z</time>
      </trkpt>
      <trkpt lat="42.82848" lon="2.05495">
        <ele>700</ele>
        <time>2021-10-09T08:15:48Z</time>
      </trkpt>
      <trkpt lat="42.82863" lon="2.05489">
        <ele>699.8</ele>
        <time>2021-10-09T08:15:50Z</time>
      </trkpt>
      <trkpt lat="42.82877" lon="2.05487">
        <ele>699.8</ele>
        <time>2021-10-09T08:15:52Z</time>
      </trkpt>
      <trkpt lat="42.82931" lon="2.05491">
        <ele>699.2</ele>
        <time>2021-10-09T08:15:59Z</time>
      </trkpt>
      <trkpt lat="42.82955" lon="2.05496">
        <ele>698.6</ele>
        <time>2021-10-09T08:16:02Z</time>
      </trkpt>
      <trkpt lat="42.82971" lon="2.05499">
        <ele>698.4</ele>
        <time>2021-10-09T08:16:04Z</time>
      </trkpt>
      <trkpt lat="42.82979" lon="2.05501">
        <ele>698.2</ele>
        <time>2021-10-09T08:16:05Z</time>
      </trkpt>
      <trkpt lat="42.82993" lon="2.05509">
        <ele>697.8</ele>
        <time>2021-10-09T08:16:07Z</time>
      </trkpt>
      <trkpt lat="42.83002" lon="2.05516">
        <ele>697.8</ele>
        <time>2021-10-09T08:16:08Z</time>
      </trkpt>
      <trkpt lat="42.83006" lon="2.05524">
        <ele>697.6</ele>
        <time>2021-10-09T08:16:09Z</time>
      </trkpt>
      <trkpt lat="42.83015" lon="2.05541">
        <ele>697.4</ele>
        <time>2021-10-09T08:16:11Z</time>
      </trkpt>
      <trkpt lat="42.8302" lon="2.05549">
        <ele>697.2</ele>
        <time>2021-10-09T08:16:12Z</time>
      </trkpt>
      <trkpt lat="42.83032" lon="2.056">
        <ele>696.8</ele>
        <time>2021-10-09T08:16:17Z</time>
      </trkpt>
      <trkpt lat="42.83042" lon="2.05641">
        <ele>696.4</ele>
        <time>2021-10-09T08:16:21Z</time>
      </trkpt>
      <trkpt lat="42.83047" lon="2.0565">
        <ele>696.2</ele>
        <time>2021-10-09T08:16:22Z</time>
      </trkpt>
      <trkpt lat="42.83052" lon="2.05658">
        <ele>696.2</ele>
        <time>2021-10-09T08:16:23Z</time>
      </trkpt>
      <trkpt lat="42.83064" lon="2.05672">
        <ele>696</ele>
        <time>2021-10-09T08:16:25Z</time>
      </trkpt>
      <trkpt lat="42.83071" lon="2.05678">
        <ele>696</ele>
        <time>2021-10-09T08:16:26Z</time>
      </trkpt>
      <trkpt lat="42.83077" lon="2.05683">
        <ele>695.8</ele>
        <time>2021-10-09T08:16:27Z</time>
      </trkpt>
      <trkpt lat="42.83092" lon="2.05683">
        <ele>695.6</ele>
        <time>2021-10-09T08:16:29Z</time>
      </trkpt>
      <trkpt lat="42.83115" lon="2.05665">
        <ele>695.4</ele>
        <time>2021-10-09T08:16:32Z</time>
      </trkpt>
      <trkpt lat="42.83129" lon="2.05652">
        <ele>695.2</ele>
        <time>2021-10-09T08:16:34Z</time>
      </trkpt>
      <trkpt lat="42.83144" lon="2.05641">
        <ele>695</ele>
        <time>2021-10-09T08:16:36Z</time>
      </trkpt>
      <trkpt lat="42.83152" lon="2.05638">
        <ele>694.8</ele>
        <time>2021-10-09T08:16:37Z</time>
      </trkpt>
      <trkpt lat="42.83169" lon="2.05632">
        <ele>694.8</ele>
        <time>2021-10-09T08:16:39Z</time>
      </trkpt>
      <trkpt lat="42.83176" lon="2.05631">
        <ele>694.6</ele>
        <time>2021-10-09T08:16:40Z</time>
      </trkpt>
      <trkpt lat="42.83203" lon="2.05632">
        <ele>694.4</ele>
        <time>2021-10-09T08:16:43Z</time>
      </trkpt>
      <trkpt lat="42.8321" lon="2.05634">
        <ele>694.4</ele>
        <time>2021-10-09T08:16:44Z</time>
      </trkpt>
      <trkpt lat="42.83227" lon="2.05638">
        <ele>694</ele>
        <time>2021-10-09T08:16:46Z</time>
      </trkpt>
      <trkpt lat="42.83241" lon="2.05648">
        <ele>694</ele>
        <time>2021-10-09T08:16:48Z</time>
      </trkpt>
      <trkpt lat="42.83273" lon="2.05676">
        <ele>693.6</ele>
        <time>2021-10-09T08:16:53Z</time>
      </trkpt>
      <trkpt lat="42.83285" lon="2.0568">
        <ele>694</ele>
        <time>2021-10-09T08:16:55Z</time>
      </trkpt>
      <trkpt lat="42.83292" lon="2.0568">
        <ele>694</ele>
        <time>2021-10-09T08:16:56Z</time>
      </trkpt>
      <trkpt lat="42.83299" lon="2.0568">
        <ele>694</ele>
        <time>2021-10-09T08:16:57Z</time>
      </trkpt>
      <trkpt lat="42.83321" lon="2.05666">
        <ele>693.8</ele>
        <time>2021-10-09T08:17:00Z</time>
      </trkpt>
      <trkpt lat="42.83356" lon="2.05643">
        <ele>693.8</ele>
        <time>2021-10-09T08:17:05Z</time>
      </trkpt>
      <trkpt lat="42.83393" lon="2.05628">
        <ele>693.6</ele>
        <time>2021-10-09T08:17:10Z</time>
      </trkpt>
      <trkpt lat="42.83401" lon="2.05628">
        <ele>693.6</ele>
        <time>2021-10-09T08:17:11Z</time>
      </trkpt>
      <trkpt lat="42.83407" lon="2.05629">
        <ele>693.6</ele>
        <time>2021-10-09T08:17:12Z</time>
      </trkpt>
      <trkpt lat="42.83422" lon="2.0564">
        <ele>693.6</ele>
        <time>2021-10-09T08:17:14Z</time>
      </trkpt>
      <trkpt lat="42.83437" lon="2.05652">
        <ele>693.4</ele>
        <time>2021-10-09T08:17:16Z</time>
      </trkpt>
      <trkpt lat="42.83443" lon="2.0566">
        <ele>693.4</ele>
        <time>2021-10-09T08:17:17Z</time>
      </trkpt>
      <trkpt lat="42.83448" lon="2.05669">
        <ele>693.2</ele>
        <time>2021-10-09T08:17:18Z</time>
      </trkpt>
      <trkpt lat="42.83459" lon="2.05698">
        <ele>693</ele>
        <time>2021-10-09T08:17:21Z</time>
      </trkpt>
      <trkpt lat="42.83465" lon="2.05718">
        <ele>693</ele>
        <time>2021-10-09T08:17:23Z</time>
      </trkpt>
      <trkpt lat="42.83466" lon="2.0574">
        <ele>693</ele>
        <time>2021-10-09T08:17:25Z</time>
      </trkpt>
      <trkpt lat="42.83472" lon="2.05816">
        <ele>692.8</ele>
        <time>2021-10-09T08:17:32Z</time>
      </trkpt>
      <trkpt lat="42.83473" lon="2.05827">
        <ele>692.8</ele>
        <time>2021-10-09T08:17:33Z</time>
      </trkpt>
      <trkpt lat="42.83476" lon="2.05858">
        <ele>693</ele>
        <time>2021-10-09T08:17:36Z</time>
      </trkpt>
      <trkpt lat="42.83479" lon="2.0588">
        <ele>693</ele>
        <time>2021-10-09T08:17:38Z</time>
      </trkpt>
      <trkpt lat="42.83499" lon="2.05941">
        <ele>692.8</ele>
        <time>2021-10-09T08:17:44Z</time>
      </trkpt>
      <trkpt lat="42.8351" lon="2.05957">
        <ele>692.6</ele>
        <time>2021-10-09T08:17:46Z</time>
      </trkpt>
      <trkpt lat="42.83522" lon="2.05973">
        <ele>692.6</ele>
        <time>2021-10-09T08:17:48Z</time>
      </trkpt>
      <trkpt lat="42.83568" lon="2.06029">
        <ele>692</ele>
        <time>2021-10-09T08:17:55Z</time>
      </trkpt>
      <trkpt lat="42.83574" lon="2.06037">
        <ele>691.8</ele>
        <time>2021-10-09T08:17:56Z</time>
      </trkpt>
      <trkpt lat="42.83585" lon="2.06054">
        <ele>691.4</ele>
        <time>2021-10-09T08:17:58Z</time>
      </trkpt>
      <trkpt lat="42.83594" lon="2.06071">
        <ele>691.2</ele>
        <time>2021-10-09T08:18:00Z</time>
      </trkpt>
      <trkpt lat="42.83598" lon="2.06078">
        <ele>691</ele>
        <time>2021-10-09T08:18:01Z</time>
      </trkpt>
      <trkpt lat="42.83605" lon="2.0609">
        <ele>690.8</ele>
        <time>2021-10-09T08:18:03Z</time>
      </trkpt>
      <trkpt lat="42.83612" lon="2.06107">
        <ele>690.4</ele>
        <time>2021-10-09T08:18:07Z</time>
      </trkpt>
      <trkpt lat="42.83619" lon="2.06122">
        <ele>689.6</ele>
        <time>2021-10-09T08:18:12Z</time>
      </trkpt>
      <trkpt lat="42.8362" lon="2.06125">
        <ele>689.4</ele>
        <time>2021-10-09T08:18:14Z</time>
      </trkpt>
      <trkpt lat="42.8362" lon="2.06126">
        <ele>689</ele>
        <time>2021-10-09T08:18:17Z</time>
      </trkpt>
      <trkpt lat="42.83619" lon="2.06124">
        <ele>685.6</ele>
        <time>2021-10-09T08:49:23Z</time>
      </trkpt>
      <trkpt lat="42.83622" lon="2.0613">
        <ele>685.6</ele>
        <time>2021-10-09T08:49:25Z</time>
      </trkpt>
      <trkpt lat="42.83628" lon="2.06146">
        <ele>685.8</ele>
        <time>2021-10-09T08:49:30Z</time>
      </trkpt>
      <trkpt lat="42.83634" lon="2.06159">
        <ele>686</ele>
        <time>2021-10-09T08:49:33Z</time>
      </trkpt>
      <trkpt lat="42.83635" lon="2.06166">
        <ele>686</ele>
        <time>2021-10-09T08:49:34Z</time>
      </trkpt>
      <trkpt lat="42.83637" lon="2.06185">
        <ele>686</ele>
        <time>2021-10-09T08:49:37Z</time>
      </trkpt>
      <trkpt lat="42.83638" lon="2.06199">
        <ele>686</ele>
        <time>2021-10-09T08:49:39Z</time>
      </trkpt>
      <trkpt lat="42.83643" lon="2.06232">
        <ele>686</ele>
        <time>2021-10-09T08:49:44Z</time>
      </trkpt>
      <trkpt lat="42.83644" lon="2.06238">
        <ele>686</ele>
        <time>2021-10-09T08:49:46Z</time>
      </trkpt>
      <trkpt lat="42.83645" lon="2.0624">
        <ele>686</ele>
        <time>2021-10-09T08:49:48Z</time>
      </trkpt>
      <trkpt lat="42.83646" lon="2.06245">
        <ele>686</ele>
        <time>2021-10-09T08:49:49Z</time>
      </trkpt>
      <trkpt lat="42.83651" lon="2.06263">
        <ele>685.2</ele>
        <time>2021-10-09T08:49:51Z</time>
      </trkpt>
      <trkpt lat="42.83653" lon="2.06272">
        <ele>685</ele>
        <time>2021-10-09T08:49:52Z</time>
      </trkpt>
      <trkpt lat="42.83671" lon="2.06292">
        <ele>684.6</ele>
        <time>2021-10-09T08:49:55Z</time>
      </trkpt>
      <trkpt lat="42.83698" lon="2.06321">
        <ele>684.6</ele>
        <time>2021-10-09T08:50:00Z</time>
      </trkpt>
      <trkpt lat="42.83703" lon="2.06328">
        <ele>684.4</ele>
        <time>2021-10-09T08:50:01Z</time>
      </trkpt>
      <trkpt lat="42.83709" lon="2.06343">
        <ele>684.4</ele>
        <time>2021-10-09T08:50:03Z</time>
      </trkpt>
      <trkpt lat="42.83712" lon="2.06363">
        <ele>684.4</ele>
        <time>2021-10-09T08:50:05Z</time>
      </trkpt>
      <trkpt lat="42.83712" lon="2.06383">
        <ele>684.4</ele>
        <time>2021-10-09T08:50:07Z</time>
      </trkpt>
      <trkpt lat="42.83712" lon="2.06393">
        <ele>684.2</ele>
        <time>2021-10-09T08:50:08Z</time>
      </trkpt>
      <trkpt lat="42.83706" lon="2.06423">
        <ele>684.2</ele>
        <time>2021-10-09T08:50:11Z</time>
      </trkpt>
      <trkpt lat="42.83703" lon="2.06432">
        <ele>684</ele>
        <time>2021-10-09T08:50:12Z</time>
      </trkpt>
      <trkpt lat="42.83696" lon="2.06451">
        <ele>684</ele>
        <time>2021-10-09T08:50:14Z</time>
      </trkpt>
      <trkpt lat="42.83682" lon="2.06464">
        <ele>683.8</ele>
        <time>2021-10-09T08:50:16Z</time>
      </trkpt>
      <trkpt lat="42.83674" lon="2.06461">
        <ele>683.8</ele>
        <time>2021-10-09T08:50:17Z</time>
      </trkpt>
      <trkpt lat="42.83668" lon="2.06458">
        <ele>683.8</ele>
        <time>2021-10-09T08:50:18Z</time>
      </trkpt>
      <trkpt lat="42.83653" lon="2.06453">
        <ele>683.6</ele>
        <time>2021-10-09T08:50:20Z</time>
      </trkpt>
      <trkpt lat="42.83638" lon="2.06451">
        <ele>683.4</ele>
        <time>2021-10-09T08:50:22Z</time>
      </trkpt>
      <trkpt lat="42.83624" lon="2.06453">
        <ele>683.4</ele>
        <time>2021-10-09T08:50:24Z</time>
      </trkpt>
      <trkpt lat="42.8361" lon="2.0646">
        <ele>683.2</ele>
        <time>2021-10-09T08:50:26Z</time>
      </trkpt>
      <trkpt lat="42.83604" lon="2.06463">
        <ele>683</ele>
        <time>2021-10-09T08:50:27Z</time>
      </trkpt>
      <trkpt lat="42.83598" lon="2.06467">
        <ele>683</ele>
        <time>2021-10-09T08:50:28Z</time>
      </trkpt>
      <trkpt lat="42.83578" lon="2.06492">
        <ele>682.8</ele>
        <time>2021-10-09T08:50:32Z</time>
      </trkpt>
      <trkpt lat="42.83558" lon="2.06518">
        <ele>682.6</ele>
        <time>2021-10-09T08:50:36Z</time>
      </trkpt>
      <trkpt lat="42.83555" lon="2.06526">
        <ele>682.6</ele>
        <time>2021-10-09T08:50:37Z</time>
      </trkpt>
      <trkpt lat="42.83551" lon="2.06534">
        <ele>682.6</ele>
        <time>2021-10-09T08:50:38Z</time>
      </trkpt>
      <trkpt lat="42.83548" lon="2.06553">
        <ele>682.4</ele>
        <time>2021-10-09T08:50:40Z</time>
      </trkpt>
      <trkpt lat="42.83546" lon="2.06561">
        <ele>682.4</ele>
        <time>2021-10-09T08:50:41Z</time>
      </trkpt>
      <trkpt lat="42.83544" lon="2.06574">
        <ele>682.2</ele>
        <time>2021-10-09T08:50:43Z</time>
      </trkpt>
      <trkpt lat="42.83541" lon="2.06585">
        <ele>682.2</ele>
        <time>2021-10-09T08:50:45Z</time>
      </trkpt>
      <trkpt lat="42.83529" lon="2.06596">
        <ele>681.8</ele>
        <time>2021-10-09T08:50:50Z</time>
      </trkpt>
      <trkpt lat="42.83523" lon="2.06603">
        <ele>681.6</ele>
        <time>2021-10-09T08:50:54Z</time>
      </trkpt>
      <trkpt lat="42.8352" lon="2.06607">
        <ele>681.4</ele>
        <time>2021-10-09T08:50:56Z</time>
      </trkpt>
      <trkpt lat="42.83517" lon="2.06612">
        <ele>681.2</ele>
        <time>2021-10-09T08:50:58Z</time>
      </trkpt>
      <trkpt lat="42.83512" lon="2.06621">
        <ele>681.2</ele>
        <time>2021-10-09T08:51:00Z</time>
      </trkpt>
      <trkpt lat="42.835" lon="2.06665">
        <ele>681</ele>
        <time>2021-10-09T08:51:06Z</time>
      </trkpt>
      <trkpt lat="42.835" lon="2.06674">
        <ele>681</ele>
        <time>2021-10-09T08:51:07Z</time>
      </trkpt>
      <trkpt lat="42.83496" lon="2.067">
        <ele>680.8</ele>
        <time>2021-10-09T08:51:10Z</time>
      </trkpt>
      <trkpt lat="42.83493" lon="2.06707">
        <ele>680.8</ele>
        <time>2021-10-09T08:51:11Z</time>
      </trkpt>
      <trkpt lat="42.8349" lon="2.06715">
        <ele>680.8</ele>
        <time>2021-10-09T08:51:12Z</time>
      </trkpt>
      <trkpt lat="42.8348" lon="2.0674">
        <ele>680.6</ele>
        <time>2021-10-09T08:51:15Z</time>
      </trkpt>
      <trkpt lat="42.83477" lon="2.0675">
        <ele>680.6</ele>
        <time>2021-10-09T08:51:16Z</time>
      </trkpt>
      <trkpt lat="42.83471" lon="2.0677">
        <ele>680.4</ele>
        <time>2021-10-09T08:51:18Z</time>
      </trkpt>
      <trkpt lat="42.8347" lon="2.06809">
        <ele>680.4</ele>
        <time>2021-10-09T08:51:22Z</time>
      </trkpt>
      <trkpt lat="42.83467" lon="2.06835">
        <ele>680.2</ele>
        <time>2021-10-09T08:51:24Z</time>
      </trkpt>
      <trkpt lat="42.83466" lon="2.06908">
        <ele>680</ele>
        <time>2021-10-09T08:51:30Z</time>
      </trkpt>
      <trkpt lat="42.83461" lon="2.06916">
        <ele>680</ele>
        <time>2021-10-09T08:51:31Z</time>
      </trkpt>
      <trkpt lat="42.8345" lon="2.06925">
        <ele>680</ele>
        <time>2021-10-09T08:51:32Z</time>
      </trkpt>
      <trkpt lat="42.83443" lon="2.0693">
        <ele>680</ele>
        <time>2021-10-09T08:51:33Z</time>
      </trkpt>
      <trkpt lat="42.83437" lon="2.06937">
        <ele>679.8</ele>
        <time>2021-10-09T08:51:34Z</time>
      </trkpt>
      <trkpt lat="42.83428" lon="2.06953">
        <ele>679.8</ele>
        <time>2021-10-09T08:51:36Z</time>
      </trkpt>
      <trkpt lat="42.83404" lon="2.07004">
        <ele>679.6</ele>
        <time>2021-10-09T08:51:41Z</time>
      </trkpt>
      <trkpt lat="42.83388" lon="2.07017">
        <ele>679.6</ele>
        <time>2021-10-09T08:51:43Z</time>
      </trkpt>
      <trkpt lat="42.83339" lon="2.07051">
        <ele>679.4</ele>
        <time>2021-10-09T08:51:49Z</time>
      </trkpt>
      <trkpt lat="42.83332" lon="2.07057">
        <ele>679.2</ele>
        <time>2021-10-09T08:51:50Z</time>
      </trkpt>
      <trkpt lat="42.83319" lon="2.07072">
        <ele>679.2</ele>
        <time>2021-10-09T08:51:52Z</time>
      </trkpt>
      <trkpt lat="42.83308" lon="2.07091">
        <ele>679.2</ele>
        <time>2021-10-09T08:51:54Z</time>
      </trkpt>
      <trkpt lat="42.83275" lon="2.07149">
        <ele>679</ele>
        <time>2021-10-09T08:52:00Z</time>
      </trkpt>
      <trkpt lat="42.83249" lon="2.07213">
        <ele>678.6</ele>
        <time>2021-10-09T08:52:06Z</time>
      </trkpt>
      <trkpt lat="42.8324" lon="2.07235">
        <ele>678.6</ele>
        <time>2021-10-09T08:52:08Z</time>
      </trkpt>
      <trkpt lat="42.83212" lon="2.07303">
        <ele>678.4</ele>
        <time>2021-10-09T08:52:14Z</time>
      </trkpt>
      <trkpt lat="42.83207" lon="2.07314">
        <ele>678.4</ele>
        <time>2021-10-09T08:52:15Z</time>
      </trkpt>
      <trkpt lat="42.83179" lon="2.07384">
        <ele>678.2</ele>
        <time>2021-10-09T08:52:21Z</time>
      </trkpt>
      <trkpt lat="42.83169" lon="2.07408">
        <ele>678</ele>
        <time>2021-10-09T08:52:23Z</time>
      </trkpt>
      <trkpt lat="42.83143" lon="2.0748">
        <ele>677.8</ele>
        <time>2021-10-09T08:52:29Z</time>
      </trkpt>
      <trkpt lat="42.83138" lon="2.07494">
        <ele>677.6</ele>
        <time>2021-10-09T08:52:30Z</time>
      </trkpt>
      <trkpt lat="42.83116" lon="2.07542">
        <ele>677.4</ele>
        <time>2021-10-09T08:52:34Z</time>
      </trkpt>
      <trkpt lat="42.83094" lon="2.07607">
        <ele>677.2</ele>
        <time>2021-10-09T08:52:39Z</time>
      </trkpt>
      <trkpt lat="42.83072" lon="2.07675">
        <ele>676.8</ele>
        <time>2021-10-09T08:52:44Z</time>
      </trkpt>
      <trkpt lat="42.83066" lon="2.07705">
        <ele>676.8</ele>
        <time>2021-10-09T08:52:46Z</time>
      </trkpt>
      <trkpt lat="42.83042" lon="2.07776">
        <ele>676.4</ele>
        <time>2021-10-09T08:52:51Z</time>
      </trkpt>
      <trkpt lat="42.83024" lon="2.07817">
        <ele>676</ele>
        <time>2021-10-09T08:52:54Z</time>
      </trkpt>
      <trkpt lat="42.83016" lon="2.07827">
        <ele>675.8</ele>
        <time>2021-10-09T08:52:55Z</time>
      </trkpt>
      <trkpt lat="42.83008" lon="2.07836">
        <ele>675.4</ele>
        <time>2021-10-09T08:52:56Z</time>
      </trkpt>
      <trkpt lat="42.82986" lon="2.07868">
        <ele>674.4</ele>
        <time>2021-10-09T08:52:59Z</time>
      </trkpt>
      <trkpt lat="42.82981" lon="2.0788">
        <ele>674</ele>
        <time>2021-10-09T08:53:00Z</time>
      </trkpt>
      <trkpt lat="42.82971" lon="2.07905">
        <ele>673.2</ele>
        <time>2021-10-09T08:53:02Z</time>
      </trkpt>
      <trkpt lat="42.82968" lon="2.07917">
        <ele>672.6</ele>
        <time>2021-10-09T08:53:03Z</time>
      </trkpt>
      <trkpt lat="42.82967" lon="2.07932">
        <ele>672</ele>
        <time>2021-10-09T08:53:04Z</time>
      </trkpt>
      <trkpt lat="42.82964" lon="2.07961">
        <ele>670.8</ele>
        <time>2021-10-09T08:53:06Z</time>
      </trkpt>
      <trkpt lat="42.82954" lon="2.08039">
        <ele>669.4</ele>
        <time>2021-10-09T08:53:11Z</time>
      </trkpt>
      <trkpt lat="42.82939" lon="2.08095">
        <ele>667.4</ele>
        <time>2021-10-09T08:53:15Z</time>
      </trkpt>
      <trkpt lat="42.82919" lon="2.08147">
        <ele>665</ele>
        <time>2021-10-09T08:53:19Z</time>
      </trkpt>
      <trkpt lat="42.82911" lon="2.08159">
        <ele>664.4</ele>
        <time>2021-10-09T08:53:20Z</time>
      </trkpt>
      <trkpt lat="42.82897" lon="2.08182">
        <ele>663.2</ele>
        <time>2021-10-09T08:53:22Z</time>
      </trkpt>
      <trkpt lat="42.8288" lon="2.082">
        <ele>662.2</ele>
        <time>2021-10-09T08:53:24Z</time>
      </trkpt>
      <trkpt lat="42.82863" lon="2.08221">
        <ele>661.2</ele>
        <time>2021-10-09T08:53:26Z</time>
      </trkpt>
      <trkpt lat="42.82857" lon="2.08234">
        <ele>660.6</ele>
        <time>2021-10-09T08:53:27Z</time>
      </trkpt>
      <trkpt lat="42.82852" lon="2.08248">
        <ele>660.2</ele>
        <time>2021-10-09T08:53:28Z</time>
      </trkpt>
      <trkpt lat="42.82848" lon="2.08277">
        <ele>659</ele>
        <time>2021-10-09T08:53:30Z</time>
      </trkpt>
      <trkpt lat="42.82847" lon="2.08292">
        <ele>658.2</ele>
        <time>2021-10-09T08:53:31Z</time>
      </trkpt>
      <trkpt lat="42.82844" lon="2.08337">
        <ele>655.8</ele>
        <time>2021-10-09T08:53:34Z</time>
      </trkpt>
      <trkpt lat="42.82844" lon="2.08413">
        <ele>651.8</ele>
        <time>2021-10-09T08:53:39Z</time>
      </trkpt>
      <trkpt lat="42.82845" lon="2.08428">
        <ele>651.2</ele>
        <time>2021-10-09T08:53:40Z</time>
      </trkpt>
      <trkpt lat="42.82844" lon="2.0847">
        <ele>649.2</ele>
        <time>2021-10-09T08:53:43Z</time>
      </trkpt>
      <trkpt lat="42.82841" lon="2.08484">
        <ele>648.4</ele>
        <time>2021-10-09T08:53:44Z</time>
      </trkpt>
      <trkpt lat="42.82837" lon="2.08495">
        <ele>647.8</ele>
        <time>2021-10-09T08:53:45Z</time>
      </trkpt>
      <trkpt lat="42.82825" lon="2.08519">
        <ele>646.4</ele>
        <time>2021-10-09T08:53:47Z</time>
      </trkpt>
      <trkpt lat="42.82785" lon="2.08587">
        <ele>642.4</ele>
        <time>2021-10-09T08:53:53Z</time>
      </trkpt>
      <trkpt lat="42.82778" lon="2.08594">
        <ele>641.8</ele>
        <time>2021-10-09T08:53:54Z</time>
      </trkpt>
      <trkpt lat="42.82769" lon="2.08601">
        <ele>641.2</ele>
        <time>2021-10-09T08:53:55Z</time>
      </trkpt>
      <trkpt lat="42.8274" lon="2.08623">
        <ele>639.4</ele>
        <time>2021-10-09T08:53:58Z</time>
      </trkpt>
      <trkpt lat="42.82726" lon="2.08645">
        <ele>638</ele>
        <time>2021-10-09T08:54:00Z</time>
      </trkpt>
      <trkpt lat="42.82722" lon="2.08658">
        <ele>637.4</ele>
        <time>2021-10-09T08:54:01Z</time>
      </trkpt>
      <trkpt lat="42.82705" lon="2.08708">
        <ele>635</ele>
        <time>2021-10-09T08:54:05Z</time>
      </trkpt>
      <trkpt lat="42.82703" lon="2.08721">
        <ele>634.4</ele>
        <time>2021-10-09T08:54:06Z</time>
      </trkpt>
      <trkpt lat="42.82702" lon="2.08735">
        <ele>633.6</ele>
        <time>2021-10-09T08:54:07Z</time>
      </trkpt>
      <trkpt lat="42.82706" lon="2.08761">
        <ele>632.2</ele>
        <time>2021-10-09T08:54:09Z</time>
      </trkpt>
      <trkpt lat="42.82722" lon="2.08836">
        <ele>628.2</ele>
        <time>2021-10-09T08:54:15Z</time>
      </trkpt>
      <trkpt lat="42.82737" lon="2.08909">
        <ele>624.4</ele>
        <time>2021-10-09T08:54:21Z</time>
      </trkpt>
      <trkpt lat="42.82737" lon="2.08921">
        <ele>623.8</ele>
        <time>2021-10-09T08:54:22Z</time>
      </trkpt>
      <trkpt lat="42.82733" lon="2.08943">
        <ele>622.4</ele>
        <time>2021-10-09T08:54:24Z</time>
      </trkpt>
      <trkpt lat="42.82718" lon="2.09004">
        <ele>619.4</ele>
        <time>2021-10-09T08:54:29Z</time>
      </trkpt>
      <trkpt lat="42.82699" lon="2.09081">
        <ele>616</ele>
        <time>2021-10-09T08:54:35Z</time>
      </trkpt>
      <trkpt lat="42.82698" lon="2.09109">
        <ele>614.8</ele>
        <time>2021-10-09T08:54:37Z</time>
      </trkpt>
      <trkpt lat="42.827" lon="2.09123">
        <ele>614.2</ele>
        <time>2021-10-09T08:54:38Z</time>
      </trkpt>
      <trkpt lat="42.82713" lon="2.09203">
        <ele>610.8</ele>
        <time>2021-10-09T08:54:44Z</time>
      </trkpt>
      <trkpt lat="42.82716" lon="2.09216">
        <ele>610.4</ele>
        <time>2021-10-09T08:54:45Z</time>
      </trkpt>
      <trkpt lat="42.82721" lon="2.09242">
        <ele>609</ele>
        <time>2021-10-09T08:54:47Z</time>
      </trkpt>
      <trkpt lat="42.82725" lon="2.09269">
        <ele>608</ele>
        <time>2021-10-09T08:54:49Z</time>
      </trkpt>
      <trkpt lat="42.82722" lon="2.09295">
        <ele>606.8</ele>
        <time>2021-10-09T08:54:51Z</time>
      </trkpt>
      <trkpt lat="42.82714" lon="2.09364">
        <ele>603.8</ele>
        <time>2021-10-09T08:54:56Z</time>
      </trkpt>
      <trkpt lat="42.82714" lon="2.09379">
        <ele>603.2</ele>
        <time>2021-10-09T08:54:57Z</time>
      </trkpt>
      <trkpt lat="42.82714" lon="2.0942">
        <ele>601.8</ele>
        <time>2021-10-09T08:55:00Z</time>
      </trkpt>
      <trkpt lat="42.82711" lon="2.09433">
        <ele>601.2</ele>
        <time>2021-10-09T08:55:01Z</time>
      </trkpt>
      <trkpt lat="42.82704" lon="2.0946">
        <ele>600.2</ele>
        <time>2021-10-09T08:55:03Z</time>
      </trkpt>
      <trkpt lat="42.82697" lon="2.09487">
        <ele>599.2</ele>
        <time>2021-10-09T08:55:05Z</time>
      </trkpt>
      <trkpt lat="42.82695" lon="2.095">
        <ele>598.6</ele>
        <time>2021-10-09T08:55:06Z</time>
      </trkpt>
      <trkpt lat="42.82698" lon="2.09524">
        <ele>597.4</ele>
        <time>2021-10-09T08:55:08Z</time>
      </trkpt>
      <trkpt lat="42.82709" lon="2.0956">
        <ele>596.2</ele>
        <time>2021-10-09T08:55:11Z</time>
      </trkpt>
      <trkpt lat="42.82737" lon="2.09618">
        <ele>593.8</ele>
        <time>2021-10-09T08:55:16Z</time>
      </trkpt>
      <trkpt lat="42.82763" lon="2.09641">
        <ele>592.4</ele>
        <time>2021-10-09T08:55:19Z</time>
      </trkpt>
      <trkpt lat="42.828" lon="2.09689">
        <ele>590.4</ele>
        <time>2021-10-09T08:55:24Z</time>
      </trkpt>
      <trkpt lat="42.82842" lon="2.09751">
        <ele>588</ele>
        <time>2021-10-09T08:55:30Z</time>
      </trkpt>
      <trkpt lat="42.82849" lon="2.09761">
        <ele>587.8</ele>
        <time>2021-10-09T08:55:31Z</time>
      </trkpt>
      <trkpt lat="42.82888" lon="2.09821">
        <ele>585.4</ele>
        <time>2021-10-09T08:55:37Z</time>
      </trkpt>
      <trkpt lat="42.82925" lon="2.09882">
        <ele>583.4</ele>
        <time>2021-10-09T08:55:43Z</time>
      </trkpt>
      <trkpt lat="42.82955" lon="2.09934">
        <ele>581.8</ele>
        <time>2021-10-09T08:55:48Z</time>
      </trkpt>
      <trkpt lat="42.82962" lon="2.09944">
        <ele>581.6</ele>
        <time>2021-10-09T08:55:49Z</time>
      </trkpt>
      <trkpt lat="42.82987" lon="2.09994">
        <ele>580.2</ele>
        <time>2021-10-09T08:55:54Z</time>
      </trkpt>
      <trkpt lat="42.82996" lon="2.10016">
        <ele>579.6</ele>
        <time>2021-10-09T08:55:56Z</time>
      </trkpt>
      <trkpt lat="42.83003" lon="2.10038">
        <ele>579.2</ele>
        <time>2021-10-09T08:55:58Z</time>
      </trkpt>
      <trkpt lat="42.83012" lon="2.10089">
        <ele>578.2</ele>
        <time>2021-10-09T08:56:02Z</time>
      </trkpt>
      <trkpt lat="42.83012" lon="2.10102">
        <ele>578</ele>
        <time>2021-10-09T08:56:03Z</time>
      </trkpt>
      <trkpt lat="42.83013" lon="2.10129">
        <ele>577.4</ele>
        <time>2021-10-09T08:56:05Z</time>
      </trkpt>
      <trkpt lat="42.83014" lon="2.10155">
        <ele>577</ele>
        <time>2021-10-09T08:56:07Z</time>
      </trkpt>
      <trkpt lat="42.83023" lon="2.10177">
        <ele>576.6</ele>
        <time>2021-10-09T08:56:09Z</time>
      </trkpt>
      <trkpt lat="42.83028" lon="2.10188">
        <ele>576.4</ele>
        <time>2021-10-09T08:56:10Z</time>
      </trkpt>
      <trkpt lat="42.83053" lon="2.10226">
        <ele>575.6</ele>
        <time>2021-10-09T08:56:14Z</time>
      </trkpt>
      <trkpt lat="42.8309" lon="2.10273">
        <ele>574.8</ele>
        <time>2021-10-09T08:56:19Z</time>
      </trkpt>
      <trkpt lat="42.83133" lon="2.1033">
        <ele>573.8</ele>
        <time>2021-10-09T08:56:25Z</time>
      </trkpt>
      <trkpt lat="42.83148" lon="2.10349">
        <ele>573.4</ele>
        <time>2021-10-09T08:56:27Z</time>
      </trkpt>
      <trkpt lat="42.83163" lon="2.10369">
        <ele>573.2</ele>
        <time>2021-10-09T08:56:29Z</time>
      </trkpt>
      <trkpt lat="42.83181" lon="2.1042">
        <ele>572.6</ele>
        <time>2021-10-09T08:56:33Z</time>
      </trkpt>
      <trkpt lat="42.83204" lon="2.10494">
        <ele>571.8</ele>
        <time>2021-10-09T08:56:39Z</time>
      </trkpt>
      <trkpt lat="42.83208" lon="2.10505">
        <ele>571.6</ele>
        <time>2021-10-09T08:56:40Z</time>
      </trkpt>
      <trkpt lat="42.83213" lon="2.10516">
        <ele>571.6</ele>
        <time>2021-10-09T08:56:41Z</time>
      </trkpt>
      <trkpt lat="42.83229" lon="2.10548">
        <ele>571.2</ele>
        <time>2021-10-09T08:56:44Z</time>
      </trkpt>
      <trkpt lat="42.83239" lon="2.10568">
        <ele>571</ele>
        <time>2021-10-09T08:56:46Z</time>
      </trkpt>
      <trkpt lat="42.83255" lon="2.106">
        <ele>570.6</ele>
        <time>2021-10-09T08:56:49Z</time>
      </trkpt>
      <trkpt lat="42.83268" lon="2.10636">
        <ele>570.4</ele>
        <time>2021-10-09T08:56:52Z</time>
      </trkpt>
      <trkpt lat="42.83272" lon="2.10647">
        <ele>570.2</ele>
        <time>2021-10-09T08:56:53Z</time>
      </trkpt>
      <trkpt lat="42.83278" lon="2.10696">
        <ele>569.8</ele>
        <time>2021-10-09T08:56:57Z</time>
      </trkpt>
      <trkpt lat="42.83279" lon="2.10708">
        <ele>569.6</ele>
        <time>2021-10-09T08:56:58Z</time>
      </trkpt>
      <trkpt lat="42.83277" lon="2.10734">
        <ele>569.4</ele>
        <time>2021-10-09T08:57:00Z</time>
      </trkpt>
      <trkpt lat="42.83275" lon="2.10746">
        <ele>569.4</ele>
        <time>2021-10-09T08:57:01Z</time>
      </trkpt>
      <trkpt lat="42.83272" lon="2.10759">
        <ele>569.2</ele>
        <time>2021-10-09T08:57:02Z</time>
      </trkpt>
      <trkpt lat="42.83263" lon="2.10797">
        <ele>569</ele>
        <time>2021-10-09T08:57:05Z</time>
      </trkpt>
      <trkpt lat="42.83253" lon="2.10848">
        <ele>568.6</ele>
        <time>2021-10-09T08:57:09Z</time>
      </trkpt>
      <trkpt lat="42.83247" lon="2.10873">
        <ele>568.4</ele>
        <time>2021-10-09T08:57:11Z</time>
      </trkpt>
      <trkpt lat="42.83236" lon="2.10894">
        <ele>568.2</ele>
        <time>2021-10-09T08:57:13Z</time>
      </trkpt>
      <trkpt lat="42.83216" lon="2.10924">
        <ele>568</ele>
        <time>2021-10-09T08:57:16Z</time>
      </trkpt>
      <trkpt lat="42.8321" lon="2.10933">
        <ele>567.8</ele>
        <time>2021-10-09T08:57:17Z</time>
      </trkpt>
      <trkpt lat="42.83198" lon="2.10965">
        <ele>567.4</ele>
        <time>2021-10-09T08:57:20Z</time>
      </trkpt>
      <trkpt lat="42.83178" lon="2.11008">
        <ele>566.8</ele>
        <time>2021-10-09T08:57:24Z</time>
      </trkpt>
      <trkpt lat="42.83175" lon="2.1102">
        <ele>566.6</ele>
        <time>2021-10-09T08:57:25Z</time>
      </trkpt>
      <trkpt lat="42.83163" lon="2.11072">
        <ele>566.2</ele>
        <time>2021-10-09T08:57:29Z</time>
      </trkpt>
      <trkpt lat="42.8316" lon="2.11084">
        <ele>566.2</ele>
        <time>2021-10-09T08:57:30Z</time>
      </trkpt>
      <trkpt lat="42.8316" lon="2.11097">
        <ele>566</ele>
        <time>2021-10-09T08:57:31Z</time>
      </trkpt>
      <trkpt lat="42.83162" lon="2.11124">
        <ele>565.8</ele>
        <time>2021-10-09T08:57:33Z</time>
      </trkpt>
      <trkpt lat="42.83163" lon="2.1115">
        <ele>565.6</ele>
        <time>2021-10-09T08:57:35Z</time>
      </trkpt>
      <trkpt lat="42.83164" lon="2.11176">
        <ele>565.4</ele>
        <time>2021-10-09T08:57:37Z</time>
      </trkpt>
      <trkpt lat="42.83145" lon="2.11238">
        <ele>565</ele>
        <time>2021-10-09T08:57:42Z</time>
      </trkpt>
      <trkpt lat="42.83136" lon="2.113">
        <ele>564.6</ele>
        <time>2021-10-09T08:57:47Z</time>
      </trkpt>
      <trkpt lat="42.83131" lon="2.11338">
        <ele>564.4</ele>
        <time>2021-10-09T08:57:50Z</time>
      </trkpt>
      <trkpt lat="42.83127" lon="2.11363">
        <ele>564.2</ele>
        <time>2021-10-09T08:57:52Z</time>
      </trkpt>
      <trkpt lat="42.83118" lon="2.11436">
        <ele>563.2</ele>
        <time>2021-10-09T08:57:58Z</time>
      </trkpt>
      <trkpt lat="42.83114" lon="2.11472">
        <ele>562.8</ele>
        <time>2021-10-09T08:58:01Z</time>
      </trkpt>
      <trkpt lat="42.83112" lon="2.11484">
        <ele>562.6</ele>
        <time>2021-10-09T08:58:02Z</time>
      </trkpt>
      <trkpt lat="42.83101" lon="2.11544">
        <ele>562</ele>
        <time>2021-10-09T08:58:07Z</time>
      </trkpt>
      <trkpt lat="42.83082" lon="2.11603">
        <ele>561.2</ele>
        <time>2021-10-09T08:58:12Z</time>
      </trkpt>
      <trkpt lat="42.83077" lon="2.11614">
        <ele>561.2</ele>
        <time>2021-10-09T08:58:13Z</time>
      </trkpt>
      <trkpt lat="42.83064" lon="2.11648">
        <ele>560.6</ele>
        <time>2021-10-09T08:58:16Z</time>
      </trkpt>
      <trkpt lat="42.83053" lon="2.11681">
        <ele>560.2</ele>
        <time>2021-10-09T08:58:19Z</time>
      </trkpt>
      <trkpt lat="42.83052" lon="2.11694">
        <ele>560</ele>
        <time>2021-10-09T08:58:20Z</time>
      </trkpt>
      <trkpt lat="42.83049" lon="2.11718">
        <ele>559.6</ele>
        <time>2021-10-09T08:58:22Z</time>
      </trkpt>
      <trkpt lat="42.8305" lon="2.11744">
        <ele>559</ele>
        <time>2021-10-09T08:58:24Z</time>
      </trkpt>
      <trkpt lat="42.83052" lon="2.11769">
        <ele>558.8</ele>
        <time>2021-10-09T08:58:26Z</time>
      </trkpt>
      <trkpt lat="42.83059" lon="2.11792">
        <ele>558.4</ele>
        <time>2021-10-09T08:58:28Z</time>
      </trkpt>
      <trkpt lat="42.83077" lon="2.11851">
        <ele>557.6</ele>
        <time>2021-10-09T08:58:33Z</time>
      </trkpt>
      <trkpt lat="42.83077" lon="2.11876">
        <ele>557.4</ele>
        <time>2021-10-09T08:58:35Z</time>
      </trkpt>
      <trkpt lat="42.83077" lon="2.11888">
        <ele>557.2</ele>
        <time>2021-10-09T08:58:36Z</time>
      </trkpt>
      <trkpt lat="42.83064" lon="2.11949">
        <ele>556.6</ele>
        <time>2021-10-09T08:58:41Z</time>
      </trkpt>
      <trkpt lat="42.83049" lon="2.1201">
        <ele>556</ele>
        <time>2021-10-09T08:58:46Z</time>
      </trkpt>
      <trkpt lat="42.83032" lon="2.12058">
        <ele>555.6</ele>
        <time>2021-10-09T08:58:50Z</time>
      </trkpt>
      <trkpt lat="42.83002" lon="2.12094">
        <ele>555</ele>
        <time>2021-10-09T08:58:54Z</time>
      </trkpt>
      <trkpt lat="42.82998" lon="2.12106">
        <ele>554.8</ele>
        <time>2021-10-09T08:58:55Z</time>
      </trkpt>
      <trkpt lat="42.82994" lon="2.12118">
        <ele>554.8</ele>
        <time>2021-10-09T08:58:56Z</time>
      </trkpt>
      <trkpt lat="42.82991" lon="2.12144">
        <ele>554.6</ele>
        <time>2021-10-09T08:58:58Z</time>
      </trkpt>
      <trkpt lat="42.82986" lon="2.12221">
        <ele>554</ele>
        <time>2021-10-09T08:59:04Z</time>
      </trkpt>
      <trkpt lat="42.82986" lon="2.12233">
        <ele>553.8</ele>
        <time>2021-10-09T08:59:05Z</time>
      </trkpt>
      <trkpt lat="42.82984" lon="2.12258">
        <ele>553.6</ele>
        <time>2021-10-09T08:59:07Z</time>
      </trkpt>
      <trkpt lat="42.8298" lon="2.12294">
        <ele>553.4</ele>
        <time>2021-10-09T08:59:10Z</time>
      </trkpt>
      <trkpt lat="42.82971" lon="2.12329">
        <ele>553</ele>
        <time>2021-10-09T08:59:13Z</time>
      </trkpt>
      <trkpt lat="42.8295" lon="2.12373">
        <ele>552.6</ele>
        <time>2021-10-09T08:59:17Z</time>
      </trkpt>
      <trkpt lat="42.82936" lon="2.12418">
        <ele>552.2</ele>
        <time>2021-10-09T08:59:21Z</time>
      </trkpt>
      <trkpt lat="42.82933" lon="2.12429">
        <ele>552.2</ele>
        <time>2021-10-09T08:59:22Z</time>
      </trkpt>
      <trkpt lat="42.82912" lon="2.12496">
        <ele>551.4</ele>
        <time>2021-10-09T08:59:28Z</time>
      </trkpt>
      <trkpt lat="42.82886" lon="2.12558">
        <ele>550.6</ele>
        <time>2021-10-09T08:59:34Z</time>
      </trkpt>
      <trkpt lat="42.82881" lon="2.12568">
        <ele>550.4</ele>
        <time>2021-10-09T08:59:35Z</time>
      </trkpt>
      <trkpt lat="42.82871" lon="2.12603">
        <ele>549.8</ele>
        <time>2021-10-09T08:59:38Z</time>
      </trkpt>
      <trkpt lat="42.82868" lon="2.12614">
        <ele>549.6</ele>
        <time>2021-10-09T08:59:39Z</time>
      </trkpt>
      <trkpt lat="42.82862" lon="2.12651">
        <ele>549.2</ele>
        <time>2021-10-09T08:59:42Z</time>
      </trkpt>
      <trkpt lat="42.82863" lon="2.12726">
        <ele>547.8</ele>
        <time>2021-10-09T08:59:48Z</time>
      </trkpt>
      <trkpt lat="42.82865" lon="2.12788">
        <ele>546.8</ele>
        <time>2021-10-09T08:59:53Z</time>
      </trkpt>
      <trkpt lat="42.82866" lon="2.128">
        <ele>546.6</ele>
        <time>2021-10-09T08:59:54Z</time>
      </trkpt>
      <trkpt lat="42.82867" lon="2.12824">
        <ele>546.2</ele>
        <time>2021-10-09T08:59:56Z</time>
      </trkpt>
      <trkpt lat="42.82868" lon="2.12835">
        <ele>545.8</ele>
        <time>2021-10-09T08:59:57Z</time>
      </trkpt>
      <trkpt lat="42.82872" lon="2.1286">
        <ele>545.2</ele>
        <time>2021-10-09T08:59:59Z</time>
      </trkpt>
      <trkpt lat="42.82877" lon="2.12883">
        <ele>544.6</ele>
        <time>2021-10-09T09:00:01Z</time>
      </trkpt>
      <trkpt lat="42.82886" lon="2.1294">
        <ele>542.8</ele>
        <time>2021-10-09T09:00:06Z</time>
      </trkpt>
      <trkpt lat="42.82887" lon="2.12951">
        <ele>542.4</ele>
        <time>2021-10-09T09:00:07Z</time>
      </trkpt>
      <trkpt lat="42.82885" lon="2.12988">
        <ele>541.4</ele>
        <time>2021-10-09T09:00:10Z</time>
      </trkpt>
      <trkpt lat="42.82875" lon="2.1306">
        <ele>539.2</ele>
        <time>2021-10-09T09:00:16Z</time>
      </trkpt>
      <trkpt lat="42.82872" lon="2.13145">
        <ele>536.4</ele>
        <time>2021-10-09T09:00:23Z</time>
      </trkpt>
      <trkpt lat="42.82871" lon="2.13157">
        <ele>536</ele>
        <time>2021-10-09T09:00:24Z</time>
      </trkpt>
      <trkpt lat="42.8287" lon="2.13182">
        <ele>535.2</ele>
        <time>2021-10-09T09:00:26Z</time>
      </trkpt>
      <trkpt lat="42.82863" lon="2.13217">
        <ele>534.2</ele>
        <time>2021-10-09T09:00:29Z</time>
      </trkpt>
      <trkpt lat="42.82846" lon="2.13275">
        <ele>532.6</ele>
        <time>2021-10-09T09:00:34Z</time>
      </trkpt>
      <trkpt lat="42.82819" lon="2.13342">
        <ele>530.8</ele>
        <time>2021-10-09T09:00:40Z</time>
      </trkpt>
      <trkpt lat="42.8281" lon="2.13364">
        <ele>530.2</ele>
        <time>2021-10-09T09:00:42Z</time>
      </trkpt>
      <trkpt lat="42.82805" lon="2.13375">
        <ele>530</ele>
        <time>2021-10-09T09:00:43Z</time>
      </trkpt>
      <trkpt lat="42.82802" lon="2.13399">
        <ele>529.4</ele>
        <time>2021-10-09T09:00:45Z</time>
      </trkpt>
      <trkpt lat="42.82801" lon="2.13424">
        <ele>529</ele>
        <time>2021-10-09T09:00:47Z</time>
      </trkpt>
      <trkpt lat="42.82802" lon="2.13436">
        <ele>528.8</ele>
        <time>2021-10-09T09:00:48Z</time>
      </trkpt>
      <trkpt lat="42.82812" lon="2.13497">
        <ele>527.6</ele>
        <time>2021-10-09T09:00:53Z</time>
      </trkpt>
      <trkpt lat="42.82814" lon="2.13509">
        <ele>527.4</ele>
        <time>2021-10-09T09:00:54Z</time>
      </trkpt>
      <trkpt lat="42.82822" lon="2.13545">
        <ele>526.6</ele>
        <time>2021-10-09T09:00:57Z</time>
      </trkpt>
      <trkpt lat="42.82827" lon="2.13569">
        <ele>526.2</ele>
        <time>2021-10-09T09:00:59Z</time>
      </trkpt>
      <trkpt lat="42.82835" lon="2.13605">
        <ele>525.8</ele>
        <time>2021-10-09T09:01:02Z</time>
      </trkpt>
      <trkpt lat="42.8284" lon="2.13679">
        <ele>524.8</ele>
        <time>2021-10-09T09:01:08Z</time>
      </trkpt>
      <trkpt lat="42.82838" lon="2.13691">
        <ele>524.6</ele>
        <time>2021-10-09T09:01:09Z</time>
      </trkpt>
      <trkpt lat="42.82829" lon="2.13738">
        <ele>523.8</ele>
        <time>2021-10-09T09:01:13Z</time>
      </trkpt>
      <trkpt lat="42.82805" lon="2.13804">
        <ele>522.6</ele>
        <time>2021-10-09T09:01:19Z</time>
      </trkpt>
      <trkpt lat="42.82801" lon="2.13815">
        <ele>522.4</ele>
        <time>2021-10-09T09:01:20Z</time>
      </trkpt>
      <trkpt lat="42.82785" lon="2.13872">
        <ele>521.4</ele>
        <time>2021-10-09T09:01:25Z</time>
      </trkpt>
      <trkpt lat="42.82784" lon="2.13884">
        <ele>521.2</ele>
        <time>2021-10-09T09:01:26Z</time>
      </trkpt>
      <trkpt lat="42.82784" lon="2.13895">
        <ele>521</ele>
        <time>2021-10-09T09:01:27Z</time>
      </trkpt>
      <trkpt lat="42.82786" lon="2.13944">
        <ele>520.6</ele>
        <time>2021-10-09T09:01:31Z</time>
      </trkpt>
      <trkpt lat="42.82784" lon="2.14005">
        <ele>520</ele>
        <time>2021-10-09T09:01:36Z</time>
      </trkpt>
      <trkpt lat="42.82785" lon="2.14018">
        <ele>519.8</ele>
        <time>2021-10-09T09:01:37Z</time>
      </trkpt>
      <trkpt lat="42.82792" lon="2.14053">
        <ele>519.6</ele>
        <time>2021-10-09T09:01:40Z</time>
      </trkpt>
      <trkpt lat="42.82806" lon="2.14124">
        <ele>518.8</ele>
        <time>2021-10-09T09:01:46Z</time>
      </trkpt>
      <trkpt lat="42.82807" lon="2.14136">
        <ele>518.8</ele>
        <time>2021-10-09T09:01:47Z</time>
      </trkpt>
      <trkpt lat="42.82807" lon="2.14148">
        <ele>518.6</ele>
        <time>2021-10-09T09:01:48Z</time>
      </trkpt>
      <trkpt lat="42.82802" lon="2.14173">
        <ele>518.4</ele>
        <time>2021-10-09T09:01:50Z</time>
      </trkpt>
      <trkpt lat="42.82785" lon="2.14227">
        <ele>518</ele>
        <time>2021-10-09T09:01:55Z</time>
      </trkpt>
      <trkpt lat="42.82774" lon="2.14246">
        <ele>517.8</ele>
        <time>2021-10-09T09:01:57Z</time>
      </trkpt>
      <trkpt lat="42.82766" lon="2.14252">
        <ele>517.6</ele>
        <time>2021-10-09T09:01:58Z</time>
      </trkpt>
      <trkpt lat="42.82758" lon="2.14258">
        <ele>517.6</ele>
        <time>2021-10-09T09:01:59Z</time>
      </trkpt>
      <trkpt lat="42.82732" lon="2.14271">
        <ele>517.2</ele>
        <time>2021-10-09T09:02:02Z</time>
      </trkpt>
      <trkpt lat="42.82686" lon="2.14284">
        <ele>516.6</ele>
        <time>2021-10-09T09:02:07Z</time>
      </trkpt>
      <trkpt lat="42.8264" lon="2.14289">
        <ele>516.4</ele>
        <time>2021-10-09T09:02:12Z</time>
      </trkpt>
      <trkpt lat="42.82632" lon="2.1429">
        <ele>516.2</ele>
        <time>2021-10-09T09:02:13Z</time>
      </trkpt>
      <trkpt lat="42.82623" lon="2.14293">
        <ele>516</ele>
        <time>2021-10-09T09:02:14Z</time>
      </trkpt>
      <trkpt lat="42.82598" lon="2.14302">
        <ele>515.4</ele>
        <time>2021-10-09T09:02:17Z</time>
      </trkpt>
      <trkpt lat="42.82583" lon="2.14313">
        <ele>514.6</ele>
        <time>2021-10-09T09:02:19Z</time>
      </trkpt>
      <trkpt lat="42.82576" lon="2.1432">
        <ele>514.4</ele>
        <time>2021-10-09T09:02:20Z</time>
      </trkpt>
      <trkpt lat="42.82531" lon="2.14362">
        <ele>512.6</ele>
        <time>2021-10-09T09:02:26Z</time>
      </trkpt>
      <trkpt lat="42.82524" lon="2.14369">
        <ele>512.4</ele>
        <time>2021-10-09T09:02:27Z</time>
      </trkpt>
      <trkpt lat="42.82507" lon="2.14377">
        <ele>512.2</ele>
        <time>2021-10-09T09:02:29Z</time>
      </trkpt>
      <trkpt lat="42.82498" lon="2.14379">
        <ele>512</ele>
        <time>2021-10-09T09:02:30Z</time>
      </trkpt>
      <trkpt lat="42.82488" lon="2.14381">
        <ele>512</ele>
        <time>2021-10-09T09:02:31Z</time>
      </trkpt>
      <trkpt lat="42.8246" lon="2.14384">
        <ele>511.4</ele>
        <time>2021-10-09T09:02:34Z</time>
      </trkpt>
      <trkpt lat="42.82451" lon="2.14384">
        <ele>511.4</ele>
        <time>2021-10-09T09:02:35Z</time>
      </trkpt>
      <trkpt lat="42.82425" lon="2.14393">
        <ele>511</ele>
        <time>2021-10-09T09:02:38Z</time>
      </trkpt>
      <trkpt lat="42.824" lon="2.14406">
        <ele>510.6</ele>
        <time>2021-10-09T09:02:41Z</time>
      </trkpt>
      <trkpt lat="42.82358" lon="2.14453">
        <ele>509.6</ele>
        <time>2021-10-09T09:02:47Z</time>
      </trkpt>
      <trkpt lat="42.82348" lon="2.14472">
        <ele>509.4</ele>
        <time>2021-10-09T09:02:49Z</time>
      </trkpt>
      <trkpt lat="42.82343" lon="2.14494">
        <ele>509</ele>
        <time>2021-10-09T09:02:51Z</time>
      </trkpt>
      <trkpt lat="42.82339" lon="2.14518">
        <ele>508.8</ele>
        <time>2021-10-09T09:02:53Z</time>
      </trkpt>
      <trkpt lat="42.82337" lon="2.14542">
        <ele>508.6</ele>
        <time>2021-10-09T09:02:55Z</time>
      </trkpt>
      <trkpt lat="42.82339" lon="2.14617">
        <ele>508</ele>
        <time>2021-10-09T09:03:01Z</time>
      </trkpt>
      <trkpt lat="42.82342" lon="2.14691">
        <ele>507.6</ele>
        <time>2021-10-09T09:03:07Z</time>
      </trkpt>
      <trkpt lat="42.82344" lon="2.14728">
        <ele>507.4</ele>
        <time>2021-10-09T09:03:10Z</time>
      </trkpt>
      <trkpt lat="42.82352" lon="2.14811">
        <ele>506.6</ele>
        <time>2021-10-09T09:03:17Z</time>
      </trkpt>
      <trkpt lat="42.82352" lon="2.14848">
        <ele>506.2</ele>
        <time>2021-10-09T09:03:20Z</time>
      </trkpt>
      <trkpt lat="42.82351" lon="2.14873">
        <ele>505.8</ele>
        <time>2021-10-09T09:03:22Z</time>
      </trkpt>
      <trkpt lat="42.82341" lon="2.14894">
        <ele>505.6</ele>
        <time>2021-10-09T09:03:24Z</time>
      </trkpt>
      <trkpt lat="42.82331" lon="2.14914">
        <ele>505.4</ele>
        <time>2021-10-09T09:03:26Z</time>
      </trkpt>
      <trkpt lat="42.82298" lon="2.14971">
        <ele>504.8</ele>
        <time>2021-10-09T09:03:32Z</time>
      </trkpt>
      <trkpt lat="42.82283" lon="2.15015">
        <ele>504.4</ele>
        <time>2021-10-09T09:03:36Z</time>
      </trkpt>
      <trkpt lat="42.82281" lon="2.15026">
        <ele>504.2</ele>
        <time>2021-10-09T09:03:37Z</time>
      </trkpt>
      <trkpt lat="42.82277" lon="2.15087">
        <ele>503.6</ele>
        <time>2021-10-09T09:03:42Z</time>
      </trkpt>
      <trkpt lat="42.82273" lon="2.1516">
        <ele>503</ele>
        <time>2021-10-09T09:03:48Z</time>
      </trkpt>
      <trkpt lat="42.82273" lon="2.15172">
        <ele>503</ele>
        <time>2021-10-09T09:03:49Z</time>
      </trkpt>
      <trkpt lat="42.82269" lon="2.15257">
        <ele>502.4</ele>
        <time>2021-10-09T09:03:56Z</time>
      </trkpt>
      <trkpt lat="42.82268" lon="2.15269">
        <ele>502.4</ele>
        <time>2021-10-09T09:03:57Z</time>
      </trkpt>
      <trkpt lat="42.82267" lon="2.15293">
        <ele>502.2</ele>
        <time>2021-10-09T09:03:59Z</time>
      </trkpt>
      <trkpt lat="42.82266" lon="2.15329">
        <ele>501.8</ele>
        <time>2021-10-09T09:04:02Z</time>
      </trkpt>
      <trkpt lat="42.82263" lon="2.15389">
        <ele>501.2</ele>
        <time>2021-10-09T09:04:07Z</time>
      </trkpt>
      <trkpt lat="42.82262" lon="2.15437">
        <ele>500.8</ele>
        <time>2021-10-09T09:04:11Z</time>
      </trkpt>
      <trkpt lat="42.82264" lon="2.15449">
        <ele>500.6</ele>
        <time>2021-10-09T09:04:12Z</time>
      </trkpt>
      <trkpt lat="42.82269" lon="2.15459">
        <ele>500.4</ele>
        <time>2021-10-09T09:04:13Z</time>
      </trkpt>
      <trkpt lat="42.82281" lon="2.15477">
        <ele>500.4</ele>
        <time>2021-10-09T09:04:15Z</time>
      </trkpt>
      <trkpt lat="42.82301" lon="2.15516">
        <ele>499.8</ele>
        <time>2021-10-09T09:04:19Z</time>
      </trkpt>
      <trkpt lat="42.82303" lon="2.15527">
        <ele>499.8</ele>
        <time>2021-10-09T09:04:20Z</time>
      </trkpt>
      <trkpt lat="42.82304" lon="2.15538">
        <ele>499.6</ele>
        <time>2021-10-09T09:04:21Z</time>
      </trkpt>
      <trkpt lat="42.82305" lon="2.15572">
        <ele>499.2</ele>
        <time>2021-10-09T09:04:24Z</time>
      </trkpt>
      <trkpt lat="42.82307" lon="2.15648">
        <ele>498.6</ele>
        <time>2021-10-09T09:04:31Z</time>
      </trkpt>
      <trkpt lat="42.82309" lon="2.15691">
        <ele>498.2</ele>
        <time>2021-10-09T09:04:35Z</time>
      </trkpt>
      <trkpt lat="42.82316" lon="2.15709">
        <ele>498.2</ele>
        <time>2021-10-09T09:04:37Z</time>
      </trkpt>
      <trkpt lat="42.82331" lon="2.15732">
        <ele>498.2</ele>
        <time>2021-10-09T09:04:40Z</time>
      </trkpt>
      <trkpt lat="42.82337" lon="2.15739">
        <ele>498</ele>
        <time>2021-10-09T09:04:41Z</time>
      </trkpt>
      <trkpt lat="42.82343" lon="2.15762">
        <ele>497.8</ele>
        <time>2021-10-09T09:04:43Z</time>
      </trkpt>
      <trkpt lat="42.82345" lon="2.15773">
        <ele>497.6</ele>
        <time>2021-10-09T09:04:44Z</time>
      </trkpt>
      <trkpt lat="42.8236" lon="2.15839">
        <ele>496.8</ele>
        <time>2021-10-09T09:04:50Z</time>
      </trkpt>
      <trkpt lat="42.82368" lon="2.15906">
        <ele>496.2</ele>
        <time>2021-10-09T09:04:56Z</time>
      </trkpt>
      <trkpt lat="42.82369" lon="2.15918">
        <ele>496</ele>
        <time>2021-10-09T09:04:57Z</time>
      </trkpt>
      <trkpt lat="42.82368" lon="2.15929">
        <ele>495.8</ele>
        <time>2021-10-09T09:04:58Z</time>
      </trkpt>
      <trkpt lat="42.82363" lon="2.15952">
        <ele>495.6</ele>
        <time>2021-10-09T09:05:00Z</time>
      </trkpt>
      <trkpt lat="42.82338" lon="2.16028">
        <ele>494.8</ele>
        <time>2021-10-09T09:05:07Z</time>
      </trkpt>
      <trkpt lat="42.82335" lon="2.1604">
        <ele>494.6</ele>
        <time>2021-10-09T09:05:08Z</time>
      </trkpt>
      <trkpt lat="42.82333" lon="2.16064">
        <ele>494.4</ele>
        <time>2021-10-09T09:05:10Z</time>
      </trkpt>
      <trkpt lat="42.82338" lon="2.16125">
        <ele>493.6</ele>
        <time>2021-10-09T09:05:15Z</time>
      </trkpt>
      <trkpt lat="42.8234" lon="2.16149">
        <ele>493.2</ele>
        <time>2021-10-09T09:05:17Z</time>
      </trkpt>
      <trkpt lat="42.82338" lon="2.1616">
        <ele>493</ele>
        <time>2021-10-09T09:05:18Z</time>
      </trkpt>
      <trkpt lat="42.82332" lon="2.16172">
        <ele>492.6</ele>
        <time>2021-10-09T09:05:19Z</time>
      </trkpt>
      <trkpt lat="42.82316" lon="2.16186">
        <ele>492.2</ele>
        <time>2021-10-09T09:05:21Z</time>
      </trkpt>
      <trkpt lat="42.82302" lon="2.16206">
        <ele>491.8</ele>
        <time>2021-10-09T09:05:23Z</time>
      </trkpt>
      <trkpt lat="42.82297" lon="2.16215">
        <ele>491.6</ele>
        <time>2021-10-09T09:05:24Z</time>
      </trkpt>
      <trkpt lat="42.82295" lon="2.16226">
        <ele>491.6</ele>
        <time>2021-10-09T09:05:25Z</time>
      </trkpt>
      <trkpt lat="42.82294" lon="2.16238">
        <ele>491.4</ele>
        <time>2021-10-09T09:05:26Z</time>
      </trkpt>
      <trkpt lat="42.82294" lon="2.1625">
        <ele>491.4</ele>
        <time>2021-10-09T09:05:27Z</time>
      </trkpt>
      <trkpt lat="42.82296" lon="2.16275">
        <ele>491.2</ele>
        <time>2021-10-09T09:05:29Z</time>
      </trkpt>
      <trkpt lat="42.82312" lon="2.16309">
        <ele>490.8</ele>
        <time>2021-10-09T09:05:32Z</time>
      </trkpt>
      <trkpt lat="42.82332" lon="2.16341">
        <ele>490.4</ele>
        <time>2021-10-09T09:05:35Z</time>
      </trkpt>
      <trkpt lat="42.82342" lon="2.16365">
        <ele>490.2</ele>
        <time>2021-10-09T09:05:37Z</time>
      </trkpt>
      <trkpt lat="42.8235" lon="2.1639">
        <ele>489.8</ele>
        <time>2021-10-09T09:05:39Z</time>
      </trkpt>
      <trkpt lat="42.82355" lon="2.16416">
        <ele>489.4</ele>
        <time>2021-10-09T09:05:41Z</time>
      </trkpt>
      <trkpt lat="42.82362" lon="2.16481">
        <ele>488.6</ele>
        <time>2021-10-09T09:05:46Z</time>
      </trkpt>
      <trkpt lat="42.82369" lon="2.16557">
        <ele>487.6</ele>
        <time>2021-10-09T09:05:52Z</time>
      </trkpt>
      <trkpt lat="42.8237" lon="2.1657">
        <ele>487.6</ele>
        <time>2021-10-09T09:05:53Z</time>
      </trkpt>
      <trkpt lat="42.82374" lon="2.16648">
        <ele>486.6</ele>
        <time>2021-10-09T09:05:59Z</time>
      </trkpt>
      <trkpt lat="42.82388" lon="2.16722">
        <ele>485.6</ele>
        <time>2021-10-09T09:06:05Z</time>
      </trkpt>
      <trkpt lat="42.82393" lon="2.16747">
        <ele>485.2</ele>
        <time>2021-10-09T09:06:07Z</time>
      </trkpt>
      <trkpt lat="42.824" lon="2.16822">
        <ele>484.2</ele>
        <time>2021-10-09T09:06:13Z</time>
      </trkpt>
      <trkpt lat="42.82404" lon="2.16896">
        <ele>483.2</ele>
        <time>2021-10-09T09:06:19Z</time>
      </trkpt>
      <trkpt lat="42.82404" lon="2.16908">
        <ele>482.8</ele>
        <time>2021-10-09T09:06:20Z</time>
      </trkpt>
      <trkpt lat="42.82398" lon="2.16967">
        <ele>482</ele>
        <time>2021-10-09T09:06:25Z</time>
      </trkpt>
      <trkpt lat="42.82391" lon="2.16989">
        <ele>481.6</ele>
        <time>2021-10-09T09:06:27Z</time>
      </trkpt>
      <trkpt lat="42.82382" lon="2.17022">
        <ele>481</ele>
        <time>2021-10-09T09:06:30Z</time>
      </trkpt>
      <trkpt lat="42.82377" lon="2.17045">
        <ele>480.6</ele>
        <time>2021-10-09T09:06:32Z</time>
      </trkpt>
      <trkpt lat="42.82375" lon="2.17069">
        <ele>480.4</ele>
        <time>2021-10-09T09:06:34Z</time>
      </trkpt>
      <trkpt lat="42.82374" lon="2.17081">
        <ele>480.2</ele>
        <time>2021-10-09T09:06:35Z</time>
      </trkpt>
      <trkpt lat="42.82379" lon="2.17131">
        <ele>479.6</ele>
        <time>2021-10-09T09:06:39Z</time>
      </trkpt>
      <trkpt lat="42.82386" lon="2.17206">
        <ele>478.4</ele>
        <time>2021-10-09T09:06:45Z</time>
      </trkpt>
      <trkpt lat="42.82388" lon="2.17231">
        <ele>478.2</ele>
        <time>2021-10-09T09:06:47Z</time>
      </trkpt>
      <trkpt lat="42.82389" lon="2.17257">
        <ele>477.8</ele>
        <time>2021-10-09T09:06:49Z</time>
      </trkpt>
      <trkpt lat="42.82386" lon="2.17282">
        <ele>477.4</ele>
        <time>2021-10-09T09:06:51Z</time>
      </trkpt>
      <trkpt lat="42.82368" lon="2.17344">
        <ele>476.6</ele>
        <time>2021-10-09T09:06:56Z</time>
      </trkpt>
      <trkpt lat="42.82349" lon="2.17416">
        <ele>475.4</ele>
        <time>2021-10-09T09:07:02Z</time>
      </trkpt>
      <trkpt lat="42.82348" lon="2.17429">
        <ele>475.2</ele>
        <time>2021-10-09T09:07:03Z</time>
      </trkpt>
      <trkpt lat="42.82347" lon="2.17468">
        <ele>474.6</ele>
        <time>2021-10-09T09:07:06Z</time>
      </trkpt>
      <trkpt lat="42.82349" lon="2.17481">
        <ele>474.4</ele>
        <time>2021-10-09T09:07:07Z</time>
      </trkpt>
      <trkpt lat="42.82351" lon="2.17495">
        <ele>474.2</ele>
        <time>2021-10-09T09:07:08Z</time>
      </trkpt>
      <trkpt lat="42.82364" lon="2.17515">
        <ele>473.8</ele>
        <time>2021-10-09T09:07:10Z</time>
      </trkpt>
      <trkpt lat="42.82385" lon="2.17543">
        <ele>473.4</ele>
        <time>2021-10-09T09:07:13Z</time>
      </trkpt>
      <trkpt lat="42.82392" lon="2.17552">
        <ele>473.4</ele>
        <time>2021-10-09T09:07:14Z</time>
      </trkpt>
      <trkpt lat="42.82397" lon="2.17564">
        <ele>473.2</ele>
        <time>2021-10-09T09:07:15Z</time>
      </trkpt>
      <trkpt lat="42.82402" lon="2.17588">
        <ele>473</ele>
        <time>2021-10-09T09:07:17Z</time>
      </trkpt>
      <trkpt lat="42.824" lon="2.17614">
        <ele>472.6</ele>
        <time>2021-10-09T09:07:19Z</time>
      </trkpt>
      <trkpt lat="42.82397" lon="2.17626">
        <ele>472.6</ele>
        <time>2021-10-09T09:07:20Z</time>
      </trkpt>
      <trkpt lat="42.82379" lon="2.17673">
        <ele>471.8</ele>
        <time>2021-10-09T09:07:24Z</time>
      </trkpt>
      <trkpt lat="42.82376" lon="2.17698">
        <ele>471.6</ele>
        <time>2021-10-09T09:07:26Z</time>
      </trkpt>
      <trkpt lat="42.82376" lon="2.17711">
        <ele>471.4</ele>
        <time>2021-10-09T09:07:27Z</time>
      </trkpt>
      <trkpt lat="42.82373" lon="2.17785">
        <ele>470.6</ele>
        <time>2021-10-09T09:07:33Z</time>
      </trkpt>
      <trkpt lat="42.82368" lon="2.17808">
        <ele>470.2</ele>
        <time>2021-10-09T09:07:35Z</time>
      </trkpt>
      <trkpt lat="42.82358" lon="2.17828">
        <ele>469.8</ele>
        <time>2021-10-09T09:07:37Z</time>
      </trkpt>
      <trkpt lat="42.82333" lon="2.1788">
        <ele>469.2</ele>
        <time>2021-10-09T09:07:42Z</time>
      </trkpt>
      <trkpt lat="42.82318" lon="2.17925">
        <ele>468.8</ele>
        <time>2021-10-09T09:07:46Z</time>
      </trkpt>
      <trkpt lat="42.82309" lon="2.1796">
        <ele>468.2</ele>
        <time>2021-10-09T09:07:49Z</time>
      </trkpt>
      <trkpt lat="42.82307" lon="2.17985">
        <ele>468</ele>
        <time>2021-10-09T09:07:51Z</time>
      </trkpt>
      <trkpt lat="42.82308" lon="2.18059">
        <ele>467.2</ele>
        <time>2021-10-09T09:07:57Z</time>
      </trkpt>
      <trkpt lat="42.82309" lon="2.18071">
        <ele>467</ele>
        <time>2021-10-09T09:07:58Z</time>
      </trkpt>
      <trkpt lat="42.82307" lon="2.18145">
        <ele>466.2</ele>
        <time>2021-10-09T09:08:04Z</time>
      </trkpt>
      <trkpt lat="42.82295" lon="2.18206">
        <ele>465.4</ele>
        <time>2021-10-09T09:08:09Z</time>
      </trkpt>
      <trkpt lat="42.82272" lon="2.18274">
        <ele>464.4</ele>
        <time>2021-10-09T09:08:15Z</time>
      </trkpt>
      <trkpt lat="42.82267" lon="2.1831">
        <ele>464</ele>
        <time>2021-10-09T09:08:18Z</time>
      </trkpt>
      <trkpt lat="42.82264" lon="2.18321">
        <ele>463.8</ele>
        <time>2021-10-09T09:08:19Z</time>
      </trkpt>
      <trkpt lat="42.8226" lon="2.18332">
        <ele>463.6</ele>
        <time>2021-10-09T09:08:20Z</time>
      </trkpt>
      <trkpt lat="42.82245" lon="2.18348">
        <ele>463.2</ele>
        <time>2021-10-09T09:08:22Z</time>
      </trkpt>
      <trkpt lat="42.82202" lon="2.18393">
        <ele>462.6</ele>
        <time>2021-10-09T09:08:28Z</time>
      </trkpt>
      <trkpt lat="42.82177" lon="2.18443">
        <ele>462</ele>
        <time>2021-10-09T09:08:33Z</time>
      </trkpt>
      <trkpt lat="42.82167" lon="2.18476">
        <ele>461.6</ele>
        <time>2021-10-09T09:08:36Z</time>
      </trkpt>
      <trkpt lat="42.82162" lon="2.18499">
        <ele>461.4</ele>
        <time>2021-10-09T09:08:38Z</time>
      </trkpt>
      <trkpt lat="42.82161" lon="2.1851">
        <ele>461.4</ele>
        <time>2021-10-09T09:08:39Z</time>
      </trkpt>
      <trkpt lat="42.82163" lon="2.18533">
        <ele>461.2</ele>
        <time>2021-10-09T09:08:41Z</time>
      </trkpt>
      <trkpt lat="42.82183" lon="2.18586">
        <ele>460.6</ele>
        <time>2021-10-09T09:08:46Z</time>
      </trkpt>
      <trkpt lat="42.82193" lon="2.18618">
        <ele>460.2</ele>
        <time>2021-10-09T09:08:49Z</time>
      </trkpt>
      <trkpt lat="42.82197" lon="2.18642">
        <ele>459.8</ele>
        <time>2021-10-09T09:08:51Z</time>
      </trkpt>
      <trkpt lat="42.82199" lon="2.18667">
        <ele>459.4</ele>
        <time>2021-10-09T09:08:53Z</time>
      </trkpt>
      <trkpt lat="42.82195" lon="2.1869">
        <ele>459.2</ele>
        <time>2021-10-09T09:08:55Z</time>
      </trkpt>
      <trkpt lat="42.82188" lon="2.18712">
        <ele>458.8</ele>
        <time>2021-10-09T09:08:57Z</time>
      </trkpt>
      <trkpt lat="42.82178" lon="2.18732">
        <ele>458.6</ele>
        <time>2021-10-09T09:08:59Z</time>
      </trkpt>
      <trkpt lat="42.82147" lon="2.18776">
        <ele>458</ele>
        <time>2021-10-09T09:09:04Z</time>
      </trkpt>
      <trkpt lat="42.82129" lon="2.18802">
        <ele>457.8</ele>
        <time>2021-10-09T09:09:07Z</time>
      </trkpt>
      <trkpt lat="42.8212" lon="2.18822">
        <ele>457.6</ele>
        <time>2021-10-09T09:09:09Z</time>
      </trkpt>
      <trkpt lat="42.82115" lon="2.18856">
        <ele>457.4</ele>
        <time>2021-10-09T09:09:12Z</time>
      </trkpt>
      <trkpt lat="42.82117" lon="2.18879">
        <ele>457.2</ele>
        <time>2021-10-09T09:09:14Z</time>
      </trkpt>
      <trkpt lat="42.8212" lon="2.1889">
        <ele>457</ele>
        <time>2021-10-09T09:09:15Z</time>
      </trkpt>
      <trkpt lat="42.82129" lon="2.18911">
        <ele>456.8</ele>
        <time>2021-10-09T09:09:17Z</time>
      </trkpt>
      <trkpt lat="42.82139" lon="2.18931">
        <ele>456.6</ele>
        <time>2021-10-09T09:09:19Z</time>
      </trkpt>
      <trkpt lat="42.82165" lon="2.18966">
        <ele>456.2</ele>
        <time>2021-10-09T09:09:23Z</time>
      </trkpt>
      <trkpt lat="42.82179" lon="2.18981">
        <ele>456</ele>
        <time>2021-10-09T09:09:25Z</time>
      </trkpt>
      <trkpt lat="42.8219" lon="2.19">
        <ele>455.8</ele>
        <time>2021-10-09T09:09:27Z</time>
      </trkpt>
      <trkpt lat="42.82188" lon="2.19023">
        <ele>455.8</ele>
        <time>2021-10-09T09:09:29Z</time>
      </trkpt>
      <trkpt lat="42.82175" lon="2.1904">
        <ele>455.6</ele>
        <time>2021-10-09T09:09:31Z</time>
      </trkpt>
      <trkpt lat="42.82156" lon="2.19042">
        <ele>455.4</ele>
        <time>2021-10-09T09:09:33Z</time>
      </trkpt>
      <trkpt lat="42.82147" lon="2.19041">
        <ele>455.4</ele>
        <time>2021-10-09T09:09:34Z</time>
      </trkpt>
      <trkpt lat="42.82128" lon="2.19035">
        <ele>455.2</ele>
        <time>2021-10-09T09:09:36Z</time>
      </trkpt>
      <trkpt lat="42.8211" lon="2.19033">
        <ele>455</ele>
        <time>2021-10-09T09:09:38Z</time>
      </trkpt>
      <trkpt lat="42.82093" lon="2.19039">
        <ele>454.8</ele>
        <time>2021-10-09T09:09:40Z</time>
      </trkpt>
      <trkpt lat="42.82085" lon="2.19045">
        <ele>454.6</ele>
        <time>2021-10-09T09:09:41Z</time>
      </trkpt>
      <trkpt lat="42.82077" lon="2.19052">
        <ele>454.6</ele>
        <time>2021-10-09T09:09:42Z</time>
      </trkpt>
      <trkpt lat="42.82065" lon="2.1907">
        <ele>454.4</ele>
        <time>2021-10-09T09:09:44Z</time>
      </trkpt>
      <trkpt lat="42.82062" lon="2.19092">
        <ele>454.4</ele>
        <time>2021-10-09T09:09:46Z</time>
      </trkpt>
      <trkpt lat="42.82064" lon="2.19103">
        <ele>454.2</ele>
        <time>2021-10-09T09:09:47Z</time>
      </trkpt>
      <trkpt lat="42.82079" lon="2.19129">
        <ele>454</ele>
        <time>2021-10-09T09:09:50Z</time>
      </trkpt>
      <trkpt lat="42.82118" lon="2.19181">
        <ele>453.4</ele>
        <time>2021-10-09T09:09:56Z</time>
      </trkpt>
      <trkpt lat="42.82144" lon="2.19215">
        <ele>453.2</ele>
        <time>2021-10-09T09:10:00Z</time>
      </trkpt>
      <trkpt lat="42.82169" lon="2.19244">
        <ele>452.8</ele>
        <time>2021-10-09T09:10:04Z</time>
      </trkpt>
      <trkpt lat="42.82175" lon="2.19263">
        <ele>452.8</ele>
        <time>2021-10-09T09:10:06Z</time>
      </trkpt>
      <trkpt lat="42.82176" lon="2.19273">
        <ele>452.6</ele>
        <time>2021-10-09T09:10:07Z</time>
      </trkpt>
      <trkpt lat="42.82174" lon="2.19295">
        <ele>452.4</ele>
        <time>2021-10-09T09:10:09Z</time>
      </trkpt>
      <trkpt lat="42.8217" lon="2.19317">
        <ele>452.4</ele>
        <time>2021-10-09T09:10:11Z</time>
      </trkpt>
      <trkpt lat="42.8216" lon="2.19338">
        <ele>452.2</ele>
        <time>2021-10-09T09:10:13Z</time>
      </trkpt>
      <trkpt lat="42.82142" lon="2.19346">
        <ele>452</ele>
        <time>2021-10-09T09:10:15Z</time>
      </trkpt>
      <trkpt lat="42.82106" lon="2.19341">
        <ele>451.8</ele>
        <time>2021-10-09T09:10:19Z</time>
      </trkpt>
      <trkpt lat="42.82053" lon="2.19343">
        <ele>451</ele>
        <time>2021-10-09T09:10:25Z</time>
      </trkpt>
      <trkpt lat="42.82026" lon="2.19351">
        <ele>450.8</ele>
        <time>2021-10-09T09:10:28Z</time>
      </trkpt>
      <trkpt lat="42.82018" lon="2.19356">
        <ele>450.6</ele>
        <time>2021-10-09T09:10:29Z</time>
      </trkpt>
      <trkpt lat="42.82009" lon="2.19362">
        <ele>450.6</ele>
        <time>2021-10-09T09:10:30Z</time>
      </trkpt>
      <trkpt lat="42.81997" lon="2.19381">
        <ele>450.4</ele>
        <time>2021-10-09T09:10:32Z</time>
      </trkpt>
      <trkpt lat="42.81988" lon="2.19405">
        <ele>450.4</ele>
        <time>2021-10-09T09:10:34Z</time>
      </trkpt>
      <trkpt lat="42.81987" lon="2.19418">
        <ele>450.2</ele>
        <time>2021-10-09T09:10:35Z</time>
      </trkpt>
      <trkpt lat="42.81989" lon="2.1943">
        <ele>450.2</ele>
        <time>2021-10-09T09:10:36Z</time>
      </trkpt>
      <trkpt lat="42.81991" lon="2.19467">
        <ele>449.8</ele>
        <time>2021-10-09T09:10:39Z</time>
      </trkpt>
      <trkpt lat="42.81986" lon="2.1949">
        <ele>449.6</ele>
        <time>2021-10-09T09:10:41Z</time>
      </trkpt>
      <trkpt lat="42.81983" lon="2.195">
        <ele>449.6</ele>
        <time>2021-10-09T09:10:42Z</time>
      </trkpt>
      <trkpt lat="42.81978" lon="2.1951">
        <ele>449.6</ele>
        <time>2021-10-09T09:10:43Z</time>
      </trkpt>
      <trkpt lat="42.81966" lon="2.19527">
        <ele>449.4</ele>
        <time>2021-10-09T09:10:45Z</time>
      </trkpt>
      <trkpt lat="42.8196" lon="2.19535">
        <ele>449.2</ele>
        <time>2021-10-09T09:10:46Z</time>
      </trkpt>
      <trkpt lat="42.81919" lon="2.1958">
        <ele>448.8</ele>
        <time>2021-10-09T09:10:52Z</time>
      </trkpt>
      <trkpt lat="42.81881" lon="2.19614">
        <ele>448.4</ele>
        <time>2021-10-09T09:10:57Z</time>
      </trkpt>
      <trkpt lat="42.81876" lon="2.19624">
        <ele>448.2</ele>
        <time>2021-10-09T09:10:58Z</time>
      </trkpt>
      <trkpt lat="42.81869" lon="2.19646">
        <ele>448.2</ele>
        <time>2021-10-09T09:11:00Z</time>
      </trkpt>
      <trkpt lat="42.81864" lon="2.19671">
        <ele>448</ele>
        <time>2021-10-09T09:11:02Z</time>
      </trkpt>
      <trkpt lat="42.81863" lon="2.19696">
        <ele>447.8</ele>
        <time>2021-10-09T09:11:04Z</time>
      </trkpt>
      <trkpt lat="42.81868" lon="2.19721">
        <ele>447.6</ele>
        <time>2021-10-09T09:11:06Z</time>
      </trkpt>
      <trkpt lat="42.81873" lon="2.19733">
        <ele>447.6</ele>
        <time>2021-10-09T09:11:07Z</time>
      </trkpt>
      <trkpt lat="42.81888" lon="2.19769">
        <ele>447.4</ele>
        <time>2021-10-09T09:11:10Z</time>
      </trkpt>
      <trkpt lat="42.81891" lon="2.19782">
        <ele>447.2</ele>
        <time>2021-10-09T09:11:11Z</time>
      </trkpt>
      <trkpt lat="42.81893" lon="2.19796">
        <ele>447.2</ele>
        <time>2021-10-09T09:11:12Z</time>
      </trkpt>
      <trkpt lat="42.81892" lon="2.1981">
        <ele>447</ele>
        <time>2021-10-09T09:11:13Z</time>
      </trkpt>
      <trkpt lat="42.81888" lon="2.19822">
        <ele>447</ele>
        <time>2021-10-09T09:11:14Z</time>
      </trkpt>
      <trkpt lat="42.81881" lon="2.19832">
        <ele>447</ele>
        <time>2021-10-09T09:11:15Z</time>
      </trkpt>
      <trkpt lat="42.81874" lon="2.19841">
        <ele>446.8</ele>
        <time>2021-10-09T09:11:16Z</time>
      </trkpt>
      <trkpt lat="42.8185" lon="2.19865">
        <ele>446.6</ele>
        <time>2021-10-09T09:11:19Z</time>
      </trkpt>
      <trkpt lat="42.81819" lon="2.19897">
        <ele>446.2</ele>
        <time>2021-10-09T09:11:23Z</time>
      </trkpt>
      <trkpt lat="42.81812" lon="2.19907">
        <ele>446.2</ele>
        <time>2021-10-09T09:11:24Z</time>
      </trkpt>
      <trkpt lat="42.81806" lon="2.19917">
        <ele>446.2</ele>
        <time>2021-10-09T09:11:25Z</time>
      </trkpt>
      <trkpt lat="42.81791" lon="2.1995">
        <ele>446</ele>
        <time>2021-10-09T09:11:28Z</time>
      </trkpt>
      <trkpt lat="42.81762" lon="2.20003">
        <ele>445.4</ele>
        <time>2021-10-09T09:11:33Z</time>
      </trkpt>
      <trkpt lat="42.81745" lon="2.20017">
        <ele>445.2</ele>
        <time>2021-10-09T09:11:35Z</time>
      </trkpt>
      <trkpt lat="42.81734" lon="2.20017">
        <ele>445.2</ele>
        <time>2021-10-09T09:11:36Z</time>
      </trkpt>
      <trkpt lat="42.81724" lon="2.20017">
        <ele>445.2</ele>
        <time>2021-10-09T09:11:37Z</time>
      </trkpt>
      <trkpt lat="42.81694" lon="2.20008">
        <ele>444.8</ele>
        <time>2021-10-09T09:11:40Z</time>
      </trkpt>
      <trkpt lat="42.81684" lon="2.20007">
        <ele>444.8</ele>
        <time>2021-10-09T09:11:41Z</time>
      </trkpt>
      <trkpt lat="42.81665" lon="2.20011">
        <ele>444.6</ele>
        <time>2021-10-09T09:11:43Z</time>
      </trkpt>
      <trkpt lat="42.81649" lon="2.20024">
        <ele>444.4</ele>
        <time>2021-10-09T09:11:45Z</time>
      </trkpt>
      <trkpt lat="42.81643" lon="2.20033">
        <ele>444.2</ele>
        <time>2021-10-09T09:11:46Z</time>
      </trkpt>
      <trkpt lat="42.81628" lon="2.20064">
        <ele>443.8</ele>
        <time>2021-10-09T09:11:49Z</time>
      </trkpt>
      <trkpt lat="42.81625" lon="2.20077">
        <ele>443.6</ele>
        <time>2021-10-09T09:11:50Z</time>
      </trkpt>
      <trkpt lat="42.81622" lon="2.20089">
        <ele>443.4</ele>
        <time>2021-10-09T09:11:51Z</time>
      </trkpt>
      <trkpt lat="42.81616" lon="2.20126">
        <ele>443</ele>
        <time>2021-10-09T09:11:54Z</time>
      </trkpt>
      <trkpt lat="42.81615" lon="2.20151">
        <ele>442.6</ele>
        <time>2021-10-09T09:11:56Z</time>
      </trkpt>
      <trkpt lat="42.81618" lon="2.20176">
        <ele>442.2</ele>
        <time>2021-10-09T09:11:58Z</time>
      </trkpt>
      <trkpt lat="42.81621" lon="2.20188">
        <ele>442</ele>
        <time>2021-10-09T09:11:59Z</time>
      </trkpt>
      <trkpt lat="42.81632" lon="2.20211">
        <ele>441.6</ele>
        <time>2021-10-09T09:12:01Z</time>
      </trkpt>
      <trkpt lat="42.81655" lon="2.20236">
        <ele>441.2</ele>
        <time>2021-10-09T09:12:04Z</time>
      </trkpt>
      <trkpt lat="42.81672" lon="2.20251">
        <ele>440.8</ele>
        <time>2021-10-09T09:12:06Z</time>
      </trkpt>
      <trkpt lat="42.81677" lon="2.20258">
        <ele>440.6</ele>
        <time>2021-10-09T09:12:07Z</time>
      </trkpt>
      <trkpt lat="42.8168" lon="2.20267">
        <ele>440.4</ele>
        <time>2021-10-09T09:12:08Z</time>
      </trkpt>
      <trkpt lat="42.8168" lon="2.2028">
        <ele>440.4</ele>
        <time>2021-10-09T09:12:09Z</time>
      </trkpt>
      <trkpt lat="42.81677" lon="2.20293">
        <ele>440.2</ele>
        <time>2021-10-09T09:12:10Z</time>
      </trkpt>
      <trkpt lat="42.81668" lon="2.20316">
        <ele>439.8</ele>
        <time>2021-10-09T09:12:12Z</time>
      </trkpt>
      <trkpt lat="42.81646" lon="2.20372">
        <ele>439.2</ele>
        <time>2021-10-09T09:12:17Z</time>
      </trkpt>
      <trkpt lat="42.81642" lon="2.20383">
        <ele>439</ele>
        <time>2021-10-09T09:12:18Z</time>
      </trkpt>
      <trkpt lat="42.81643" lon="2.20396">
        <ele>438.8</ele>
        <time>2021-10-09T09:12:19Z</time>
      </trkpt>
      <trkpt lat="42.81649" lon="2.20405">
        <ele>438.8</ele>
        <time>2021-10-09T09:12:20Z</time>
      </trkpt>
      <trkpt lat="42.81654" lon="2.20414">
        <ele>438.6</ele>
        <time>2021-10-09T09:12:21Z</time>
      </trkpt>
      <trkpt lat="42.81668" lon="2.20429">
        <ele>438.2</ele>
        <time>2021-10-09T09:12:23Z</time>
      </trkpt>
      <trkpt lat="42.81683" lon="2.20439">
        <ele>438</ele>
        <time>2021-10-09T09:12:25Z</time>
      </trkpt>
      <trkpt lat="42.81701" lon="2.20443">
        <ele>437.8</ele>
        <time>2021-10-09T09:12:27Z</time>
      </trkpt>
      <trkpt lat="42.81716" lon="2.20442">
        <ele>437.4</ele>
        <time>2021-10-09T09:12:29Z</time>
      </trkpt>
      <trkpt lat="42.81724" lon="2.20444">
        <ele>437.4</ele>
        <time>2021-10-09T09:12:30Z</time>
      </trkpt>
      <trkpt lat="42.81742" lon="2.20453">
        <ele>437</ele>
        <time>2021-10-09T09:12:32Z</time>
      </trkpt>
      <trkpt lat="42.8175" lon="2.20474">
        <ele>436.8</ele>
        <time>2021-10-09T09:12:34Z</time>
      </trkpt>
      <trkpt lat="42.8175" lon="2.20497">
        <ele>436.6</ele>
        <time>2021-10-09T09:12:36Z</time>
      </trkpt>
      <trkpt lat="42.81748" lon="2.20509">
        <ele>436.4</ele>
        <time>2021-10-09T09:12:37Z</time>
      </trkpt>
      <trkpt lat="42.81727" lon="2.20585">
        <ele>435.6</ele>
        <time>2021-10-09T09:12:44Z</time>
      </trkpt>
      <trkpt lat="42.81712" lon="2.2064">
        <ele>435</ele>
        <time>2021-10-09T09:12:49Z</time>
      </trkpt>
      <trkpt lat="42.81702" lon="2.20685">
        <ele>434.4</ele>
        <time>2021-10-09T09:12:53Z</time>
      </trkpt>
      <trkpt lat="42.81699" lon="2.20697">
        <ele>434.2</ele>
        <time>2021-10-09T09:12:54Z</time>
      </trkpt>
      <trkpt lat="42.81687" lon="2.20742">
        <ele>433.6</ele>
        <time>2021-10-09T09:12:58Z</time>
      </trkpt>
      <trkpt lat="42.81685" lon="2.20753">
        <ele>433.4</ele>
        <time>2021-10-09T09:12:59Z</time>
      </trkpt>
      <trkpt lat="42.81683" lon="2.20765">
        <ele>433.4</ele>
        <time>2021-10-09T09:13:00Z</time>
      </trkpt>
      <trkpt lat="42.81683" lon="2.20801">
        <ele>432.8</ele>
        <time>2021-10-09T09:13:03Z</time>
      </trkpt>
      <trkpt lat="42.81684" lon="2.20837">
        <ele>432.4</ele>
        <time>2021-10-09T09:13:06Z</time>
      </trkpt>
      <trkpt lat="42.81683" lon="2.20849">
        <ele>432.4</ele>
        <time>2021-10-09T09:13:07Z</time>
      </trkpt>
      <trkpt lat="42.81681" lon="2.2086">
        <ele>432.2</ele>
        <time>2021-10-09T09:13:08Z</time>
      </trkpt>
      <trkpt lat="42.81674" lon="2.20881">
        <ele>431.8</ele>
        <time>2021-10-09T09:13:10Z</time>
      </trkpt>
      <trkpt lat="42.81669" lon="2.20892">
        <ele>431.6</ele>
        <time>2021-10-09T09:13:11Z</time>
      </trkpt>
      <trkpt lat="42.81654" lon="2.20908">
        <ele>431.2</ele>
        <time>2021-10-09T09:13:13Z</time>
      </trkpt>
      <trkpt lat="42.8161" lon="2.20955">
        <ele>430.6</ele>
        <time>2021-10-09T09:13:19Z</time>
      </trkpt>
      <trkpt lat="42.81589" lon="2.20995">
        <ele>429.8</ele>
        <time>2021-10-09T09:13:23Z</time>
      </trkpt>
      <trkpt lat="42.81586" lon="2.21019">
        <ele>429.4</ele>
        <time>2021-10-09T09:13:25Z</time>
      </trkpt>
      <trkpt lat="42.81585" lon="2.21032">
        <ele>429.2</ele>
        <time>2021-10-09T09:13:26Z</time>
      </trkpt>
      <trkpt lat="42.81589" lon="2.21094">
        <ele>428.4</ele>
        <time>2021-10-09T09:13:31Z</time>
      </trkpt>
      <trkpt lat="42.81594" lon="2.21118">
        <ele>428</ele>
        <time>2021-10-09T09:13:33Z</time>
      </trkpt>
      <trkpt lat="42.81603" lon="2.21139">
        <ele>427.6</ele>
        <time>2021-10-09T09:13:35Z</time>
      </trkpt>
      <trkpt lat="42.81616" lon="2.21184">
        <ele>426.6</ele>
        <time>2021-10-09T09:13:39Z</time>
      </trkpt>
      <trkpt lat="42.81619" lon="2.21196">
        <ele>426.4</ele>
        <time>2021-10-09T09:13:40Z</time>
      </trkpt>
      <trkpt lat="42.81622" lon="2.21221">
        <ele>426</ele>
        <time>2021-10-09T09:13:42Z</time>
      </trkpt>
      <trkpt lat="42.81619" lon="2.21257">
        <ele>425.4</ele>
        <time>2021-10-09T09:13:45Z</time>
      </trkpt>
      <trkpt lat="42.81617" lon="2.21269">
        <ele>425.2</ele>
        <time>2021-10-09T09:13:46Z</time>
      </trkpt>
      <trkpt lat="42.81597" lon="2.21338">
        <ele>424</ele>
        <time>2021-10-09T09:13:52Z</time>
      </trkpt>
      <trkpt lat="42.81594" lon="2.2135">
        <ele>423.8</ele>
        <time>2021-10-09T09:13:53Z</time>
      </trkpt>
      <trkpt lat="42.81585" lon="2.21397">
        <ele>422.8</ele>
        <time>2021-10-09T09:13:57Z</time>
      </trkpt>
      <trkpt lat="42.81585" lon="2.21409">
        <ele>422.6</ele>
        <time>2021-10-09T09:13:58Z</time>
      </trkpt>
      <trkpt lat="42.81589" lon="2.21454">
        <ele>421.8</ele>
        <time>2021-10-09T09:14:02Z</time>
      </trkpt>
      <trkpt lat="42.816" lon="2.2151">
        <ele>420.8</ele>
        <time>2021-10-09T09:14:07Z</time>
      </trkpt>
      <trkpt lat="42.81609" lon="2.21556">
        <ele>420</ele>
        <time>2021-10-09T09:14:11Z</time>
      </trkpt>
      <trkpt lat="42.81611" lon="2.2158">
        <ele>419.6</ele>
        <time>2021-10-09T09:14:13Z</time>
      </trkpt>
      <trkpt lat="42.8161" lon="2.21616">
        <ele>419</ele>
        <time>2021-10-09T09:14:16Z</time>
      </trkpt>
      <trkpt lat="42.81608" lon="2.21628">
        <ele>418.8</ele>
        <time>2021-10-09T09:14:17Z</time>
      </trkpt>
      <trkpt lat="42.81605" lon="2.21639">
        <ele>418.6</ele>
        <time>2021-10-09T09:14:18Z</time>
      </trkpt>
      <trkpt lat="42.81591" lon="2.21671">
        <ele>418</ele>
        <time>2021-10-09T09:14:21Z</time>
      </trkpt>
      <trkpt lat="42.81561" lon="2.21701">
        <ele>417.2</ele>
        <time>2021-10-09T09:14:25Z</time>
      </trkpt>
      <trkpt lat="42.81537" lon="2.21737">
        <ele>416.6</ele>
        <time>2021-10-09T09:14:29Z</time>
      </trkpt>
      <trkpt lat="42.81531" lon="2.21747">
        <ele>416.6</ele>
        <time>2021-10-09T09:14:30Z</time>
      </trkpt>
      <trkpt lat="42.81524" lon="2.21768">
        <ele>416.2</ele>
        <time>2021-10-09T09:14:32Z</time>
      </trkpt>
      <trkpt lat="42.81523" lon="2.21779">
        <ele>416</ele>
        <time>2021-10-09T09:14:33Z</time>
      </trkpt>
      <trkpt lat="42.8152" lon="2.21838">
        <ele>415.4</ele>
        <time>2021-10-09T09:14:38Z</time>
      </trkpt>
      <trkpt lat="42.81523" lon="2.21861">
        <ele>415</ele>
        <time>2021-10-09T09:14:40Z</time>
      </trkpt>
      <trkpt lat="42.81527" lon="2.21884">
        <ele>414.8</ele>
        <time>2021-10-09T09:14:42Z</time>
      </trkpt>
      <trkpt lat="42.81535" lon="2.21929">
        <ele>414</ele>
        <time>2021-10-09T09:14:46Z</time>
      </trkpt>
      <trkpt lat="42.81534" lon="2.21941">
        <ele>413.8</ele>
        <time>2021-10-09T09:14:47Z</time>
      </trkpt>
      <trkpt lat="42.81532" lon="2.21953">
        <ele>413.6</ele>
        <time>2021-10-09T09:14:48Z</time>
      </trkpt>
      <trkpt lat="42.8152" lon="2.21974">
        <ele>413.2</ele>
        <time>2021-10-09T09:14:50Z</time>
      </trkpt>
      <trkpt lat="42.81504" lon="2.21986">
        <ele>412.8</ele>
        <time>2021-10-09T09:14:52Z</time>
      </trkpt>
      <trkpt lat="42.81495" lon="2.21989">
        <ele>412.6</ele>
        <time>2021-10-09T09:14:53Z</time>
      </trkpt>
      <trkpt lat="42.81485" lon="2.21993">
        <ele>412.6</ele>
        <time>2021-10-09T09:14:54Z</time>
      </trkpt>
      <trkpt lat="42.81465" lon="2.22001">
        <ele>412.2</ele>
        <time>2021-10-09T09:14:56Z</time>
      </trkpt>
      <trkpt lat="42.81456" lon="2.22007">
        <ele>412</ele>
        <time>2021-10-09T09:14:57Z</time>
      </trkpt>
      <trkpt lat="42.8145" lon="2.2201">
        <ele>412</ele>
        <time>2021-10-09T09:14:58Z</time>
      </trkpt>
      <trkpt lat="42.81443" lon="2.22019">
        <ele>411.8</ele>
        <time>2021-10-09T09:14:59Z</time>
      </trkpt>
      <trkpt lat="42.81439" lon="2.22027">
        <ele>411.8</ele>
        <time>2021-10-09T09:15:00Z</time>
      </trkpt>
      <trkpt lat="42.8143" lon="2.22048">
        <ele>411.4</ele>
        <time>2021-10-09T09:15:02Z</time>
      </trkpt>
      <trkpt lat="42.8142" lon="2.2207">
        <ele>411.2</ele>
        <time>2021-10-09T09:15:04Z</time>
      </trkpt>
      <trkpt lat="42.81419" lon="2.2208">
        <ele>411</ele>
        <time>2021-10-09T09:15:05Z</time>
      </trkpt>
      <trkpt lat="42.81421" lon="2.22118">
        <ele>410.6</ele>
        <time>2021-10-09T09:15:08Z</time>
      </trkpt>
      <trkpt lat="42.81422" lon="2.2213">
        <ele>410.6</ele>
        <time>2021-10-09T09:15:09Z</time>
      </trkpt>
      <trkpt lat="42.81427" lon="2.22141">
        <ele>410.4</ele>
        <time>2021-10-09T09:15:10Z</time>
      </trkpt>
      <trkpt lat="42.81437" lon="2.22161">
        <ele>410</ele>
        <time>2021-10-09T09:15:12Z</time>
      </trkpt>
      <trkpt lat="42.81452" lon="2.22172">
        <ele>409.8</ele>
        <time>2021-10-09T09:15:14Z</time>
      </trkpt>
      <trkpt lat="42.8146" lon="2.22174">
        <ele>409.6</ele>
        <time>2021-10-09T09:15:15Z</time>
      </trkpt>
      <trkpt lat="42.8147" lon="2.22175">
        <ele>409.4</ele>
        <time>2021-10-09T09:15:16Z</time>
      </trkpt>
      <trkpt lat="42.815" lon="2.22179">
        <ele>409</ele>
        <time>2021-10-09T09:15:19Z</time>
      </trkpt>
      <trkpt lat="42.81517" lon="2.22185">
        <ele>408.8</ele>
        <time>2021-10-09T09:15:21Z</time>
      </trkpt>
      <trkpt lat="42.81527" lon="2.22192">
        <ele>408.6</ele>
        <time>2021-10-09T09:15:22Z</time>
      </trkpt>
      <trkpt lat="42.81534" lon="2.22203">
        <ele>408.6</ele>
        <time>2021-10-09T09:15:23Z</time>
      </trkpt>
      <trkpt lat="42.81537" lon="2.22216">
        <ele>408.4</ele>
        <time>2021-10-09T09:15:24Z</time>
      </trkpt>
      <trkpt lat="42.81536" lon="2.22229">
        <ele>408.4</ele>
        <time>2021-10-09T09:15:25Z</time>
      </trkpt>
      <trkpt lat="42.81533" lon="2.22241">
        <ele>408.2</ele>
        <time>2021-10-09T09:15:26Z</time>
      </trkpt>
      <trkpt lat="42.8153" lon="2.22253">
        <ele>408.2</ele>
        <time>2021-10-09T09:15:27Z</time>
      </trkpt>
      <trkpt lat="42.8152" lon="2.22291">
        <ele>407.8</ele>
        <time>2021-10-09T09:15:30Z</time>
      </trkpt>
      <trkpt lat="42.81515" lon="2.22316">
        <ele>407.6</ele>
        <time>2021-10-09T09:15:32Z</time>
      </trkpt>
      <trkpt lat="42.81512" lon="2.22342">
        <ele>407.4</ele>
        <time>2021-10-09T09:15:34Z</time>
      </trkpt>
      <trkpt lat="42.81512" lon="2.2238">
        <ele>407</ele>
        <time>2021-10-09T09:15:37Z</time>
      </trkpt>
      <trkpt lat="42.81509" lon="2.22406">
        <ele>406.8</ele>
        <time>2021-10-09T09:15:39Z</time>
      </trkpt>
      <trkpt lat="42.81487" lon="2.22449">
        <ele>406.2</ele>
        <time>2021-10-09T09:15:43Z</time>
      </trkpt>
      <trkpt lat="42.81456" lon="2.22511">
        <ele>405.2</ele>
        <time>2021-10-09T09:15:49Z</time>
      </trkpt>
      <trkpt lat="42.81441" lon="2.22541">
        <ele>404.8</ele>
        <time>2021-10-09T09:15:52Z</time>
      </trkpt>
      <trkpt lat="42.81425" lon="2.22582">
        <ele>404.2</ele>
        <time>2021-10-09T09:15:56Z</time>
      </trkpt>
      <trkpt lat="42.81422" lon="2.22593">
        <ele>404.2</ele>
        <time>2021-10-09T09:15:57Z</time>
      </trkpt>
      <trkpt lat="42.8142" lon="2.22603">
        <ele>404</ele>
        <time>2021-10-09T09:15:58Z</time>
      </trkpt>
      <trkpt lat="42.81421" lon="2.22635">
        <ele>403.6</ele>
        <time>2021-10-09T09:16:01Z</time>
      </trkpt>
      <trkpt lat="42.81436" lon="2.22668">
        <ele>403.2</ele>
        <time>2021-10-09T09:16:05Z</time>
      </trkpt>
      <trkpt lat="42.81456" lon="2.22688">
        <ele>402.6</ele>
        <time>2021-10-09T09:16:09Z</time>
      </trkpt>
      <trkpt lat="42.8149" lon="2.22718">
        <ele>401.6</ele>
        <time>2021-10-09T09:16:15Z</time>
      </trkpt>
      <trkpt lat="42.81496" lon="2.22722">
        <ele>401.4</ele>
        <time>2021-10-09T09:16:16Z</time>
      </trkpt>
      <trkpt lat="42.81508" lon="2.2273">
        <ele>401.2</ele>
        <time>2021-10-09T09:16:18Z</time>
      </trkpt>
      <trkpt lat="42.81541" lon="2.22754">
        <ele>400.6</ele>
        <time>2021-10-09T09:16:24Z</time>
      </trkpt>
      <trkpt lat="42.81546" lon="2.22761">
        <ele>400.4</ele>
        <time>2021-10-09T09:16:27Z</time>
      </trkpt>
      <trkpt lat="42.81547" lon="2.22762">
        <ele>400.2</ele>
        <time>2021-10-09T09:16:30Z</time>
      </trkpt>
      <trkpt lat="42.81552" lon="2.22766">
        <ele>399.4</ele>
        <time>2021-10-09T09:16:41Z</time>
      </trkpt>
      <trkpt lat="42.81564" lon="2.22765">
        <ele>399.2</ele>
        <time>2021-10-09T09:16:45Z</time>
      </trkpt>
      <trkpt lat="42.81578" lon="2.22764">
        <ele>399</ele>
        <time>2021-10-09T09:16:48Z</time>
      </trkpt>
      <trkpt lat="42.81583" lon="2.22765">
        <ele>399</ele>
        <time>2021-10-09T09:16:49Z</time>
      </trkpt>
      <trkpt lat="42.81591" lon="2.22766">
        <ele>399</ele>
        <time>2021-10-09T09:16:50Z</time>
      </trkpt>
      <trkpt lat="42.81604" lon="2.22775">
        <ele>398.8</ele>
        <time>2021-10-09T09:16:52Z</time>
      </trkpt>
      <trkpt lat="42.81627" lon="2.22803">
        <ele>398.6</ele>
        <time>2021-10-09T09:16:56Z</time>
      </trkpt>
      <trkpt lat="42.81648" lon="2.22846">
        <ele>398.2</ele>
        <time>2021-10-09T09:17:01Z</time>
      </trkpt>
      <trkpt lat="42.81662" lon="2.22869">
        <ele>398.2</ele>
        <time>2021-10-09T09:17:04Z</time>
      </trkpt>
      <trkpt lat="42.81673" lon="2.22879">
        <ele>398.2</ele>
        <time>2021-10-09T09:17:06Z</time>
      </trkpt>
      <trkpt lat="42.81693" lon="2.22885">
        <ele>398</ele>
        <time>2021-10-09T09:17:09Z</time>
      </trkpt>
      <trkpt lat="42.81708" lon="2.22883">
        <ele>398</ele>
        <time>2021-10-09T09:17:11Z</time>
      </trkpt>
      <trkpt lat="42.81716" lon="2.22879">
        <ele>398</ele>
        <time>2021-10-09T09:17:12Z</time>
      </trkpt>
      <trkpt lat="42.81723" lon="2.22876">
        <ele>397.8</ele>
        <time>2021-10-09T09:17:13Z</time>
      </trkpt>
      <trkpt lat="42.81744" lon="2.22859">
        <ele>397.8</ele>
        <time>2021-10-09T09:17:16Z</time>
      </trkpt>
      <trkpt lat="42.81788" lon="2.22828">
        <ele>397.6</ele>
        <time>2021-10-09T09:17:22Z</time>
      </trkpt>
      <trkpt lat="42.8184" lon="2.22801">
        <ele>397.6</ele>
        <time>2021-10-09T09:17:29Z</time>
      </trkpt>
      <trkpt lat="42.81849" lon="2.22799">
        <ele>397.6</ele>
        <time>2021-10-09T09:17:30Z</time>
      </trkpt>
      <trkpt lat="42.81874" lon="2.22797">
        <ele>397.6</ele>
        <time>2021-10-09T09:17:33Z</time>
      </trkpt>
      <trkpt lat="42.81932" lon="2.22794">
        <ele>397.4</ele>
        <time>2021-10-09T09:17:40Z</time>
      </trkpt>
      <trkpt lat="42.8194" lon="2.22794">
        <ele>397.4</ele>
        <time>2021-10-09T09:17:41Z</time>
      </trkpt>
      <trkpt lat="42.81964" lon="2.22789">
        <ele>397.4</ele>
        <time>2021-10-09T09:17:44Z</time>
      </trkpt>
      <trkpt lat="42.81971" lon="2.22784">
        <ele>397.4</ele>
        <time>2021-10-09T09:17:45Z</time>
      </trkpt>
      <trkpt lat="42.81979" lon="2.22779">
        <ele>397.4</ele>
        <time>2021-10-09T09:17:46Z</time>
      </trkpt>
      <trkpt lat="42.81991" lon="2.22766">
        <ele>397.4</ele>
        <time>2021-10-09T09:17:48Z</time>
      </trkpt>
      <trkpt lat="42.81997" lon="2.22759">
        <ele>397.4</ele>
        <time>2021-10-09T09:17:49Z</time>
      </trkpt>
      <trkpt lat="42.82009" lon="2.22731">
        <ele>397.2</ele>
        <time>2021-10-09T09:17:52Z</time>
      </trkpt>
      <trkpt lat="42.82013" lon="2.2272">
        <ele>397.2</ele>
        <time>2021-10-09T09:17:53Z</time>
      </trkpt>
      <trkpt lat="42.82016" lon="2.2271">
        <ele>397.2</ele>
        <time>2021-10-09T09:17:54Z</time>
      </trkpt>
      <trkpt lat="42.82023" lon="2.22689">
        <ele>397.2</ele>
        <time>2021-10-09T09:17:56Z</time>
      </trkpt>
      <trkpt lat="42.82045" lon="2.22617">
        <ele>396.4</ele>
        <time>2021-10-09T09:18:02Z</time>
      </trkpt>
      <trkpt lat="42.82049" lon="2.22607">
        <ele>396.4</ele>
        <time>2021-10-09T09:18:03Z</time>
      </trkpt>
      <trkpt lat="42.82058" lon="2.22588">
        <ele>396.2</ele>
        <time>2021-10-09T09:18:05Z</time>
      </trkpt>
      <trkpt lat="42.82075" lon="2.22561">
        <ele>395.8</ele>
        <time>2021-10-09T09:18:08Z</time>
      </trkpt>
      <trkpt lat="42.82086" lon="2.22543">
        <ele>395.6</ele>
        <time>2021-10-09T09:18:10Z</time>
      </trkpt>
      <trkpt lat="42.82103" lon="2.22519">
        <ele>395.4</ele>
        <time>2021-10-09T09:18:13Z</time>
      </trkpt>
      <trkpt lat="42.82115" lon="2.22504">
        <ele>395</ele>
        <time>2021-10-09T09:18:15Z</time>
      </trkpt>
      <trkpt lat="42.82128" lon="2.22492">
        <ele>394.8</ele>
        <time>2021-10-09T09:18:17Z</time>
      </trkpt>
      <trkpt lat="42.82153" lon="2.22478">
        <ele>394.2</ele>
        <time>2021-10-09T09:18:21Z</time>
      </trkpt>
      <trkpt lat="42.82166" lon="2.22478">
        <ele>393.6</ele>
        <time>2021-10-09T09:18:23Z</time>
      </trkpt>
      <trkpt lat="42.82174" lon="2.2248">
        <ele>393.4</ele>
        <time>2021-10-09T09:18:24Z</time>
      </trkpt>
      <trkpt lat="42.82213" lon="2.2249">
        <ele>392.4</ele>
        <time>2021-10-09T09:18:29Z</time>
      </trkpt>
      <trkpt lat="42.82228" lon="2.22501">
        <ele>392.2</ele>
        <time>2021-10-09T09:18:31Z</time>
      </trkpt>
      <trkpt lat="42.82242" lon="2.22514">
        <ele>392</ele>
        <time>2021-10-09T09:18:33Z</time>
      </trkpt>
      <trkpt lat="42.82255" lon="2.22526">
        <ele>391.8</ele>
        <time>2021-10-09T09:18:35Z</time>
      </trkpt>
      <trkpt lat="42.82267" lon="2.22543">
        <ele>391.6</ele>
        <time>2021-10-09T09:18:37Z</time>
      </trkpt>
      <trkpt lat="42.82293" lon="2.22603">
        <ele>391</ele>
        <time>2021-10-09T09:18:43Z</time>
      </trkpt>
      <trkpt lat="42.82299" lon="2.22647">
        <ele>390.4</ele>
        <time>2021-10-09T09:18:47Z</time>
      </trkpt>
      <trkpt lat="42.82299" lon="2.22683">
        <ele>390</ele>
        <time>2021-10-09T09:18:50Z</time>
      </trkpt>
      <trkpt lat="42.82297" lon="2.22695">
        <ele>389.8</ele>
        <time>2021-10-09T09:18:51Z</time>
      </trkpt>
      <trkpt lat="42.82293" lon="2.22707">
        <ele>389.8</ele>
        <time>2021-10-09T09:18:52Z</time>
      </trkpt>
      <trkpt lat="42.82285" lon="2.22727">
        <ele>389.4</ele>
        <time>2021-10-09T09:18:54Z</time>
      </trkpt>
      <trkpt lat="42.82277" lon="2.22747">
        <ele>389.2</ele>
        <time>2021-10-09T09:18:56Z</time>
      </trkpt>
      <trkpt lat="42.82271" lon="2.22769">
        <ele>388.8</ele>
        <time>2021-10-09T09:18:58Z</time>
      </trkpt>
      <trkpt lat="42.82265" lon="2.22802">
        <ele>388.6</ele>
        <time>2021-10-09T09:19:01Z</time>
      </trkpt>
      <trkpt lat="42.82266" lon="2.22824">
        <ele>388.4</ele>
        <time>2021-10-09T09:19:03Z</time>
      </trkpt>
      <trkpt lat="42.82274" lon="2.22843">
        <ele>388.2</ele>
        <time>2021-10-09T09:19:05Z</time>
      </trkpt>
      <trkpt lat="42.82279" lon="2.22852">
        <ele>388.2</ele>
        <time>2021-10-09T09:19:06Z</time>
      </trkpt>
      <trkpt lat="42.82293" lon="2.22865">
        <ele>388</ele>
        <time>2021-10-09T09:19:08Z</time>
      </trkpt>
      <trkpt lat="42.823" lon="2.22869">
        <ele>387.8</ele>
        <time>2021-10-09T09:19:09Z</time>
      </trkpt>
      <trkpt lat="42.82308" lon="2.22872">
        <ele>387.8</ele>
        <time>2021-10-09T09:19:10Z</time>
      </trkpt>
      <trkpt lat="42.82324" lon="2.22873">
        <ele>387.6</ele>
        <time>2021-10-09T09:19:12Z</time>
      </trkpt>
      <trkpt lat="42.82348" lon="2.2287">
        <ele>387.2</ele>
        <time>2021-10-09T09:19:15Z</time>
      </trkpt>
      <trkpt lat="42.82357" lon="2.22867">
        <ele>387.2</ele>
        <time>2021-10-09T09:19:16Z</time>
      </trkpt>
      <trkpt lat="42.82403" lon="2.22846">
        <ele>386.6</ele>
        <time>2021-10-09T09:19:22Z</time>
      </trkpt>
      <trkpt lat="42.82454" lon="2.22816">
        <ele>386</ele>
        <time>2021-10-09T09:19:29Z</time>
      </trkpt>
      <trkpt lat="42.82497" lon="2.22783">
        <ele>385.6</ele>
        <time>2021-10-09T09:19:35Z</time>
      </trkpt>
      <trkpt lat="42.82526" lon="2.22747">
        <ele>385.2</ele>
        <time>2021-10-09T09:19:40Z</time>
      </trkpt>
      <trkpt lat="42.82564" lon="2.22701">
        <ele>384.6</ele>
        <time>2021-10-09T09:19:46Z</time>
      </trkpt>
      <trkpt lat="42.82601" lon="2.22663">
        <ele>384</ele>
        <time>2021-10-09T09:19:52Z</time>
      </trkpt>
      <trkpt lat="42.82637" lon="2.22631">
        <ele>383</ele>
        <time>2021-10-09T09:19:57Z</time>
      </trkpt>
      <trkpt lat="42.8268" lon="2.22597">
        <ele>382</ele>
        <time>2021-10-09T09:20:03Z</time>
      </trkpt>
      <trkpt lat="42.82725" lon="2.22573">
        <ele>381.2</ele>
        <time>2021-10-09T09:20:09Z</time>
      </trkpt>
      <trkpt lat="42.82773" lon="2.22554">
        <ele>380.2</ele>
        <time>2021-10-09T09:20:15Z</time>
      </trkpt>
      <trkpt lat="42.8278" lon="2.22549">
        <ele>380</ele>
        <time>2021-10-09T09:20:16Z</time>
      </trkpt>
      <trkpt lat="42.82801" lon="2.22533">
        <ele>379.6</ele>
        <time>2021-10-09T09:20:19Z</time>
      </trkpt>
      <trkpt lat="42.82849" lon="2.22494">
        <ele>378.4</ele>
        <time>2021-10-09T09:20:26Z</time>
      </trkpt>
      <trkpt lat="42.82894" lon="2.22454">
        <ele>377.2</ele>
        <time>2021-10-09T09:20:33Z</time>
      </trkpt>
      <trkpt lat="42.8292" lon="2.22419">
        <ele>376.6</ele>
        <time>2021-10-09T09:20:38Z</time>
      </trkpt>
      <trkpt lat="42.82935" lon="2.22386">
        <ele>376.2</ele>
        <time>2021-10-09T09:20:42Z</time>
      </trkpt>
      <trkpt lat="42.82945" lon="2.22335">
        <ele>375.4</ele>
        <time>2021-10-09T09:20:48Z</time>
      </trkpt>
      <trkpt lat="42.82944" lon="2.22292">
        <ele>375</ele>
        <time>2021-10-09T09:20:53Z</time>
      </trkpt>
      <trkpt lat="42.82943" lon="2.22282">
        <ele>374.8</ele>
        <time>2021-10-09T09:20:54Z</time>
      </trkpt>
      <trkpt lat="42.82936" lon="2.22218">
        <ele>374.2</ele>
        <time>2021-10-09T09:21:01Z</time>
      </trkpt>
      <trkpt lat="42.82929" lon="2.22154">
        <ele>373.6</ele>
        <time>2021-10-09T09:21:08Z</time>
      </trkpt>
      <trkpt lat="42.82926" lon="2.22075">
        <ele>373</ele>
        <time>2021-10-09T09:21:16Z</time>
      </trkpt>
      <trkpt lat="42.82926" lon="2.22065">
        <ele>373</ele>
        <time>2021-10-09T09:21:17Z</time>
      </trkpt>
      <trkpt lat="42.82926" lon="2.21985">
        <ele>372.6</ele>
        <time>2021-10-09T09:21:25Z</time>
      </trkpt>
      <trkpt lat="42.8293" lon="2.21903">
        <ele>372.2</ele>
        <time>2021-10-09T09:21:33Z</time>
      </trkpt>
      <trkpt lat="42.8294" lon="2.21832">
        <ele>371.6</ele>
        <time>2021-10-09T09:21:40Z</time>
      </trkpt>
      <trkpt lat="42.82955" lon="2.21754">
        <ele>370.8</ele>
        <time>2021-10-09T09:21:48Z</time>
      </trkpt>
      <trkpt lat="42.82958" lon="2.21735">
        <ele>370.6</ele>
        <time>2021-10-09T09:21:50Z</time>
      </trkpt>
      <trkpt lat="42.82966" lon="2.21656">
        <ele>370</ele>
        <time>2021-10-09T09:21:58Z</time>
      </trkpt>
      <trkpt lat="42.82964" lon="2.21593">
        <ele>369.6</ele>
        <time>2021-10-09T09:22:04Z</time>
      </trkpt>
      <trkpt lat="42.82955" lon="2.2152">
        <ele>369</ele>
        <time>2021-10-09T09:22:11Z</time>
      </trkpt>
      <trkpt lat="42.82953" lon="2.21499">
        <ele>368.8</ele>
        <time>2021-10-09T09:22:13Z</time>
      </trkpt>
      <trkpt lat="42.82944" lon="2.21425">
        <ele>368</ele>
        <time>2021-10-09T09:22:20Z</time>
      </trkpt>
      <trkpt lat="42.82943" lon="2.21414">
        <ele>368</ele>
        <time>2021-10-09T09:22:21Z</time>
      </trkpt>
      <trkpt lat="42.82942" lon="2.21348">
        <ele>367.4</ele>
        <time>2021-10-09T09:22:27Z</time>
      </trkpt>
      <trkpt lat="42.82954" lon="2.21279">
        <ele>366.8</ele>
        <time>2021-10-09T09:22:33Z</time>
      </trkpt>
      <trkpt lat="42.82975" lon="2.21212">
        <ele>365.6</ele>
        <time>2021-10-09T09:22:39Z</time>
      </trkpt>
      <trkpt lat="42.82999" lon="2.21159">
        <ele>364.8</ele>
        <time>2021-10-09T09:22:44Z</time>
      </trkpt>
      <trkpt lat="42.83037" lon="2.21105">
        <ele>364</ele>
        <time>2021-10-09T09:22:50Z</time>
      </trkpt>
      <trkpt lat="42.83077" lon="2.21054">
        <ele>363.2</ele>
        <time>2021-10-09T09:22:56Z</time>
      </trkpt>
      <trkpt lat="42.83083" lon="2.21045">
        <ele>363.2</ele>
        <time>2021-10-09T09:22:57Z</time>
      </trkpt>
      <trkpt lat="42.83101" lon="2.21017">
        <ele>362.6</ele>
        <time>2021-10-09T09:23:00Z</time>
      </trkpt>
      <trkpt lat="42.8311" lon="2.21">
        <ele>362.4</ele>
        <time>2021-10-09T09:23:02Z</time>
      </trkpt>
      <trkpt lat="42.83167" lon="2.20906">
        <ele>361.2</ele>
        <time>2021-10-09T09:23:12Z</time>
      </trkpt>
      <trkpt lat="42.83179" lon="2.20893">
        <ele>361.2</ele>
        <time>2021-10-09T09:23:13Z</time>
      </trkpt>
      <trkpt lat="42.83206" lon="2.20866">
        <ele>361</ele>
        <time>2021-10-09T09:23:16Z</time>
      </trkpt>
      <trkpt lat="42.83214" lon="2.20858">
        <ele>360.8</ele>
        <time>2021-10-09T09:23:17Z</time>
      </trkpt>
      <trkpt lat="42.83242" lon="2.20824">
        <ele>360</ele>
        <time>2021-10-09T09:23:21Z</time>
      </trkpt>
      <trkpt lat="42.83262" lon="2.20803">
        <ele>359.4</ele>
        <time>2021-10-09T09:23:24Z</time>
      </trkpt>
      <trkpt lat="42.8327" lon="2.20798">
        <ele>359.4</ele>
        <time>2021-10-09T09:23:25Z</time>
      </trkpt>
      <trkpt lat="42.83296" lon="2.20783">
        <ele>358.8</ele>
        <time>2021-10-09T09:23:28Z</time>
      </trkpt>
      <trkpt lat="42.83305" lon="2.20775">
        <ele>358.6</ele>
        <time>2021-10-09T09:23:29Z</time>
      </trkpt>
      <trkpt lat="42.83341" lon="2.20731">
        <ele>357.6</ele>
        <time>2021-10-09T09:23:34Z</time>
      </trkpt>
      <trkpt lat="42.83347" lon="2.20723">
        <ele>357.2</ele>
        <time>2021-10-09T09:23:35Z</time>
      </trkpt>
      <trkpt lat="42.83358" lon="2.20709">
        <ele>356.4</ele>
        <time>2021-10-09T09:23:37Z</time>
      </trkpt>
      <trkpt lat="42.8339" lon="2.20663">
        <ele>353.4</ele>
        <time>2021-10-09T09:23:43Z</time>
      </trkpt>
      <trkpt lat="42.83413" lon="2.20631">
        <ele>351.4</ele>
        <time>2021-10-09T09:23:47Z</time>
      </trkpt>
      <trkpt lat="42.83425" lon="2.20614">
        <ele>350.4</ele>
        <time>2021-10-09T09:23:49Z</time>
      </trkpt>
      <trkpt lat="42.83443" lon="2.20589">
        <ele>348.6</ele>
        <time>2021-10-09T09:23:52Z</time>
      </trkpt>
      <trkpt lat="42.83449" lon="2.20581">
        <ele>348</ele>
        <time>2021-10-09T09:23:53Z</time>
      </trkpt>
      <trkpt lat="42.83465" lon="2.20557">
        <ele>346.2</ele>
        <time>2021-10-09T09:23:56Z</time>
      </trkpt>
      <trkpt lat="42.83478" lon="2.20543">
        <ele>345</ele>
        <time>2021-10-09T09:23:58Z</time>
      </trkpt>
      <trkpt lat="42.83509" lon="2.20514">
        <ele>341.8</ele>
        <time>2021-10-09T09:24:03Z</time>
      </trkpt>
      <trkpt lat="42.83547" lon="2.20485">
        <ele>339.4</ele>
        <time>2021-10-09T09:24:08Z</time>
      </trkpt>
      <trkpt lat="42.83567" lon="2.20469">
        <ele>339.4</ele>
        <time>2021-10-09T09:24:10Z</time>
      </trkpt>
      <trkpt lat="42.83588" lon="2.20461">
        <ele>339</ele>
        <time>2021-10-09T09:24:12Z</time>
      </trkpt>
      <trkpt lat="42.83601" lon="2.20461">
        <ele>338.2</ele>
        <time>2021-10-09T09:24:15Z</time>
      </trkpt>
      <trkpt lat="42.8361" lon="2.20461">
        <ele>337.8</ele>
        <time>2021-10-09T09:24:20Z</time>
      </trkpt>
      <trkpt lat="42.8362" lon="2.2046">
        <ele>330</ele>
        <time>2021-10-09T09:25:02Z</time>
      </trkpt>
      <trkpt lat="42.83624" lon="2.20459">
        <ele>330.2</ele>
        <time>2021-10-09T09:25:03Z</time>
      </trkpt>
      <trkpt lat="42.83639" lon="2.20455">
        <ele>330.2</ele>
        <time>2021-10-09T09:25:06Z</time>
      </trkpt>
      <trkpt lat="42.83672" lon="2.20443">
        <ele>330.2</ele>
        <time>2021-10-09T09:25:10Z</time>
      </trkpt>
      <trkpt lat="42.8368" lon="2.2044">
        <ele>330.2</ele>
        <time>2021-10-09T09:25:11Z</time>
      </trkpt>
      <trkpt lat="42.83709" lon="2.2043">
        <ele>330</ele>
        <time>2021-10-09T09:25:14Z</time>
      </trkpt>
      <trkpt lat="42.83719" lon="2.20426">
        <ele>330</ele>
        <time>2021-10-09T09:25:15Z</time>
      </trkpt>
      <trkpt lat="42.83729" lon="2.20422">
        <ele>329.8</ele>
        <time>2021-10-09T09:25:17Z</time>
      </trkpt>
      <trkpt lat="42.83765" lon="2.20392">
        <ele>329.8</ele>
        <time>2021-10-09T09:25:20Z</time>
      </trkpt>
      <trkpt lat="42.83772" lon="2.20381">
        <ele>329.8</ele>
        <time>2021-10-09T09:25:21Z</time>
      </trkpt>
      <trkpt lat="42.83815" lon="2.20319">
        <ele>329.8</ele>
        <time>2021-10-09T09:25:27Z</time>
      </trkpt>
      <trkpt lat="42.83853" lon="2.20277">
        <ele>329.8</ele>
        <time>2021-10-09T09:25:32Z</time>
      </trkpt>
      <trkpt lat="42.83886" lon="2.20248">
        <ele>330</ele>
        <time>2021-10-09T09:25:36Z</time>
      </trkpt>
      <trkpt lat="42.83903" lon="2.20234">
        <ele>330.2</ele>
        <time>2021-10-09T09:25:38Z</time>
      </trkpt>
      <trkpt lat="42.83919" lon="2.20229">
        <ele>330.2</ele>
        <time>2021-10-09T09:25:40Z</time>
      </trkpt>
      <trkpt lat="42.8394" lon="2.20228">
        <ele>330.2</ele>
        <time>2021-10-09T09:25:43Z</time>
      </trkpt>
      <trkpt lat="42.8396" lon="2.20235">
        <ele>330.2</ele>
        <time>2021-10-09T09:25:45Z</time>
      </trkpt>
      <trkpt lat="42.83971" lon="2.20242">
        <ele>330.2</ele>
        <time>2021-10-09T09:25:46Z</time>
      </trkpt>
      <trkpt lat="42.84006" lon="2.20267">
        <ele>330.2</ele>
        <time>2021-10-09T09:25:50Z</time>
      </trkpt>
      <trkpt lat="42.84014" lon="2.20271">
        <ele>330.2</ele>
        <time>2021-10-09T09:25:51Z</time>
      </trkpt>
      <trkpt lat="42.84023" lon="2.20275">
        <ele>330.4</ele>
        <time>2021-10-09T09:25:52Z</time>
      </trkpt>
      <trkpt lat="42.84066" lon="2.20279">
        <ele>330.6</ele>
        <time>2021-10-09T09:25:56Z</time>
      </trkpt>
      <trkpt lat="42.8413" lon="2.20276">
        <ele>330.8</ele>
        <time>2021-10-09T09:26:02Z</time>
      </trkpt>
      <trkpt lat="42.84171" lon="2.20269">
        <ele>330.8</ele>
        <time>2021-10-09T09:26:06Z</time>
      </trkpt>
      <trkpt lat="42.84181" lon="2.20269">
        <ele>330.8</ele>
        <time>2021-10-09T09:26:07Z</time>
      </trkpt>
      <trkpt lat="42.84191" lon="2.20271">
        <ele>330.8</ele>
        <time>2021-10-09T09:26:08Z</time>
      </trkpt>
      <trkpt lat="42.84211" lon="2.20276">
        <ele>331</ele>
        <time>2021-10-09T09:26:10Z</time>
      </trkpt>
      <trkpt lat="42.84221" lon="2.20281">
        <ele>331</ele>
        <time>2021-10-09T09:26:11Z</time>
      </trkpt>
      <trkpt lat="42.84239" lon="2.20295">
        <ele>331</ele>
        <time>2021-10-09T09:26:13Z</time>
      </trkpt>
      <trkpt lat="42.84266" lon="2.20318">
        <ele>331</ele>
        <time>2021-10-09T09:26:16Z</time>
      </trkpt>
      <trkpt lat="42.84275" lon="2.20322">
        <ele>331</ele>
        <time>2021-10-09T09:26:17Z</time>
      </trkpt>
      <trkpt lat="42.84315" lon="2.20336">
        <ele>331.2</ele>
        <time>2021-10-09T09:26:21Z</time>
      </trkpt>
      <trkpt lat="42.84325" lon="2.20335">
        <ele>331.2</ele>
        <time>2021-10-09T09:26:22Z</time>
      </trkpt>
      <trkpt lat="42.84335" lon="2.20331">
        <ele>331.2</ele>
        <time>2021-10-09T09:26:23Z</time>
      </trkpt>
      <trkpt lat="42.84357" lon="2.20322">
        <ele>331.2</ele>
        <time>2021-10-09T09:26:25Z</time>
      </trkpt>
      <trkpt lat="42.84418" lon="2.20305">
        <ele>330.8</ele>
        <time>2021-10-09T09:26:31Z</time>
      </trkpt>
      <trkpt lat="42.84477" lon="2.203">
        <ele>330.4</ele>
        <time>2021-10-09T09:26:37Z</time>
      </trkpt>
      <trkpt lat="42.84507" lon="2.20298">
        <ele>330.2</ele>
        <time>2021-10-09T09:26:40Z</time>
      </trkpt>
      <trkpt lat="42.84556" lon="2.20294">
        <ele>330</ele>
        <time>2021-10-09T09:26:45Z</time>
      </trkpt>
      <trkpt lat="42.84594" lon="2.20307">
        <ele>329.6</ele>
        <time>2021-10-09T09:26:49Z</time>
      </trkpt>
      <trkpt lat="42.84623" lon="2.20316">
        <ele>329.4</ele>
        <time>2021-10-09T09:26:52Z</time>
      </trkpt>
      <trkpt lat="42.84633" lon="2.20316">
        <ele>329.2</ele>
        <time>2021-10-09T09:26:53Z</time>
      </trkpt>
      <trkpt lat="42.84664" lon="2.20312">
        <ele>328.8</ele>
        <time>2021-10-09T09:26:56Z</time>
      </trkpt>
      <trkpt lat="42.84712" lon="2.20304">
        <ele>328</ele>
        <time>2021-10-09T09:27:01Z</time>
      </trkpt>
      <trkpt lat="42.84758" lon="2.20292">
        <ele>327.4</ele>
        <time>2021-10-09T09:27:06Z</time>
      </trkpt>
      <trkpt lat="42.84767" lon="2.20293">
        <ele>327.2</ele>
        <time>2021-10-09T09:27:07Z</time>
      </trkpt>
      <trkpt lat="42.84785" lon="2.20297">
        <ele>327</ele>
        <time>2021-10-09T09:27:09Z</time>
      </trkpt>
      <trkpt lat="42.84828" lon="2.20311">
        <ele>326.6</ele>
        <time>2021-10-09T09:27:14Z</time>
      </trkpt>
      <trkpt lat="42.84861" lon="2.20329">
        <ele>326.2</ele>
        <time>2021-10-09T09:27:18Z</time>
      </trkpt>
      <trkpt lat="42.84885" lon="2.20341">
        <ele>325.6</ele>
        <time>2021-10-09T09:27:21Z</time>
      </trkpt>
      <trkpt lat="42.84893" lon="2.20344">
        <ele>325.4</ele>
        <time>2021-10-09T09:27:22Z</time>
      </trkpt>
      <trkpt lat="42.84939" lon="2.2034">
        <ele>324.8</ele>
        <time>2021-10-09T09:27:27Z</time>
      </trkpt>
      <trkpt lat="42.84977" lon="2.20333">
        <ele>324.4</ele>
        <time>2021-10-09T09:27:31Z</time>
      </trkpt>
      <trkpt lat="42.84986" lon="2.20329">
        <ele>324.4</ele>
        <time>2021-10-09T09:27:32Z</time>
      </trkpt>
      <trkpt lat="42.85039" lon="2.20298">
        <ele>323.8</ele>
        <time>2021-10-09T09:27:38Z</time>
      </trkpt>
      <trkpt lat="42.85048" lon="2.20292">
        <ele>323.8</ele>
        <time>2021-10-09T09:27:39Z</time>
      </trkpt>
      <trkpt lat="42.85094" lon="2.20247">
        <ele>323.4</ele>
        <time>2021-10-09T09:27:45Z</time>
      </trkpt>
      <trkpt lat="42.85102" lon="2.2024">
        <ele>323.4</ele>
        <time>2021-10-09T09:27:46Z</time>
      </trkpt>
      <trkpt lat="42.85148" lon="2.20196">
        <ele>322.8</ele>
        <time>2021-10-09T09:27:52Z</time>
      </trkpt>
      <trkpt lat="42.85178" lon="2.20166">
        <ele>322.6</ele>
        <time>2021-10-09T09:27:56Z</time>
      </trkpt>
      <trkpt lat="42.85224" lon="2.20122">
        <ele>322.2</ele>
        <time>2021-10-09T09:28:02Z</time>
      </trkpt>
      <trkpt lat="42.85239" lon="2.20109">
        <ele>322.2</ele>
        <time>2021-10-09T09:28:04Z</time>
      </trkpt>
      <trkpt lat="42.85256" lon="2.20097">
        <ele>322</ele>
        <time>2021-10-09T09:28:06Z</time>
      </trkpt>
      <trkpt lat="42.85274" lon="2.20089">
        <ele>321.8</ele>
        <time>2021-10-09T09:28:08Z</time>
      </trkpt>
      <trkpt lat="42.85318" lon="2.2008">
        <ele>321.4</ele>
        <time>2021-10-09T09:28:13Z</time>
      </trkpt>
      <trkpt lat="42.85362" lon="2.20072">
        <ele>321.2</ele>
        <time>2021-10-09T09:28:18Z</time>
      </trkpt>
      <trkpt lat="42.85379" lon="2.20066">
        <ele>321</ele>
        <time>2021-10-09T09:28:20Z</time>
      </trkpt>
      <trkpt lat="42.85393" lon="2.20055">
        <ele>321</ele>
        <time>2021-10-09T09:28:22Z</time>
      </trkpt>
      <trkpt lat="42.854" lon="2.20047">
        <ele>320.8</ele>
        <time>2021-10-09T09:28:23Z</time>
      </trkpt>
      <trkpt lat="42.85435" lon="2.19996">
        <ele>320.2</ele>
        <time>2021-10-09T09:28:29Z</time>
      </trkpt>
      <trkpt lat="42.85458" lon="2.19934">
        <ele>319.6</ele>
        <time>2021-10-09T09:28:35Z</time>
      </trkpt>
      <trkpt lat="42.85481" lon="2.19855">
        <ele>319</ele>
        <time>2021-10-09T09:28:42Z</time>
      </trkpt>
      <trkpt lat="42.85491" lon="2.1982">
        <ele>318.8</ele>
        <time>2021-10-09T09:28:45Z</time>
      </trkpt>
      <trkpt lat="42.85511" lon="2.19749">
        <ele>318.4</ele>
        <time>2021-10-09T09:28:51Z</time>
      </trkpt>
      <trkpt lat="42.85524" lon="2.19702">
        <ele>318</ele>
        <time>2021-10-09T09:28:55Z</time>
      </trkpt>
      <trkpt lat="42.85547" lon="2.19624">
        <ele>317.4</ele>
        <time>2021-10-09T09:29:02Z</time>
      </trkpt>
      <trkpt lat="42.85557" lon="2.1959">
        <ele>317.4</ele>
        <time>2021-10-09T09:29:05Z</time>
      </trkpt>
      <trkpt lat="42.85579" lon="2.19539">
        <ele>317</ele>
        <time>2021-10-09T09:29:10Z</time>
      </trkpt>
      <trkpt lat="42.85615" lon="2.19469">
        <ele>316.4</ele>
        <time>2021-10-09T09:29:17Z</time>
      </trkpt>
      <trkpt lat="42.85621" lon="2.19459">
        <ele>316.4</ele>
        <time>2021-10-09T09:29:18Z</time>
      </trkpt>
      <trkpt lat="42.85656" lon="2.19402">
        <ele>315.6</ele>
        <time>2021-10-09T09:29:24Z</time>
      </trkpt>
      <trkpt lat="42.85663" lon="2.19393">
        <ele>315.6</ele>
        <time>2021-10-09T09:29:25Z</time>
      </trkpt>
      <trkpt lat="42.85705" lon="2.19343">
        <ele>315</ele>
        <time>2021-10-09T09:29:31Z</time>
      </trkpt>
      <trkpt lat="42.8574" lon="2.19301">
        <ele>314.2</ele>
        <time>2021-10-09T09:29:36Z</time>
      </trkpt>
      <trkpt lat="42.8578" lon="2.19252">
        <ele>313.4</ele>
        <time>2021-10-09T09:29:42Z</time>
      </trkpt>
      <trkpt lat="42.85806" lon="2.19219">
        <ele>312.8</ele>
        <time>2021-10-09T09:29:46Z</time>
      </trkpt>
      <trkpt lat="42.85823" lon="2.19192">
        <ele>312.4</ele>
        <time>2021-10-09T09:29:49Z</time>
      </trkpt>
      <trkpt lat="42.85833" lon="2.19174">
        <ele>312</ele>
        <time>2021-10-09T09:29:51Z</time>
      </trkpt>
      <trkpt lat="42.85871" lon="2.19115">
        <ele>311.2</ele>
        <time>2021-10-09T09:29:58Z</time>
      </trkpt>
      <trkpt lat="42.85888" lon="2.19077">
        <ele>311.2</ele>
        <time>2021-10-09T09:30:02Z</time>
      </trkpt>
      <trkpt lat="42.85912" lon="2.19011">
        <ele>310.4</ele>
        <time>2021-10-09T09:30:08Z</time>
      </trkpt>
      <trkpt lat="42.85935" lon="2.18945">
        <ele>309.8</ele>
        <time>2021-10-09T09:30:14Z</time>
      </trkpt>
      <trkpt lat="42.85943" lon="2.18924">
        <ele>309.6</ele>
        <time>2021-10-09T09:30:16Z</time>
      </trkpt>
      <trkpt lat="42.85951" lon="2.18904">
        <ele>309.4</ele>
        <time>2021-10-09T09:30:18Z</time>
      </trkpt>
      <trkpt lat="42.85959" lon="2.18887">
        <ele>309.2</ele>
        <time>2021-10-09T09:30:20Z</time>
      </trkpt>
      <trkpt lat="42.8597" lon="2.18873">
        <ele>309</ele>
        <time>2021-10-09T09:30:22Z</time>
      </trkpt>
      <trkpt lat="42.85977" lon="2.18867">
        <ele>309</ele>
        <time>2021-10-09T09:30:23Z</time>
      </trkpt>
      <trkpt lat="42.85984" lon="2.18862">
        <ele>309</ele>
        <time>2021-10-09T09:30:24Z</time>
      </trkpt>
      <trkpt lat="42.86006" lon="2.18851">
        <ele>308.6</ele>
        <time>2021-10-09T09:30:27Z</time>
      </trkpt>
      <trkpt lat="42.86013" lon="2.18849">
        <ele>308.6</ele>
        <time>2021-10-09T09:30:28Z</time>
      </trkpt>
      <trkpt lat="42.86028" lon="2.18846">
        <ele>308.4</ele>
        <time>2021-10-09T09:30:30Z</time>
      </trkpt>
      <trkpt lat="42.86036" lon="2.18846">
        <ele>308.2</ele>
        <time>2021-10-09T09:30:31Z</time>
      </trkpt>
      <trkpt lat="42.86053" lon="2.18848">
        <ele>308</ele>
        <time>2021-10-09T09:30:33Z</time>
      </trkpt>
      <trkpt lat="42.86068" lon="2.18856">
        <ele>308</ele>
        <time>2021-10-09T09:30:35Z</time>
      </trkpt>
      <trkpt lat="42.86075" lon="2.18861">
        <ele>307.8</ele>
        <time>2021-10-09T09:30:36Z</time>
      </trkpt>
      <trkpt lat="42.86096" lon="2.18879">
        <ele>307.8</ele>
        <time>2021-10-09T09:30:39Z</time>
      </trkpt>
      <trkpt lat="42.86109" lon="2.18894">
        <ele>307.4</ele>
        <time>2021-10-09T09:30:41Z</time>
      </trkpt>
      <trkpt lat="42.8612" lon="2.18911">
        <ele>307.4</ele>
        <time>2021-10-09T09:30:43Z</time>
      </trkpt>
      <trkpt lat="42.86138" lon="2.18962">
        <ele>307</ele>
        <time>2021-10-09T09:30:48Z</time>
      </trkpt>
      <trkpt lat="42.86156" lon="2.19034">
        <ele>306.6</ele>
        <time>2021-10-09T09:30:55Z</time>
      </trkpt>
      <trkpt lat="42.86172" lon="2.19095">
        <ele>306</ele>
        <time>2021-10-09T09:31:01Z</time>
      </trkpt>
      <trkpt lat="42.86192" lon="2.19156">
        <ele>305.4</ele>
        <time>2021-10-09T09:31:07Z</time>
      </trkpt>
      <trkpt lat="42.86201" lon="2.19174">
        <ele>305</ele>
        <time>2021-10-09T09:31:09Z</time>
      </trkpt>
      <trkpt lat="42.86214" lon="2.19187">
        <ele>304.8</ele>
        <time>2021-10-09T09:31:11Z</time>
      </trkpt>
      <trkpt lat="42.86229" lon="2.19196">
        <ele>304.4</ele>
        <time>2021-10-09T09:31:13Z</time>
      </trkpt>
      <trkpt lat="42.86238" lon="2.19198">
        <ele>304.4</ele>
        <time>2021-10-09T09:31:14Z</time>
      </trkpt>
      <trkpt lat="42.86246" lon="2.19197">
        <ele>304.2</ele>
        <time>2021-10-09T09:31:15Z</time>
      </trkpt>
      <trkpt lat="42.86273" lon="2.1919">
        <ele>303.8</ele>
        <time>2021-10-09T09:31:18Z</time>
      </trkpt>
      <trkpt lat="42.86323" lon="2.19177">
        <ele>303</ele>
        <time>2021-10-09T09:31:24Z</time>
      </trkpt>
      <trkpt lat="42.86331" lon="2.19173">
        <ele>303</ele>
        <time>2021-10-09T09:31:25Z</time>
      </trkpt>
      <trkpt lat="42.86345" lon="2.1916">
        <ele>302.6</ele>
        <time>2021-10-09T09:31:27Z</time>
      </trkpt>
      <trkpt lat="42.86358" lon="2.19144">
        <ele>302.4</ele>
        <time>2021-10-09T09:31:29Z</time>
      </trkpt>
      <trkpt lat="42.86368" lon="2.19124">
        <ele>302.2</ele>
        <time>2021-10-09T09:31:31Z</time>
      </trkpt>
      <trkpt lat="42.86371" lon="2.19115">
        <ele>302</ele>
        <time>2021-10-09T09:31:32Z</time>
      </trkpt>
      <trkpt lat="42.86377" lon="2.19094">
        <ele>301.8</ele>
        <time>2021-10-09T09:31:34Z</time>
      </trkpt>
      <trkpt lat="42.86387" lon="2.19049">
        <ele>301.2</ele>
        <time>2021-10-09T09:31:38Z</time>
      </trkpt>
      <trkpt lat="42.8639" lon="2.19006">
        <ele>300.8</ele>
        <time>2021-10-09T09:31:42Z</time>
      </trkpt>
      <trkpt lat="42.86388" lon="2.18983">
        <ele>300.6</ele>
        <time>2021-10-09T09:31:44Z</time>
      </trkpt>
      <trkpt lat="42.86386" lon="2.18961">
        <ele>300.4</ele>
        <time>2021-10-09T09:31:46Z</time>
      </trkpt>
      <trkpt lat="42.86379" lon="2.18907">
        <ele>300.4</ele>
        <time>2021-10-09T09:31:51Z</time>
      </trkpt>
      <trkpt lat="42.86371" lon="2.18837">
        <ele>300.6</ele>
        <time>2021-10-09T09:31:57Z</time>
      </trkpt>
      <trkpt lat="42.86358" lon="2.18767">
        <ele>300.6</ele>
        <time>2021-10-09T09:32:03Z</time>
      </trkpt>
      <trkpt lat="42.86349" lon="2.18691">
        <ele>300.2</ele>
        <time>2021-10-09T09:32:10Z</time>
      </trkpt>
      <trkpt lat="42.8635" lon="2.1865">
        <ele>300.8</ele>
        <time>2021-10-09T09:32:14Z</time>
      </trkpt>
      <trkpt lat="42.86357" lon="2.18601">
        <ele>301</ele>
        <time>2021-10-09T09:32:19Z</time>
      </trkpt>
      <trkpt lat="42.86359" lon="2.18592">
        <ele>301</ele>
        <time>2021-10-09T09:32:20Z</time>
      </trkpt>
      <trkpt lat="42.86367" lon="2.18573">
        <ele>301.2</ele>
        <time>2021-10-09T09:32:22Z</time>
      </trkpt>
      <trkpt lat="42.86391" lon="2.18549">
        <ele>301.2</ele>
        <time>2021-10-09T09:32:26Z</time>
      </trkpt>
      <trkpt lat="42.86425" lon="2.18516">
        <ele>301.2</ele>
        <time>2021-10-09T09:32:32Z</time>
      </trkpt>
      <trkpt lat="42.86462" lon="2.18473">
        <ele>301.2</ele>
        <time>2021-10-09T09:32:39Z</time>
      </trkpt>
      <trkpt lat="42.86508" lon="2.18433">
        <ele>301.2</ele>
        <time>2021-10-09T09:32:46Z</time>
      </trkpt>
      <trkpt lat="42.86545" lon="2.18409">
        <ele>301.4</ele>
        <time>2021-10-09T09:32:51Z</time>
      </trkpt>
      <trkpt lat="42.86584" lon="2.18396">
        <ele>301.4</ele>
        <time>2021-10-09T09:32:56Z</time>
      </trkpt>
      <trkpt lat="42.86634" lon="2.18387">
        <ele>301.4</ele>
        <time>2021-10-09T09:33:02Z</time>
      </trkpt>
      <trkpt lat="42.86643" lon="2.18387">
        <ele>301.4</ele>
        <time>2021-10-09T09:33:03Z</time>
      </trkpt>
      <trkpt lat="42.86702" lon="2.18385">
        <ele>301</ele>
        <time>2021-10-09T09:33:10Z</time>
      </trkpt>
      <trkpt lat="42.86711" lon="2.18385">
        <ele>300.8</ele>
        <time>2021-10-09T09:33:11Z</time>
      </trkpt>
      <trkpt lat="42.86753" lon="2.18382">
        <ele>300.4</ele>
        <time>2021-10-09T09:33:16Z</time>
      </trkpt>
      <trkpt lat="42.86795" lon="2.18376">
        <ele>300</ele>
        <time>2021-10-09T09:33:21Z</time>
      </trkpt>
      <trkpt lat="42.86844" lon="2.18367">
        <ele>299.8</ele>
        <time>2021-10-09T09:33:27Z</time>
      </trkpt>
      <trkpt lat="42.86871" lon="2.18362">
        <ele>299.6</ele>
        <time>2021-10-09T09:33:30Z</time>
      </trkpt>
      <trkpt lat="42.86919" lon="2.18352">
        <ele>299.2</ele>
        <time>2021-10-09T09:33:36Z</time>
      </trkpt>
      <trkpt lat="42.86978" lon="2.18341">
        <ele>298.4</ele>
        <time>2021-10-09T09:33:43Z</time>
      </trkpt>
      <trkpt lat="42.86995" lon="2.18338">
        <ele>298.2</ele>
        <time>2021-10-09T09:33:45Z</time>
      </trkpt>
      <trkpt lat="42.87053" lon="2.18329">
        <ele>297.8</ele>
        <time>2021-10-09T09:33:52Z</time>
      </trkpt>
      <trkpt lat="42.87108" lon="2.18319">
        <ele>297.2</ele>
        <time>2021-10-09T09:33:59Z</time>
      </trkpt>
      <trkpt lat="42.87154" lon="2.18311">
        <ele>296.8</ele>
        <time>2021-10-09T09:34:05Z</time>
      </trkpt>
      <trkpt lat="42.87183" lon="2.18305">
        <ele>296.4</ele>
        <time>2021-10-09T09:34:09Z</time>
      </trkpt>
      <trkpt lat="42.8719" lon="2.18304">
        <ele>296.2</ele>
        <time>2021-10-09T09:34:10Z</time>
      </trkpt>
      <trkpt lat="42.87228" lon="2.18296">
        <ele>295.8</ele>
        <time>2021-10-09T09:34:15Z</time>
      </trkpt>
      <trkpt lat="42.87256" lon="2.18291">
        <ele>295</ele>
        <time>2021-10-09T09:34:19Z</time>
      </trkpt>
      <trkpt lat="42.87275" lon="2.18287">
        <ele>294.4</ele>
        <time>2021-10-09T09:34:22Z</time>
      </trkpt>
      <trkpt lat="42.87295" lon="2.18283">
        <ele>293.6</ele>
        <time>2021-10-09T09:34:25Z</time>
      </trkpt>
      <trkpt lat="42.873" lon="2.18282">
        <ele>293.4</ele>
        <time>2021-10-09T09:34:26Z</time>
      </trkpt>
      <trkpt lat="42.87317" lon="2.18278">
        <ele>292.4</ele>
        <time>2021-10-09T09:34:29Z</time>
      </trkpt>
      <trkpt lat="42.87354" lon="2.1827">
        <ele>291.2</ele>
        <time>2021-10-09T09:34:35Z</time>
      </trkpt>
      <trkpt lat="42.87359" lon="2.18269">
        <ele>291</ele>
        <time>2021-10-09T09:34:36Z</time>
      </trkpt>
      <trkpt lat="42.8737" lon="2.18267">
        <ele>290.4</ele>
        <time>2021-10-09T09:34:38Z</time>
      </trkpt>
      <trkpt lat="42.87391" lon="2.18247">
        <ele>289.6</ele>
        <time>2021-10-09T09:34:41Z</time>
      </trkpt>
      <trkpt lat="42.87391" lon="2.18241">
        <ele>289.4</ele>
        <time>2021-10-09T09:34:42Z</time>
      </trkpt>
      <trkpt lat="42.87395" lon="2.18238">
        <ele>289.2</ele>
        <time>2021-10-09T09:34:43Z</time>
      </trkpt>
      <trkpt lat="42.87407" lon="2.18225">
        <ele>288.6</ele>
        <time>2021-10-09T09:34:45Z</time>
      </trkpt>
      <trkpt lat="42.87407" lon="2.18225">
        <ele>288.4</ele>
        <time>2021-10-09T09:34:46Z</time>
      </trkpt>
      <trkpt lat="42.87405" lon="2.18211">
        <ele>288.2</ele>
        <time>2021-10-09T09:34:48Z</time>
      </trkpt>
      <trkpt lat="42.87405" lon="2.18207">
        <ele>288</ele>
        <time>2021-10-09T09:34:50Z</time>
      </trkpt>
      <trkpt lat="42.87404" lon="2.18205">
        <ele>287.8</ele>
        <time>2021-10-09T09:34:52Z</time>
      </trkpt>
      <trkpt lat="42.87405" lon="2.18211">
        <ele>287.4</ele>
        <time>2021-10-09T09:34:54Z</time>
      </trkpt>
      <trkpt lat="42.87405" lon="2.18211">
        <ele>280.2</ele>
        <time>2021-10-09T09:35:54Z</time>
      </trkpt>
      <trkpt lat="42.87405" lon="2.18211">
        <ele>280.4</ele>
        <time>2021-10-09T09:35:55Z</time>
      </trkpt>
      <trkpt lat="42.87406" lon="2.18207">
        <ele>282</ele>
        <time>2021-10-09T09:36:00Z</time>
      </trkpt>
      <trkpt lat="42.87391" lon="2.18238">
        <ele>282.2</ele>
        <time>2021-10-09T09:36:07Z</time>
      </trkpt>
      <trkpt lat="42.87391" lon="2.18238">
        <ele>282.2</ele>
        <time>2021-10-09T09:36:09Z</time>
      </trkpt>
      <trkpt lat="42.87406" lon="2.18236">
        <ele>282</ele>
        <time>2021-10-09T09:36:11Z</time>
      </trkpt>
      <trkpt lat="42.87426" lon="2.18232">
        <ele>282</ele>
        <time>2021-10-09T09:36:17Z</time>
      </trkpt>
      <trkpt lat="42.87456" lon="2.18226">
        <ele>282</ele>
        <time>2021-10-09T09:36:24Z</time>
      </trkpt>
      <trkpt lat="42.87491" lon="2.1822">
        <ele>282.2</ele>
        <time>2021-10-09T09:36:31Z</time>
      </trkpt>
      <trkpt lat="42.87521" lon="2.18214">
        <ele>282.4</ele>
        <time>2021-10-09T09:36:36Z</time>
      </trkpt>
      <trkpt lat="42.87525" lon="2.18214">
        <ele>282.4</ele>
        <time>2021-10-09T09:36:37Z</time>
      </trkpt>
      <trkpt lat="42.87525" lon="2.18214">
        <ele>282.4</ele>
        <time>2021-10-09T09:36:38Z</time>
      </trkpt>
      <trkpt lat="42.87551" lon="2.18232">
        <ele>282.6</ele>
        <time>2021-10-09T09:36:40Z</time>
      </trkpt>
      <trkpt lat="42.87553" lon="2.18232">
        <ele>282.6</ele>
        <time>2021-10-09T09:36:42Z</time>
      </trkpt>
      <trkpt lat="42.8756" lon="2.18231">
        <ele>282.6</ele>
        <time>2021-10-09T09:36:43Z</time>
      </trkpt>
      <trkpt lat="42.87586" lon="2.18229">
        <ele>282.6</ele>
        <time>2021-10-09T09:36:47Z</time>
      </trkpt>
      <trkpt lat="42.87592" lon="2.18228">
        <ele>282.6</ele>
        <time>2021-10-09T09:36:48Z</time>
      </trkpt>
      <trkpt lat="42.87636" lon="2.18234">
        <ele>282.6</ele>
        <time>2021-10-09T09:36:54Z</time>
      </trkpt>
      <trkpt lat="42.87643" lon="2.18236">
        <ele>282.4</ele>
        <time>2021-10-09T09:36:55Z</time>
      </trkpt>
      <trkpt lat="42.87665" lon="2.18249">
        <ele>282</ele>
        <time>2021-10-09T09:36:59Z</time>
      </trkpt>
      <trkpt lat="42.8768" lon="2.18258">
        <ele>282.2</ele>
        <time>2021-10-09T09:37:01Z</time>
      </trkpt>
      <trkpt lat="42.87707" lon="2.18285">
        <ele>282</ele>
        <time>2021-10-09T09:37:04Z</time>
      </trkpt>
      <trkpt lat="42.87733" lon="2.18329">
        <ele>281.4</ele>
        <time>2021-10-09T09:37:09Z</time>
      </trkpt>
      <trkpt lat="42.87742" lon="2.18348">
        <ele>281.4</ele>
        <time>2021-10-09T09:37:11Z</time>
      </trkpt>
      <trkpt lat="42.87749" lon="2.18368">
        <ele>281.2</ele>
        <time>2021-10-09T09:37:13Z</time>
      </trkpt>
      <trkpt lat="42.87757" lon="2.184">
        <ele>281.2</ele>
        <time>2021-10-09T09:37:16Z</time>
      </trkpt>
      <trkpt lat="42.87759" lon="2.1841">
        <ele>281</ele>
        <time>2021-10-09T09:37:17Z</time>
      </trkpt>
      <trkpt lat="42.87763" lon="2.18467">
        <ele>281</ele>
        <time>2021-10-09T09:37:23Z</time>
      </trkpt>
      <trkpt lat="42.87769" lon="2.18546">
        <ele>281</ele>
        <time>2021-10-09T09:37:31Z</time>
      </trkpt>
      <trkpt lat="42.87775" lon="2.18619">
        <ele>280.8</ele>
        <time>2021-10-09T09:37:38Z</time>
      </trkpt>
      <trkpt lat="42.87776" lon="2.1863">
        <ele>280.8</ele>
        <time>2021-10-09T09:37:39Z</time>
      </trkpt>
      <trkpt lat="42.87781" lon="2.18692">
        <ele>281.2</ele>
        <time>2021-10-09T09:37:45Z</time>
      </trkpt>
      <trkpt lat="42.87786" lon="2.18767">
        <ele>281.6</ele>
        <time>2021-10-09T09:37:53Z</time>
      </trkpt>
      <trkpt lat="42.87786" lon="2.18776">
        <ele>281.6</ele>
        <time>2021-10-09T09:37:54Z</time>
      </trkpt>
      <trkpt lat="42.87789" lon="2.18795">
        <ele>281.8</ele>
        <time>2021-10-09T09:37:56Z</time>
      </trkpt>
      <trkpt lat="42.87794" lon="2.18811">
        <ele>282</ele>
        <time>2021-10-09T09:37:58Z</time>
      </trkpt>
      <trkpt lat="42.87805" lon="2.18823">
        <ele>282</ele>
        <time>2021-10-09T09:38:00Z</time>
      </trkpt>
      <trkpt lat="42.87811" lon="2.18828">
        <ele>282.2</ele>
        <time>2021-10-09T09:38:01Z</time>
      </trkpt>
      <trkpt lat="42.87864" lon="2.1886">
        <ele>282.8</ele>
        <time>2021-10-09T09:38:09Z</time>
      </trkpt>
      <trkpt lat="42.87871" lon="2.18864">
        <ele>283</ele>
        <time>2021-10-09T09:38:10Z</time>
      </trkpt>
      <trkpt lat="42.87922" lon="2.18895">
        <ele>283.4</ele>
        <time>2021-10-09T09:38:17Z</time>
      </trkpt>
      <trkpt lat="42.87929" lon="2.189">
        <ele>283.4</ele>
        <time>2021-10-09T09:38:18Z</time>
      </trkpt>
      <trkpt lat="42.87977" lon="2.1893">
        <ele>283.6</ele>
        <time>2021-10-09T09:38:25Z</time>
      </trkpt>
      <trkpt lat="42.88025" lon="2.18959">
        <ele>283.8</ele>
        <time>2021-10-09T09:38:32Z</time>
      </trkpt>
      <trkpt lat="42.88081" lon="2.18993">
        <ele>284</ele>
        <time>2021-10-09T09:38:40Z</time>
      </trkpt>
      <trkpt lat="42.88095" lon="2.19002">
        <ele>284</ele>
        <time>2021-10-09T09:38:42Z</time>
      </trkpt>
      <trkpt lat="42.88144" lon="2.19031">
        <ele>284.2</ele>
        <time>2021-10-09T09:38:49Z</time>
      </trkpt>
      <trkpt lat="42.88176" lon="2.19047">
        <ele>284.4</ele>
        <time>2021-10-09T09:38:54Z</time>
      </trkpt>
      <trkpt lat="42.88201" lon="2.19049">
        <ele>284.4</ele>
        <time>2021-10-09T09:38:58Z</time>
      </trkpt>
      <trkpt lat="42.88226" lon="2.19047">
        <ele>284.4</ele>
        <time>2021-10-09T09:39:02Z</time>
      </trkpt>
      <trkpt lat="42.88284" lon="2.19043">
        <ele>283.6</ele>
        <time>2021-10-09T09:39:09Z</time>
      </trkpt>
      <trkpt lat="42.88342" lon="2.19038">
        <ele>283</ele>
        <time>2021-10-09T09:39:16Z</time>
      </trkpt>
      <trkpt lat="42.88358" lon="2.19038">
        <ele>283</ele>
        <time>2021-10-09T09:39:18Z</time>
      </trkpt>
      <trkpt lat="42.88405" lon="2.19042">
        <ele>283.2</ele>
        <time>2021-10-09T09:39:24Z</time>
      </trkpt>
      <trkpt lat="42.88412" lon="2.19045">
        <ele>283.4</ele>
        <time>2021-10-09T09:39:25Z</time>
      </trkpt>
      <trkpt lat="42.88434" lon="2.19058">
        <ele>282.8</ele>
        <time>2021-10-09T09:39:28Z</time>
      </trkpt>
      <trkpt lat="42.88486" lon="2.19095">
        <ele>283.2</ele>
        <time>2021-10-09T09:39:35Z</time>
      </trkpt>
      <trkpt lat="42.88494" lon="2.191">
        <ele>283</ele>
        <time>2021-10-09T09:39:36Z</time>
      </trkpt>
      <trkpt lat="42.8853" lon="2.19126">
        <ele>282.8</ele>
        <time>2021-10-09T09:39:41Z</time>
      </trkpt>
      <trkpt lat="42.88573" lon="2.19157">
        <ele>282.8</ele>
        <time>2021-10-09T09:39:47Z</time>
      </trkpt>
      <trkpt lat="42.88625" lon="2.19194">
        <ele>282.4</ele>
        <time>2021-10-09T09:39:54Z</time>
      </trkpt>
      <trkpt lat="42.8864" lon="2.19205">
        <ele>282.4</ele>
        <time>2021-10-09T09:39:56Z</time>
      </trkpt>
      <trkpt lat="42.88689" lon="2.19241">
        <ele>282</ele>
        <time>2021-10-09T09:40:03Z</time>
      </trkpt>
      <trkpt lat="42.88732" lon="2.19272">
        <ele>281.8</ele>
        <time>2021-10-09T09:40:09Z</time>
      </trkpt>
      <trkpt lat="42.88767" lon="2.19298">
        <ele>281.8</ele>
        <time>2021-10-09T09:40:14Z</time>
      </trkpt>
      <trkpt lat="42.88815" lon="2.19332">
        <ele>281.8</ele>
        <time>2021-10-09T09:40:21Z</time>
      </trkpt>
      <trkpt lat="42.88821" lon="2.19336">
        <ele>281.8</ele>
        <time>2021-10-09T09:40:22Z</time>
      </trkpt>
      <trkpt lat="42.88831" lon="2.19343">
        <ele>281.8</ele>
        <time>2021-10-09T09:40:24Z</time>
      </trkpt>
      <trkpt lat="42.88836" lon="2.19347">
        <ele>281.8</ele>
        <time>2021-10-09T09:40:25Z</time>
      </trkpt>
      <trkpt lat="42.88841" lon="2.1935">
        <ele>281.8</ele>
        <time>2021-10-09T09:40:26Z</time>
      </trkpt>
      <trkpt lat="42.88851" lon="2.19357">
        <ele>281.8</ele>
        <time>2021-10-09T09:40:28Z</time>
      </trkpt>
      <trkpt lat="42.8886" lon="2.19363">
        <ele>281.6</ele>
        <time>2021-10-09T09:40:30Z</time>
      </trkpt>
      <trkpt lat="42.88884" lon="2.1938">
        <ele>281.4</ele>
        <time>2021-10-09T09:40:35Z</time>
      </trkpt>
      <trkpt lat="42.88912" lon="2.194">
        <ele>281.2</ele>
        <time>2021-10-09T09:40:40Z</time>
      </trkpt>
      <trkpt lat="42.88925" lon="2.19409">
        <ele>281.2</ele>
        <time>2021-10-09T09:40:42Z</time>
      </trkpt>
      <trkpt lat="42.88937" lon="2.19418">
        <ele>281.2</ele>
        <time>2021-10-09T09:40:44Z</time>
      </trkpt>
      <trkpt lat="42.88972" lon="2.19444">
        <ele>281.2</ele>
        <time>2021-10-09T09:40:50Z</time>
      </trkpt>
      <trkpt lat="42.88999" lon="2.19463">
        <ele>281.2</ele>
        <time>2021-10-09T09:40:54Z</time>
      </trkpt>
      <trkpt lat="42.8905" lon="2.195">
        <ele>281.6</ele>
        <time>2021-10-09T09:41:01Z</time>
      </trkpt>
      <trkpt lat="42.89066" lon="2.19511">
        <ele>281.6</ele>
        <time>2021-10-09T09:41:03Z</time>
      </trkpt>
      <trkpt lat="42.89116" lon="2.1954">
        <ele>281.2</ele>
        <time>2021-10-09T09:41:09Z</time>
      </trkpt>
      <trkpt lat="42.89133" lon="2.19545">
        <ele>281</ele>
        <time>2021-10-09T09:41:11Z</time>
      </trkpt>
      <trkpt lat="42.89142" lon="2.19546">
        <ele>281</ele>
        <time>2021-10-09T09:41:12Z</time>
      </trkpt>
      <trkpt lat="42.89159" lon="2.19545">
        <ele>280.8</ele>
        <time>2021-10-09T09:41:14Z</time>
      </trkpt>
      <trkpt lat="42.89175" lon="2.19541">
        <ele>280.6</ele>
        <time>2021-10-09T09:41:16Z</time>
      </trkpt>
      <trkpt lat="42.89219" lon="2.19519">
        <ele>280.4</ele>
        <time>2021-10-09T09:41:22Z</time>
      </trkpt>
      <trkpt lat="42.89276" lon="2.1949">
        <ele>280.2</ele>
        <time>2021-10-09T09:41:30Z</time>
      </trkpt>
      <trkpt lat="42.8929" lon="2.19482">
        <ele>280.2</ele>
        <time>2021-10-09T09:41:32Z</time>
      </trkpt>
      <trkpt lat="42.89341" lon="2.19456">
        <ele>279.6</ele>
        <time>2021-10-09T09:41:39Z</time>
      </trkpt>
      <trkpt lat="42.89349" lon="2.19452">
        <ele>279.6</ele>
        <time>2021-10-09T09:41:40Z</time>
      </trkpt>
      <trkpt lat="42.89377" lon="2.19438">
        <ele>279.2</ele>
        <time>2021-10-09T09:41:44Z</time>
      </trkpt>
      <trkpt lat="42.89388" lon="2.19433">
        <ele>279</ele>
        <time>2021-10-09T09:41:46Z</time>
      </trkpt>
      <trkpt lat="42.89402" lon="2.19441">
        <ele>278.8</ele>
        <time>2021-10-09T09:41:47Z</time>
      </trkpt>
      <trkpt lat="42.89409" lon="2.19433">
        <ele>278.8</ele>
        <time>2021-10-09T09:41:48Z</time>
      </trkpt>
      <trkpt lat="42.89411" lon="2.19426">
        <ele>278.6</ele>
        <time>2021-10-09T09:41:49Z</time>
      </trkpt>
      <trkpt lat="42.89416" lon="2.19401">
        <ele>278.4</ele>
        <time>2021-10-09T09:41:51Z</time>
      </trkpt>
      <trkpt lat="42.89422" lon="2.19394">
        <ele>278.4</ele>
        <time>2021-10-09T09:41:52Z</time>
      </trkpt>
      <trkpt lat="42.89455" lon="2.19339">
        <ele>277.8</ele>
        <time>2021-10-09T09:41:59Z</time>
      </trkpt>
      <trkpt lat="42.89482" lon="2.19278">
        <ele>277.2</ele>
        <time>2021-10-09T09:42:06Z</time>
      </trkpt>
      <trkpt lat="42.8951" lon="2.19205">
        <ele>276.6</ele>
        <time>2021-10-09T09:42:14Z</time>
      </trkpt>
      <trkpt lat="42.89513" lon="2.19196">
        <ele>276.4</ele>
        <time>2021-10-09T09:42:15Z</time>
      </trkpt>
      <trkpt lat="42.89527" lon="2.19126">
        <ele>276</ele>
        <time>2021-10-09T09:42:22Z</time>
      </trkpt>
      <trkpt lat="42.89546" lon="2.1908">
        <ele>275.4</ele>
        <time>2021-10-09T09:42:27Z</time>
      </trkpt>
      <trkpt lat="42.89578" lon="2.19034">
        <ele>274.6</ele>
        <time>2021-10-09T09:42:33Z</time>
      </trkpt>
      <trkpt lat="42.89618" lon="2.18976">
        <ele>273</ele>
        <time>2021-10-09T09:42:41Z</time>
      </trkpt>
      <trkpt lat="42.89646" lon="2.18918">
        <ele>271.4</ele>
        <time>2021-10-09T09:42:48Z</time>
      </trkpt>
      <trkpt lat="42.89664" lon="2.18863">
        <ele>270.2</ele>
        <time>2021-10-09T09:42:54Z</time>
      </trkpt>
      <trkpt lat="42.89685" lon="2.18788">
        <ele>269.2</ele>
        <time>2021-10-09T09:43:02Z</time>
      </trkpt>
      <trkpt lat="42.89708" lon="2.18747">
        <ele>268.6</ele>
        <time>2021-10-09T09:43:07Z</time>
      </trkpt>
      <trkpt lat="42.89737" lon="2.18715">
        <ele>267.8</ele>
        <time>2021-10-09T09:43:12Z</time>
      </trkpt>
      <trkpt lat="42.89777" lon="2.18694">
        <ele>269.8</ele>
        <time>2021-10-09T09:43:18Z</time>
      </trkpt>
      <trkpt lat="42.89814" lon="2.18691">
        <ele>270</ele>
        <time>2021-10-09T09:43:23Z</time>
      </trkpt>
      <trkpt lat="42.89836" lon="2.18695">
        <ele>270</ele>
        <time>2021-10-09T09:43:26Z</time>
      </trkpt>
      <trkpt lat="42.89851" lon="2.18701">
        <ele>270</ele>
        <time>2021-10-09T09:43:28Z</time>
      </trkpt>
      <trkpt lat="42.89888" lon="2.1872">
        <ele>270</ele>
        <time>2021-10-09T09:43:33Z</time>
      </trkpt>
      <trkpt lat="42.89922" lon="2.18743">
        <ele>270</ele>
        <time>2021-10-09T09:43:38Z</time>
      </trkpt>
      <trkpt lat="42.8996" lon="2.18777">
        <ele>270.2</ele>
        <time>2021-10-09T09:43:44Z</time>
      </trkpt>
      <trkpt lat="42.90006" lon="2.1882">
        <ele>270.6</ele>
        <time>2021-10-09T09:43:51Z</time>
      </trkpt>
      <trkpt lat="42.90013" lon="2.18826">
        <ele>270.8</ele>
        <time>2021-10-09T09:43:52Z</time>
      </trkpt>
      <trkpt lat="42.90056" lon="2.18857">
        <ele>270.6</ele>
        <time>2021-10-09T09:43:58Z</time>
      </trkpt>
      <trkpt lat="42.901" lon="2.18879">
        <ele>270.2</ele>
        <time>2021-10-09T09:44:04Z</time>
      </trkpt>
      <trkpt lat="42.90137" lon="2.18889">
        <ele>270</ele>
        <time>2021-10-09T09:44:09Z</time>
      </trkpt>
      <trkpt lat="42.90182" lon="2.18896">
        <ele>270.2</ele>
        <time>2021-10-09T09:44:15Z</time>
      </trkpt>
      <trkpt lat="42.90238" lon="2.18903">
        <ele>270</ele>
        <time>2021-10-09T09:44:22Z</time>
      </trkpt>
      <trkpt lat="42.90276" lon="2.18916">
        <ele>270</ele>
        <time>2021-10-09T09:44:27Z</time>
      </trkpt>
      <trkpt lat="42.90313" lon="2.1894">
        <ele>269.8</ele>
        <time>2021-10-09T09:44:32Z</time>
      </trkpt>
      <trkpt lat="42.90348" lon="2.18971">
        <ele>269.6</ele>
        <time>2021-10-09T09:44:37Z</time>
      </trkpt>
      <trkpt lat="42.90374" lon="2.18996">
        <ele>269.4</ele>
        <time>2021-10-09T09:44:41Z</time>
      </trkpt>
      <trkpt lat="42.90393" lon="2.19015">
        <ele>269.2</ele>
        <time>2021-10-09T09:44:44Z</time>
      </trkpt>
      <trkpt lat="42.90435" lon="2.19055">
        <ele>268.6</ele>
        <time>2021-10-09T09:44:50Z</time>
      </trkpt>
      <trkpt lat="42.9047" lon="2.1909">
        <ele>268.4</ele>
        <time>2021-10-09T09:44:55Z</time>
      </trkpt>
      <trkpt lat="42.90521" lon="2.19139">
        <ele>268</ele>
        <time>2021-10-09T09:45:02Z</time>
      </trkpt>
      <trkpt lat="42.90525" lon="2.19143">
        <ele>267.8</ele>
        <time>2021-10-09T09:45:03Z</time>
      </trkpt>
      <trkpt lat="42.90569" lon="2.19186">
        <ele>267.4</ele>
        <time>2021-10-09T09:45:10Z</time>
      </trkpt>
      <trkpt lat="42.90587" lon="2.19204">
        <ele>267.4</ele>
        <time>2021-10-09T09:45:13Z</time>
      </trkpt>
      <trkpt lat="42.90637" lon="2.19253">
        <ele>266.8</ele>
        <time>2021-10-09T09:45:21Z</time>
      </trkpt>
      <trkpt lat="42.90663" lon="2.19277">
        <ele>266.4</ele>
        <time>2021-10-09T09:45:25Z</time>
      </trkpt>
      <trkpt lat="42.907" lon="2.19313">
        <ele>266.6</ele>
        <time>2021-10-09T09:45:31Z</time>
      </trkpt>
      <trkpt lat="42.90725" lon="2.19337">
        <ele>266.6</ele>
        <time>2021-10-09T09:45:35Z</time>
      </trkpt>
      <trkpt lat="42.90763" lon="2.19378">
        <ele>266.4</ele>
        <time>2021-10-09T09:45:41Z</time>
      </trkpt>
      <trkpt lat="42.90803" lon="2.19432">
        <ele>267</ele>
        <time>2021-10-09T09:45:48Z</time>
      </trkpt>
      <trkpt lat="42.90839" lon="2.19489">
        <ele>266.8</ele>
        <time>2021-10-09T09:45:55Z</time>
      </trkpt>
      <trkpt lat="42.90849" lon="2.19505">
        <ele>266.8</ele>
        <time>2021-10-09T09:45:57Z</time>
      </trkpt>
      <trkpt lat="42.90883" lon="2.19566">
        <ele>267.2</ele>
        <time>2021-10-09T09:46:04Z</time>
      </trkpt>
      <trkpt lat="42.90887" lon="2.19575">
        <ele>267</ele>
        <time>2021-10-09T09:46:05Z</time>
      </trkpt>
      <trkpt lat="42.9092" lon="2.19633">
        <ele>267.2</ele>
        <time>2021-10-09T09:46:12Z</time>
      </trkpt>
      <trkpt lat="42.90937" lon="2.19662">
        <ele>267.4</ele>
        <time>2021-10-09T09:46:16Z</time>
      </trkpt>
      <trkpt lat="42.90942" lon="2.1967">
        <ele>267.6</ele>
        <time>2021-10-09T09:46:17Z</time>
      </trkpt>
      <trkpt lat="42.9096" lon="2.19701">
        <ele>267.6</ele>
        <time>2021-10-09T09:46:21Z</time>
      </trkpt>
      <trkpt lat="42.90965" lon="2.19707">
        <ele>267.6</ele>
        <time>2021-10-09T09:46:22Z</time>
      </trkpt>
      <trkpt lat="42.90999" lon="2.19743">
        <ele>267.8</ele>
        <time>2021-10-09T09:46:28Z</time>
      </trkpt>
      <trkpt lat="42.91031" lon="2.1976">
        <ele>268</ele>
        <time>2021-10-09T09:46:33Z</time>
      </trkpt>
      <trkpt lat="42.91051" lon="2.19767">
        <ele>268</ele>
        <time>2021-10-09T09:46:36Z</time>
      </trkpt>
      <trkpt lat="42.91066" lon="2.19769">
        <ele>268</ele>
        <time>2021-10-09T09:46:38Z</time>
      </trkpt>
      <trkpt lat="42.91114" lon="2.1977">
        <ele>268</ele>
        <time>2021-10-09T09:46:44Z</time>
      </trkpt>
      <trkpt lat="42.91146" lon="2.1978">
        <ele>268</ele>
        <time>2021-10-09T09:46:48Z</time>
      </trkpt>
      <trkpt lat="42.91182" lon="2.198">
        <ele>268</ele>
        <time>2021-10-09T09:46:53Z</time>
      </trkpt>
      <trkpt lat="42.91202" lon="2.19813">
        <ele>267.8</ele>
        <time>2021-10-09T09:46:56Z</time>
      </trkpt>
      <trkpt lat="42.91237" lon="2.19834">
        <ele>267.6</ele>
        <time>2021-10-09T09:47:01Z</time>
      </trkpt>
      <trkpt lat="42.91281" lon="2.19861">
        <ele>267.4</ele>
        <time>2021-10-09T09:47:07Z</time>
      </trkpt>
      <trkpt lat="42.91308" lon="2.19891">
        <ele>267.2</ele>
        <time>2021-10-09T09:47:11Z</time>
      </trkpt>
      <trkpt lat="42.91319" lon="2.1991">
        <ele>266.8</ele>
        <time>2021-10-09T09:47:13Z</time>
      </trkpt>
      <trkpt lat="42.91329" lon="2.19932">
        <ele>266.4</ele>
        <time>2021-10-09T09:47:15Z</time>
      </trkpt>
      <trkpt lat="42.91338" lon="2.19993">
        <ele>265.6</ele>
        <time>2021-10-09T09:47:20Z</time>
      </trkpt>
      <trkpt lat="42.91342" lon="2.20065">
        <ele>265</ele>
        <time>2021-10-09T09:47:26Z</time>
      </trkpt>
      <trkpt lat="42.91343" lon="2.20145">
        <ele>264.2</ele>
        <time>2021-10-09T09:47:33Z</time>
      </trkpt>
      <trkpt lat="42.91344" lon="2.20178">
        <ele>264</ele>
        <time>2021-10-09T09:47:36Z</time>
      </trkpt>
      <trkpt lat="42.91345" lon="2.20245">
        <ele>263.2</ele>
        <time>2021-10-09T09:47:42Z</time>
      </trkpt>
      <trkpt lat="42.91346" lon="2.20324">
        <ele>262.4</ele>
        <time>2021-10-09T09:47:49Z</time>
      </trkpt>
      <trkpt lat="42.91347" lon="2.20401">
        <ele>261.4</ele>
        <time>2021-10-09T09:47:56Z</time>
      </trkpt>
      <trkpt lat="42.91349" lon="2.20464">
        <ele>260.6</ele>
        <time>2021-10-09T09:48:02Z</time>
      </trkpt>
      <trkpt lat="42.9135" lon="2.20544">
        <ele>260.2</ele>
        <time>2021-10-09T09:48:10Z</time>
      </trkpt>
      <trkpt lat="42.91349" lon="2.20573">
        <ele>260.2</ele>
        <time>2021-10-09T09:48:13Z</time>
      </trkpt>
      <trkpt lat="42.91349" lon="2.20592">
        <ele>260.2</ele>
        <time>2021-10-09T09:48:15Z</time>
      </trkpt>
      <trkpt lat="42.91352" lon="2.2063">
        <ele>260.2</ele>
        <time>2021-10-09T09:48:19Z</time>
      </trkpt>
      <trkpt lat="42.91354" lon="2.2065">
        <ele>260.2</ele>
        <time>2021-10-09T09:48:21Z</time>
      </trkpt>
      <trkpt lat="42.91361" lon="2.207">
        <ele>260</ele>
        <time>2021-10-09T09:48:26Z</time>
      </trkpt>
      <trkpt lat="42.9137" lon="2.20741">
        <ele>259.6</ele>
        <time>2021-10-09T09:48:30Z</time>
      </trkpt>
      <trkpt lat="42.91381" lon="2.20771">
        <ele>260.6</ele>
        <time>2021-10-09T09:48:33Z</time>
      </trkpt>
      <trkpt lat="42.91392" lon="2.20787">
        <ele>260.4</ele>
        <time>2021-10-09T09:48:35Z</time>
      </trkpt>
      <trkpt lat="42.91432" lon="2.20824">
        <ele>260.6</ele>
        <time>2021-10-09T09:48:41Z</time>
      </trkpt>
      <trkpt lat="42.91474" lon="2.20853">
        <ele>260.8</ele>
        <time>2021-10-09T09:48:47Z</time>
      </trkpt>
      <trkpt lat="42.9149" lon="2.20859">
        <ele>260.8</ele>
        <time>2021-10-09T09:48:49Z</time>
      </trkpt>
      <trkpt lat="42.91505" lon="2.20865">
        <ele>260.8</ele>
        <time>2021-10-09T09:48:51Z</time>
      </trkpt>
      <trkpt lat="42.91545" lon="2.20876">
        <ele>261</ele>
        <time>2021-10-09T09:48:56Z</time>
      </trkpt>
      <trkpt lat="42.91562" lon="2.2088">
        <ele>260.8</ele>
        <time>2021-10-09T09:48:58Z</time>
      </trkpt>
      <trkpt lat="42.91582" lon="2.20882">
        <ele>260.8</ele>
        <time>2021-10-09T09:49:00Z</time>
      </trkpt>
      <trkpt lat="42.9163" lon="2.20876">
        <ele>261.2</ele>
        <time>2021-10-09T09:49:05Z</time>
      </trkpt>
      <trkpt lat="42.91649" lon="2.20874">
        <ele>260.6</ele>
        <time>2021-10-09T09:49:07Z</time>
      </trkpt>
      <trkpt lat="42.91669" lon="2.20877">
        <ele>260.6</ele>
        <time>2021-10-09T09:49:09Z</time>
      </trkpt>
      <trkpt lat="42.91715" lon="2.20897">
        <ele>260.4</ele>
        <time>2021-10-09T09:49:14Z</time>
      </trkpt>
      <trkpt lat="42.91774" lon="2.20924">
        <ele>259.6</ele>
        <time>2021-10-09T09:49:21Z</time>
      </trkpt>
      <trkpt lat="42.91829" lon="2.20955">
        <ele>259.8</ele>
        <time>2021-10-09T09:49:28Z</time>
      </trkpt>
      <trkpt lat="42.9187" lon="2.20997">
        <ele>259.8</ele>
        <time>2021-10-09T09:49:34Z</time>
      </trkpt>
      <trkpt lat="42.91897" lon="2.21028">
        <ele>259.4</ele>
        <time>2021-10-09T09:49:38Z</time>
      </trkpt>
      <trkpt lat="42.91938" lon="2.21078">
        <ele>259</ele>
        <time>2021-10-09T09:49:44Z</time>
      </trkpt>
      <trkpt lat="42.91951" lon="2.21094">
        <ele>258.8</ele>
        <time>2021-10-09T09:49:46Z</time>
      </trkpt>
      <trkpt lat="42.91995" lon="2.21149">
        <ele>258</ele>
        <time>2021-10-09T09:49:53Z</time>
      </trkpt>
      <trkpt lat="42.9203" lon="2.21196">
        <ele>257.8</ele>
        <time>2021-10-09T09:49:59Z</time>
      </trkpt>
      <trkpt lat="42.92056" lon="2.21242">
        <ele>257.2</ele>
        <time>2021-10-09T09:50:04Z</time>
      </trkpt>
      <trkpt lat="42.92076" lon="2.21304">
        <ele>256.8</ele>
        <time>2021-10-09T09:50:10Z</time>
      </trkpt>
      <trkpt lat="42.92092" lon="2.21376">
        <ele>256</ele>
        <time>2021-10-09T09:50:17Z</time>
      </trkpt>
      <trkpt lat="42.92094" lon="2.21386">
        <ele>255.8</ele>
        <time>2021-10-09T09:50:18Z</time>
      </trkpt>
      <trkpt lat="42.92109" lon="2.21456">
        <ele>255</ele>
        <time>2021-10-09T09:50:25Z</time>
      </trkpt>
      <trkpt lat="42.92124" lon="2.21529">
        <ele>254.4</ele>
        <time>2021-10-09T09:50:32Z</time>
      </trkpt>
      <trkpt lat="42.92137" lon="2.21603">
        <ele>254.2</ele>
        <time>2021-10-09T09:50:39Z</time>
      </trkpt>
      <trkpt lat="42.92143" lon="2.21624">
        <ele>254</ele>
        <time>2021-10-09T09:50:41Z</time>
      </trkpt>
      <trkpt lat="42.9216" lon="2.21672">
        <ele>253.6</ele>
        <time>2021-10-09T09:50:46Z</time>
      </trkpt>
      <trkpt lat="42.92166" lon="2.21681">
        <ele>253.6</ele>
        <time>2021-10-09T09:50:47Z</time>
      </trkpt>
      <trkpt lat="42.92183" lon="2.21703">
        <ele>253.4</ele>
        <time>2021-10-09T09:50:50Z</time>
      </trkpt>
      <trkpt lat="42.92195" lon="2.21716">
        <ele>253.4</ele>
        <time>2021-10-09T09:50:52Z</time>
      </trkpt>
      <trkpt lat="42.92208" lon="2.21725">
        <ele>253.4</ele>
        <time>2021-10-09T09:50:54Z</time>
      </trkpt>
      <trkpt lat="42.9224" lon="2.21745">
        <ele>253.2</ele>
        <time>2021-10-09T09:50:59Z</time>
      </trkpt>
      <trkpt lat="42.92284" lon="2.21772">
        <ele>253.4</ele>
        <time>2021-10-09T09:51:05Z</time>
      </trkpt>
      <trkpt lat="42.92321" lon="2.21795">
        <ele>253.8</ele>
        <time>2021-10-09T09:51:10Z</time>
      </trkpt>
      <trkpt lat="42.92336" lon="2.21804">
        <ele>254</ele>
        <time>2021-10-09T09:51:12Z</time>
      </trkpt>
      <trkpt lat="42.92356" lon="2.21817">
        <ele>254</ele>
        <time>2021-10-09T09:51:15Z</time>
      </trkpt>
      <trkpt lat="42.92403" lon="2.21864">
        <ele>254.4</ele>
        <time>2021-10-09T09:51:22Z</time>
      </trkpt>
      <trkpt lat="42.92437" lon="2.21902">
        <ele>254.4</ele>
        <time>2021-10-09T09:51:27Z</time>
      </trkpt>
      <trkpt lat="42.92444" lon="2.21909">
        <ele>254.4</ele>
        <time>2021-10-09T09:51:28Z</time>
      </trkpt>
      <trkpt lat="42.92467" lon="2.21929">
        <ele>254.2</ele>
        <time>2021-10-09T09:51:31Z</time>
      </trkpt>
      <trkpt lat="42.92508" lon="2.21953">
        <ele>254</ele>
        <time>2021-10-09T09:51:36Z</time>
      </trkpt>
      <trkpt lat="42.92546" lon="2.21973">
        <ele>253.6</ele>
        <time>2021-10-09T09:51:41Z</time>
      </trkpt>
      <trkpt lat="42.9256" lon="2.2198">
        <ele>253.2</ele>
        <time>2021-10-09T09:51:43Z</time>
      </trkpt>
      <trkpt lat="42.92574" lon="2.21985">
        <ele>253.2</ele>
        <time>2021-10-09T09:51:45Z</time>
      </trkpt>
      <trkpt lat="42.92616" lon="2.21996">
        <ele>253.2</ele>
        <time>2021-10-09T09:51:51Z</time>
      </trkpt>
      <trkpt lat="42.92657" lon="2.21992">
        <ele>253.2</ele>
        <time>2021-10-09T09:51:57Z</time>
      </trkpt>
      <trkpt lat="42.92706" lon="2.21975">
        <ele>253</ele>
        <time>2021-10-09T09:52:04Z</time>
      </trkpt>
      <trkpt lat="42.92765" lon="2.21955">
        <ele>252.4</ele>
        <time>2021-10-09T09:52:12Z</time>
      </trkpt>
      <trkpt lat="42.9281" lon="2.21951">
        <ele>252</ele>
        <time>2021-10-09T09:52:18Z</time>
      </trkpt>
      <trkpt lat="42.92836" lon="2.21957">
        <ele>252.2</ele>
        <time>2021-10-09T09:52:22Z</time>
      </trkpt>
      <trkpt lat="42.9284" lon="2.21959">
        <ele>252.2</ele>
        <time>2021-10-09T09:52:23Z</time>
      </trkpt>
      <trkpt lat="42.92876" lon="2.21981">
        <ele>253.2</ele>
        <time>2021-10-09T09:52:30Z</time>
      </trkpt>
      <trkpt lat="42.92881" lon="2.21985">
        <ele>253.2</ele>
        <time>2021-10-09T09:52:31Z</time>
      </trkpt>
      <trkpt lat="42.92903" lon="2.22009">
        <ele>253.8</ele>
        <time>2021-10-09T09:52:36Z</time>
      </trkpt>
      <trkpt lat="42.92924" lon="2.22041">
        <ele>254.4</ele>
        <time>2021-10-09T09:52:42Z</time>
      </trkpt>
      <trkpt lat="42.9293" lon="2.22052">
        <ele>254.6</ele>
        <time>2021-10-09T09:52:44Z</time>
      </trkpt>
      <trkpt lat="42.9294" lon="2.22076">
        <ele>255</ele>
        <time>2021-10-09T09:52:48Z</time>
      </trkpt>
      <trkpt lat="42.92945" lon="2.22089">
        <ele>255.2</ele>
        <time>2021-10-09T09:52:50Z</time>
      </trkpt>
      <trkpt lat="42.92952" lon="2.22109">
        <ele>255.6</ele>
        <time>2021-10-09T09:52:53Z</time>
      </trkpt>
      <trkpt lat="42.92964" lon="2.22154">
        <ele>256.2</ele>
        <time>2021-10-09T09:52:59Z</time>
      </trkpt>
      <trkpt lat="42.92974" lon="2.22215">
        <ele>256.8</ele>
        <time>2021-10-09T09:53:06Z</time>
      </trkpt>
      <trkpt lat="42.9298" lon="2.22293">
        <ele>257.2</ele>
        <time>2021-10-09T09:53:14Z</time>
      </trkpt>
      <trkpt lat="42.92983" lon="2.22367">
        <ele>257.4</ele>
        <time>2021-10-09T09:53:21Z</time>
      </trkpt>
      <trkpt lat="42.92984" lon="2.22378">
        <ele>257.4</ele>
        <time>2021-10-09T09:53:22Z</time>
      </trkpt>
      <trkpt lat="42.92985" lon="2.22465">
        <ele>257.2</ele>
        <time>2021-10-09T09:53:29Z</time>
      </trkpt>
      <trkpt lat="42.92985" lon="2.22478">
        <ele>257.2</ele>
        <time>2021-10-09T09:53:30Z</time>
      </trkpt>
      <trkpt lat="42.92992" lon="2.22531">
        <ele>256.6</ele>
        <time>2021-10-09T09:53:34Z</time>
      </trkpt>
      <trkpt lat="42.92995" lon="2.22543">
        <ele>256.8</ele>
        <time>2021-10-09T09:53:35Z</time>
      </trkpt>
      <trkpt lat="42.93002" lon="2.22567">
        <ele>256.6</ele>
        <time>2021-10-09T09:53:37Z</time>
      </trkpt>
      <trkpt lat="42.9303" lon="2.2263">
        <ele>256</ele>
        <time>2021-10-09T09:53:43Z</time>
      </trkpt>
      <trkpt lat="42.93035" lon="2.2264">
        <ele>256</ele>
        <time>2021-10-09T09:53:44Z</time>
      </trkpt>
      <trkpt lat="42.9306" lon="2.22694">
        <ele>255.4</ele>
        <time>2021-10-09T09:53:49Z</time>
      </trkpt>
      <trkpt lat="42.9308" lon="2.22738">
        <ele>254.8</ele>
        <time>2021-10-09T09:53:53Z</time>
      </trkpt>
      <trkpt lat="42.93111" lon="2.22808">
        <ele>253.8</ele>
        <time>2021-10-09T09:53:59Z</time>
      </trkpt>
      <trkpt lat="42.93144" lon="2.22881">
        <ele>252.6</ele>
        <time>2021-10-09T09:54:05Z</time>
      </trkpt>
      <trkpt lat="42.93177" lon="2.22955">
        <ele>251.2</ele>
        <time>2021-10-09T09:54:11Z</time>
      </trkpt>
      <trkpt lat="42.93188" lon="2.2298">
        <ele>250.8</ele>
        <time>2021-10-09T09:54:13Z</time>
      </trkpt>
      <trkpt lat="42.93221" lon="2.23052">
        <ele>249.2</ele>
        <time>2021-10-09T09:54:19Z</time>
      </trkpt>
      <trkpt lat="42.93226" lon="2.23064">
        <ele>249</ele>
        <time>2021-10-09T09:54:20Z</time>
      </trkpt>
      <trkpt lat="42.93257" lon="2.23134">
        <ele>247.4</ele>
        <time>2021-10-09T09:54:26Z</time>
      </trkpt>
      <trkpt lat="42.93268" lon="2.23158">
        <ele>247</ele>
        <time>2021-10-09T09:54:28Z</time>
      </trkpt>
      <trkpt lat="42.93302" lon="2.23231">
        <ele>245.8</ele>
        <time>2021-10-09T09:54:34Z</time>
      </trkpt>
      <trkpt lat="42.93307" lon="2.23244">
        <ele>245.6</ele>
        <time>2021-10-09T09:54:35Z</time>
      </trkpt>
      <trkpt lat="42.9334" lon="2.23317">
        <ele>244.2</ele>
        <time>2021-10-09T09:54:41Z</time>
      </trkpt>
      <trkpt lat="42.93357" lon="2.23352">
        <ele>244</ele>
        <time>2021-10-09T09:54:44Z</time>
      </trkpt>
      <trkpt lat="42.93388" lon="2.23403">
        <ele>243.2</ele>
        <time>2021-10-09T09:54:49Z</time>
      </trkpt>
      <trkpt lat="42.93434" lon="2.23447">
        <ele>242.6</ele>
        <time>2021-10-09T09:54:55Z</time>
      </trkpt>
      <trkpt lat="42.93485" lon="2.23474">
        <ele>242</ele>
        <time>2021-10-09T09:55:01Z</time>
      </trkpt>
      <trkpt lat="42.93545" lon="2.23498">
        <ele>241.4</ele>
        <time>2021-10-09T09:55:08Z</time>
      </trkpt>
      <trkpt lat="42.93598" lon="2.23516">
        <ele>241</ele>
        <time>2021-10-09T09:55:14Z</time>
      </trkpt>
      <trkpt lat="42.93624" lon="2.23526">
        <ele>240.8</ele>
        <time>2021-10-09T09:55:17Z</time>
      </trkpt>
      <trkpt lat="42.9364" lon="2.23539">
        <ele>240.6</ele>
        <time>2021-10-09T09:55:19Z</time>
      </trkpt>
      <trkpt lat="42.93647" lon="2.23545">
        <ele>240.6</ele>
        <time>2021-10-09T09:55:20Z</time>
      </trkpt>
      <trkpt lat="42.93652" lon="2.23554">
        <ele>240.4</ele>
        <time>2021-10-09T09:55:21Z</time>
      </trkpt>
      <trkpt lat="42.93661" lon="2.23562">
        <ele>240.2</ele>
        <time>2021-10-09T09:55:22Z</time>
      </trkpt>
      <trkpt lat="42.9368" lon="2.2356">
        <ele>240</ele>
        <time>2021-10-09T09:55:24Z</time>
      </trkpt>
      <trkpt lat="42.93689" lon="2.23563">
        <ele>239.8</ele>
        <time>2021-10-09T09:55:25Z</time>
      </trkpt>
      <trkpt lat="42.9374" lon="2.23593">
        <ele>239</ele>
        <time>2021-10-09T09:55:31Z</time>
      </trkpt>
      <trkpt lat="42.93794" lon="2.23631">
        <ele>238.6</ele>
        <time>2021-10-09T09:55:38Z</time>
      </trkpt>
      <trkpt lat="42.9381" lon="2.23641">
        <ele>238.4</ele>
        <time>2021-10-09T09:55:40Z</time>
      </trkpt>
      <trkpt lat="42.93817" lon="2.23648">
        <ele>238.4</ele>
        <time>2021-10-09T09:55:41Z</time>
      </trkpt>
      <trkpt lat="42.93837" lon="2.23674">
        <ele>238</ele>
        <time>2021-10-09T09:55:44Z</time>
      </trkpt>
      <trkpt lat="42.93857" lon="2.23716">
        <ele>237.6</ele>
        <time>2021-10-09T09:55:48Z</time>
      </trkpt>
      <trkpt lat="42.93872" lon="2.23785">
        <ele>237</ele>
        <time>2021-10-09T09:55:54Z</time>
      </trkpt>
      <trkpt lat="42.93888" lon="2.23865">
        <ele>236.2</ele>
        <time>2021-10-09T09:56:01Z</time>
      </trkpt>
      <trkpt lat="42.93903" lon="2.23943">
        <ele>236</ele>
        <time>2021-10-09T09:56:08Z</time>
      </trkpt>
      <trkpt lat="42.93906" lon="2.23954">
        <ele>235.8</ele>
        <time>2021-10-09T09:56:09Z</time>
      </trkpt>
      <trkpt lat="42.93918" lon="2.24021">
        <ele>235.2</ele>
        <time>2021-10-09T09:56:15Z</time>
      </trkpt>
      <trkpt lat="42.9393" lon="2.24084">
        <ele>234.6</ele>
        <time>2021-10-09T09:56:21Z</time>
      </trkpt>
      <trkpt lat="42.93943" lon="2.24155">
        <ele>234</ele>
        <time>2021-10-09T09:56:28Z</time>
      </trkpt>
      <trkpt lat="42.93951" lon="2.24218">
        <ele>233.2</ele>
        <time>2021-10-09T09:56:34Z</time>
      </trkpt>
      <trkpt lat="42.93949" lon="2.24273">
        <ele>232.6</ele>
        <time>2021-10-09T09:56:39Z</time>
      </trkpt>
      <trkpt lat="42.9394" lon="2.24347">
        <ele>231.8</ele>
        <time>2021-10-09T09:56:46Z</time>
      </trkpt>
      <trkpt lat="42.93932" lon="2.24409">
        <ele>231.4</ele>
        <time>2021-10-09T09:56:52Z</time>
      </trkpt>
      <trkpt lat="42.93925" lon="2.24483">
        <ele>231.2</ele>
        <time>2021-10-09T09:56:59Z</time>
      </trkpt>
      <trkpt lat="42.93927" lon="2.24526">
        <ele>231</ele>
        <time>2021-10-09T09:57:03Z</time>
      </trkpt>
      <trkpt lat="42.93929" lon="2.24536">
        <ele>231</ele>
        <time>2021-10-09T09:57:04Z</time>
      </trkpt>
      <trkpt lat="42.93942" lon="2.24608">
        <ele>230.6</ele>
        <time>2021-10-09T09:57:11Z</time>
      </trkpt>
      <trkpt lat="42.93955" lon="2.2468">
        <ele>230.2</ele>
        <time>2021-10-09T09:57:18Z</time>
      </trkpt>
      <trkpt lat="42.93968" lon="2.24754">
        <ele>230.2</ele>
        <time>2021-10-09T09:57:25Z</time>
      </trkpt>
      <trkpt lat="42.9397" lon="2.24765">
        <ele>230</ele>
        <time>2021-10-09T09:57:26Z</time>
      </trkpt>
      <trkpt lat="42.93984" lon="2.24838">
        <ele>229.6</ele>
        <time>2021-10-09T09:57:33Z</time>
      </trkpt>
      <trkpt lat="42.93998" lon="2.24912">
        <ele>229.2</ele>
        <time>2021-10-09T09:57:40Z</time>
      </trkpt>
      <trkpt lat="42.94012" lon="2.24987">
        <ele>229</ele>
        <time>2021-10-09T09:57:47Z</time>
      </trkpt>
      <trkpt lat="42.94023" lon="2.2505">
        <ele>228.8</ele>
        <time>2021-10-09T09:57:53Z</time>
      </trkpt>
      <trkpt lat="42.94037" lon="2.25122">
        <ele>228.8</ele>
        <time>2021-10-09T09:58:00Z</time>
      </trkpt>
      <trkpt lat="42.94039" lon="2.25133">
        <ele>228.8</ele>
        <time>2021-10-09T09:58:01Z</time>
      </trkpt>
      <trkpt lat="42.94049" lon="2.25186">
        <ele>228.6</ele>
        <time>2021-10-09T09:58:06Z</time>
      </trkpt>
      <trkpt lat="42.94054" lon="2.25207">
        <ele>228.6</ele>
        <time>2021-10-09T09:58:08Z</time>
      </trkpt>
      <trkpt lat="42.94081" lon="2.25262">
        <ele>228.2</ele>
        <time>2021-10-09T09:58:14Z</time>
      </trkpt>
      <trkpt lat="42.94109" lon="2.25302">
        <ele>227.8</ele>
        <time>2021-10-09T09:58:19Z</time>
      </trkpt>
      <trkpt lat="42.94128" lon="2.25326">
        <ele>227.8</ele>
        <time>2021-10-09T09:58:22Z</time>
      </trkpt>
      <trkpt lat="42.9414" lon="2.25342">
        <ele>227.8</ele>
        <time>2021-10-09T09:58:24Z</time>
      </trkpt>
      <trkpt lat="42.94183" lon="2.25399">
        <ele>227.8</ele>
        <time>2021-10-09T09:58:31Z</time>
      </trkpt>
      <trkpt lat="42.94212" lon="2.25436">
        <ele>227.6</ele>
        <time>2021-10-09T09:58:36Z</time>
      </trkpt>
      <trkpt lat="42.94242" lon="2.25475">
        <ele>227.4</ele>
        <time>2021-10-09T09:58:42Z</time>
      </trkpt>
      <trkpt lat="42.94267" lon="2.25507">
        <ele>227.6</ele>
        <time>2021-10-09T09:58:48Z</time>
      </trkpt>
      <trkpt lat="42.9428" lon="2.25523">
        <ele>227.4</ele>
        <time>2021-10-09T09:58:52Z</time>
      </trkpt>
      <trkpt lat="42.94286" lon="2.25531">
        <ele>227.4</ele>
        <time>2021-10-09T09:58:57Z</time>
      </trkpt>
      <trkpt lat="42.94295" lon="2.25542">
        <ele>227.2</ele>
        <time>2021-10-09T09:59:01Z</time>
      </trkpt>
      <trkpt lat="42.94316" lon="2.25569">
        <ele>227</ele>
        <time>2021-10-09T09:59:06Z</time>
      </trkpt>
      <trkpt lat="42.94341" lon="2.25601">
        <ele>227.2</ele>
        <time>2021-10-09T09:59:11Z</time>
      </trkpt>
      <trkpt lat="42.94345" lon="2.25607">
        <ele>227.2</ele>
        <time>2021-10-09T09:59:12Z</time>
      </trkpt>
      <trkpt lat="42.94364" lon="2.25621">
        <ele>227.2</ele>
        <time>2021-10-09T09:59:15Z</time>
      </trkpt>
      <trkpt lat="42.9439" lon="2.2563">
        <ele>227.4</ele>
        <time>2021-10-09T09:59:19Z</time>
      </trkpt>
      <trkpt lat="42.94396" lon="2.25633">
        <ele>227.4</ele>
        <time>2021-10-09T09:59:20Z</time>
      </trkpt>
      <trkpt lat="42.94409" lon="2.25634">
        <ele>227.4</ele>
        <time>2021-10-09T09:59:22Z</time>
      </trkpt>
      <trkpt lat="42.9443" lon="2.2563">
        <ele>227.6</ele>
        <time>2021-10-09T09:59:25Z</time>
      </trkpt>
      <trkpt lat="42.94463" lon="2.25613">
        <ele>227.6</ele>
        <time>2021-10-09T09:59:30Z</time>
      </trkpt>
      <trkpt lat="42.94497" lon="2.25583">
        <ele>227.6</ele>
        <time>2021-10-09T09:59:36Z</time>
      </trkpt>
      <trkpt lat="42.94526" lon="2.25556">
        <ele>227.6</ele>
        <time>2021-10-09T09:59:41Z</time>
      </trkpt>
      <trkpt lat="42.94569" lon="2.25513">
        <ele>227.6</ele>
        <time>2021-10-09T09:59:48Z</time>
      </trkpt>
      <trkpt lat="42.94615" lon="2.25467">
        <ele>227.2</ele>
        <time>2021-10-09T09:59:55Z</time>
      </trkpt>
      <trkpt lat="42.94629" lon="2.25454">
        <ele>227</ele>
        <time>2021-10-09T09:59:57Z</time>
      </trkpt>
      <trkpt lat="42.94677" lon="2.25412">
        <ele>227</ele>
        <time>2021-10-09T10:00:04Z</time>
      </trkpt>
      <trkpt lat="42.94691" lon="2.254">
        <ele>226.8</ele>
        <time>2021-10-09T10:00:06Z</time>
      </trkpt>
      <trkpt lat="42.94738" lon="2.25376">
        <ele>226.6</ele>
        <time>2021-10-09T10:00:12Z</time>
      </trkpt>
      <trkpt lat="42.94798" lon="2.25362">
        <ele>226.4</ele>
        <time>2021-10-09T10:00:19Z</time>
      </trkpt>
      <trkpt lat="42.94858" lon="2.2536">
        <ele>226.4</ele>
        <time>2021-10-09T10:00:26Z</time>
      </trkpt>
      <trkpt lat="42.94866" lon="2.2536">
        <ele>226.4</ele>
        <time>2021-10-09T10:00:27Z</time>
      </trkpt>
      <trkpt lat="42.94923" lon="2.25364">
        <ele>226.4</ele>
        <time>2021-10-09T10:00:34Z</time>
      </trkpt>
      <trkpt lat="42.94979" lon="2.25364">
        <ele>226.6</ele>
        <time>2021-10-09T10:00:41Z</time>
      </trkpt>
      <trkpt lat="42.95036" lon="2.25365">
        <ele>226.8</ele>
        <time>2021-10-09T10:00:48Z</time>
      </trkpt>
      <trkpt lat="42.95051" lon="2.25365">
        <ele>227</ele>
        <time>2021-10-09T10:00:50Z</time>
      </trkpt>
      <trkpt lat="42.95109" lon="2.25364">
        <ele>227.2</ele>
        <time>2021-10-09T10:00:57Z</time>
      </trkpt>
      <trkpt lat="42.95118" lon="2.25364">
        <ele>227</ele>
        <time>2021-10-09T10:00:58Z</time>
      </trkpt>
      <trkpt lat="42.95178" lon="2.25363">
        <ele>226.6</ele>
        <time>2021-10-09T10:01:05Z</time>
      </trkpt>
      <trkpt lat="42.95203" lon="2.25362">
        <ele>226.4</ele>
        <time>2021-10-09T10:01:08Z</time>
      </trkpt>
      <trkpt lat="42.95254" lon="2.25367">
        <ele>226.2</ele>
        <time>2021-10-09T10:01:14Z</time>
      </trkpt>
      <trkpt lat="42.95297" lon="2.25387">
        <ele>226</ele>
        <time>2021-10-09T10:01:20Z</time>
      </trkpt>
      <trkpt lat="42.95343" lon="2.25424">
        <ele>225.6</ele>
        <time>2021-10-09T10:01:27Z</time>
      </trkpt>
      <trkpt lat="42.95392" lon="2.25474">
        <ele>225</ele>
        <time>2021-10-09T10:01:35Z</time>
      </trkpt>
      <trkpt lat="42.95398" lon="2.2548">
        <ele>224.8</ele>
        <time>2021-10-09T10:01:36Z</time>
      </trkpt>
      <trkpt lat="42.95442" lon="2.25525">
        <ele>224.4</ele>
        <time>2021-10-09T10:01:43Z</time>
      </trkpt>
      <trkpt lat="42.95448" lon="2.25532">
        <ele>224.2</ele>
        <time>2021-10-09T10:01:44Z</time>
      </trkpt>
      <trkpt lat="42.95489" lon="2.25583">
        <ele>223.6</ele>
        <time>2021-10-09T10:01:51Z</time>
      </trkpt>
      <trkpt lat="42.95514" lon="2.25634">
        <ele>223</ele>
        <time>2021-10-09T10:01:57Z</time>
      </trkpt>
      <trkpt lat="42.95525" lon="2.25659">
        <ele>222.8</ele>
        <time>2021-10-09T10:02:00Z</time>
      </trkpt>
      <trkpt lat="42.95535" lon="2.25683">
        <ele>222.8</ele>
        <time>2021-10-09T10:02:03Z</time>
      </trkpt>
      <trkpt lat="42.95561" lon="2.25749">
        <ele>222.4</ele>
        <time>2021-10-09T10:02:11Z</time>
      </trkpt>
      <trkpt lat="42.95564" lon="2.25757">
        <ele>222.6</ele>
        <time>2021-10-09T10:02:12Z</time>
      </trkpt>
      <trkpt lat="42.95587" lon="2.25814">
        <ele>222.2</ele>
        <time>2021-10-09T10:02:19Z</time>
      </trkpt>
      <trkpt lat="42.95613" lon="2.25883">
        <ele>222</ele>
        <time>2021-10-09T10:02:27Z</time>
      </trkpt>
      <trkpt lat="42.9563" lon="2.25924">
        <ele>222.2</ele>
        <time>2021-10-09T10:02:32Z</time>
      </trkpt>
      <trkpt lat="42.95657" lon="2.25971">
        <ele>222.4</ele>
        <time>2021-10-09T10:02:38Z</time>
      </trkpt>
      <trkpt lat="42.95691" lon="2.26004">
        <ele>222.4</ele>
        <time>2021-10-09T10:02:44Z</time>
      </trkpt>
      <trkpt lat="42.95722" lon="2.26021">
        <ele>222.6</ele>
        <time>2021-10-09T10:02:49Z</time>
      </trkpt>
      <trkpt lat="42.95756" lon="2.26028">
        <ele>222.8</ele>
        <time>2021-10-09T10:02:54Z</time>
      </trkpt>
      <trkpt lat="42.95763" lon="2.26029">
        <ele>222.8</ele>
        <time>2021-10-09T10:02:55Z</time>
      </trkpt>
      <trkpt lat="42.9579" lon="2.26024">
        <ele>223</ele>
        <time>2021-10-09T10:02:59Z</time>
      </trkpt>
      <trkpt lat="42.95823" lon="2.26009">
        <ele>223</ele>
        <time>2021-10-09T10:03:04Z</time>
      </trkpt>
      <trkpt lat="42.95858" lon="2.25977">
        <ele>223.2</ele>
        <time>2021-10-09T10:03:10Z</time>
      </trkpt>
      <trkpt lat="42.95885" lon="2.25934">
        <ele>223.4</ele>
        <time>2021-10-09T10:03:16Z</time>
      </trkpt>
      <trkpt lat="42.95902" lon="2.25885">
        <ele>223.4</ele>
        <time>2021-10-09T10:03:22Z</time>
      </trkpt>
      <trkpt lat="42.95919" lon="2.25832">
        <ele>223.6</ele>
        <time>2021-10-09T10:03:28Z</time>
      </trkpt>
      <trkpt lat="42.9594" lon="2.25769">
        <ele>223.8</ele>
        <time>2021-10-09T10:03:35Z</time>
      </trkpt>
      <trkpt lat="42.95971" lon="2.25713">
        <ele>224</ele>
        <time>2021-10-09T10:03:42Z</time>
      </trkpt>
      <trkpt lat="42.96005" lon="2.25677">
        <ele>224</ele>
        <time>2021-10-09T10:03:48Z</time>
      </trkpt>
      <trkpt lat="42.96053" lon="2.2565">
        <ele>224</ele>
        <time>2021-10-09T10:03:55Z</time>
      </trkpt>
      <trkpt lat="42.96097" lon="2.25641">
        <ele>224.2</ele>
        <time>2021-10-09T10:04:01Z</time>
      </trkpt>
      <trkpt lat="42.96149" lon="2.25649">
        <ele>224.2</ele>
        <time>2021-10-09T10:04:08Z</time>
      </trkpt>
      <trkpt lat="42.9621" lon="2.25663">
        <ele>224.2</ele>
        <time>2021-10-09T10:04:16Z</time>
      </trkpt>
      <trkpt lat="42.96217" lon="2.25665">
        <ele>224.2</ele>
        <time>2021-10-09T10:04:17Z</time>
      </trkpt>
      <trkpt lat="42.96269" lon="2.25677">
        <ele>224.2</ele>
        <time>2021-10-09T10:04:24Z</time>
      </trkpt>
      <trkpt lat="42.96322" lon="2.2569">
        <ele>224.2</ele>
        <time>2021-10-09T10:04:31Z</time>
      </trkpt>
      <trkpt lat="42.96361" lon="2.25704">
        <ele>224.2</ele>
        <time>2021-10-09T10:04:36Z</time>
      </trkpt>
      <trkpt lat="42.96397" lon="2.25734">
        <ele>224</ele>
        <time>2021-10-09T10:04:41Z</time>
      </trkpt>
      <trkpt lat="42.96437" lon="2.25788">
        <ele>223.8</ele>
        <time>2021-10-09T10:04:48Z</time>
      </trkpt>
      <trkpt lat="42.96456" lon="2.25808">
        <ele>223.6</ele>
        <time>2021-10-09T10:04:51Z</time>
      </trkpt>
      <trkpt lat="42.96475" lon="2.25825">
        <ele>223.4</ele>
        <time>2021-10-09T10:04:54Z</time>
      </trkpt>
      <trkpt lat="42.96518" lon="2.2585">
        <ele>223.2</ele>
        <time>2021-10-09T10:05:00Z</time>
      </trkpt>
      <trkpt lat="42.96565" lon="2.25878">
        <ele>223</ele>
        <time>2021-10-09T10:05:07Z</time>
      </trkpt>
      <trkpt lat="42.96613" lon="2.25906">
        <ele>222.8</ele>
        <time>2021-10-09T10:05:14Z</time>
      </trkpt>
      <trkpt lat="42.96661" lon="2.25938">
        <ele>222.2</ele>
        <time>2021-10-09T10:05:21Z</time>
      </trkpt>
      <trkpt lat="42.96673" lon="2.2595">
        <ele>222.2</ele>
        <time>2021-10-09T10:05:23Z</time>
      </trkpt>
      <trkpt lat="42.96684" lon="2.25965">
        <ele>222</ele>
        <time>2021-10-09T10:05:25Z</time>
      </trkpt>
      <trkpt lat="42.96709" lon="2.26017">
        <ele>221.8</ele>
        <time>2021-10-09T10:05:31Z</time>
      </trkpt>
      <trkpt lat="42.96731" lon="2.26057">
        <ele>221.8</ele>
        <time>2021-10-09T10:05:36Z</time>
      </trkpt>
      <trkpt lat="42.96756" lon="2.26077">
        <ele>221.8</ele>
        <time>2021-10-09T10:05:40Z</time>
      </trkpt>
      <trkpt lat="42.9677" lon="2.26082">
        <ele>221.8</ele>
        <time>2021-10-09T10:05:42Z</time>
      </trkpt>
      <trkpt lat="42.96785" lon="2.26082">
        <ele>221.8</ele>
        <time>2021-10-09T10:05:44Z</time>
      </trkpt>
      <trkpt lat="42.96822" lon="2.26066">
        <ele>221.6</ele>
        <time>2021-10-09T10:05:49Z</time>
      </trkpt>
      <trkpt lat="42.9684" lon="2.26048">
        <ele>221.4</ele>
        <time>2021-10-09T10:05:52Z</time>
      </trkpt>
      <trkpt lat="42.96849" lon="2.26033">
        <ele>221.4</ele>
        <time>2021-10-09T10:05:54Z</time>
      </trkpt>
      <trkpt lat="42.96885" lon="2.25982">
        <ele>221.2</ele>
        <time>2021-10-09T10:06:01Z</time>
      </trkpt>
      <trkpt lat="42.96917" lon="2.25958">
        <ele>221.2</ele>
        <time>2021-10-09T10:06:06Z</time>
      </trkpt>
      <trkpt lat="42.96959" lon="2.25941">
        <ele>220.8</ele>
        <time>2021-10-09T10:06:12Z</time>
      </trkpt>
      <trkpt lat="42.96966" lon="2.25939">
        <ele>220.8</ele>
        <time>2021-10-09T10:06:13Z</time>
      </trkpt>
      <trkpt lat="42.96987" lon="2.25938">
        <ele>220.6</ele>
        <time>2021-10-09T10:06:16Z</time>
      </trkpt>
      <trkpt lat="42.97009" lon="2.25944">
        <ele>220.4</ele>
        <time>2021-10-09T10:06:19Z</time>
      </trkpt>
      <trkpt lat="42.97022" lon="2.25951">
        <ele>220.4</ele>
        <time>2021-10-09T10:06:21Z</time>
      </trkpt>
      <trkpt lat="42.97052" lon="2.25981">
        <ele>220.4</ele>
        <time>2021-10-09T10:06:26Z</time>
      </trkpt>
      <trkpt lat="42.97073" lon="2.26008">
        <ele>220.6</ele>
        <time>2021-10-09T10:06:30Z</time>
      </trkpt>
      <trkpt lat="42.97084" lon="2.26022">
        <ele>220.2</ele>
        <time>2021-10-09T10:06:32Z</time>
      </trkpt>
      <trkpt lat="42.97116" lon="2.2605">
        <ele>220.8</ele>
        <time>2021-10-09T10:06:37Z</time>
      </trkpt>
      <trkpt lat="42.97152" lon="2.26066">
        <ele>221</ele>
        <time>2021-10-09T10:06:42Z</time>
      </trkpt>
      <trkpt lat="42.9719" lon="2.26071">
        <ele>221.2</ele>
        <time>2021-10-09T10:06:47Z</time>
      </trkpt>
      <trkpt lat="42.97243" lon="2.26061">
        <ele>221</ele>
        <time>2021-10-09T10:06:54Z</time>
      </trkpt>
      <trkpt lat="42.97291" lon="2.26054">
        <ele>220.8</ele>
        <time>2021-10-09T10:07:00Z</time>
      </trkpt>
      <trkpt lat="42.97331" lon="2.26061">
        <ele>220.6</ele>
        <time>2021-10-09T10:07:05Z</time>
      </trkpt>
      <trkpt lat="42.97385" lon="2.26078">
        <ele>220.4</ele>
        <time>2021-10-09T10:07:12Z</time>
      </trkpt>
      <trkpt lat="42.97433" lon="2.26095">
        <ele>220</ele>
        <time>2021-10-09T10:07:18Z</time>
      </trkpt>
      <trkpt lat="42.97448" lon="2.26103">
        <ele>219.8</ele>
        <time>2021-10-09T10:07:20Z</time>
      </trkpt>
      <trkpt lat="42.9747" lon="2.2612">
        <ele>219.8</ele>
        <time>2021-10-09T10:07:23Z</time>
      </trkpt>
      <trkpt lat="42.97506" lon="2.26165">
        <ele>219.2</ele>
        <time>2021-10-09T10:07:29Z</time>
      </trkpt>
      <trkpt lat="42.97544" lon="2.26221">
        <ele>218.8</ele>
        <time>2021-10-09T10:07:36Z</time>
      </trkpt>
      <trkpt lat="42.97554" lon="2.26237">
        <ele>218.8</ele>
        <time>2021-10-09T10:07:38Z</time>
      </trkpt>
      <trkpt lat="42.97582" lon="2.26272">
        <ele>219</ele>
        <time>2021-10-09T10:07:43Z</time>
      </trkpt>
      <trkpt lat="42.97616" lon="2.263">
        <ele>219.2</ele>
        <time>2021-10-09T10:07:48Z</time>
      </trkpt>
      <trkpt lat="42.97623" lon="2.26305">
        <ele>219.2</ele>
        <time>2021-10-09T10:07:49Z</time>
      </trkpt>
      <trkpt lat="42.97646" lon="2.26313">
        <ele>219</ele>
        <time>2021-10-09T10:07:52Z</time>
      </trkpt>
      <trkpt lat="42.97705" lon="2.26325">
        <ele>218.2</ele>
        <time>2021-10-09T10:07:59Z</time>
      </trkpt>
      <trkpt lat="42.97766" lon="2.26338">
        <ele>217.6</ele>
        <time>2021-10-09T10:08:06Z</time>
      </trkpt>
      <trkpt lat="42.97774" lon="2.2634">
        <ele>217.6</ele>
        <time>2021-10-09T10:08:07Z</time>
      </trkpt>
      <trkpt lat="42.97823" lon="2.26351">
        <ele>216.6</ele>
        <time>2021-10-09T10:08:13Z</time>
      </trkpt>
      <trkpt lat="42.9788" lon="2.26366">
        <ele>215.8</ele>
        <time>2021-10-09T10:08:20Z</time>
      </trkpt>
      <trkpt lat="42.97918" lon="2.26385">
        <ele>215.2</ele>
        <time>2021-10-09T10:08:25Z</time>
      </trkpt>
      <trkpt lat="42.97924" lon="2.2639">
        <ele>215.2</ele>
        <time>2021-10-09T10:08:26Z</time>
      </trkpt>
      <trkpt lat="42.97957" lon="2.2642">
        <ele>214.6</ele>
        <time>2021-10-09T10:08:31Z</time>
      </trkpt>
      <trkpt lat="42.97986" lon="2.26449">
        <ele>214.4</ele>
        <time>2021-10-09T10:08:36Z</time>
      </trkpt>
      <trkpt lat="42.98028" lon="2.26491">
        <ele>214.4</ele>
        <time>2021-10-09T10:08:43Z</time>
      </trkpt>
      <trkpt lat="42.98057" lon="2.26515">
        <ele>214.6</ele>
        <time>2021-10-09T10:08:49Z</time>
      </trkpt>
      <trkpt lat="42.98106" lon="2.26539">
        <ele>214.4</ele>
        <time>2021-10-09T10:08:55Z</time>
      </trkpt>
      <trkpt lat="42.98142" lon="2.2654">
        <ele>214.4</ele>
        <time>2021-10-09T10:09:00Z</time>
      </trkpt>
      <trkpt lat="42.98156" lon="2.26536">
        <ele>214.4</ele>
        <time>2021-10-09T10:09:02Z</time>
      </trkpt>
      <trkpt lat="42.9817" lon="2.26531">
        <ele>214.2</ele>
        <time>2021-10-09T10:09:05Z</time>
      </trkpt>
      <trkpt lat="42.98226" lon="2.26498">
        <ele>214.2</ele>
        <time>2021-10-09T10:09:13Z</time>
      </trkpt>
      <trkpt lat="42.98278" lon="2.26463">
        <ele>214</ele>
        <time>2021-10-09T10:09:21Z</time>
      </trkpt>
      <trkpt lat="42.98332" lon="2.26427">
        <ele>213.6</ele>
        <time>2021-10-09T10:09:29Z</time>
      </trkpt>
      <trkpt lat="42.98339" lon="2.26422">
        <ele>213.6</ele>
        <time>2021-10-09T10:09:30Z</time>
      </trkpt>
      <trkpt lat="42.98388" lon="2.26381">
        <ele>213.2</ele>
        <time>2021-10-09T10:09:37Z</time>
      </trkpt>
      <trkpt lat="42.98395" lon="2.26375">
        <ele>213.2</ele>
        <time>2021-10-09T10:09:38Z</time>
      </trkpt>
      <trkpt lat="42.98449" lon="2.26332">
        <ele>212.6</ele>
        <time>2021-10-09T10:09:45Z</time>
      </trkpt>
      <trkpt lat="42.98465" lon="2.2632">
        <ele>212.4</ele>
        <time>2021-10-09T10:09:47Z</time>
      </trkpt>
      <trkpt lat="42.98515" lon="2.26288">
        <ele>212</ele>
        <time>2021-10-09T10:09:53Z</time>
      </trkpt>
      <trkpt lat="42.98532" lon="2.26278">
        <ele>211.8</ele>
        <time>2021-10-09T10:09:55Z</time>
      </trkpt>
      <trkpt lat="42.98588" lon="2.26246">
        <ele>211</ele>
        <time>2021-10-09T10:10:02Z</time>
      </trkpt>
      <trkpt lat="42.98597" lon="2.26244">
        <ele>211</ele>
        <time>2021-10-09T10:10:03Z</time>
      </trkpt>
      <trkpt lat="42.98605" lon="2.26242">
        <ele>210.8</ele>
        <time>2021-10-09T10:10:04Z</time>
      </trkpt>
      <trkpt lat="42.98649" lon="2.26238">
        <ele>210.4</ele>
        <time>2021-10-09T10:10:09Z</time>
      </trkpt>
      <trkpt lat="42.98707" lon="2.26245">
        <ele>210</ele>
        <time>2021-10-09T10:10:16Z</time>
      </trkpt>
      <trkpt lat="42.98715" lon="2.26246">
        <ele>210</ele>
        <time>2021-10-09T10:10:17Z</time>
      </trkpt>
      <trkpt lat="42.98774" lon="2.26255">
        <ele>209.4</ele>
        <time>2021-10-09T10:10:24Z</time>
      </trkpt>
      <trkpt lat="42.988" lon="2.26258">
        <ele>209.2</ele>
        <time>2021-10-09T10:10:27Z</time>
      </trkpt>
      <trkpt lat="42.98841" lon="2.26258">
        <ele>209.2</ele>
        <time>2021-10-09T10:10:32Z</time>
      </trkpt>
      <trkpt lat="42.98865" lon="2.26253">
        <ele>209</ele>
        <time>2021-10-09T10:10:35Z</time>
      </trkpt>
      <trkpt lat="42.9888" lon="2.26245">
        <ele>209</ele>
        <time>2021-10-09T10:10:37Z</time>
      </trkpt>
      <trkpt lat="42.98914" lon="2.26219">
        <ele>208.8</ele>
        <time>2021-10-09T10:10:42Z</time>
      </trkpt>
      <trkpt lat="42.98942" lon="2.26184">
        <ele>208.6</ele>
        <time>2021-10-09T10:10:47Z</time>
      </trkpt>
      <trkpt lat="42.98964" lon="2.26141">
        <ele>208.4</ele>
        <time>2021-10-09T10:10:52Z</time>
      </trkpt>
      <trkpt lat="42.98972" lon="2.26122">
        <ele>208.4</ele>
        <time>2021-10-09T10:10:53Z</time>
      </trkpt>
      <trkpt lat="42.98999" lon="2.26055">
        <ele>208.4</ele>
        <time>2021-10-09T10:11:00Z</time>
      </trkpt>
      <trkpt lat="42.99003" lon="2.26045">
        <ele>208.4</ele>
        <time>2021-10-09T10:11:01Z</time>
      </trkpt>
      <trkpt lat="42.99027" lon="2.25999">
        <ele>208.4</ele>
        <time>2021-10-09T10:11:06Z</time>
      </trkpt>
      <trkpt lat="42.99058" lon="2.25963">
        <ele>208.2</ele>
        <time>2021-10-09T10:11:11Z</time>
      </trkpt>
      <trkpt lat="42.99096" lon="2.25925">
        <ele>207.8</ele>
        <time>2021-10-09T10:11:17Z</time>
      </trkpt>
      <trkpt lat="42.99134" lon="2.25884">
        <ele>207</ele>
        <time>2021-10-09T10:11:23Z</time>
      </trkpt>
      <trkpt lat="42.9917" lon="2.25846">
        <ele>206.6</ele>
        <time>2021-10-09T10:11:29Z</time>
      </trkpt>
      <trkpt lat="42.99218" lon="2.25794">
        <ele>206.2</ele>
        <time>2021-10-09T10:11:37Z</time>
      </trkpt>
      <trkpt lat="42.99265" lon="2.25744">
        <ele>205.4</ele>
        <time>2021-10-09T10:11:45Z</time>
      </trkpt>
      <trkpt lat="42.99271" lon="2.25737">
        <ele>205.4</ele>
        <time>2021-10-09T10:11:46Z</time>
      </trkpt>
      <trkpt lat="42.99316" lon="2.25684">
        <ele>204.4</ele>
        <time>2021-10-09T10:11:54Z</time>
      </trkpt>
      <trkpt lat="42.99352" lon="2.25627">
        <ele>204</ele>
        <time>2021-10-09T10:12:01Z</time>
      </trkpt>
      <trkpt lat="42.99384" lon="2.25566">
        <ele>203.8</ele>
        <time>2021-10-09T10:12:08Z</time>
      </trkpt>
      <trkpt lat="42.99402" lon="2.25531">
        <ele>203.8</ele>
        <time>2021-10-09T10:12:12Z</time>
      </trkpt>
      <trkpt lat="42.99434" lon="2.2547">
        <ele>203.6</ele>
        <time>2021-10-09T10:12:19Z</time>
      </trkpt>
      <trkpt lat="42.99444" lon="2.25453">
        <ele>203.4</ele>
        <time>2021-10-09T10:12:21Z</time>
      </trkpt>
      <trkpt lat="42.99481" lon="2.25396">
        <ele>203.4</ele>
        <time>2021-10-09T10:12:28Z</time>
      </trkpt>
      <trkpt lat="42.99519" lon="2.25356">
        <ele>203.2</ele>
        <time>2021-10-09T10:12:34Z</time>
      </trkpt>
      <trkpt lat="42.99569" lon="2.25322">
        <ele>203.2</ele>
        <time>2021-10-09T10:12:41Z</time>
      </trkpt>
      <trkpt lat="42.99611" lon="2.25298">
        <ele>203.4</ele>
        <time>2021-10-09T10:12:47Z</time>
      </trkpt>
      <trkpt lat="42.99657" lon="2.2528">
        <ele>203.6</ele>
        <time>2021-10-09T10:12:53Z</time>
      </trkpt>
      <trkpt lat="42.99709" lon="2.25261">
        <ele>203.6</ele>
        <time>2021-10-09T10:13:00Z</time>
      </trkpt>
      <trkpt lat="42.99758" lon="2.25241">
        <ele>203.2</ele>
        <time>2021-10-09T10:13:06Z</time>
      </trkpt>
      <trkpt lat="42.99796" lon="2.25217">
        <ele>203.2</ele>
        <time>2021-10-09T10:13:11Z</time>
      </trkpt>
      <trkpt lat="42.9983" lon="2.25183">
        <ele>203.2</ele>
        <time>2021-10-09T10:13:16Z</time>
      </trkpt>
      <trkpt lat="42.99866" lon="2.25135">
        <ele>203.2</ele>
        <time>2021-10-09T10:13:22Z</time>
      </trkpt>
      <trkpt lat="42.99895" lon="2.25099">
        <ele>202.8</ele>
        <time>2021-10-09T10:13:27Z</time>
      </trkpt>
      <trkpt lat="42.99908" lon="2.25084">
        <ele>202.6</ele>
        <time>2021-10-09T10:13:29Z</time>
      </trkpt>
      <trkpt lat="42.99922" lon="2.2507">
        <ele>202.4</ele>
        <time>2021-10-09T10:13:31Z</time>
      </trkpt>
      <trkpt lat="42.99966" lon="2.25034">
        <ele>201.2</ele>
        <time>2021-10-09T10:13:37Z</time>
      </trkpt>
      <trkpt lat="42.99996" lon="2.25011">
        <ele>200.6</ele>
        <time>2021-10-09T10:13:41Z</time>
      </trkpt>
      <trkpt lat="43.0004" lon="2.24981">
        <ele>200.2</ele>
        <time>2021-10-09T10:13:46Z</time>
      </trkpt>
      <trkpt lat="43.00099" lon="2.24951">
        <ele>199.8</ele>
        <time>2021-10-09T10:13:52Z</time>
      </trkpt>
      <trkpt lat="43.00118" lon="2.24941">
        <ele>199.6</ele>
        <time>2021-10-09T10:13:54Z</time>
      </trkpt>
      <trkpt lat="43.00155" lon="2.2492">
        <ele>199.2</ele>
        <time>2021-10-09T10:13:58Z</time>
      </trkpt>
      <trkpt lat="43.00173" lon="2.24906">
        <ele>199</ele>
        <time>2021-10-09T10:14:00Z</time>
      </trkpt>
      <trkpt lat="43.00221" lon="2.24862">
        <ele>198.4</ele>
        <time>2021-10-09T10:14:06Z</time>
      </trkpt>
      <trkpt lat="43.00239" lon="2.24855">
        <ele>198.2</ele>
        <time>2021-10-09T10:14:08Z</time>
      </trkpt>
      <trkpt lat="43.00257" lon="2.24851">
        <ele>197.8</ele>
        <time>2021-10-09T10:14:10Z</time>
      </trkpt>
      <trkpt lat="43.00313" lon="2.24848">
        <ele>197</ele>
        <time>2021-10-09T10:14:16Z</time>
      </trkpt>
      <trkpt lat="43.00323" lon="2.24849">
        <ele>196.8</ele>
        <time>2021-10-09T10:14:17Z</time>
      </trkpt>
      <trkpt lat="43.00361" lon="2.24856">
        <ele>196.6</ele>
        <time>2021-10-09T10:14:21Z</time>
      </trkpt>
      <trkpt lat="43.00402" lon="2.2488">
        <ele>195.8</ele>
        <time>2021-10-09T10:14:26Z</time>
      </trkpt>
      <trkpt lat="43.00459" lon="2.24914">
        <ele>195.6</ele>
        <time>2021-10-09T10:14:33Z</time>
      </trkpt>
      <trkpt lat="43.00508" lon="2.24934">
        <ele>195.2</ele>
        <time>2021-10-09T10:14:39Z</time>
      </trkpt>
      <trkpt lat="43.00516" lon="2.24936">
        <ele>195</ele>
        <time>2021-10-09T10:14:40Z</time>
      </trkpt>
      <trkpt lat="43.00534" lon="2.24934">
        <ele>194.8</ele>
        <time>2021-10-09T10:14:42Z</time>
      </trkpt>
      <trkpt lat="43.00542" lon="2.24931">
        <ele>194.8</ele>
        <time>2021-10-09T10:14:43Z</time>
      </trkpt>
      <trkpt lat="43.00551" lon="2.24927">
        <ele>194.6</ele>
        <time>2021-10-09T10:14:44Z</time>
      </trkpt>
      <trkpt lat="43.00566" lon="2.24916">
        <ele>194.4</ele>
        <time>2021-10-09T10:14:46Z</time>
      </trkpt>
      <trkpt lat="43.00573" lon="2.24908">
        <ele>194.2</ele>
        <time>2021-10-09T10:14:47Z</time>
      </trkpt>
      <trkpt lat="43.00611" lon="2.24854">
        <ele>193.6</ele>
        <time>2021-10-09T10:14:53Z</time>
      </trkpt>
      <trkpt lat="43.00641" lon="2.24813">
        <ele>193.2</ele>
        <time>2021-10-09T10:14:58Z</time>
      </trkpt>
      <trkpt lat="43.00655" lon="2.24799">
        <ele>193</ele>
        <time>2021-10-09T10:15:00Z</time>
      </trkpt>
      <trkpt lat="43.00669" lon="2.24787">
        <ele>193</ele>
        <time>2021-10-09T10:15:02Z</time>
      </trkpt>
      <trkpt lat="43.00676" lon="2.24782">
        <ele>193</ele>
        <time>2021-10-09T10:15:03Z</time>
      </trkpt>
      <trkpt lat="43.00684" lon="2.24777">
        <ele>193</ele>
        <time>2021-10-09T10:15:04Z</time>
      </trkpt>
      <trkpt lat="43.00701" lon="2.24771">
        <ele>193</ele>
        <time>2021-10-09T10:15:06Z</time>
      </trkpt>
      <trkpt lat="43.0071" lon="2.24771">
        <ele>193.2</ele>
        <time>2021-10-09T10:15:07Z</time>
      </trkpt>
      <trkpt lat="43.00719" lon="2.24772">
        <ele>193.2</ele>
        <time>2021-10-09T10:15:08Z</time>
      </trkpt>
      <trkpt lat="43.00743" lon="2.24781">
        <ele>192.2</ele>
        <time>2021-10-09T10:15:11Z</time>
      </trkpt>
      <trkpt lat="43.00777" lon="2.24808">
        <ele>194</ele>
        <time>2021-10-09T10:15:16Z</time>
      </trkpt>
      <trkpt lat="43.00827" lon="2.24848">
        <ele>194</ele>
        <time>2021-10-09T10:15:23Z</time>
      </trkpt>
      <trkpt lat="43.00835" lon="2.24853">
        <ele>194</ele>
        <time>2021-10-09T10:15:24Z</time>
      </trkpt>
      <trkpt lat="43.0088" lon="2.24877">
        <ele>194.4</ele>
        <time>2021-10-09T10:15:30Z</time>
      </trkpt>
      <trkpt lat="43.00917" lon="2.24886">
        <ele>194.6</ele>
        <time>2021-10-09T10:15:35Z</time>
      </trkpt>
      <trkpt lat="43.00952" lon="2.24886">
        <ele>195</ele>
        <time>2021-10-09T10:15:40Z</time>
      </trkpt>
      <trkpt lat="43.00994" lon="2.24883">
        <ele>195.6</ele>
        <time>2021-10-09T10:15:46Z</time>
      </trkpt>
      <trkpt lat="43.01038" lon="2.24886">
        <ele>196</ele>
        <time>2021-10-09T10:15:52Z</time>
      </trkpt>
      <trkpt lat="43.01082" lon="2.24906">
        <ele>196</ele>
        <time>2021-10-09T10:15:58Z</time>
      </trkpt>
      <trkpt lat="43.01126" lon="2.24931">
        <ele>196.4</ele>
        <time>2021-10-09T10:16:04Z</time>
      </trkpt>
      <trkpt lat="43.01162" lon="2.24963">
        <ele>196.2</ele>
        <time>2021-10-09T10:16:09Z</time>
      </trkpt>
      <trkpt lat="43.01191" lon="2.2501">
        <ele>196.2</ele>
        <time>2021-10-09T10:16:14Z</time>
      </trkpt>
      <trkpt lat="43.01201" lon="2.2503">
        <ele>196.2</ele>
        <time>2021-10-09T10:16:16Z</time>
      </trkpt>
      <trkpt lat="43.01208" lon="2.25053">
        <ele>196.2</ele>
        <time>2021-10-09T10:16:18Z</time>
      </trkpt>
      <trkpt lat="43.01212" lon="2.251">
        <ele>196.4</ele>
        <time>2021-10-09T10:16:22Z</time>
      </trkpt>
      <trkpt lat="43.01213" lon="2.2518">
        <ele>196.6</ele>
        <time>2021-10-09T10:16:29Z</time>
      </trkpt>
      <trkpt lat="43.01224" lon="2.25241">
        <ele>197</ele>
        <time>2021-10-09T10:16:35Z</time>
      </trkpt>
      <trkpt lat="43.01236" lon="2.25307">
        <ele>197.6</ele>
        <time>2021-10-09T10:16:42Z</time>
      </trkpt>
      <trkpt lat="43.01256" lon="2.25384">
        <ele>197.8</ele>
        <time>2021-10-09T10:16:50Z</time>
      </trkpt>
      <trkpt lat="43.01258" lon="2.25394">
        <ele>197.8</ele>
        <time>2021-10-09T10:16:51Z</time>
      </trkpt>
      <trkpt lat="43.01281" lon="2.2546">
        <ele>198</ele>
        <time>2021-10-09T10:16:58Z</time>
      </trkpt>
      <trkpt lat="43.01304" lon="2.25517">
        <ele>198</ele>
        <time>2021-10-09T10:17:04Z</time>
      </trkpt>
      <trkpt lat="43.01337" lon="2.25581">
        <ele>198.2</ele>
        <time>2021-10-09T10:17:11Z</time>
      </trkpt>
      <trkpt lat="43.01349" lon="2.25596">
        <ele>198.4</ele>
        <time>2021-10-09T10:17:13Z</time>
      </trkpt>
      <trkpt lat="43.01362" lon="2.25608">
        <ele>198.4</ele>
        <time>2021-10-09T10:17:15Z</time>
      </trkpt>
      <trkpt lat="43.01369" lon="2.25614">
        <ele>198.6</ele>
        <time>2021-10-09T10:17:16Z</time>
      </trkpt>
      <trkpt lat="43.01382" lon="2.25624">
        <ele>198.6</ele>
        <time>2021-10-09T10:17:18Z</time>
      </trkpt>
      <trkpt lat="43.01389" lon="2.25628">
        <ele>198.6</ele>
        <time>2021-10-09T10:17:19Z</time>
      </trkpt>
      <trkpt lat="43.01397" lon="2.25633">
        <ele>198.6</ele>
        <time>2021-10-09T10:17:20Z</time>
      </trkpt>
      <trkpt lat="43.01421" lon="2.25641">
        <ele>198.8</ele>
        <time>2021-10-09T10:17:23Z</time>
      </trkpt>
      <trkpt lat="43.01472" lon="2.25648">
        <ele>198.6</ele>
        <time>2021-10-09T10:17:29Z</time>
      </trkpt>
      <trkpt lat="43.01524" lon="2.25637">
        <ele>198</ele>
        <time>2021-10-09T10:17:35Z</time>
      </trkpt>
      <trkpt lat="43.01572" lon="2.25616">
        <ele>197.6</ele>
        <time>2021-10-09T10:17:41Z</time>
      </trkpt>
      <trkpt lat="43.01615" lon="2.25587">
        <ele>197</ele>
        <time>2021-10-09T10:17:47Z</time>
      </trkpt>
      <trkpt lat="43.01663" lon="2.25551">
        <ele>196</ele>
        <time>2021-10-09T10:17:54Z</time>
      </trkpt>
      <trkpt lat="43.017" lon="2.25514">
        <ele>195.4</ele>
        <time>2021-10-09T10:18:00Z</time>
      </trkpt>
      <trkpt lat="43.0173" lon="2.25466">
        <ele>195</ele>
        <time>2021-10-09T10:18:06Z</time>
      </trkpt>
      <trkpt lat="43.01752" lon="2.25408">
        <ele>194.6</ele>
        <time>2021-10-09T10:18:12Z</time>
      </trkpt>
      <trkpt lat="43.01771" lon="2.25346">
        <ele>194.4</ele>
        <time>2021-10-09T10:18:18Z</time>
      </trkpt>
      <trkpt lat="43.01794" lon="2.25273">
        <ele>194.4</ele>
        <time>2021-10-09T10:18:25Z</time>
      </trkpt>
      <trkpt lat="43.01823" lon="2.25219">
        <ele>194.4</ele>
        <time>2021-10-09T10:18:31Z</time>
      </trkpt>
      <trkpt lat="43.01857" lon="2.25185">
        <ele>194.4</ele>
        <time>2021-10-09T10:18:36Z</time>
      </trkpt>
      <trkpt lat="43.01886" lon="2.25167">
        <ele>194.2</ele>
        <time>2021-10-09T10:18:41Z</time>
      </trkpt>
      <trkpt lat="43.01934" lon="2.25158">
        <ele>193.8</ele>
        <time>2021-10-09T10:18:46Z</time>
      </trkpt>
      <trkpt lat="43.01972" lon="2.25162">
        <ele>194</ele>
        <time>2021-10-09T10:18:51Z</time>
      </trkpt>
      <trkpt lat="43.02024" lon="2.25171">
        <ele>194.4</ele>
        <time>2021-10-09T10:18:58Z</time>
      </trkpt>
      <trkpt lat="43.02086" lon="2.25181">
        <ele>194.4</ele>
        <time>2021-10-09T10:19:06Z</time>
      </trkpt>
      <trkpt lat="43.02094" lon="2.25182">
        <ele>194.4</ele>
        <time>2021-10-09T10:19:07Z</time>
      </trkpt>
      <trkpt lat="43.02149" lon="2.25184">
        <ele>193.8</ele>
        <time>2021-10-09T10:19:14Z</time>
      </trkpt>
      <trkpt lat="43.02204" lon="2.25182">
        <ele>193.2</ele>
        <time>2021-10-09T10:19:21Z</time>
      </trkpt>
      <trkpt lat="43.0225" lon="2.25178">
        <ele>193.4</ele>
        <time>2021-10-09T10:19:27Z</time>
      </trkpt>
      <trkpt lat="43.02296" lon="2.25161">
        <ele>193.2</ele>
        <time>2021-10-09T10:19:33Z</time>
      </trkpt>
      <trkpt lat="43.02343" lon="2.2514">
        <ele>192.8</ele>
        <time>2021-10-09T10:19:39Z</time>
      </trkpt>
      <trkpt lat="43.0239" lon="2.25115">
        <ele>192.4</ele>
        <time>2021-10-09T10:19:45Z</time>
      </trkpt>
      <trkpt lat="43.02422" lon="2.25102">
        <ele>192.2</ele>
        <time>2021-10-09T10:19:49Z</time>
      </trkpt>
      <trkpt lat="43.0243" lon="2.25101">
        <ele>192.2</ele>
        <time>2021-10-09T10:19:50Z</time>
      </trkpt>
      <trkpt lat="43.02479" lon="2.25098">
        <ele>191.8</ele>
        <time>2021-10-09T10:19:56Z</time>
      </trkpt>
      <trkpt lat="43.02533" lon="2.25101">
        <ele>191.6</ele>
        <time>2021-10-09T10:20:03Z</time>
      </trkpt>
      <trkpt lat="43.02588" lon="2.25095">
        <ele>191.2</ele>
        <time>2021-10-09T10:20:10Z</time>
      </trkpt>
      <trkpt lat="43.02644" lon="2.25089">
        <ele>191</ele>
        <time>2021-10-09T10:20:17Z</time>
      </trkpt>
      <trkpt lat="43.02652" lon="2.25089">
        <ele>191</ele>
        <time>2021-10-09T10:20:18Z</time>
      </trkpt>
      <trkpt lat="43.02699" lon="2.25085">
        <ele>190.6</ele>
        <time>2021-10-09T10:20:24Z</time>
      </trkpt>
      <trkpt lat="43.02746" lon="2.25079">
        <ele>190.2</ele>
        <time>2021-10-09T10:20:30Z</time>
      </trkpt>
      <trkpt lat="43.02801" lon="2.25072">
        <ele>190</ele>
        <time>2021-10-09T10:20:37Z</time>
      </trkpt>
      <trkpt lat="43.02857" lon="2.25066">
        <ele>189.8</ele>
        <time>2021-10-09T10:20:44Z</time>
      </trkpt>
      <trkpt lat="43.02881" lon="2.25063">
        <ele>189.8</ele>
        <time>2021-10-09T10:20:47Z</time>
      </trkpt>
      <trkpt lat="43.0294" lon="2.25056">
        <ele>189.6</ele>
        <time>2021-10-09T10:20:54Z</time>
      </trkpt>
      <trkpt lat="43.02948" lon="2.25055">
        <ele>189.6</ele>
        <time>2021-10-09T10:20:55Z</time>
      </trkpt>
      <trkpt lat="43.03007" lon="2.25043">
        <ele>189.2</ele>
        <time>2021-10-09T10:21:02Z</time>
      </trkpt>
      <trkpt lat="43.03048" lon="2.25033">
        <ele>189</ele>
        <time>2021-10-09T10:21:07Z</time>
      </trkpt>
      <trkpt lat="43.03108" lon="2.25019">
        <ele>188.8</ele>
        <time>2021-10-09T10:21:14Z</time>
      </trkpt>
      <trkpt lat="43.03116" lon="2.25016">
        <ele>188.8</ele>
        <time>2021-10-09T10:21:15Z</time>
      </trkpt>
      <trkpt lat="43.03166" lon="2.24997">
        <ele>188.8</ele>
        <time>2021-10-09T10:21:22Z</time>
      </trkpt>
      <trkpt lat="43.03215" lon="2.24976">
        <ele>188.6</ele>
        <time>2021-10-09T10:21:27Z</time>
      </trkpt>
      <trkpt lat="43.03264" lon="2.2495">
        <ele>188.6</ele>
        <time>2021-10-09T10:21:33Z</time>
      </trkpt>
      <trkpt lat="43.03312" lon="2.24919">
        <ele>188.4</ele>
        <time>2021-10-09T10:21:39Z</time>
      </trkpt>
      <trkpt lat="43.0336" lon="2.24886">
        <ele>188</ele>
        <time>2021-10-09T10:21:45Z</time>
      </trkpt>
      <trkpt lat="43.03413" lon="2.24844">
        <ele>187.8</ele>
        <time>2021-10-09T10:21:52Z</time>
      </trkpt>
      <trkpt lat="43.03464" lon="2.24798">
        <ele>187.2</ele>
        <time>2021-10-09T10:21:59Z</time>
      </trkpt>
      <trkpt lat="43.03514" lon="2.24747">
        <ele>187</ele>
        <time>2021-10-09T10:22:06Z</time>
      </trkpt>
      <trkpt lat="43.03521" lon="2.24739">
        <ele>186.8</ele>
        <time>2021-10-09T10:22:07Z</time>
      </trkpt>
      <trkpt lat="43.03562" lon="2.24691">
        <ele>186.6</ele>
        <time>2021-10-09T10:22:13Z</time>
      </trkpt>
      <trkpt lat="43.03569" lon="2.24683">
        <ele>186.4</ele>
        <time>2021-10-09T10:22:14Z</time>
      </trkpt>
      <trkpt lat="43.03609" lon="2.24636">
        <ele>186</ele>
        <time>2021-10-09T10:22:20Z</time>
      </trkpt>
      <trkpt lat="43.03644" lon="2.24597">
        <ele>185.8</ele>
        <time>2021-10-09T10:22:25Z</time>
      </trkpt>
      <trkpt lat="43.03688" lon="2.24552">
        <ele>185.4</ele>
        <time>2021-10-09T10:22:31Z</time>
      </trkpt>
      <trkpt lat="43.03696" lon="2.24544">
        <ele>185.2</ele>
        <time>2021-10-09T10:22:32Z</time>
      </trkpt>
      <trkpt lat="43.03739" lon="2.24499">
        <ele>184</ele>
        <time>2021-10-09T10:22:38Z</time>
      </trkpt>
      <trkpt lat="43.03783" lon="2.24453">
        <ele>182.6</ele>
        <time>2021-10-09T10:22:44Z</time>
      </trkpt>
      <trkpt lat="43.03791" lon="2.24446">
        <ele>182.4</ele>
        <time>2021-10-09T10:22:45Z</time>
      </trkpt>
      <trkpt lat="43.03836" lon="2.24399">
        <ele>181.8</ele>
        <time>2021-10-09T10:22:51Z</time>
      </trkpt>
      <trkpt lat="43.03883" lon="2.24347">
        <ele>181.6</ele>
        <time>2021-10-09T10:22:57Z</time>
      </trkpt>
      <trkpt lat="43.03907" lon="2.24321">
        <ele>181.4</ele>
        <time>2021-10-09T10:23:00Z</time>
      </trkpt>
      <trkpt lat="43.03956" lon="2.2427">
        <ele>181</ele>
        <time>2021-10-09T10:23:06Z</time>
      </trkpt>
      <trkpt lat="43.03972" lon="2.24252">
        <ele>181</ele>
        <time>2021-10-09T10:23:08Z</time>
      </trkpt>
      <trkpt lat="43.04018" lon="2.24201">
        <ele>180.6</ele>
        <time>2021-10-09T10:23:14Z</time>
      </trkpt>
      <trkpt lat="43.04033" lon="2.24185">
        <ele>180.4</ele>
        <time>2021-10-09T10:23:16Z</time>
      </trkpt>
      <trkpt lat="43.04076" lon="2.24139">
        <ele>180</ele>
        <time>2021-10-09T10:23:22Z</time>
      </trkpt>
      <trkpt lat="43.04119" lon="2.24095">
        <ele>179.4</ele>
        <time>2021-10-09T10:23:28Z</time>
      </trkpt>
      <trkpt lat="43.04127" lon="2.24087">
        <ele>179.4</ele>
        <time>2021-10-09T10:23:29Z</time>
      </trkpt>
      <trkpt lat="43.04155" lon="2.24057">
        <ele>179.4</ele>
        <time>2021-10-09T10:23:33Z</time>
      </trkpt>
      <trkpt lat="43.042" lon="2.24011">
        <ele>179.4</ele>
        <time>2021-10-09T10:23:39Z</time>
      </trkpt>
      <trkpt lat="43.04208" lon="2.24004">
        <ele>179.2</ele>
        <time>2021-10-09T10:23:40Z</time>
      </trkpt>
      <trkpt lat="43.04253" lon="2.2396">
        <ele>179.2</ele>
        <time>2021-10-09T10:23:46Z</time>
      </trkpt>
      <trkpt lat="43.04281" lon="2.23929">
        <ele>179.2</ele>
        <time>2021-10-09T10:23:50Z</time>
      </trkpt>
      <trkpt lat="43.0432" lon="2.23879">
        <ele>179.2</ele>
        <time>2021-10-09T10:23:56Z</time>
      </trkpt>
      <trkpt lat="43.0434" lon="2.2383">
        <ele>179</ele>
        <time>2021-10-09T10:24:01Z</time>
      </trkpt>
      <trkpt lat="43.04352" lon="2.23787">
        <ele>179.2</ele>
        <time>2021-10-09T10:24:05Z</time>
      </trkpt>
      <trkpt lat="43.04355" lon="2.23776">
        <ele>179.2</ele>
        <time>2021-10-09T10:24:06Z</time>
      </trkpt>
      <trkpt lat="43.04362" lon="2.23722">
        <ele>179.2</ele>
        <time>2021-10-09T10:24:11Z</time>
      </trkpt>
      <trkpt lat="43.04369" lon="2.23667">
        <ele>179.4</ele>
        <time>2021-10-09T10:24:16Z</time>
      </trkpt>
      <trkpt lat="43.04379" lon="2.23588">
        <ele>179.6</ele>
        <time>2021-10-09T10:24:23Z</time>
      </trkpt>
      <trkpt lat="43.04382" lon="2.23566">
        <ele>179.6</ele>
        <time>2021-10-09T10:24:25Z</time>
      </trkpt>
      <trkpt lat="43.04392" lon="2.23486">
        <ele>179.4</ele>
        <time>2021-10-09T10:24:32Z</time>
      </trkpt>
      <trkpt lat="43.04395" lon="2.23464">
        <ele>179.4</ele>
        <time>2021-10-09T10:24:34Z</time>
      </trkpt>
      <trkpt lat="43.04406" lon="2.23382">
        <ele>179.2</ele>
        <time>2021-10-09T10:24:41Z</time>
      </trkpt>
      <trkpt lat="43.04409" lon="2.23358">
        <ele>179</ele>
        <time>2021-10-09T10:24:43Z</time>
      </trkpt>
      <trkpt lat="43.04418" lon="2.23275">
        <ele>178.8</ele>
        <time>2021-10-09T10:24:50Z</time>
      </trkpt>
      <trkpt lat="43.04421" lon="2.23251">
        <ele>178.6</ele>
        <time>2021-10-09T10:24:52Z</time>
      </trkpt>
      <trkpt lat="43.04423" lon="2.23226">
        <ele>178.6</ele>
        <time>2021-10-09T10:24:54Z</time>
      </trkpt>
      <trkpt lat="43.04434" lon="2.23201">
        <ele>178.4</ele>
        <time>2021-10-09T10:24:56Z</time>
      </trkpt>
      <trkpt lat="43.0443" lon="2.23165">
        <ele>178.4</ele>
        <time>2021-10-09T10:24:59Z</time>
      </trkpt>
      <trkpt lat="43.0444" lon="2.23093">
        <ele>178.4</ele>
        <time>2021-10-09T10:25:05Z</time>
      </trkpt>
      <trkpt lat="43.0445" lon="2.2302">
        <ele>178.4</ele>
        <time>2021-10-09T10:25:11Z</time>
      </trkpt>
      <trkpt lat="43.04451" lon="2.23008">
        <ele>178.4</ele>
        <time>2021-10-09T10:25:12Z</time>
      </trkpt>
      <trkpt lat="43.04462" lon="2.22924">
        <ele>178.2</ele>
        <time>2021-10-09T10:25:19Z</time>
      </trkpt>
      <trkpt lat="43.04465" lon="2.22899">
        <ele>178.2</ele>
        <time>2021-10-09T10:25:21Z</time>
      </trkpt>
      <trkpt lat="43.04474" lon="2.22826">
        <ele>177.8</ele>
        <time>2021-10-09T10:25:27Z</time>
      </trkpt>
      <trkpt lat="43.04478" lon="2.22801">
        <ele>177.6</ele>
        <time>2021-10-09T10:25:29Z</time>
      </trkpt>
      <trkpt lat="43.04486" lon="2.22728">
        <ele>177.2</ele>
        <time>2021-10-09T10:25:35Z</time>
      </trkpt>
      <trkpt lat="43.04489" lon="2.22704">
        <ele>177</ele>
        <time>2021-10-09T10:25:37Z</time>
      </trkpt>
      <trkpt lat="43.04498" lon="2.22631">
        <ele>176.6</ele>
        <time>2021-10-09T10:25:43Z</time>
      </trkpt>
      <trkpt lat="43.04505" lon="2.22559">
        <ele>176.2</ele>
        <time>2021-10-09T10:25:49Z</time>
      </trkpt>
      <trkpt lat="43.04506" lon="2.22523">
        <ele>175.8</ele>
        <time>2021-10-09T10:25:52Z</time>
      </trkpt>
      <trkpt lat="43.04512" lon="2.22502">
        <ele>175.8</ele>
        <time>2021-10-09T10:25:54Z</time>
      </trkpt>
      <trkpt lat="43.04515" lon="2.22477">
        <ele>175.6</ele>
        <time>2021-10-09T10:25:56Z</time>
      </trkpt>
      <trkpt lat="43.04522" lon="2.22442">
        <ele>175.6</ele>
        <time>2021-10-09T10:25:59Z</time>
      </trkpt>
      <trkpt lat="43.04532" lon="2.22359">
        <ele>175.2</ele>
        <time>2021-10-09T10:26:06Z</time>
      </trkpt>
      <trkpt lat="43.04534" lon="2.22335">
        <ele>175.2</ele>
        <time>2021-10-09T10:26:08Z</time>
      </trkpt>
      <trkpt lat="43.04542" lon="2.22267">
        <ele>174.8</ele>
        <time>2021-10-09T10:26:14Z</time>
      </trkpt>
      <trkpt lat="43.04556" lon="2.22213">
        <ele>174.6</ele>
        <time>2021-10-09T10:26:19Z</time>
      </trkpt>
      <trkpt lat="43.0458" lon="2.22168">
        <ele>174.4</ele>
        <time>2021-10-09T10:26:24Z</time>
      </trkpt>
      <trkpt lat="43.04624" lon="2.2212">
        <ele>174.6</ele>
        <time>2021-10-09T10:26:31Z</time>
      </trkpt>
      <trkpt lat="43.04631" lon="2.22115">
        <ele>174.6</ele>
        <time>2021-10-09T10:26:32Z</time>
      </trkpt>
      <trkpt lat="43.04645" lon="2.22104">
        <ele>174.6</ele>
        <time>2021-10-09T10:26:34Z</time>
      </trkpt>
      <trkpt lat="43.04651" lon="2.22099">
        <ele>174.6</ele>
        <time>2021-10-09T10:26:35Z</time>
      </trkpt>
      <trkpt lat="43.04691" lon="2.22081">
        <ele>174.2</ele>
        <time>2021-10-09T10:26:40Z</time>
      </trkpt>
      <trkpt lat="43.04747" lon="2.22065">
        <ele>175.4</ele>
        <time>2021-10-09T10:26:47Z</time>
      </trkpt>
      <trkpt lat="43.04755" lon="2.22062">
        <ele>175.4</ele>
        <time>2021-10-09T10:26:48Z</time>
      </trkpt>
      <trkpt lat="43.04812" lon="2.22047">
        <ele>176</ele>
        <time>2021-10-09T10:26:55Z</time>
      </trkpt>
      <trkpt lat="43.04867" lon="2.2203">
        <ele>176.4</ele>
        <time>2021-10-09T10:27:02Z</time>
      </trkpt>
      <trkpt lat="43.04875" lon="2.22027">
        <ele>176.4</ele>
        <time>2021-10-09T10:27:03Z</time>
      </trkpt>
      <trkpt lat="43.0492" lon="2.21997">
        <ele>176.6</ele>
        <time>2021-10-09T10:27:09Z</time>
      </trkpt>
      <trkpt lat="43.04956" lon="2.21954">
        <ele>176.4</ele>
        <time>2021-10-09T10:27:15Z</time>
      </trkpt>
      <trkpt lat="43.04995" lon="2.21902">
        <ele>176</ele>
        <time>2021-10-09T10:27:22Z</time>
      </trkpt>
      <trkpt lat="43.05002" lon="2.21895">
        <ele>176</ele>
        <time>2021-10-09T10:27:23Z</time>
      </trkpt>
      <trkpt lat="43.05008" lon="2.21888">
        <ele>175.8</ele>
        <time>2021-10-09T10:27:24Z</time>
      </trkpt>
      <trkpt lat="43.05014" lon="2.21881">
        <ele>175.8</ele>
        <time>2021-10-09T10:27:25Z</time>
      </trkpt>
      <trkpt lat="43.05026" lon="2.21866">
        <ele>175.8</ele>
        <time>2021-10-09T10:27:27Z</time>
      </trkpt>
      <trkpt lat="43.05033" lon="2.2186">
        <ele>175.6</ele>
        <time>2021-10-09T10:27:28Z</time>
      </trkpt>
      <trkpt lat="43.05041" lon="2.21854">
        <ele>175.6</ele>
        <time>2021-10-09T10:27:29Z</time>
      </trkpt>
      <trkpt lat="43.05056" lon="2.21845">
        <ele>175.4</ele>
        <time>2021-10-09T10:27:31Z</time>
      </trkpt>
      <trkpt lat="43.05063" lon="2.21838">
        <ele>175.2</ele>
        <time>2021-10-09T10:27:32Z</time>
      </trkpt>
      <trkpt lat="43.05069" lon="2.21831">
        <ele>175.2</ele>
        <time>2021-10-09T10:27:33Z</time>
      </trkpt>
      <trkpt lat="43.05077" lon="2.21812">
        <ele>175</ele>
        <time>2021-10-09T10:27:35Z</time>
      </trkpt>
      <trkpt lat="43.05081" lon="2.21801">
        <ele>175</ele>
        <time>2021-10-09T10:27:36Z</time>
      </trkpt>
      <trkpt lat="43.05091" lon="2.21782">
        <ele>175</ele>
        <time>2021-10-09T10:27:38Z</time>
      </trkpt>
      <trkpt lat="43.05104" lon="2.21767">
        <ele>174.8</ele>
        <time>2021-10-09T10:27:40Z</time>
      </trkpt>
      <trkpt lat="43.05143" lon="2.21738">
        <ele>174.6</ele>
        <time>2021-10-09T10:27:45Z</time>
      </trkpt>
      <trkpt lat="43.05184" lon="2.21683">
        <ele>174.2</ele>
        <time>2021-10-09T10:27:52Z</time>
      </trkpt>
      <trkpt lat="43.05222" lon="2.21624">
        <ele>174</ele>
        <time>2021-10-09T10:27:59Z</time>
      </trkpt>
      <trkpt lat="43.05264" lon="2.21535">
        <ele>174.2</ele>
        <time>2021-10-09T10:28:06Z</time>
      </trkpt>
      <trkpt lat="43.05264" lon="2.21535">
        <ele>174.2</ele>
        <time>2021-10-09T10:28:07Z</time>
      </trkpt>
      <trkpt lat="43.05298" lon="2.21478">
        <ele>174.4</ele>
        <time>2021-10-09T10:28:14Z</time>
      </trkpt>
      <trkpt lat="43.05327" lon="2.2144">
        <ele>174</ele>
        <time>2021-10-09T10:28:19Z</time>
      </trkpt>
      <trkpt lat="43.05357" lon="2.21403">
        <ele>173.2</ele>
        <time>2021-10-09T10:28:24Z</time>
      </trkpt>
      <trkpt lat="43.05397" lon="2.21357">
        <ele>171.8</ele>
        <time>2021-10-09T10:28:31Z</time>
      </trkpt>
      <trkpt lat="43.05419" lon="2.21332">
        <ele>171</ele>
        <time>2021-10-09T10:28:35Z</time>
      </trkpt>
      <trkpt lat="43.05433" lon="2.21324">
        <ele>170.8</ele>
        <time>2021-10-09T10:28:37Z</time>
      </trkpt>
      <trkpt lat="43.05439" lon="2.2132">
        <ele>170.8</ele>
        <time>2021-10-09T10:28:38Z</time>
      </trkpt>
      <trkpt lat="43.05453" lon="2.21315">
        <ele>170.8</ele>
        <time>2021-10-09T10:28:40Z</time>
      </trkpt>
      <trkpt lat="43.05463" lon="2.21301">
        <ele>170.8</ele>
        <time>2021-10-09T10:28:42Z</time>
      </trkpt>
      <trkpt lat="43.05456" lon="2.21282">
        <ele>170.8</ele>
        <time>2021-10-09T10:28:44Z</time>
      </trkpt>
      <trkpt lat="43.05442" lon="2.21227">
        <ele>171</ele>
        <time>2021-10-09T10:28:50Z</time>
      </trkpt>
      <trkpt lat="43.0543" lon="2.21166">
        <ele>170.8</ele>
        <time>2021-10-09T10:28:57Z</time>
      </trkpt>
      <trkpt lat="43.05418" lon="2.21092">
        <ele>171</ele>
        <time>2021-10-09T10:29:05Z</time>
      </trkpt>
      <trkpt lat="43.05405" lon="2.21018">
        <ele>171.4</ele>
        <time>2021-10-09T10:29:13Z</time>
      </trkpt>
      <trkpt lat="43.05403" lon="2.21009">
        <ele>171.4</ele>
        <time>2021-10-09T10:29:14Z</time>
      </trkpt>
      <trkpt lat="43.05393" lon="2.20937">
        <ele>171.8</ele>
        <time>2021-10-09T10:29:22Z</time>
      </trkpt>
      <trkpt lat="43.05399" lon="2.20883">
        <ele>172</ele>
        <time>2021-10-09T10:29:28Z</time>
      </trkpt>
      <trkpt lat="43.05408" lon="2.20827">
        <ele>172</ele>
        <time>2021-10-09T10:29:34Z</time>
      </trkpt>
      <trkpt lat="43.05409" lon="2.20817">
        <ele>172</ele>
        <time>2021-10-09T10:29:35Z</time>
      </trkpt>
      <trkpt lat="43.05422" lon="2.20743">
        <ele>172.2</ele>
        <time>2021-10-09T10:29:43Z</time>
      </trkpt>
      <trkpt lat="43.05429" lon="2.20679">
        <ele>172.4</ele>
        <time>2021-10-09T10:29:50Z</time>
      </trkpt>
      <trkpt lat="43.05441" lon="2.20617">
        <ele>172.6</ele>
        <time>2021-10-09T10:29:57Z</time>
      </trkpt>
      <trkpt lat="43.05453" lon="2.20549">
        <ele>172.8</ele>
        <time>2021-10-09T10:30:05Z</time>
      </trkpt>
      <trkpt lat="43.05463" lon="2.20481">
        <ele>173.4</ele>
        <time>2021-10-09T10:30:13Z</time>
      </trkpt>
      <trkpt lat="43.05468" lon="2.20442">
        <ele>173.8</ele>
        <time>2021-10-09T10:30:18Z</time>
      </trkpt>
      <trkpt lat="43.05466" lon="2.20384">
        <ele>174.4</ele>
        <time>2021-10-09T10:30:25Z</time>
      </trkpt>
      <trkpt lat="43.05457" lon="2.20331">
        <ele>175.2</ele>
        <time>2021-10-09T10:30:32Z</time>
      </trkpt>
      <trkpt lat="43.05445" lon="2.20271">
        <ele>176</ele>
        <time>2021-10-09T10:30:41Z</time>
      </trkpt>
    </trkseg>
  </trk>
</gpx>